<?xml version="1.0" encoding="UTF-8" standalone="no" ?>
<gpx xmlns="http://www.topografix.com/GPX/1/1" xmlns:xsi="http://www.w3.org/2001/XMLSchema-instance" xsi:schemaLocation="http://www.topografix.com/GPX/1/1 http://www.topografix.com/GPX/1/1/gpx.xsd" version="1.1" creator="VisuGPX - https://www.visugpx.com">
  <metadata>
    <name>waterproof</name>
    <desc><![CDATA[waterproof]]></desc>
  </metadata>
  <wpt lat="47.50835" lon="6.76623">
    <ele>387</ele>
    <name><![CDATA[Point de cheminement 1]]></name>
    <desc><![CDATA[]]></desc>
  </wpt>
  <wpt lat="47.49103" lon="6.76251">
    <ele>322</ele>
    <name><![CDATA[Point de cheminement 2]]></name>
    <desc><![CDATA[]]></desc>
  </wpt>
  <wpt lat="47.48921" lon="6.73645">
    <ele>378</ele>
    <name><![CDATA[Point de cheminement 3]]></name>
    <desc><![CDATA[]]></desc>
  </wpt>
  <wpt lat="47.48808" lon="6.74959">
    <ele>455</ele>
    <name><![CDATA[Point de cheminement 4]]></name>
    <desc><![CDATA[]]></desc>
  </wpt>
  <wpt lat="47.48568" lon="6.74476">
    <ele>403</ele>
    <name><![CDATA[Point de cheminement 5]]></name>
    <desc><![CDATA[]]></desc>
  </wpt>
  <wpt lat="47.49333" lon="6.72323">
    <ele>414</ele>
    <name><![CDATA[Point de cheminement 6]]></name>
    <desc><![CDATA[]]></desc>
  </wpt>
  <wpt lat="47.4934" lon="6.72444">
    <ele>409</ele>
    <name><![CDATA[Point de cheminement 7]]></name>
    <desc><![CDATA[]]></desc>
  </wpt>
  <wpt lat="47.49331" lon="6.74684">
    <ele>364</ele>
    <name><![CDATA[Point de cheminement 8]]></name>
    <desc><![CDATA[]]></desc>
  </wpt>
  <wpt lat="47.49981" lon="6.76568">
    <ele>412</ele>
    <name><![CDATA[Point de cheminement 9]]></name>
    <desc><![CDATA[]]></desc>
  </wpt>
  <wpt lat="47.51806" lon="6.77478">
    <ele>388</ele>
    <name><![CDATA[Point de cheminement 10]]></name>
    <desc><![CDATA[]]></desc>
  </wpt>
  <trk>
    <name><![CDATA[Rue Antoine Coysevox]]></name>
    <desc><![CDATA[]]></desc>
    <trkseg>
      <trkpt lat="47.518" lon="6.77509">
        <ele>389</ele>
        <time>2016-02-07T08:10:29.474Z</time>
      </trkpt>
      <trkpt lat="47.51804" lon="6.77499">
        <ele>388</ele>
        <time>2016-02-07T08:10:30.000Z</time>
      </trkpt>
      <trkpt lat="47.51806" lon="6.77494">
        <ele>388</ele>
        <time>2016-02-07T08:11:04.000Z</time>
      </trkpt>
      <trkpt lat="47.51806" lon="6.77493">
        <ele>388</ele>
        <time>2016-02-07T08:11:05.000Z</time>
      </trkpt>
      <trkpt lat="47.51808" lon="6.77487">
        <ele>388</ele>
        <time>2016-02-07T08:15:34.000Z</time>
      </trkpt>
      <trkpt lat="47.51808" lon="6.77487">
        <ele>388</ele>
        <time>2016-02-07T08:15:35.000Z</time>
      </trkpt>
      <trkpt lat="47.51808" lon="6.77485">
        <ele>388</ele>
        <time>2016-02-07T08:17:55.000Z</time>
      </trkpt>
      <trkpt lat="47.5181" lon="6.77473">
        <ele>388</ele>
        <time>2016-02-07T08:17:56.000Z</time>
      </trkpt>
      <trkpt lat="47.51807" lon="6.77476">
        <ele>388</ele>
        <time>2016-02-07T08:19:05.000Z</time>
      </trkpt>
      <trkpt lat="47.51807" lon="6.77479">
        <ele>388</ele>
        <time>2016-02-07T08:19:06.000Z</time>
      </trkpt>
      <trkpt lat="47.51804" lon="6.77483">
        <ele>388</ele>
        <time>2016-02-07T08:19:50.000Z</time>
      </trkpt>
      <trkpt lat="47.51804" lon="6.77484">
        <ele>388</ele>
        <time>2016-02-07T08:19:51.000Z</time>
      </trkpt>
      <trkpt lat="47.51808" lon="6.77487">
        <ele>388</ele>
        <time>2016-02-07T08:20:04.000Z</time>
      </trkpt>
      <trkpt lat="47.51807" lon="6.77489">
        <ele>388</ele>
        <time>2016-02-07T08:20:05.000Z</time>
      </trkpt>
      <trkpt lat="47.51805" lon="6.77492">
        <ele>388</ele>
        <time>2016-02-07T08:20:06.000Z</time>
      </trkpt>
      <trkpt lat="47.51802" lon="6.77493">
        <ele>388</ele>
        <time>2016-02-07T08:20:07.000Z</time>
      </trkpt>
      <trkpt lat="47.51799" lon="6.77492">
        <ele>388</ele>
        <time>2016-02-07T08:20:08.000Z</time>
      </trkpt>
      <trkpt lat="47.51796" lon="6.77491">
        <ele>388</ele>
        <time>2016-02-07T08:20:09.000Z</time>
      </trkpt>
      <trkpt lat="47.51792" lon="6.7749">
        <ele>388</ele>
        <time>2016-02-07T08:20:10.000Z</time>
      </trkpt>
      <trkpt lat="47.51789" lon="6.77488">
        <ele>388</ele>
        <time>2016-02-07T08:20:11.000Z</time>
      </trkpt>
      <trkpt lat="47.51785" lon="6.77487">
        <ele>388</ele>
        <time>2016-02-07T08:20:12.000Z</time>
      </trkpt>
      <trkpt lat="47.51782" lon="6.77486">
        <ele>388</ele>
        <time>2016-02-07T08:20:13.000Z</time>
      </trkpt>
      <trkpt lat="47.51778" lon="6.77485">
        <ele>388</ele>
        <time>2016-02-07T08:20:14.000Z</time>
      </trkpt>
      <trkpt lat="47.51775" lon="6.77484">
        <ele>388</ele>
        <time>2016-02-07T08:20:15.000Z</time>
      </trkpt>
      <trkpt lat="47.51772" lon="6.77483">
        <ele>388</ele>
        <time>2016-02-07T08:20:16.001Z</time>
      </trkpt>
      <trkpt lat="47.51768" lon="6.77483">
        <ele>389</ele>
        <time>2016-02-07T08:20:17.000Z</time>
      </trkpt>
      <trkpt lat="47.51765" lon="6.77482">
        <ele>389</ele>
        <time>2016-02-07T08:20:18.000Z</time>
      </trkpt>
      <trkpt lat="47.51761" lon="6.77481">
        <ele>389</ele>
        <time>2016-02-07T08:20:19.000Z</time>
      </trkpt>
      <trkpt lat="47.51758" lon="6.7748">
        <ele>389</ele>
        <time>2016-02-07T08:20:20.001Z</time>
      </trkpt>
      <trkpt lat="47.51755" lon="6.77479">
        <ele>389</ele>
        <time>2016-02-07T08:20:21.000Z</time>
      </trkpt>
      <trkpt lat="47.51751" lon="6.77478">
        <ele>389</ele>
        <time>2016-02-07T08:20:22.000Z</time>
      </trkpt>
      <trkpt lat="47.51748" lon="6.77478">
        <ele>389</ele>
        <time>2016-02-07T08:20:23.000Z</time>
      </trkpt>
      <trkpt lat="47.51744" lon="6.77477">
        <ele>389</ele>
        <time>2016-02-07T08:20:23.999Z</time>
      </trkpt>
      <trkpt lat="47.5174" lon="6.77477">
        <ele>389</ele>
        <time>2016-02-07T08:20:25.000Z</time>
      </trkpt>
      <trkpt lat="47.51737" lon="6.77478">
        <ele>389</ele>
        <time>2016-02-07T08:20:26.000Z</time>
      </trkpt>
      <trkpt lat="47.51733" lon="6.77481">
        <ele>389</ele>
        <time>2016-02-07T08:20:27.000Z</time>
      </trkpt>
      <trkpt lat="47.5173" lon="6.77482">
        <ele>389</ele>
        <time>2016-02-07T08:20:28.000Z</time>
      </trkpt>
      <trkpt lat="47.51726" lon="6.77486">
        <ele>389</ele>
        <time>2016-02-07T08:20:29.001Z</time>
      </trkpt>
      <trkpt lat="47.51723" lon="6.7749">
        <ele>389</ele>
        <time>2016-02-07T08:20:30.000Z</time>
      </trkpt>
      <trkpt lat="47.51722" lon="6.77495">
        <ele>389</ele>
        <time>2016-02-07T08:20:31.000Z</time>
      </trkpt>
      <trkpt lat="47.51721" lon="6.775">
        <ele>389</ele>
        <time>2016-02-07T08:20:32.000Z</time>
      </trkpt>
      <trkpt lat="47.5172" lon="6.77505">
        <ele>390</ele>
        <time>2016-02-07T08:20:33.000Z</time>
      </trkpt>
      <trkpt lat="47.5172" lon="6.77511">
        <ele>390</ele>
        <time>2016-02-07T08:20:34.000Z</time>
      </trkpt>
      <trkpt lat="47.5172" lon="6.77517">
        <ele>390</ele>
        <time>2016-02-07T08:20:35.000Z</time>
      </trkpt>
      <trkpt lat="47.51719" lon="6.77523">
        <ele>390</ele>
        <time>2016-02-07T08:20:36.000Z</time>
      </trkpt>
      <trkpt lat="47.51718" lon="6.77529">
        <ele>390</ele>
        <time>2016-02-07T08:20:37.000Z</time>
      </trkpt>
      <trkpt lat="47.51717" lon="6.77535">
        <ele>390</ele>
        <time>2016-02-07T08:20:38.000Z</time>
      </trkpt>
      <trkpt lat="47.51715" lon="6.7754">
        <ele>390</ele>
        <time>2016-02-07T08:20:39.000Z</time>
      </trkpt>
      <trkpt lat="47.51712" lon="6.77543">
        <ele>390</ele>
        <time>2016-02-07T08:20:40.000Z</time>
      </trkpt>
      <trkpt lat="47.51708" lon="6.77544">
        <ele>390</ele>
        <time>2016-02-07T08:20:41.000Z</time>
      </trkpt>
      <trkpt lat="47.51704" lon="6.77543">
        <ele>390</ele>
        <time>2016-02-07T08:20:42.000Z</time>
      </trkpt>
      <trkpt lat="47.51699" lon="6.77541">
        <ele>390</ele>
        <time>2016-02-07T08:20:43.000Z</time>
      </trkpt>
      <trkpt lat="47.51696" lon="6.77539">
        <ele>390</ele>
        <time>2016-02-07T08:20:44.000Z</time>
      </trkpt>
      <trkpt lat="47.51692" lon="6.77536">
        <ele>390</ele>
        <time>2016-02-07T08:20:45.000Z</time>
      </trkpt>
      <trkpt lat="47.51689" lon="6.77532">
        <ele>390</ele>
        <time>2016-02-07T08:20:46.000Z</time>
      </trkpt>
      <trkpt lat="47.51685" lon="6.77524">
        <ele>390</ele>
        <time>2016-02-07T08:20:47.000Z</time>
      </trkpt>
      <trkpt lat="47.5168" lon="6.77516">
        <ele>390</ele>
        <time>2016-02-07T08:20:48.000Z</time>
      </trkpt>
      <trkpt lat="47.51676" lon="6.7751">
        <ele>389</ele>
        <time>2016-02-07T08:20:49.000Z</time>
      </trkpt>
      <trkpt lat="47.51671" lon="6.77505">
        <ele>389</ele>
        <time>2016-02-07T08:20:50.000Z</time>
      </trkpt>
      <trkpt lat="47.51666" lon="6.77499">
        <ele>389</ele>
        <time>2016-02-07T08:20:51.000Z</time>
      </trkpt>
      <trkpt lat="47.5166" lon="6.77493">
        <ele>388</ele>
        <time>2016-02-07T08:20:52.000Z</time>
      </trkpt>
      <trkpt lat="47.51655" lon="6.77487">
        <ele>387</ele>
        <time>2016-02-07T08:20:53.000Z</time>
      </trkpt>
      <trkpt lat="47.5165" lon="6.77482">
        <ele>387</ele>
        <time>2016-02-07T08:20:54.000Z</time>
      </trkpt>
      <trkpt lat="47.51646" lon="6.77476">
        <ele>387</ele>
        <time>2016-02-07T08:20:55.001Z</time>
      </trkpt>
      <trkpt lat="47.51641" lon="6.7747">
        <ele>386</ele>
        <time>2016-02-07T08:20:56.000Z</time>
      </trkpt>
      <trkpt lat="47.51636" lon="6.77464">
        <ele>386</ele>
        <time>2016-02-07T08:20:56.999Z</time>
      </trkpt>
      <trkpt lat="47.5163" lon="6.77458">
        <ele>386</ele>
        <time>2016-02-07T08:20:58.000Z</time>
      </trkpt>
      <trkpt lat="47.51625" lon="6.77452">
        <ele>386</ele>
        <time>2016-02-07T08:20:59.000Z</time>
      </trkpt>
      <trkpt lat="47.5162" lon="6.77447">
        <ele>385</ele>
        <time>2016-02-07T08:21:00.000Z</time>
      </trkpt>
      <trkpt lat="47.51615" lon="6.77441">
        <ele>385</ele>
        <time>2016-02-07T08:21:01.000Z</time>
      </trkpt>
      <trkpt lat="47.51609" lon="6.77434">
        <ele>385</ele>
        <time>2016-02-07T08:21:02.000Z</time>
      </trkpt>
      <trkpt lat="47.51603" lon="6.77429">
        <ele>385</ele>
        <time>2016-02-07T08:21:03.000Z</time>
      </trkpt>
      <trkpt lat="47.51598" lon="6.77422">
        <ele>384</ele>
        <time>2016-02-07T08:21:04.000Z</time>
      </trkpt>
      <trkpt lat="47.51593" lon="6.77418">
        <ele>384</ele>
        <time>2016-02-07T08:21:05.000Z</time>
      </trkpt>
      <trkpt lat="47.51588" lon="6.77412">
        <ele>383</ele>
        <time>2016-02-07T08:21:06.000Z</time>
      </trkpt>
      <trkpt lat="47.51583" lon="6.77405">
        <ele>382</ele>
        <time>2016-02-07T08:21:07.001Z</time>
      </trkpt>
      <trkpt lat="47.51576" lon="6.77399">
        <ele>382</ele>
        <time>2016-02-07T08:21:08.000Z</time>
      </trkpt>
      <trkpt lat="47.5157" lon="6.77392">
        <ele>381</ele>
        <time>2016-02-07T08:21:09.000Z</time>
      </trkpt>
      <trkpt lat="47.51565" lon="6.77386">
        <ele>381</ele>
        <time>2016-02-07T08:21:10.000Z</time>
      </trkpt>
      <trkpt lat="47.5156" lon="6.77381">
        <ele>381</ele>
        <time>2016-02-07T08:21:11.000Z</time>
      </trkpt>
      <trkpt lat="47.51554" lon="6.77374">
        <ele>381</ele>
        <time>2016-02-07T08:21:12.000Z</time>
      </trkpt>
      <trkpt lat="47.51547" lon="6.77369">
        <ele>381</ele>
        <time>2016-02-07T08:21:13.000Z</time>
      </trkpt>
      <trkpt lat="47.51541" lon="6.77363">
        <ele>380</ele>
        <time>2016-02-07T08:21:14.000Z</time>
      </trkpt>
      <trkpt lat="47.51536" lon="6.77355">
        <ele>380</ele>
        <time>2016-02-07T08:21:15.000Z</time>
      </trkpt>
      <trkpt lat="47.51529" lon="6.77349">
        <ele>380</ele>
        <time>2016-02-07T08:21:16.000Z</time>
      </trkpt>
      <trkpt lat="47.51522" lon="6.77341">
        <ele>380</ele>
        <time>2016-02-07T08:21:17.000Z</time>
      </trkpt>
      <trkpt lat="47.51515" lon="6.77333">
        <ele>378</ele>
        <time>2016-02-07T08:21:18.000Z</time>
      </trkpt>
      <trkpt lat="47.51509" lon="6.77325">
        <ele>378</ele>
        <time>2016-02-07T08:21:19.000Z</time>
      </trkpt>
      <trkpt lat="47.51504" lon="6.77317">
        <ele>378</ele>
        <time>2016-02-07T08:21:20.000Z</time>
      </trkpt>
      <trkpt lat="47.51498" lon="6.77309">
        <ele>377</ele>
        <time>2016-02-07T08:21:21.000Z</time>
      </trkpt>
      <trkpt lat="47.51495" lon="6.77296">
        <ele>377</ele>
        <time>2016-02-07T08:21:22.000Z</time>
      </trkpt>
      <trkpt lat="47.51492" lon="6.77287">
        <ele>377</ele>
        <time>2016-02-07T08:21:23.000Z</time>
      </trkpt>
      <trkpt lat="47.5149" lon="6.77276">
        <ele>377</ele>
        <time>2016-02-07T08:21:24.000Z</time>
      </trkpt>
      <trkpt lat="47.51488" lon="6.77266">
        <ele>376</ele>
        <time>2016-02-07T08:21:25.000Z</time>
      </trkpt>
      <trkpt lat="47.51487" lon="6.77254">
        <ele>376</ele>
        <time>2016-02-07T08:21:26.000Z</time>
      </trkpt>
      <trkpt lat="47.51487" lon="6.77246">
        <ele>376</ele>
        <time>2016-02-07T08:21:27.000Z</time>
      </trkpt>
      <trkpt lat="47.51487" lon="6.77234">
        <ele>375</ele>
        <time>2016-02-07T08:21:28.000Z</time>
      </trkpt>
      <trkpt lat="47.51486" lon="6.77224">
        <ele>375</ele>
        <time>2016-02-07T08:21:28.999Z</time>
      </trkpt>
      <trkpt lat="47.51486" lon="6.77215">
        <ele>375</ele>
        <time>2016-02-07T08:21:30.001Z</time>
      </trkpt>
      <trkpt lat="47.51483" lon="6.77208">
        <ele>375</ele>
        <time>2016-02-07T08:21:31.000Z</time>
      </trkpt>
      <trkpt lat="47.5148" lon="6.77201">
        <ele>375</ele>
        <time>2016-02-07T08:21:31.999Z</time>
      </trkpt>
      <trkpt lat="47.51476" lon="6.77197">
        <ele>375</ele>
        <time>2016-02-07T08:21:33.002Z</time>
      </trkpt>
      <trkpt lat="47.51467" lon="6.77202">
        <ele>375</ele>
        <time>2016-02-07T08:21:34.000Z</time>
      </trkpt>
      <trkpt lat="47.51461" lon="6.77204">
        <ele>375</ele>
        <time>2016-02-07T08:21:35.000Z</time>
      </trkpt>
      <trkpt lat="47.51454" lon="6.77207">
        <ele>375</ele>
        <time>2016-02-07T08:21:36.000Z</time>
      </trkpt>
      <trkpt lat="47.51448" lon="6.77212">
        <ele>375</ele>
        <time>2016-02-07T08:21:37.000Z</time>
      </trkpt>
      <trkpt lat="47.51442" lon="6.77216">
        <ele>375</ele>
        <time>2016-02-07T08:21:38.000Z</time>
      </trkpt>
      <trkpt lat="47.51435" lon="6.77219">
        <ele>375</ele>
        <time>2016-02-07T08:21:39.000Z</time>
      </trkpt>
      <trkpt lat="47.51429" lon="6.77222">
        <ele>375</ele>
        <time>2016-02-07T08:21:40.000Z</time>
      </trkpt>
      <trkpt lat="47.51422" lon="6.77225">
        <ele>375</ele>
        <time>2016-02-07T08:21:41.000Z</time>
      </trkpt>
      <trkpt lat="47.51415" lon="6.77228">
        <ele>376</ele>
        <time>2016-02-07T08:21:42.000Z</time>
      </trkpt>
      <trkpt lat="47.51411" lon="6.7723">
        <ele>376</ele>
        <time>2016-02-07T08:21:43.000Z</time>
      </trkpt>
      <trkpt lat="47.51406" lon="6.77233">
        <ele>376</ele>
        <time>2016-02-07T08:21:44.000Z</time>
      </trkpt>
      <trkpt lat="47.51401" lon="6.77235">
        <ele>376</ele>
        <time>2016-02-07T08:21:45.000Z</time>
      </trkpt>
      <trkpt lat="47.51396" lon="6.77238">
        <ele>376</ele>
        <time>2016-02-07T08:21:46.000Z</time>
      </trkpt>
      <trkpt lat="47.51392" lon="6.7724">
        <ele>376</ele>
        <time>2016-02-07T08:21:47.000Z</time>
      </trkpt>
      <trkpt lat="47.51388" lon="6.77243">
        <ele>376</ele>
        <time>2016-02-07T08:21:48.000Z</time>
      </trkpt>
      <trkpt lat="47.51385" lon="6.77246">
        <ele>376</ele>
        <time>2016-02-07T08:21:49.000Z</time>
      </trkpt>
      <trkpt lat="47.51381" lon="6.7725">
        <ele>376</ele>
        <time>2016-02-07T08:21:50.000Z</time>
      </trkpt>
      <trkpt lat="47.51377" lon="6.77252">
        <ele>377</ele>
        <time>2016-02-07T08:21:51.000Z</time>
      </trkpt>
      <trkpt lat="47.51374" lon="6.77254">
        <ele>377</ele>
        <time>2016-02-07T08:21:52.000Z</time>
      </trkpt>
      <trkpt lat="47.51371" lon="6.77257">
        <ele>378</ele>
        <time>2016-02-07T08:21:53.000Z</time>
      </trkpt>
      <trkpt lat="47.51368" lon="6.77259">
        <ele>378</ele>
        <time>2016-02-07T08:21:54.000Z</time>
      </trkpt>
      <trkpt lat="47.51365" lon="6.77261">
        <ele>378</ele>
        <time>2016-02-07T08:21:55.000Z</time>
      </trkpt>
      <trkpt lat="47.51362" lon="6.77264">
        <ele>378</ele>
        <time>2016-02-07T08:21:56.000Z</time>
      </trkpt>
      <trkpt lat="47.5136" lon="6.77266">
        <ele>378</ele>
        <time>2016-02-07T08:21:57.000Z</time>
      </trkpt>
      <trkpt lat="47.51357" lon="6.77269">
        <ele>378</ele>
        <time>2016-02-07T08:21:58.000Z</time>
      </trkpt>
      <trkpt lat="47.51354" lon="6.77271">
        <ele>378</ele>
        <time>2016-02-07T08:21:59.000Z</time>
      </trkpt>
      <trkpt lat="47.51352" lon="6.77273">
        <ele>378</ele>
        <time>2016-02-07T08:22:00.000Z</time>
      </trkpt>
      <trkpt lat="47.51349" lon="6.77276">
        <ele>378</ele>
        <time>2016-02-07T08:22:01.000Z</time>
      </trkpt>
      <trkpt lat="47.51347" lon="6.77278">
        <ele>378</ele>
        <time>2016-02-07T08:22:02.000Z</time>
      </trkpt>
      <trkpt lat="47.51344" lon="6.77281">
        <ele>378</ele>
        <time>2016-02-07T08:22:03.000Z</time>
      </trkpt>
      <trkpt lat="47.51342" lon="6.77283">
        <ele>378</ele>
        <time>2016-02-07T08:22:04.000Z</time>
      </trkpt>
      <trkpt lat="47.51339" lon="6.77283">
        <ele>378</ele>
        <time>2016-02-07T08:22:05.000Z</time>
      </trkpt>
      <trkpt lat="47.51336" lon="6.77285">
        <ele>378</ele>
        <time>2016-02-07T08:22:06.000Z</time>
      </trkpt>
      <trkpt lat="47.51333" lon="6.77286">
        <ele>378</ele>
        <time>2016-02-07T08:22:07.000Z</time>
      </trkpt>
      <trkpt lat="47.51329" lon="6.77286">
        <ele>378</ele>
        <time>2016-02-07T08:22:08.000Z</time>
      </trkpt>
      <trkpt lat="47.51325" lon="6.77286">
        <ele>378</ele>
        <time>2016-02-07T08:22:09.000Z</time>
      </trkpt>
      <trkpt lat="47.51322" lon="6.77285">
        <ele>377</ele>
        <time>2016-02-07T08:22:10.000Z</time>
      </trkpt>
      <trkpt lat="47.51318" lon="6.77284">
        <ele>377</ele>
        <time>2016-02-07T08:22:11.000Z</time>
      </trkpt>
      <trkpt lat="47.51314" lon="6.77283">
        <ele>377</ele>
        <time>2016-02-07T08:22:12.000Z</time>
      </trkpt>
      <trkpt lat="47.5131" lon="6.77281">
        <ele>377</ele>
        <time>2016-02-07T08:22:13.000Z</time>
      </trkpt>
      <trkpt lat="47.51306" lon="6.77279">
        <ele>377</ele>
        <time>2016-02-07T08:22:14.000Z</time>
      </trkpt>
      <trkpt lat="47.51303" lon="6.77277">
        <ele>377</ele>
        <time>2016-02-07T08:22:14.999Z</time>
      </trkpt>
      <trkpt lat="47.51299" lon="6.77275">
        <ele>377</ele>
        <time>2016-02-07T08:22:16.000Z</time>
      </trkpt>
      <trkpt lat="47.51295" lon="6.77273">
        <ele>377</ele>
        <time>2016-02-07T08:22:17.000Z</time>
      </trkpt>
      <trkpt lat="47.51291" lon="6.77271">
        <ele>377</ele>
        <time>2016-02-07T08:22:18.000Z</time>
      </trkpt>
      <trkpt lat="47.51287" lon="6.77269">
        <ele>377</ele>
        <time>2016-02-07T08:22:19.000Z</time>
      </trkpt>
      <trkpt lat="47.51283" lon="6.77267">
        <ele>377</ele>
        <time>2016-02-07T08:22:20.000Z</time>
      </trkpt>
      <trkpt lat="47.5128" lon="6.77264">
        <ele>377</ele>
        <time>2016-02-07T08:22:21.000Z</time>
      </trkpt>
      <trkpt lat="47.51277" lon="6.77262">
        <ele>377</ele>
        <time>2016-02-07T08:22:22.000Z</time>
      </trkpt>
      <trkpt lat="47.51273" lon="6.77259">
        <ele>377</ele>
        <time>2016-02-07T08:22:23.000Z</time>
      </trkpt>
      <trkpt lat="47.5127" lon="6.77256">
        <ele>378</ele>
        <time>2016-02-07T08:22:24.000Z</time>
      </trkpt>
      <trkpt lat="47.51266" lon="6.77253">
        <ele>378</ele>
        <time>2016-02-07T08:22:25.000Z</time>
      </trkpt>
      <trkpt lat="47.51262" lon="6.77249">
        <ele>378</ele>
        <time>2016-02-07T08:22:26.000Z</time>
      </trkpt>
      <trkpt lat="47.51259" lon="6.77245">
        <ele>379</ele>
        <time>2016-02-07T08:22:27.000Z</time>
      </trkpt>
      <trkpt lat="47.51256" lon="6.7724">
        <ele>378</ele>
        <time>2016-02-07T08:22:28.000Z</time>
      </trkpt>
      <trkpt lat="47.51252" lon="6.77231">
        <ele>378</ele>
        <time>2016-02-07T08:22:29.000Z</time>
      </trkpt>
      <trkpt lat="47.51248" lon="6.77227">
        <ele>377</ele>
        <time>2016-02-07T08:22:30.000Z</time>
      </trkpt>
      <trkpt lat="47.51245" lon="6.7722">
        <ele>376</ele>
        <time>2016-02-07T08:22:31.000Z</time>
      </trkpt>
      <trkpt lat="47.51242" lon="6.77214">
        <ele>376</ele>
        <time>2016-02-07T08:22:32.000Z</time>
      </trkpt>
      <trkpt lat="47.51239" lon="6.77208">
        <ele>376</ele>
        <time>2016-02-07T08:22:33.000Z</time>
      </trkpt>
      <trkpt lat="47.51236" lon="6.77202">
        <ele>376</ele>
        <time>2016-02-07T08:22:34.000Z</time>
      </trkpt>
      <trkpt lat="47.51232" lon="6.77196">
        <ele>376</ele>
        <time>2016-02-07T08:22:35.000Z</time>
      </trkpt>
      <trkpt lat="47.51229" lon="6.77191">
        <ele>376</ele>
        <time>2016-02-07T08:22:36.000Z</time>
      </trkpt>
      <trkpt lat="47.51226" lon="6.77184">
        <ele>376</ele>
        <time>2016-02-07T08:22:37.000Z</time>
      </trkpt>
      <trkpt lat="47.51223" lon="6.77177">
        <ele>376</ele>
        <time>2016-02-07T08:22:38.000Z</time>
      </trkpt>
      <trkpt lat="47.51219" lon="6.77171">
        <ele>376</ele>
        <time>2016-02-07T08:22:39.000Z</time>
      </trkpt>
      <trkpt lat="47.51217" lon="6.77166">
        <ele>378</ele>
        <time>2016-02-07T08:22:40.000Z</time>
      </trkpt>
      <trkpt lat="47.51212" lon="6.77158">
        <ele>378</ele>
        <time>2016-02-07T08:22:41.000Z</time>
      </trkpt>
      <trkpt lat="47.51209" lon="6.7715">
        <ele>378</ele>
        <time>2016-02-07T08:22:42.000Z</time>
      </trkpt>
      <trkpt lat="47.51205" lon="6.77143">
        <ele>378</ele>
        <time>2016-02-07T08:22:43.000Z</time>
      </trkpt>
      <trkpt lat="47.51201" lon="6.77134">
        <ele>378</ele>
        <time>2016-02-07T08:22:44.000Z</time>
      </trkpt>
      <trkpt lat="47.51196" lon="6.77126">
        <ele>378</ele>
        <time>2016-02-07T08:22:45.000Z</time>
      </trkpt>
      <trkpt lat="47.51193" lon="6.77118">
        <ele>378</ele>
        <time>2016-02-07T08:22:46.000Z</time>
      </trkpt>
      <trkpt lat="47.51188" lon="6.7711">
        <ele>378</ele>
        <time>2016-02-07T08:22:47.000Z</time>
      </trkpt>
      <trkpt lat="47.51184" lon="6.77102">
        <ele>378</ele>
        <time>2016-02-07T08:22:48.000Z</time>
      </trkpt>
      <trkpt lat="47.5118" lon="6.77094">
        <ele>378</ele>
        <time>2016-02-07T08:22:49.000Z</time>
      </trkpt>
      <trkpt lat="47.51175" lon="6.77085">
        <ele>378</ele>
        <time>2016-02-07T08:22:50.000Z</time>
      </trkpt>
      <trkpt lat="47.51171" lon="6.77078">
        <ele>377</ele>
        <time>2016-02-07T08:22:51.000Z</time>
      </trkpt>
      <trkpt lat="47.51166" lon="6.7707">
        <ele>377</ele>
        <time>2016-02-07T08:22:52.000Z</time>
      </trkpt>
      <trkpt lat="47.51162" lon="6.77064">
        <ele>376</ele>
        <time>2016-02-07T08:22:53.000Z</time>
      </trkpt>
      <trkpt lat="47.51157" lon="6.77058">
        <ele>376</ele>
        <time>2016-02-07T08:22:54.000Z</time>
      </trkpt>
      <trkpt lat="47.5115" lon="6.77053">
        <ele>376</ele>
        <time>2016-02-07T08:22:55.000Z</time>
      </trkpt>
      <trkpt lat="47.51144" lon="6.77046">
        <ele>376</ele>
        <time>2016-02-07T08:22:56.000Z</time>
      </trkpt>
      <trkpt lat="47.51139" lon="6.77039">
        <ele>375</ele>
        <time>2016-02-07T08:22:57.000Z</time>
      </trkpt>
      <trkpt lat="47.51133" lon="6.77034">
        <ele>375</ele>
        <time>2016-02-07T08:22:58.001Z</time>
      </trkpt>
      <trkpt lat="47.51126" lon="6.77031">
        <ele>375</ele>
        <time>2016-02-07T08:22:59.000Z</time>
      </trkpt>
      <trkpt lat="47.5112" lon="6.77025">
        <ele>375</ele>
        <time>2016-02-07T08:23:00.000Z</time>
      </trkpt>
      <trkpt lat="47.51114" lon="6.7702">
        <ele>375</ele>
        <time>2016-02-07T08:23:01.001Z</time>
      </trkpt>
      <trkpt lat="47.51108" lon="6.77019">
        <ele>375</ele>
        <time>2016-02-07T08:23:02.000Z</time>
      </trkpt>
      <trkpt lat="47.51101" lon="6.77014">
        <ele>375</ele>
        <time>2016-02-07T08:23:03.000Z</time>
      </trkpt>
      <trkpt lat="47.51095" lon="6.77011">
        <ele>375</ele>
        <time>2016-02-07T08:23:04.000Z</time>
      </trkpt>
      <trkpt lat="47.51089" lon="6.77005">
        <ele>375</ele>
        <time>2016-02-07T08:23:05.000Z</time>
      </trkpt>
      <trkpt lat="47.51082" lon="6.77002">
        <ele>375</ele>
        <time>2016-02-07T08:23:06.000Z</time>
      </trkpt>
      <trkpt lat="47.51076" lon="6.76997">
        <ele>375</ele>
        <time>2016-02-07T08:23:07.000Z</time>
      </trkpt>
      <trkpt lat="47.51071" lon="6.76992">
        <ele>375</ele>
        <time>2016-02-07T08:23:08.000Z</time>
      </trkpt>
      <trkpt lat="47.51067" lon="6.76987">
        <ele>375</ele>
        <time>2016-02-07T08:23:09.000Z</time>
      </trkpt>
      <trkpt lat="47.51061" lon="6.76982">
        <ele>375</ele>
        <time>2016-02-07T08:23:10.000Z</time>
      </trkpt>
      <trkpt lat="47.51055" lon="6.76977">
        <ele>375</ele>
        <time>2016-02-07T08:23:11.000Z</time>
      </trkpt>
      <trkpt lat="47.51049" lon="6.76974">
        <ele>375</ele>
        <time>2016-02-07T08:23:12.000Z</time>
      </trkpt>
      <trkpt lat="47.51044" lon="6.76969">
        <ele>375</ele>
        <time>2016-02-07T08:23:13.000Z</time>
      </trkpt>
      <trkpt lat="47.5104" lon="6.76964">
        <ele>375</ele>
        <time>2016-02-07T08:23:14.000Z</time>
      </trkpt>
      <trkpt lat="47.51035" lon="6.7696">
        <ele>375</ele>
        <time>2016-02-07T08:23:15.000Z</time>
      </trkpt>
      <trkpt lat="47.51031" lon="6.76955">
        <ele>375</ele>
        <time>2016-02-07T08:23:16.000Z</time>
      </trkpt>
      <trkpt lat="47.51025" lon="6.7695">
        <ele>375</ele>
        <time>2016-02-07T08:23:17.000Z</time>
      </trkpt>
      <trkpt lat="47.5102" lon="6.76946">
        <ele>375</ele>
        <time>2016-02-07T08:23:18.000Z</time>
      </trkpt>
      <trkpt lat="47.51015" lon="6.76942">
        <ele>375</ele>
        <time>2016-02-07T08:23:19.000Z</time>
      </trkpt>
      <trkpt lat="47.51012" lon="6.76939">
        <ele>375</ele>
        <time>2016-02-07T08:23:20.000Z</time>
      </trkpt>
      <trkpt lat="47.51007" lon="6.76935">
        <ele>375</ele>
        <time>2016-02-07T08:23:21.000Z</time>
      </trkpt>
      <trkpt lat="47.51002" lon="6.7693">
        <ele>375</ele>
        <time>2016-02-07T08:23:22.000Z</time>
      </trkpt>
      <trkpt lat="47.50997" lon="6.76927">
        <ele>375</ele>
        <time>2016-02-07T08:23:22.999Z</time>
      </trkpt>
      <trkpt lat="47.50995" lon="6.7692">
        <ele>375</ele>
        <time>2016-02-07T08:23:24.000Z</time>
      </trkpt>
      <trkpt lat="47.50993" lon="6.76913">
        <ele>376</ele>
        <time>2016-02-07T08:23:25.000Z</time>
      </trkpt>
      <trkpt lat="47.50992" lon="6.76906">
        <ele>377</ele>
        <time>2016-02-07T08:23:26.000Z</time>
      </trkpt>
      <trkpt lat="47.50988" lon="6.76903">
        <ele>377</ele>
        <time>2016-02-07T08:23:27.000Z</time>
      </trkpt>
      <trkpt lat="47.50985" lon="6.76899">
        <ele>377</ele>
        <time>2016-02-07T08:23:28.000Z</time>
      </trkpt>
      <trkpt lat="47.50981" lon="6.76897">
        <ele>377</ele>
        <time>2016-02-07T08:23:28.999Z</time>
      </trkpt>
      <trkpt lat="47.50978" lon="6.76898">
        <ele>377</ele>
        <time>2016-02-07T08:23:30.000Z</time>
      </trkpt>
      <trkpt lat="47.50974" lon="6.76899">
        <ele>377</ele>
        <time>2016-02-07T08:23:31.000Z</time>
      </trkpt>
      <trkpt lat="47.50969" lon="6.76901">
        <ele>377</ele>
        <time>2016-02-07T08:23:32.000Z</time>
      </trkpt>
      <trkpt lat="47.50966" lon="6.769">
        <ele>377</ele>
        <time>2016-02-07T08:23:33.000Z</time>
      </trkpt>
      <trkpt lat="47.50962" lon="6.769">
        <ele>377</ele>
        <time>2016-02-07T08:23:33.999Z</time>
      </trkpt>
      <trkpt lat="47.5096" lon="6.76896">
        <ele>377</ele>
        <time>2016-02-07T08:23:35.000Z</time>
      </trkpt>
      <trkpt lat="47.50957" lon="6.76893">
        <ele>377</ele>
        <time>2016-02-07T08:23:36.000Z</time>
      </trkpt>
      <trkpt lat="47.50955" lon="6.7689">
        <ele>377</ele>
        <time>2016-02-07T08:23:37.000Z</time>
      </trkpt>
      <trkpt lat="47.50951" lon="6.76887">
        <ele>378</ele>
        <time>2016-02-07T08:23:38.000Z</time>
      </trkpt>
      <trkpt lat="47.50947" lon="6.76883">
        <ele>378</ele>
        <time>2016-02-07T08:23:39.000Z</time>
      </trkpt>
      <trkpt lat="47.50944" lon="6.7688">
        <ele>378</ele>
        <time>2016-02-07T08:23:40.000Z</time>
      </trkpt>
      <trkpt lat="47.50941" lon="6.76877">
        <ele>378</ele>
        <time>2016-02-07T08:23:41.000Z</time>
      </trkpt>
      <trkpt lat="47.50938" lon="6.76873">
        <ele>378</ele>
        <time>2016-02-07T08:23:42.000Z</time>
      </trkpt>
      <trkpt lat="47.50936" lon="6.7687">
        <ele>378</ele>
        <time>2016-02-07T08:23:43.000Z</time>
      </trkpt>
      <trkpt lat="47.50934" lon="6.76867">
        <ele>378</ele>
        <time>2016-02-07T08:23:44.000Z</time>
      </trkpt>
      <trkpt lat="47.50932" lon="6.76864">
        <ele>378</ele>
        <time>2016-02-07T08:23:45.000Z</time>
      </trkpt>
      <trkpt lat="47.5093" lon="6.7686">
        <ele>378</ele>
        <time>2016-02-07T08:23:46.000Z</time>
      </trkpt>
      <trkpt lat="47.50928" lon="6.76856">
        <ele>378</ele>
        <time>2016-02-07T08:23:47.000Z</time>
      </trkpt>
      <trkpt lat="47.50926" lon="6.76852">
        <ele>379</ele>
        <time>2016-02-07T08:23:48.000Z</time>
      </trkpt>
      <trkpt lat="47.50924" lon="6.76848">
        <ele>379</ele>
        <time>2016-02-07T08:23:49.000Z</time>
      </trkpt>
      <trkpt lat="47.50922" lon="6.76843">
        <ele>379</ele>
        <time>2016-02-07T08:23:50.000Z</time>
      </trkpt>
      <trkpt lat="47.5092" lon="6.76838">
        <ele>379</ele>
        <time>2016-02-07T08:23:51.000Z</time>
      </trkpt>
      <trkpt lat="47.50918" lon="6.76834">
        <ele>380</ele>
        <time>2016-02-07T08:23:51.998Z</time>
      </trkpt>
      <trkpt lat="47.50917" lon="6.76831">
        <ele>380</ele>
        <time>2016-02-07T08:23:53.000Z</time>
      </trkpt>
      <trkpt lat="47.50915" lon="6.76827">
        <ele>380</ele>
        <time>2016-02-07T08:23:54.000Z</time>
      </trkpt>
      <trkpt lat="47.50914" lon="6.76823">
        <ele>381</ele>
        <time>2016-02-07T08:23:55.000Z</time>
      </trkpt>
      <trkpt lat="47.50912" lon="6.76819">
        <ele>381</ele>
        <time>2016-02-07T08:23:56.000Z</time>
      </trkpt>
      <trkpt lat="47.5091" lon="6.76814">
        <ele>381</ele>
        <time>2016-02-07T08:23:57.000Z</time>
      </trkpt>
      <trkpt lat="47.50908" lon="6.76809">
        <ele>381</ele>
        <time>2016-02-07T08:23:58.000Z</time>
      </trkpt>
      <trkpt lat="47.50906" lon="6.76804">
        <ele>381</ele>
        <time>2016-02-07T08:23:59.000Z</time>
      </trkpt>
      <trkpt lat="47.50903" lon="6.76798">
        <ele>381</ele>
        <time>2016-02-07T08:23:59.999Z</time>
      </trkpt>
      <trkpt lat="47.50901" lon="6.76793">
        <ele>381</ele>
        <time>2016-02-07T08:24:01.000Z</time>
      </trkpt>
      <trkpt lat="47.509" lon="6.76789">
        <ele>381</ele>
        <time>2016-02-07T08:24:02.000Z</time>
      </trkpt>
      <trkpt lat="47.50898" lon="6.76785">
        <ele>381</ele>
        <time>2016-02-07T08:24:03.000Z</time>
      </trkpt>
      <trkpt lat="47.50896" lon="6.76781">
        <ele>381</ele>
        <time>2016-02-07T08:24:04.000Z</time>
      </trkpt>
      <trkpt lat="47.50894" lon="6.76777">
        <ele>381</ele>
        <time>2016-02-07T08:24:05.000Z</time>
      </trkpt>
      <trkpt lat="47.50893" lon="6.76772">
        <ele>381</ele>
        <time>2016-02-07T08:24:06.000Z</time>
      </trkpt>
      <trkpt lat="47.50891" lon="6.76768">
        <ele>381</ele>
        <time>2016-02-07T08:24:07.000Z</time>
      </trkpt>
      <trkpt lat="47.50889" lon="6.76762">
        <ele>381</ele>
        <time>2016-02-07T08:24:08.000Z</time>
      </trkpt>
      <trkpt lat="47.50888" lon="6.76758">
        <ele>381</ele>
        <time>2016-02-07T08:24:08.999Z</time>
      </trkpt>
      <trkpt lat="47.50885" lon="6.76752">
        <ele>381</ele>
        <time>2016-02-07T08:24:10.000Z</time>
      </trkpt>
      <trkpt lat="47.50884" lon="6.76747">
        <ele>382</ele>
        <time>2016-02-07T08:24:11.000Z</time>
      </trkpt>
      <trkpt lat="47.50882" lon="6.76741">
        <ele>382</ele>
        <time>2016-02-07T08:24:12.000Z</time>
      </trkpt>
      <trkpt lat="47.5088" lon="6.76736">
        <ele>383</ele>
        <time>2016-02-07T08:24:13.000Z</time>
      </trkpt>
      <trkpt lat="47.50878" lon="6.7673">
        <ele>383</ele>
        <time>2016-02-07T08:24:14.000Z</time>
      </trkpt>
      <trkpt lat="47.50877" lon="6.76725">
        <ele>383</ele>
        <time>2016-02-07T08:24:14.999Z</time>
      </trkpt>
      <trkpt lat="47.50876" lon="6.7672">
        <ele>383</ele>
        <time>2016-02-07T08:24:16.001Z</time>
      </trkpt>
      <trkpt lat="47.50875" lon="6.76715">
        <ele>383</ele>
        <time>2016-02-07T08:24:17.000Z</time>
      </trkpt>
      <trkpt lat="47.50874" lon="6.7671">
        <ele>383</ele>
        <time>2016-02-07T08:24:18.000Z</time>
      </trkpt>
      <trkpt lat="47.50873" lon="6.76706">
        <ele>383</ele>
        <time>2016-02-07T08:24:19.000Z</time>
      </trkpt>
      <trkpt lat="47.50871" lon="6.76701">
        <ele>384</ele>
        <time>2016-02-07T08:24:20.000Z</time>
      </trkpt>
      <trkpt lat="47.50869" lon="6.76697">
        <ele>384</ele>
        <time>2016-02-07T08:24:21.000Z</time>
      </trkpt>
      <trkpt lat="47.50867" lon="6.76692">
        <ele>384</ele>
        <time>2016-02-07T08:24:22.000Z</time>
      </trkpt>
      <trkpt lat="47.50865" lon="6.76687">
        <ele>384</ele>
        <time>2016-02-07T08:24:23.000Z</time>
      </trkpt>
      <trkpt lat="47.50863" lon="6.76683">
        <ele>384</ele>
        <time>2016-02-07T08:24:23.999Z</time>
      </trkpt>
      <trkpt lat="47.5086" lon="6.76678">
        <ele>385</ele>
        <time>2016-02-07T08:24:25.000Z</time>
      </trkpt>
      <trkpt lat="47.50858" lon="6.76674">
        <ele>385</ele>
        <time>2016-02-07T08:24:26.000Z</time>
      </trkpt>
      <trkpt lat="47.50856" lon="6.7667">
        <ele>385</ele>
        <time>2016-02-07T08:24:27.000Z</time>
      </trkpt>
      <trkpt lat="47.50854" lon="6.76666">
        <ele>387</ele>
        <time>2016-02-07T08:24:28.000Z</time>
      </trkpt>
      <trkpt lat="47.50853" lon="6.76662">
        <ele>387</ele>
        <time>2016-02-07T08:24:29.000Z</time>
      </trkpt>
      <trkpt lat="47.50851" lon="6.76658">
        <ele>387</ele>
        <time>2016-02-07T08:24:30.000Z</time>
      </trkpt>
      <trkpt lat="47.5085" lon="6.76654">
        <ele>387</ele>
        <time>2016-02-07T08:24:31.000Z</time>
      </trkpt>
      <trkpt lat="47.50848" lon="6.7665">
        <ele>387</ele>
        <time>2016-02-07T08:24:32.000Z</time>
      </trkpt>
      <trkpt lat="47.50846" lon="6.76646">
        <ele>387</ele>
        <time>2016-02-07T08:24:33.000Z</time>
      </trkpt>
      <trkpt lat="47.50844" lon="6.76642">
        <ele>387</ele>
        <time>2016-02-07T08:24:34.000Z</time>
      </trkpt>
      <trkpt lat="47.50842" lon="6.76639">
        <ele>387</ele>
        <time>2016-02-07T08:24:35.000Z</time>
      </trkpt>
      <trkpt lat="47.5084" lon="6.76636">
        <ele>387</ele>
        <time>2016-02-07T08:24:36.000Z</time>
      </trkpt>
      <trkpt lat="47.50839" lon="6.76632">
        <ele>387</ele>
        <time>2016-02-07T08:24:37.000Z</time>
      </trkpt>
      <trkpt lat="47.50837" lon="6.76629">
        <ele>387</ele>
        <time>2016-02-07T08:24:37.999Z</time>
      </trkpt>
      <trkpt lat="47.50836" lon="6.76626">
        <ele>387</ele>
        <time>2016-02-07T08:24:39.000Z</time>
      </trkpt>
      <trkpt lat="47.50835" lon="6.76623">
        <ele>387</ele>
        <time>2016-02-07T08:24:40.000Z</time>
      </trkpt>
      <trkpt lat="47.50832" lon="6.76618">
        <ele>390</ele>
        <time>2016-02-07T08:24:42.000Z</time>
      </trkpt>
      <trkpt lat="47.50831" lon="6.76616">
        <ele>390</ele>
        <time>2016-02-07T08:24:43.000Z</time>
      </trkpt>
      <trkpt lat="47.5083" lon="6.76613">
        <ele>390</ele>
        <time>2016-02-07T08:24:44.000Z</time>
      </trkpt>
      <trkpt lat="47.50829" lon="6.7661">
        <ele>390</ele>
        <time>2016-02-07T08:24:45.000Z</time>
      </trkpt>
      <trkpt lat="47.50827" lon="6.76607">
        <ele>390</ele>
        <time>2016-02-07T08:24:46.000Z</time>
      </trkpt>
      <trkpt lat="47.50826" lon="6.76604">
        <ele>390</ele>
        <time>2016-02-07T08:24:46.999Z</time>
      </trkpt>
      <trkpt lat="47.50824" lon="6.76599">
        <ele>390</ele>
        <time>2016-02-07T08:24:48.000Z</time>
      </trkpt>
      <trkpt lat="47.50823" lon="6.76595">
        <ele>390</ele>
        <time>2016-02-07T08:24:49.000Z</time>
      </trkpt>
      <trkpt lat="47.50821" lon="6.76592">
        <ele>390</ele>
        <time>2016-02-07T08:24:50.000Z</time>
      </trkpt>
      <trkpt lat="47.50819" lon="6.7659">
        <ele>390</ele>
        <time>2016-02-07T08:24:51.000Z</time>
      </trkpt>
      <trkpt lat="47.50817" lon="6.76588">
        <ele>390</ele>
        <time>2016-02-07T08:24:51.999Z</time>
      </trkpt>
      <trkpt lat="47.50814" lon="6.76588">
        <ele>390</ele>
        <time>2016-02-07T08:24:53.000Z</time>
      </trkpt>
      <trkpt lat="47.5081" lon="6.7659">
        <ele>390</ele>
        <time>2016-02-07T08:24:55.000Z</time>
      </trkpt>
      <trkpt lat="47.50809" lon="6.76588">
        <ele>390</ele>
        <time>2016-02-07T08:24:55.999Z</time>
      </trkpt>
      <trkpt lat="47.50808" lon="6.76582">
        <ele>391</ele>
        <time>2016-02-07T08:24:57.999Z</time>
      </trkpt>
      <trkpt lat="47.50807" lon="6.76579">
        <ele>391</ele>
        <time>2016-02-07T08:24:59.000Z</time>
      </trkpt>
      <trkpt lat="47.50803" lon="6.76579">
        <ele>391</ele>
        <time>2016-02-07T08:25:01.000Z</time>
      </trkpt>
      <trkpt lat="47.50801" lon="6.76579">
        <ele>391</ele>
        <time>2016-02-07T08:25:02.000Z</time>
      </trkpt>
      <trkpt lat="47.50798" lon="6.76583">
        <ele>392</ele>
        <time>2016-02-07T08:25:03.000Z</time>
      </trkpt>
      <trkpt lat="47.50796" lon="6.76584">
        <ele>391</ele>
        <time>2016-02-07T08:25:04.000Z</time>
      </trkpt>
      <trkpt lat="47.50793" lon="6.76586">
        <ele>391</ele>
        <time>2016-02-07T08:25:06.000Z</time>
      </trkpt>
      <trkpt lat="47.50792" lon="6.76587">
        <ele>391</ele>
        <time>2016-02-07T08:25:07.000Z</time>
      </trkpt>
      <trkpt lat="47.50789" lon="6.76591">
        <ele>391</ele>
        <time>2016-02-07T08:25:29.000Z</time>
      </trkpt>
      <trkpt lat="47.50788" lon="6.76592">
        <ele>391</ele>
        <time>2016-02-07T08:25:30.000Z</time>
      </trkpt>
      <trkpt lat="47.50784" lon="6.76595">
        <ele>391</ele>
        <time>2016-02-07T08:25:32.000Z</time>
      </trkpt>
      <trkpt lat="47.50782" lon="6.76596">
        <ele>391</ele>
        <time>2016-02-07T08:25:33.000Z</time>
      </trkpt>
      <trkpt lat="47.50778" lon="6.76596">
        <ele>392</ele>
        <time>2016-02-07T08:25:35.000Z</time>
      </trkpt>
      <trkpt lat="47.50775" lon="6.76597">
        <ele>392</ele>
        <time>2016-02-07T08:25:36.000Z</time>
      </trkpt>
      <trkpt lat="47.50773" lon="6.76598">
        <ele>392</ele>
        <time>2016-02-07T08:25:37.000Z</time>
      </trkpt>
      <trkpt lat="47.5077" lon="6.76599">
        <ele>392</ele>
        <time>2016-02-07T08:25:38.000Z</time>
      </trkpt>
      <trkpt lat="47.50767" lon="6.76599">
        <ele>392</ele>
        <time>2016-02-07T08:25:39.000Z</time>
      </trkpt>
      <trkpt lat="47.50764" lon="6.766">
        <ele>392</ele>
        <time>2016-02-07T08:25:40.000Z</time>
      </trkpt>
      <trkpt lat="47.50761" lon="6.76599">
        <ele>392</ele>
        <time>2016-02-07T08:25:41.000Z</time>
      </trkpt>
      <trkpt lat="47.50758" lon="6.76599">
        <ele>392</ele>
        <time>2016-02-07T08:25:42.000Z</time>
      </trkpt>
      <trkpt lat="47.50755" lon="6.76598">
        <ele>392</ele>
        <time>2016-02-07T08:25:43.000Z</time>
      </trkpt>
      <trkpt lat="47.50752" lon="6.76598">
        <ele>393</ele>
        <time>2016-02-07T08:25:44.000Z</time>
      </trkpt>
      <trkpt lat="47.50749" lon="6.76598">
        <ele>394</ele>
        <time>2016-02-07T08:25:45.000Z</time>
      </trkpt>
      <trkpt lat="47.50746" lon="6.76598">
        <ele>394</ele>
        <time>2016-02-07T08:25:46.000Z</time>
      </trkpt>
      <trkpt lat="47.50743" lon="6.76598">
        <ele>394</ele>
        <time>2016-02-07T08:25:47.000Z</time>
      </trkpt>
      <trkpt lat="47.5074" lon="6.76598">
        <ele>394</ele>
        <time>2016-02-07T08:25:48.000Z</time>
      </trkpt>
      <trkpt lat="47.50737" lon="6.76597">
        <ele>394</ele>
        <time>2016-02-07T08:25:49.000Z</time>
      </trkpt>
      <trkpt lat="47.50734" lon="6.76595">
        <ele>394</ele>
        <time>2016-02-07T08:25:50.000Z</time>
      </trkpt>
      <trkpt lat="47.50731" lon="6.76594">
        <ele>394</ele>
        <time>2016-02-07T08:25:51.000Z</time>
      </trkpt>
      <trkpt lat="47.50727" lon="6.76592">
        <ele>394</ele>
        <time>2016-02-07T08:25:52.000Z</time>
      </trkpt>
      <trkpt lat="47.50724" lon="6.76591">
        <ele>394</ele>
        <time>2016-02-07T08:25:53.000Z</time>
      </trkpt>
      <trkpt lat="47.5072" lon="6.76591">
        <ele>394</ele>
        <time>2016-02-07T08:25:54.000Z</time>
      </trkpt>
      <trkpt lat="47.50717" lon="6.7659">
        <ele>394</ele>
        <time>2016-02-07T08:25:55.000Z</time>
      </trkpt>
      <trkpt lat="47.50713" lon="6.7659">
        <ele>395</ele>
        <time>2016-02-07T08:25:56.000Z</time>
      </trkpt>
      <trkpt lat="47.5071" lon="6.7659">
        <ele>395</ele>
        <time>2016-02-07T08:25:57.000Z</time>
      </trkpt>
      <trkpt lat="47.50706" lon="6.76589">
        <ele>395</ele>
        <time>2016-02-07T08:25:58.000Z</time>
      </trkpt>
      <trkpt lat="47.50703" lon="6.76588">
        <ele>395</ele>
        <time>2016-02-07T08:25:59.000Z</time>
      </trkpt>
      <trkpt lat="47.50699" lon="6.76587">
        <ele>395</ele>
        <time>2016-02-07T08:26:00.000Z</time>
      </trkpt>
      <trkpt lat="47.50696" lon="6.76587">
        <ele>395</ele>
        <time>2016-02-07T08:26:01.000Z</time>
      </trkpt>
      <trkpt lat="47.50693" lon="6.76587">
        <ele>395</ele>
        <time>2016-02-07T08:26:02.000Z</time>
      </trkpt>
      <trkpt lat="47.5069" lon="6.76587">
        <ele>395</ele>
        <time>2016-02-07T08:26:03.000Z</time>
      </trkpt>
      <trkpt lat="47.50686" lon="6.76587">
        <ele>396</ele>
        <time>2016-02-07T08:26:04.000Z</time>
      </trkpt>
      <trkpt lat="47.50683" lon="6.76588">
        <ele>396</ele>
        <time>2016-02-07T08:26:05.000Z</time>
      </trkpt>
      <trkpt lat="47.50679" lon="6.76588">
        <ele>396</ele>
        <time>2016-02-07T08:26:06.000Z</time>
      </trkpt>
      <trkpt lat="47.50676" lon="6.76588">
        <ele>396</ele>
        <time>2016-02-07T08:26:07.000Z</time>
      </trkpt>
      <trkpt lat="47.50673" lon="6.76589">
        <ele>396</ele>
        <time>2016-02-07T08:26:08.000Z</time>
      </trkpt>
      <trkpt lat="47.50669" lon="6.7659">
        <ele>396</ele>
        <time>2016-02-07T08:26:09.000Z</time>
      </trkpt>
      <trkpt lat="47.50666" lon="6.76591">
        <ele>397</ele>
        <time>2016-02-07T08:26:10.000Z</time>
      </trkpt>
      <trkpt lat="47.50662" lon="6.76592">
        <ele>397</ele>
        <time>2016-02-07T08:26:11.000Z</time>
      </trkpt>
      <trkpt lat="47.50659" lon="6.76594">
        <ele>397</ele>
        <time>2016-02-07T08:26:12.000Z</time>
      </trkpt>
      <trkpt lat="47.50656" lon="6.76595">
        <ele>397</ele>
        <time>2016-02-07T08:26:13.000Z</time>
      </trkpt>
      <trkpt lat="47.50653" lon="6.76596">
        <ele>397</ele>
        <time>2016-02-07T08:26:14.000Z</time>
      </trkpt>
      <trkpt lat="47.50651" lon="6.76597">
        <ele>397</ele>
        <time>2016-02-07T08:26:15.000Z</time>
      </trkpt>
      <trkpt lat="47.50648" lon="6.76598">
        <ele>397</ele>
        <time>2016-02-07T08:26:16.000Z</time>
      </trkpt>
      <trkpt lat="47.50645" lon="6.766">
        <ele>397</ele>
        <time>2016-02-07T08:26:17.000Z</time>
      </trkpt>
      <trkpt lat="47.50642" lon="6.76601">
        <ele>397</ele>
        <time>2016-02-07T08:26:18.000Z</time>
      </trkpt>
      <trkpt lat="47.50639" lon="6.76602">
        <ele>397</ele>
        <time>2016-02-07T08:26:19.000Z</time>
      </trkpt>
      <trkpt lat="47.50636" lon="6.76604">
        <ele>397</ele>
        <time>2016-02-07T08:26:20.000Z</time>
      </trkpt>
      <trkpt lat="47.50633" lon="6.76605">
        <ele>397</ele>
        <time>2016-02-07T08:26:21.000Z</time>
      </trkpt>
      <trkpt lat="47.50631" lon="6.76607">
        <ele>397</ele>
        <time>2016-02-07T08:26:22.000Z</time>
      </trkpt>
      <trkpt lat="47.50628" lon="6.76609">
        <ele>397</ele>
        <time>2016-02-07T08:26:23.000Z</time>
      </trkpt>
      <trkpt lat="47.50625" lon="6.7661">
        <ele>397</ele>
        <time>2016-02-07T08:26:24.000Z</time>
      </trkpt>
      <trkpt lat="47.50623" lon="6.76612">
        <ele>397</ele>
        <time>2016-02-07T08:26:25.000Z</time>
      </trkpt>
      <trkpt lat="47.5062" lon="6.76614">
        <ele>397</ele>
        <time>2016-02-07T08:26:26.000Z</time>
      </trkpt>
      <trkpt lat="47.50616" lon="6.76616">
        <ele>397</ele>
        <time>2016-02-07T08:26:27.000Z</time>
      </trkpt>
      <trkpt lat="47.50613" lon="6.76618">
        <ele>397</ele>
        <time>2016-02-07T08:26:28.000Z</time>
      </trkpt>
      <trkpt lat="47.50609" lon="6.7662">
        <ele>398</ele>
        <time>2016-02-07T08:26:29.000Z</time>
      </trkpt>
      <trkpt lat="47.50606" lon="6.76621">
        <ele>398</ele>
        <time>2016-02-07T08:26:30.000Z</time>
      </trkpt>
      <trkpt lat="47.50602" lon="6.76622">
        <ele>398</ele>
        <time>2016-02-07T08:26:31.000Z</time>
      </trkpt>
      <trkpt lat="47.50598" lon="6.76623">
        <ele>398</ele>
        <time>2016-02-07T08:26:32.000Z</time>
      </trkpt>
      <trkpt lat="47.50595" lon="6.76624">
        <ele>398</ele>
        <time>2016-02-07T08:26:33.000Z</time>
      </trkpt>
      <trkpt lat="47.50592" lon="6.76626">
        <ele>398</ele>
        <time>2016-02-07T08:26:34.000Z</time>
      </trkpt>
      <trkpt lat="47.50588" lon="6.76627">
        <ele>398</ele>
        <time>2016-02-07T08:26:35.000Z</time>
      </trkpt>
      <trkpt lat="47.50585" lon="6.76628">
        <ele>398</ele>
        <time>2016-02-07T08:26:36.000Z</time>
      </trkpt>
      <trkpt lat="47.50583" lon="6.76629">
        <ele>399</ele>
        <time>2016-02-07T08:26:37.000Z</time>
      </trkpt>
      <trkpt lat="47.5058" lon="6.7663">
        <ele>399</ele>
        <time>2016-02-07T08:26:38.000Z</time>
      </trkpt>
      <trkpt lat="47.50577" lon="6.76631">
        <ele>399</ele>
        <time>2016-02-07T08:26:39.000Z</time>
      </trkpt>
      <trkpt lat="47.50574" lon="6.76632">
        <ele>399</ele>
        <time>2016-02-07T08:26:40.000Z</time>
      </trkpt>
      <trkpt lat="47.50571" lon="6.76633">
        <ele>399</ele>
        <time>2016-02-07T08:26:41.000Z</time>
      </trkpt>
      <trkpt lat="47.50568" lon="6.76634">
        <ele>399</ele>
        <time>2016-02-07T08:26:42.000Z</time>
      </trkpt>
      <trkpt lat="47.50565" lon="6.76635">
        <ele>399</ele>
        <time>2016-02-07T08:26:43.000Z</time>
      </trkpt>
      <trkpt lat="47.50563" lon="6.76636">
        <ele>399</ele>
        <time>2016-02-07T08:26:44.000Z</time>
      </trkpt>
      <trkpt lat="47.5056" lon="6.76636">
        <ele>399</ele>
        <time>2016-02-07T08:26:45.000Z</time>
      </trkpt>
      <trkpt lat="47.50557" lon="6.76637">
        <ele>399</ele>
        <time>2016-02-07T08:26:46.000Z</time>
      </trkpt>
      <trkpt lat="47.50553" lon="6.76638">
        <ele>399</ele>
        <time>2016-02-07T08:26:47.000Z</time>
      </trkpt>
      <trkpt lat="47.50549" lon="6.76639">
        <ele>399</ele>
        <time>2016-02-07T08:26:48.000Z</time>
      </trkpt>
      <trkpt lat="47.50545" lon="6.76641">
        <ele>399</ele>
        <time>2016-02-07T08:26:49.000Z</time>
      </trkpt>
      <trkpt lat="47.50541" lon="6.76642">
        <ele>399</ele>
        <time>2016-02-07T08:26:50.000Z</time>
      </trkpt>
      <trkpt lat="47.50538" lon="6.76643">
        <ele>399</ele>
        <time>2016-02-07T08:26:51.000Z</time>
      </trkpt>
      <trkpt lat="47.50534" lon="6.76644">
        <ele>399</ele>
        <time>2016-02-07T08:26:52.000Z</time>
      </trkpt>
      <trkpt lat="47.5053" lon="6.76644">
        <ele>399</ele>
        <time>2016-02-07T08:26:53.000Z</time>
      </trkpt>
      <trkpt lat="47.50527" lon="6.76645">
        <ele>399</ele>
        <time>2016-02-07T08:26:54.000Z</time>
      </trkpt>
      <trkpt lat="47.50523" lon="6.76645">
        <ele>399</ele>
        <time>2016-02-07T08:26:55.000Z</time>
      </trkpt>
      <trkpt lat="47.50519" lon="6.76645">
        <ele>399</ele>
        <time>2016-02-07T08:26:56.000Z</time>
      </trkpt>
      <trkpt lat="47.50516" lon="6.76646">
        <ele>399</ele>
        <time>2016-02-07T08:26:57.000Z</time>
      </trkpt>
      <trkpt lat="47.50512" lon="6.76647">
        <ele>399</ele>
        <time>2016-02-07T08:26:58.000Z</time>
      </trkpt>
      <trkpt lat="47.50508" lon="6.76648">
        <ele>399</ele>
        <time>2016-02-07T08:26:59.000Z</time>
      </trkpt>
      <trkpt lat="47.50503" lon="6.76652">
        <ele>399</ele>
        <time>2016-02-07T08:27:00.000Z</time>
      </trkpt>
      <trkpt lat="47.50499" lon="6.76653">
        <ele>399</ele>
        <time>2016-02-07T08:27:01.000Z</time>
      </trkpt>
      <trkpt lat="47.50495" lon="6.76655">
        <ele>399</ele>
        <time>2016-02-07T08:27:02.000Z</time>
      </trkpt>
      <trkpt lat="47.50492" lon="6.76657">
        <ele>399</ele>
        <time>2016-02-07T08:27:03.000Z</time>
      </trkpt>
      <trkpt lat="47.50488" lon="6.76658">
        <ele>399</ele>
        <time>2016-02-07T08:27:04.000Z</time>
      </trkpt>
      <trkpt lat="47.50483" lon="6.7666">
        <ele>399</ele>
        <time>2016-02-07T08:27:05.000Z</time>
      </trkpt>
      <trkpt lat="47.50478" lon="6.76661">
        <ele>399</ele>
        <time>2016-02-07T08:27:06.000Z</time>
      </trkpt>
      <trkpt lat="47.50474" lon="6.76665">
        <ele>398</ele>
        <time>2016-02-07T08:27:07.000Z</time>
      </trkpt>
      <trkpt lat="47.50469" lon="6.76667">
        <ele>398</ele>
        <time>2016-02-07T08:27:08.000Z</time>
      </trkpt>
      <trkpt lat="47.50465" lon="6.76669">
        <ele>397</ele>
        <time>2016-02-07T08:27:09.000Z</time>
      </trkpt>
      <trkpt lat="47.5046" lon="6.76672">
        <ele>397</ele>
        <time>2016-02-07T08:27:10.000Z</time>
      </trkpt>
      <trkpt lat="47.50456" lon="6.76673">
        <ele>397</ele>
        <time>2016-02-07T08:27:11.000Z</time>
      </trkpt>
      <trkpt lat="47.50451" lon="6.76675">
        <ele>397</ele>
        <time>2016-02-07T08:27:12.000Z</time>
      </trkpt>
      <trkpt lat="47.50447" lon="6.76678">
        <ele>397</ele>
        <time>2016-02-07T08:27:13.000Z</time>
      </trkpt>
      <trkpt lat="47.50442" lon="6.7668">
        <ele>397</ele>
        <time>2016-02-07T08:27:14.000Z</time>
      </trkpt>
      <trkpt lat="47.50439" lon="6.76682">
        <ele>397</ele>
        <time>2016-02-07T08:27:15.000Z</time>
      </trkpt>
      <trkpt lat="47.50434" lon="6.76685">
        <ele>397</ele>
        <time>2016-02-07T08:27:16.000Z</time>
      </trkpt>
      <trkpt lat="47.5043" lon="6.76686">
        <ele>397</ele>
        <time>2016-02-07T08:27:17.000Z</time>
      </trkpt>
      <trkpt lat="47.50426" lon="6.76689">
        <ele>397</ele>
        <time>2016-02-07T08:27:18.000Z</time>
      </trkpt>
      <trkpt lat="47.50422" lon="6.7669">
        <ele>397</ele>
        <time>2016-02-07T08:27:19.000Z</time>
      </trkpt>
      <trkpt lat="47.50419" lon="6.76691">
        <ele>397</ele>
        <time>2016-02-07T08:27:20.000Z</time>
      </trkpt>
      <trkpt lat="47.50415" lon="6.76693">
        <ele>397</ele>
        <time>2016-02-07T08:27:21.000Z</time>
      </trkpt>
      <trkpt lat="47.50411" lon="6.76695">
        <ele>397</ele>
        <time>2016-02-07T08:27:22.000Z</time>
      </trkpt>
      <trkpt lat="47.50407" lon="6.76696">
        <ele>397</ele>
        <time>2016-02-07T08:27:23.000Z</time>
      </trkpt>
      <trkpt lat="47.50403" lon="6.76698">
        <ele>397</ele>
        <time>2016-02-07T08:27:24.000Z</time>
      </trkpt>
      <trkpt lat="47.504" lon="6.767">
        <ele>397</ele>
        <time>2016-02-07T08:27:25.000Z</time>
      </trkpt>
      <trkpt lat="47.50396" lon="6.76702">
        <ele>397</ele>
        <time>2016-02-07T08:27:26.000Z</time>
      </trkpt>
      <trkpt lat="47.50392" lon="6.76704">
        <ele>397</ele>
        <time>2016-02-07T08:27:27.000Z</time>
      </trkpt>
      <trkpt lat="47.50388" lon="6.76706">
        <ele>397</ele>
        <time>2016-02-07T08:27:28.000Z</time>
      </trkpt>
      <trkpt lat="47.50385" lon="6.76708">
        <ele>397</ele>
        <time>2016-02-07T08:27:29.000Z</time>
      </trkpt>
      <trkpt lat="47.50381" lon="6.76709">
        <ele>398</ele>
        <time>2016-02-07T08:27:30.000Z</time>
      </trkpt>
      <trkpt lat="47.50378" lon="6.76709">
        <ele>398</ele>
        <time>2016-02-07T08:27:31.000Z</time>
      </trkpt>
      <trkpt lat="47.50374" lon="6.7671">
        <ele>398</ele>
        <time>2016-02-07T08:27:32.000Z</time>
      </trkpt>
      <trkpt lat="47.50371" lon="6.76712">
        <ele>398</ele>
        <time>2016-02-07T08:27:33.000Z</time>
      </trkpt>
      <trkpt lat="47.50367" lon="6.76713">
        <ele>398</ele>
        <time>2016-02-07T08:27:34.000Z</time>
      </trkpt>
      <trkpt lat="47.50363" lon="6.76714">
        <ele>398</ele>
        <time>2016-02-07T08:27:35.000Z</time>
      </trkpt>
      <trkpt lat="47.50359" lon="6.76715">
        <ele>398</ele>
        <time>2016-02-07T08:27:36.000Z</time>
      </trkpt>
      <trkpt lat="47.50355" lon="6.76715">
        <ele>398</ele>
        <time>2016-02-07T08:27:37.000Z</time>
      </trkpt>
      <trkpt lat="47.50351" lon="6.76716">
        <ele>398</ele>
        <time>2016-02-07T08:27:38.000Z</time>
      </trkpt>
      <trkpt lat="47.50347" lon="6.76717">
        <ele>398</ele>
        <time>2016-02-07T08:27:39.000Z</time>
      </trkpt>
      <trkpt lat="47.50344" lon="6.76719">
        <ele>398</ele>
        <time>2016-02-07T08:27:40.000Z</time>
      </trkpt>
      <trkpt lat="47.5034" lon="6.7672">
        <ele>398</ele>
        <time>2016-02-07T08:27:41.000Z</time>
      </trkpt>
      <trkpt lat="47.50336" lon="6.76722">
        <ele>398</ele>
        <time>2016-02-07T08:27:42.000Z</time>
      </trkpt>
      <trkpt lat="47.50333" lon="6.76723">
        <ele>398</ele>
        <time>2016-02-07T08:27:43.000Z</time>
      </trkpt>
      <trkpt lat="47.5033" lon="6.76726">
        <ele>398</ele>
        <time>2016-02-07T08:27:44.000Z</time>
      </trkpt>
      <trkpt lat="47.50327" lon="6.76727">
        <ele>398</ele>
        <time>2016-02-07T08:27:45.000Z</time>
      </trkpt>
      <trkpt lat="47.50324" lon="6.76729">
        <ele>398</ele>
        <time>2016-02-07T08:27:46.000Z</time>
      </trkpt>
      <trkpt lat="47.50321" lon="6.7673">
        <ele>398</ele>
        <time>2016-02-07T08:27:47.000Z</time>
      </trkpt>
      <trkpt lat="47.50318" lon="6.76732">
        <ele>398</ele>
        <time>2016-02-07T08:27:48.000Z</time>
      </trkpt>
      <trkpt lat="47.50315" lon="6.76733">
        <ele>398</ele>
        <time>2016-02-07T08:27:49.000Z</time>
      </trkpt>
      <trkpt lat="47.50311" lon="6.76735">
        <ele>398</ele>
        <time>2016-02-07T08:27:50.000Z</time>
      </trkpt>
      <trkpt lat="47.50307" lon="6.76736">
        <ele>398</ele>
        <time>2016-02-07T08:27:51.000Z</time>
      </trkpt>
      <trkpt lat="47.50303" lon="6.76738">
        <ele>398</ele>
        <time>2016-02-07T08:27:52.000Z</time>
      </trkpt>
      <trkpt lat="47.50299" lon="6.7674">
        <ele>399</ele>
        <time>2016-02-07T08:27:53.000Z</time>
      </trkpt>
      <trkpt lat="47.50296" lon="6.76741">
        <ele>399</ele>
        <time>2016-02-07T08:27:54.000Z</time>
      </trkpt>
      <trkpt lat="47.50292" lon="6.76742">
        <ele>399</ele>
        <time>2016-02-07T08:27:55.000Z</time>
      </trkpt>
      <trkpt lat="47.50289" lon="6.76742">
        <ele>399</ele>
        <time>2016-02-07T08:27:56.000Z</time>
      </trkpt>
      <trkpt lat="47.50286" lon="6.76743">
        <ele>399</ele>
        <time>2016-02-07T08:27:57.000Z</time>
      </trkpt>
      <trkpt lat="47.50283" lon="6.76743">
        <ele>399</ele>
        <time>2016-02-07T08:27:58.000Z</time>
      </trkpt>
      <trkpt lat="47.50279" lon="6.76743">
        <ele>399</ele>
        <time>2016-02-07T08:27:59.000Z</time>
      </trkpt>
      <trkpt lat="47.50276" lon="6.76744">
        <ele>399</ele>
        <time>2016-02-07T08:28:00.000Z</time>
      </trkpt>
      <trkpt lat="47.50273" lon="6.76744">
        <ele>399</ele>
        <time>2016-02-07T08:28:01.000Z</time>
      </trkpt>
      <trkpt lat="47.5027" lon="6.76745">
        <ele>399</ele>
        <time>2016-02-07T08:28:02.000Z</time>
      </trkpt>
      <trkpt lat="47.50267" lon="6.76746">
        <ele>399</ele>
        <time>2016-02-07T08:28:03.000Z</time>
      </trkpt>
      <trkpt lat="47.50263" lon="6.76747">
        <ele>399</ele>
        <time>2016-02-07T08:28:04.000Z</time>
      </trkpt>
      <trkpt lat="47.5026" lon="6.76747">
        <ele>399</ele>
        <time>2016-02-07T08:28:05.000Z</time>
      </trkpt>
      <trkpt lat="47.50258" lon="6.76748">
        <ele>400</ele>
        <time>2016-02-07T08:28:06.000Z</time>
      </trkpt>
      <trkpt lat="47.50255" lon="6.76749">
        <ele>400</ele>
        <time>2016-02-07T08:28:07.000Z</time>
      </trkpt>
      <trkpt lat="47.50252" lon="6.76749">
        <ele>400</ele>
        <time>2016-02-07T08:28:08.000Z</time>
      </trkpt>
      <trkpt lat="47.50249" lon="6.76749">
        <ele>400</ele>
        <time>2016-02-07T08:28:09.000Z</time>
      </trkpt>
      <trkpt lat="47.50246" lon="6.76747">
        <ele>400</ele>
        <time>2016-02-07T08:28:10.000Z</time>
      </trkpt>
      <trkpt lat="47.50244" lon="6.76744">
        <ele>401</ele>
        <time>2016-02-07T08:28:11.000Z</time>
      </trkpt>
      <trkpt lat="47.50242" lon="6.76741">
        <ele>401</ele>
        <time>2016-02-07T08:28:12.000Z</time>
      </trkpt>
      <trkpt lat="47.50241" lon="6.76738">
        <ele>401</ele>
        <time>2016-02-07T08:28:13.000Z</time>
      </trkpt>
      <trkpt lat="47.5024" lon="6.76735">
        <ele>401</ele>
        <time>2016-02-07T08:28:14.000Z</time>
      </trkpt>
      <trkpt lat="47.50239" lon="6.76732">
        <ele>401</ele>
        <time>2016-02-07T08:28:15.000Z</time>
      </trkpt>
      <trkpt lat="47.50238" lon="6.76728">
        <ele>401</ele>
        <time>2016-02-07T08:28:16.000Z</time>
      </trkpt>
      <trkpt lat="47.50237" lon="6.76725">
        <ele>401</ele>
        <time>2016-02-07T08:28:17.000Z</time>
      </trkpt>
      <trkpt lat="47.50235" lon="6.76721">
        <ele>401</ele>
        <time>2016-02-07T08:28:18.000Z</time>
      </trkpt>
      <trkpt lat="47.50234" lon="6.76718">
        <ele>402</ele>
        <time>2016-02-07T08:28:19.000Z</time>
      </trkpt>
      <trkpt lat="47.50232" lon="6.76714">
        <ele>402</ele>
        <time>2016-02-07T08:28:19.999Z</time>
      </trkpt>
      <trkpt lat="47.50231" lon="6.7671">
        <ele>402</ele>
        <time>2016-02-07T08:28:21.000Z</time>
      </trkpt>
      <trkpt lat="47.50228" lon="6.76704">
        <ele>402</ele>
        <time>2016-02-07T08:28:22.000Z</time>
      </trkpt>
      <trkpt lat="47.50226" lon="6.76699">
        <ele>402</ele>
        <time>2016-02-07T08:28:23.000Z</time>
      </trkpt>
      <trkpt lat="47.50224" lon="6.76694">
        <ele>402</ele>
        <time>2016-02-07T08:28:24.000Z</time>
      </trkpt>
      <trkpt lat="47.50223" lon="6.76691">
        <ele>402</ele>
        <time>2016-02-07T08:28:25.001Z</time>
      </trkpt>
      <trkpt lat="47.50221" lon="6.76686">
        <ele>402</ele>
        <time>2016-02-07T08:28:26.000Z</time>
      </trkpt>
      <trkpt lat="47.50219" lon="6.7668">
        <ele>402</ele>
        <time>2016-02-07T08:28:27.000Z</time>
      </trkpt>
      <trkpt lat="47.50218" lon="6.76675">
        <ele>402</ele>
        <time>2016-02-07T08:28:28.000Z</time>
      </trkpt>
      <trkpt lat="47.50216" lon="6.76671">
        <ele>402</ele>
        <time>2016-02-07T08:28:29.000Z</time>
      </trkpt>
      <trkpt lat="47.50215" lon="6.76666">
        <ele>402</ele>
        <time>2016-02-07T08:28:30.000Z</time>
      </trkpt>
      <trkpt lat="47.50214" lon="6.76661">
        <ele>402</ele>
        <time>2016-02-07T08:28:31.000Z</time>
      </trkpt>
      <trkpt lat="47.50213" lon="6.76657">
        <ele>402</ele>
        <time>2016-02-07T08:28:32.000Z</time>
      </trkpt>
      <trkpt lat="47.50211" lon="6.76652">
        <ele>402</ele>
        <time>2016-02-07T08:28:33.000Z</time>
      </trkpt>
      <trkpt lat="47.5021" lon="6.76648">
        <ele>402</ele>
        <time>2016-02-07T08:28:33.999Z</time>
      </trkpt>
      <trkpt lat="47.50208" lon="6.76643">
        <ele>402</ele>
        <time>2016-02-07T08:28:35.000Z</time>
      </trkpt>
      <trkpt lat="47.50206" lon="6.76639">
        <ele>402</ele>
        <time>2016-02-07T08:28:36.000Z</time>
      </trkpt>
      <trkpt lat="47.50202" lon="6.76635">
        <ele>402</ele>
        <time>2016-02-07T08:28:37.000Z</time>
      </trkpt>
      <trkpt lat="47.50199" lon="6.7663">
        <ele>402</ele>
        <time>2016-02-07T08:28:38.000Z</time>
      </trkpt>
      <trkpt lat="47.50198" lon="6.76624">
        <ele>402</ele>
        <time>2016-02-07T08:28:39.000Z</time>
      </trkpt>
      <trkpt lat="47.50197" lon="6.76619">
        <ele>403</ele>
        <time>2016-02-07T08:28:40.000Z</time>
      </trkpt>
      <trkpt lat="47.50195" lon="6.76614">
        <ele>403</ele>
        <time>2016-02-07T08:28:41.000Z</time>
      </trkpt>
      <trkpt lat="47.50193" lon="6.76609">
        <ele>403</ele>
        <time>2016-02-07T08:28:42.000Z</time>
      </trkpt>
      <trkpt lat="47.50192" lon="6.76604">
        <ele>403</ele>
        <time>2016-02-07T08:28:43.001Z</time>
      </trkpt>
      <trkpt lat="47.50192" lon="6.766">
        <ele>403</ele>
        <time>2016-02-07T08:28:44.000Z</time>
      </trkpt>
      <trkpt lat="47.50195" lon="6.76599">
        <ele>403</ele>
        <time>2016-02-07T08:28:45.000Z</time>
      </trkpt>
      <trkpt lat="47.50196" lon="6.76596">
        <ele>403</ele>
        <time>2016-02-07T08:28:46.001Z</time>
      </trkpt>
      <trkpt lat="47.50198" lon="6.76591">
        <ele>403</ele>
        <time>2016-02-07T08:28:48.000Z</time>
      </trkpt>
      <trkpt lat="47.50198" lon="6.76589">
        <ele>403</ele>
        <time>2016-02-07T08:28:49.000Z</time>
      </trkpt>
      <trkpt lat="47.50199" lon="6.76583">
        <ele>402</ele>
        <time>2016-02-07T08:28:51.000Z</time>
      </trkpt>
      <trkpt lat="47.50199" lon="6.76579">
        <ele>402</ele>
        <time>2016-02-07T08:28:52.000Z</time>
      </trkpt>
      <trkpt lat="47.502" lon="6.76574">
        <ele>402</ele>
        <time>2016-02-07T08:28:54.000Z</time>
      </trkpt>
      <trkpt lat="47.50201" lon="6.76573">
        <ele>402</ele>
        <time>2016-02-07T08:28:55.000Z</time>
      </trkpt>
      <trkpt lat="47.50203" lon="6.76569">
        <ele>402</ele>
        <time>2016-02-07T08:28:57.000Z</time>
      </trkpt>
      <trkpt lat="47.50204" lon="6.76567">
        <ele>402</ele>
        <time>2016-02-07T08:28:58.000Z</time>
      </trkpt>
      <trkpt lat="47.50204" lon="6.7656">
        <ele>401</ele>
        <time>2016-02-07T08:29:00.000Z</time>
      </trkpt>
      <trkpt lat="47.50205" lon="6.76557">
        <ele>401</ele>
        <time>2016-02-07T08:29:01.000Z</time>
      </trkpt>
      <trkpt lat="47.50206" lon="6.76554">
        <ele>401</ele>
        <time>2016-02-07T08:29:02.000Z</time>
      </trkpt>
      <trkpt lat="47.50208" lon="6.76551">
        <ele>401</ele>
        <time>2016-02-07T08:29:03.000Z</time>
      </trkpt>
      <trkpt lat="47.50211" lon="6.76549">
        <ele>401</ele>
        <time>2016-02-07T08:29:04.000Z</time>
      </trkpt>
      <trkpt lat="47.50214" lon="6.76546">
        <ele>400</ele>
        <time>2016-02-07T08:29:05.000Z</time>
      </trkpt>
      <trkpt lat="47.50217" lon="6.76543">
        <ele>400</ele>
        <time>2016-02-07T08:29:06.000Z</time>
      </trkpt>
      <trkpt lat="47.50219" lon="6.76539">
        <ele>400</ele>
        <time>2016-02-07T08:29:07.000Z</time>
      </trkpt>
      <trkpt lat="47.50219" lon="6.76534">
        <ele>400</ele>
        <time>2016-02-07T08:29:08.000Z</time>
      </trkpt>
      <trkpt lat="47.50218" lon="6.76527">
        <ele>400</ele>
        <time>2016-02-07T08:29:09.000Z</time>
      </trkpt>
      <trkpt lat="47.50217" lon="6.76521">
        <ele>400</ele>
        <time>2016-02-07T08:29:10.000Z</time>
      </trkpt>
      <trkpt lat="47.50215" lon="6.76514">
        <ele>400</ele>
        <time>2016-02-07T08:29:11.000Z</time>
      </trkpt>
      <trkpt lat="47.50214" lon="6.76507">
        <ele>400</ele>
        <time>2016-02-07T08:29:12.000Z</time>
      </trkpt>
      <trkpt lat="47.50212" lon="6.765">
        <ele>400</ele>
        <time>2016-02-07T08:29:13.000Z</time>
      </trkpt>
      <trkpt lat="47.50206" lon="6.76483">
        <ele>397</ele>
        <time>2016-02-07T08:29:14.000Z</time>
      </trkpt>
      <trkpt lat="47.50204" lon="6.76473">
        <ele>396</ele>
        <time>2016-02-07T08:29:15.000Z</time>
      </trkpt>
      <trkpt lat="47.502" lon="6.76464">
        <ele>396</ele>
        <time>2016-02-07T08:29:16.000Z</time>
      </trkpt>
      <trkpt lat="47.50198" lon="6.76454">
        <ele>396</ele>
        <time>2016-02-07T08:29:17.000Z</time>
      </trkpt>
      <trkpt lat="47.50194" lon="6.76444">
        <ele>396</ele>
        <time>2016-02-07T08:29:18.000Z</time>
      </trkpt>
      <trkpt lat="47.50191" lon="6.76433">
        <ele>396</ele>
        <time>2016-02-07T08:29:19.000Z</time>
      </trkpt>
      <trkpt lat="47.50188" lon="6.76425">
        <ele>396</ele>
        <time>2016-02-07T08:29:20.000Z</time>
      </trkpt>
      <trkpt lat="47.50185" lon="6.76417">
        <ele>394</ele>
        <time>2016-02-07T08:29:21.000Z</time>
      </trkpt>
      <trkpt lat="47.50183" lon="6.76408">
        <ele>394</ele>
        <time>2016-02-07T08:29:22.000Z</time>
      </trkpt>
      <trkpt lat="47.5018" lon="6.76398">
        <ele>393</ele>
        <time>2016-02-07T08:29:23.000Z</time>
      </trkpt>
      <trkpt lat="47.50177" lon="6.76388">
        <ele>392</ele>
        <time>2016-02-07T08:29:24.000Z</time>
      </trkpt>
      <trkpt lat="47.50174" lon="6.7638">
        <ele>391</ele>
        <time>2016-02-07T08:29:25.000Z</time>
      </trkpt>
      <trkpt lat="47.50172" lon="6.76371">
        <ele>391</ele>
        <time>2016-02-07T08:29:26.000Z</time>
      </trkpt>
      <trkpt lat="47.50169" lon="6.76365">
        <ele>391</ele>
        <time>2016-02-07T08:29:27.000Z</time>
      </trkpt>
      <trkpt lat="47.50167" lon="6.76358">
        <ele>391</ele>
        <time>2016-02-07T08:29:28.000Z</time>
      </trkpt>
      <trkpt lat="47.50164" lon="6.76352">
        <ele>397</ele>
        <time>2016-02-07T08:29:29.000Z</time>
      </trkpt>
      <trkpt lat="47.50162" lon="6.76343">
        <ele>395</ele>
        <time>2016-02-07T08:29:30.000Z</time>
      </trkpt>
      <trkpt lat="47.5016" lon="6.76336">
        <ele>394</ele>
        <time>2016-02-07T08:29:31.000Z</time>
      </trkpt>
      <trkpt lat="47.5016" lon="6.7633">
        <ele>393</ele>
        <time>2016-02-07T08:29:32.000Z</time>
      </trkpt>
      <trkpt lat="47.50158" lon="6.76322">
        <ele>394</ele>
        <time>2016-02-07T08:29:33.000Z</time>
      </trkpt>
      <trkpt lat="47.50157" lon="6.76317">
        <ele>394</ele>
        <time>2016-02-07T08:29:34.000Z</time>
      </trkpt>
      <trkpt lat="47.50156" lon="6.7631">
        <ele>395</ele>
        <time>2016-02-07T08:29:35.000Z</time>
      </trkpt>
      <trkpt lat="47.50155" lon="6.76304">
        <ele>395</ele>
        <time>2016-02-07T08:29:36.000Z</time>
      </trkpt>
      <trkpt lat="47.50154" lon="6.76298">
        <ele>395</ele>
        <time>2016-02-07T08:29:37.000Z</time>
      </trkpt>
      <trkpt lat="47.50152" lon="6.76291">
        <ele>395</ele>
        <time>2016-02-07T08:29:38.000Z</time>
      </trkpt>
      <trkpt lat="47.50151" lon="6.76284">
        <ele>394</ele>
        <time>2016-02-07T08:29:39.000Z</time>
      </trkpt>
      <trkpt lat="47.5015" lon="6.76278">
        <ele>394</ele>
        <time>2016-02-07T08:29:40.000Z</time>
      </trkpt>
      <trkpt lat="47.50149" lon="6.76271">
        <ele>394</ele>
        <time>2016-02-07T08:29:41.000Z</time>
      </trkpt>
      <trkpt lat="47.50148" lon="6.76265">
        <ele>393</ele>
        <time>2016-02-07T08:29:42.000Z</time>
      </trkpt>
      <trkpt lat="47.50147" lon="6.76258">
        <ele>393</ele>
        <time>2016-02-07T08:29:43.000Z</time>
      </trkpt>
      <trkpt lat="47.50146" lon="6.76252">
        <ele>392</ele>
        <time>2016-02-07T08:29:44.000Z</time>
      </trkpt>
      <trkpt lat="47.50142" lon="6.76235">
        <ele>389</ele>
        <time>2016-02-07T08:29:45.000Z</time>
      </trkpt>
      <trkpt lat="47.50141" lon="6.76227">
        <ele>390</ele>
        <time>2016-02-07T08:29:46.000Z</time>
      </trkpt>
      <trkpt lat="47.50141" lon="6.76218">
        <ele>389</ele>
        <time>2016-02-07T08:29:47.000Z</time>
      </trkpt>
      <trkpt lat="47.50141" lon="6.76211">
        <ele>389</ele>
        <time>2016-02-07T08:29:48.000Z</time>
      </trkpt>
      <trkpt lat="47.50139" lon="6.76203">
        <ele>389</ele>
        <time>2016-02-07T08:29:49.000Z</time>
      </trkpt>
      <trkpt lat="47.50137" lon="6.76193">
        <ele>388</ele>
        <time>2016-02-07T08:29:50.000Z</time>
      </trkpt>
      <trkpt lat="47.50137" lon="6.76187">
        <ele>388</ele>
        <time>2016-02-07T08:29:51.000Z</time>
      </trkpt>
      <trkpt lat="47.50136" lon="6.76175">
        <ele>387</ele>
        <time>2016-02-07T08:29:52.000Z</time>
      </trkpt>
      <trkpt lat="47.50135" lon="6.76163">
        <ele>383</ele>
        <time>2016-02-07T08:29:53.000Z</time>
      </trkpt>
      <trkpt lat="47.5013" lon="6.76155">
        <ele>384</ele>
        <time>2016-02-07T08:29:54.000Z</time>
      </trkpt>
      <trkpt lat="47.50129" lon="6.76146">
        <ele>384</ele>
        <time>2016-02-07T08:29:55.000Z</time>
      </trkpt>
      <trkpt lat="47.50127" lon="6.76137">
        <ele>384</ele>
        <time>2016-02-07T08:29:56.000Z</time>
      </trkpt>
      <trkpt lat="47.50125" lon="6.76128">
        <ele>384</ele>
        <time>2016-02-07T08:29:57.000Z</time>
      </trkpt>
      <trkpt lat="47.50122" lon="6.76118">
        <ele>384</ele>
        <time>2016-02-07T08:29:58.000Z</time>
      </trkpt>
      <trkpt lat="47.5012" lon="6.76107">
        <ele>384</ele>
        <time>2016-02-07T08:29:59.000Z</time>
      </trkpt>
      <trkpt lat="47.5012" lon="6.76096">
        <ele>384</ele>
        <time>2016-02-07T08:30:00.000Z</time>
      </trkpt>
      <trkpt lat="47.50117" lon="6.76078">
        <ele>381</ele>
        <time>2016-02-07T08:30:01.000Z</time>
      </trkpt>
      <trkpt lat="47.50114" lon="6.76066">
        <ele>381</ele>
        <time>2016-02-07T08:30:02.000Z</time>
      </trkpt>
      <trkpt lat="47.50112" lon="6.76054">
        <ele>380</ele>
        <time>2016-02-07T08:30:03.000Z</time>
      </trkpt>
      <trkpt lat="47.50109" lon="6.76042">
        <ele>380</ele>
        <time>2016-02-07T08:30:04.000Z</time>
      </trkpt>
      <trkpt lat="47.50107" lon="6.76033">
        <ele>379</ele>
        <time>2016-02-07T08:30:05.000Z</time>
      </trkpt>
      <trkpt lat="47.50104" lon="6.76024">
        <ele>379</ele>
        <time>2016-02-07T08:30:06.000Z</time>
      </trkpt>
      <trkpt lat="47.50096" lon="6.76013">
        <ele>379</ele>
        <time>2016-02-07T08:30:07.000Z</time>
      </trkpt>
      <trkpt lat="47.50089" lon="6.76006">
        <ele>380</ele>
        <time>2016-02-07T08:30:08.000Z</time>
      </trkpt>
      <trkpt lat="47.50085" lon="6.75997">
        <ele>379</ele>
        <time>2016-02-07T08:30:09.000Z</time>
      </trkpt>
      <trkpt lat="47.50081" lon="6.75988">
        <ele>379</ele>
        <time>2016-02-07T08:30:10.000Z</time>
      </trkpt>
      <trkpt lat="47.50077" lon="6.75983">
        <ele>379</ele>
        <time>2016-02-07T08:30:11.000Z</time>
      </trkpt>
      <trkpt lat="47.50072" lon="6.75973">
        <ele>379</ele>
        <time>2016-02-07T08:30:12.000Z</time>
      </trkpt>
      <trkpt lat="47.50068" lon="6.75966">
        <ele>379</ele>
        <time>2016-02-07T08:30:13.000Z</time>
      </trkpt>
      <trkpt lat="47.50064" lon="6.75954">
        <ele>378</ele>
        <time>2016-02-07T08:30:14.000Z</time>
      </trkpt>
      <trkpt lat="47.5006" lon="6.75945">
        <ele>378</ele>
        <time>2016-02-07T08:30:15.000Z</time>
      </trkpt>
      <trkpt lat="47.50058" lon="6.75938">
        <ele>378</ele>
        <time>2016-02-07T08:30:16.000Z</time>
      </trkpt>
      <trkpt lat="47.50053" lon="6.7593">
        <ele>377</ele>
        <time>2016-02-07T08:30:17.000Z</time>
      </trkpt>
      <trkpt lat="47.50048" lon="6.75922">
        <ele>378</ele>
        <time>2016-02-07T08:30:18.000Z</time>
      </trkpt>
      <trkpt lat="47.50044" lon="6.75914">
        <ele>376</ele>
        <time>2016-02-07T08:30:19.000Z</time>
      </trkpt>
      <trkpt lat="47.5004" lon="6.75907">
        <ele>376</ele>
        <time>2016-02-07T08:30:20.000Z</time>
      </trkpt>
      <trkpt lat="47.50035" lon="6.759">
        <ele>376</ele>
        <time>2016-02-07T08:30:21.000Z</time>
      </trkpt>
      <trkpt lat="47.50029" lon="6.75892">
        <ele>376</ele>
        <time>2016-02-07T08:30:22.000Z</time>
      </trkpt>
      <trkpt lat="47.50023" lon="6.75882">
        <ele>377</ele>
        <time>2016-02-07T08:30:23.000Z</time>
      </trkpt>
      <trkpt lat="47.50018" lon="6.75873">
        <ele>377</ele>
        <time>2016-02-07T08:30:24.000Z</time>
      </trkpt>
      <trkpt lat="47.50014" lon="6.75864">
        <ele>377</ele>
        <time>2016-02-07T08:30:25.000Z</time>
      </trkpt>
      <trkpt lat="47.5001" lon="6.75858">
        <ele>377</ele>
        <time>2016-02-07T08:30:26.000Z</time>
      </trkpt>
      <trkpt lat="47.50005" lon="6.75849">
        <ele>378</ele>
        <time>2016-02-07T08:30:27.000Z</time>
      </trkpt>
      <trkpt lat="47.50002" lon="6.75841">
        <ele>378</ele>
        <time>2016-02-07T08:30:28.000Z</time>
      </trkpt>
      <trkpt lat="47.49999" lon="6.75833">
        <ele>379</ele>
        <time>2016-02-07T08:30:29.000Z</time>
      </trkpt>
      <trkpt lat="47.49994" lon="6.75825">
        <ele>377</ele>
        <time>2016-02-07T08:30:30.000Z</time>
      </trkpt>
      <trkpt lat="47.4999" lon="6.75814">
        <ele>376</ele>
        <time>2016-02-07T08:30:31.000Z</time>
      </trkpt>
      <trkpt lat="47.49987" lon="6.75803">
        <ele>375</ele>
        <time>2016-02-07T08:30:32.000Z</time>
      </trkpt>
      <trkpt lat="47.49982" lon="6.75793">
        <ele>375</ele>
        <time>2016-02-07T08:30:33.000Z</time>
      </trkpt>
      <trkpt lat="47.49976" lon="6.75784">
        <ele>375</ele>
        <time>2016-02-07T08:30:34.000Z</time>
      </trkpt>
      <trkpt lat="47.49968" lon="6.75775">
        <ele>374</ele>
        <time>2016-02-07T08:30:35.000Z</time>
      </trkpt>
      <trkpt lat="47.49962" lon="6.75769">
        <ele>374</ele>
        <time>2016-02-07T08:30:36.000Z</time>
      </trkpt>
      <trkpt lat="47.49953" lon="6.75759">
        <ele>373</ele>
        <time>2016-02-07T08:30:37.000Z</time>
      </trkpt>
      <trkpt lat="47.49948" lon="6.75751">
        <ele>373</ele>
        <time>2016-02-07T08:30:38.000Z</time>
      </trkpt>
      <trkpt lat="47.49942" lon="6.75743">
        <ele>370</ele>
        <time>2016-02-07T08:30:39.000Z</time>
      </trkpt>
      <trkpt lat="47.49937" lon="6.75734">
        <ele>370</ele>
        <time>2016-02-07T08:30:40.000Z</time>
      </trkpt>
      <trkpt lat="47.49932" lon="6.75728">
        <ele>370</ele>
        <time>2016-02-07T08:30:41.000Z</time>
      </trkpt>
      <trkpt lat="47.49924" lon="6.75723">
        <ele>370</ele>
        <time>2016-02-07T08:30:42.000Z</time>
      </trkpt>
      <trkpt lat="47.49917" lon="6.7572">
        <ele>370</ele>
        <time>2016-02-07T08:30:43.000Z</time>
      </trkpt>
      <trkpt lat="47.49911" lon="6.7572">
        <ele>365</ele>
        <time>2016-02-07T08:30:44.000Z</time>
      </trkpt>
      <trkpt lat="47.49905" lon="6.75722">
        <ele>365</ele>
        <time>2016-02-07T08:30:45.000Z</time>
      </trkpt>
      <trkpt lat="47.49899" lon="6.75723">
        <ele>364</ele>
        <time>2016-02-07T08:30:46.000Z</time>
      </trkpt>
      <trkpt lat="47.49891" lon="6.75723">
        <ele>364</ele>
        <time>2016-02-07T08:30:47.000Z</time>
      </trkpt>
      <trkpt lat="47.49883" lon="6.75725">
        <ele>363</ele>
        <time>2016-02-07T08:30:48.000Z</time>
      </trkpt>
      <trkpt lat="47.49874" lon="6.75723">
        <ele>363</ele>
        <time>2016-02-07T08:30:49.000Z</time>
      </trkpt>
      <trkpt lat="47.49867" lon="6.75722">
        <ele>362</ele>
        <time>2016-02-07T08:30:50.000Z</time>
      </trkpt>
      <trkpt lat="47.49859" lon="6.7572">
        <ele>362</ele>
        <time>2016-02-07T08:30:51.000Z</time>
      </trkpt>
      <trkpt lat="47.49852" lon="6.75721">
        <ele>361</ele>
        <time>2016-02-07T08:30:52.000Z</time>
      </trkpt>
      <trkpt lat="47.49844" lon="6.75725">
        <ele>361</ele>
        <time>2016-02-07T08:30:53.000Z</time>
      </trkpt>
      <trkpt lat="47.49836" lon="6.75726">
        <ele>361</ele>
        <time>2016-02-07T08:30:54.000Z</time>
      </trkpt>
      <trkpt lat="47.49829" lon="6.75725">
        <ele>354</ele>
        <time>2016-02-07T08:30:55.000Z</time>
      </trkpt>
      <trkpt lat="47.49821" lon="6.75723">
        <ele>353</ele>
        <time>2016-02-07T08:30:56.000Z</time>
      </trkpt>
      <trkpt lat="47.49814" lon="6.75724">
        <ele>353</ele>
        <time>2016-02-07T08:30:57.000Z</time>
      </trkpt>
      <trkpt lat="47.49807" lon="6.75726">
        <ele>353</ele>
        <time>2016-02-07T08:30:58.000Z</time>
      </trkpt>
      <trkpt lat="47.49797" lon="6.75729">
        <ele>352</ele>
        <time>2016-02-07T08:30:59.000Z</time>
      </trkpt>
      <trkpt lat="47.49774" lon="6.75742">
        <ele>351</ele>
        <time>2016-02-07T08:31:00.000Z</time>
      </trkpt>
      <trkpt lat="47.49766" lon="6.75746">
        <ele>351</ele>
        <time>2016-02-07T08:31:01.000Z</time>
      </trkpt>
      <trkpt lat="47.49757" lon="6.75752">
        <ele>354</ele>
        <time>2016-02-07T08:31:02.000Z</time>
      </trkpt>
      <trkpt lat="47.49749" lon="6.75754">
        <ele>352</ele>
        <time>2016-02-07T08:31:03.000Z</time>
      </trkpt>
      <trkpt lat="47.49741" lon="6.7576">
        <ele>353</ele>
        <time>2016-02-07T08:31:04.000Z</time>
      </trkpt>
      <trkpt lat="47.49732" lon="6.75763">
        <ele>353</ele>
        <time>2016-02-07T08:31:05.000Z</time>
      </trkpt>
      <trkpt lat="47.49724" lon="6.75768">
        <ele>353</ele>
        <time>2016-02-07T08:31:06.000Z</time>
      </trkpt>
      <trkpt lat="47.49717" lon="6.7577">
        <ele>353</ele>
        <time>2016-02-07T08:31:07.000Z</time>
      </trkpt>
      <trkpt lat="47.49709" lon="6.75774">
        <ele>353</ele>
        <time>2016-02-07T08:31:08.000Z</time>
      </trkpt>
      <trkpt lat="47.49703" lon="6.75773">
        <ele>353</ele>
        <time>2016-02-07T08:31:09.000Z</time>
      </trkpt>
      <trkpt lat="47.49696" lon="6.75773">
        <ele>352</ele>
        <time>2016-02-07T08:31:10.000Z</time>
      </trkpt>
      <trkpt lat="47.49688" lon="6.75775">
        <ele>352</ele>
        <time>2016-02-07T08:31:11.000Z</time>
      </trkpt>
      <trkpt lat="47.49683" lon="6.75775">
        <ele>352</ele>
        <time>2016-02-07T08:31:12.000Z</time>
      </trkpt>
      <trkpt lat="47.49678" lon="6.75777">
        <ele>352</ele>
        <time>2016-02-07T08:31:13.000Z</time>
      </trkpt>
      <trkpt lat="47.49673" lon="6.75777">
        <ele>351</ele>
        <time>2016-02-07T08:31:14.000Z</time>
      </trkpt>
      <trkpt lat="47.49668" lon="6.75777">
        <ele>351</ele>
        <time>2016-02-07T08:31:15.000Z</time>
      </trkpt>
      <trkpt lat="47.49663" lon="6.75777">
        <ele>346</ele>
        <time>2016-02-07T08:31:16.000Z</time>
      </trkpt>
      <trkpt lat="47.49657" lon="6.75776">
        <ele>346</ele>
        <time>2016-02-07T08:31:17.000Z</time>
      </trkpt>
      <trkpt lat="47.49653" lon="6.75774">
        <ele>346</ele>
        <time>2016-02-07T08:31:18.000Z</time>
      </trkpt>
      <trkpt lat="47.49647" lon="6.75772">
        <ele>346</ele>
        <time>2016-02-07T08:31:19.000Z</time>
      </trkpt>
      <trkpt lat="47.49642" lon="6.75772">
        <ele>346</ele>
        <time>2016-02-07T08:31:20.000Z</time>
      </trkpt>
      <trkpt lat="47.49635" lon="6.75774">
        <ele>345</ele>
        <time>2016-02-07T08:31:21.000Z</time>
      </trkpt>
      <trkpt lat="47.49628" lon="6.75774">
        <ele>345</ele>
        <time>2016-02-07T08:31:22.000Z</time>
      </trkpt>
      <trkpt lat="47.49621" lon="6.75773">
        <ele>344</ele>
        <time>2016-02-07T08:31:23.000Z</time>
      </trkpt>
      <trkpt lat="47.49616" lon="6.75771">
        <ele>344</ele>
        <time>2016-02-07T08:31:24.000Z</time>
      </trkpt>
      <trkpt lat="47.4961" lon="6.75769">
        <ele>343</ele>
        <time>2016-02-07T08:31:25.000Z</time>
      </trkpt>
      <trkpt lat="47.49604" lon="6.75766">
        <ele>342</ele>
        <time>2016-02-07T08:31:26.000Z</time>
      </trkpt>
      <trkpt lat="47.49598" lon="6.75762">
        <ele>341</ele>
        <time>2016-02-07T08:31:27.000Z</time>
      </trkpt>
      <trkpt lat="47.49591" lon="6.75757">
        <ele>338</ele>
        <time>2016-02-07T08:31:28.000Z</time>
      </trkpt>
      <trkpt lat="47.49585" lon="6.75754">
        <ele>336</ele>
        <time>2016-02-07T08:31:29.000Z</time>
      </trkpt>
      <trkpt lat="47.49576" lon="6.75756">
        <ele>335</ele>
        <time>2016-02-07T08:31:30.000Z</time>
      </trkpt>
      <trkpt lat="47.49566" lon="6.7576">
        <ele>335</ele>
        <time>2016-02-07T08:31:31.000Z</time>
      </trkpt>
      <trkpt lat="47.49564" lon="6.75756">
        <ele>335</ele>
        <time>2016-02-07T08:31:32.000Z</time>
      </trkpt>
      <trkpt lat="47.49566" lon="6.75753">
        <ele>335</ele>
        <time>2016-02-07T08:31:33.000Z</time>
      </trkpt>
      <trkpt lat="47.49568" lon="6.7575">
        <ele>335</ele>
        <time>2016-02-07T08:31:34.000Z</time>
      </trkpt>
      <trkpt lat="47.49571" lon="6.75748">
        <ele>330</ele>
        <time>2016-02-07T08:31:35.000Z</time>
      </trkpt>
      <trkpt lat="47.49574" lon="6.75746">
        <ele>331</ele>
        <time>2016-02-07T08:31:36.000Z</time>
      </trkpt>
      <trkpt lat="47.49577" lon="6.75744">
        <ele>331</ele>
        <time>2016-02-07T08:31:37.000Z</time>
      </trkpt>
      <trkpt lat="47.49579" lon="6.75741">
        <ele>331</ele>
        <time>2016-02-07T08:31:38.000Z</time>
      </trkpt>
      <trkpt lat="47.49582" lon="6.75737">
        <ele>330</ele>
        <time>2016-02-07T08:31:39.000Z</time>
      </trkpt>
      <trkpt lat="47.49584" lon="6.75734">
        <ele>333</ele>
        <time>2016-02-07T08:31:40.000Z</time>
      </trkpt>
      <trkpt lat="47.49587" lon="6.7573">
        <ele>332</ele>
        <time>2016-02-07T08:31:41.000Z</time>
      </trkpt>
      <trkpt lat="47.49589" lon="6.75726">
        <ele>332</ele>
        <time>2016-02-07T08:31:42.000Z</time>
      </trkpt>
      <trkpt lat="47.49591" lon="6.75721">
        <ele>331</ele>
        <time>2016-02-07T08:31:43.000Z</time>
      </trkpt>
      <trkpt lat="47.49593" lon="6.75716">
        <ele>331</ele>
        <time>2016-02-07T08:31:44.000Z</time>
      </trkpt>
      <trkpt lat="47.49595" lon="6.75711">
        <ele>331</ele>
        <time>2016-02-07T08:31:45.000Z</time>
      </trkpt>
      <trkpt lat="47.49597" lon="6.75705">
        <ele>330</ele>
        <time>2016-02-07T08:31:46.000Z</time>
      </trkpt>
      <trkpt lat="47.49599" lon="6.757">
        <ele>329</ele>
        <time>2016-02-07T08:31:47.000Z</time>
      </trkpt>
      <trkpt lat="47.496" lon="6.75694">
        <ele>329</ele>
        <time>2016-02-07T08:31:48.000Z</time>
      </trkpt>
      <trkpt lat="47.49599" lon="6.75688">
        <ele>328</ele>
        <time>2016-02-07T08:31:49.000Z</time>
      </trkpt>
      <trkpt lat="47.49597" lon="6.75683">
        <ele>327</ele>
        <time>2016-02-07T08:31:50.000Z</time>
      </trkpt>
      <trkpt lat="47.49594" lon="6.7568">
        <ele>326</ele>
        <time>2016-02-07T08:31:51.000Z</time>
      </trkpt>
      <trkpt lat="47.49591" lon="6.75681">
        <ele>326</ele>
        <time>2016-02-07T08:31:53.000Z</time>
      </trkpt>
      <trkpt lat="47.4959" lon="6.75682">
        <ele>326</ele>
        <time>2016-02-07T08:31:54.000Z</time>
      </trkpt>
      <trkpt lat="47.49588" lon="6.75679">
        <ele>325</ele>
        <time>2016-02-07T08:32:02.000Z</time>
      </trkpt>
      <trkpt lat="47.49587" lon="6.75677">
        <ele>325</ele>
        <time>2016-02-07T08:32:03.000Z</time>
      </trkpt>
      <trkpt lat="47.49584" lon="6.75674">
        <ele>324</ele>
        <time>2016-02-07T08:32:04.000Z</time>
      </trkpt>
      <trkpt lat="47.49581" lon="6.75671">
        <ele>322</ele>
        <time>2016-02-07T08:32:05.000Z</time>
      </trkpt>
      <trkpt lat="47.49577" lon="6.75669">
        <ele>322</ele>
        <time>2016-02-07T08:32:06.000Z</time>
      </trkpt>
      <trkpt lat="47.49568" lon="6.75675">
        <ele>323</ele>
        <time>2016-02-07T08:32:07.000Z</time>
      </trkpt>
      <trkpt lat="47.49564" lon="6.7568">
        <ele>324</ele>
        <time>2016-02-07T08:32:08.000Z</time>
      </trkpt>
      <trkpt lat="47.4956" lon="6.75686">
        <ele>324</ele>
        <time>2016-02-07T08:32:09.000Z</time>
      </trkpt>
      <trkpt lat="47.49557" lon="6.75691">
        <ele>324</ele>
        <time>2016-02-07T08:32:10.000Z</time>
      </trkpt>
      <trkpt lat="47.49552" lon="6.75697">
        <ele>325</ele>
        <time>2016-02-07T08:32:11.000Z</time>
      </trkpt>
      <trkpt lat="47.49548" lon="6.75702">
        <ele>325</ele>
        <time>2016-02-07T08:32:12.000Z</time>
      </trkpt>
      <trkpt lat="47.49543" lon="6.75708">
        <ele>325</ele>
        <time>2016-02-07T08:32:13.000Z</time>
      </trkpt>
      <trkpt lat="47.49539" lon="6.75711">
        <ele>325</ele>
        <time>2016-02-07T08:32:14.000Z</time>
      </trkpt>
      <trkpt lat="47.49533" lon="6.75717">
        <ele>325</ele>
        <time>2016-02-07T08:32:15.000Z</time>
      </trkpt>
      <trkpt lat="47.49528" lon="6.75719">
        <ele>325</ele>
        <time>2016-02-07T08:32:16.000Z</time>
      </trkpt>
      <trkpt lat="47.49523" lon="6.75723">
        <ele>325</ele>
        <time>2016-02-07T08:32:17.000Z</time>
      </trkpt>
      <trkpt lat="47.49517" lon="6.75726">
        <ele>325</ele>
        <time>2016-02-07T08:32:18.000Z</time>
      </trkpt>
      <trkpt lat="47.49512" lon="6.75728">
        <ele>325</ele>
        <time>2016-02-07T08:32:19.000Z</time>
      </trkpt>
      <trkpt lat="47.49506" lon="6.75731">
        <ele>325</ele>
        <time>2016-02-07T08:32:20.000Z</time>
      </trkpt>
      <trkpt lat="47.49501" lon="6.75735">
        <ele>324</ele>
        <time>2016-02-07T08:32:21.000Z</time>
      </trkpt>
      <trkpt lat="47.49495" lon="6.75739">
        <ele>323</ele>
        <time>2016-02-07T08:32:22.000Z</time>
      </trkpt>
      <trkpt lat="47.49489" lon="6.7574">
        <ele>323</ele>
        <time>2016-02-07T08:32:23.000Z</time>
      </trkpt>
      <trkpt lat="47.49484" lon="6.75741">
        <ele>322</ele>
        <time>2016-02-07T08:32:24.000Z</time>
      </trkpt>
      <trkpt lat="47.49479" lon="6.75736">
        <ele>322</ele>
        <time>2016-02-07T08:32:25.000Z</time>
      </trkpt>
      <trkpt lat="47.49475" lon="6.75729">
        <ele>322</ele>
        <time>2016-02-07T08:32:26.000Z</time>
      </trkpt>
      <trkpt lat="47.49472" lon="6.75721">
        <ele>321</ele>
        <time>2016-02-07T08:32:27.000Z</time>
      </trkpt>
      <trkpt lat="47.4947" lon="6.75713">
        <ele>321</ele>
        <time>2016-02-07T08:32:28.000Z</time>
      </trkpt>
      <trkpt lat="47.49468" lon="6.75706">
        <ele>321</ele>
        <time>2016-02-07T08:32:29.000Z</time>
      </trkpt>
      <trkpt lat="47.49465" lon="6.75699">
        <ele>321</ele>
        <time>2016-02-07T08:32:30.000Z</time>
      </trkpt>
      <trkpt lat="47.49461" lon="6.75694">
        <ele>321</ele>
        <time>2016-02-07T08:32:31.000Z</time>
      </trkpt>
      <trkpt lat="47.49457" lon="6.75693">
        <ele>321</ele>
        <time>2016-02-07T08:32:32.000Z</time>
      </trkpt>
      <trkpt lat="47.49452" lon="6.75698">
        <ele>321</ele>
        <time>2016-02-07T08:32:33.000Z</time>
      </trkpt>
      <trkpt lat="47.49448" lon="6.757">
        <ele>321</ele>
        <time>2016-02-07T08:32:34.000Z</time>
      </trkpt>
      <trkpt lat="47.49444" lon="6.75701">
        <ele>321</ele>
        <time>2016-02-07T08:32:35.000Z</time>
      </trkpt>
      <trkpt lat="47.49443" lon="6.75698">
        <ele>321</ele>
        <time>2016-02-07T08:32:36.000Z</time>
      </trkpt>
      <trkpt lat="47.49441" lon="6.75689">
        <ele>320</ele>
        <time>2016-02-07T08:32:37.000Z</time>
      </trkpt>
      <trkpt lat="47.49438" lon="6.75684">
        <ele>320</ele>
        <time>2016-02-07T08:32:38.000Z</time>
      </trkpt>
      <trkpt lat="47.49437" lon="6.75677">
        <ele>320</ele>
        <time>2016-02-07T08:32:39.000Z</time>
      </trkpt>
      <trkpt lat="47.49435" lon="6.75672">
        <ele>320</ele>
        <time>2016-02-07T08:32:40.000Z</time>
      </trkpt>
      <trkpt lat="47.49431" lon="6.75668">
        <ele>320</ele>
        <time>2016-02-07T08:32:41.000Z</time>
      </trkpt>
      <trkpt lat="47.49428" lon="6.7567">
        <ele>320</ele>
        <time>2016-02-07T08:32:42.000Z</time>
      </trkpt>
      <trkpt lat="47.49424" lon="6.7567">
        <ele>320</ele>
        <time>2016-02-07T08:32:43.000Z</time>
      </trkpt>
      <trkpt lat="47.49421" lon="6.75673">
        <ele>319</ele>
        <time>2016-02-07T08:32:44.000Z</time>
      </trkpt>
      <trkpt lat="47.49418" lon="6.75679">
        <ele>320</ele>
        <time>2016-02-07T08:32:45.000Z</time>
      </trkpt>
      <trkpt lat="47.49414" lon="6.75682">
        <ele>319</ele>
        <time>2016-02-07T08:32:46.000Z</time>
      </trkpt>
      <trkpt lat="47.49409" lon="6.75685">
        <ele>319</ele>
        <time>2016-02-07T08:32:47.000Z</time>
      </trkpt>
      <trkpt lat="47.49403" lon="6.75688">
        <ele>319</ele>
        <time>2016-02-07T08:32:48.000Z</time>
      </trkpt>
      <trkpt lat="47.49398" lon="6.75692">
        <ele>319</ele>
        <time>2016-02-07T08:32:49.000Z</time>
      </trkpt>
      <trkpt lat="47.49393" lon="6.75694">
        <ele>319</ele>
        <time>2016-02-07T08:32:50.000Z</time>
      </trkpt>
      <trkpt lat="47.49388" lon="6.75699">
        <ele>319</ele>
        <time>2016-02-07T08:32:51.000Z</time>
      </trkpt>
      <trkpt lat="47.49384" lon="6.75702">
        <ele>319</ele>
        <time>2016-02-07T08:32:52.000Z</time>
      </trkpt>
      <trkpt lat="47.4938" lon="6.75704">
        <ele>319</ele>
        <time>2016-02-07T08:32:53.000Z</time>
      </trkpt>
      <trkpt lat="47.49377" lon="6.75703">
        <ele>319</ele>
        <time>2016-02-07T08:32:54.000Z</time>
      </trkpt>
      <trkpt lat="47.49374" lon="6.75706">
        <ele>319</ele>
        <time>2016-02-07T08:32:55.000Z</time>
      </trkpt>
      <trkpt lat="47.4937" lon="6.75709">
        <ele>319</ele>
        <time>2016-02-07T08:32:56.000Z</time>
      </trkpt>
      <trkpt lat="47.49368" lon="6.75711">
        <ele>319</ele>
        <time>2016-02-07T08:32:57.000Z</time>
      </trkpt>
      <trkpt lat="47.49366" lon="6.75713">
        <ele>319</ele>
        <time>2016-02-07T08:32:58.000Z</time>
      </trkpt>
      <trkpt lat="47.49364" lon="6.75715">
        <ele>319</ele>
        <time>2016-02-07T08:32:59.000Z</time>
      </trkpt>
      <trkpt lat="47.49362" lon="6.75717">
        <ele>319</ele>
        <time>2016-02-07T08:33:00.000Z</time>
      </trkpt>
      <trkpt lat="47.49358" lon="6.7572">
        <ele>319</ele>
        <time>2016-02-07T08:33:03.000Z</time>
      </trkpt>
      <trkpt lat="47.49356" lon="6.75721">
        <ele>319</ele>
        <time>2016-02-07T08:33:04.000Z</time>
      </trkpt>
      <trkpt lat="47.49352" lon="6.75722">
        <ele>319</ele>
        <time>2016-02-07T08:33:05.000Z</time>
      </trkpt>
      <trkpt lat="47.49347" lon="6.75723">
        <ele>319</ele>
        <time>2016-02-07T08:33:06.000Z</time>
      </trkpt>
      <trkpt lat="47.49342" lon="6.75725">
        <ele>318</ele>
        <time>2016-02-07T08:33:07.000Z</time>
      </trkpt>
      <trkpt lat="47.49337" lon="6.75728">
        <ele>318</ele>
        <time>2016-02-07T08:33:08.000Z</time>
      </trkpt>
      <trkpt lat="47.49326" lon="6.75736">
        <ele>319</ele>
        <time>2016-02-07T08:33:09.000Z</time>
      </trkpt>
      <trkpt lat="47.4932" lon="6.75743">
        <ele>319</ele>
        <time>2016-02-07T08:33:10.000Z</time>
      </trkpt>
      <trkpt lat="47.49315" lon="6.75749">
        <ele>319</ele>
        <time>2016-02-07T08:33:11.000Z</time>
      </trkpt>
      <trkpt lat="47.4931" lon="6.75755">
        <ele>318</ele>
        <time>2016-02-07T08:33:12.000Z</time>
      </trkpt>
      <trkpt lat="47.49304" lon="6.75761">
        <ele>318</ele>
        <time>2016-02-07T08:33:13.000Z</time>
      </trkpt>
      <trkpt lat="47.49296" lon="6.75766">
        <ele>318</ele>
        <time>2016-02-07T08:33:14.000Z</time>
      </trkpt>
      <trkpt lat="47.49289" lon="6.75771">
        <ele>318</ele>
        <time>2016-02-07T08:33:15.000Z</time>
      </trkpt>
      <trkpt lat="47.49284" lon="6.75776">
        <ele>318</ele>
        <time>2016-02-07T08:33:16.000Z</time>
      </trkpt>
      <trkpt lat="47.49278" lon="6.75786">
        <ele>318</ele>
        <time>2016-02-07T08:33:17.000Z</time>
      </trkpt>
      <trkpt lat="47.49273" lon="6.75793">
        <ele>318</ele>
        <time>2016-02-07T08:33:18.000Z</time>
      </trkpt>
      <trkpt lat="47.49268" lon="6.758">
        <ele>317</ele>
        <time>2016-02-07T08:33:19.000Z</time>
      </trkpt>
      <trkpt lat="47.49264" lon="6.75807">
        <ele>317</ele>
        <time>2016-02-07T08:33:20.000Z</time>
      </trkpt>
      <trkpt lat="47.4926" lon="6.75815">
        <ele>316</ele>
        <time>2016-02-07T08:33:21.000Z</time>
      </trkpt>
      <trkpt lat="47.49256" lon="6.75822">
        <ele>315</ele>
        <time>2016-02-07T08:33:22.000Z</time>
      </trkpt>
      <trkpt lat="47.49252" lon="6.75832">
        <ele>313</ele>
        <time>2016-02-07T08:33:23.000Z</time>
      </trkpt>
      <trkpt lat="47.49248" lon="6.75838">
        <ele>314</ele>
        <time>2016-02-07T08:33:24.000Z</time>
      </trkpt>
      <trkpt lat="47.49244" lon="6.75849">
        <ele>316</ele>
        <time>2016-02-07T08:33:25.000Z</time>
      </trkpt>
      <trkpt lat="47.4924" lon="6.75862">
        <ele>317</ele>
        <time>2016-02-07T08:33:26.000Z</time>
      </trkpt>
      <trkpt lat="47.49236" lon="6.75869">
        <ele>318</ele>
        <time>2016-02-07T08:33:27.000Z</time>
      </trkpt>
      <trkpt lat="47.49232" lon="6.75878">
        <ele>318</ele>
        <time>2016-02-07T08:33:28.000Z</time>
      </trkpt>
      <trkpt lat="47.49229" lon="6.75886">
        <ele>318</ele>
        <time>2016-02-07T08:33:29.000Z</time>
      </trkpt>
      <trkpt lat="47.49226" lon="6.75894">
        <ele>319</ele>
        <time>2016-02-07T08:33:30.000Z</time>
      </trkpt>
      <trkpt lat="47.49223" lon="6.75902">
        <ele>319</ele>
        <time>2016-02-07T08:33:31.000Z</time>
      </trkpt>
      <trkpt lat="47.49219" lon="6.75911">
        <ele>319</ele>
        <time>2016-02-07T08:33:32.000Z</time>
      </trkpt>
      <trkpt lat="47.49214" lon="6.7592">
        <ele>320</ele>
        <time>2016-02-07T08:33:33.000Z</time>
      </trkpt>
      <trkpt lat="47.49209" lon="6.75929">
        <ele>320</ele>
        <time>2016-02-07T08:33:34.000Z</time>
      </trkpt>
      <trkpt lat="47.49205" lon="6.75937">
        <ele>320</ele>
        <time>2016-02-07T08:33:35.000Z</time>
      </trkpt>
      <trkpt lat="47.49201" lon="6.75946">
        <ele>320</ele>
        <time>2016-02-07T08:33:36.000Z</time>
      </trkpt>
      <trkpt lat="47.49198" lon="6.75953">
        <ele>320</ele>
        <time>2016-02-07T08:33:37.000Z</time>
      </trkpt>
      <trkpt lat="47.49195" lon="6.75962">
        <ele>320</ele>
        <time>2016-02-07T08:33:38.000Z</time>
      </trkpt>
      <trkpt lat="47.49192" lon="6.75969">
        <ele>320</ele>
        <time>2016-02-07T08:33:39.000Z</time>
      </trkpt>
      <trkpt lat="47.49189" lon="6.75979">
        <ele>320</ele>
        <time>2016-02-07T08:33:40.000Z</time>
      </trkpt>
      <trkpt lat="47.49183" lon="6.75987">
        <ele>320</ele>
        <time>2016-02-07T08:33:41.000Z</time>
      </trkpt>
      <trkpt lat="47.49179" lon="6.75995">
        <ele>320</ele>
        <time>2016-02-07T08:33:42.000Z</time>
      </trkpt>
      <trkpt lat="47.49175" lon="6.76005">
        <ele>320</ele>
        <time>2016-02-07T08:33:43.000Z</time>
      </trkpt>
      <trkpt lat="47.49173" lon="6.76014">
        <ele>320</ele>
        <time>2016-02-07T08:33:44.000Z</time>
      </trkpt>
      <trkpt lat="47.49169" lon="6.76022">
        <ele>320</ele>
        <time>2016-02-07T08:33:45.000Z</time>
      </trkpt>
      <trkpt lat="47.49165" lon="6.7603">
        <ele>322</ele>
        <time>2016-02-07T08:33:46.000Z</time>
      </trkpt>
      <trkpt lat="47.49161" lon="6.76038">
        <ele>322</ele>
        <time>2016-02-07T08:33:47.000Z</time>
      </trkpt>
      <trkpt lat="47.49158" lon="6.76049">
        <ele>322</ele>
        <time>2016-02-07T08:33:48.000Z</time>
      </trkpt>
      <trkpt lat="47.49155" lon="6.76057">
        <ele>322</ele>
        <time>2016-02-07T08:33:49.000Z</time>
      </trkpt>
      <trkpt lat="47.49152" lon="6.76068">
        <ele>322</ele>
        <time>2016-02-07T08:33:50.000Z</time>
      </trkpt>
      <trkpt lat="47.4915" lon="6.76077">
        <ele>321</ele>
        <time>2016-02-07T08:33:51.000Z</time>
      </trkpt>
      <trkpt lat="47.49147" lon="6.76085">
        <ele>321</ele>
        <time>2016-02-07T08:33:52.000Z</time>
      </trkpt>
      <trkpt lat="47.49145" lon="6.76095">
        <ele>321</ele>
        <time>2016-02-07T08:33:53.000Z</time>
      </trkpt>
      <trkpt lat="47.49142" lon="6.76105">
        <ele>321</ele>
        <time>2016-02-07T08:33:54.000Z</time>
      </trkpt>
      <trkpt lat="47.4914" lon="6.76117">
        <ele>322</ele>
        <time>2016-02-07T08:33:55.000Z</time>
      </trkpt>
      <trkpt lat="47.49138" lon="6.76129">
        <ele>322</ele>
        <time>2016-02-07T08:33:56.000Z</time>
      </trkpt>
      <trkpt lat="47.49136" lon="6.76139">
        <ele>322</ele>
        <time>2016-02-07T08:33:57.000Z</time>
      </trkpt>
      <trkpt lat="47.49134" lon="6.76149">
        <ele>322</ele>
        <time>2016-02-07T08:33:58.000Z</time>
      </trkpt>
      <trkpt lat="47.49133" lon="6.76159">
        <ele>322</ele>
        <time>2016-02-07T08:33:59.000Z</time>
      </trkpt>
      <trkpt lat="47.49133" lon="6.76166">
        <ele>322</ele>
        <time>2016-02-07T08:34:00.000Z</time>
      </trkpt>
      <trkpt lat="47.49132" lon="6.76173">
        <ele>321</ele>
        <time>2016-02-07T08:34:01.000Z</time>
      </trkpt>
      <trkpt lat="47.49131" lon="6.76183">
        <ele>321</ele>
        <time>2016-02-07T08:34:02.000Z</time>
      </trkpt>
      <trkpt lat="47.49132" lon="6.76193">
        <ele>321</ele>
        <time>2016-02-07T08:34:03.000Z</time>
      </trkpt>
      <trkpt lat="47.49131" lon="6.76202">
        <ele>321</ele>
        <time>2016-02-07T08:34:04.000Z</time>
      </trkpt>
      <trkpt lat="47.4913" lon="6.76213">
        <ele>321</ele>
        <time>2016-02-07T08:34:05.000Z</time>
      </trkpt>
      <trkpt lat="47.49129" lon="6.76224">
        <ele>321</ele>
        <time>2016-02-07T08:34:06.000Z</time>
      </trkpt>
      <trkpt lat="47.4913" lon="6.76233">
        <ele>321</ele>
        <time>2016-02-07T08:34:07.000Z</time>
      </trkpt>
      <trkpt lat="47.49129" lon="6.76241">
        <ele>321</ele>
        <time>2016-02-07T08:34:08.000Z</time>
      </trkpt>
      <trkpt lat="47.49131" lon="6.76247">
        <ele>320</ele>
        <time>2016-02-07T08:34:09.000Z</time>
      </trkpt>
      <trkpt lat="47.49131" lon="6.76255">
        <ele>319</ele>
        <time>2016-02-07T08:34:10.000Z</time>
      </trkpt>
      <trkpt lat="47.4913" lon="6.76265">
        <ele>319</ele>
        <time>2016-02-07T08:34:11.000Z</time>
      </trkpt>
      <trkpt lat="47.49129" lon="6.7627">
        <ele>319</ele>
        <time>2016-02-07T08:34:12.000Z</time>
      </trkpt>
      <trkpt lat="47.49129" lon="6.76275">
        <ele>319</ele>
        <time>2016-02-07T08:34:13.000Z</time>
      </trkpt>
      <trkpt lat="47.4913" lon="6.76283">
        <ele>319</ele>
        <time>2016-02-07T08:34:14.000Z</time>
      </trkpt>
      <trkpt lat="47.4913" lon="6.76289">
        <ele>319</ele>
        <time>2016-02-07T08:34:15.000Z</time>
      </trkpt>
      <trkpt lat="47.4913" lon="6.76294">
        <ele>319</ele>
        <time>2016-02-07T08:34:16.000Z</time>
      </trkpt>
      <trkpt lat="47.49131" lon="6.763">
        <ele>319</ele>
        <time>2016-02-07T08:34:17.000Z</time>
      </trkpt>
      <trkpt lat="47.49132" lon="6.76306">
        <ele>319</ele>
        <time>2016-02-07T08:34:18.000Z</time>
      </trkpt>
      <trkpt lat="47.49133" lon="6.76313">
        <ele>319</ele>
        <time>2016-02-07T08:34:19.000Z</time>
      </trkpt>
      <trkpt lat="47.49133" lon="6.76319">
        <ele>319</ele>
        <time>2016-02-07T08:34:20.000Z</time>
      </trkpt>
      <trkpt lat="47.49133" lon="6.76326">
        <ele>319</ele>
        <time>2016-02-07T08:34:21.000Z</time>
      </trkpt>
      <trkpt lat="47.49132" lon="6.76334">
        <ele>317</ele>
        <time>2016-02-07T08:34:22.000Z</time>
      </trkpt>
      <trkpt lat="47.49131" lon="6.7634">
        <ele>318</ele>
        <time>2016-02-07T08:34:23.000Z</time>
      </trkpt>
      <trkpt lat="47.4913" lon="6.76353">
        <ele>318</ele>
        <time>2016-02-07T08:34:24.000Z</time>
      </trkpt>
      <trkpt lat="47.4913" lon="6.76365">
        <ele>318</ele>
        <time>2016-02-07T08:34:25.000Z</time>
      </trkpt>
      <trkpt lat="47.49131" lon="6.76374">
        <ele>317</ele>
        <time>2016-02-07T08:34:26.000Z</time>
      </trkpt>
      <trkpt lat="47.49132" lon="6.76378">
        <ele>317</ele>
        <time>2016-02-07T08:34:27.000Z</time>
      </trkpt>
      <trkpt lat="47.49132" lon="6.76386">
        <ele>317</ele>
        <time>2016-02-07T08:34:28.000Z</time>
      </trkpt>
      <trkpt lat="47.49132" lon="6.76396">
        <ele>317</ele>
        <time>2016-02-07T08:34:29.000Z</time>
      </trkpt>
      <trkpt lat="47.49131" lon="6.76406">
        <ele>317</ele>
        <time>2016-02-07T08:34:30.000Z</time>
      </trkpt>
      <trkpt lat="47.49131" lon="6.76415">
        <ele>317</ele>
        <time>2016-02-07T08:34:31.000Z</time>
      </trkpt>
      <trkpt lat="47.4913" lon="6.76424">
        <ele>317</ele>
        <time>2016-02-07T08:34:32.000Z</time>
      </trkpt>
      <trkpt lat="47.4913" lon="6.76432">
        <ele>317</ele>
        <time>2016-02-07T08:34:33.000Z</time>
      </trkpt>
      <trkpt lat="47.49128" lon="6.76442">
        <ele>317</ele>
        <time>2016-02-07T08:34:34.000Z</time>
      </trkpt>
      <trkpt lat="47.49128" lon="6.76449">
        <ele>317</ele>
        <time>2016-02-07T08:34:35.000Z</time>
      </trkpt>
      <trkpt lat="47.49129" lon="6.76462">
        <ele>317</ele>
        <time>2016-02-07T08:34:36.000Z</time>
      </trkpt>
      <trkpt lat="47.4913" lon="6.76474">
        <ele>317</ele>
        <time>2016-02-07T08:34:37.000Z</time>
      </trkpt>
      <trkpt lat="47.4913" lon="6.76484">
        <ele>317</ele>
        <time>2016-02-07T08:34:38.000Z</time>
      </trkpt>
      <trkpt lat="47.49129" lon="6.76497">
        <ele>317</ele>
        <time>2016-02-07T08:34:39.000Z</time>
      </trkpt>
      <trkpt lat="47.49131" lon="6.76507">
        <ele>316</ele>
        <time>2016-02-07T08:34:40.000Z</time>
      </trkpt>
      <trkpt lat="47.49142" lon="6.7651">
        <ele>315</ele>
        <time>2016-02-07T08:34:41.000Z</time>
      </trkpt>
      <trkpt lat="47.49147" lon="6.76514">
        <ele>315</ele>
        <time>2016-02-07T08:34:42.000Z</time>
      </trkpt>
      <trkpt lat="47.49154" lon="6.76514">
        <ele>315</ele>
        <time>2016-02-07T08:34:43.000Z</time>
      </trkpt>
      <trkpt lat="47.4916" lon="6.76512">
        <ele>314</ele>
        <time>2016-02-07T08:34:44.000Z</time>
      </trkpt>
      <trkpt lat="47.49166" lon="6.76509">
        <ele>314</ele>
        <time>2016-02-07T08:34:45.000Z</time>
      </trkpt>
      <trkpt lat="47.4917" lon="6.76506">
        <ele>314</ele>
        <time>2016-02-07T08:34:46.000Z</time>
      </trkpt>
      <trkpt lat="47.49175" lon="6.76502">
        <ele>314</ele>
        <time>2016-02-07T08:34:47.000Z</time>
      </trkpt>
      <trkpt lat="47.49178" lon="6.765">
        <ele>315</ele>
        <time>2016-02-07T08:34:48.000Z</time>
      </trkpt>
      <trkpt lat="47.49182" lon="6.76497">
        <ele>315</ele>
        <time>2016-02-07T08:34:49.000Z</time>
      </trkpt>
      <trkpt lat="47.49184" lon="6.76494">
        <ele>316</ele>
        <time>2016-02-07T08:34:50.000Z</time>
      </trkpt>
      <trkpt lat="47.49185" lon="6.7649">
        <ele>316</ele>
        <time>2016-02-07T08:34:51.000Z</time>
      </trkpt>
      <trkpt lat="47.49183" lon="6.76486">
        <ele>316</ele>
        <time>2016-02-07T08:34:52.000Z</time>
      </trkpt>
      <trkpt lat="47.49181" lon="6.76485">
        <ele>316</ele>
        <time>2016-02-07T08:34:53.000Z</time>
      </trkpt>
      <trkpt lat="47.49183" lon="6.7649">
        <ele>316</ele>
        <time>2016-02-07T08:34:59.000Z</time>
      </trkpt>
      <trkpt lat="47.49182" lon="6.76492">
        <ele>315</ele>
        <time>2016-02-07T08:35:00.000Z</time>
      </trkpt>
      <trkpt lat="47.49181" lon="6.76497">
        <ele>315</ele>
        <time>2016-02-07T08:38:14.000Z</time>
      </trkpt>
      <trkpt lat="47.49179" lon="6.76499">
        <ele>315</ele>
        <time>2016-02-07T08:38:15.000Z</time>
      </trkpt>
      <trkpt lat="47.49176" lon="6.765">
        <ele>314</ele>
        <time>2016-02-07T08:38:16.000Z</time>
      </trkpt>
      <trkpt lat="47.49173" lon="6.76502">
        <ele>314</ele>
        <time>2016-02-07T08:38:17.000Z</time>
      </trkpt>
      <trkpt lat="47.49169" lon="6.76504">
        <ele>314</ele>
        <time>2016-02-07T08:38:18.000Z</time>
      </trkpt>
      <trkpt lat="47.49165" lon="6.76506">
        <ele>314</ele>
        <time>2016-02-07T08:38:19.000Z</time>
      </trkpt>
      <trkpt lat="47.49156" lon="6.76511">
        <ele>314</ele>
        <time>2016-02-07T08:38:20.000Z</time>
      </trkpt>
      <trkpt lat="47.49151" lon="6.76513">
        <ele>315</ele>
        <time>2016-02-07T08:38:21.000Z</time>
      </trkpt>
      <trkpt lat="47.49147" lon="6.76517">
        <ele>315</ele>
        <time>2016-02-07T08:38:22.000Z</time>
      </trkpt>
      <trkpt lat="47.49142" lon="6.76518">
        <ele>315</ele>
        <time>2016-02-07T08:38:23.000Z</time>
      </trkpt>
      <trkpt lat="47.49137" lon="6.76521">
        <ele>315</ele>
        <time>2016-02-07T08:38:24.000Z</time>
      </trkpt>
      <trkpt lat="47.49133" lon="6.76521">
        <ele>316</ele>
        <time>2016-02-07T08:38:25.000Z</time>
      </trkpt>
      <trkpt lat="47.49129" lon="6.76522">
        <ele>316</ele>
        <time>2016-02-07T08:38:26.000Z</time>
      </trkpt>
      <trkpt lat="47.49126" lon="6.7652">
        <ele>316</ele>
        <time>2016-02-07T08:38:27.000Z</time>
      </trkpt>
      <trkpt lat="47.49124" lon="6.76516">
        <ele>316</ele>
        <time>2016-02-07T08:38:28.000Z</time>
      </trkpt>
      <trkpt lat="47.49123" lon="6.76511">
        <ele>316</ele>
        <time>2016-02-07T08:38:29.000Z</time>
      </trkpt>
      <trkpt lat="47.49123" lon="6.76506">
        <ele>316</ele>
        <time>2016-02-07T08:38:30.000Z</time>
      </trkpt>
      <trkpt lat="47.49123" lon="6.76499">
        <ele>317</ele>
        <time>2016-02-07T08:38:31.000Z</time>
      </trkpt>
      <trkpt lat="47.49123" lon="6.76494">
        <ele>317</ele>
        <time>2016-02-07T08:38:32.000Z</time>
      </trkpt>
      <trkpt lat="47.49123" lon="6.76489">
        <ele>317</ele>
        <time>2016-02-07T08:38:33.000Z</time>
      </trkpt>
      <trkpt lat="47.49124" lon="6.76485">
        <ele>317</ele>
        <time>2016-02-07T08:38:34.000Z</time>
      </trkpt>
      <trkpt lat="47.49124" lon="6.76481">
        <ele>317</ele>
        <time>2016-02-07T08:38:35.000Z</time>
      </trkpt>
      <trkpt lat="47.49124" lon="6.76477">
        <ele>317</ele>
        <time>2016-02-07T08:38:36.000Z</time>
      </trkpt>
      <trkpt lat="47.49124" lon="6.76473">
        <ele>317</ele>
        <time>2016-02-07T08:38:37.000Z</time>
      </trkpt>
      <trkpt lat="47.49124" lon="6.76469">
        <ele>317</ele>
        <time>2016-02-07T08:38:38.001Z</time>
      </trkpt>
      <trkpt lat="47.49125" lon="6.76465">
        <ele>317</ele>
        <time>2016-02-07T08:38:39.000Z</time>
      </trkpt>
      <trkpt lat="47.49125" lon="6.76461">
        <ele>317</ele>
        <time>2016-02-07T08:38:40.000Z</time>
      </trkpt>
      <trkpt lat="47.49126" lon="6.76457">
        <ele>317</ele>
        <time>2016-02-07T08:38:41.000Z</time>
      </trkpt>
      <trkpt lat="47.49126" lon="6.76453">
        <ele>317</ele>
        <time>2016-02-07T08:38:42.000Z</time>
      </trkpt>
      <trkpt lat="47.49126" lon="6.76449">
        <ele>317</ele>
        <time>2016-02-07T08:38:43.000Z</time>
      </trkpt>
      <trkpt lat="47.49127" lon="6.76442">
        <ele>317</ele>
        <time>2016-02-07T08:38:45.000Z</time>
      </trkpt>
      <trkpt lat="47.49126" lon="6.7644">
        <ele>317</ele>
        <time>2016-02-07T08:38:46.000Z</time>
      </trkpt>
      <trkpt lat="47.49122" lon="6.76436">
        <ele>317</ele>
        <time>2016-02-07T08:38:48.000Z</time>
      </trkpt>
      <trkpt lat="47.4912" lon="6.76436">
        <ele>317</ele>
        <time>2016-02-07T08:38:49.000Z</time>
      </trkpt>
      <trkpt lat="47.49117" lon="6.76435">
        <ele>317</ele>
        <time>2016-02-07T08:38:50.000Z</time>
      </trkpt>
      <trkpt lat="47.49114" lon="6.76434">
        <ele>318</ele>
        <time>2016-02-07T08:38:51.000Z</time>
      </trkpt>
      <trkpt lat="47.49112" lon="6.76434">
        <ele>318</ele>
        <time>2016-02-07T08:38:52.000Z</time>
      </trkpt>
      <trkpt lat="47.49109" lon="6.76433">
        <ele>318</ele>
        <time>2016-02-07T08:38:53.000Z</time>
      </trkpt>
      <trkpt lat="47.49105" lon="6.7643">
        <ele>318</ele>
        <time>2016-02-07T08:38:55.000Z</time>
      </trkpt>
      <trkpt lat="47.49105" lon="6.76428">
        <ele>318</ele>
        <time>2016-02-07T08:38:56.000Z</time>
      </trkpt>
      <trkpt lat="47.49106" lon="6.76422">
        <ele>318</ele>
        <time>2016-02-07T08:38:58.000Z</time>
      </trkpt>
      <trkpt lat="47.49106" lon="6.76419">
        <ele>318</ele>
        <time>2016-02-07T08:38:59.000Z</time>
      </trkpt>
      <trkpt lat="47.49107" lon="6.76413">
        <ele>319</ele>
        <time>2016-02-07T08:39:01.000Z</time>
      </trkpt>
      <trkpt lat="47.49108" lon="6.7641">
        <ele>319</ele>
        <time>2016-02-07T08:39:02.000Z</time>
      </trkpt>
      <trkpt lat="47.49108" lon="6.76404">
        <ele>319</ele>
        <time>2016-02-07T08:39:04.000Z</time>
      </trkpt>
      <trkpt lat="47.49109" lon="6.76402">
        <ele>319</ele>
        <time>2016-02-07T08:39:05.000Z</time>
      </trkpt>
      <trkpt lat="47.49109" lon="6.76396">
        <ele>319</ele>
        <time>2016-02-07T08:39:07.000Z</time>
      </trkpt>
      <trkpt lat="47.49109" lon="6.76393">
        <ele>319</ele>
        <time>2016-02-07T08:39:08.000Z</time>
      </trkpt>
      <trkpt lat="47.49108" lon="6.7639">
        <ele>319</ele>
        <time>2016-02-07T08:39:09.000Z</time>
      </trkpt>
      <trkpt lat="47.49107" lon="6.76386">
        <ele>319</ele>
        <time>2016-02-07T08:39:10.000Z</time>
      </trkpt>
      <trkpt lat="47.49107" lon="6.76382">
        <ele>319</ele>
        <time>2016-02-07T08:39:11.000Z</time>
      </trkpt>
      <trkpt lat="47.49106" lon="6.76378">
        <ele>319</ele>
        <time>2016-02-07T08:39:12.000Z</time>
      </trkpt>
      <trkpt lat="47.49105" lon="6.76375">
        <ele>319</ele>
        <time>2016-02-07T08:39:13.000Z</time>
      </trkpt>
      <trkpt lat="47.49105" lon="6.76372">
        <ele>319</ele>
        <time>2016-02-07T08:39:14.000Z</time>
      </trkpt>
      <trkpt lat="47.49104" lon="6.76368">
        <ele>319</ele>
        <time>2016-02-07T08:39:15.000Z</time>
      </trkpt>
      <trkpt lat="47.49104" lon="6.76365">
        <ele>319</ele>
        <time>2016-02-07T08:39:16.000Z</time>
      </trkpt>
      <trkpt lat="47.49104" lon="6.76361">
        <ele>319</ele>
        <time>2016-02-07T08:39:17.000Z</time>
      </trkpt>
      <trkpt lat="47.49104" lon="6.76357">
        <ele>319</ele>
        <time>2016-02-07T08:39:18.000Z</time>
      </trkpt>
      <trkpt lat="47.49105" lon="6.76352">
        <ele>319</ele>
        <time>2016-02-07T08:39:19.000Z</time>
      </trkpt>
      <trkpt lat="47.49105" lon="6.76348">
        <ele>319</ele>
        <time>2016-02-07T08:39:20.000Z</time>
      </trkpt>
      <trkpt lat="47.49106" lon="6.76343">
        <ele>320</ele>
        <time>2016-02-07T08:39:21.000Z</time>
      </trkpt>
      <trkpt lat="47.49106" lon="6.76339">
        <ele>320</ele>
        <time>2016-02-07T08:39:22.000Z</time>
      </trkpt>
      <trkpt lat="47.49106" lon="6.76335">
        <ele>320</ele>
        <time>2016-02-07T08:39:23.000Z</time>
      </trkpt>
      <trkpt lat="47.49106" lon="6.7633">
        <ele>321</ele>
        <time>2016-02-07T08:39:24.000Z</time>
      </trkpt>
      <trkpt lat="47.49105" lon="6.76326">
        <ele>321</ele>
        <time>2016-02-07T08:39:25.000Z</time>
      </trkpt>
      <trkpt lat="47.49105" lon="6.76321">
        <ele>321</ele>
        <time>2016-02-07T08:39:26.000Z</time>
      </trkpt>
      <trkpt lat="47.49106" lon="6.76314">
        <ele>320</ele>
        <time>2016-02-07T08:39:27.000Z</time>
      </trkpt>
      <trkpt lat="47.49106" lon="6.76308">
        <ele>320</ele>
        <time>2016-02-07T08:39:28.000Z</time>
      </trkpt>
      <trkpt lat="47.49106" lon="6.76302">
        <ele>320</ele>
        <time>2016-02-07T08:39:29.000Z</time>
      </trkpt>
      <trkpt lat="47.49106" lon="6.76296">
        <ele>320</ele>
        <time>2016-02-07T08:39:30.000Z</time>
      </trkpt>
      <trkpt lat="47.49106" lon="6.76291">
        <ele>320</ele>
        <time>2016-02-07T08:39:31.000Z</time>
      </trkpt>
      <trkpt lat="47.49106" lon="6.76286">
        <ele>321</ele>
        <time>2016-02-07T08:39:32.000Z</time>
      </trkpt>
      <trkpt lat="47.49105" lon="6.76281">
        <ele>321</ele>
        <time>2016-02-07T08:39:33.000Z</time>
      </trkpt>
      <trkpt lat="47.49105" lon="6.76277">
        <ele>321</ele>
        <time>2016-02-07T08:39:34.000Z</time>
      </trkpt>
      <trkpt lat="47.49105" lon="6.76272">
        <ele>321</ele>
        <time>2016-02-07T08:39:35.000Z</time>
      </trkpt>
      <trkpt lat="47.49104" lon="6.76268">
        <ele>321</ele>
        <time>2016-02-07T08:39:36.000Z</time>
      </trkpt>
      <trkpt lat="47.49104" lon="6.76264">
        <ele>321</ele>
        <time>2016-02-07T08:39:37.000Z</time>
      </trkpt>
      <trkpt lat="47.49103" lon="6.76259">
        <ele>322</ele>
        <time>2016-02-07T08:39:38.000Z</time>
      </trkpt>
      <trkpt lat="47.49103" lon="6.76255">
        <ele>322</ele>
        <time>2016-02-07T08:39:39.000Z</time>
      </trkpt>
      <trkpt lat="47.49103" lon="6.76251">
        <ele>322</ele>
        <time>2016-02-07T08:39:40.000Z</time>
      </trkpt>
      <trkpt lat="47.49103" lon="6.76246">
        <ele>323</ele>
        <time>2016-02-07T08:39:41.000Z</time>
      </trkpt>
      <trkpt lat="47.49103" lon="6.76242">
        <ele>323</ele>
        <time>2016-02-07T08:39:42.000Z</time>
      </trkpt>
      <trkpt lat="47.49103" lon="6.76238">
        <ele>322</ele>
        <time>2016-02-07T08:39:43.000Z</time>
      </trkpt>
      <trkpt lat="47.49103" lon="6.76233">
        <ele>322</ele>
        <time>2016-02-07T08:39:44.000Z</time>
      </trkpt>
      <trkpt lat="47.49103" lon="6.76228">
        <ele>322</ele>
        <time>2016-02-07T08:39:45.000Z</time>
      </trkpt>
      <trkpt lat="47.49103" lon="6.76223">
        <ele>322</ele>
        <time>2016-02-07T08:39:46.000Z</time>
      </trkpt>
      <trkpt lat="47.49103" lon="6.76218">
        <ele>322</ele>
        <time>2016-02-07T08:39:47.000Z</time>
      </trkpt>
      <trkpt lat="47.49102" lon="6.76212">
        <ele>322</ele>
        <time>2016-02-07T08:39:48.000Z</time>
      </trkpt>
      <trkpt lat="47.49102" lon="6.76206">
        <ele>322</ele>
        <time>2016-02-07T08:39:49.000Z</time>
      </trkpt>
      <trkpt lat="47.49101" lon="6.762">
        <ele>322</ele>
        <time>2016-02-07T08:39:50.000Z</time>
      </trkpt>
      <trkpt lat="47.491" lon="6.76194">
        <ele>322</ele>
        <time>2016-02-07T08:39:51.000Z</time>
      </trkpt>
      <trkpt lat="47.491" lon="6.76188">
        <ele>322</ele>
        <time>2016-02-07T08:39:52.000Z</time>
      </trkpt>
      <trkpt lat="47.49099" lon="6.76182">
        <ele>322</ele>
        <time>2016-02-07T08:39:53.000Z</time>
      </trkpt>
      <trkpt lat="47.49099" lon="6.76176">
        <ele>323</ele>
        <time>2016-02-07T08:39:54.000Z</time>
      </trkpt>
      <trkpt lat="47.49098" lon="6.76171">
        <ele>323</ele>
        <time>2016-02-07T08:39:55.000Z</time>
      </trkpt>
      <trkpt lat="47.49098" lon="6.76166">
        <ele>323</ele>
        <time>2016-02-07T08:39:56.000Z</time>
      </trkpt>
      <trkpt lat="47.49098" lon="6.76161">
        <ele>323</ele>
        <time>2016-02-07T08:39:57.000Z</time>
      </trkpt>
      <trkpt lat="47.49098" lon="6.76157">
        <ele>323</ele>
        <time>2016-02-07T08:39:58.000Z</time>
      </trkpt>
      <trkpt lat="47.49098" lon="6.76153">
        <ele>323</ele>
        <time>2016-02-07T08:39:59.000Z</time>
      </trkpt>
      <trkpt lat="47.49098" lon="6.76148">
        <ele>323</ele>
        <time>2016-02-07T08:40:00.000Z</time>
      </trkpt>
      <trkpt lat="47.49098" lon="6.76144">
        <ele>323</ele>
        <time>2016-02-07T08:40:01.000Z</time>
      </trkpt>
      <trkpt lat="47.49098" lon="6.7614">
        <ele>323</ele>
        <time>2016-02-07T08:40:02.000Z</time>
      </trkpt>
      <trkpt lat="47.49099" lon="6.76136">
        <ele>323</ele>
        <time>2016-02-07T08:40:03.000Z</time>
      </trkpt>
      <trkpt lat="47.49099" lon="6.76131">
        <ele>323</ele>
        <time>2016-02-07T08:40:04.000Z</time>
      </trkpt>
      <trkpt lat="47.491" lon="6.76127">
        <ele>323</ele>
        <time>2016-02-07T08:40:05.000Z</time>
      </trkpt>
      <trkpt lat="47.491" lon="6.76122">
        <ele>323</ele>
        <time>2016-02-07T08:40:06.000Z</time>
      </trkpt>
      <trkpt lat="47.491" lon="6.76117">
        <ele>324</ele>
        <time>2016-02-07T08:40:07.000Z</time>
      </trkpt>
      <trkpt lat="47.49101" lon="6.76112">
        <ele>324</ele>
        <time>2016-02-07T08:40:08.000Z</time>
      </trkpt>
      <trkpt lat="47.49102" lon="6.76107">
        <ele>324</ele>
        <time>2016-02-07T08:40:09.000Z</time>
      </trkpt>
      <trkpt lat="47.49102" lon="6.76103">
        <ele>324</ele>
        <time>2016-02-07T08:40:10.000Z</time>
      </trkpt>
      <trkpt lat="47.49102" lon="6.76098">
        <ele>324</ele>
        <time>2016-02-07T08:40:11.000Z</time>
      </trkpt>
      <trkpt lat="47.49103" lon="6.76094">
        <ele>324</ele>
        <time>2016-02-07T08:40:12.000Z</time>
      </trkpt>
      <trkpt lat="47.49103" lon="6.76089">
        <ele>325</ele>
        <time>2016-02-07T08:40:13.000Z</time>
      </trkpt>
      <trkpt lat="47.49104" lon="6.76084">
        <ele>325</ele>
        <time>2016-02-07T08:40:14.000Z</time>
      </trkpt>
      <trkpt lat="47.49104" lon="6.76079">
        <ele>326</ele>
        <time>2016-02-07T08:40:15.000Z</time>
      </trkpt>
      <trkpt lat="47.49105" lon="6.76074">
        <ele>326</ele>
        <time>2016-02-07T08:40:16.000Z</time>
      </trkpt>
      <trkpt lat="47.49106" lon="6.76069">
        <ele>326</ele>
        <time>2016-02-07T08:40:17.000Z</time>
      </trkpt>
      <trkpt lat="47.49107" lon="6.76063">
        <ele>325</ele>
        <time>2016-02-07T08:40:18.000Z</time>
      </trkpt>
      <trkpt lat="47.49109" lon="6.76058">
        <ele>325</ele>
        <time>2016-02-07T08:40:19.000Z</time>
      </trkpt>
      <trkpt lat="47.49111" lon="6.76052">
        <ele>325</ele>
        <time>2016-02-07T08:40:20.000Z</time>
      </trkpt>
      <trkpt lat="47.49113" lon="6.76046">
        <ele>325</ele>
        <time>2016-02-07T08:40:21.000Z</time>
      </trkpt>
      <trkpt lat="47.49114" lon="6.76041">
        <ele>325</ele>
        <time>2016-02-07T08:40:22.000Z</time>
      </trkpt>
      <trkpt lat="47.49116" lon="6.76035">
        <ele>325</ele>
        <time>2016-02-07T08:40:23.000Z</time>
      </trkpt>
      <trkpt lat="47.49117" lon="6.7603">
        <ele>325</ele>
        <time>2016-02-07T08:40:24.000Z</time>
      </trkpt>
      <trkpt lat="47.49118" lon="6.76025">
        <ele>325</ele>
        <time>2016-02-07T08:40:25.000Z</time>
      </trkpt>
      <trkpt lat="47.49119" lon="6.7602">
        <ele>325</ele>
        <time>2016-02-07T08:40:26.000Z</time>
      </trkpt>
      <trkpt lat="47.4912" lon="6.76015">
        <ele>326</ele>
        <time>2016-02-07T08:40:27.000Z</time>
      </trkpt>
      <trkpt lat="47.4912" lon="6.7601">
        <ele>326</ele>
        <time>2016-02-07T08:40:28.000Z</time>
      </trkpt>
      <trkpt lat="47.49121" lon="6.76004">
        <ele>326</ele>
        <time>2016-02-07T08:40:29.000Z</time>
      </trkpt>
      <trkpt lat="47.49122" lon="6.75999">
        <ele>328</ele>
        <time>2016-02-07T08:40:30.000Z</time>
      </trkpt>
      <trkpt lat="47.49122" lon="6.75994">
        <ele>328</ele>
        <time>2016-02-07T08:40:31.000Z</time>
      </trkpt>
      <trkpt lat="47.49124" lon="6.75989">
        <ele>328</ele>
        <time>2016-02-07T08:40:32.000Z</time>
      </trkpt>
      <trkpt lat="47.49125" lon="6.75985">
        <ele>328</ele>
        <time>2016-02-07T08:40:33.000Z</time>
      </trkpt>
      <trkpt lat="47.49125" lon="6.7598">
        <ele>328</ele>
        <time>2016-02-07T08:40:34.000Z</time>
      </trkpt>
      <trkpt lat="47.49126" lon="6.75977">
        <ele>328</ele>
        <time>2016-02-07T08:40:35.000Z</time>
      </trkpt>
      <trkpt lat="47.49127" lon="6.75973">
        <ele>328</ele>
        <time>2016-02-07T08:40:36.000Z</time>
      </trkpt>
      <trkpt lat="47.49128" lon="6.7597">
        <ele>328</ele>
        <time>2016-02-07T08:40:37.000Z</time>
      </trkpt>
      <trkpt lat="47.49129" lon="6.75966">
        <ele>328</ele>
        <time>2016-02-07T08:40:38.000Z</time>
      </trkpt>
      <trkpt lat="47.4913" lon="6.75963">
        <ele>328</ele>
        <time>2016-02-07T08:40:39.000Z</time>
      </trkpt>
      <trkpt lat="47.49132" lon="6.7596">
        <ele>328</ele>
        <time>2016-02-07T08:40:40.000Z</time>
      </trkpt>
      <trkpt lat="47.49133" lon="6.75957">
        <ele>328</ele>
        <time>2016-02-07T08:40:41.000Z</time>
      </trkpt>
      <trkpt lat="47.49134" lon="6.75953">
        <ele>328</ele>
        <time>2016-02-07T08:40:42.000Z</time>
      </trkpt>
      <trkpt lat="47.49134" lon="6.7595">
        <ele>328</ele>
        <time>2016-02-07T08:40:43.000Z</time>
      </trkpt>
      <trkpt lat="47.49135" lon="6.75946">
        <ele>328</ele>
        <time>2016-02-07T08:40:44.000Z</time>
      </trkpt>
      <trkpt lat="47.49136" lon="6.75941">
        <ele>328</ele>
        <time>2016-02-07T08:40:45.000Z</time>
      </trkpt>
      <trkpt lat="47.49137" lon="6.75936">
        <ele>328</ele>
        <time>2016-02-07T08:40:46.000Z</time>
      </trkpt>
      <trkpt lat="47.49138" lon="6.75931">
        <ele>327</ele>
        <time>2016-02-07T08:40:47.000Z</time>
      </trkpt>
      <trkpt lat="47.49139" lon="6.75927">
        <ele>327</ele>
        <time>2016-02-07T08:40:48.000Z</time>
      </trkpt>
      <trkpt lat="47.4914" lon="6.75922">
        <ele>327</ele>
        <time>2016-02-07T08:40:49.000Z</time>
      </trkpt>
      <trkpt lat="47.49141" lon="6.75918">
        <ele>327</ele>
        <time>2016-02-07T08:40:50.000Z</time>
      </trkpt>
      <trkpt lat="47.49142" lon="6.75913">
        <ele>329</ele>
        <time>2016-02-07T08:40:51.000Z</time>
      </trkpt>
      <trkpt lat="47.49143" lon="6.75909">
        <ele>329</ele>
        <time>2016-02-07T08:40:52.000Z</time>
      </trkpt>
      <trkpt lat="47.49145" lon="6.75904">
        <ele>329</ele>
        <time>2016-02-07T08:40:53.000Z</time>
      </trkpt>
      <trkpt lat="47.49146" lon="6.759">
        <ele>330</ele>
        <time>2016-02-07T08:40:54.000Z</time>
      </trkpt>
      <trkpt lat="47.49147" lon="6.75895">
        <ele>330</ele>
        <time>2016-02-07T08:40:55.000Z</time>
      </trkpt>
      <trkpt lat="47.49149" lon="6.7589">
        <ele>330</ele>
        <time>2016-02-07T08:40:56.000Z</time>
      </trkpt>
      <trkpt lat="47.4915" lon="6.75885">
        <ele>330</ele>
        <time>2016-02-07T08:40:57.000Z</time>
      </trkpt>
      <trkpt lat="47.49152" lon="6.7588">
        <ele>330</ele>
        <time>2016-02-07T08:40:58.000Z</time>
      </trkpt>
      <trkpt lat="47.49154" lon="6.75874">
        <ele>330</ele>
        <time>2016-02-07T08:40:59.000Z</time>
      </trkpt>
      <trkpt lat="47.49156" lon="6.75869">
        <ele>330</ele>
        <time>2016-02-07T08:41:00.000Z</time>
      </trkpt>
      <trkpt lat="47.49158" lon="6.75864">
        <ele>330</ele>
        <time>2016-02-07T08:41:01.000Z</time>
      </trkpt>
      <trkpt lat="47.49159" lon="6.75858">
        <ele>330</ele>
        <time>2016-02-07T08:41:02.000Z</time>
      </trkpt>
      <trkpt lat="47.49161" lon="6.75852">
        <ele>329</ele>
        <time>2016-02-07T08:41:03.000Z</time>
      </trkpt>
      <trkpt lat="47.49163" lon="6.75845">
        <ele>329</ele>
        <time>2016-02-07T08:41:04.000Z</time>
      </trkpt>
      <trkpt lat="47.49165" lon="6.75839">
        <ele>327</ele>
        <time>2016-02-07T08:41:05.000Z</time>
      </trkpt>
      <trkpt lat="47.49167" lon="6.75832">
        <ele>326</ele>
        <time>2016-02-07T08:41:06.000Z</time>
      </trkpt>
      <trkpt lat="47.49169" lon="6.75826">
        <ele>325</ele>
        <time>2016-02-07T08:41:07.000Z</time>
      </trkpt>
      <trkpt lat="47.49171" lon="6.75819">
        <ele>325</ele>
        <time>2016-02-07T08:41:08.000Z</time>
      </trkpt>
      <trkpt lat="47.49174" lon="6.75811">
        <ele>325</ele>
        <time>2016-02-07T08:41:09.000Z</time>
      </trkpt>
      <trkpt lat="47.49176" lon="6.75804">
        <ele>325</ele>
        <time>2016-02-07T08:41:10.000Z</time>
      </trkpt>
      <trkpt lat="47.49179" lon="6.75797">
        <ele>325</ele>
        <time>2016-02-07T08:41:11.000Z</time>
      </trkpt>
      <trkpt lat="47.49181" lon="6.7579">
        <ele>326</ele>
        <time>2016-02-07T08:41:12.000Z</time>
      </trkpt>
      <trkpt lat="47.49183" lon="6.75783">
        <ele>326</ele>
        <time>2016-02-07T08:41:13.000Z</time>
      </trkpt>
      <trkpt lat="47.49186" lon="6.75776">
        <ele>326</ele>
        <time>2016-02-07T08:41:14.000Z</time>
      </trkpt>
      <trkpt lat="47.49188" lon="6.7577">
        <ele>327</ele>
        <time>2016-02-07T08:41:15.000Z</time>
      </trkpt>
      <trkpt lat="47.4919" lon="6.75765">
        <ele>327</ele>
        <time>2016-02-07T08:41:16.000Z</time>
      </trkpt>
      <trkpt lat="47.49192" lon="6.75759">
        <ele>327</ele>
        <time>2016-02-07T08:41:17.000Z</time>
      </trkpt>
      <trkpt lat="47.49194" lon="6.75754">
        <ele>327</ele>
        <time>2016-02-07T08:41:18.000Z</time>
      </trkpt>
      <trkpt lat="47.49196" lon="6.75748">
        <ele>331</ele>
        <time>2016-02-07T08:41:19.000Z</time>
      </trkpt>
      <trkpt lat="47.49198" lon="6.75743">
        <ele>331</ele>
        <time>2016-02-07T08:41:20.000Z</time>
      </trkpt>
      <trkpt lat="47.492" lon="6.75738">
        <ele>331</ele>
        <time>2016-02-07T08:41:21.000Z</time>
      </trkpt>
      <trkpt lat="47.49203" lon="6.75732">
        <ele>331</ele>
        <time>2016-02-07T08:41:22.000Z</time>
      </trkpt>
      <trkpt lat="47.49205" lon="6.75727">
        <ele>331</ele>
        <time>2016-02-07T08:41:23.000Z</time>
      </trkpt>
      <trkpt lat="47.49207" lon="6.75721">
        <ele>331</ele>
        <time>2016-02-07T08:41:24.000Z</time>
      </trkpt>
      <trkpt lat="47.49209" lon="6.75716">
        <ele>331</ele>
        <time>2016-02-07T08:41:25.000Z</time>
      </trkpt>
      <trkpt lat="47.4921" lon="6.7571">
        <ele>331</ele>
        <time>2016-02-07T08:41:26.000Z</time>
      </trkpt>
      <trkpt lat="47.49211" lon="6.75705">
        <ele>331</ele>
        <time>2016-02-07T08:41:27.000Z</time>
      </trkpt>
      <trkpt lat="47.49211" lon="6.757">
        <ele>331</ele>
        <time>2016-02-07T08:41:28.000Z</time>
      </trkpt>
      <trkpt lat="47.49212" lon="6.75695">
        <ele>331</ele>
        <time>2016-02-07T08:41:29.000Z</time>
      </trkpt>
      <trkpt lat="47.49212" lon="6.7569">
        <ele>332</ele>
        <time>2016-02-07T08:41:30.000Z</time>
      </trkpt>
      <trkpt lat="47.49213" lon="6.75685">
        <ele>331</ele>
        <time>2016-02-07T08:41:31.000Z</time>
      </trkpt>
      <trkpt lat="47.49214" lon="6.7568">
        <ele>331</ele>
        <time>2016-02-07T08:41:32.000Z</time>
      </trkpt>
      <trkpt lat="47.49215" lon="6.75674">
        <ele>331</ele>
        <time>2016-02-07T08:41:33.000Z</time>
      </trkpt>
      <trkpt lat="47.49217" lon="6.75668">
        <ele>331</ele>
        <time>2016-02-07T08:41:34.000Z</time>
      </trkpt>
      <trkpt lat="47.49218" lon="6.75663">
        <ele>336</ele>
        <time>2016-02-07T08:41:35.000Z</time>
      </trkpt>
      <trkpt lat="47.49219" lon="6.75656">
        <ele>336</ele>
        <time>2016-02-07T08:41:36.000Z</time>
      </trkpt>
      <trkpt lat="47.49221" lon="6.7565">
        <ele>336</ele>
        <time>2016-02-07T08:41:37.000Z</time>
      </trkpt>
      <trkpt lat="47.49223" lon="6.75645">
        <ele>336</ele>
        <time>2016-02-07T08:41:38.000Z</time>
      </trkpt>
      <trkpt lat="47.49224" lon="6.75639">
        <ele>336</ele>
        <time>2016-02-07T08:41:39.000Z</time>
      </trkpt>
      <trkpt lat="47.49226" lon="6.75633">
        <ele>337</ele>
        <time>2016-02-07T08:41:40.000Z</time>
      </trkpt>
      <trkpt lat="47.49228" lon="6.75627">
        <ele>337</ele>
        <time>2016-02-07T08:41:41.000Z</time>
      </trkpt>
      <trkpt lat="47.4923" lon="6.75621">
        <ele>337</ele>
        <time>2016-02-07T08:41:42.000Z</time>
      </trkpt>
      <trkpt lat="47.49232" lon="6.75614">
        <ele>337</ele>
        <time>2016-02-07T08:41:43.000Z</time>
      </trkpt>
      <trkpt lat="47.49234" lon="6.75607">
        <ele>337</ele>
        <time>2016-02-07T08:41:44.000Z</time>
      </trkpt>
      <trkpt lat="47.49236" lon="6.75601">
        <ele>337</ele>
        <time>2016-02-07T08:41:45.000Z</time>
      </trkpt>
      <trkpt lat="47.49238" lon="6.75594">
        <ele>336</ele>
        <time>2016-02-07T08:41:46.000Z</time>
      </trkpt>
      <trkpt lat="47.4924" lon="6.75587">
        <ele>335</ele>
        <time>2016-02-07T08:41:47.000Z</time>
      </trkpt>
      <trkpt lat="47.49242" lon="6.7558">
        <ele>337</ele>
        <time>2016-02-07T08:41:48.000Z</time>
      </trkpt>
      <trkpt lat="47.49244" lon="6.75573">
        <ele>338</ele>
        <time>2016-02-07T08:41:49.000Z</time>
      </trkpt>
      <trkpt lat="47.49246" lon="6.75566">
        <ele>340</ele>
        <time>2016-02-07T08:41:50.000Z</time>
      </trkpt>
      <trkpt lat="47.49248" lon="6.75559">
        <ele>341</ele>
        <time>2016-02-07T08:41:51.000Z</time>
      </trkpt>
      <trkpt lat="47.4925" lon="6.75552">
        <ele>342</ele>
        <time>2016-02-07T08:41:52.000Z</time>
      </trkpt>
      <trkpt lat="47.49252" lon="6.75545">
        <ele>331</ele>
        <time>2016-02-07T08:41:53.000Z</time>
      </trkpt>
      <trkpt lat="47.49253" lon="6.75538">
        <ele>332</ele>
        <time>2016-02-07T08:41:54.000Z</time>
      </trkpt>
      <trkpt lat="47.49254" lon="6.75532">
        <ele>332</ele>
        <time>2016-02-07T08:41:55.000Z</time>
      </trkpt>
      <trkpt lat="47.49255" lon="6.75527">
        <ele>333</ele>
        <time>2016-02-07T08:41:56.000Z</time>
      </trkpt>
      <trkpt lat="47.49256" lon="6.75522">
        <ele>333</ele>
        <time>2016-02-07T08:41:57.000Z</time>
      </trkpt>
      <trkpt lat="47.49257" lon="6.75517">
        <ele>334</ele>
        <time>2016-02-07T08:41:58.000Z</time>
      </trkpt>
      <trkpt lat="47.49257" lon="6.75513">
        <ele>335</ele>
        <time>2016-02-07T08:41:59.000Z</time>
      </trkpt>
      <trkpt lat="47.49258" lon="6.75508">
        <ele>335</ele>
        <time>2016-02-07T08:42:00.000Z</time>
      </trkpt>
      <trkpt lat="47.49259" lon="6.75504">
        <ele>336</ele>
        <time>2016-02-07T08:42:01.000Z</time>
      </trkpt>
      <trkpt lat="47.4926" lon="6.75499">
        <ele>338</ele>
        <time>2016-02-07T08:42:02.000Z</time>
      </trkpt>
      <trkpt lat="47.49261" lon="6.75495">
        <ele>337</ele>
        <time>2016-02-07T08:42:03.000Z</time>
      </trkpt>
      <trkpt lat="47.49261" lon="6.75489">
        <ele>337</ele>
        <time>2016-02-07T08:42:04.000Z</time>
      </trkpt>
      <trkpt lat="47.49261" lon="6.75484">
        <ele>337</ele>
        <time>2016-02-07T08:42:05.000Z</time>
      </trkpt>
      <trkpt lat="47.49261" lon="6.75479">
        <ele>337</ele>
        <time>2016-02-07T08:42:06.000Z</time>
      </trkpt>
      <trkpt lat="47.49261" lon="6.75473">
        <ele>337</ele>
        <time>2016-02-07T08:42:07.000Z</time>
      </trkpt>
      <trkpt lat="47.49261" lon="6.75468">
        <ele>337</ele>
        <time>2016-02-07T08:42:08.000Z</time>
      </trkpt>
      <trkpt lat="47.49261" lon="6.75463">
        <ele>337</ele>
        <time>2016-02-07T08:42:09.000Z</time>
      </trkpt>
      <trkpt lat="47.49261" lon="6.75458">
        <ele>337</ele>
        <time>2016-02-07T08:42:10.000Z</time>
      </trkpt>
      <trkpt lat="47.4926" lon="6.75454">
        <ele>337</ele>
        <time>2016-02-07T08:42:11.000Z</time>
      </trkpt>
      <trkpt lat="47.4926" lon="6.75449">
        <ele>337</ele>
        <time>2016-02-07T08:42:12.000Z</time>
      </trkpt>
      <trkpt lat="47.49261" lon="6.75445">
        <ele>338</ele>
        <time>2016-02-07T08:42:13.000Z</time>
      </trkpt>
      <trkpt lat="47.49261" lon="6.75441">
        <ele>338</ele>
        <time>2016-02-07T08:42:14.000Z</time>
      </trkpt>
      <trkpt lat="47.49262" lon="6.75436">
        <ele>339</ele>
        <time>2016-02-07T08:42:15.000Z</time>
      </trkpt>
      <trkpt lat="47.49263" lon="6.75432">
        <ele>339</ele>
        <time>2016-02-07T08:42:16.000Z</time>
      </trkpt>
      <trkpt lat="47.49264" lon="6.75427">
        <ele>339</ele>
        <time>2016-02-07T08:42:17.000Z</time>
      </trkpt>
      <trkpt lat="47.49265" lon="6.75423">
        <ele>340</ele>
        <time>2016-02-07T08:42:18.000Z</time>
      </trkpt>
      <trkpt lat="47.49265" lon="6.7542">
        <ele>340</ele>
        <time>2016-02-07T08:42:19.000Z</time>
      </trkpt>
      <trkpt lat="47.49266" lon="6.75416">
        <ele>341</ele>
        <time>2016-02-07T08:42:20.000Z</time>
      </trkpt>
      <trkpt lat="47.49267" lon="6.75413">
        <ele>341</ele>
        <time>2016-02-07T08:42:21.000Z</time>
      </trkpt>
      <trkpt lat="47.49267" lon="6.75409">
        <ele>341</ele>
        <time>2016-02-07T08:42:22.000Z</time>
      </trkpt>
      <trkpt lat="47.49268" lon="6.75405">
        <ele>341</ele>
        <time>2016-02-07T08:42:23.000Z</time>
      </trkpt>
      <trkpt lat="47.49269" lon="6.754">
        <ele>340</ele>
        <time>2016-02-07T08:42:24.000Z</time>
      </trkpt>
      <trkpt lat="47.49269" lon="6.75396">
        <ele>340</ele>
        <time>2016-02-07T08:42:25.000Z</time>
      </trkpt>
      <trkpt lat="47.4927" lon="6.75392">
        <ele>340</ele>
        <time>2016-02-07T08:42:26.000Z</time>
      </trkpt>
      <trkpt lat="47.49272" lon="6.75387">
        <ele>340</ele>
        <time>2016-02-07T08:42:27.000Z</time>
      </trkpt>
      <trkpt lat="47.49274" lon="6.75382">
        <ele>340</ele>
        <time>2016-02-07T08:42:28.000Z</time>
      </trkpt>
      <trkpt lat="47.49276" lon="6.75377">
        <ele>340</ele>
        <time>2016-02-07T08:42:29.000Z</time>
      </trkpt>
      <trkpt lat="47.49278" lon="6.75371">
        <ele>340</ele>
        <time>2016-02-07T08:42:30.000Z</time>
      </trkpt>
      <trkpt lat="47.4928" lon="6.75366">
        <ele>340</ele>
        <time>2016-02-07T08:42:31.000Z</time>
      </trkpt>
      <trkpt lat="47.49282" lon="6.75362">
        <ele>339</ele>
        <time>2016-02-07T08:42:32.000Z</time>
      </trkpt>
      <trkpt lat="47.49283" lon="6.75356">
        <ele>339</ele>
        <time>2016-02-07T08:42:33.000Z</time>
      </trkpt>
      <trkpt lat="47.49285" lon="6.75351">
        <ele>339</ele>
        <time>2016-02-07T08:42:34.000Z</time>
      </trkpt>
      <trkpt lat="47.49286" lon="6.75345">
        <ele>339</ele>
        <time>2016-02-07T08:42:35.000Z</time>
      </trkpt>
      <trkpt lat="47.49287" lon="6.7534">
        <ele>339</ele>
        <time>2016-02-07T08:42:36.000Z</time>
      </trkpt>
      <trkpt lat="47.49288" lon="6.75335">
        <ele>339</ele>
        <time>2016-02-07T08:42:37.000Z</time>
      </trkpt>
      <trkpt lat="47.49288" lon="6.75331">
        <ele>340</ele>
        <time>2016-02-07T08:42:38.000Z</time>
      </trkpt>
      <trkpt lat="47.49289" lon="6.75327">
        <ele>340</ele>
        <time>2016-02-07T08:42:39.000Z</time>
      </trkpt>
      <trkpt lat="47.49289" lon="6.75323">
        <ele>340</ele>
        <time>2016-02-07T08:42:40.000Z</time>
      </trkpt>
      <trkpt lat="47.4929" lon="6.75318">
        <ele>340</ele>
        <time>2016-02-07T08:42:41.000Z</time>
      </trkpt>
      <trkpt lat="47.49291" lon="6.75314">
        <ele>340</ele>
        <time>2016-02-07T08:42:42.000Z</time>
      </trkpt>
      <trkpt lat="47.49291" lon="6.75311">
        <ele>340</ele>
        <time>2016-02-07T08:42:43.000Z</time>
      </trkpt>
      <trkpt lat="47.49291" lon="6.75307">
        <ele>340</ele>
        <time>2016-02-07T08:42:44.000Z</time>
      </trkpt>
      <trkpt lat="47.49292" lon="6.75304">
        <ele>340</ele>
        <time>2016-02-07T08:42:45.000Z</time>
      </trkpt>
      <trkpt lat="47.49292" lon="6.753">
        <ele>340</ele>
        <time>2016-02-07T08:42:46.000Z</time>
      </trkpt>
      <trkpt lat="47.49292" lon="6.75294">
        <ele>340</ele>
        <time>2016-02-07T08:42:48.000Z</time>
      </trkpt>
      <trkpt lat="47.49293" lon="6.75291">
        <ele>340</ele>
        <time>2016-02-07T08:42:49.000Z</time>
      </trkpt>
      <trkpt lat="47.49293" lon="6.75284">
        <ele>340</ele>
        <time>2016-02-07T08:42:51.000Z</time>
      </trkpt>
      <trkpt lat="47.49293" lon="6.75281">
        <ele>340</ele>
        <time>2016-02-07T08:42:52.000Z</time>
      </trkpt>
      <trkpt lat="47.49293" lon="6.75277">
        <ele>340</ele>
        <time>2016-02-07T08:42:53.000Z</time>
      </trkpt>
      <trkpt lat="47.49294" lon="6.75273">
        <ele>340</ele>
        <time>2016-02-07T08:42:54.000Z</time>
      </trkpt>
      <trkpt lat="47.49294" lon="6.75269">
        <ele>340</ele>
        <time>2016-02-07T08:42:55.000Z</time>
      </trkpt>
      <trkpt lat="47.49294" lon="6.75265">
        <ele>340</ele>
        <time>2016-02-07T08:42:56.000Z</time>
      </trkpt>
      <trkpt lat="47.49294" lon="6.75261">
        <ele>340</ele>
        <time>2016-02-07T08:42:57.000Z</time>
      </trkpt>
      <trkpt lat="47.49293" lon="6.75257">
        <ele>340</ele>
        <time>2016-02-07T08:42:58.000Z</time>
      </trkpt>
      <trkpt lat="47.49293" lon="6.75252">
        <ele>340</ele>
        <time>2016-02-07T08:42:59.000Z</time>
      </trkpt>
      <trkpt lat="47.49293" lon="6.75248">
        <ele>342</ele>
        <time>2016-02-07T08:43:00.000Z</time>
      </trkpt>
      <trkpt lat="47.49293" lon="6.75244">
        <ele>342</ele>
        <time>2016-02-07T08:43:01.000Z</time>
      </trkpt>
      <trkpt lat="47.49293" lon="6.7524">
        <ele>342</ele>
        <time>2016-02-07T08:43:02.000Z</time>
      </trkpt>
      <trkpt lat="47.49293" lon="6.75236">
        <ele>342</ele>
        <time>2016-02-07T08:43:03.000Z</time>
      </trkpt>
      <trkpt lat="47.49293" lon="6.75232">
        <ele>342</ele>
        <time>2016-02-07T08:43:04.000Z</time>
      </trkpt>
      <trkpt lat="47.49292" lon="6.75228">
        <ele>342</ele>
        <time>2016-02-07T08:43:05.000Z</time>
      </trkpt>
      <trkpt lat="47.49292" lon="6.75224">
        <ele>343</ele>
        <time>2016-02-07T08:43:06.000Z</time>
      </trkpt>
      <trkpt lat="47.49291" lon="6.7522">
        <ele>343</ele>
        <time>2016-02-07T08:43:07.000Z</time>
      </trkpt>
      <trkpt lat="47.49291" lon="6.75217">
        <ele>343</ele>
        <time>2016-02-07T08:43:08.000Z</time>
      </trkpt>
      <trkpt lat="47.4929" lon="6.75211">
        <ele>343</ele>
        <time>2016-02-07T08:43:10.000Z</time>
      </trkpt>
      <trkpt lat="47.4929" lon="6.75207">
        <ele>343</ele>
        <time>2016-02-07T08:43:11.000Z</time>
      </trkpt>
      <trkpt lat="47.49289" lon="6.75204">
        <ele>343</ele>
        <time>2016-02-07T08:43:12.000Z</time>
      </trkpt>
      <trkpt lat="47.49289" lon="6.752">
        <ele>344</ele>
        <time>2016-02-07T08:43:13.000Z</time>
      </trkpt>
      <trkpt lat="47.49288" lon="6.75196">
        <ele>344</ele>
        <time>2016-02-07T08:43:14.000Z</time>
      </trkpt>
      <trkpt lat="47.49289" lon="6.75192">
        <ele>344</ele>
        <time>2016-02-07T08:43:15.000Z</time>
      </trkpt>
      <trkpt lat="47.49289" lon="6.75187">
        <ele>344</ele>
        <time>2016-02-07T08:43:16.000Z</time>
      </trkpt>
      <trkpt lat="47.4929" lon="6.75183">
        <ele>344</ele>
        <time>2016-02-07T08:43:17.000Z</time>
      </trkpt>
      <trkpt lat="47.49291" lon="6.75178">
        <ele>344</ele>
        <time>2016-02-07T08:43:18.000Z</time>
      </trkpt>
      <trkpt lat="47.49292" lon="6.75173">
        <ele>344</ele>
        <time>2016-02-07T08:43:19.000Z</time>
      </trkpt>
      <trkpt lat="47.49292" lon="6.75168">
        <ele>344</ele>
        <time>2016-02-07T08:43:20.000Z</time>
      </trkpt>
      <trkpt lat="47.49292" lon="6.75164">
        <ele>346</ele>
        <time>2016-02-07T08:43:21.000Z</time>
      </trkpt>
      <trkpt lat="47.49292" lon="6.7516">
        <ele>346</ele>
        <time>2016-02-07T08:43:22.000Z</time>
      </trkpt>
      <trkpt lat="47.49291" lon="6.75157">
        <ele>347</ele>
        <time>2016-02-07T08:43:23.000Z</time>
      </trkpt>
      <trkpt lat="47.4929" lon="6.75154">
        <ele>347</ele>
        <time>2016-02-07T08:43:24.000Z</time>
      </trkpt>
      <trkpt lat="47.4929" lon="6.7515">
        <ele>347</ele>
        <time>2016-02-07T08:43:25.000Z</time>
      </trkpt>
      <trkpt lat="47.49289" lon="6.75147">
        <ele>347</ele>
        <time>2016-02-07T08:43:26.000Z</time>
      </trkpt>
      <trkpt lat="47.49288" lon="6.75144">
        <ele>347</ele>
        <time>2016-02-07T08:43:27.000Z</time>
      </trkpt>
      <trkpt lat="47.49288" lon="6.7514">
        <ele>347</ele>
        <time>2016-02-07T08:43:28.000Z</time>
      </trkpt>
      <trkpt lat="47.49288" lon="6.75137">
        <ele>347</ele>
        <time>2016-02-07T08:43:29.000Z</time>
      </trkpt>
      <trkpt lat="47.49288" lon="6.75133">
        <ele>347</ele>
        <time>2016-02-07T08:43:30.000Z</time>
      </trkpt>
      <trkpt lat="47.49288" lon="6.75129">
        <ele>347</ele>
        <time>2016-02-07T08:43:31.000Z</time>
      </trkpt>
      <trkpt lat="47.49289" lon="6.75125">
        <ele>347</ele>
        <time>2016-02-07T08:43:32.000Z</time>
      </trkpt>
      <trkpt lat="47.49289" lon="6.7512">
        <ele>347</ele>
        <time>2016-02-07T08:43:33.000Z</time>
      </trkpt>
      <trkpt lat="47.4929" lon="6.75115">
        <ele>347</ele>
        <time>2016-02-07T08:43:34.000Z</time>
      </trkpt>
      <trkpt lat="47.49291" lon="6.7511">
        <ele>347</ele>
        <time>2016-02-07T08:43:35.000Z</time>
      </trkpt>
      <trkpt lat="47.49293" lon="6.75105">
        <ele>347</ele>
        <time>2016-02-07T08:43:36.000Z</time>
      </trkpt>
      <trkpt lat="47.49295" lon="6.751">
        <ele>347</ele>
        <time>2016-02-07T08:43:37.000Z</time>
      </trkpt>
      <trkpt lat="47.49297" lon="6.75095">
        <ele>347</ele>
        <time>2016-02-07T08:43:38.000Z</time>
      </trkpt>
      <trkpt lat="47.49299" lon="6.7509">
        <ele>346</ele>
        <time>2016-02-07T08:43:39.000Z</time>
      </trkpt>
      <trkpt lat="47.49301" lon="6.75086">
        <ele>346</ele>
        <time>2016-02-07T08:43:40.000Z</time>
      </trkpt>
      <trkpt lat="47.49303" lon="6.75082">
        <ele>348</ele>
        <time>2016-02-07T08:43:41.000Z</time>
      </trkpt>
      <trkpt lat="47.49305" lon="6.75079">
        <ele>347</ele>
        <time>2016-02-07T08:43:42.000Z</time>
      </trkpt>
      <trkpt lat="47.49307" lon="6.75076">
        <ele>347</ele>
        <time>2016-02-07T08:43:43.000Z</time>
      </trkpt>
      <trkpt lat="47.49309" lon="6.75073">
        <ele>347</ele>
        <time>2016-02-07T08:43:44.000Z</time>
      </trkpt>
      <trkpt lat="47.49311" lon="6.75069">
        <ele>347</ele>
        <time>2016-02-07T08:43:45.000Z</time>
      </trkpt>
      <trkpt lat="47.49315" lon="6.75064">
        <ele>347</ele>
        <time>2016-02-07T08:43:46.000Z</time>
      </trkpt>
      <trkpt lat="47.49318" lon="6.75058">
        <ele>347</ele>
        <time>2016-02-07T08:43:47.000Z</time>
      </trkpt>
      <trkpt lat="47.49322" lon="6.75053">
        <ele>347</ele>
        <time>2016-02-07T08:43:48.000Z</time>
      </trkpt>
      <trkpt lat="47.49325" lon="6.75047">
        <ele>347</ele>
        <time>2016-02-07T08:43:49.000Z</time>
      </trkpt>
      <trkpt lat="47.49327" lon="6.75042">
        <ele>347</ele>
        <time>2016-02-07T08:43:50.000Z</time>
      </trkpt>
      <trkpt lat="47.49329" lon="6.75037">
        <ele>347</ele>
        <time>2016-02-07T08:43:51.000Z</time>
      </trkpt>
      <trkpt lat="47.4933" lon="6.75033">
        <ele>347</ele>
        <time>2016-02-07T08:43:52.000Z</time>
      </trkpt>
      <trkpt lat="47.49332" lon="6.75029">
        <ele>347</ele>
        <time>2016-02-07T08:43:53.000Z</time>
      </trkpt>
      <trkpt lat="47.49332" lon="6.75025">
        <ele>347</ele>
        <time>2016-02-07T08:43:54.000Z</time>
      </trkpt>
      <trkpt lat="47.49333" lon="6.75022">
        <ele>347</ele>
        <time>2016-02-07T08:43:55.000Z</time>
      </trkpt>
      <trkpt lat="47.49333" lon="6.75016">
        <ele>346</ele>
        <time>2016-02-07T08:43:57.000Z</time>
      </trkpt>
      <trkpt lat="47.49333" lon="6.75013">
        <ele>346</ele>
        <time>2016-02-07T08:43:58.000Z</time>
      </trkpt>
      <trkpt lat="47.49333" lon="6.75007">
        <ele>345</ele>
        <time>2016-02-07T08:44:00.000Z</time>
      </trkpt>
      <trkpt lat="47.49332" lon="6.75005">
        <ele>344</ele>
        <time>2016-02-07T08:44:01.000Z</time>
      </trkpt>
      <trkpt lat="47.49331" lon="6.74999">
        <ele>344</ele>
        <time>2016-02-07T08:44:04.000Z</time>
      </trkpt>
      <trkpt lat="47.4933" lon="6.74997">
        <ele>345</ele>
        <time>2016-02-07T08:44:05.000Z</time>
      </trkpt>
      <trkpt lat="47.49329" lon="6.74992">
        <ele>347</ele>
        <time>2016-02-07T08:44:07.000Z</time>
      </trkpt>
      <trkpt lat="47.49329" lon="6.74989">
        <ele>348</ele>
        <time>2016-02-07T08:44:08.000Z</time>
      </trkpt>
      <trkpt lat="47.49329" lon="6.74985">
        <ele>349</ele>
        <time>2016-02-07T08:44:09.000Z</time>
      </trkpt>
      <trkpt lat="47.49329" lon="6.74981">
        <ele>350</ele>
        <time>2016-02-07T08:44:10.000Z</time>
      </trkpt>
      <trkpt lat="47.49329" lon="6.74977">
        <ele>350</ele>
        <time>2016-02-07T08:44:11.000Z</time>
      </trkpt>
      <trkpt lat="47.49329" lon="6.74973">
        <ele>351</ele>
        <time>2016-02-07T08:44:12.000Z</time>
      </trkpt>
      <trkpt lat="47.49329" lon="6.7497">
        <ele>351</ele>
        <time>2016-02-07T08:44:13.000Z</time>
      </trkpt>
      <trkpt lat="47.49329" lon="6.74966">
        <ele>352</ele>
        <time>2016-02-07T08:44:14.000Z</time>
      </trkpt>
      <trkpt lat="47.49329" lon="6.74961">
        <ele>352</ele>
        <time>2016-02-07T08:44:16.000Z</time>
      </trkpt>
      <trkpt lat="47.49328" lon="6.74959">
        <ele>352</ele>
        <time>2016-02-07T08:44:17.000Z</time>
      </trkpt>
      <trkpt lat="47.49328" lon="6.74953">
        <ele>352</ele>
        <time>2016-02-07T08:44:20.000Z</time>
      </trkpt>
      <trkpt lat="47.49328" lon="6.74951">
        <ele>352</ele>
        <time>2016-02-07T08:44:21.000Z</time>
      </trkpt>
      <trkpt lat="47.49328" lon="6.74946">
        <ele>352</ele>
        <time>2016-02-07T08:44:23.000Z</time>
      </trkpt>
      <trkpt lat="47.49328" lon="6.74944">
        <ele>352</ele>
        <time>2016-02-07T08:44:24.000Z</time>
      </trkpt>
      <trkpt lat="47.49328" lon="6.74938">
        <ele>352</ele>
        <time>2016-02-07T08:44:26.000Z</time>
      </trkpt>
      <trkpt lat="47.49328" lon="6.74934">
        <ele>352</ele>
        <time>2016-02-07T08:44:27.000Z</time>
      </trkpt>
      <trkpt lat="47.49327" lon="6.74928">
        <ele>351</ele>
        <time>2016-02-07T08:44:29.000Z</time>
      </trkpt>
      <trkpt lat="47.49326" lon="6.74925">
        <ele>351</ele>
        <time>2016-02-07T08:44:30.000Z</time>
      </trkpt>
      <trkpt lat="47.49327" lon="6.7492">
        <ele>350</ele>
        <time>2016-02-07T08:44:32.000Z</time>
      </trkpt>
      <trkpt lat="47.49329" lon="6.74918">
        <ele>349</ele>
        <time>2016-02-07T08:44:33.000Z</time>
      </trkpt>
      <trkpt lat="47.49332" lon="6.74913">
        <ele>350</ele>
        <time>2016-02-07T08:44:35.000Z</time>
      </trkpt>
      <trkpt lat="47.49334" lon="6.7491">
        <ele>346</ele>
        <time>2016-02-07T08:44:36.000Z</time>
      </trkpt>
      <trkpt lat="47.49335" lon="6.74907">
        <ele>346</ele>
        <time>2016-02-07T08:44:37.000Z</time>
      </trkpt>
      <trkpt lat="47.49337" lon="6.74904">
        <ele>345</ele>
        <time>2016-02-07T08:44:38.000Z</time>
      </trkpt>
      <trkpt lat="47.49339" lon="6.74901">
        <ele>345</ele>
        <time>2016-02-07T08:44:39.000Z</time>
      </trkpt>
      <trkpt lat="47.4934" lon="6.74898">
        <ele>344</ele>
        <time>2016-02-07T08:44:40.000Z</time>
      </trkpt>
      <trkpt lat="47.49343" lon="6.74895">
        <ele>344</ele>
        <time>2016-02-07T08:44:41.000Z</time>
      </trkpt>
      <trkpt lat="47.49346" lon="6.74892">
        <ele>344</ele>
        <time>2016-02-07T08:44:42.000Z</time>
      </trkpt>
      <trkpt lat="47.49348" lon="6.74889">
        <ele>343</ele>
        <time>2016-02-07T08:44:43.000Z</time>
      </trkpt>
      <trkpt lat="47.4935" lon="6.74885">
        <ele>343</ele>
        <time>2016-02-07T08:44:44.000Z</time>
      </trkpt>
      <trkpt lat="47.49352" lon="6.74883">
        <ele>343</ele>
        <time>2016-02-07T08:44:45.000Z</time>
      </trkpt>
      <trkpt lat="47.49353" lon="6.7488">
        <ele>343</ele>
        <time>2016-02-07T08:44:46.000Z</time>
      </trkpt>
      <trkpt lat="47.49355" lon="6.74877">
        <ele>343</ele>
        <time>2016-02-07T08:44:47.000Z</time>
      </trkpt>
      <trkpt lat="47.49356" lon="6.74874">
        <ele>343</ele>
        <time>2016-02-07T08:44:48.000Z</time>
      </trkpt>
      <trkpt lat="47.49357" lon="6.74871">
        <ele>343</ele>
        <time>2016-02-07T08:44:49.000Z</time>
      </trkpt>
      <trkpt lat="47.49358" lon="6.74867">
        <ele>343</ele>
        <time>2016-02-07T08:44:50.000Z</time>
      </trkpt>
      <trkpt lat="47.4936" lon="6.74863">
        <ele>343</ele>
        <time>2016-02-07T08:44:51.000Z</time>
      </trkpt>
      <trkpt lat="47.49362" lon="6.74858">
        <ele>342</ele>
        <time>2016-02-07T08:44:52.000Z</time>
      </trkpt>
      <trkpt lat="47.49364" lon="6.74854">
        <ele>342</ele>
        <time>2016-02-07T08:44:53.000Z</time>
      </trkpt>
      <trkpt lat="47.49365" lon="6.74849">
        <ele>342</ele>
        <time>2016-02-07T08:44:54.000Z</time>
      </trkpt>
      <trkpt lat="47.49367" lon="6.74845">
        <ele>342</ele>
        <time>2016-02-07T08:44:55.000Z</time>
      </trkpt>
      <trkpt lat="47.49368" lon="6.7484">
        <ele>342</ele>
        <time>2016-02-07T08:44:56.000Z</time>
      </trkpt>
      <trkpt lat="47.4937" lon="6.74835">
        <ele>342</ele>
        <time>2016-02-07T08:44:57.000Z</time>
      </trkpt>
      <trkpt lat="47.49372" lon="6.7483">
        <ele>344</ele>
        <time>2016-02-07T08:44:58.000Z</time>
      </trkpt>
      <trkpt lat="47.49373" lon="6.74825">
        <ele>344</ele>
        <time>2016-02-07T08:44:59.000Z</time>
      </trkpt>
      <trkpt lat="47.49375" lon="6.74821">
        <ele>343</ele>
        <time>2016-02-07T08:45:00.000Z</time>
      </trkpt>
      <trkpt lat="47.49377" lon="6.74817">
        <ele>343</ele>
        <time>2016-02-07T08:45:01.000Z</time>
      </trkpt>
      <trkpt lat="47.49378" lon="6.74813">
        <ele>343</ele>
        <time>2016-02-07T08:45:02.000Z</time>
      </trkpt>
      <trkpt lat="47.4938" lon="6.74809">
        <ele>343</ele>
        <time>2016-02-07T08:45:03.000Z</time>
      </trkpt>
      <trkpt lat="47.49381" lon="6.74804">
        <ele>343</ele>
        <time>2016-02-07T08:45:04.000Z</time>
      </trkpt>
      <trkpt lat="47.49382" lon="6.748">
        <ele>343</ele>
        <time>2016-02-07T08:45:05.000Z</time>
      </trkpt>
      <trkpt lat="47.49383" lon="6.74796">
        <ele>343</ele>
        <time>2016-02-07T08:45:06.000Z</time>
      </trkpt>
      <trkpt lat="47.49384" lon="6.74791">
        <ele>344</ele>
        <time>2016-02-07T08:45:07.000Z</time>
      </trkpt>
      <trkpt lat="47.49385" lon="6.74786">
        <ele>344</ele>
        <time>2016-02-07T08:45:08.000Z</time>
      </trkpt>
      <trkpt lat="47.49387" lon="6.7478">
        <ele>344</ele>
        <time>2016-02-07T08:45:09.000Z</time>
      </trkpt>
      <trkpt lat="47.49388" lon="6.74774">
        <ele>344</ele>
        <time>2016-02-07T08:45:10.000Z</time>
      </trkpt>
      <trkpt lat="47.4939" lon="6.74769">
        <ele>343</ele>
        <time>2016-02-07T08:45:11.000Z</time>
      </trkpt>
      <trkpt lat="47.49391" lon="6.74763">
        <ele>343</ele>
        <time>2016-02-07T08:45:12.000Z</time>
      </trkpt>
      <trkpt lat="47.49392" lon="6.74759">
        <ele>343</ele>
        <time>2016-02-07T08:45:13.000Z</time>
      </trkpt>
      <trkpt lat="47.49393" lon="6.74754">
        <ele>343</ele>
        <time>2016-02-07T08:45:14.000Z</time>
      </trkpt>
      <trkpt lat="47.49393" lon="6.7475">
        <ele>345</ele>
        <time>2016-02-07T08:45:15.000Z</time>
      </trkpt>
      <trkpt lat="47.49394" lon="6.74745">
        <ele>345</ele>
        <time>2016-02-07T08:45:16.000Z</time>
      </trkpt>
      <trkpt lat="47.49393" lon="6.7474">
        <ele>346</ele>
        <time>2016-02-07T08:45:17.000Z</time>
      </trkpt>
      <trkpt lat="47.49393" lon="6.74735">
        <ele>346</ele>
        <time>2016-02-07T08:45:18.000Z</time>
      </trkpt>
      <trkpt lat="47.49393" lon="6.74731">
        <ele>346</ele>
        <time>2016-02-07T08:45:19.000Z</time>
      </trkpt>
      <trkpt lat="47.49392" lon="6.74727">
        <ele>346</ele>
        <time>2016-02-07T08:45:20.000Z</time>
      </trkpt>
      <trkpt lat="47.49392" lon="6.74722">
        <ele>346</ele>
        <time>2016-02-07T08:45:21.000Z</time>
      </trkpt>
      <trkpt lat="47.49392" lon="6.74717">
        <ele>347</ele>
        <time>2016-02-07T08:45:22.000Z</time>
      </trkpt>
      <trkpt lat="47.49392" lon="6.74713">
        <ele>347</ele>
        <time>2016-02-07T08:45:23.000Z</time>
      </trkpt>
      <trkpt lat="47.49393" lon="6.74709">
        <ele>347</ele>
        <time>2016-02-07T08:45:24.000Z</time>
      </trkpt>
      <trkpt lat="47.49393" lon="6.74705">
        <ele>347</ele>
        <time>2016-02-07T08:45:25.000Z</time>
      </trkpt>
      <trkpt lat="47.49393" lon="6.74702">
        <ele>347</ele>
        <time>2016-02-07T08:45:26.000Z</time>
      </trkpt>
      <trkpt lat="47.49393" lon="6.74699">
        <ele>347</ele>
        <time>2016-02-07T08:45:27.000Z</time>
      </trkpt>
      <trkpt lat="47.49393" lon="6.74695">
        <ele>347</ele>
        <time>2016-02-07T08:45:28.000Z</time>
      </trkpt>
      <trkpt lat="47.49393" lon="6.74691">
        <ele>347</ele>
        <time>2016-02-07T08:45:29.000Z</time>
      </trkpt>
      <trkpt lat="47.49393" lon="6.74687">
        <ele>346</ele>
        <time>2016-02-07T08:45:30.000Z</time>
      </trkpt>
      <trkpt lat="47.49393" lon="6.74683">
        <ele>346</ele>
        <time>2016-02-07T08:45:31.000Z</time>
      </trkpt>
      <trkpt lat="47.49393" lon="6.74679">
        <ele>346</ele>
        <time>2016-02-07T08:45:32.000Z</time>
      </trkpt>
      <trkpt lat="47.49393" lon="6.74676">
        <ele>346</ele>
        <time>2016-02-07T08:45:33.000Z</time>
      </trkpt>
      <trkpt lat="47.49393" lon="6.74672">
        <ele>346</ele>
        <time>2016-02-07T08:45:34.000Z</time>
      </trkpt>
      <trkpt lat="47.49392" lon="6.74668">
        <ele>346</ele>
        <time>2016-02-07T08:45:35.000Z</time>
      </trkpt>
      <trkpt lat="47.49392" lon="6.74665">
        <ele>347</ele>
        <time>2016-02-07T08:45:36.000Z</time>
      </trkpt>
      <trkpt lat="47.49392" lon="6.74662">
        <ele>347</ele>
        <time>2016-02-07T08:45:37.000Z</time>
      </trkpt>
      <trkpt lat="47.49391" lon="6.74658">
        <ele>347</ele>
        <time>2016-02-07T08:45:38.000Z</time>
      </trkpt>
      <trkpt lat="47.49391" lon="6.74654">
        <ele>348</ele>
        <time>2016-02-07T08:45:39.000Z</time>
      </trkpt>
      <trkpt lat="47.49391" lon="6.7465">
        <ele>348</ele>
        <time>2016-02-07T08:45:40.000Z</time>
      </trkpt>
      <trkpt lat="47.4939" lon="6.74646">
        <ele>348</ele>
        <time>2016-02-07T08:45:41.000Z</time>
      </trkpt>
      <trkpt lat="47.4939" lon="6.74641">
        <ele>348</ele>
        <time>2016-02-07T08:45:42.000Z</time>
      </trkpt>
      <trkpt lat="47.4939" lon="6.74637">
        <ele>349</ele>
        <time>2016-02-07T08:45:43.000Z</time>
      </trkpt>
      <trkpt lat="47.4939" lon="6.74633">
        <ele>349</ele>
        <time>2016-02-07T08:45:44.000Z</time>
      </trkpt>
      <trkpt lat="47.4939" lon="6.74628">
        <ele>349</ele>
        <time>2016-02-07T08:45:45.000Z</time>
      </trkpt>
      <trkpt lat="47.49391" lon="6.74625">
        <ele>349</ele>
        <time>2016-02-07T08:45:46.000Z</time>
      </trkpt>
      <trkpt lat="47.49392" lon="6.74621">
        <ele>349</ele>
        <time>2016-02-07T08:45:47.000Z</time>
      </trkpt>
      <trkpt lat="47.49392" lon="6.74617">
        <ele>349</ele>
        <time>2016-02-07T08:45:48.000Z</time>
      </trkpt>
      <trkpt lat="47.49392" lon="6.74614">
        <ele>349</ele>
        <time>2016-02-07T08:45:49.000Z</time>
      </trkpt>
      <trkpt lat="47.49392" lon="6.7461">
        <ele>349</ele>
        <time>2016-02-07T08:45:50.000Z</time>
      </trkpt>
      <trkpt lat="47.49393" lon="6.74607">
        <ele>348</ele>
        <time>2016-02-07T08:45:51.000Z</time>
      </trkpt>
      <trkpt lat="47.49393" lon="6.74603">
        <ele>348</ele>
        <time>2016-02-07T08:45:52.000Z</time>
      </trkpt>
      <trkpt lat="47.49394" lon="6.74597">
        <ele>348</ele>
        <time>2016-02-07T08:45:54.000Z</time>
      </trkpt>
      <trkpt lat="47.49394" lon="6.74594">
        <ele>348</ele>
        <time>2016-02-07T08:45:55.000Z</time>
      </trkpt>
      <trkpt lat="47.49395" lon="6.7459">
        <ele>347</ele>
        <time>2016-02-07T08:45:56.000Z</time>
      </trkpt>
      <trkpt lat="47.49395" lon="6.74587">
        <ele>347</ele>
        <time>2016-02-07T08:45:57.000Z</time>
      </trkpt>
      <trkpt lat="47.49395" lon="6.74583">
        <ele>348</ele>
        <time>2016-02-07T08:45:58.000Z</time>
      </trkpt>
      <trkpt lat="47.49396" lon="6.74579">
        <ele>348</ele>
        <time>2016-02-07T08:45:59.000Z</time>
      </trkpt>
      <trkpt lat="47.49397" lon="6.74575">
        <ele>348</ele>
        <time>2016-02-07T08:46:00.000Z</time>
      </trkpt>
      <trkpt lat="47.49397" lon="6.74571">
        <ele>349</ele>
        <time>2016-02-07T08:46:01.000Z</time>
      </trkpt>
      <trkpt lat="47.49398" lon="6.74566">
        <ele>349</ele>
        <time>2016-02-07T08:46:02.000Z</time>
      </trkpt>
      <trkpt lat="47.49399" lon="6.74562">
        <ele>349</ele>
        <time>2016-02-07T08:46:03.000Z</time>
      </trkpt>
      <trkpt lat="47.49399" lon="6.74558">
        <ele>350</ele>
        <time>2016-02-07T08:46:04.000Z</time>
      </trkpt>
      <trkpt lat="47.49399" lon="6.74553">
        <ele>350</ele>
        <time>2016-02-07T08:46:05.000Z</time>
      </trkpt>
      <trkpt lat="47.49399" lon="6.74549">
        <ele>350</ele>
        <time>2016-02-07T08:46:06.000Z</time>
      </trkpt>
      <trkpt lat="47.494" lon="6.74544">
        <ele>350</ele>
        <time>2016-02-07T08:46:07.000Z</time>
      </trkpt>
      <trkpt lat="47.494" lon="6.74539">
        <ele>351</ele>
        <time>2016-02-07T08:46:08.000Z</time>
      </trkpt>
      <trkpt lat="47.494" lon="6.74534">
        <ele>351</ele>
        <time>2016-02-07T08:46:09.000Z</time>
      </trkpt>
      <trkpt lat="47.494" lon="6.74529">
        <ele>351</ele>
        <time>2016-02-07T08:46:10.000Z</time>
      </trkpt>
      <trkpt lat="47.494" lon="6.74524">
        <ele>351</ele>
        <time>2016-02-07T08:46:11.000Z</time>
      </trkpt>
      <trkpt lat="47.49399" lon="6.74519">
        <ele>351</ele>
        <time>2016-02-07T08:46:12.000Z</time>
      </trkpt>
      <trkpt lat="47.49399" lon="6.74515">
        <ele>351</ele>
        <time>2016-02-07T08:46:13.000Z</time>
      </trkpt>
      <trkpt lat="47.49398" lon="6.74511">
        <ele>350</ele>
        <time>2016-02-07T08:46:14.000Z</time>
      </trkpt>
      <trkpt lat="47.49398" lon="6.74506">
        <ele>350</ele>
        <time>2016-02-07T08:46:15.000Z</time>
      </trkpt>
      <trkpt lat="47.49398" lon="6.74501">
        <ele>350</ele>
        <time>2016-02-07T08:46:16.000Z</time>
      </trkpt>
      <trkpt lat="47.49398" lon="6.74496">
        <ele>351</ele>
        <time>2016-02-07T08:46:17.000Z</time>
      </trkpt>
      <trkpt lat="47.49399" lon="6.7449">
        <ele>351</ele>
        <time>2016-02-07T08:46:18.000Z</time>
      </trkpt>
      <trkpt lat="47.49399" lon="6.74484">
        <ele>352</ele>
        <time>2016-02-07T08:46:19.000Z</time>
      </trkpt>
      <trkpt lat="47.494" lon="6.74479">
        <ele>352</ele>
        <time>2016-02-07T08:46:20.000Z</time>
      </trkpt>
      <trkpt lat="47.494" lon="6.74474">
        <ele>352</ele>
        <time>2016-02-07T08:46:21.000Z</time>
      </trkpt>
      <trkpt lat="47.494" lon="6.7447">
        <ele>352</ele>
        <time>2016-02-07T08:46:22.000Z</time>
      </trkpt>
      <trkpt lat="47.494" lon="6.74465">
        <ele>352</ele>
        <time>2016-02-07T08:46:23.000Z</time>
      </trkpt>
      <trkpt lat="47.49401" lon="6.74462">
        <ele>352</ele>
        <time>2016-02-07T08:46:24.000Z</time>
      </trkpt>
      <trkpt lat="47.49401" lon="6.74458">
        <ele>352</ele>
        <time>2016-02-07T08:46:25.000Z</time>
      </trkpt>
      <trkpt lat="47.49401" lon="6.74454">
        <ele>352</ele>
        <time>2016-02-07T08:46:26.000Z</time>
      </trkpt>
      <trkpt lat="47.49401" lon="6.74451">
        <ele>352</ele>
        <time>2016-02-07T08:46:27.000Z</time>
      </trkpt>
      <trkpt lat="47.494" lon="6.74447">
        <ele>352</ele>
        <time>2016-02-07T08:46:28.000Z</time>
      </trkpt>
      <trkpt lat="47.494" lon="6.74443">
        <ele>352</ele>
        <time>2016-02-07T08:46:29.000Z</time>
      </trkpt>
      <trkpt lat="47.494" lon="6.74439">
        <ele>352</ele>
        <time>2016-02-07T08:46:30.000Z</time>
      </trkpt>
      <trkpt lat="47.494" lon="6.74435">
        <ele>352</ele>
        <time>2016-02-07T08:46:31.000Z</time>
      </trkpt>
      <trkpt lat="47.494" lon="6.74431">
        <ele>351</ele>
        <time>2016-02-07T08:46:32.000Z</time>
      </trkpt>
      <trkpt lat="47.494" lon="6.74427">
        <ele>351</ele>
        <time>2016-02-07T08:46:33.000Z</time>
      </trkpt>
      <trkpt lat="47.494" lon="6.74423">
        <ele>351</ele>
        <time>2016-02-07T08:46:34.000Z</time>
      </trkpt>
      <trkpt lat="47.49401" lon="6.7442">
        <ele>350</ele>
        <time>2016-02-07T08:46:35.000Z</time>
      </trkpt>
      <trkpt lat="47.49401" lon="6.74416">
        <ele>351</ele>
        <time>2016-02-07T08:46:36.000Z</time>
      </trkpt>
      <trkpt lat="47.49401" lon="6.74412">
        <ele>351</ele>
        <time>2016-02-07T08:46:37.000Z</time>
      </trkpt>
      <trkpt lat="47.49401" lon="6.74409">
        <ele>351</ele>
        <time>2016-02-07T08:46:38.000Z</time>
      </trkpt>
      <trkpt lat="47.49402" lon="6.74405">
        <ele>351</ele>
        <time>2016-02-07T08:46:39.000Z</time>
      </trkpt>
      <trkpt lat="47.49402" lon="6.74401">
        <ele>351</ele>
        <time>2016-02-07T08:46:40.000Z</time>
      </trkpt>
      <trkpt lat="47.49402" lon="6.74398">
        <ele>352</ele>
        <time>2016-02-07T08:46:41.000Z</time>
      </trkpt>
      <trkpt lat="47.49402" lon="6.74394">
        <ele>352</ele>
        <time>2016-02-07T08:46:42.000Z</time>
      </trkpt>
      <trkpt lat="47.49402" lon="6.74391">
        <ele>352</ele>
        <time>2016-02-07T08:46:43.000Z</time>
      </trkpt>
      <trkpt lat="47.49403" lon="6.74387">
        <ele>352</ele>
        <time>2016-02-07T08:46:44.000Z</time>
      </trkpt>
      <trkpt lat="47.49404" lon="6.74382">
        <ele>352</ele>
        <time>2016-02-07T08:46:45.000Z</time>
      </trkpt>
      <trkpt lat="47.49405" lon="6.74378">
        <ele>352</ele>
        <time>2016-02-07T08:46:46.000Z</time>
      </trkpt>
      <trkpt lat="47.49405" lon="6.74374">
        <ele>352</ele>
        <time>2016-02-07T08:46:47.000Z</time>
      </trkpt>
      <trkpt lat="47.49405" lon="6.7437">
        <ele>352</ele>
        <time>2016-02-07T08:46:48.000Z</time>
      </trkpt>
      <trkpt lat="47.49405" lon="6.74366">
        <ele>352</ele>
        <time>2016-02-07T08:46:49.000Z</time>
      </trkpt>
      <trkpt lat="47.49404" lon="6.74362">
        <ele>352</ele>
        <time>2016-02-07T08:46:50.000Z</time>
      </trkpt>
      <trkpt lat="47.49404" lon="6.74358">
        <ele>352</ele>
        <time>2016-02-07T08:46:51.000Z</time>
      </trkpt>
      <trkpt lat="47.49403" lon="6.74354">
        <ele>352</ele>
        <time>2016-02-07T08:46:52.000Z</time>
      </trkpt>
      <trkpt lat="47.49402" lon="6.7435">
        <ele>351</ele>
        <time>2016-02-07T08:46:53.000Z</time>
      </trkpt>
      <trkpt lat="47.49402" lon="6.74345">
        <ele>351</ele>
        <time>2016-02-07T08:46:54.000Z</time>
      </trkpt>
      <trkpt lat="47.49402" lon="6.74341">
        <ele>350</ele>
        <time>2016-02-07T08:46:55.000Z</time>
      </trkpt>
      <trkpt lat="47.49401" lon="6.74336">
        <ele>350</ele>
        <time>2016-02-07T08:46:56.000Z</time>
      </trkpt>
      <trkpt lat="47.49401" lon="6.74332">
        <ele>351</ele>
        <time>2016-02-07T08:46:57.000Z</time>
      </trkpt>
      <trkpt lat="47.494" lon="6.74328">
        <ele>351</ele>
        <time>2016-02-07T08:46:58.000Z</time>
      </trkpt>
      <trkpt lat="47.494" lon="6.74324">
        <ele>351</ele>
        <time>2016-02-07T08:46:59.000Z</time>
      </trkpt>
      <trkpt lat="47.494" lon="6.7432">
        <ele>352</ele>
        <time>2016-02-07T08:47:00.000Z</time>
      </trkpt>
      <trkpt lat="47.494" lon="6.74316">
        <ele>352</ele>
        <time>2016-02-07T08:47:01.000Z</time>
      </trkpt>
      <trkpt lat="47.494" lon="6.74312">
        <ele>352</ele>
        <time>2016-02-07T08:47:02.000Z</time>
      </trkpt>
      <trkpt lat="47.49401" lon="6.74308">
        <ele>353</ele>
        <time>2016-02-07T08:47:03.000Z</time>
      </trkpt>
      <trkpt lat="47.49401" lon="6.74305">
        <ele>353</ele>
        <time>2016-02-07T08:47:04.000Z</time>
      </trkpt>
      <trkpt lat="47.49401" lon="6.74301">
        <ele>353</ele>
        <time>2016-02-07T08:47:05.000Z</time>
      </trkpt>
      <trkpt lat="47.49402" lon="6.74298">
        <ele>353</ele>
        <time>2016-02-07T08:47:06.000Z</time>
      </trkpt>
      <trkpt lat="47.49402" lon="6.74294">
        <ele>353</ele>
        <time>2016-02-07T08:47:07.000Z</time>
      </trkpt>
      <trkpt lat="47.49403" lon="6.7429">
        <ele>353</ele>
        <time>2016-02-07T08:47:08.000Z</time>
      </trkpt>
      <trkpt lat="47.49404" lon="6.74286">
        <ele>353</ele>
        <time>2016-02-07T08:47:09.000Z</time>
      </trkpt>
      <trkpt lat="47.49404" lon="6.74281">
        <ele>352</ele>
        <time>2016-02-07T08:47:10.000Z</time>
      </trkpt>
      <trkpt lat="47.49405" lon="6.74276">
        <ele>352</ele>
        <time>2016-02-07T08:47:11.000Z</time>
      </trkpt>
      <trkpt lat="47.49405" lon="6.74271">
        <ele>351</ele>
        <time>2016-02-07T08:47:12.000Z</time>
      </trkpt>
      <trkpt lat="47.49407" lon="6.74265">
        <ele>350</ele>
        <time>2016-02-07T08:47:13.000Z</time>
      </trkpt>
      <trkpt lat="47.49408" lon="6.74259">
        <ele>349</ele>
        <time>2016-02-07T08:47:14.000Z</time>
      </trkpt>
      <trkpt lat="47.4941" lon="6.74254">
        <ele>347</ele>
        <time>2016-02-07T08:47:15.000Z</time>
      </trkpt>
      <trkpt lat="47.49411" lon="6.74249">
        <ele>347</ele>
        <time>2016-02-07T08:47:16.000Z</time>
      </trkpt>
      <trkpt lat="47.49412" lon="6.74243">
        <ele>348</ele>
        <time>2016-02-07T08:47:17.000Z</time>
      </trkpt>
      <trkpt lat="47.49413" lon="6.74238">
        <ele>349</ele>
        <time>2016-02-07T08:47:18.000Z</time>
      </trkpt>
      <trkpt lat="47.49414" lon="6.74233">
        <ele>350</ele>
        <time>2016-02-07T08:47:19.000Z</time>
      </trkpt>
      <trkpt lat="47.49415" lon="6.74228">
        <ele>351</ele>
        <time>2016-02-07T08:47:20.000Z</time>
      </trkpt>
      <trkpt lat="47.49416" lon="6.74223">
        <ele>352</ele>
        <time>2016-02-07T08:47:21.000Z</time>
      </trkpt>
      <trkpt lat="47.49417" lon="6.74218">
        <ele>349</ele>
        <time>2016-02-07T08:47:22.000Z</time>
      </trkpt>
      <trkpt lat="47.49418" lon="6.74213">
        <ele>349</ele>
        <time>2016-02-07T08:47:23.000Z</time>
      </trkpt>
      <trkpt lat="47.49419" lon="6.74209">
        <ele>350</ele>
        <time>2016-02-07T08:47:24.000Z</time>
      </trkpt>
      <trkpt lat="47.4942" lon="6.74204">
        <ele>350</ele>
        <time>2016-02-07T08:47:25.000Z</time>
      </trkpt>
      <trkpt lat="47.49421" lon="6.742">
        <ele>350</ele>
        <time>2016-02-07T08:47:26.000Z</time>
      </trkpt>
      <trkpt lat="47.49422" lon="6.74196">
        <ele>349</ele>
        <time>2016-02-07T08:47:27.000Z</time>
      </trkpt>
      <trkpt lat="47.49422" lon="6.74191">
        <ele>349</ele>
        <time>2016-02-07T08:47:28.000Z</time>
      </trkpt>
      <trkpt lat="47.49422" lon="6.74186">
        <ele>349</ele>
        <time>2016-02-07T08:47:29.000Z</time>
      </trkpt>
      <trkpt lat="47.49422" lon="6.74181">
        <ele>348</ele>
        <time>2016-02-07T08:47:30.000Z</time>
      </trkpt>
      <trkpt lat="47.49422" lon="6.74176">
        <ele>348</ele>
        <time>2016-02-07T08:47:31.000Z</time>
      </trkpt>
      <trkpt lat="47.49422" lon="6.74171">
        <ele>347</ele>
        <time>2016-02-07T08:47:32.000Z</time>
      </trkpt>
      <trkpt lat="47.49421" lon="6.74167">
        <ele>346</ele>
        <time>2016-02-07T08:47:33.000Z</time>
      </trkpt>
      <trkpt lat="47.49421" lon="6.74161">
        <ele>347</ele>
        <time>2016-02-07T08:47:34.000Z</time>
      </trkpt>
      <trkpt lat="47.4942" lon="6.74156">
        <ele>347</ele>
        <time>2016-02-07T08:47:35.000Z</time>
      </trkpt>
      <trkpt lat="47.4942" lon="6.74151">
        <ele>348</ele>
        <time>2016-02-07T08:47:36.000Z</time>
      </trkpt>
      <trkpt lat="47.49419" lon="6.74147">
        <ele>349</ele>
        <time>2016-02-07T08:47:37.000Z</time>
      </trkpt>
      <trkpt lat="47.49419" lon="6.74143">
        <ele>349</ele>
        <time>2016-02-07T08:47:38.000Z</time>
      </trkpt>
      <trkpt lat="47.49418" lon="6.7414">
        <ele>349</ele>
        <time>2016-02-07T08:47:39.000Z</time>
      </trkpt>
      <trkpt lat="47.49417" lon="6.74136">
        <ele>349</ele>
        <time>2016-02-07T08:47:40.000Z</time>
      </trkpt>
      <trkpt lat="47.49416" lon="6.74133">
        <ele>353</ele>
        <time>2016-02-07T08:47:41.000Z</time>
      </trkpt>
      <trkpt lat="47.49414" lon="6.74126">
        <ele>353</ele>
        <time>2016-02-07T08:47:43.000Z</time>
      </trkpt>
      <trkpt lat="47.49414" lon="6.74124">
        <ele>353</ele>
        <time>2016-02-07T08:47:44.000Z</time>
      </trkpt>
      <trkpt lat="47.49412" lon="6.74119">
        <ele>353</ele>
        <time>2016-02-07T08:47:46.000Z</time>
      </trkpt>
      <trkpt lat="47.49412" lon="6.74116">
        <ele>353</ele>
        <time>2016-02-07T08:47:47.000Z</time>
      </trkpt>
      <trkpt lat="47.49411" lon="6.7411">
        <ele>353</ele>
        <time>2016-02-07T08:47:49.000Z</time>
      </trkpt>
      <trkpt lat="47.4941" lon="6.74106">
        <ele>353</ele>
        <time>2016-02-07T08:47:50.000Z</time>
      </trkpt>
      <trkpt lat="47.49409" lon="6.74103">
        <ele>353</ele>
        <time>2016-02-07T08:47:51.000Z</time>
      </trkpt>
      <trkpt lat="47.49408" lon="6.74099">
        <ele>352</ele>
        <time>2016-02-07T08:47:52.000Z</time>
      </trkpt>
      <trkpt lat="47.49407" lon="6.74094">
        <ele>352</ele>
        <time>2016-02-07T08:47:54.000Z</time>
      </trkpt>
      <trkpt lat="47.49406" lon="6.74091">
        <ele>351</ele>
        <time>2016-02-07T08:47:55.000Z</time>
      </trkpt>
      <trkpt lat="47.49406" lon="6.74085">
        <ele>351</ele>
        <time>2016-02-07T08:47:57.000Z</time>
      </trkpt>
      <trkpt lat="47.49405" lon="6.74081">
        <ele>351</ele>
        <time>2016-02-07T08:47:58.000Z</time>
      </trkpt>
      <trkpt lat="47.49405" lon="6.74075">
        <ele>351</ele>
        <time>2016-02-07T08:48:00.000Z</time>
      </trkpt>
      <trkpt lat="47.49405" lon="6.74072">
        <ele>352</ele>
        <time>2016-02-07T08:48:01.000Z</time>
      </trkpt>
      <trkpt lat="47.49405" lon="6.74066">
        <ele>352</ele>
        <time>2016-02-07T08:48:03.000Z</time>
      </trkpt>
      <trkpt lat="47.49405" lon="6.74063">
        <ele>353</ele>
        <time>2016-02-07T08:48:04.000Z</time>
      </trkpt>
      <trkpt lat="47.49405" lon="6.74058">
        <ele>353</ele>
        <time>2016-02-07T08:48:06.000Z</time>
      </trkpt>
      <trkpt lat="47.49404" lon="6.74055">
        <ele>353</ele>
        <time>2016-02-07T08:48:07.000Z</time>
      </trkpt>
      <trkpt lat="47.49402" lon="6.74051">
        <ele>354</ele>
        <time>2016-02-07T08:48:09.000Z</time>
      </trkpt>
      <trkpt lat="47.494" lon="6.74048">
        <ele>354</ele>
        <time>2016-02-07T08:48:10.000Z</time>
      </trkpt>
      <trkpt lat="47.49399" lon="6.74046">
        <ele>354</ele>
        <time>2016-02-07T08:48:11.000Z</time>
      </trkpt>
      <trkpt lat="47.49397" lon="6.74043">
        <ele>354</ele>
        <time>2016-02-07T08:48:12.000Z</time>
      </trkpt>
      <trkpt lat="47.49395" lon="6.74039">
        <ele>354</ele>
        <time>2016-02-07T08:48:14.000Z</time>
      </trkpt>
      <trkpt lat="47.49395" lon="6.74037">
        <ele>354</ele>
        <time>2016-02-07T08:48:15.000Z</time>
      </trkpt>
      <trkpt lat="47.49396" lon="6.74031">
        <ele>354</ele>
        <time>2016-02-07T08:48:17.000Z</time>
      </trkpt>
      <trkpt lat="47.49396" lon="6.74029">
        <ele>354</ele>
        <time>2016-02-07T08:48:18.000Z</time>
      </trkpt>
      <trkpt lat="47.49396" lon="6.74022">
        <ele>354</ele>
        <time>2016-02-07T08:48:21.000Z</time>
      </trkpt>
      <trkpt lat="47.49395" lon="6.7402">
        <ele>354</ele>
        <time>2016-02-07T08:48:22.000Z</time>
      </trkpt>
      <trkpt lat="47.49393" lon="6.74015">
        <ele>354</ele>
        <time>2016-02-07T08:48:25.000Z</time>
      </trkpt>
      <trkpt lat="47.49392" lon="6.74014">
        <ele>354</ele>
        <time>2016-02-07T08:48:26.000Z</time>
      </trkpt>
      <trkpt lat="47.4939" lon="6.74009">
        <ele>354</ele>
        <time>2016-02-07T08:48:29.000Z</time>
      </trkpt>
      <trkpt lat="47.49389" lon="6.74007">
        <ele>354</ele>
        <time>2016-02-07T08:48:30.000Z</time>
      </trkpt>
      <trkpt lat="47.49388" lon="6.74">
        <ele>354</ele>
        <time>2016-02-07T08:48:33.000Z</time>
      </trkpt>
      <trkpt lat="47.49388" lon="6.73998">
        <ele>353</ele>
        <time>2016-02-07T08:48:34.000Z</time>
      </trkpt>
      <trkpt lat="47.49386" lon="6.73993">
        <ele>353</ele>
        <time>2016-02-07T08:48:36.000Z</time>
      </trkpt>
      <trkpt lat="47.49386" lon="6.7399">
        <ele>353</ele>
        <time>2016-02-07T08:48:37.000Z</time>
      </trkpt>
      <trkpt lat="47.49385" lon="6.73985">
        <ele>353</ele>
        <time>2016-02-07T08:48:39.000Z</time>
      </trkpt>
      <trkpt lat="47.49384" lon="6.73981">
        <ele>353</ele>
        <time>2016-02-07T08:48:40.000Z</time>
      </trkpt>
      <trkpt lat="47.49384" lon="6.73975">
        <ele>354</ele>
        <time>2016-02-07T08:48:42.000Z</time>
      </trkpt>
      <trkpt lat="47.49383" lon="6.73972">
        <ele>354</ele>
        <time>2016-02-07T08:48:43.000Z</time>
      </trkpt>
      <trkpt lat="47.49381" lon="6.73967">
        <ele>354</ele>
        <time>2016-02-07T08:48:45.000Z</time>
      </trkpt>
      <trkpt lat="47.4938" lon="6.73964">
        <ele>354</ele>
        <time>2016-02-07T08:48:46.000Z</time>
      </trkpt>
      <trkpt lat="47.49378" lon="6.73959">
        <ele>354</ele>
        <time>2016-02-07T08:48:48.000Z</time>
      </trkpt>
      <trkpt lat="47.49378" lon="6.73956">
        <ele>354</ele>
        <time>2016-02-07T08:48:49.000Z</time>
      </trkpt>
      <trkpt lat="47.49377" lon="6.73952">
        <ele>354</ele>
        <time>2016-02-07T08:48:51.000Z</time>
      </trkpt>
      <trkpt lat="47.49377" lon="6.73949">
        <ele>354</ele>
        <time>2016-02-07T08:48:52.000Z</time>
      </trkpt>
      <trkpt lat="47.49377" lon="6.73945">
        <ele>354</ele>
        <time>2016-02-07T08:48:54.000Z</time>
      </trkpt>
      <trkpt lat="47.49376" lon="6.73942">
        <ele>354</ele>
        <time>2016-02-07T08:48:55.000Z</time>
      </trkpt>
      <trkpt lat="47.49375" lon="6.73936">
        <ele>354</ele>
        <time>2016-02-07T08:48:57.000Z</time>
      </trkpt>
      <trkpt lat="47.49374" lon="6.73933">
        <ele>354</ele>
        <time>2016-02-07T08:48:58.000Z</time>
      </trkpt>
      <trkpt lat="47.49374" lon="6.7393">
        <ele>354</ele>
        <time>2016-02-07T08:48:59.000Z</time>
      </trkpt>
      <trkpt lat="47.49373" lon="6.73926">
        <ele>354</ele>
        <time>2016-02-07T08:49:00.000Z</time>
      </trkpt>
      <trkpt lat="47.49372" lon="6.73922">
        <ele>354</ele>
        <time>2016-02-07T08:49:01.000Z</time>
      </trkpt>
      <trkpt lat="47.49372" lon="6.73919">
        <ele>354</ele>
        <time>2016-02-07T08:49:02.000Z</time>
      </trkpt>
      <trkpt lat="47.49371" lon="6.73915">
        <ele>352</ele>
        <time>2016-02-07T08:49:03.000Z</time>
      </trkpt>
      <trkpt lat="47.4937" lon="6.73912">
        <ele>352</ele>
        <time>2016-02-07T08:49:04.000Z</time>
      </trkpt>
      <trkpt lat="47.49369" lon="6.73909">
        <ele>352</ele>
        <time>2016-02-07T08:49:05.000Z</time>
      </trkpt>
      <trkpt lat="47.49368" lon="6.73905">
        <ele>352</ele>
        <time>2016-02-07T08:49:06.000Z</time>
      </trkpt>
      <trkpt lat="47.49367" lon="6.73902">
        <ele>352</ele>
        <time>2016-02-07T08:49:07.000Z</time>
      </trkpt>
      <trkpt lat="47.49366" lon="6.73898">
        <ele>352</ele>
        <time>2016-02-07T08:49:08.000Z</time>
      </trkpt>
      <trkpt lat="47.49364" lon="6.73895">
        <ele>352</ele>
        <time>2016-02-07T08:49:09.000Z</time>
      </trkpt>
      <trkpt lat="47.49362" lon="6.73892">
        <ele>352</ele>
        <time>2016-02-07T08:49:10.000Z</time>
      </trkpt>
      <trkpt lat="47.49361" lon="6.73889">
        <ele>352</ele>
        <time>2016-02-07T08:49:11.000Z</time>
      </trkpt>
      <trkpt lat="47.49358" lon="6.73886">
        <ele>352</ele>
        <time>2016-02-07T08:49:12.000Z</time>
      </trkpt>
      <trkpt lat="47.49356" lon="6.73882">
        <ele>352</ele>
        <time>2016-02-07T08:49:13.000Z</time>
      </trkpt>
      <trkpt lat="47.49354" lon="6.73878">
        <ele>352</ele>
        <time>2016-02-07T08:49:14.000Z</time>
      </trkpt>
      <trkpt lat="47.49351" lon="6.73874">
        <ele>352</ele>
        <time>2016-02-07T08:49:15.000Z</time>
      </trkpt>
      <trkpt lat="47.49349" lon="6.73871">
        <ele>352</ele>
        <time>2016-02-07T08:49:16.000Z</time>
      </trkpt>
      <trkpt lat="47.49346" lon="6.73868">
        <ele>352</ele>
        <time>2016-02-07T08:49:17.000Z</time>
      </trkpt>
      <trkpt lat="47.49344" lon="6.73865">
        <ele>352</ele>
        <time>2016-02-07T08:49:18.000Z</time>
      </trkpt>
      <trkpt lat="47.49342" lon="6.73862">
        <ele>352</ele>
        <time>2016-02-07T08:49:19.000Z</time>
      </trkpt>
      <trkpt lat="47.4934" lon="6.73859">
        <ele>352</ele>
        <time>2016-02-07T08:49:20.000Z</time>
      </trkpt>
      <trkpt lat="47.49338" lon="6.73857">
        <ele>353</ele>
        <time>2016-02-07T08:49:21.000Z</time>
      </trkpt>
      <trkpt lat="47.49336" lon="6.73855">
        <ele>353</ele>
        <time>2016-02-07T08:49:22.000Z</time>
      </trkpt>
      <trkpt lat="47.49334" lon="6.73853">
        <ele>353</ele>
        <time>2016-02-07T08:49:23.000Z</time>
      </trkpt>
      <trkpt lat="47.49332" lon="6.73851">
        <ele>356</ele>
        <time>2016-02-07T08:49:24.000Z</time>
      </trkpt>
      <trkpt lat="47.4933" lon="6.73849">
        <ele>356</ele>
        <time>2016-02-07T08:49:25.000Z</time>
      </trkpt>
      <trkpt lat="47.49328" lon="6.73847">
        <ele>356</ele>
        <time>2016-02-07T08:49:26.000Z</time>
      </trkpt>
      <trkpt lat="47.49326" lon="6.73845">
        <ele>356</ele>
        <time>2016-02-07T08:49:27.000Z</time>
      </trkpt>
      <trkpt lat="47.49323" lon="6.73844">
        <ele>356</ele>
        <time>2016-02-07T08:49:28.000Z</time>
      </trkpt>
      <trkpt lat="47.49321" lon="6.73842">
        <ele>356</ele>
        <time>2016-02-07T08:49:29.000Z</time>
      </trkpt>
      <trkpt lat="47.49319" lon="6.73841">
        <ele>356</ele>
        <time>2016-02-07T08:49:30.000Z</time>
      </trkpt>
      <trkpt lat="47.49314" lon="6.7384">
        <ele>357</ele>
        <time>2016-02-07T08:49:32.000Z</time>
      </trkpt>
      <trkpt lat="47.49312" lon="6.73839">
        <ele>357</ele>
        <time>2016-02-07T08:49:33.000Z</time>
      </trkpt>
      <trkpt lat="47.49309" lon="6.73838">
        <ele>357</ele>
        <time>2016-02-07T08:49:35.000Z</time>
      </trkpt>
      <trkpt lat="47.49307" lon="6.73837">
        <ele>357</ele>
        <time>2016-02-07T08:49:36.000Z</time>
      </trkpt>
      <trkpt lat="47.49304" lon="6.73837">
        <ele>357</ele>
        <time>2016-02-07T08:49:38.000Z</time>
      </trkpt>
      <trkpt lat="47.49302" lon="6.73836">
        <ele>357</ele>
        <time>2016-02-07T08:49:39.000Z</time>
      </trkpt>
      <trkpt lat="47.49299" lon="6.73835">
        <ele>357</ele>
        <time>2016-02-07T08:49:41.000Z</time>
      </trkpt>
      <trkpt lat="47.49298" lon="6.73834">
        <ele>357</ele>
        <time>2016-02-07T08:49:42.000Z</time>
      </trkpt>
      <trkpt lat="47.49295" lon="6.73832">
        <ele>356</ele>
        <time>2016-02-07T08:49:44.000Z</time>
      </trkpt>
      <trkpt lat="47.49293" lon="6.73831">
        <ele>356</ele>
        <time>2016-02-07T08:49:45.000Z</time>
      </trkpt>
      <trkpt lat="47.49291" lon="6.73828">
        <ele>357</ele>
        <time>2016-02-07T08:49:47.000Z</time>
      </trkpt>
      <trkpt lat="47.49289" lon="6.73827">
        <ele>357</ele>
        <time>2016-02-07T08:49:48.000Z</time>
      </trkpt>
      <trkpt lat="47.49287" lon="6.73824">
        <ele>357</ele>
        <time>2016-02-07T08:49:50.000Z</time>
      </trkpt>
      <trkpt lat="47.49285" lon="6.73822">
        <ele>357</ele>
        <time>2016-02-07T08:49:51.000Z</time>
      </trkpt>
      <trkpt lat="47.49282" lon="6.73819">
        <ele>357</ele>
        <time>2016-02-07T08:49:53.000Z</time>
      </trkpt>
      <trkpt lat="47.49281" lon="6.73818">
        <ele>357</ele>
        <time>2016-02-07T08:49:54.000Z</time>
      </trkpt>
      <trkpt lat="47.49278" lon="6.73815">
        <ele>357</ele>
        <time>2016-02-07T08:49:56.000Z</time>
      </trkpt>
      <trkpt lat="47.49277" lon="6.73813">
        <ele>357</ele>
        <time>2016-02-07T08:49:57.000Z</time>
      </trkpt>
      <trkpt lat="47.49274" lon="6.73809">
        <ele>357</ele>
        <time>2016-02-07T08:49:59.000Z</time>
      </trkpt>
      <trkpt lat="47.49273" lon="6.73807">
        <ele>357</ele>
        <time>2016-02-07T08:50:00.000Z</time>
      </trkpt>
      <trkpt lat="47.4927" lon="6.73804">
        <ele>357</ele>
        <time>2016-02-07T08:50:02.000Z</time>
      </trkpt>
      <trkpt lat="47.49268" lon="6.73803">
        <ele>357</ele>
        <time>2016-02-07T08:50:03.000Z</time>
      </trkpt>
      <trkpt lat="47.49264" lon="6.73801">
        <ele>357</ele>
        <time>2016-02-07T08:50:05.000Z</time>
      </trkpt>
      <trkpt lat="47.49262" lon="6.738">
        <ele>357</ele>
        <time>2016-02-07T08:50:06.000Z</time>
      </trkpt>
      <trkpt lat="47.49258" lon="6.73797">
        <ele>357</ele>
        <time>2016-02-07T08:50:08.000Z</time>
      </trkpt>
      <trkpt lat="47.49257" lon="6.73796">
        <ele>357</ele>
        <time>2016-02-07T08:50:09.000Z</time>
      </trkpt>
      <trkpt lat="47.49253" lon="6.73794">
        <ele>357</ele>
        <time>2016-02-07T08:50:11.000Z</time>
      </trkpt>
      <trkpt lat="47.49252" lon="6.73793">
        <ele>357</ele>
        <time>2016-02-07T08:50:12.000Z</time>
      </trkpt>
      <trkpt lat="47.49247" lon="6.7379">
        <ele>361</ele>
        <time>2016-02-07T08:50:15.000Z</time>
      </trkpt>
      <trkpt lat="47.49246" lon="6.73789">
        <ele>361</ele>
        <time>2016-02-07T08:50:16.000Z</time>
      </trkpt>
      <trkpt lat="47.49244" lon="6.73787">
        <ele>361</ele>
        <time>2016-02-07T08:50:17.000Z</time>
      </trkpt>
      <trkpt lat="47.49242" lon="6.73784">
        <ele>361</ele>
        <time>2016-02-07T08:50:18.000Z</time>
      </trkpt>
      <trkpt lat="47.49239" lon="6.73781">
        <ele>361</ele>
        <time>2016-02-07T08:50:20.000Z</time>
      </trkpt>
      <trkpt lat="47.49237" lon="6.73781">
        <ele>361</ele>
        <time>2016-02-07T08:50:21.000Z</time>
      </trkpt>
      <trkpt lat="47.49233" lon="6.7378">
        <ele>361</ele>
        <time>2016-02-07T08:50:24.000Z</time>
      </trkpt>
      <trkpt lat="47.49231" lon="6.73779">
        <ele>361</ele>
        <time>2016-02-07T08:50:25.000Z</time>
      </trkpt>
      <trkpt lat="47.49228" lon="6.73778">
        <ele>361</ele>
        <time>2016-02-07T08:50:27.000Z</time>
      </trkpt>
      <trkpt lat="47.49226" lon="6.73778">
        <ele>361</ele>
        <time>2016-02-07T08:50:28.000Z</time>
      </trkpt>
      <trkpt lat="47.49223" lon="6.73777">
        <ele>361</ele>
        <time>2016-02-07T08:50:30.000Z</time>
      </trkpt>
      <trkpt lat="47.49221" lon="6.73776">
        <ele>361</ele>
        <time>2016-02-07T08:50:31.000Z</time>
      </trkpt>
      <trkpt lat="47.49217" lon="6.73775">
        <ele>361</ele>
        <time>2016-02-07T08:50:33.000Z</time>
      </trkpt>
      <trkpt lat="47.49215" lon="6.73775">
        <ele>361</ele>
        <time>2016-02-07T08:50:34.000Z</time>
      </trkpt>
      <trkpt lat="47.49211" lon="6.73773">
        <ele>362</ele>
        <time>2016-02-07T08:50:36.000Z</time>
      </trkpt>
      <trkpt lat="47.49209" lon="6.73772">
        <ele>362</ele>
        <time>2016-02-07T08:50:37.000Z</time>
      </trkpt>
      <trkpt lat="47.49206" lon="6.73769">
        <ele>362</ele>
        <time>2016-02-07T08:50:39.000Z</time>
      </trkpt>
      <trkpt lat="47.49205" lon="6.73767">
        <ele>362</ele>
        <time>2016-02-07T08:50:40.000Z</time>
      </trkpt>
      <trkpt lat="47.49201" lon="6.73763">
        <ele>362</ele>
        <time>2016-02-07T08:50:43.000Z</time>
      </trkpt>
      <trkpt lat="47.492" lon="6.73762">
        <ele>362</ele>
        <time>2016-02-07T08:50:44.000Z</time>
      </trkpt>
      <trkpt lat="47.49197" lon="6.73759">
        <ele>362</ele>
        <time>2016-02-07T08:50:46.000Z</time>
      </trkpt>
      <trkpt lat="47.49196" lon="6.73758">
        <ele>362</ele>
        <time>2016-02-07T08:50:47.000Z</time>
      </trkpt>
      <trkpt lat="47.49193" lon="6.73757">
        <ele>362</ele>
        <time>2016-02-07T08:50:49.000Z</time>
      </trkpt>
      <trkpt lat="47.49191" lon="6.73756">
        <ele>362</ele>
        <time>2016-02-07T08:50:50.000Z</time>
      </trkpt>
      <trkpt lat="47.49187" lon="6.73758">
        <ele>363</ele>
        <time>2016-02-07T08:50:52.000Z</time>
      </trkpt>
      <trkpt lat="47.49186" lon="6.73758">
        <ele>363</ele>
        <time>2016-02-07T08:50:53.000Z</time>
      </trkpt>
      <trkpt lat="47.49182" lon="6.73759">
        <ele>363</ele>
        <time>2016-02-07T08:50:56.000Z</time>
      </trkpt>
      <trkpt lat="47.4918" lon="6.73759">
        <ele>363</ele>
        <time>2016-02-07T08:50:57.000Z</time>
      </trkpt>
      <trkpt lat="47.49177" lon="6.73758">
        <ele>363</ele>
        <time>2016-02-07T08:50:59.000Z</time>
      </trkpt>
      <trkpt lat="47.49175" lon="6.73757">
        <ele>363</ele>
        <time>2016-02-07T08:51:00.000Z</time>
      </trkpt>
      <trkpt lat="47.49171" lon="6.73756">
        <ele>363</ele>
        <time>2016-02-07T08:51:02.000Z</time>
      </trkpt>
      <trkpt lat="47.4917" lon="6.73756">
        <ele>364</ele>
        <time>2016-02-07T08:51:03.000Z</time>
      </trkpt>
      <trkpt lat="47.49166" lon="6.73754">
        <ele>364</ele>
        <time>2016-02-07T08:51:05.000Z</time>
      </trkpt>
      <trkpt lat="47.49164" lon="6.73754">
        <ele>364</ele>
        <time>2016-02-07T08:51:06.000Z</time>
      </trkpt>
      <trkpt lat="47.49161" lon="6.73753">
        <ele>364</ele>
        <time>2016-02-07T08:51:08.000Z</time>
      </trkpt>
      <trkpt lat="47.49159" lon="6.73752">
        <ele>364</ele>
        <time>2016-02-07T08:51:09.000Z</time>
      </trkpt>
      <trkpt lat="47.49156" lon="6.73748">
        <ele>365</ele>
        <time>2016-02-07T08:51:11.000Z</time>
      </trkpt>
      <trkpt lat="47.49154" lon="6.73747">
        <ele>365</ele>
        <time>2016-02-07T08:51:12.000Z</time>
      </trkpt>
      <trkpt lat="47.4915" lon="6.73745">
        <ele>365</ele>
        <time>2016-02-07T08:51:14.000Z</time>
      </trkpt>
      <trkpt lat="47.49148" lon="6.73745">
        <ele>365</ele>
        <time>2016-02-07T08:51:15.000Z</time>
      </trkpt>
      <trkpt lat="47.49145" lon="6.73745">
        <ele>365</ele>
        <time>2016-02-07T08:51:16.000Z</time>
      </trkpt>
      <trkpt lat="47.49143" lon="6.73744">
        <ele>366</ele>
        <time>2016-02-07T08:51:17.000Z</time>
      </trkpt>
      <trkpt lat="47.4914" lon="6.73743">
        <ele>366</ele>
        <time>2016-02-07T08:51:19.000Z</time>
      </trkpt>
      <trkpt lat="47.49139" lon="6.73742">
        <ele>366</ele>
        <time>2016-02-07T08:51:20.000Z</time>
      </trkpt>
      <trkpt lat="47.49135" lon="6.73739">
        <ele>366</ele>
        <time>2016-02-07T08:51:24.000Z</time>
      </trkpt>
      <trkpt lat="47.49134" lon="6.73738">
        <ele>366</ele>
        <time>2016-02-07T08:51:25.000Z</time>
      </trkpt>
      <trkpt lat="47.49132" lon="6.73735">
        <ele>366</ele>
        <time>2016-02-07T08:51:27.000Z</time>
      </trkpt>
      <trkpt lat="47.49131" lon="6.73733">
        <ele>366</ele>
        <time>2016-02-07T08:51:28.000Z</time>
      </trkpt>
      <trkpt lat="47.49128" lon="6.7373">
        <ele>366</ele>
        <time>2016-02-07T08:51:30.000Z</time>
      </trkpt>
      <trkpt lat="47.49127" lon="6.73729">
        <ele>366</ele>
        <time>2016-02-07T08:51:31.000Z</time>
      </trkpt>
      <trkpt lat="47.49124" lon="6.73727">
        <ele>366</ele>
        <time>2016-02-07T08:51:33.000Z</time>
      </trkpt>
      <trkpt lat="47.49122" lon="6.73727">
        <ele>366</ele>
        <time>2016-02-07T08:51:34.000Z</time>
      </trkpt>
      <trkpt lat="47.49118" lon="6.73726">
        <ele>366</ele>
        <time>2016-02-07T08:51:37.000Z</time>
      </trkpt>
      <trkpt lat="47.49116" lon="6.73725">
        <ele>366</ele>
        <time>2016-02-07T08:51:38.000Z</time>
      </trkpt>
      <trkpt lat="47.49113" lon="6.73723">
        <ele>366</ele>
        <time>2016-02-07T08:51:41.000Z</time>
      </trkpt>
      <trkpt lat="47.49112" lon="6.73722">
        <ele>366</ele>
        <time>2016-02-07T08:51:42.000Z</time>
      </trkpt>
      <trkpt lat="47.4911" lon="6.73718">
        <ele>366</ele>
        <time>2016-02-07T08:51:46.000Z</time>
      </trkpt>
      <trkpt lat="47.49109" lon="6.73717">
        <ele>366</ele>
        <time>2016-02-07T08:51:47.000Z</time>
      </trkpt>
      <trkpt lat="47.49106" lon="6.73713">
        <ele>367</ele>
        <time>2016-02-07T08:51:50.000Z</time>
      </trkpt>
      <trkpt lat="47.49106" lon="6.73712">
        <ele>367</ele>
        <time>2016-02-07T08:51:51.000Z</time>
      </trkpt>
      <trkpt lat="47.49103" lon="6.73709">
        <ele>367</ele>
        <time>2016-02-07T08:51:53.000Z</time>
      </trkpt>
      <trkpt lat="47.49102" lon="6.73708">
        <ele>367</ele>
        <time>2016-02-07T08:51:54.000Z</time>
      </trkpt>
      <trkpt lat="47.49099" lon="6.73705">
        <ele>367</ele>
        <time>2016-02-07T08:51:56.000Z</time>
      </trkpt>
      <trkpt lat="47.49097" lon="6.73703">
        <ele>367</ele>
        <time>2016-02-07T08:51:57.000Z</time>
      </trkpt>
      <trkpt lat="47.49095" lon="6.73698">
        <ele>367</ele>
        <time>2016-02-07T08:52:00.000Z</time>
      </trkpt>
      <trkpt lat="47.49094" lon="6.73696">
        <ele>367</ele>
        <time>2016-02-07T08:52:01.000Z</time>
      </trkpt>
      <trkpt lat="47.49091" lon="6.73693">
        <ele>367</ele>
        <time>2016-02-07T08:52:04.000Z</time>
      </trkpt>
      <trkpt lat="47.4909" lon="6.73692">
        <ele>367</ele>
        <time>2016-02-07T08:52:05.000Z</time>
      </trkpt>
      <trkpt lat="47.49087" lon="6.73689">
        <ele>368</ele>
        <time>2016-02-07T08:52:08.000Z</time>
      </trkpt>
      <trkpt lat="47.49086" lon="6.73688">
        <ele>368</ele>
        <time>2016-02-07T08:52:09.000Z</time>
      </trkpt>
      <trkpt lat="47.49082" lon="6.73685">
        <ele>369</ele>
        <time>2016-02-07T08:52:13.000Z</time>
      </trkpt>
      <trkpt lat="47.49081" lon="6.73684">
        <ele>369</ele>
        <time>2016-02-07T08:52:14.000Z</time>
      </trkpt>
      <trkpt lat="47.49078" lon="6.73681">
        <ele>369</ele>
        <time>2016-02-07T08:52:19.000Z</time>
      </trkpt>
      <trkpt lat="47.49077" lon="6.73681">
        <ele>369</ele>
        <time>2016-02-07T08:52:20.000Z</time>
      </trkpt>
      <trkpt lat="47.49073" lon="6.73679">
        <ele>369</ele>
        <time>2016-02-07T08:52:25.000Z</time>
      </trkpt>
      <trkpt lat="47.49072" lon="6.73679">
        <ele>369</ele>
        <time>2016-02-07T08:52:26.000Z</time>
      </trkpt>
      <trkpt lat="47.49068" lon="6.73679">
        <ele>369</ele>
        <time>2016-02-07T08:52:30.000Z</time>
      </trkpt>
      <trkpt lat="47.49066" lon="6.73679">
        <ele>369</ele>
        <time>2016-02-07T08:52:31.000Z</time>
      </trkpt>
      <trkpt lat="47.49062" lon="6.73678">
        <ele>369</ele>
        <time>2016-02-07T08:52:35.000Z</time>
      </trkpt>
      <trkpt lat="47.49061" lon="6.73678">
        <ele>369</ele>
        <time>2016-02-07T08:52:36.000Z</time>
      </trkpt>
      <trkpt lat="47.49057" lon="6.73677">
        <ele>370</ele>
        <time>2016-02-07T08:52:40.000Z</time>
      </trkpt>
      <trkpt lat="47.49056" lon="6.73677">
        <ele>370</ele>
        <time>2016-02-07T08:52:41.000Z</time>
      </trkpt>
      <trkpt lat="47.49053" lon="6.73673">
        <ele>370</ele>
        <time>2016-02-07T08:52:45.000Z</time>
      </trkpt>
      <trkpt lat="47.49053" lon="6.73673">
        <ele>370</ele>
        <time>2016-02-07T08:52:46.000Z</time>
      </trkpt>
      <trkpt lat="47.49049" lon="6.73672">
        <ele>370</ele>
        <time>2016-02-07T08:52:50.000Z</time>
      </trkpt>
      <trkpt lat="47.49048" lon="6.73672">
        <ele>370</ele>
        <time>2016-02-07T08:52:51.000Z</time>
      </trkpt>
      <trkpt lat="47.49044" lon="6.73672">
        <ele>370</ele>
        <time>2016-02-07T08:52:55.000Z</time>
      </trkpt>
      <trkpt lat="47.49043" lon="6.73672">
        <ele>370</ele>
        <time>2016-02-07T08:52:56.000Z</time>
      </trkpt>
      <trkpt lat="47.49039" lon="6.73673">
        <ele>370</ele>
        <time>2016-02-07T08:53:00.000Z</time>
      </trkpt>
      <trkpt lat="47.49038" lon="6.73672">
        <ele>370</ele>
        <time>2016-02-07T08:53:01.000Z</time>
      </trkpt>
      <trkpt lat="47.49034" lon="6.73669">
        <ele>371</ele>
        <time>2016-02-07T08:53:10.000Z</time>
      </trkpt>
      <trkpt lat="47.49033" lon="6.73669">
        <ele>371</ele>
        <time>2016-02-07T08:53:11.000Z</time>
      </trkpt>
      <trkpt lat="47.49029" lon="6.73669">
        <ele>371</ele>
        <time>2016-02-07T08:53:23.000Z</time>
      </trkpt>
      <trkpt lat="47.49027" lon="6.73668">
        <ele>371</ele>
        <time>2016-02-07T08:53:24.000Z</time>
      </trkpt>
      <trkpt lat="47.49025" lon="6.73668">
        <ele>371</ele>
        <time>2016-02-07T08:53:25.000Z</time>
      </trkpt>
      <trkpt lat="47.49022" lon="6.73668">
        <ele>371</ele>
        <time>2016-02-07T08:53:26.000Z</time>
      </trkpt>
      <trkpt lat="47.4902" lon="6.73668">
        <ele>371</ele>
        <time>2016-02-07T08:53:27.000Z</time>
      </trkpt>
      <trkpt lat="47.49017" lon="6.73668">
        <ele>371</ele>
        <time>2016-02-07T08:53:28.000Z</time>
      </trkpt>
      <trkpt lat="47.49014" lon="6.73667">
        <ele>372</ele>
        <time>2016-02-07T08:53:30.000Z</time>
      </trkpt>
      <trkpt lat="47.49012" lon="6.73667">
        <ele>372</ele>
        <time>2016-02-07T08:53:31.000Z</time>
      </trkpt>
      <trkpt lat="47.49009" lon="6.73665">
        <ele>373</ele>
        <time>2016-02-07T08:53:33.000Z</time>
      </trkpt>
      <trkpt lat="47.49007" lon="6.73665">
        <ele>373</ele>
        <time>2016-02-07T08:53:34.000Z</time>
      </trkpt>
      <trkpt lat="47.49003" lon="6.73664">
        <ele>373</ele>
        <time>2016-02-07T08:53:37.000Z</time>
      </trkpt>
      <trkpt lat="47.49002" lon="6.73664">
        <ele>373</ele>
        <time>2016-02-07T08:53:38.000Z</time>
      </trkpt>
      <trkpt lat="47.48999" lon="6.73663">
        <ele>374</ele>
        <time>2016-02-07T08:53:41.000Z</time>
      </trkpt>
      <trkpt lat="47.48997" lon="6.73663">
        <ele>374</ele>
        <time>2016-02-07T08:53:42.000Z</time>
      </trkpt>
      <trkpt lat="47.48994" lon="6.73661">
        <ele>374</ele>
        <time>2016-02-07T08:53:45.000Z</time>
      </trkpt>
      <trkpt lat="47.48993" lon="6.73661">
        <ele>374</ele>
        <time>2016-02-07T08:53:46.000Z</time>
      </trkpt>
      <trkpt lat="47.48989" lon="6.73661">
        <ele>375</ele>
        <time>2016-02-07T08:53:49.000Z</time>
      </trkpt>
      <trkpt lat="47.48988" lon="6.73661">
        <ele>375</ele>
        <time>2016-02-07T08:53:50.000Z</time>
      </trkpt>
      <trkpt lat="47.48984" lon="6.7366">
        <ele>375</ele>
        <time>2016-02-07T08:53:53.000Z</time>
      </trkpt>
      <trkpt lat="47.48982" lon="6.73659">
        <ele>375</ele>
        <time>2016-02-07T08:53:54.000Z</time>
      </trkpt>
      <trkpt lat="47.48979" lon="6.73659">
        <ele>375</ele>
        <time>2016-02-07T08:53:56.000Z</time>
      </trkpt>
      <trkpt lat="47.48978" lon="6.73659">
        <ele>375</ele>
        <time>2016-02-07T08:53:57.000Z</time>
      </trkpt>
      <trkpt lat="47.48974" lon="6.7366">
        <ele>376</ele>
        <time>2016-02-07T08:54:00.000Z</time>
      </trkpt>
      <trkpt lat="47.48973" lon="6.7366">
        <ele>376</ele>
        <time>2016-02-07T08:54:01.000Z</time>
      </trkpt>
      <trkpt lat="47.48969" lon="6.73659">
        <ele>376</ele>
        <time>2016-02-07T08:54:04.000Z</time>
      </trkpt>
      <trkpt lat="47.48967" lon="6.73659">
        <ele>376</ele>
        <time>2016-02-07T08:54:05.000Z</time>
      </trkpt>
      <trkpt lat="47.48964" lon="6.73657">
        <ele>376</ele>
        <time>2016-02-07T08:54:07.000Z</time>
      </trkpt>
      <trkpt lat="47.48962" lon="6.73657">
        <ele>376</ele>
        <time>2016-02-07T08:54:08.000Z</time>
      </trkpt>
      <trkpt lat="47.48958" lon="6.73655">
        <ele>377</ele>
        <time>2016-02-07T08:54:10.000Z</time>
      </trkpt>
      <trkpt lat="47.48957" lon="6.73655">
        <ele>377</ele>
        <time>2016-02-07T08:54:11.000Z</time>
      </trkpt>
      <trkpt lat="47.48953" lon="6.73654">
        <ele>377</ele>
        <time>2016-02-07T08:54:14.000Z</time>
      </trkpt>
      <trkpt lat="47.48951" lon="6.73654">
        <ele>377</ele>
        <time>2016-02-07T08:54:15.000Z</time>
      </trkpt>
      <trkpt lat="47.48948" lon="6.73653">
        <ele>377</ele>
        <time>2016-02-07T08:54:17.000Z</time>
      </trkpt>
      <trkpt lat="47.48946" lon="6.73652">
        <ele>377</ele>
        <time>2016-02-07T08:54:18.000Z</time>
      </trkpt>
      <trkpt lat="47.48943" lon="6.73651">
        <ele>377</ele>
        <time>2016-02-07T08:54:21.000Z</time>
      </trkpt>
      <trkpt lat="47.48941" lon="6.73651">
        <ele>378</ele>
        <time>2016-02-07T08:54:22.000Z</time>
      </trkpt>
      <trkpt lat="47.48937" lon="6.73653">
        <ele>378</ele>
        <time>2016-02-07T08:54:25.000Z</time>
      </trkpt>
      <trkpt lat="47.48936" lon="6.73654">
        <ele>378</ele>
        <time>2016-02-07T08:54:26.000Z</time>
      </trkpt>
      <trkpt lat="47.48932" lon="6.73654">
        <ele>378</ele>
        <time>2016-02-07T08:54:28.000Z</time>
      </trkpt>
      <trkpt lat="47.48931" lon="6.73654">
        <ele>378</ele>
        <time>2016-02-07T08:54:29.000Z</time>
      </trkpt>
      <trkpt lat="47.48927" lon="6.7365">
        <ele>378</ele>
        <time>2016-02-07T08:54:32.000Z</time>
      </trkpt>
      <trkpt lat="47.48926" lon="6.73649">
        <ele>378</ele>
        <time>2016-02-07T08:54:33.000Z</time>
      </trkpt>
      <trkpt lat="47.48922" lon="6.73646">
        <ele>378</ele>
        <time>2016-02-07T08:54:36.000Z</time>
      </trkpt>
      <trkpt lat="47.48921" lon="6.73645">
        <ele>378</ele>
        <time>2016-02-07T08:54:37.000Z</time>
      </trkpt>
      <trkpt lat="47.48918" lon="6.73641">
        <ele>378</ele>
        <time>2016-02-07T08:54:41.000Z</time>
      </trkpt>
      <trkpt lat="47.48917" lon="6.7364">
        <ele>378</ele>
        <time>2016-02-07T08:54:42.000Z</time>
      </trkpt>
      <trkpt lat="47.48913" lon="6.73639">
        <ele>380</ele>
        <time>2016-02-07T08:54:45.000Z</time>
      </trkpt>
      <trkpt lat="47.48912" lon="6.73639">
        <ele>380</ele>
        <time>2016-02-07T08:54:46.000Z</time>
      </trkpt>
      <trkpt lat="47.48908" lon="6.73638">
        <ele>380</ele>
        <time>2016-02-07T08:54:49.000Z</time>
      </trkpt>
      <trkpt lat="47.48906" lon="6.73638">
        <ele>380</ele>
        <time>2016-02-07T08:54:50.000Z</time>
      </trkpt>
      <trkpt lat="47.48903" lon="6.73637">
        <ele>380</ele>
        <time>2016-02-07T08:54:53.000Z</time>
      </trkpt>
      <trkpt lat="47.48902" lon="6.73637">
        <ele>380</ele>
        <time>2016-02-07T08:54:54.000Z</time>
      </trkpt>
      <trkpt lat="47.48898" lon="6.73634">
        <ele>380</ele>
        <time>2016-02-07T08:55:00.000Z</time>
      </trkpt>
      <trkpt lat="47.48897" lon="6.73634">
        <ele>380</ele>
        <time>2016-02-07T08:55:01.000Z</time>
      </trkpt>
      <trkpt lat="47.48898" lon="6.7364">
        <ele>380</ele>
        <time>2016-02-07T08:55:12.000Z</time>
      </trkpt>
      <trkpt lat="47.48898" lon="6.73641">
        <ele>380</ele>
        <time>2016-02-07T08:55:13.000Z</time>
      </trkpt>
      <trkpt lat="47.48895" lon="6.73646">
        <ele>380</ele>
        <time>2016-02-07T08:55:17.000Z</time>
      </trkpt>
      <trkpt lat="47.48895" lon="6.73648">
        <ele>380</ele>
        <time>2016-02-07T08:55:18.000Z</time>
      </trkpt>
      <trkpt lat="47.48895" lon="6.73653">
        <ele>380</ele>
        <time>2016-02-07T08:55:23.000Z</time>
      </trkpt>
      <trkpt lat="47.48895" lon="6.73654">
        <ele>380</ele>
        <time>2016-02-07T08:55:24.000Z</time>
      </trkpt>
      <trkpt lat="47.48896" lon="6.7366">
        <ele>380</ele>
        <time>2016-02-07T08:55:29.000Z</time>
      </trkpt>
      <trkpt lat="47.48896" lon="6.73662">
        <ele>380</ele>
        <time>2016-02-07T08:55:30.000Z</time>
      </trkpt>
      <trkpt lat="47.48896" lon="6.73668">
        <ele>383</ele>
        <time>2016-02-07T08:55:38.000Z</time>
      </trkpt>
      <trkpt lat="47.48897" lon="6.73668">
        <ele>383</ele>
        <time>2016-02-07T08:55:39.000Z</time>
      </trkpt>
      <trkpt lat="47.48899" lon="6.73663">
        <ele>380</ele>
        <time>2016-02-07T08:56:56.000Z</time>
      </trkpt>
      <trkpt lat="47.48899" lon="6.73663">
        <ele>380</ele>
        <time>2016-02-07T08:56:57.000Z</time>
      </trkpt>
      <trkpt lat="47.48899" lon="6.73657">
        <ele>380</ele>
        <time>2016-02-07T08:57:07.000Z</time>
      </trkpt>
      <trkpt lat="47.489" lon="6.73655">
        <ele>380</ele>
        <time>2016-02-07T08:57:08.000Z</time>
      </trkpt>
      <trkpt lat="47.489" lon="6.7365">
        <ele>380</ele>
        <time>2016-02-07T08:57:11.000Z</time>
      </trkpt>
      <trkpt lat="47.48898" lon="6.73647">
        <ele>380</ele>
        <time>2016-02-07T08:57:12.000Z</time>
      </trkpt>
      <trkpt lat="47.48895" lon="6.73643">
        <ele>380</ele>
        <time>2016-02-07T08:57:14.000Z</time>
      </trkpt>
      <trkpt lat="47.48894" lon="6.73641">
        <ele>380</ele>
        <time>2016-02-07T08:57:15.000Z</time>
      </trkpt>
      <trkpt lat="47.4889" lon="6.73639">
        <ele>380</ele>
        <time>2016-02-07T08:57:17.000Z</time>
      </trkpt>
      <trkpt lat="47.48888" lon="6.73637">
        <ele>380</ele>
        <time>2016-02-07T08:57:18.000Z</time>
      </trkpt>
      <trkpt lat="47.48885" lon="6.73635">
        <ele>380</ele>
        <time>2016-02-07T08:57:20.000Z</time>
      </trkpt>
      <trkpt lat="47.48884" lon="6.73634">
        <ele>380</ele>
        <time>2016-02-07T08:57:21.000Z</time>
      </trkpt>
      <trkpt lat="47.4888" lon="6.73633">
        <ele>380</ele>
        <time>2016-02-07T08:57:23.000Z</time>
      </trkpt>
      <trkpt lat="47.48877" lon="6.73631">
        <ele>380</ele>
        <time>2016-02-07T08:57:24.000Z</time>
      </trkpt>
      <trkpt lat="47.48875" lon="6.7363">
        <ele>380</ele>
        <time>2016-02-07T08:57:25.000Z</time>
      </trkpt>
      <trkpt lat="47.48873" lon="6.73629">
        <ele>380</ele>
        <time>2016-02-07T08:57:26.000Z</time>
      </trkpt>
      <trkpt lat="47.48871" lon="6.73627">
        <ele>380</ele>
        <time>2016-02-07T08:57:27.000Z</time>
      </trkpt>
      <trkpt lat="47.48868" lon="6.73626">
        <ele>380</ele>
        <time>2016-02-07T08:57:28.000Z</time>
      </trkpt>
      <trkpt lat="47.48866" lon="6.73625">
        <ele>380</ele>
        <time>2016-02-07T08:57:29.000Z</time>
      </trkpt>
      <trkpt lat="47.48864" lon="6.73624">
        <ele>380</ele>
        <time>2016-02-07T08:57:30.000Z</time>
      </trkpt>
      <trkpt lat="47.48862" lon="6.73622">
        <ele>380</ele>
        <time>2016-02-07T08:57:31.000Z</time>
      </trkpt>
      <trkpt lat="47.48859" lon="6.73621">
        <ele>380</ele>
        <time>2016-02-07T08:57:32.000Z</time>
      </trkpt>
      <trkpt lat="47.48856" lon="6.73619">
        <ele>380</ele>
        <time>2016-02-07T08:57:33.000Z</time>
      </trkpt>
      <trkpt lat="47.48853" lon="6.73617">
        <ele>380</ele>
        <time>2016-02-07T08:57:34.000Z</time>
      </trkpt>
      <trkpt lat="47.4885" lon="6.73615">
        <ele>380</ele>
        <time>2016-02-07T08:57:35.000Z</time>
      </trkpt>
      <trkpt lat="47.48847" lon="6.73614">
        <ele>380</ele>
        <time>2016-02-07T08:57:36.000Z</time>
      </trkpt>
      <trkpt lat="47.48845" lon="6.73612">
        <ele>380</ele>
        <time>2016-02-07T08:57:37.000Z</time>
      </trkpt>
      <trkpt lat="47.48842" lon="6.73611">
        <ele>380</ele>
        <time>2016-02-07T08:57:38.000Z</time>
      </trkpt>
      <trkpt lat="47.48838" lon="6.73608">
        <ele>380</ele>
        <time>2016-02-07T08:57:40.000Z</time>
      </trkpt>
      <trkpt lat="47.48835" lon="6.73607">
        <ele>380</ele>
        <time>2016-02-07T08:57:41.000Z</time>
      </trkpt>
      <trkpt lat="47.48832" lon="6.73605">
        <ele>381</ele>
        <time>2016-02-07T08:57:42.000Z</time>
      </trkpt>
      <trkpt lat="47.48829" lon="6.73603">
        <ele>381</ele>
        <time>2016-02-07T08:57:43.000Z</time>
      </trkpt>
      <trkpt lat="47.48825" lon="6.73601">
        <ele>380</ele>
        <time>2016-02-07T08:57:44.000Z</time>
      </trkpt>
      <trkpt lat="47.48822" lon="6.73599">
        <ele>380</ele>
        <time>2016-02-07T08:57:45.000Z</time>
      </trkpt>
      <trkpt lat="47.48818" lon="6.73598">
        <ele>380</ele>
        <time>2016-02-07T08:57:46.000Z</time>
      </trkpt>
      <trkpt lat="47.48815" lon="6.73597">
        <ele>381</ele>
        <time>2016-02-07T08:57:47.000Z</time>
      </trkpt>
      <trkpt lat="47.48812" lon="6.73596">
        <ele>381</ele>
        <time>2016-02-07T08:57:48.000Z</time>
      </trkpt>
      <trkpt lat="47.48809" lon="6.73595">
        <ele>381</ele>
        <time>2016-02-07T08:57:49.000Z</time>
      </trkpt>
      <trkpt lat="47.48805" lon="6.73594">
        <ele>381</ele>
        <time>2016-02-07T08:57:50.000Z</time>
      </trkpt>
      <trkpt lat="47.48802" lon="6.73592">
        <ele>381</ele>
        <time>2016-02-07T08:57:51.000Z</time>
      </trkpt>
      <trkpt lat="47.48798" lon="6.73591">
        <ele>381</ele>
        <time>2016-02-07T08:57:52.000Z</time>
      </trkpt>
      <trkpt lat="47.48794" lon="6.73589">
        <ele>381</ele>
        <time>2016-02-07T08:57:53.000Z</time>
      </trkpt>
      <trkpt lat="47.4879" lon="6.73588">
        <ele>381</ele>
        <time>2016-02-07T08:57:54.000Z</time>
      </trkpt>
      <trkpt lat="47.48786" lon="6.73586">
        <ele>380</ele>
        <time>2016-02-07T08:57:55.000Z</time>
      </trkpt>
      <trkpt lat="47.48782" lon="6.73584">
        <ele>380</ele>
        <time>2016-02-07T08:57:56.000Z</time>
      </trkpt>
      <trkpt lat="47.48779" lon="6.73583">
        <ele>376</ele>
        <time>2016-02-07T08:57:57.000Z</time>
      </trkpt>
      <trkpt lat="47.48776" lon="6.73581">
        <ele>376</ele>
        <time>2016-02-07T08:57:58.000Z</time>
      </trkpt>
      <trkpt lat="47.48772" lon="6.7358">
        <ele>376</ele>
        <time>2016-02-07T08:57:59.000Z</time>
      </trkpt>
      <trkpt lat="47.48768" lon="6.73578">
        <ele>376</ele>
        <time>2016-02-07T08:58:00.000Z</time>
      </trkpt>
      <trkpt lat="47.48764" lon="6.73576">
        <ele>377</ele>
        <time>2016-02-07T08:58:01.000Z</time>
      </trkpt>
      <trkpt lat="47.4876" lon="6.73574">
        <ele>377</ele>
        <time>2016-02-07T08:58:02.000Z</time>
      </trkpt>
      <trkpt lat="47.48756" lon="6.73572">
        <ele>377</ele>
        <time>2016-02-07T08:58:03.000Z</time>
      </trkpt>
      <trkpt lat="47.48752" lon="6.7357">
        <ele>377</ele>
        <time>2016-02-07T08:58:04.000Z</time>
      </trkpt>
      <trkpt lat="47.48749" lon="6.73568">
        <ele>376</ele>
        <time>2016-02-07T08:58:05.000Z</time>
      </trkpt>
      <trkpt lat="47.48746" lon="6.73565">
        <ele>376</ele>
        <time>2016-02-07T08:58:06.000Z</time>
      </trkpt>
      <trkpt lat="47.48743" lon="6.73563">
        <ele>376</ele>
        <time>2016-02-07T08:58:07.000Z</time>
      </trkpt>
      <trkpt lat="47.48738" lon="6.7356">
        <ele>376</ele>
        <time>2016-02-07T08:58:08.000Z</time>
      </trkpt>
      <trkpt lat="47.48734" lon="6.73557">
        <ele>375</ele>
        <time>2016-02-07T08:58:09.000Z</time>
      </trkpt>
      <trkpt lat="47.48729" lon="6.73553">
        <ele>375</ele>
        <time>2016-02-07T08:58:10.000Z</time>
      </trkpt>
      <trkpt lat="47.48724" lon="6.73549">
        <ele>375</ele>
        <time>2016-02-07T08:58:11.000Z</time>
      </trkpt>
      <trkpt lat="47.4872" lon="6.73544">
        <ele>375</ele>
        <time>2016-02-07T08:58:12.000Z</time>
      </trkpt>
      <trkpt lat="47.48715" lon="6.73539">
        <ele>374</ele>
        <time>2016-02-07T08:58:13.000Z</time>
      </trkpt>
      <trkpt lat="47.48709" lon="6.73533">
        <ele>374</ele>
        <time>2016-02-07T08:58:14.000Z</time>
      </trkpt>
      <trkpt lat="47.48704" lon="6.73528">
        <ele>374</ele>
        <time>2016-02-07T08:58:15.000Z</time>
      </trkpt>
      <trkpt lat="47.48698" lon="6.73522">
        <ele>374</ele>
        <time>2016-02-07T08:58:16.000Z</time>
      </trkpt>
      <trkpt lat="47.48693" lon="6.73518">
        <ele>374</ele>
        <time>2016-02-07T08:58:17.000Z</time>
      </trkpt>
      <trkpt lat="47.48689" lon="6.73513">
        <ele>374</ele>
        <time>2016-02-07T08:58:18.000Z</time>
      </trkpt>
      <trkpt lat="47.48678" lon="6.73502">
        <ele>373</ele>
        <time>2016-02-07T08:58:19.000Z</time>
      </trkpt>
      <trkpt lat="47.48674" lon="6.73497">
        <ele>371</ele>
        <time>2016-02-07T08:58:20.000Z</time>
      </trkpt>
      <trkpt lat="47.48671" lon="6.73494">
        <ele>371</ele>
        <time>2016-02-07T08:58:21.000Z</time>
      </trkpt>
      <trkpt lat="47.48667" lon="6.73489">
        <ele>370</ele>
        <time>2016-02-07T08:58:22.000Z</time>
      </trkpt>
      <trkpt lat="47.48664" lon="6.73486">
        <ele>370</ele>
        <time>2016-02-07T08:58:23.000Z</time>
      </trkpt>
      <trkpt lat="47.48661" lon="6.73482">
        <ele>369</ele>
        <time>2016-02-07T08:58:24.000Z</time>
      </trkpt>
      <trkpt lat="47.48658" lon="6.73478">
        <ele>368</ele>
        <time>2016-02-07T08:58:25.000Z</time>
      </trkpt>
      <trkpt lat="47.48655" lon="6.73475">
        <ele>368</ele>
        <time>2016-02-07T08:58:26.000Z</time>
      </trkpt>
      <trkpt lat="47.48652" lon="6.73472">
        <ele>368</ele>
        <time>2016-02-07T08:58:27.000Z</time>
      </trkpt>
      <trkpt lat="47.48649" lon="6.73473">
        <ele>368</ele>
        <time>2016-02-07T08:58:28.000Z</time>
      </trkpt>
      <trkpt lat="47.48647" lon="6.73475">
        <ele>368</ele>
        <time>2016-02-07T08:58:29.000Z</time>
      </trkpt>
      <trkpt lat="47.48645" lon="6.73475">
        <ele>368</ele>
        <time>2016-02-07T08:58:30.000Z</time>
      </trkpt>
      <trkpt lat="47.48642" lon="6.73479">
        <ele>368</ele>
        <time>2016-02-07T08:58:32.000Z</time>
      </trkpt>
      <trkpt lat="47.48642" lon="6.73483">
        <ele>368</ele>
        <time>2016-02-07T08:58:33.000Z</time>
      </trkpt>
      <trkpt lat="47.48641" lon="6.73487">
        <ele>368</ele>
        <time>2016-02-07T08:58:34.000Z</time>
      </trkpt>
      <trkpt lat="47.4864" lon="6.7349">
        <ele>368</ele>
        <time>2016-02-07T08:58:35.000Z</time>
      </trkpt>
      <trkpt lat="47.4864" lon="6.73494">
        <ele>369</ele>
        <time>2016-02-07T08:58:36.000Z</time>
      </trkpt>
      <trkpt lat="47.48639" lon="6.73497">
        <ele>369</ele>
        <time>2016-02-07T08:58:37.000Z</time>
      </trkpt>
      <trkpt lat="47.48639" lon="6.73503">
        <ele>373</ele>
        <time>2016-02-07T08:58:39.000Z</time>
      </trkpt>
      <trkpt lat="47.48639" lon="6.73506">
        <ele>374</ele>
        <time>2016-02-07T08:58:40.000Z</time>
      </trkpt>
      <trkpt lat="47.48639" lon="6.7351">
        <ele>374</ele>
        <time>2016-02-07T08:58:41.000Z</time>
      </trkpt>
      <trkpt lat="47.48639" lon="6.73513">
        <ele>374</ele>
        <time>2016-02-07T08:58:42.000Z</time>
      </trkpt>
      <trkpt lat="47.48638" lon="6.73517">
        <ele>374</ele>
        <time>2016-02-07T08:58:43.000Z</time>
      </trkpt>
      <trkpt lat="47.48638" lon="6.73521">
        <ele>374</ele>
        <time>2016-02-07T08:58:44.000Z</time>
      </trkpt>
      <trkpt lat="47.48638" lon="6.73524">
        <ele>374</ele>
        <time>2016-02-07T08:58:45.000Z</time>
      </trkpt>
      <trkpt lat="47.48638" lon="6.73527">
        <ele>374</ele>
        <time>2016-02-07T08:58:46.000Z</time>
      </trkpt>
      <trkpt lat="47.4864" lon="6.73533">
        <ele>375</ele>
        <time>2016-02-07T08:58:49.000Z</time>
      </trkpt>
      <trkpt lat="47.48641" lon="6.73535">
        <ele>375</ele>
        <time>2016-02-07T08:58:50.000Z</time>
      </trkpt>
      <trkpt lat="47.48643" lon="6.73541">
        <ele>375</ele>
        <time>2016-02-07T08:58:52.000Z</time>
      </trkpt>
      <trkpt lat="47.48644" lon="6.73543">
        <ele>375</ele>
        <time>2016-02-07T08:58:53.000Z</time>
      </trkpt>
      <trkpt lat="47.48647" lon="6.73548">
        <ele>375</ele>
        <time>2016-02-07T08:58:55.000Z</time>
      </trkpt>
      <trkpt lat="47.48649" lon="6.73551">
        <ele>376</ele>
        <time>2016-02-07T08:58:56.000Z</time>
      </trkpt>
      <trkpt lat="47.48651" lon="6.73554">
        <ele>376</ele>
        <time>2016-02-07T08:58:57.000Z</time>
      </trkpt>
      <trkpt lat="47.48652" lon="6.73557">
        <ele>376</ele>
        <time>2016-02-07T08:58:58.000Z</time>
      </trkpt>
      <trkpt lat="47.48654" lon="6.73561">
        <ele>377</ele>
        <time>2016-02-07T08:58:59.000Z</time>
      </trkpt>
      <trkpt lat="47.48655" lon="6.73565">
        <ele>377</ele>
        <time>2016-02-07T08:59:00.000Z</time>
      </trkpt>
      <trkpt lat="47.48656" lon="6.73569">
        <ele>377</ele>
        <time>2016-02-07T08:59:01.000Z</time>
      </trkpt>
      <trkpt lat="47.48657" lon="6.73573">
        <ele>378</ele>
        <time>2016-02-07T08:59:02.000Z</time>
      </trkpt>
      <trkpt lat="47.48658" lon="6.73578">
        <ele>378</ele>
        <time>2016-02-07T08:59:04.000Z</time>
      </trkpt>
      <trkpt lat="47.48659" lon="6.7358">
        <ele>378</ele>
        <time>2016-02-07T08:59:05.000Z</time>
      </trkpt>
      <trkpt lat="47.4866" lon="6.73585">
        <ele>380</ele>
        <time>2016-02-07T08:59:07.000Z</time>
      </trkpt>
      <trkpt lat="47.48662" lon="6.73587">
        <ele>380</ele>
        <time>2016-02-07T08:59:08.000Z</time>
      </trkpt>
      <trkpt lat="47.48665" lon="6.73592">
        <ele>380</ele>
        <time>2016-02-07T08:59:10.000Z</time>
      </trkpt>
      <trkpt lat="47.48667" lon="6.73593">
        <ele>381</ele>
        <time>2016-02-07T08:59:11.000Z</time>
      </trkpt>
      <trkpt lat="47.4867" lon="6.73597">
        <ele>381</ele>
        <time>2016-02-07T08:59:13.000Z</time>
      </trkpt>
      <trkpt lat="47.48671" lon="6.73598">
        <ele>381</ele>
        <time>2016-02-07T08:59:14.000Z</time>
      </trkpt>
      <trkpt lat="47.48674" lon="6.736">
        <ele>381</ele>
        <time>2016-02-07T08:59:17.000Z</time>
      </trkpt>
      <trkpt lat="47.48675" lon="6.73601">
        <ele>381</ele>
        <time>2016-02-07T08:59:18.000Z</time>
      </trkpt>
      <trkpt lat="47.4868" lon="6.73602">
        <ele>381</ele>
        <time>2016-02-07T08:59:22.000Z</time>
      </trkpt>
      <trkpt lat="47.4868" lon="6.73603">
        <ele>381</ele>
        <time>2016-02-07T08:59:23.000Z</time>
      </trkpt>
      <trkpt lat="47.48683" lon="6.73608">
        <ele>381</ele>
        <time>2016-02-07T08:59:27.000Z</time>
      </trkpt>
      <trkpt lat="47.48684" lon="6.73608">
        <ele>381</ele>
        <time>2016-02-07T08:59:28.000Z</time>
      </trkpt>
      <trkpt lat="47.48687" lon="6.7361">
        <ele>381</ele>
        <time>2016-02-07T08:59:32.000Z</time>
      </trkpt>
      <trkpt lat="47.48688" lon="6.73612">
        <ele>382</ele>
        <time>2016-02-07T08:59:33.000Z</time>
      </trkpt>
      <trkpt lat="47.48691" lon="6.73617">
        <ele>382</ele>
        <time>2016-02-07T08:59:35.000Z</time>
      </trkpt>
      <trkpt lat="47.48692" lon="6.73619">
        <ele>382</ele>
        <time>2016-02-07T08:59:36.000Z</time>
      </trkpt>
      <trkpt lat="47.48694" lon="6.73624">
        <ele>382</ele>
        <time>2016-02-07T08:59:38.000Z</time>
      </trkpt>
      <trkpt lat="47.48696" lon="6.73626">
        <ele>382</ele>
        <time>2016-02-07T08:59:39.000Z</time>
      </trkpt>
      <trkpt lat="47.48698" lon="6.7363">
        <ele>382</ele>
        <time>2016-02-07T08:59:41.000Z</time>
      </trkpt>
      <trkpt lat="47.487" lon="6.73632">
        <ele>382</ele>
        <time>2016-02-07T08:59:42.000Z</time>
      </trkpt>
      <trkpt lat="47.48702" lon="6.73634">
        <ele>382</ele>
        <time>2016-02-07T08:59:43.000Z</time>
      </trkpt>
      <trkpt lat="47.48705" lon="6.73636">
        <ele>382</ele>
        <time>2016-02-07T08:59:44.000Z</time>
      </trkpt>
      <trkpt lat="47.48707" lon="6.73638">
        <ele>382</ele>
        <time>2016-02-07T08:59:45.000Z</time>
      </trkpt>
      <trkpt lat="47.48709" lon="6.7364">
        <ele>383</ele>
        <time>2016-02-07T08:59:46.000Z</time>
      </trkpt>
      <trkpt lat="47.48711" lon="6.73642">
        <ele>383</ele>
        <time>2016-02-07T08:59:47.000Z</time>
      </trkpt>
      <trkpt lat="47.48712" lon="6.73644">
        <ele>383</ele>
        <time>2016-02-07T08:59:48.000Z</time>
      </trkpt>
      <trkpt lat="47.48716" lon="6.73648">
        <ele>383</ele>
        <time>2016-02-07T08:59:50.000Z</time>
      </trkpt>
      <trkpt lat="47.48718" lon="6.7365">
        <ele>383</ele>
        <time>2016-02-07T08:59:51.000Z</time>
      </trkpt>
      <trkpt lat="47.48721" lon="6.73654">
        <ele>383</ele>
        <time>2016-02-07T08:59:53.000Z</time>
      </trkpt>
      <trkpt lat="47.48722" lon="6.73656">
        <ele>383</ele>
        <time>2016-02-07T08:59:54.000Z</time>
      </trkpt>
      <trkpt lat="47.48723" lon="6.73661">
        <ele>383</ele>
        <time>2016-02-07T08:59:56.000Z</time>
      </trkpt>
      <trkpt lat="47.48724" lon="6.73663">
        <ele>384</ele>
        <time>2016-02-07T08:59:57.000Z</time>
      </trkpt>
      <trkpt lat="47.48726" lon="6.73666">
        <ele>384</ele>
        <time>2016-02-07T08:59:59.000Z</time>
      </trkpt>
      <trkpt lat="47.48727" lon="6.73668">
        <ele>387</ele>
        <time>2016-02-07T09:00:00.000Z</time>
      </trkpt>
      <trkpt lat="47.48728" lon="6.73673">
        <ele>387</ele>
        <time>2016-02-07T09:00:02.000Z</time>
      </trkpt>
      <trkpt lat="47.48729" lon="6.73675">
        <ele>387</ele>
        <time>2016-02-07T09:00:03.000Z</time>
      </trkpt>
      <trkpt lat="47.48731" lon="6.73679">
        <ele>387</ele>
        <time>2016-02-07T09:00:05.000Z</time>
      </trkpt>
      <trkpt lat="47.48732" lon="6.73681">
        <ele>387</ele>
        <time>2016-02-07T09:00:06.000Z</time>
      </trkpt>
      <trkpt lat="47.48734" lon="6.73685">
        <ele>388</ele>
        <time>2016-02-07T09:00:08.000Z</time>
      </trkpt>
      <trkpt lat="47.48735" lon="6.73687">
        <ele>388</ele>
        <time>2016-02-07T09:00:09.000Z</time>
      </trkpt>
      <trkpt lat="47.48737" lon="6.73692">
        <ele>388</ele>
        <time>2016-02-07T09:00:12.000Z</time>
      </trkpt>
      <trkpt lat="47.48738" lon="6.73693">
        <ele>388</ele>
        <time>2016-02-07T09:00:13.000Z</time>
      </trkpt>
      <trkpt lat="47.48739" lon="6.73699">
        <ele>388</ele>
        <time>2016-02-07T09:00:19.000Z</time>
      </trkpt>
      <trkpt lat="47.48739" lon="6.73701">
        <ele>388</ele>
        <time>2016-02-07T09:00:20.000Z</time>
      </trkpt>
      <trkpt lat="47.4874" lon="6.73706">
        <ele>389</ele>
        <time>2016-02-07T09:00:24.000Z</time>
      </trkpt>
      <trkpt lat="47.4874" lon="6.73707">
        <ele>389</ele>
        <time>2016-02-07T09:00:25.000Z</time>
      </trkpt>
      <trkpt lat="47.48739" lon="6.73713">
        <ele>389</ele>
        <time>2016-02-07T09:00:29.000Z</time>
      </trkpt>
      <trkpt lat="47.48738" lon="6.73714">
        <ele>389</ele>
        <time>2016-02-07T09:00:30.000Z</time>
      </trkpt>
      <trkpt lat="47.48737" lon="6.73719">
        <ele>390</ele>
        <time>2016-02-07T09:00:32.000Z</time>
      </trkpt>
      <trkpt lat="47.48737" lon="6.73721">
        <ele>390</ele>
        <time>2016-02-07T09:00:33.000Z</time>
      </trkpt>
      <trkpt lat="47.48737" lon="6.73728">
        <ele>391</ele>
        <time>2016-02-07T09:00:36.000Z</time>
      </trkpt>
      <trkpt lat="47.48737" lon="6.73729">
        <ele>391</ele>
        <time>2016-02-07T09:00:37.000Z</time>
      </trkpt>
      <trkpt lat="47.48737" lon="6.73735">
        <ele>392</ele>
        <time>2016-02-07T09:00:41.000Z</time>
      </trkpt>
      <trkpt lat="47.48737" lon="6.73737">
        <ele>392</ele>
        <time>2016-02-07T09:00:42.000Z</time>
      </trkpt>
      <trkpt lat="47.48737" lon="6.73742">
        <ele>392</ele>
        <time>2016-02-07T09:00:45.000Z</time>
      </trkpt>
      <trkpt lat="47.48737" lon="6.73744">
        <ele>392</ele>
        <time>2016-02-07T09:00:46.000Z</time>
      </trkpt>
      <trkpt lat="47.48735" lon="6.73748">
        <ele>392</ele>
        <time>2016-02-07T09:00:50.000Z</time>
      </trkpt>
      <trkpt lat="47.48735" lon="6.7375">
        <ele>392</ele>
        <time>2016-02-07T09:00:51.000Z</time>
      </trkpt>
      <trkpt lat="47.48734" lon="6.73756">
        <ele>394</ele>
        <time>2016-02-07T09:00:53.000Z</time>
      </trkpt>
      <trkpt lat="47.48734" lon="6.73758">
        <ele>394</ele>
        <time>2016-02-07T09:00:54.000Z</time>
      </trkpt>
      <trkpt lat="47.48735" lon="6.73765">
        <ele>394</ele>
        <time>2016-02-07T09:00:57.000Z</time>
      </trkpt>
      <trkpt lat="47.48736" lon="6.73767">
        <ele>394</ele>
        <time>2016-02-07T09:00:58.000Z</time>
      </trkpt>
      <trkpt lat="47.48738" lon="6.73773">
        <ele>394</ele>
        <time>2016-02-07T09:01:01.000Z</time>
      </trkpt>
      <trkpt lat="47.48739" lon="6.73775">
        <ele>394</ele>
        <time>2016-02-07T09:01:02.000Z</time>
      </trkpt>
      <trkpt lat="47.4874" lon="6.73779">
        <ele>394</ele>
        <time>2016-02-07T09:01:04.000Z</time>
      </trkpt>
      <trkpt lat="47.4874" lon="6.73781">
        <ele>394</ele>
        <time>2016-02-07T09:01:05.000Z</time>
      </trkpt>
      <trkpt lat="47.4874" lon="6.73787">
        <ele>394</ele>
        <time>2016-02-07T09:01:08.000Z</time>
      </trkpt>
      <trkpt lat="47.4874" lon="6.73788">
        <ele>394</ele>
        <time>2016-02-07T09:01:09.000Z</time>
      </trkpt>
      <trkpt lat="47.48742" lon="6.73793">
        <ele>394</ele>
        <time>2016-02-07T09:01:12.000Z</time>
      </trkpt>
      <trkpt lat="47.48743" lon="6.73795">
        <ele>394</ele>
        <time>2016-02-07T09:01:13.000Z</time>
      </trkpt>
      <trkpt lat="47.48744" lon="6.738">
        <ele>395</ele>
        <time>2016-02-07T09:01:16.000Z</time>
      </trkpt>
      <trkpt lat="47.48745" lon="6.73802">
        <ele>395</ele>
        <time>2016-02-07T09:01:17.000Z</time>
      </trkpt>
      <trkpt lat="47.48747" lon="6.73806">
        <ele>395</ele>
        <time>2016-02-07T09:01:19.000Z</time>
      </trkpt>
      <trkpt lat="47.48747" lon="6.73807">
        <ele>395</ele>
        <time>2016-02-07T09:01:20.000Z</time>
      </trkpt>
      <trkpt lat="47.48749" lon="6.73813">
        <ele>396</ele>
        <time>2016-02-07T09:01:23.000Z</time>
      </trkpt>
      <trkpt lat="47.48749" lon="6.73816">
        <ele>396</ele>
        <time>2016-02-07T09:01:24.000Z</time>
      </trkpt>
      <trkpt lat="47.48749" lon="6.73822">
        <ele>397</ele>
        <time>2016-02-07T09:01:26.000Z</time>
      </trkpt>
      <trkpt lat="47.48749" lon="6.73824">
        <ele>398</ele>
        <time>2016-02-07T09:01:27.000Z</time>
      </trkpt>
      <trkpt lat="47.48748" lon="6.73829">
        <ele>399</ele>
        <time>2016-02-07T09:01:30.000Z</time>
      </trkpt>
      <trkpt lat="47.48748" lon="6.73831">
        <ele>399</ele>
        <time>2016-02-07T09:01:31.000Z</time>
      </trkpt>
      <trkpt lat="47.48749" lon="6.73837">
        <ele>400</ele>
        <time>2016-02-07T09:01:34.000Z</time>
      </trkpt>
      <trkpt lat="47.48749" lon="6.73839">
        <ele>400</ele>
        <time>2016-02-07T09:01:35.000Z</time>
      </trkpt>
      <trkpt lat="47.4875" lon="6.73844">
        <ele>400</ele>
        <time>2016-02-07T09:01:37.000Z</time>
      </trkpt>
      <trkpt lat="47.4875" lon="6.73847">
        <ele>403</ele>
        <time>2016-02-07T09:01:38.000Z</time>
      </trkpt>
      <trkpt lat="47.48751" lon="6.73852">
        <ele>403</ele>
        <time>2016-02-07T09:01:40.000Z</time>
      </trkpt>
      <trkpt lat="47.48751" lon="6.73854">
        <ele>404</ele>
        <time>2016-02-07T09:01:41.000Z</time>
      </trkpt>
      <trkpt lat="47.48752" lon="6.73858">
        <ele>404</ele>
        <time>2016-02-07T09:01:43.000Z</time>
      </trkpt>
      <trkpt lat="47.48752" lon="6.73861">
        <ele>405</ele>
        <time>2016-02-07T09:01:44.000Z</time>
      </trkpt>
      <trkpt lat="47.48753" lon="6.73867">
        <ele>405</ele>
        <time>2016-02-07T09:01:46.000Z</time>
      </trkpt>
      <trkpt lat="47.48754" lon="6.7387">
        <ele>405</ele>
        <time>2016-02-07T09:01:47.000Z</time>
      </trkpt>
      <trkpt lat="47.48754" lon="6.73876">
        <ele>406</ele>
        <time>2016-02-07T09:01:49.000Z</time>
      </trkpt>
      <trkpt lat="47.48754" lon="6.73878">
        <ele>406</ele>
        <time>2016-02-07T09:01:50.000Z</time>
      </trkpt>
      <trkpt lat="47.48755" lon="6.73883">
        <ele>406</ele>
        <time>2016-02-07T09:01:52.000Z</time>
      </trkpt>
      <trkpt lat="47.48756" lon="6.73885">
        <ele>407</ele>
        <time>2016-02-07T09:01:53.000Z</time>
      </trkpt>
      <trkpt lat="47.48756" lon="6.7389">
        <ele>407</ele>
        <time>2016-02-07T09:01:55.000Z</time>
      </trkpt>
      <trkpt lat="47.48756" lon="6.73892">
        <ele>407</ele>
        <time>2016-02-07T09:01:56.000Z</time>
      </trkpt>
      <trkpt lat="47.48757" lon="6.73897">
        <ele>407</ele>
        <time>2016-02-07T09:01:58.000Z</time>
      </trkpt>
      <trkpt lat="47.48757" lon="6.739">
        <ele>408</ele>
        <time>2016-02-07T09:01:59.000Z</time>
      </trkpt>
      <trkpt lat="47.48758" lon="6.73904">
        <ele>408</ele>
        <time>2016-02-07T09:02:01.000Z</time>
      </trkpt>
      <trkpt lat="47.48759" lon="6.73906">
        <ele>408</ele>
        <time>2016-02-07T09:02:02.000Z</time>
      </trkpt>
      <trkpt lat="47.4876" lon="6.7391">
        <ele>408</ele>
        <time>2016-02-07T09:02:04.000Z</time>
      </trkpt>
      <trkpt lat="47.48761" lon="6.73913">
        <ele>408</ele>
        <time>2016-02-07T09:02:05.000Z</time>
      </trkpt>
      <trkpt lat="47.48762" lon="6.73917">
        <ele>412</ele>
        <time>2016-02-07T09:02:07.000Z</time>
      </trkpt>
      <trkpt lat="47.48763" lon="6.73919">
        <ele>412</ele>
        <time>2016-02-07T09:02:08.000Z</time>
      </trkpt>
      <trkpt lat="47.48764" lon="6.73924">
        <ele>413</ele>
        <time>2016-02-07T09:02:10.000Z</time>
      </trkpt>
      <trkpt lat="47.48765" lon="6.73926">
        <ele>413</ele>
        <time>2016-02-07T09:02:11.000Z</time>
      </trkpt>
      <trkpt lat="47.48767" lon="6.73931">
        <ele>414</ele>
        <time>2016-02-07T09:02:14.000Z</time>
      </trkpt>
      <trkpt lat="47.48768" lon="6.73933">
        <ele>414</ele>
        <time>2016-02-07T09:02:15.000Z</time>
      </trkpt>
      <trkpt lat="47.48768" lon="6.73938">
        <ele>415</ele>
        <time>2016-02-07T09:02:17.000Z</time>
      </trkpt>
      <trkpt lat="47.48768" lon="6.73941">
        <ele>415</ele>
        <time>2016-02-07T09:02:18.000Z</time>
      </trkpt>
      <trkpt lat="47.48767" lon="6.73946">
        <ele>415</ele>
        <time>2016-02-07T09:02:20.000Z</time>
      </trkpt>
      <trkpt lat="47.48766" lon="6.73948">
        <ele>416</ele>
        <time>2016-02-07T09:02:21.000Z</time>
      </trkpt>
      <trkpt lat="47.48765" lon="6.73954">
        <ele>416</ele>
        <time>2016-02-07T09:02:24.000Z</time>
      </trkpt>
      <trkpt lat="47.48764" lon="6.73956">
        <ele>417</ele>
        <time>2016-02-07T09:02:25.000Z</time>
      </trkpt>
      <trkpt lat="47.48764" lon="6.73962">
        <ele>417</ele>
        <time>2016-02-07T09:02:28.000Z</time>
      </trkpt>
      <trkpt lat="47.48765" lon="6.73964">
        <ele>417</ele>
        <time>2016-02-07T09:02:29.000Z</time>
      </trkpt>
      <trkpt lat="47.48765" lon="6.73969">
        <ele>418</ele>
        <time>2016-02-07T09:02:32.000Z</time>
      </trkpt>
      <trkpt lat="47.48766" lon="6.73971">
        <ele>418</ele>
        <time>2016-02-07T09:02:33.000Z</time>
      </trkpt>
      <trkpt lat="47.48768" lon="6.73975">
        <ele>419</ele>
        <time>2016-02-07T09:02:36.000Z</time>
      </trkpt>
      <trkpt lat="47.48769" lon="6.73976">
        <ele>419</ele>
        <time>2016-02-07T09:02:37.000Z</time>
      </trkpt>
      <trkpt lat="47.48771" lon="6.7398">
        <ele>419</ele>
        <time>2016-02-07T09:02:41.000Z</time>
      </trkpt>
      <trkpt lat="47.48771" lon="6.73982">
        <ele>419</ele>
        <time>2016-02-07T09:02:42.000Z</time>
      </trkpt>
      <trkpt lat="47.48771" lon="6.73988">
        <ele>420</ele>
        <time>2016-02-07T09:02:44.000Z</time>
      </trkpt>
      <trkpt lat="47.48771" lon="6.73992">
        <ele>420</ele>
        <time>2016-02-07T09:02:45.000Z</time>
      </trkpt>
      <trkpt lat="47.48771" lon="6.73997">
        <ele>420</ele>
        <time>2016-02-07T09:02:47.000Z</time>
      </trkpt>
      <trkpt lat="47.4877" lon="6.74">
        <ele>426</ele>
        <time>2016-02-07T09:02:48.000Z</time>
      </trkpt>
      <trkpt lat="47.4877" lon="6.74005">
        <ele>426</ele>
        <time>2016-02-07T09:02:50.000Z</time>
      </trkpt>
      <trkpt lat="47.4877" lon="6.74007">
        <ele>426</ele>
        <time>2016-02-07T09:02:51.000Z</time>
      </trkpt>
      <trkpt lat="47.4877" lon="6.74011">
        <ele>426</ele>
        <time>2016-02-07T09:02:53.000Z</time>
      </trkpt>
      <trkpt lat="47.48769" lon="6.74013">
        <ele>426</ele>
        <time>2016-02-07T09:02:54.000Z</time>
      </trkpt>
      <trkpt lat="47.48768" lon="6.74019">
        <ele>426</ele>
        <time>2016-02-07T09:02:57.000Z</time>
      </trkpt>
      <trkpt lat="47.48768" lon="6.7402">
        <ele>426</ele>
        <time>2016-02-07T09:02:58.000Z</time>
      </trkpt>
      <trkpt lat="47.48768" lon="6.74026">
        <ele>426</ele>
        <time>2016-02-07T09:03:01.000Z</time>
      </trkpt>
      <trkpt lat="47.48768" lon="6.74028">
        <ele>427</ele>
        <time>2016-02-07T09:03:02.000Z</time>
      </trkpt>
      <trkpt lat="47.4877" lon="6.74032">
        <ele>427</ele>
        <time>2016-02-07T09:03:04.000Z</time>
      </trkpt>
      <trkpt lat="47.4877" lon="6.74035">
        <ele>427</ele>
        <time>2016-02-07T09:03:05.000Z</time>
      </trkpt>
      <trkpt lat="47.48771" lon="6.7404">
        <ele>427</ele>
        <time>2016-02-07T09:03:07.000Z</time>
      </trkpt>
      <trkpt lat="47.48771" lon="6.74043">
        <ele>427</ele>
        <time>2016-02-07T09:03:08.000Z</time>
      </trkpt>
      <trkpt lat="47.48773" lon="6.74049">
        <ele>428</ele>
        <time>2016-02-07T09:03:11.000Z</time>
      </trkpt>
      <trkpt lat="47.48773" lon="6.74051">
        <ele>428</ele>
        <time>2016-02-07T09:03:12.000Z</time>
      </trkpt>
      <trkpt lat="47.48774" lon="6.74056">
        <ele>428</ele>
        <time>2016-02-07T09:03:14.000Z</time>
      </trkpt>
      <trkpt lat="47.48775" lon="6.74058">
        <ele>428</ele>
        <time>2016-02-07T09:03:15.000Z</time>
      </trkpt>
      <trkpt lat="47.48776" lon="6.74062">
        <ele>428</ele>
        <time>2016-02-07T09:03:18.000Z</time>
      </trkpt>
      <trkpt lat="47.48777" lon="6.74064">
        <ele>428</ele>
        <time>2016-02-07T09:03:19.000Z</time>
      </trkpt>
      <trkpt lat="47.48777" lon="6.74069">
        <ele>429</ele>
        <time>2016-02-07T09:03:23.000Z</time>
      </trkpt>
      <trkpt lat="47.48777" lon="6.74071">
        <ele>429</ele>
        <time>2016-02-07T09:03:24.000Z</time>
      </trkpt>
      <trkpt lat="47.48778" lon="6.74076">
        <ele>429</ele>
        <time>2016-02-07T09:03:28.000Z</time>
      </trkpt>
      <trkpt lat="47.48778" lon="6.74078">
        <ele>429</ele>
        <time>2016-02-07T09:03:29.000Z</time>
      </trkpt>
      <trkpt lat="47.48779" lon="6.74083">
        <ele>429</ele>
        <time>2016-02-07T09:03:31.000Z</time>
      </trkpt>
      <trkpt lat="47.48779" lon="6.74084">
        <ele>433</ele>
        <time>2016-02-07T09:03:32.000Z</time>
      </trkpt>
      <trkpt lat="47.48781" lon="6.7409">
        <ele>433</ele>
        <time>2016-02-07T09:03:35.000Z</time>
      </trkpt>
      <trkpt lat="47.48781" lon="6.74092">
        <ele>433</ele>
        <time>2016-02-07T09:03:36.000Z</time>
      </trkpt>
      <trkpt lat="47.48782" lon="6.74098">
        <ele>433</ele>
        <time>2016-02-07T09:03:39.000Z</time>
      </trkpt>
      <trkpt lat="47.48782" lon="6.74099">
        <ele>433</ele>
        <time>2016-02-07T09:03:40.000Z</time>
      </trkpt>
      <trkpt lat="47.48782" lon="6.74105">
        <ele>434</ele>
        <time>2016-02-07T09:03:43.000Z</time>
      </trkpt>
      <trkpt lat="47.48782" lon="6.74106">
        <ele>434</ele>
        <time>2016-02-07T09:03:44.000Z</time>
      </trkpt>
      <trkpt lat="47.48783" lon="6.74112">
        <ele>434</ele>
        <time>2016-02-07T09:03:48.000Z</time>
      </trkpt>
      <trkpt lat="47.48784" lon="6.74114">
        <ele>434</ele>
        <time>2016-02-07T09:03:49.000Z</time>
      </trkpt>
      <trkpt lat="47.48783" lon="6.74119">
        <ele>434</ele>
        <time>2016-02-07T09:03:51.000Z</time>
      </trkpt>
      <trkpt lat="47.48783" lon="6.74122">
        <ele>434</ele>
        <time>2016-02-07T09:03:52.000Z</time>
      </trkpt>
      <trkpt lat="47.48784" lon="6.74127">
        <ele>435</ele>
        <time>2016-02-07T09:03:54.000Z</time>
      </trkpt>
      <trkpt lat="47.48784" lon="6.7413">
        <ele>435</ele>
        <time>2016-02-07T09:03:55.000Z</time>
      </trkpt>
      <trkpt lat="47.48784" lon="6.74136">
        <ele>435</ele>
        <time>2016-02-07T09:03:58.000Z</time>
      </trkpt>
      <trkpt lat="47.48784" lon="6.74138">
        <ele>435</ele>
        <time>2016-02-07T09:03:59.000Z</time>
      </trkpt>
      <trkpt lat="47.48784" lon="6.74143">
        <ele>435</ele>
        <time>2016-02-07T09:04:03.000Z</time>
      </trkpt>
      <trkpt lat="47.48784" lon="6.74144">
        <ele>435</ele>
        <time>2016-02-07T09:04:04.000Z</time>
      </trkpt>
      <trkpt lat="47.48785" lon="6.74149">
        <ele>435</ele>
        <time>2016-02-07T09:04:09.000Z</time>
      </trkpt>
      <trkpt lat="47.48785" lon="6.74151">
        <ele>436</ele>
        <time>2016-02-07T09:04:10.000Z</time>
      </trkpt>
      <trkpt lat="47.48787" lon="6.74156">
        <ele>436</ele>
        <time>2016-02-07T09:04:13.000Z</time>
      </trkpt>
      <trkpt lat="47.48787" lon="6.74158">
        <ele>436</ele>
        <time>2016-02-07T09:04:14.000Z</time>
      </trkpt>
      <trkpt lat="47.48789" lon="6.74163">
        <ele>436</ele>
        <time>2016-02-07T09:04:18.000Z</time>
      </trkpt>
      <trkpt lat="47.48789" lon="6.74164">
        <ele>436</ele>
        <time>2016-02-07T09:04:19.000Z</time>
      </trkpt>
      <trkpt lat="47.4879" lon="6.74169">
        <ele>440</ele>
        <time>2016-02-07T09:04:22.000Z</time>
      </trkpt>
      <trkpt lat="47.4879" lon="6.74171">
        <ele>440</ele>
        <time>2016-02-07T09:04:23.000Z</time>
      </trkpt>
      <trkpt lat="47.4879" lon="6.74176">
        <ele>440</ele>
        <time>2016-02-07T09:04:25.000Z</time>
      </trkpt>
      <trkpt lat="47.48789" lon="6.74179">
        <ele>440</ele>
        <time>2016-02-07T09:04:26.000Z</time>
      </trkpt>
      <trkpt lat="47.48791" lon="6.74185">
        <ele>440</ele>
        <time>2016-02-07T09:04:29.000Z</time>
      </trkpt>
      <trkpt lat="47.48791" lon="6.74187">
        <ele>440</ele>
        <time>2016-02-07T09:04:30.000Z</time>
      </trkpt>
      <trkpt lat="47.48792" lon="6.74191">
        <ele>440</ele>
        <time>2016-02-07T09:04:33.000Z</time>
      </trkpt>
      <trkpt lat="47.48793" lon="6.74193">
        <ele>440</ele>
        <time>2016-02-07T09:04:34.000Z</time>
      </trkpt>
      <trkpt lat="47.48793" lon="6.74199">
        <ele>440</ele>
        <time>2016-02-07T09:04:37.000Z</time>
      </trkpt>
      <trkpt lat="47.48793" lon="6.74202">
        <ele>441</ele>
        <time>2016-02-07T09:04:38.000Z</time>
      </trkpt>
      <trkpt lat="47.48793" lon="6.74207">
        <ele>441</ele>
        <time>2016-02-07T09:04:41.000Z</time>
      </trkpt>
      <trkpt lat="47.48792" lon="6.74209">
        <ele>441</ele>
        <time>2016-02-07T09:04:42.000Z</time>
      </trkpt>
      <trkpt lat="47.48792" lon="6.74214">
        <ele>441</ele>
        <time>2016-02-07T09:04:45.000Z</time>
      </trkpt>
      <trkpt lat="47.48792" lon="6.74217">
        <ele>441</ele>
        <time>2016-02-07T09:04:46.000Z</time>
      </trkpt>
      <trkpt lat="47.48792" lon="6.74221">
        <ele>441</ele>
        <time>2016-02-07T09:04:48.000Z</time>
      </trkpt>
      <trkpt lat="47.48792" lon="6.74223">
        <ele>441</ele>
        <time>2016-02-07T09:04:49.000Z</time>
      </trkpt>
      <trkpt lat="47.48792" lon="6.74228">
        <ele>441</ele>
        <time>2016-02-07T09:04:51.000Z</time>
      </trkpt>
      <trkpt lat="47.48792" lon="6.7423">
        <ele>441</ele>
        <time>2016-02-07T09:04:52.000Z</time>
      </trkpt>
      <trkpt lat="47.48792" lon="6.74234">
        <ele>441</ele>
        <time>2016-02-07T09:04:54.000Z</time>
      </trkpt>
      <trkpt lat="47.48792" lon="6.74237">
        <ele>442</ele>
        <time>2016-02-07T09:04:55.000Z</time>
      </trkpt>
      <trkpt lat="47.48792" lon="6.74243">
        <ele>442</ele>
        <time>2016-02-07T09:04:57.000Z</time>
      </trkpt>
      <trkpt lat="47.48791" lon="6.74245">
        <ele>442</ele>
        <time>2016-02-07T09:04:58.000Z</time>
      </trkpt>
      <trkpt lat="47.48791" lon="6.7425">
        <ele>442</ele>
        <time>2016-02-07T09:04:59.999Z</time>
      </trkpt>
      <trkpt lat="47.48791" lon="6.74254">
        <ele>444</ele>
        <time>2016-02-07T09:05:01.000Z</time>
      </trkpt>
      <trkpt lat="47.48792" lon="6.74259">
        <ele>444</ele>
        <time>2016-02-07T09:05:03.000Z</time>
      </trkpt>
      <trkpt lat="47.48793" lon="6.7426">
        <ele>444</ele>
        <time>2016-02-07T09:05:04.000Z</time>
      </trkpt>
      <trkpt lat="47.48794" lon="6.74265">
        <ele>444</ele>
        <time>2016-02-07T09:05:06.000Z</time>
      </trkpt>
      <trkpt lat="47.48794" lon="6.74268">
        <ele>444</ele>
        <time>2016-02-07T09:05:07.000Z</time>
      </trkpt>
      <trkpt lat="47.48794" lon="6.74273">
        <ele>444</ele>
        <time>2016-02-07T09:05:09.000Z</time>
      </trkpt>
      <trkpt lat="47.48795" lon="6.74275">
        <ele>444</ele>
        <time>2016-02-07T09:05:10.000Z</time>
      </trkpt>
      <trkpt lat="47.48797" lon="6.7428">
        <ele>444</ele>
        <time>2016-02-07T09:05:12.000Z</time>
      </trkpt>
      <trkpt lat="47.48798" lon="6.74283">
        <ele>444</ele>
        <time>2016-02-07T09:05:13.000Z</time>
      </trkpt>
      <trkpt lat="47.48799" lon="6.74288">
        <ele>444</ele>
        <time>2016-02-07T09:05:15.000Z</time>
      </trkpt>
      <trkpt lat="47.48799" lon="6.74289">
        <ele>444</ele>
        <time>2016-02-07T09:05:16.000Z</time>
      </trkpt>
      <trkpt lat="47.48801" lon="6.74294">
        <ele>444</ele>
        <time>2016-02-07T09:05:19.000Z</time>
      </trkpt>
      <trkpt lat="47.48801" lon="6.74296">
        <ele>444</ele>
        <time>2016-02-07T09:05:20.000Z</time>
      </trkpt>
      <trkpt lat="47.48803" lon="6.74302">
        <ele>444</ele>
        <time>2016-02-07T09:05:24.000Z</time>
      </trkpt>
      <trkpt lat="47.48804" lon="6.74304">
        <ele>444</ele>
        <time>2016-02-07T09:05:25.000Z</time>
      </trkpt>
      <trkpt lat="47.48805" lon="6.74308">
        <ele>444</ele>
        <time>2016-02-07T09:05:27.000Z</time>
      </trkpt>
      <trkpt lat="47.48805" lon="6.7431">
        <ele>444</ele>
        <time>2016-02-07T09:05:28.000Z</time>
      </trkpt>
      <trkpt lat="47.48805" lon="6.74315">
        <ele>444</ele>
        <time>2016-02-07T09:05:31.000Z</time>
      </trkpt>
      <trkpt lat="47.48805" lon="6.74317">
        <ele>444</ele>
        <time>2016-02-07T09:05:32.000Z</time>
      </trkpt>
      <trkpt lat="47.48806" lon="6.74323">
        <ele>444</ele>
        <time>2016-02-07T09:05:35.000Z</time>
      </trkpt>
      <trkpt lat="47.48805" lon="6.74326">
        <ele>444</ele>
        <time>2016-02-07T09:05:36.000Z</time>
      </trkpt>
      <trkpt lat="47.48806" lon="6.7433">
        <ele>444</ele>
        <time>2016-02-07T09:05:38.000Z</time>
      </trkpt>
      <trkpt lat="47.48807" lon="6.74333">
        <ele>444</ele>
        <time>2016-02-07T09:05:39.000Z</time>
      </trkpt>
      <trkpt lat="47.48807" lon="6.74338">
        <ele>446</ele>
        <time>2016-02-07T09:05:41.000Z</time>
      </trkpt>
      <trkpt lat="47.48807" lon="6.74341">
        <ele>446</ele>
        <time>2016-02-07T09:05:42.000Z</time>
      </trkpt>
      <trkpt lat="47.48807" lon="6.74347">
        <ele>446</ele>
        <time>2016-02-07T09:05:45.000Z</time>
      </trkpt>
      <trkpt lat="47.48807" lon="6.74349">
        <ele>446</ele>
        <time>2016-02-07T09:05:46.000Z</time>
      </trkpt>
      <trkpt lat="47.48806" lon="6.74353">
        <ele>446</ele>
        <time>2016-02-07T09:05:49.000Z</time>
      </trkpt>
      <trkpt lat="47.48806" lon="6.74356">
        <ele>446</ele>
        <time>2016-02-07T09:05:50.000Z</time>
      </trkpt>
      <trkpt lat="47.48806" lon="6.7436">
        <ele>447</ele>
        <time>2016-02-07T09:05:52.000Z</time>
      </trkpt>
      <trkpt lat="47.48806" lon="6.74362">
        <ele>447</ele>
        <time>2016-02-07T09:05:53.000Z</time>
      </trkpt>
      <trkpt lat="47.48805" lon="6.74367">
        <ele>447</ele>
        <time>2016-02-07T09:05:55.000Z</time>
      </trkpt>
      <trkpt lat="47.48804" lon="6.7437">
        <ele>447</ele>
        <time>2016-02-07T09:05:56.000Z</time>
      </trkpt>
      <trkpt lat="47.48803" lon="6.74376">
        <ele>447</ele>
        <time>2016-02-07T09:05:58.000Z</time>
      </trkpt>
      <trkpt lat="47.48803" lon="6.74379">
        <ele>447</ele>
        <time>2016-02-07T09:05:59.000Z</time>
      </trkpt>
      <trkpt lat="47.48802" lon="6.74385">
        <ele>447</ele>
        <time>2016-02-07T09:06:01.000Z</time>
      </trkpt>
      <trkpt lat="47.48802" lon="6.74387">
        <ele>447</ele>
        <time>2016-02-07T09:06:02.000Z</time>
      </trkpt>
      <trkpt lat="47.48801" lon="6.74393">
        <ele>447</ele>
        <time>2016-02-07T09:06:05.000Z</time>
      </trkpt>
      <trkpt lat="47.48802" lon="6.74395">
        <ele>447</ele>
        <time>2016-02-07T09:06:06.000Z</time>
      </trkpt>
      <trkpt lat="47.48802" lon="6.744">
        <ele>447</ele>
        <time>2016-02-07T09:06:08.000Z</time>
      </trkpt>
      <trkpt lat="47.48802" lon="6.74402">
        <ele>447</ele>
        <time>2016-02-07T09:06:09.000Z</time>
      </trkpt>
      <trkpt lat="47.48802" lon="6.74408">
        <ele>447</ele>
        <time>2016-02-07T09:06:12.000Z</time>
      </trkpt>
      <trkpt lat="47.48803" lon="6.74409">
        <ele>447</ele>
        <time>2016-02-07T09:06:13.000Z</time>
      </trkpt>
      <trkpt lat="47.48804" lon="6.74415">
        <ele>447</ele>
        <time>2016-02-07T09:06:16.000Z</time>
      </trkpt>
      <trkpt lat="47.48805" lon="6.74417">
        <ele>448</ele>
        <time>2016-02-07T09:06:17.000Z</time>
      </trkpt>
      <trkpt lat="47.48805" lon="6.74422">
        <ele>448</ele>
        <time>2016-02-07T09:06:20.000Z</time>
      </trkpt>
      <trkpt lat="47.48806" lon="6.74424">
        <ele>448</ele>
        <time>2016-02-07T09:06:21.000Z</time>
      </trkpt>
      <trkpt lat="47.48806" lon="6.7443">
        <ele>448</ele>
        <time>2016-02-07T09:06:24.000Z</time>
      </trkpt>
      <trkpt lat="47.48807" lon="6.74432">
        <ele>448</ele>
        <time>2016-02-07T09:06:25.000Z</time>
      </trkpt>
      <trkpt lat="47.48807" lon="6.74437">
        <ele>448</ele>
        <time>2016-02-07T09:06:28.000Z</time>
      </trkpt>
      <trkpt lat="47.48807" lon="6.74439">
        <ele>448</ele>
        <time>2016-02-07T09:06:29.000Z</time>
      </trkpt>
      <trkpt lat="47.48808" lon="6.74444">
        <ele>449</ele>
        <time>2016-02-07T09:06:31.000Z</time>
      </trkpt>
      <trkpt lat="47.48808" lon="6.74446">
        <ele>449</ele>
        <time>2016-02-07T09:06:32.000Z</time>
      </trkpt>
      <trkpt lat="47.48807" lon="6.7445">
        <ele>449</ele>
        <time>2016-02-07T09:06:34.000Z</time>
      </trkpt>
      <trkpt lat="47.48806" lon="6.74453">
        <ele>449</ele>
        <time>2016-02-07T09:06:35.000Z</time>
      </trkpt>
      <trkpt lat="47.48805" lon="6.74458">
        <ele>449</ele>
        <time>2016-02-07T09:06:38.000Z</time>
      </trkpt>
      <trkpt lat="47.48804" lon="6.74459">
        <ele>449</ele>
        <time>2016-02-07T09:06:39.000Z</time>
      </trkpt>
      <trkpt lat="47.48802" lon="6.74464">
        <ele>449</ele>
        <time>2016-02-07T09:06:42.000Z</time>
      </trkpt>
      <trkpt lat="47.48801" lon="6.74466">
        <ele>449</ele>
        <time>2016-02-07T09:06:43.000Z</time>
      </trkpt>
      <trkpt lat="47.488" lon="6.7447">
        <ele>449</ele>
        <time>2016-02-07T09:06:45.000Z</time>
      </trkpt>
      <trkpt lat="47.48799" lon="6.74472">
        <ele>449</ele>
        <time>2016-02-07T09:06:46.000Z</time>
      </trkpt>
      <trkpt lat="47.48798" lon="6.74475">
        <ele>449</ele>
        <time>2016-02-07T09:06:47.000Z</time>
      </trkpt>
      <trkpt lat="47.48797" lon="6.74478">
        <ele>449</ele>
        <time>2016-02-07T09:06:48.000Z</time>
      </trkpt>
      <trkpt lat="47.48795" lon="6.74481">
        <ele>449</ele>
        <time>2016-02-07T09:06:49.000Z</time>
      </trkpt>
      <trkpt lat="47.48794" lon="6.74484">
        <ele>449</ele>
        <time>2016-02-07T09:06:50.000Z</time>
      </trkpt>
      <trkpt lat="47.48792" lon="6.74489">
        <ele>449</ele>
        <time>2016-02-07T09:06:52.000Z</time>
      </trkpt>
      <trkpt lat="47.48792" lon="6.74491">
        <ele>450</ele>
        <time>2016-02-07T09:06:53.000Z</time>
      </trkpt>
      <trkpt lat="47.4879" lon="6.74497">
        <ele>450</ele>
        <time>2016-02-07T09:06:56.000Z</time>
      </trkpt>
      <trkpt lat="47.48789" lon="6.74499">
        <ele>450</ele>
        <time>2016-02-07T09:06:57.000Z</time>
      </trkpt>
      <trkpt lat="47.48787" lon="6.74504">
        <ele>451</ele>
        <time>2016-02-07T09:06:59.000Z</time>
      </trkpt>
      <trkpt lat="47.48787" lon="6.74506">
        <ele>451</ele>
        <time>2016-02-07T09:07:00.000Z</time>
      </trkpt>
      <trkpt lat="47.48786" lon="6.74512">
        <ele>451</ele>
        <time>2016-02-07T09:07:03.000Z</time>
      </trkpt>
      <trkpt lat="47.48786" lon="6.74514">
        <ele>451</ele>
        <time>2016-02-07T09:07:04.000Z</time>
      </trkpt>
      <trkpt lat="47.48786" lon="6.74519">
        <ele>451</ele>
        <time>2016-02-07T09:07:06.000Z</time>
      </trkpt>
      <trkpt lat="47.48786" lon="6.74521">
        <ele>451</ele>
        <time>2016-02-07T09:07:07.000Z</time>
      </trkpt>
      <trkpt lat="47.48785" lon="6.74527">
        <ele>451</ele>
        <time>2016-02-07T09:07:09.000Z</time>
      </trkpt>
      <trkpt lat="47.48784" lon="6.7453">
        <ele>451</ele>
        <time>2016-02-07T09:07:10.000Z</time>
      </trkpt>
      <trkpt lat="47.48782" lon="6.74535">
        <ele>451</ele>
        <time>2016-02-07T09:07:12.000Z</time>
      </trkpt>
      <trkpt lat="47.48782" lon="6.74538">
        <ele>451</ele>
        <time>2016-02-07T09:07:13.000Z</time>
      </trkpt>
      <trkpt lat="47.48781" lon="6.74543">
        <ele>451</ele>
        <time>2016-02-07T09:07:15.000Z</time>
      </trkpt>
      <trkpt lat="47.48781" lon="6.74545">
        <ele>451</ele>
        <time>2016-02-07T09:07:16.000Z</time>
      </trkpt>
      <trkpt lat="47.48781" lon="6.7455">
        <ele>451</ele>
        <time>2016-02-07T09:07:18.000Z</time>
      </trkpt>
      <trkpt lat="47.48781" lon="6.74553">
        <ele>451</ele>
        <time>2016-02-07T09:07:19.000Z</time>
      </trkpt>
      <trkpt lat="47.48781" lon="6.74558">
        <ele>451</ele>
        <time>2016-02-07T09:07:21.000Z</time>
      </trkpt>
      <trkpt lat="47.48781" lon="6.74561">
        <ele>451</ele>
        <time>2016-02-07T09:07:22.000Z</time>
      </trkpt>
      <trkpt lat="47.4878" lon="6.74567">
        <ele>452</ele>
        <time>2016-02-07T09:07:24.000Z</time>
      </trkpt>
      <trkpt lat="47.4878" lon="6.7457">
        <ele>452</ele>
        <time>2016-02-07T09:07:25.000Z</time>
      </trkpt>
      <trkpt lat="47.48779" lon="6.74574">
        <ele>452</ele>
        <time>2016-02-07T09:07:27.000Z</time>
      </trkpt>
      <trkpt lat="47.48778" lon="6.74577">
        <ele>452</ele>
        <time>2016-02-07T09:07:28.000Z</time>
      </trkpt>
      <trkpt lat="47.48778" lon="6.74582">
        <ele>452</ele>
        <time>2016-02-07T09:07:30.000Z</time>
      </trkpt>
      <trkpt lat="47.48777" lon="6.74585">
        <ele>453</ele>
        <time>2016-02-07T09:07:31.000Z</time>
      </trkpt>
      <trkpt lat="47.48777" lon="6.74591">
        <ele>453</ele>
        <time>2016-02-07T09:07:33.000Z</time>
      </trkpt>
      <trkpt lat="47.48777" lon="6.74594">
        <ele>453</ele>
        <time>2016-02-07T09:07:34.000Z</time>
      </trkpt>
      <trkpt lat="47.48777" lon="6.74597">
        <ele>453</ele>
        <time>2016-02-07T09:07:35.000Z</time>
      </trkpt>
      <trkpt lat="47.48778" lon="6.74601">
        <ele>453</ele>
        <time>2016-02-07T09:07:36.000Z</time>
      </trkpt>
      <trkpt lat="47.48779" lon="6.74604">
        <ele>453</ele>
        <time>2016-02-07T09:07:37.000Z</time>
      </trkpt>
      <trkpt lat="47.48779" lon="6.74608">
        <ele>453</ele>
        <time>2016-02-07T09:07:38.000Z</time>
      </trkpt>
      <trkpt lat="47.48779" lon="6.74611">
        <ele>453</ele>
        <time>2016-02-07T09:07:39.000Z</time>
      </trkpt>
      <trkpt lat="47.48778" lon="6.74614">
        <ele>453</ele>
        <time>2016-02-07T09:07:40.000Z</time>
      </trkpt>
      <trkpt lat="47.48778" lon="6.74621">
        <ele>453</ele>
        <time>2016-02-07T09:07:42.000Z</time>
      </trkpt>
      <trkpt lat="47.48778" lon="6.74624">
        <ele>453</ele>
        <time>2016-02-07T09:07:43.000Z</time>
      </trkpt>
      <trkpt lat="47.48779" lon="6.7463">
        <ele>453</ele>
        <time>2016-02-07T09:07:45.000Z</time>
      </trkpt>
      <trkpt lat="47.48779" lon="6.74634">
        <ele>453</ele>
        <time>2016-02-07T09:07:46.000Z</time>
      </trkpt>
      <trkpt lat="47.48779" lon="6.74638">
        <ele>453</ele>
        <time>2016-02-07T09:07:47.000Z</time>
      </trkpt>
      <trkpt lat="47.48779" lon="6.74642">
        <ele>453</ele>
        <time>2016-02-07T09:07:48.000Z</time>
      </trkpt>
      <trkpt lat="47.48779" lon="6.74646">
        <ele>453</ele>
        <time>2016-02-07T09:07:49.000Z</time>
      </trkpt>
      <trkpt lat="47.48778" lon="6.74649">
        <ele>453</ele>
        <time>2016-02-07T09:07:50.000Z</time>
      </trkpt>
      <trkpt lat="47.48778" lon="6.74655">
        <ele>453</ele>
        <time>2016-02-07T09:07:52.000Z</time>
      </trkpt>
      <trkpt lat="47.48778" lon="6.74658">
        <ele>453</ele>
        <time>2016-02-07T09:07:53.000Z</time>
      </trkpt>
      <trkpt lat="47.48779" lon="6.74663">
        <ele>453</ele>
        <time>2016-02-07T09:07:55.000Z</time>
      </trkpt>
      <trkpt lat="47.48779" lon="6.74666">
        <ele>453</ele>
        <time>2016-02-07T09:07:56.000Z</time>
      </trkpt>
      <trkpt lat="47.48779" lon="6.7467">
        <ele>454</ele>
        <time>2016-02-07T09:07:57.000Z</time>
      </trkpt>
      <trkpt lat="47.48779" lon="6.74673">
        <ele>454</ele>
        <time>2016-02-07T09:07:58.000Z</time>
      </trkpt>
      <trkpt lat="47.48779" lon="6.7468">
        <ele>454</ele>
        <time>2016-02-07T09:08:00.000Z</time>
      </trkpt>
      <trkpt lat="47.48779" lon="6.74683">
        <ele>454</ele>
        <time>2016-02-07T09:08:01.000Z</time>
      </trkpt>
      <trkpt lat="47.4878" lon="6.74689">
        <ele>454</ele>
        <time>2016-02-07T09:08:03.000Z</time>
      </trkpt>
      <trkpt lat="47.4878" lon="6.74692">
        <ele>454</ele>
        <time>2016-02-07T09:08:04.000Z</time>
      </trkpt>
      <trkpt lat="47.4878" lon="6.74696">
        <ele>454</ele>
        <time>2016-02-07T09:08:05.000Z</time>
      </trkpt>
      <trkpt lat="47.4878" lon="6.74699">
        <ele>454</ele>
        <time>2016-02-07T09:08:06.000Z</time>
      </trkpt>
      <trkpt lat="47.4878" lon="6.74704">
        <ele>454</ele>
        <time>2016-02-07T09:08:07.000Z</time>
      </trkpt>
      <trkpt lat="47.4878" lon="6.74708">
        <ele>454</ele>
        <time>2016-02-07T09:08:08.000Z</time>
      </trkpt>
      <trkpt lat="47.4878" lon="6.74712">
        <ele>454</ele>
        <time>2016-02-07T09:08:09.000Z</time>
      </trkpt>
      <trkpt lat="47.4878" lon="6.74716">
        <ele>455</ele>
        <time>2016-02-07T09:08:10.000Z</time>
      </trkpt>
      <trkpt lat="47.48779" lon="6.74722">
        <ele>455</ele>
        <time>2016-02-07T09:08:12.000Z</time>
      </trkpt>
      <trkpt lat="47.4878" lon="6.74725">
        <ele>455</ele>
        <time>2016-02-07T09:08:13.000Z</time>
      </trkpt>
      <trkpt lat="47.4878" lon="6.7473">
        <ele>455</ele>
        <time>2016-02-07T09:08:15.000Z</time>
      </trkpt>
      <trkpt lat="47.4878" lon="6.74732">
        <ele>455</ele>
        <time>2016-02-07T09:08:16.000Z</time>
      </trkpt>
      <trkpt lat="47.48781" lon="6.74736">
        <ele>455</ele>
        <time>2016-02-07T09:08:18.000Z</time>
      </trkpt>
      <trkpt lat="47.48781" lon="6.74739">
        <ele>455</ele>
        <time>2016-02-07T09:08:19.000Z</time>
      </trkpt>
      <trkpt lat="47.48783" lon="6.74744">
        <ele>455</ele>
        <time>2016-02-07T09:08:21.000Z</time>
      </trkpt>
      <trkpt lat="47.48784" lon="6.74747">
        <ele>455</ele>
        <time>2016-02-07T09:08:22.000Z</time>
      </trkpt>
      <trkpt lat="47.48786" lon="6.74753">
        <ele>456</ele>
        <time>2016-02-07T09:08:24.000Z</time>
      </trkpt>
      <trkpt lat="47.48786" lon="6.74756">
        <ele>456</ele>
        <time>2016-02-07T09:08:25.000Z</time>
      </trkpt>
      <trkpt lat="47.48787" lon="6.74759">
        <ele>456</ele>
        <time>2016-02-07T09:08:26.000Z</time>
      </trkpt>
      <trkpt lat="47.48788" lon="6.74763">
        <ele>456</ele>
        <time>2016-02-07T09:08:27.000Z</time>
      </trkpt>
      <trkpt lat="47.48788" lon="6.74767">
        <ele>456</ele>
        <time>2016-02-07T09:08:28.000Z</time>
      </trkpt>
      <trkpt lat="47.48788" lon="6.7477">
        <ele>456</ele>
        <time>2016-02-07T09:08:29.000Z</time>
      </trkpt>
      <trkpt lat="47.48788" lon="6.74773">
        <ele>456</ele>
        <time>2016-02-07T09:08:30.000Z</time>
      </trkpt>
      <trkpt lat="47.48789" lon="6.74777">
        <ele>456</ele>
        <time>2016-02-07T09:08:31.000Z</time>
      </trkpt>
      <trkpt lat="47.4879" lon="6.7478">
        <ele>456</ele>
        <time>2016-02-07T09:08:32.000Z</time>
      </trkpt>
      <trkpt lat="47.48791" lon="6.74783">
        <ele>455</ele>
        <time>2016-02-07T09:08:33.000Z</time>
      </trkpt>
      <trkpt lat="47.48791" lon="6.74789">
        <ele>455</ele>
        <time>2016-02-07T09:08:35.000Z</time>
      </trkpt>
      <trkpt lat="47.48792" lon="6.74792">
        <ele>455</ele>
        <time>2016-02-07T09:08:36.000Z</time>
      </trkpt>
      <trkpt lat="47.48793" lon="6.74795">
        <ele>455</ele>
        <time>2016-02-07T09:08:37.000Z</time>
      </trkpt>
      <trkpt lat="47.48794" lon="6.74798">
        <ele>455</ele>
        <time>2016-02-07T09:08:38.000Z</time>
      </trkpt>
      <trkpt lat="47.48795" lon="6.74803">
        <ele>455</ele>
        <time>2016-02-07T09:08:40.000Z</time>
      </trkpt>
      <trkpt lat="47.48795" lon="6.74806">
        <ele>455</ele>
        <time>2016-02-07T09:08:41.000Z</time>
      </trkpt>
      <trkpt lat="47.48795" lon="6.74809">
        <ele>455</ele>
        <time>2016-02-07T09:08:42.000Z</time>
      </trkpt>
      <trkpt lat="47.48796" lon="6.74814">
        <ele>455</ele>
        <time>2016-02-07T09:08:43.000Z</time>
      </trkpt>
      <trkpt lat="47.48796" lon="6.74818">
        <ele>455</ele>
        <time>2016-02-07T09:08:44.000Z</time>
      </trkpt>
      <trkpt lat="47.48797" lon="6.74823">
        <ele>455</ele>
        <time>2016-02-07T09:08:45.000Z</time>
      </trkpt>
      <trkpt lat="47.48798" lon="6.74828">
        <ele>455</ele>
        <time>2016-02-07T09:08:46.000Z</time>
      </trkpt>
      <trkpt lat="47.488" lon="6.74833">
        <ele>455</ele>
        <time>2016-02-07T09:08:47.000Z</time>
      </trkpt>
      <trkpt lat="47.48801" lon="6.74836">
        <ele>455</ele>
        <time>2016-02-07T09:08:48.000Z</time>
      </trkpt>
      <trkpt lat="47.48802" lon="6.7484">
        <ele>455</ele>
        <time>2016-02-07T09:08:49.000Z</time>
      </trkpt>
      <trkpt lat="47.48802" lon="6.74843">
        <ele>455</ele>
        <time>2016-02-07T09:08:50.000Z</time>
      </trkpt>
      <trkpt lat="47.48803" lon="6.74847">
        <ele>455</ele>
        <time>2016-02-07T09:08:51.000Z</time>
      </trkpt>
      <trkpt lat="47.48803" lon="6.7485">
        <ele>455</ele>
        <time>2016-02-07T09:08:52.000Z</time>
      </trkpt>
      <trkpt lat="47.48803" lon="6.74853">
        <ele>455</ele>
        <time>2016-02-07T09:08:53.000Z</time>
      </trkpt>
      <trkpt lat="47.48804" lon="6.74857">
        <ele>455</ele>
        <time>2016-02-07T09:08:54.000Z</time>
      </trkpt>
      <trkpt lat="47.48804" lon="6.7486">
        <ele>455</ele>
        <time>2016-02-07T09:08:55.000Z</time>
      </trkpt>
      <trkpt lat="47.48805" lon="6.74866">
        <ele>455</ele>
        <time>2016-02-07T09:08:57.000Z</time>
      </trkpt>
      <trkpt lat="47.48805" lon="6.74869">
        <ele>455</ele>
        <time>2016-02-07T09:08:58.000Z</time>
      </trkpt>
      <trkpt lat="47.48805" lon="6.74875">
        <ele>455</ele>
        <time>2016-02-07T09:09:00.000Z</time>
      </trkpt>
      <trkpt lat="47.48805" lon="6.74878">
        <ele>455</ele>
        <time>2016-02-07T09:09:01.000Z</time>
      </trkpt>
      <trkpt lat="47.48805" lon="6.74883">
        <ele>455</ele>
        <time>2016-02-07T09:09:03.000Z</time>
      </trkpt>
      <trkpt lat="47.48805" lon="6.74886">
        <ele>455</ele>
        <time>2016-02-07T09:09:04.000Z</time>
      </trkpt>
      <trkpt lat="47.48806" lon="6.7489">
        <ele>454</ele>
        <time>2016-02-07T09:09:06.000Z</time>
      </trkpt>
      <trkpt lat="47.48806" lon="6.74892">
        <ele>454</ele>
        <time>2016-02-07T09:09:07.000Z</time>
      </trkpt>
      <trkpt lat="47.48806" lon="6.74898">
        <ele>454</ele>
        <time>2016-02-07T09:09:10.000Z</time>
      </trkpt>
      <trkpt lat="47.48806" lon="6.749">
        <ele>454</ele>
        <time>2016-02-07T09:09:11.000Z</time>
      </trkpt>
      <trkpt lat="47.48807" lon="6.74905">
        <ele>454</ele>
        <time>2016-02-07T09:09:13.000Z</time>
      </trkpt>
      <trkpt lat="47.48807" lon="6.74909">
        <ele>454</ele>
        <time>2016-02-07T09:09:14.000Z</time>
      </trkpt>
      <trkpt lat="47.48807" lon="6.74912">
        <ele>454</ele>
        <time>2016-02-07T09:09:15.000Z</time>
      </trkpt>
      <trkpt lat="47.48808" lon="6.74916">
        <ele>454</ele>
        <time>2016-02-07T09:09:16.000Z</time>
      </trkpt>
      <trkpt lat="47.48808" lon="6.7492">
        <ele>454</ele>
        <time>2016-02-07T09:09:17.000Z</time>
      </trkpt>
      <trkpt lat="47.48808" lon="6.74924">
        <ele>454</ele>
        <time>2016-02-07T09:09:18.000Z</time>
      </trkpt>
      <trkpt lat="47.48808" lon="6.74928">
        <ele>454</ele>
        <time>2016-02-07T09:09:19.000Z</time>
      </trkpt>
      <trkpt lat="47.48807" lon="6.74932">
        <ele>454</ele>
        <time>2016-02-07T09:09:20.000Z</time>
      </trkpt>
      <trkpt lat="47.48806" lon="6.74938">
        <ele>454</ele>
        <time>2016-02-07T09:09:22.000Z</time>
      </trkpt>
      <trkpt lat="47.48806" lon="6.74941">
        <ele>454</ele>
        <time>2016-02-07T09:09:23.000Z</time>
      </trkpt>
      <trkpt lat="47.48807" lon="6.74947">
        <ele>455</ele>
        <time>2016-02-07T09:09:25.000Z</time>
      </trkpt>
      <trkpt lat="47.48808" lon="6.74952">
        <ele>455</ele>
        <time>2016-02-07T09:09:26.000Z</time>
      </trkpt>
      <trkpt lat="47.48808" lon="6.74958">
        <ele>455</ele>
        <time>2016-02-07T09:09:29.000Z</time>
      </trkpt>
      <trkpt lat="47.48808" lon="6.74959">
        <ele>455</ele>
        <time>2016-02-07T09:09:30.000Z</time>
      </trkpt>
      <trkpt lat="47.48804" lon="6.74963">
        <ele>455</ele>
        <time>2016-02-07T09:09:47.000Z</time>
      </trkpt>
      <trkpt lat="47.48804" lon="6.74963">
        <ele>455</ele>
        <time>2016-02-07T09:09:48.000Z</time>
      </trkpt>
      <trkpt lat="47.48802" lon="6.74968">
        <ele>455</ele>
        <time>2016-02-07T09:10:31.000Z</time>
      </trkpt>
      <trkpt lat="47.48802" lon="6.7497">
        <ele>455</ele>
        <time>2016-02-07T09:10:32.000Z</time>
      </trkpt>
      <trkpt lat="47.488" lon="6.74975">
        <ele>455</ele>
        <time>2016-02-07T09:10:35.000Z</time>
      </trkpt>
      <trkpt lat="47.48799" lon="6.74977">
        <ele>455</ele>
        <time>2016-02-07T09:10:36.000Z</time>
      </trkpt>
      <trkpt lat="47.48798" lon="6.74981">
        <ele>455</ele>
        <time>2016-02-07T09:10:38.000Z</time>
      </trkpt>
      <trkpt lat="47.48797" lon="6.74984">
        <ele>455</ele>
        <time>2016-02-07T09:10:39.000Z</time>
      </trkpt>
      <trkpt lat="47.48796" lon="6.74989">
        <ele>455</ele>
        <time>2016-02-07T09:10:41.000Z</time>
      </trkpt>
      <trkpt lat="47.48795" lon="6.74991">
        <ele>455</ele>
        <time>2016-02-07T09:10:42.000Z</time>
      </trkpt>
      <trkpt lat="47.48795" lon="6.74995">
        <ele>455</ele>
        <time>2016-02-07T09:10:44.000Z</time>
      </trkpt>
      <trkpt lat="47.48795" lon="6.74997">
        <ele>455</ele>
        <time>2016-02-07T09:10:45.000Z</time>
      </trkpt>
      <trkpt lat="47.48795" lon="6.75004">
        <ele>456</ele>
        <time>2016-02-07T09:10:47.000Z</time>
      </trkpt>
      <trkpt lat="47.48795" lon="6.75007">
        <ele>456</ele>
        <time>2016-02-07T09:10:48.000Z</time>
      </trkpt>
      <trkpt lat="47.48796" lon="6.75013">
        <ele>456</ele>
        <time>2016-02-07T09:10:50.000Z</time>
      </trkpt>
      <trkpt lat="47.48796" lon="6.75017">
        <ele>456</ele>
        <time>2016-02-07T09:10:51.000Z</time>
      </trkpt>
      <trkpt lat="47.48796" lon="6.75023">
        <ele>456</ele>
        <time>2016-02-07T09:10:53.000Z</time>
      </trkpt>
      <trkpt lat="47.48795" lon="6.75026">
        <ele>456</ele>
        <time>2016-02-07T09:10:54.000Z</time>
      </trkpt>
      <trkpt lat="47.48796" lon="6.75032">
        <ele>457</ele>
        <time>2016-02-07T09:10:56.000Z</time>
      </trkpt>
      <trkpt lat="47.48796" lon="6.75036">
        <ele>457</ele>
        <time>2016-02-07T09:10:57.000Z</time>
      </trkpt>
      <trkpt lat="47.48796" lon="6.75039">
        <ele>457</ele>
        <time>2016-02-07T09:10:58.000Z</time>
      </trkpt>
      <trkpt lat="47.48795" lon="6.75043">
        <ele>457</ele>
        <time>2016-02-07T09:10:59.000Z</time>
      </trkpt>
      <trkpt lat="47.48795" lon="6.75047">
        <ele>457</ele>
        <time>2016-02-07T09:11:00.000Z</time>
      </trkpt>
      <trkpt lat="47.48795" lon="6.75051">
        <ele>457</ele>
        <time>2016-02-07T09:11:01.000Z</time>
      </trkpt>
      <trkpt lat="47.48794" lon="6.75055">
        <ele>457</ele>
        <time>2016-02-07T09:11:02.000Z</time>
      </trkpt>
      <trkpt lat="47.48794" lon="6.75059">
        <ele>457</ele>
        <time>2016-02-07T09:11:03.000Z</time>
      </trkpt>
      <trkpt lat="47.48794" lon="6.75063">
        <ele>457</ele>
        <time>2016-02-07T09:11:04.000Z</time>
      </trkpt>
      <trkpt lat="47.48794" lon="6.75066">
        <ele>457</ele>
        <time>2016-02-07T09:11:05.000Z</time>
      </trkpt>
      <trkpt lat="47.48794" lon="6.75072">
        <ele>457</ele>
        <time>2016-02-07T09:11:07.000Z</time>
      </trkpt>
      <trkpt lat="47.48794" lon="6.75075">
        <ele>457</ele>
        <time>2016-02-07T09:11:08.000Z</time>
      </trkpt>
      <trkpt lat="47.48794" lon="6.75082">
        <ele>457</ele>
        <time>2016-02-07T09:11:10.000Z</time>
      </trkpt>
      <trkpt lat="47.48794" lon="6.75085">
        <ele>457</ele>
        <time>2016-02-07T09:11:11.000Z</time>
      </trkpt>
      <trkpt lat="47.48793" lon="6.75089">
        <ele>457</ele>
        <time>2016-02-07T09:11:13.000Z</time>
      </trkpt>
      <trkpt lat="47.48793" lon="6.75091">
        <ele>457</ele>
        <time>2016-02-07T09:11:14.000Z</time>
      </trkpt>
      <trkpt lat="47.48791" lon="6.75095">
        <ele>457</ele>
        <time>2016-02-07T09:11:16.000Z</time>
      </trkpt>
      <trkpt lat="47.4879" lon="6.75098">
        <ele>457</ele>
        <time>2016-02-07T09:11:17.000Z</time>
      </trkpt>
      <trkpt lat="47.48787" lon="6.75102">
        <ele>457</ele>
        <time>2016-02-07T09:11:19.000Z</time>
      </trkpt>
      <trkpt lat="47.48786" lon="6.75105">
        <ele>457</ele>
        <time>2016-02-07T09:11:20.000Z</time>
      </trkpt>
      <trkpt lat="47.48784" lon="6.75109">
        <ele>457</ele>
        <time>2016-02-07T09:11:21.000Z</time>
      </trkpt>
      <trkpt lat="47.48782" lon="6.75112">
        <ele>457</ele>
        <time>2016-02-07T09:11:22.000Z</time>
      </trkpt>
      <trkpt lat="47.4878" lon="6.75116">
        <ele>457</ele>
        <time>2016-02-07T09:11:23.000Z</time>
      </trkpt>
      <trkpt lat="47.48778" lon="6.75119">
        <ele>457</ele>
        <time>2016-02-07T09:11:24.000Z</time>
      </trkpt>
      <trkpt lat="47.48777" lon="6.75122">
        <ele>457</ele>
        <time>2016-02-07T09:11:25.000Z</time>
      </trkpt>
      <trkpt lat="47.48776" lon="6.75125">
        <ele>457</ele>
        <time>2016-02-07T09:11:26.000Z</time>
      </trkpt>
      <trkpt lat="47.48775" lon="6.75129">
        <ele>457</ele>
        <time>2016-02-07T09:11:27.000Z</time>
      </trkpt>
      <trkpt lat="47.48775" lon="6.75132">
        <ele>457</ele>
        <time>2016-02-07T09:11:28.000Z</time>
      </trkpt>
      <trkpt lat="47.48774" lon="6.75138">
        <ele>457</ele>
        <time>2016-02-07T09:11:30.000Z</time>
      </trkpt>
      <trkpt lat="47.48774" lon="6.75141">
        <ele>457</ele>
        <time>2016-02-07T09:11:31.000Z</time>
      </trkpt>
      <trkpt lat="47.48774" lon="6.75148">
        <ele>457</ele>
        <time>2016-02-07T09:11:33.000Z</time>
      </trkpt>
      <trkpt lat="47.48773" lon="6.75151">
        <ele>457</ele>
        <time>2016-02-07T09:11:34.000Z</time>
      </trkpt>
      <trkpt lat="47.48773" lon="6.75154">
        <ele>456</ele>
        <time>2016-02-07T09:11:35.000Z</time>
      </trkpt>
      <trkpt lat="47.48773" lon="6.75158">
        <ele>456</ele>
        <time>2016-02-07T09:11:36.000Z</time>
      </trkpt>
      <trkpt lat="47.48773" lon="6.75161">
        <ele>456</ele>
        <time>2016-02-07T09:11:37.000Z</time>
      </trkpt>
      <trkpt lat="47.48774" lon="6.75164">
        <ele>456</ele>
        <time>2016-02-07T09:11:38.000Z</time>
      </trkpt>
      <trkpt lat="47.48774" lon="6.75168">
        <ele>455</ele>
        <time>2016-02-07T09:11:39.000Z</time>
      </trkpt>
      <trkpt lat="47.48774" lon="6.75171">
        <ele>455</ele>
        <time>2016-02-07T09:11:40.000Z</time>
      </trkpt>
      <trkpt lat="47.48774" lon="6.75175">
        <ele>455</ele>
        <time>2016-02-07T09:11:41.000Z</time>
      </trkpt>
      <trkpt lat="47.48773" lon="6.7518">
        <ele>455</ele>
        <time>2016-02-07T09:11:42.000Z</time>
      </trkpt>
      <trkpt lat="47.48772" lon="6.75185">
        <ele>455</ele>
        <time>2016-02-07T09:11:43.000Z</time>
      </trkpt>
      <trkpt lat="47.48771" lon="6.7519">
        <ele>455</ele>
        <time>2016-02-07T09:11:44.000Z</time>
      </trkpt>
      <trkpt lat="47.48771" lon="6.75196">
        <ele>455</ele>
        <time>2016-02-07T09:11:45.000Z</time>
      </trkpt>
      <trkpt lat="47.4877" lon="6.75202">
        <ele>454</ele>
        <time>2016-02-07T09:11:46.000Z</time>
      </trkpt>
      <trkpt lat="47.48769" lon="6.75209">
        <ele>454</ele>
        <time>2016-02-07T09:11:47.000Z</time>
      </trkpt>
      <trkpt lat="47.48768" lon="6.75215">
        <ele>454</ele>
        <time>2016-02-07T09:11:48.000Z</time>
      </trkpt>
      <trkpt lat="47.48767" lon="6.7522">
        <ele>454</ele>
        <time>2016-02-07T09:11:49.000Z</time>
      </trkpt>
      <trkpt lat="47.48765" lon="6.75225">
        <ele>454</ele>
        <time>2016-02-07T09:11:50.000Z</time>
      </trkpt>
      <trkpt lat="47.48764" lon="6.75229">
        <ele>454</ele>
        <time>2016-02-07T09:11:51.000Z</time>
      </trkpt>
      <trkpt lat="47.48762" lon="6.75233">
        <ele>454</ele>
        <time>2016-02-07T09:11:52.000Z</time>
      </trkpt>
      <trkpt lat="47.48761" lon="6.75237">
        <ele>454</ele>
        <time>2016-02-07T09:11:53.000Z</time>
      </trkpt>
      <trkpt lat="47.48759" lon="6.75241">
        <ele>454</ele>
        <time>2016-02-07T09:11:54.000Z</time>
      </trkpt>
      <trkpt lat="47.48758" lon="6.75246">
        <ele>454</ele>
        <time>2016-02-07T09:11:55.000Z</time>
      </trkpt>
      <trkpt lat="47.48757" lon="6.7525">
        <ele>454</ele>
        <time>2016-02-07T09:11:56.000Z</time>
      </trkpt>
      <trkpt lat="47.48756" lon="6.75254">
        <ele>453</ele>
        <time>2016-02-07T09:11:57.000Z</time>
      </trkpt>
      <trkpt lat="47.48756" lon="6.75258">
        <ele>453</ele>
        <time>2016-02-07T09:11:58.000Z</time>
      </trkpt>
      <trkpt lat="47.48756" lon="6.75261">
        <ele>452</ele>
        <time>2016-02-07T09:11:59.000Z</time>
      </trkpt>
      <trkpt lat="47.48757" lon="6.75267">
        <ele>452</ele>
        <time>2016-02-07T09:12:01.000Z</time>
      </trkpt>
      <trkpt lat="47.48758" lon="6.7527">
        <ele>452</ele>
        <time>2016-02-07T09:12:02.000Z</time>
      </trkpt>
      <trkpt lat="47.48758" lon="6.75274">
        <ele>451</ele>
        <time>2016-02-07T09:12:03.000Z</time>
      </trkpt>
      <trkpt lat="47.48758" lon="6.75277">
        <ele>451</ele>
        <time>2016-02-07T09:12:04.000Z</time>
      </trkpt>
      <trkpt lat="47.48759" lon="6.7528">
        <ele>451</ele>
        <time>2016-02-07T09:12:05.000Z</time>
      </trkpt>
      <trkpt lat="47.48759" lon="6.75284">
        <ele>451</ele>
        <time>2016-02-07T09:12:06.000Z</time>
      </trkpt>
      <trkpt lat="47.48759" lon="6.75289">
        <ele>451</ele>
        <time>2016-02-07T09:12:08.000Z</time>
      </trkpt>
      <trkpt lat="47.48759" lon="6.75291">
        <ele>451</ele>
        <time>2016-02-07T09:12:09.000Z</time>
      </trkpt>
      <trkpt lat="47.48759" lon="6.75297">
        <ele>451</ele>
        <time>2016-02-07T09:12:11.000Z</time>
      </trkpt>
      <trkpt lat="47.48759" lon="6.75301">
        <ele>450</ele>
        <time>2016-02-07T09:12:12.000Z</time>
      </trkpt>
      <trkpt lat="47.48759" lon="6.75304">
        <ele>450</ele>
        <time>2016-02-07T09:12:13.000Z</time>
      </trkpt>
      <trkpt lat="47.48758" lon="6.75308">
        <ele>450</ele>
        <time>2016-02-07T09:12:14.000Z</time>
      </trkpt>
      <trkpt lat="47.48757" lon="6.75313">
        <ele>450</ele>
        <time>2016-02-07T09:12:15.000Z</time>
      </trkpt>
      <trkpt lat="47.48755" lon="6.75317">
        <ele>450</ele>
        <time>2016-02-07T09:12:16.000Z</time>
      </trkpt>
      <trkpt lat="47.48754" lon="6.75321">
        <ele>451</ele>
        <time>2016-02-07T09:12:17.000Z</time>
      </trkpt>
      <trkpt lat="47.48753" lon="6.75326">
        <ele>451</ele>
        <time>2016-02-07T09:12:18.000Z</time>
      </trkpt>
      <trkpt lat="47.48752" lon="6.7533">
        <ele>451</ele>
        <time>2016-02-07T09:12:19.000Z</time>
      </trkpt>
      <trkpt lat="47.48751" lon="6.75333">
        <ele>451</ele>
        <time>2016-02-07T09:12:20.000Z</time>
      </trkpt>
      <trkpt lat="47.48751" lon="6.75337">
        <ele>450</ele>
        <time>2016-02-07T09:12:21.000Z</time>
      </trkpt>
      <trkpt lat="47.4875" lon="6.7534">
        <ele>449</ele>
        <time>2016-02-07T09:12:22.000Z</time>
      </trkpt>
      <trkpt lat="47.4875" lon="6.75345">
        <ele>447</ele>
        <time>2016-02-07T09:12:23.000Z</time>
      </trkpt>
      <trkpt lat="47.4875" lon="6.75349">
        <ele>446</ele>
        <time>2016-02-07T09:12:24.000Z</time>
      </trkpt>
      <trkpt lat="47.48749" lon="6.75353">
        <ele>445</ele>
        <time>2016-02-07T09:12:25.000Z</time>
      </trkpt>
      <trkpt lat="47.48749" lon="6.75358">
        <ele>445</ele>
        <time>2016-02-07T09:12:26.000Z</time>
      </trkpt>
      <trkpt lat="47.48748" lon="6.75362">
        <ele>444</ele>
        <time>2016-02-07T09:12:27.000Z</time>
      </trkpt>
      <trkpt lat="47.48747" lon="6.75366">
        <ele>443</ele>
        <time>2016-02-07T09:12:28.000Z</time>
      </trkpt>
      <trkpt lat="47.48747" lon="6.7537">
        <ele>443</ele>
        <time>2016-02-07T09:12:29.000Z</time>
      </trkpt>
      <trkpt lat="47.48747" lon="6.75374">
        <ele>443</ele>
        <time>2016-02-07T09:12:30.000Z</time>
      </trkpt>
      <trkpt lat="47.48747" lon="6.75378">
        <ele>443</ele>
        <time>2016-02-07T09:12:31.000Z</time>
      </trkpt>
      <trkpt lat="47.48747" lon="6.75383">
        <ele>442</ele>
        <time>2016-02-07T09:12:32.000Z</time>
      </trkpt>
      <trkpt lat="47.48746" lon="6.75387">
        <ele>442</ele>
        <time>2016-02-07T09:12:33.000Z</time>
      </trkpt>
      <trkpt lat="47.48746" lon="6.75392">
        <ele>442</ele>
        <time>2016-02-07T09:12:34.000Z</time>
      </trkpt>
      <trkpt lat="47.48745" lon="6.75396">
        <ele>442</ele>
        <time>2016-02-07T09:12:35.000Z</time>
      </trkpt>
      <trkpt lat="47.48744" lon="6.754">
        <ele>442</ele>
        <time>2016-02-07T09:12:36.000Z</time>
      </trkpt>
      <trkpt lat="47.48743" lon="6.75404">
        <ele>442</ele>
        <time>2016-02-07T09:12:37.000Z</time>
      </trkpt>
      <trkpt lat="47.48743" lon="6.75409">
        <ele>442</ele>
        <time>2016-02-07T09:12:38.000Z</time>
      </trkpt>
      <trkpt lat="47.48742" lon="6.75414">
        <ele>442</ele>
        <time>2016-02-07T09:12:39.000Z</time>
      </trkpt>
      <trkpt lat="47.48742" lon="6.75418">
        <ele>440</ele>
        <time>2016-02-07T09:12:40.000Z</time>
      </trkpt>
      <trkpt lat="47.48742" lon="6.75423">
        <ele>440</ele>
        <time>2016-02-07T09:12:41.000Z</time>
      </trkpt>
      <trkpt lat="47.48742" lon="6.75428">
        <ele>439</ele>
        <time>2016-02-07T09:12:42.000Z</time>
      </trkpt>
      <trkpt lat="47.48742" lon="6.75432">
        <ele>438</ele>
        <time>2016-02-07T09:12:43.000Z</time>
      </trkpt>
      <trkpt lat="47.48742" lon="6.75437">
        <ele>438</ele>
        <time>2016-02-07T09:12:44.000Z</time>
      </trkpt>
      <trkpt lat="47.48742" lon="6.75441">
        <ele>437</ele>
        <time>2016-02-07T09:12:45.000Z</time>
      </trkpt>
      <trkpt lat="47.48742" lon="6.75445">
        <ele>437</ele>
        <time>2016-02-07T09:12:46.000Z</time>
      </trkpt>
      <trkpt lat="47.48742" lon="6.75449">
        <ele>436</ele>
        <time>2016-02-07T09:12:47.000Z</time>
      </trkpt>
      <trkpt lat="47.48741" lon="6.75454">
        <ele>436</ele>
        <time>2016-02-07T09:12:48.000Z</time>
      </trkpt>
      <trkpt lat="47.48741" lon="6.75458">
        <ele>435</ele>
        <time>2016-02-07T09:12:49.000Z</time>
      </trkpt>
      <trkpt lat="47.48741" lon="6.75462">
        <ele>435</ele>
        <time>2016-02-07T09:12:50.000Z</time>
      </trkpt>
      <trkpt lat="47.48741" lon="6.75465">
        <ele>435</ele>
        <time>2016-02-07T09:12:51.000Z</time>
      </trkpt>
      <trkpt lat="47.4874" lon="6.75469">
        <ele>435</ele>
        <time>2016-02-07T09:12:52.000Z</time>
      </trkpt>
      <trkpt lat="47.4874" lon="6.75473">
        <ele>434</ele>
        <time>2016-02-07T09:12:53.000Z</time>
      </trkpt>
      <trkpt lat="47.48739" lon="6.75478">
        <ele>434</ele>
        <time>2016-02-07T09:12:54.000Z</time>
      </trkpt>
      <trkpt lat="47.48738" lon="6.75483">
        <ele>434</ele>
        <time>2016-02-07T09:12:55.000Z</time>
      </trkpt>
      <trkpt lat="47.48738" lon="6.75488">
        <ele>434</ele>
        <time>2016-02-07T09:12:56.000Z</time>
      </trkpt>
      <trkpt lat="47.48737" lon="6.75492">
        <ele>433</ele>
        <time>2016-02-07T09:12:57.000Z</time>
      </trkpt>
      <trkpt lat="47.48737" lon="6.75497">
        <ele>433</ele>
        <time>2016-02-07T09:12:58.000Z</time>
      </trkpt>
      <trkpt lat="47.48737" lon="6.75501">
        <ele>431</ele>
        <time>2016-02-07T09:12:59.000Z</time>
      </trkpt>
      <trkpt lat="47.48736" lon="6.75505">
        <ele>431</ele>
        <time>2016-02-07T09:13:00.000Z</time>
      </trkpt>
      <trkpt lat="47.48736" lon="6.75509">
        <ele>430</ele>
        <time>2016-02-07T09:13:01.000Z</time>
      </trkpt>
      <trkpt lat="47.48735" lon="6.75514">
        <ele>430</ele>
        <time>2016-02-07T09:13:02.000Z</time>
      </trkpt>
      <trkpt lat="47.48734" lon="6.7552">
        <ele>429</ele>
        <time>2016-02-07T09:13:03.000Z</time>
      </trkpt>
      <trkpt lat="47.48733" lon="6.75528">
        <ele>429</ele>
        <time>2016-02-07T09:13:04.000Z</time>
      </trkpt>
      <trkpt lat="47.48732" lon="6.75536">
        <ele>428</ele>
        <time>2016-02-07T09:13:05.000Z</time>
      </trkpt>
      <trkpt lat="47.4873" lon="6.75544">
        <ele>428</ele>
        <time>2016-02-07T09:13:06.000Z</time>
      </trkpt>
      <trkpt lat="47.4873" lon="6.75552">
        <ele>428</ele>
        <time>2016-02-07T09:13:07.000Z</time>
      </trkpt>
      <trkpt lat="47.48729" lon="6.75558">
        <ele>427</ele>
        <time>2016-02-07T09:13:08.000Z</time>
      </trkpt>
      <trkpt lat="47.48728" lon="6.75564">
        <ele>427</ele>
        <time>2016-02-07T09:13:09.000Z</time>
      </trkpt>
      <trkpt lat="47.48727" lon="6.75569">
        <ele>427</ele>
        <time>2016-02-07T09:13:10.000Z</time>
      </trkpt>
      <trkpt lat="47.48726" lon="6.75575">
        <ele>427</ele>
        <time>2016-02-07T09:13:11.000Z</time>
      </trkpt>
      <trkpt lat="47.48725" lon="6.7558">
        <ele>427</ele>
        <time>2016-02-07T09:13:12.000Z</time>
      </trkpt>
      <trkpt lat="47.48724" lon="6.75585">
        <ele>424</ele>
        <time>2016-02-07T09:13:13.000Z</time>
      </trkpt>
      <trkpt lat="47.48722" lon="6.7559">
        <ele>424</ele>
        <time>2016-02-07T09:13:14.000Z</time>
      </trkpt>
      <trkpt lat="47.4872" lon="6.75596">
        <ele>424</ele>
        <time>2016-02-07T09:13:15.000Z</time>
      </trkpt>
      <trkpt lat="47.48718" lon="6.75602">
        <ele>423</ele>
        <time>2016-02-07T09:13:16.000Z</time>
      </trkpt>
      <trkpt lat="47.48716" lon="6.75607">
        <ele>423</ele>
        <time>2016-02-07T09:13:17.000Z</time>
      </trkpt>
      <trkpt lat="47.48714" lon="6.75613">
        <ele>423</ele>
        <time>2016-02-07T09:13:18.000Z</time>
      </trkpt>
      <trkpt lat="47.48712" lon="6.75618">
        <ele>423</ele>
        <time>2016-02-07T09:13:19.000Z</time>
      </trkpt>
      <trkpt lat="47.4871" lon="6.75622">
        <ele>422</ele>
        <time>2016-02-07T09:13:20.000Z</time>
      </trkpt>
      <trkpt lat="47.48708" lon="6.75627">
        <ele>422</ele>
        <time>2016-02-07T09:13:21.000Z</time>
      </trkpt>
      <trkpt lat="47.48706" lon="6.75631">
        <ele>422</ele>
        <time>2016-02-07T09:13:22.000Z</time>
      </trkpt>
      <trkpt lat="47.48705" lon="6.75635">
        <ele>422</ele>
        <time>2016-02-07T09:13:23.000Z</time>
      </trkpt>
      <trkpt lat="47.48703" lon="6.75639">
        <ele>422</ele>
        <time>2016-02-07T09:13:24.000Z</time>
      </trkpt>
      <trkpt lat="47.48701" lon="6.75643">
        <ele>421</ele>
        <time>2016-02-07T09:13:25.000Z</time>
      </trkpt>
      <trkpt lat="47.487" lon="6.75647">
        <ele>421</ele>
        <time>2016-02-07T09:13:26.000Z</time>
      </trkpt>
      <trkpt lat="47.48697" lon="6.75651">
        <ele>421</ele>
        <time>2016-02-07T09:13:27.000Z</time>
      </trkpt>
      <trkpt lat="47.48695" lon="6.75656">
        <ele>421</ele>
        <time>2016-02-07T09:13:28.000Z</time>
      </trkpt>
      <trkpt lat="47.48693" lon="6.75661">
        <ele>421</ele>
        <time>2016-02-07T09:13:29.000Z</time>
      </trkpt>
      <trkpt lat="47.48691" lon="6.75666">
        <ele>420</ele>
        <time>2016-02-07T09:13:30.000Z</time>
      </trkpt>
      <trkpt lat="47.48689" lon="6.75671">
        <ele>420</ele>
        <time>2016-02-07T09:13:31.000Z</time>
      </trkpt>
      <trkpt lat="47.48687" lon="6.75674">
        <ele>420</ele>
        <time>2016-02-07T09:13:32.000Z</time>
      </trkpt>
      <trkpt lat="47.48684" lon="6.75683">
        <ele>420</ele>
        <time>2016-02-07T09:13:33.000Z</time>
      </trkpt>
      <trkpt lat="47.48682" lon="6.75688">
        <ele>420</ele>
        <time>2016-02-07T09:13:34.000Z</time>
      </trkpt>
      <trkpt lat="47.48682" lon="6.75691">
        <ele>420</ele>
        <time>2016-02-07T09:13:35.000Z</time>
      </trkpt>
      <trkpt lat="47.48679" lon="6.75695">
        <ele>420</ele>
        <time>2016-02-07T09:13:59.000Z</time>
      </trkpt>
      <trkpt lat="47.48678" lon="6.75695">
        <ele>420</ele>
        <time>2016-02-07T09:14:00.000Z</time>
      </trkpt>
      <trkpt lat="47.48675" lon="6.75699">
        <ele>420</ele>
        <time>2016-02-07T09:14:02.000Z</time>
      </trkpt>
      <trkpt lat="47.48673" lon="6.75701">
        <ele>420</ele>
        <time>2016-02-07T09:14:03.000Z</time>
      </trkpt>
      <trkpt lat="47.48671" lon="6.75705">
        <ele>420</ele>
        <time>2016-02-07T09:14:04.000Z</time>
      </trkpt>
      <trkpt lat="47.48669" lon="6.75708">
        <ele>420</ele>
        <time>2016-02-07T09:14:05.000Z</time>
      </trkpt>
      <trkpt lat="47.48667" lon="6.75712">
        <ele>420</ele>
        <time>2016-02-07T09:14:06.000Z</time>
      </trkpt>
      <trkpt lat="47.48665" lon="6.75715">
        <ele>412</ele>
        <time>2016-02-07T09:14:07.000Z</time>
      </trkpt>
      <trkpt lat="47.48663" lon="6.75719">
        <ele>412</ele>
        <time>2016-02-07T09:14:08.000Z</time>
      </trkpt>
      <trkpt lat="47.48661" lon="6.75722">
        <ele>412</ele>
        <time>2016-02-07T09:14:09.000Z</time>
      </trkpt>
      <trkpt lat="47.48659" lon="6.75725">
        <ele>412</ele>
        <time>2016-02-07T09:14:10.000Z</time>
      </trkpt>
      <trkpt lat="47.48657" lon="6.75728">
        <ele>412</ele>
        <time>2016-02-07T09:14:11.000Z</time>
      </trkpt>
      <trkpt lat="47.48655" lon="6.75731">
        <ele>412</ele>
        <time>2016-02-07T09:14:12.000Z</time>
      </trkpt>
      <trkpt lat="47.48653" lon="6.75735">
        <ele>412</ele>
        <time>2016-02-07T09:14:13.000Z</time>
      </trkpt>
      <trkpt lat="47.48652" lon="6.7574">
        <ele>413</ele>
        <time>2016-02-07T09:14:14.000Z</time>
      </trkpt>
      <trkpt lat="47.4865" lon="6.75744">
        <ele>413</ele>
        <time>2016-02-07T09:14:15.000Z</time>
      </trkpt>
      <trkpt lat="47.48648" lon="6.75748">
        <ele>412</ele>
        <time>2016-02-07T09:14:16.000Z</time>
      </trkpt>
      <trkpt lat="47.48646" lon="6.75751">
        <ele>414</ele>
        <time>2016-02-07T09:14:17.000Z</time>
      </trkpt>
      <trkpt lat="47.48644" lon="6.75755">
        <ele>413</ele>
        <time>2016-02-07T09:14:18.000Z</time>
      </trkpt>
      <trkpt lat="47.48642" lon="6.75758">
        <ele>413</ele>
        <time>2016-02-07T09:14:19.000Z</time>
      </trkpt>
      <trkpt lat="47.4864" lon="6.75762">
        <ele>413</ele>
        <time>2016-02-07T09:14:20.000Z</time>
      </trkpt>
      <trkpt lat="47.48637" lon="6.75765">
        <ele>412</ele>
        <time>2016-02-07T09:14:21.000Z</time>
      </trkpt>
      <trkpt lat="47.48635" lon="6.75767">
        <ele>412</ele>
        <time>2016-02-07T09:14:22.000Z</time>
      </trkpt>
      <trkpt lat="47.48633" lon="6.7577">
        <ele>412</ele>
        <time>2016-02-07T09:14:23.000Z</time>
      </trkpt>
      <trkpt lat="47.4863" lon="6.75772">
        <ele>411</ele>
        <time>2016-02-07T09:14:24.000Z</time>
      </trkpt>
      <trkpt lat="47.48628" lon="6.75773">
        <ele>411</ele>
        <time>2016-02-07T09:14:25.000Z</time>
      </trkpt>
      <trkpt lat="47.48625" lon="6.75774">
        <ele>411</ele>
        <time>2016-02-07T09:14:26.000Z</time>
      </trkpt>
      <trkpt lat="47.48622" lon="6.75775">
        <ele>410</ele>
        <time>2016-02-07T09:14:27.000Z</time>
      </trkpt>
      <trkpt lat="47.48619" lon="6.75774">
        <ele>410</ele>
        <time>2016-02-07T09:14:28.000Z</time>
      </trkpt>
      <trkpt lat="47.48616" lon="6.75774">
        <ele>409</ele>
        <time>2016-02-07T09:14:29.000Z</time>
      </trkpt>
      <trkpt lat="47.48613" lon="6.75772">
        <ele>409</ele>
        <time>2016-02-07T09:14:30.000Z</time>
      </trkpt>
      <trkpt lat="47.4861" lon="6.75771">
        <ele>409</ele>
        <time>2016-02-07T09:14:31.000Z</time>
      </trkpt>
      <trkpt lat="47.48607" lon="6.7577">
        <ele>408</ele>
        <time>2016-02-07T09:14:32.000Z</time>
      </trkpt>
      <trkpt lat="47.48604" lon="6.75769">
        <ele>407</ele>
        <time>2016-02-07T09:14:33.000Z</time>
      </trkpt>
      <trkpt lat="47.486" lon="6.75767">
        <ele>407</ele>
        <time>2016-02-07T09:14:34.000Z</time>
      </trkpt>
      <trkpt lat="47.48597" lon="6.75765">
        <ele>406</ele>
        <time>2016-02-07T09:14:35.000Z</time>
      </trkpt>
      <trkpt lat="47.48593" lon="6.75763">
        <ele>405</ele>
        <time>2016-02-07T09:14:36.000Z</time>
      </trkpt>
      <trkpt lat="47.4859" lon="6.7576">
        <ele>404</ele>
        <time>2016-02-07T09:14:37.000Z</time>
      </trkpt>
      <trkpt lat="47.48587" lon="6.75758">
        <ele>403</ele>
        <time>2016-02-07T09:14:38.000Z</time>
      </trkpt>
      <trkpt lat="47.48584" lon="6.75757">
        <ele>402</ele>
        <time>2016-02-07T09:14:39.000Z</time>
      </trkpt>
      <trkpt lat="47.48581" lon="6.75756">
        <ele>398</ele>
        <time>2016-02-07T09:14:40.000Z</time>
      </trkpt>
      <trkpt lat="47.48577" lon="6.75754">
        <ele>398</ele>
        <time>2016-02-07T09:14:41.000Z</time>
      </trkpt>
      <trkpt lat="47.48574" lon="6.75751">
        <ele>398</ele>
        <time>2016-02-07T09:14:42.000Z</time>
      </trkpt>
      <trkpt lat="47.48571" lon="6.75748">
        <ele>395</ele>
        <time>2016-02-07T09:14:43.000Z</time>
      </trkpt>
      <trkpt lat="47.48568" lon="6.75743">
        <ele>394</ele>
        <time>2016-02-07T09:14:44.000Z</time>
      </trkpt>
      <trkpt lat="47.48566" lon="6.75739">
        <ele>394</ele>
        <time>2016-02-07T09:14:45.000Z</time>
      </trkpt>
      <trkpt lat="47.48565" lon="6.75734">
        <ele>393</ele>
        <time>2016-02-07T09:14:46.000Z</time>
      </trkpt>
      <trkpt lat="47.48564" lon="6.75728">
        <ele>393</ele>
        <time>2016-02-07T09:14:47.000Z</time>
      </trkpt>
      <trkpt lat="47.48563" lon="6.75723">
        <ele>392</ele>
        <time>2016-02-07T09:14:48.000Z</time>
      </trkpt>
      <trkpt lat="47.48564" lon="6.75719">
        <ele>392</ele>
        <time>2016-02-07T09:14:49.000Z</time>
      </trkpt>
      <trkpt lat="47.48564" lon="6.75714">
        <ele>392</ele>
        <time>2016-02-07T09:14:51.000Z</time>
      </trkpt>
      <trkpt lat="47.48564" lon="6.75712">
        <ele>392</ele>
        <time>2016-02-07T09:14:52.000Z</time>
      </trkpt>
      <trkpt lat="47.48566" lon="6.75707">
        <ele>392</ele>
        <time>2016-02-07T09:14:56.000Z</time>
      </trkpt>
      <trkpt lat="47.48567" lon="6.75705">
        <ele>392</ele>
        <time>2016-02-07T09:14:57.000Z</time>
      </trkpt>
      <trkpt lat="47.48569" lon="6.75699">
        <ele>392</ele>
        <time>2016-02-07T09:15:00.000Z</time>
      </trkpt>
      <trkpt lat="47.48568" lon="6.75697">
        <ele>392</ele>
        <time>2016-02-07T09:15:01.000Z</time>
      </trkpt>
      <trkpt lat="47.48569" lon="6.75691">
        <ele>392</ele>
        <time>2016-02-07T09:15:05.000Z</time>
      </trkpt>
      <trkpt lat="47.48569" lon="6.75689">
        <ele>392</ele>
        <time>2016-02-07T09:15:06.000Z</time>
      </trkpt>
      <trkpt lat="47.4857" lon="6.75685">
        <ele>393</ele>
        <time>2016-02-07T09:15:08.000Z</time>
      </trkpt>
      <trkpt lat="47.4857" lon="6.75683">
        <ele>393</ele>
        <time>2016-02-07T09:15:09.000Z</time>
      </trkpt>
      <trkpt lat="47.48571" lon="6.75678">
        <ele>393</ele>
        <time>2016-02-07T09:15:11.000Z</time>
      </trkpt>
      <trkpt lat="47.48571" lon="6.75675">
        <ele>394</ele>
        <time>2016-02-07T09:15:12.000Z</time>
      </trkpt>
      <trkpt lat="47.48573" lon="6.7567">
        <ele>394</ele>
        <time>2016-02-07T09:15:15.000Z</time>
      </trkpt>
      <trkpt lat="47.48573" lon="6.75668">
        <ele>394</ele>
        <time>2016-02-07T09:15:16.000Z</time>
      </trkpt>
      <trkpt lat="47.48575" lon="6.75663">
        <ele>394</ele>
        <time>2016-02-07T09:15:19.000Z</time>
      </trkpt>
      <trkpt lat="47.48576" lon="6.75661">
        <ele>394</ele>
        <time>2016-02-07T09:15:20.000Z</time>
      </trkpt>
      <trkpt lat="47.48577" lon="6.75657">
        <ele>394</ele>
        <time>2016-02-07T09:15:22.000Z</time>
      </trkpt>
      <trkpt lat="47.48578" lon="6.75655">
        <ele>393</ele>
        <time>2016-02-07T09:15:23.000Z</time>
      </trkpt>
      <trkpt lat="47.4858" lon="6.75649">
        <ele>393</ele>
        <time>2016-02-07T09:15:26.000Z</time>
      </trkpt>
      <trkpt lat="47.4858" lon="6.75647">
        <ele>392</ele>
        <time>2016-02-07T09:15:27.000Z</time>
      </trkpt>
      <trkpt lat="47.48582" lon="6.75643">
        <ele>392</ele>
        <time>2016-02-07T09:15:29.000Z</time>
      </trkpt>
      <trkpt lat="47.48583" lon="6.7564">
        <ele>392</ele>
        <time>2016-02-07T09:15:30.000Z</time>
      </trkpt>
      <trkpt lat="47.48585" lon="6.75636">
        <ele>404</ele>
        <time>2016-02-07T09:15:32.000Z</time>
      </trkpt>
      <trkpt lat="47.48585" lon="6.75633">
        <ele>404</ele>
        <time>2016-02-07T09:15:33.000Z</time>
      </trkpt>
      <trkpt lat="47.48586" lon="6.75628">
        <ele>404</ele>
        <time>2016-02-07T09:15:36.000Z</time>
      </trkpt>
      <trkpt lat="47.48586" lon="6.75626">
        <ele>404</ele>
        <time>2016-02-07T09:15:37.000Z</time>
      </trkpt>
      <trkpt lat="47.48585" lon="6.75621">
        <ele>404</ele>
        <time>2016-02-07T09:15:40.000Z</time>
      </trkpt>
      <trkpt lat="47.48585" lon="6.75619">
        <ele>404</ele>
        <time>2016-02-07T09:15:41.000Z</time>
      </trkpt>
      <trkpt lat="47.48584" lon="6.75614">
        <ele>404</ele>
        <time>2016-02-07T09:15:43.000Z</time>
      </trkpt>
      <trkpt lat="47.48584" lon="6.75612">
        <ele>404</ele>
        <time>2016-02-07T09:15:44.000Z</time>
      </trkpt>
      <trkpt lat="47.48584" lon="6.75605">
        <ele>403</ele>
        <time>2016-02-07T09:15:46.000Z</time>
      </trkpt>
      <trkpt lat="47.48583" lon="6.75603">
        <ele>393</ele>
        <time>2016-02-07T09:15:47.000Z</time>
      </trkpt>
      <trkpt lat="47.48583" lon="6.75598">
        <ele>394</ele>
        <time>2016-02-07T09:15:49.000Z</time>
      </trkpt>
      <trkpt lat="47.48582" lon="6.75595">
        <ele>394</ele>
        <time>2016-02-07T09:15:50.000Z</time>
      </trkpt>
      <trkpt lat="47.48582" lon="6.75589">
        <ele>396</ele>
        <time>2016-02-07T09:15:52.000Z</time>
      </trkpt>
      <trkpt lat="47.48582" lon="6.75586">
        <ele>397</ele>
        <time>2016-02-07T09:15:53.000Z</time>
      </trkpt>
      <trkpt lat="47.48581" lon="6.7558">
        <ele>396</ele>
        <time>2016-02-07T09:15:55.000Z</time>
      </trkpt>
      <trkpt lat="47.48581" lon="6.75576">
        <ele>395</ele>
        <time>2016-02-07T09:15:56.000Z</time>
      </trkpt>
      <trkpt lat="47.4858" lon="6.75573">
        <ele>395</ele>
        <time>2016-02-07T09:15:57.000Z</time>
      </trkpt>
      <trkpt lat="47.4858" lon="6.7557">
        <ele>394</ele>
        <time>2016-02-07T09:15:58.000Z</time>
      </trkpt>
      <trkpt lat="47.48579" lon="6.75567">
        <ele>393</ele>
        <time>2016-02-07T09:15:59.000Z</time>
      </trkpt>
      <trkpt lat="47.48577" lon="6.75563">
        <ele>393</ele>
        <time>2016-02-07T09:16:00.000Z</time>
      </trkpt>
      <trkpt lat="47.48576" lon="6.75559">
        <ele>392</ele>
        <time>2016-02-07T09:16:01.000Z</time>
      </trkpt>
      <trkpt lat="47.48575" lon="6.75556">
        <ele>392</ele>
        <time>2016-02-07T09:16:02.000Z</time>
      </trkpt>
      <trkpt lat="47.48574" lon="6.75552">
        <ele>392</ele>
        <time>2016-02-07T09:16:03.000Z</time>
      </trkpt>
      <trkpt lat="47.48573" lon="6.75548">
        <ele>392</ele>
        <time>2016-02-07T09:16:04.000Z</time>
      </trkpt>
      <trkpt lat="47.48572" lon="6.75545">
        <ele>392</ele>
        <time>2016-02-07T09:16:05.000Z</time>
      </trkpt>
      <trkpt lat="47.48571" lon="6.75541">
        <ele>392</ele>
        <time>2016-02-07T09:16:06.000Z</time>
      </trkpt>
      <trkpt lat="47.4857" lon="6.75537">
        <ele>392</ele>
        <time>2016-02-07T09:16:07.000Z</time>
      </trkpt>
      <trkpt lat="47.4857" lon="6.75533">
        <ele>392</ele>
        <time>2016-02-07T09:16:08.000Z</time>
      </trkpt>
      <trkpt lat="47.48568" lon="6.75527">
        <ele>392</ele>
        <time>2016-02-07T09:16:10.000Z</time>
      </trkpt>
      <trkpt lat="47.48567" lon="6.75524">
        <ele>392</ele>
        <time>2016-02-07T09:16:11.000Z</time>
      </trkpt>
      <trkpt lat="47.48566" lon="6.75519">
        <ele>393</ele>
        <time>2016-02-07T09:16:12.000Z</time>
      </trkpt>
      <trkpt lat="47.48564" lon="6.75514">
        <ele>393</ele>
        <time>2016-02-07T09:16:13.000Z</time>
      </trkpt>
      <trkpt lat="47.48562" lon="6.7551">
        <ele>393</ele>
        <time>2016-02-07T09:16:14.000Z</time>
      </trkpt>
      <trkpt lat="47.48561" lon="6.75506">
        <ele>393</ele>
        <time>2016-02-07T09:16:15.000Z</time>
      </trkpt>
      <trkpt lat="47.4856" lon="6.75502">
        <ele>393</ele>
        <time>2016-02-07T09:16:16.000Z</time>
      </trkpt>
      <trkpt lat="47.48559" lon="6.75497">
        <ele>392</ele>
        <time>2016-02-07T09:16:17.000Z</time>
      </trkpt>
      <trkpt lat="47.48558" lon="6.75491">
        <ele>392</ele>
        <time>2016-02-07T09:16:18.000Z</time>
      </trkpt>
      <trkpt lat="47.48558" lon="6.75485">
        <ele>392</ele>
        <time>2016-02-07T09:16:19.000Z</time>
      </trkpt>
      <trkpt lat="47.48559" lon="6.7548">
        <ele>391</ele>
        <time>2016-02-07T09:16:20.000Z</time>
      </trkpt>
      <trkpt lat="47.4856" lon="6.75475">
        <ele>391</ele>
        <time>2016-02-07T09:16:21.000Z</time>
      </trkpt>
      <trkpt lat="47.48561" lon="6.7547">
        <ele>391</ele>
        <time>2016-02-07T09:16:22.000Z</time>
      </trkpt>
      <trkpt lat="47.48562" lon="6.75466">
        <ele>391</ele>
        <time>2016-02-07T09:16:23.000Z</time>
      </trkpt>
      <trkpt lat="47.48562" lon="6.75463">
        <ele>391</ele>
        <time>2016-02-07T09:16:24.000Z</time>
      </trkpt>
      <trkpt lat="47.48562" lon="6.75459">
        <ele>391</ele>
        <time>2016-02-07T09:16:25.000Z</time>
      </trkpt>
      <trkpt lat="47.48562" lon="6.75455">
        <ele>391</ele>
        <time>2016-02-07T09:16:26.000Z</time>
      </trkpt>
      <trkpt lat="47.48562" lon="6.7545">
        <ele>391</ele>
        <time>2016-02-07T09:16:27.000Z</time>
      </trkpt>
      <trkpt lat="47.48561" lon="6.75445">
        <ele>391</ele>
        <time>2016-02-07T09:16:28.000Z</time>
      </trkpt>
      <trkpt lat="47.4856" lon="6.7544">
        <ele>392</ele>
        <time>2016-02-07T09:16:29.000Z</time>
      </trkpt>
      <trkpt lat="47.48559" lon="6.75435">
        <ele>392</ele>
        <time>2016-02-07T09:16:30.000Z</time>
      </trkpt>
      <trkpt lat="47.48557" lon="6.75429">
        <ele>392</ele>
        <time>2016-02-07T09:16:31.000Z</time>
      </trkpt>
      <trkpt lat="47.48555" lon="6.75424">
        <ele>391</ele>
        <time>2016-02-07T09:16:32.000Z</time>
      </trkpt>
      <trkpt lat="47.48554" lon="6.75418">
        <ele>391</ele>
        <time>2016-02-07T09:16:33.000Z</time>
      </trkpt>
      <trkpt lat="47.48552" lon="6.75412">
        <ele>391</ele>
        <time>2016-02-07T09:16:34.000Z</time>
      </trkpt>
      <trkpt lat="47.4855" lon="6.75405">
        <ele>391</ele>
        <time>2016-02-07T09:16:35.000Z</time>
      </trkpt>
      <trkpt lat="47.48549" lon="6.75399">
        <ele>390</ele>
        <time>2016-02-07T09:16:36.000Z</time>
      </trkpt>
      <trkpt lat="47.48546" lon="6.75392">
        <ele>390</ele>
        <time>2016-02-07T09:16:37.000Z</time>
      </trkpt>
      <trkpt lat="47.48544" lon="6.75386">
        <ele>389</ele>
        <time>2016-02-07T09:16:38.000Z</time>
      </trkpt>
      <trkpt lat="47.48542" lon="6.7538">
        <ele>389</ele>
        <time>2016-02-07T09:16:39.000Z</time>
      </trkpt>
      <trkpt lat="47.4854" lon="6.75374">
        <ele>389</ele>
        <time>2016-02-07T09:16:40.000Z</time>
      </trkpt>
      <trkpt lat="47.48538" lon="6.75368">
        <ele>388</ele>
        <time>2016-02-07T09:16:41.000Z</time>
      </trkpt>
      <trkpt lat="47.48535" lon="6.75362">
        <ele>388</ele>
        <time>2016-02-07T09:16:42.000Z</time>
      </trkpt>
      <trkpt lat="47.48532" lon="6.75355">
        <ele>387</ele>
        <time>2016-02-07T09:16:43.000Z</time>
      </trkpt>
      <trkpt lat="47.4853" lon="6.75349">
        <ele>386</ele>
        <time>2016-02-07T09:16:44.000Z</time>
      </trkpt>
      <trkpt lat="47.48527" lon="6.75342">
        <ele>385</ele>
        <time>2016-02-07T09:16:45.000Z</time>
      </trkpt>
      <trkpt lat="47.48524" lon="6.75336">
        <ele>384</ele>
        <time>2016-02-07T09:16:46.000Z</time>
      </trkpt>
      <trkpt lat="47.48522" lon="6.75331">
        <ele>385</ele>
        <time>2016-02-07T09:16:47.000Z</time>
      </trkpt>
      <trkpt lat="47.48521" lon="6.75326">
        <ele>385</ele>
        <time>2016-02-07T09:16:48.000Z</time>
      </trkpt>
      <trkpt lat="47.4852" lon="6.75321">
        <ele>385</ele>
        <time>2016-02-07T09:16:49.000Z</time>
      </trkpt>
      <trkpt lat="47.4852" lon="6.75315">
        <ele>386</ele>
        <time>2016-02-07T09:16:50.000Z</time>
      </trkpt>
      <trkpt lat="47.48521" lon="6.75308">
        <ele>387</ele>
        <time>2016-02-07T09:16:51.000Z</time>
      </trkpt>
      <trkpt lat="47.48521" lon="6.75301">
        <ele>388</ele>
        <time>2016-02-07T09:16:52.000Z</time>
      </trkpt>
      <trkpt lat="47.48522" lon="6.75294">
        <ele>388</ele>
        <time>2016-02-07T09:16:53.000Z</time>
      </trkpt>
      <trkpt lat="47.48523" lon="6.75288">
        <ele>388</ele>
        <time>2016-02-07T09:16:54.000Z</time>
      </trkpt>
      <trkpt lat="47.48523" lon="6.75283">
        <ele>388</ele>
        <time>2016-02-07T09:16:55.000Z</time>
      </trkpt>
      <trkpt lat="47.48523" lon="6.75277">
        <ele>388</ele>
        <time>2016-02-07T09:16:56.000Z</time>
      </trkpt>
      <trkpt lat="47.48523" lon="6.75272">
        <ele>388</ele>
        <time>2016-02-07T09:16:57.000Z</time>
      </trkpt>
      <trkpt lat="47.48522" lon="6.75267">
        <ele>387</ele>
        <time>2016-02-07T09:16:58.000Z</time>
      </trkpt>
      <trkpt lat="47.48522" lon="6.75262">
        <ele>387</ele>
        <time>2016-02-07T09:16:59.000Z</time>
      </trkpt>
      <trkpt lat="47.48521" lon="6.75256">
        <ele>386</ele>
        <time>2016-02-07T09:17:00.000Z</time>
      </trkpt>
      <trkpt lat="47.4852" lon="6.75251">
        <ele>385</ele>
        <time>2016-02-07T09:17:01.000Z</time>
      </trkpt>
      <trkpt lat="47.48518" lon="6.75246">
        <ele>385</ele>
        <time>2016-02-07T09:17:02.000Z</time>
      </trkpt>
      <trkpt lat="47.48517" lon="6.7524">
        <ele>385</ele>
        <time>2016-02-07T09:17:03.000Z</time>
      </trkpt>
      <trkpt lat="47.48515" lon="6.75236">
        <ele>385</ele>
        <time>2016-02-07T09:17:04.000Z</time>
      </trkpt>
      <trkpt lat="47.48514" lon="6.75231">
        <ele>385</ele>
        <time>2016-02-07T09:17:05.000Z</time>
      </trkpt>
      <trkpt lat="47.48512" lon="6.75228">
        <ele>385</ele>
        <time>2016-02-07T09:17:06.000Z</time>
      </trkpt>
      <trkpt lat="47.48511" lon="6.75225">
        <ele>385</ele>
        <time>2016-02-07T09:17:07.000Z</time>
      </trkpt>
      <trkpt lat="47.48509" lon="6.7522">
        <ele>386</ele>
        <time>2016-02-07T09:17:09.000Z</time>
      </trkpt>
      <trkpt lat="47.48508" lon="6.75217">
        <ele>386</ele>
        <time>2016-02-07T09:17:10.000Z</time>
      </trkpt>
      <trkpt lat="47.48507" lon="6.75211">
        <ele>386</ele>
        <time>2016-02-07T09:17:13.000Z</time>
      </trkpt>
      <trkpt lat="47.48507" lon="6.75209">
        <ele>386</ele>
        <time>2016-02-07T09:17:14.000Z</time>
      </trkpt>
      <trkpt lat="47.48508" lon="6.75203">
        <ele>386</ele>
        <time>2016-02-07T09:17:16.000Z</time>
      </trkpt>
      <trkpt lat="47.48509" lon="6.752">
        <ele>385</ele>
        <time>2016-02-07T09:17:17.000Z</time>
      </trkpt>
      <trkpt lat="47.48509" lon="6.75197">
        <ele>385</ele>
        <time>2016-02-07T09:17:18.000Z</time>
      </trkpt>
      <trkpt lat="47.4851" lon="6.75194">
        <ele>385</ele>
        <time>2016-02-07T09:17:19.000Z</time>
      </trkpt>
      <trkpt lat="47.4851" lon="6.7519">
        <ele>384</ele>
        <time>2016-02-07T09:17:20.000Z</time>
      </trkpt>
      <trkpt lat="47.48511" lon="6.75186">
        <ele>383</ele>
        <time>2016-02-07T09:17:21.000Z</time>
      </trkpt>
      <trkpt lat="47.48511" lon="6.75182">
        <ele>383</ele>
        <time>2016-02-07T09:17:22.000Z</time>
      </trkpt>
      <trkpt lat="47.48511" lon="6.75179">
        <ele>382</ele>
        <time>2016-02-07T09:17:23.000Z</time>
      </trkpt>
      <trkpt lat="47.48512" lon="6.75174">
        <ele>381</ele>
        <time>2016-02-07T09:17:25.000Z</time>
      </trkpt>
      <trkpt lat="47.48513" lon="6.75172">
        <ele>381</ele>
        <time>2016-02-07T09:17:26.000Z</time>
      </trkpt>
      <trkpt lat="47.48514" lon="6.75166">
        <ele>379</ele>
        <time>2016-02-07T09:17:28.000Z</time>
      </trkpt>
      <trkpt lat="47.48515" lon="6.75163">
        <ele>379</ele>
        <time>2016-02-07T09:17:29.000Z</time>
      </trkpt>
      <trkpt lat="47.48516" lon="6.7516">
        <ele>380</ele>
        <time>2016-02-07T09:17:30.000Z</time>
      </trkpt>
      <trkpt lat="47.48516" lon="6.75156">
        <ele>380</ele>
        <time>2016-02-07T09:17:31.000Z</time>
      </trkpt>
      <trkpt lat="47.48516" lon="6.75149">
        <ele>381</ele>
        <time>2016-02-07T09:17:33.000Z</time>
      </trkpt>
      <trkpt lat="47.48516" lon="6.75146">
        <ele>381</ele>
        <time>2016-02-07T09:17:34.000Z</time>
      </trkpt>
      <trkpt lat="47.48515" lon="6.7514">
        <ele>381</ele>
        <time>2016-02-07T09:17:36.000Z</time>
      </trkpt>
      <trkpt lat="47.48514" lon="6.75137">
        <ele>381</ele>
        <time>2016-02-07T09:17:37.000Z</time>
      </trkpt>
      <trkpt lat="47.48514" lon="6.75133">
        <ele>381</ele>
        <time>2016-02-07T09:17:38.000Z</time>
      </trkpt>
      <trkpt lat="47.48514" lon="6.7513">
        <ele>381</ele>
        <time>2016-02-07T09:17:39.000Z</time>
      </trkpt>
      <trkpt lat="47.48514" lon="6.75126">
        <ele>381</ele>
        <time>2016-02-07T09:17:40.000Z</time>
      </trkpt>
      <trkpt lat="47.48515" lon="6.75121">
        <ele>381</ele>
        <time>2016-02-07T09:17:41.000Z</time>
      </trkpt>
      <trkpt lat="47.48515" lon="6.75116">
        <ele>380</ele>
        <time>2016-02-07T09:17:42.000Z</time>
      </trkpt>
      <trkpt lat="47.48516" lon="6.75111">
        <ele>380</ele>
        <time>2016-02-07T09:17:43.000Z</time>
      </trkpt>
      <trkpt lat="47.48517" lon="6.75107">
        <ele>379</ele>
        <time>2016-02-07T09:17:44.000Z</time>
      </trkpt>
      <trkpt lat="47.48519" lon="6.75105">
        <ele>379</ele>
        <time>2016-02-07T09:17:45.000Z</time>
      </trkpt>
      <trkpt lat="47.4852" lon="6.75102">
        <ele>379</ele>
        <time>2016-02-07T09:17:46.000Z</time>
      </trkpt>
      <trkpt lat="47.48522" lon="6.751">
        <ele>379</ele>
        <time>2016-02-07T09:17:47.000Z</time>
      </trkpt>
      <trkpt lat="47.48523" lon="6.75097">
        <ele>379</ele>
        <time>2016-02-07T09:17:48.000Z</time>
      </trkpt>
      <trkpt lat="47.48525" lon="6.75095">
        <ele>380</ele>
        <time>2016-02-07T09:17:49.000Z</time>
      </trkpt>
      <trkpt lat="47.48527" lon="6.75089">
        <ele>380</ele>
        <time>2016-02-07T09:17:51.000Z</time>
      </trkpt>
      <trkpt lat="47.48528" lon="6.75087">
        <ele>380</ele>
        <time>2016-02-07T09:17:52.000Z</time>
      </trkpt>
      <trkpt lat="47.48529" lon="6.75081">
        <ele>378</ele>
        <time>2016-02-07T09:17:54.000Z</time>
      </trkpt>
      <trkpt lat="47.48529" lon="6.75078">
        <ele>378</ele>
        <time>2016-02-07T09:17:55.000Z</time>
      </trkpt>
      <trkpt lat="47.48529" lon="6.75071">
        <ele>378</ele>
        <time>2016-02-07T09:17:57.000Z</time>
      </trkpt>
      <trkpt lat="47.48529" lon="6.75069">
        <ele>378</ele>
        <time>2016-02-07T09:17:58.000Z</time>
      </trkpt>
      <trkpt lat="47.48529" lon="6.75063">
        <ele>378</ele>
        <time>2016-02-07T09:18:01.000Z</time>
      </trkpt>
      <trkpt lat="47.48529" lon="6.75061">
        <ele>378</ele>
        <time>2016-02-07T09:18:02.000Z</time>
      </trkpt>
      <trkpt lat="47.48531" lon="6.75055">
        <ele>379</ele>
        <time>2016-02-07T09:18:05.000Z</time>
      </trkpt>
      <trkpt lat="47.48532" lon="6.75054">
        <ele>379</ele>
        <time>2016-02-07T09:18:06.000Z</time>
      </trkpt>
      <trkpt lat="47.48534" lon="6.75048">
        <ele>380</ele>
        <time>2016-02-07T09:18:09.000Z</time>
      </trkpt>
      <trkpt lat="47.48534" lon="6.75047">
        <ele>380</ele>
        <time>2016-02-07T09:18:10.000Z</time>
      </trkpt>
      <trkpt lat="47.48535" lon="6.75042">
        <ele>380</ele>
        <time>2016-02-07T09:18:13.000Z</time>
      </trkpt>
      <trkpt lat="47.48535" lon="6.7504">
        <ele>380</ele>
        <time>2016-02-07T09:18:14.000Z</time>
      </trkpt>
      <trkpt lat="47.48535" lon="6.75034">
        <ele>380</ele>
        <time>2016-02-07T09:18:18.000Z</time>
      </trkpt>
      <trkpt lat="47.48535" lon="6.75032">
        <ele>380</ele>
        <time>2016-02-07T09:18:19.000Z</time>
      </trkpt>
      <trkpt lat="47.48535" lon="6.75027">
        <ele>379</ele>
        <time>2016-02-07T09:18:22.000Z</time>
      </trkpt>
      <trkpt lat="47.48535" lon="6.75024">
        <ele>379</ele>
        <time>2016-02-07T09:18:23.000Z</time>
      </trkpt>
      <trkpt lat="47.48536" lon="6.75018">
        <ele>379</ele>
        <time>2016-02-07T09:18:25.000Z</time>
      </trkpt>
      <trkpt lat="47.48536" lon="6.75016">
        <ele>379</ele>
        <time>2016-02-07T09:18:26.000Z</time>
      </trkpt>
      <trkpt lat="47.48537" lon="6.7501">
        <ele>379</ele>
        <time>2016-02-07T09:18:28.000Z</time>
      </trkpt>
      <trkpt lat="47.48537" lon="6.75008">
        <ele>379</ele>
        <time>2016-02-07T09:18:29.000Z</time>
      </trkpt>
      <trkpt lat="47.48539" lon="6.75003">
        <ele>380</ele>
        <time>2016-02-07T09:18:32.000Z</time>
      </trkpt>
      <trkpt lat="47.4854" lon="6.75002">
        <ele>380</ele>
        <time>2016-02-07T09:18:33.000Z</time>
      </trkpt>
      <trkpt lat="47.48543" lon="6.74997">
        <ele>381</ele>
        <time>2016-02-07T09:18:36.000Z</time>
      </trkpt>
      <trkpt lat="47.48544" lon="6.74996">
        <ele>381</ele>
        <time>2016-02-07T09:18:37.000Z</time>
      </trkpt>
      <trkpt lat="47.48546" lon="6.7499">
        <ele>382</ele>
        <time>2016-02-07T09:18:41.000Z</time>
      </trkpt>
      <trkpt lat="47.48546" lon="6.74989">
        <ele>382</ele>
        <time>2016-02-07T09:18:42.000Z</time>
      </trkpt>
      <trkpt lat="47.48547" lon="6.74983">
        <ele>382</ele>
        <time>2016-02-07T09:18:46.000Z</time>
      </trkpt>
      <trkpt lat="47.48547" lon="6.74981">
        <ele>382</ele>
        <time>2016-02-07T09:18:47.000Z</time>
      </trkpt>
      <trkpt lat="47.48546" lon="6.74975">
        <ele>382</ele>
        <time>2016-02-07T09:18:50.000Z</time>
      </trkpt>
      <trkpt lat="47.48546" lon="6.74973">
        <ele>381</ele>
        <time>2016-02-07T09:18:51.000Z</time>
      </trkpt>
      <trkpt lat="47.48547" lon="6.74967">
        <ele>382</ele>
        <time>2016-02-07T09:18:54.000Z</time>
      </trkpt>
      <trkpt lat="47.48547" lon="6.74964">
        <ele>382</ele>
        <time>2016-02-07T09:18:55.000Z</time>
      </trkpt>
      <trkpt lat="47.48548" lon="6.7496">
        <ele>382</ele>
        <time>2016-02-07T09:18:57.000Z</time>
      </trkpt>
      <trkpt lat="47.48549" lon="6.74958">
        <ele>382</ele>
        <time>2016-02-07T09:18:58.000Z</time>
      </trkpt>
      <trkpt lat="47.4855" lon="6.74953">
        <ele>382</ele>
        <time>2016-02-07T09:19:01.000Z</time>
      </trkpt>
      <trkpt lat="47.4855" lon="6.74952">
        <ele>382</ele>
        <time>2016-02-07T09:19:02.000Z</time>
      </trkpt>
      <trkpt lat="47.48552" lon="6.74946">
        <ele>383</ele>
        <time>2016-02-07T09:19:06.000Z</time>
      </trkpt>
      <trkpt lat="47.48552" lon="6.74945">
        <ele>383</ele>
        <time>2016-02-07T09:19:07.000Z</time>
      </trkpt>
      <trkpt lat="47.48554" lon="6.74941">
        <ele>384</ele>
        <time>2016-02-07T09:19:10.000Z</time>
      </trkpt>
      <trkpt lat="47.48555" lon="6.74939">
        <ele>384</ele>
        <time>2016-02-07T09:19:11.000Z</time>
      </trkpt>
      <trkpt lat="47.48556" lon="6.74935">
        <ele>385</ele>
        <time>2016-02-07T09:19:13.000Z</time>
      </trkpt>
      <trkpt lat="47.48556" lon="6.74932">
        <ele>385</ele>
        <time>2016-02-07T09:19:14.000Z</time>
      </trkpt>
      <trkpt lat="47.48556" lon="6.74928">
        <ele>385</ele>
        <time>2016-02-07T09:19:16.000Z</time>
      </trkpt>
      <trkpt lat="47.48556" lon="6.74925">
        <ele>385</ele>
        <time>2016-02-07T09:19:17.000Z</time>
      </trkpt>
      <trkpt lat="47.48557" lon="6.74919">
        <ele>386</ele>
        <time>2016-02-07T09:19:20.000Z</time>
      </trkpt>
      <trkpt lat="47.48557" lon="6.74918">
        <ele>386</ele>
        <time>2016-02-07T09:19:21.000Z</time>
      </trkpt>
      <trkpt lat="47.48559" lon="6.74912">
        <ele>388</ele>
        <time>2016-02-07T09:19:27.000Z</time>
      </trkpt>
      <trkpt lat="47.48559" lon="6.74911">
        <ele>388</ele>
        <time>2016-02-07T09:19:28.000Z</time>
      </trkpt>
      <trkpt lat="47.48559" lon="6.74905">
        <ele>388</ele>
        <time>2016-02-07T09:19:32.000Z</time>
      </trkpt>
      <trkpt lat="47.48559" lon="6.74904">
        <ele>388</ele>
        <time>2016-02-07T09:19:33.000Z</time>
      </trkpt>
      <trkpt lat="47.4856" lon="6.74898">
        <ele>388</ele>
        <time>2016-02-07T09:19:37.000Z</time>
      </trkpt>
      <trkpt lat="47.48561" lon="6.74896">
        <ele>388</ele>
        <time>2016-02-07T09:19:38.000Z</time>
      </trkpt>
      <trkpt lat="47.48561" lon="6.7489">
        <ele>387</ele>
        <time>2016-02-07T09:19:42.000Z</time>
      </trkpt>
      <trkpt lat="47.48562" lon="6.74888">
        <ele>387</ele>
        <time>2016-02-07T09:19:43.000Z</time>
      </trkpt>
      <trkpt lat="47.48562" lon="6.74882">
        <ele>387</ele>
        <time>2016-02-07T09:19:46.000Z</time>
      </trkpt>
      <trkpt lat="47.48562" lon="6.74881">
        <ele>387</ele>
        <time>2016-02-07T09:19:47.000Z</time>
      </trkpt>
      <trkpt lat="47.48563" lon="6.74876">
        <ele>387</ele>
        <time>2016-02-07T09:19:50.000Z</time>
      </trkpt>
      <trkpt lat="47.48563" lon="6.74874">
        <ele>388</ele>
        <time>2016-02-07T09:19:51.000Z</time>
      </trkpt>
      <trkpt lat="47.48563" lon="6.74868">
        <ele>388</ele>
        <time>2016-02-07T09:19:54.000Z</time>
      </trkpt>
      <trkpt lat="47.48563" lon="6.74866">
        <ele>388</ele>
        <time>2016-02-07T09:19:55.000Z</time>
      </trkpt>
      <trkpt lat="47.48563" lon="6.7486">
        <ele>389</ele>
        <time>2016-02-07T09:19:58.000Z</time>
      </trkpt>
      <trkpt lat="47.48564" lon="6.74858">
        <ele>389</ele>
        <time>2016-02-07T09:19:59.000Z</time>
      </trkpt>
      <trkpt lat="47.48563" lon="6.74854">
        <ele>389</ele>
        <time>2016-02-07T09:20:02.000Z</time>
      </trkpt>
      <trkpt lat="47.48563" lon="6.74852">
        <ele>390</ele>
        <time>2016-02-07T09:20:03.000Z</time>
      </trkpt>
      <trkpt lat="47.48563" lon="6.74846">
        <ele>391</ele>
        <time>2016-02-07T09:20:06.000Z</time>
      </trkpt>
      <trkpt lat="47.48564" lon="6.74843">
        <ele>391</ele>
        <time>2016-02-07T09:20:07.000Z</time>
      </trkpt>
      <trkpt lat="47.48564" lon="6.74838">
        <ele>392</ele>
        <time>2016-02-07T09:20:09.000Z</time>
      </trkpt>
      <trkpt lat="47.48564" lon="6.74835">
        <ele>392</ele>
        <time>2016-02-07T09:20:10.000Z</time>
      </trkpt>
      <trkpt lat="47.48565" lon="6.74829">
        <ele>394</ele>
        <time>2016-02-07T09:20:12.000Z</time>
      </trkpt>
      <trkpt lat="47.48566" lon="6.74827">
        <ele>394</ele>
        <time>2016-02-07T09:20:13.000Z</time>
      </trkpt>
      <trkpt lat="47.48567" lon="6.74822">
        <ele>394</ele>
        <time>2016-02-07T09:20:15.000Z</time>
      </trkpt>
      <trkpt lat="47.48567" lon="6.7482">
        <ele>394</ele>
        <time>2016-02-07T09:20:16.000Z</time>
      </trkpt>
      <trkpt lat="47.48569" lon="6.74815">
        <ele>394</ele>
        <time>2016-02-07T09:20:19.000Z</time>
      </trkpt>
      <trkpt lat="47.48569" lon="6.74814">
        <ele>394</ele>
        <time>2016-02-07T09:20:20.000Z</time>
      </trkpt>
      <trkpt lat="47.4857" lon="6.74809">
        <ele>393</ele>
        <time>2016-02-07T09:20:23.000Z</time>
      </trkpt>
      <trkpt lat="47.4857" lon="6.74807">
        <ele>393</ele>
        <time>2016-02-07T09:20:24.000Z</time>
      </trkpt>
      <trkpt lat="47.48569" lon="6.74801">
        <ele>393</ele>
        <time>2016-02-07T09:20:28.000Z</time>
      </trkpt>
      <trkpt lat="47.48569" lon="6.74799">
        <ele>393</ele>
        <time>2016-02-07T09:20:29.000Z</time>
      </trkpt>
      <trkpt lat="47.48569" lon="6.74794">
        <ele>393</ele>
        <time>2016-02-07T09:20:32.000Z</time>
      </trkpt>
      <trkpt lat="47.48569" lon="6.74792">
        <ele>393</ele>
        <time>2016-02-07T09:20:33.000Z</time>
      </trkpt>
      <trkpt lat="47.48569" lon="6.74788">
        <ele>393</ele>
        <time>2016-02-07T09:20:35.000Z</time>
      </trkpt>
      <trkpt lat="47.48568" lon="6.74785">
        <ele>393</ele>
        <time>2016-02-07T09:20:36.000Z</time>
      </trkpt>
      <trkpt lat="47.48568" lon="6.74779">
        <ele>394</ele>
        <time>2016-02-07T09:20:39.000Z</time>
      </trkpt>
      <trkpt lat="47.48568" lon="6.74777">
        <ele>394</ele>
        <time>2016-02-07T09:20:40.000Z</time>
      </trkpt>
      <trkpt lat="47.48568" lon="6.7477">
        <ele>395</ele>
        <time>2016-02-07T09:20:43.000Z</time>
      </trkpt>
      <trkpt lat="47.48568" lon="6.74768">
        <ele>395</ele>
        <time>2016-02-07T09:20:44.000Z</time>
      </trkpt>
      <trkpt lat="47.48569" lon="6.74762">
        <ele>397</ele>
        <time>2016-02-07T09:20:47.000Z</time>
      </trkpt>
      <trkpt lat="47.4857" lon="6.7476">
        <ele>397</ele>
        <time>2016-02-07T09:20:48.000Z</time>
      </trkpt>
      <trkpt lat="47.4857" lon="6.74755">
        <ele>399</ele>
        <time>2016-02-07T09:20:51.000Z</time>
      </trkpt>
      <trkpt lat="47.4857" lon="6.74753">
        <ele>399</ele>
        <time>2016-02-07T09:20:52.000Z</time>
      </trkpt>
      <trkpt lat="47.4857" lon="6.74746">
        <ele>400</ele>
        <time>2016-02-07T09:20:55.000Z</time>
      </trkpt>
      <trkpt lat="47.48571" lon="6.74745">
        <ele>400</ele>
        <time>2016-02-07T09:20:56.000Z</time>
      </trkpt>
      <trkpt lat="47.48572" lon="6.74739">
        <ele>400</ele>
        <time>2016-02-07T09:21:02.000Z</time>
      </trkpt>
      <trkpt lat="47.48572" lon="6.74737">
        <ele>400</ele>
        <time>2016-02-07T09:21:03.000Z</time>
      </trkpt>
      <trkpt lat="47.48573" lon="6.74731">
        <ele>399</ele>
        <time>2016-02-07T09:21:06.000Z</time>
      </trkpt>
      <trkpt lat="47.48573" lon="6.7473">
        <ele>399</ele>
        <time>2016-02-07T09:21:06.999Z</time>
      </trkpt>
      <trkpt lat="47.48575" lon="6.74725">
        <ele>398</ele>
        <time>2016-02-07T09:21:09.000Z</time>
      </trkpt>
      <trkpt lat="47.48575" lon="6.74723">
        <ele>398</ele>
        <time>2016-02-07T09:21:10.000Z</time>
      </trkpt>
      <trkpt lat="47.48577" lon="6.74719">
        <ele>398</ele>
        <time>2016-02-07T09:21:12.000Z</time>
      </trkpt>
      <trkpt lat="47.48577" lon="6.74717">
        <ele>398</ele>
        <time>2016-02-07T09:21:13.000Z</time>
      </trkpt>
      <trkpt lat="47.48579" lon="6.74711">
        <ele>398</ele>
        <time>2016-02-07T09:21:16.000Z</time>
      </trkpt>
      <trkpt lat="47.48579" lon="6.7471">
        <ele>398</ele>
        <time>2016-02-07T09:21:17.000Z</time>
      </trkpt>
      <trkpt lat="47.48581" lon="6.74704">
        <ele>398</ele>
        <time>2016-02-07T09:21:21.000Z</time>
      </trkpt>
      <trkpt lat="47.48581" lon="6.74703">
        <ele>398</ele>
        <time>2016-02-07T09:21:22.000Z</time>
      </trkpt>
      <trkpt lat="47.48581" lon="6.74697">
        <ele>399</ele>
        <time>2016-02-07T09:21:25.000Z</time>
      </trkpt>
      <trkpt lat="47.4858" lon="6.74695">
        <ele>399</ele>
        <time>2016-02-07T09:21:26.000Z</time>
      </trkpt>
      <trkpt lat="47.48579" lon="6.7469">
        <ele>400</ele>
        <time>2016-02-07T09:21:29.000Z</time>
      </trkpt>
      <trkpt lat="47.48579" lon="6.74688">
        <ele>400</ele>
        <time>2016-02-07T09:21:30.000Z</time>
      </trkpt>
      <trkpt lat="47.48579" lon="6.74682">
        <ele>402</ele>
        <time>2016-02-07T09:21:33.000Z</time>
      </trkpt>
      <trkpt lat="47.48579" lon="6.7468">
        <ele>402</ele>
        <time>2016-02-07T09:21:34.000Z</time>
      </trkpt>
      <trkpt lat="47.48579" lon="6.74675">
        <ele>405</ele>
        <time>2016-02-07T09:21:37.000Z</time>
      </trkpt>
      <trkpt lat="47.48579" lon="6.74673">
        <ele>405</ele>
        <time>2016-02-07T09:21:38.000Z</time>
      </trkpt>
      <trkpt lat="47.4858" lon="6.74667">
        <ele>408</ele>
        <time>2016-02-07T09:21:41.000Z</time>
      </trkpt>
      <trkpt lat="47.48581" lon="6.74665">
        <ele>408</ele>
        <time>2016-02-07T09:21:42.000Z</time>
      </trkpt>
      <trkpt lat="47.48582" lon="6.74659">
        <ele>406</ele>
        <time>2016-02-07T09:21:46.000Z</time>
      </trkpt>
      <trkpt lat="47.48582" lon="6.74657">
        <ele>406</ele>
        <time>2016-02-07T09:21:47.000Z</time>
      </trkpt>
      <trkpt lat="47.48582" lon="6.74651">
        <ele>404</ele>
        <time>2016-02-07T09:21:51.000Z</time>
      </trkpt>
      <trkpt lat="47.48582" lon="6.7465">
        <ele>404</ele>
        <time>2016-02-07T09:21:52.000Z</time>
      </trkpt>
      <trkpt lat="47.48582" lon="6.74644">
        <ele>403</ele>
        <time>2016-02-07T09:21:56.000Z</time>
      </trkpt>
      <trkpt lat="47.48582" lon="6.74642">
        <ele>403</ele>
        <time>2016-02-07T09:21:57.000Z</time>
      </trkpt>
      <trkpt lat="47.48583" lon="6.74637">
        <ele>402</ele>
        <time>2016-02-07T09:22:00.000Z</time>
      </trkpt>
      <trkpt lat="47.48583" lon="6.74635">
        <ele>402</ele>
        <time>2016-02-07T09:22:01.000Z</time>
      </trkpt>
      <trkpt lat="47.48583" lon="6.74629">
        <ele>402</ele>
        <time>2016-02-07T09:22:04.000Z</time>
      </trkpt>
      <trkpt lat="47.48583" lon="6.74627">
        <ele>402</ele>
        <time>2016-02-07T09:22:05.000Z</time>
      </trkpt>
      <trkpt lat="47.48583" lon="6.74622">
        <ele>402</ele>
        <time>2016-02-07T09:22:07.000Z</time>
      </trkpt>
      <trkpt lat="47.48582" lon="6.7462">
        <ele>402</ele>
        <time>2016-02-07T09:22:08.000Z</time>
      </trkpt>
      <trkpt lat="47.48582" lon="6.74615">
        <ele>403</ele>
        <time>2016-02-07T09:22:10.000Z</time>
      </trkpt>
      <trkpt lat="47.48582" lon="6.74612">
        <ele>403</ele>
        <time>2016-02-07T09:22:11.000Z</time>
      </trkpt>
      <trkpt lat="47.48582" lon="6.74606">
        <ele>404</ele>
        <time>2016-02-07T09:22:13.000Z</time>
      </trkpt>
      <trkpt lat="47.48582" lon="6.74602">
        <ele>405</ele>
        <time>2016-02-07T09:22:14.000Z</time>
      </trkpt>
      <trkpt lat="47.48582" lon="6.74599">
        <ele>406</ele>
        <time>2016-02-07T09:22:15.000Z</time>
      </trkpt>
      <trkpt lat="47.48582" lon="6.74595">
        <ele>408</ele>
        <time>2016-02-07T09:22:16.000Z</time>
      </trkpt>
      <trkpt lat="47.48582" lon="6.74591">
        <ele>409</ele>
        <time>2016-02-07T09:22:17.000Z</time>
      </trkpt>
      <trkpt lat="47.48581" lon="6.74588">
        <ele>411</ele>
        <time>2016-02-07T09:22:18.000Z</time>
      </trkpt>
      <trkpt lat="47.4858" lon="6.74581">
        <ele>412</ele>
        <time>2016-02-07T09:22:20.000Z</time>
      </trkpt>
      <trkpt lat="47.4858" lon="6.74578">
        <ele>410</ele>
        <time>2016-02-07T09:22:21.000Z</time>
      </trkpt>
      <trkpt lat="47.4858" lon="6.74574">
        <ele>409</ele>
        <time>2016-02-07T09:22:22.000Z</time>
      </trkpt>
      <trkpt lat="47.48579" lon="6.74571">
        <ele>407</ele>
        <time>2016-02-07T09:22:23.000Z</time>
      </trkpt>
      <trkpt lat="47.48579" lon="6.74567">
        <ele>406</ele>
        <time>2016-02-07T09:22:24.000Z</time>
      </trkpt>
      <trkpt lat="47.48579" lon="6.74564">
        <ele>406</ele>
        <time>2016-02-07T09:22:25.000Z</time>
      </trkpt>
      <trkpt lat="47.48579" lon="6.7456">
        <ele>405</ele>
        <time>2016-02-07T09:22:26.000Z</time>
      </trkpt>
      <trkpt lat="47.48578" lon="6.74557">
        <ele>404</ele>
        <time>2016-02-07T09:22:27.000Z</time>
      </trkpt>
      <trkpt lat="47.48577" lon="6.74553">
        <ele>404</ele>
        <time>2016-02-07T09:22:28.000Z</time>
      </trkpt>
      <trkpt lat="47.48577" lon="6.7455">
        <ele>404</ele>
        <time>2016-02-07T09:22:29.000Z</time>
      </trkpt>
      <trkpt lat="47.48576" lon="6.74546">
        <ele>403</ele>
        <time>2016-02-07T09:22:30.000Z</time>
      </trkpt>
      <trkpt lat="47.48576" lon="6.74543">
        <ele>403</ele>
        <time>2016-02-07T09:22:31.000Z</time>
      </trkpt>
      <trkpt lat="47.48575" lon="6.74539">
        <ele>403</ele>
        <time>2016-02-07T09:22:32.000Z</time>
      </trkpt>
      <trkpt lat="47.48575" lon="6.74536">
        <ele>403</ele>
        <time>2016-02-07T09:22:33.000Z</time>
      </trkpt>
      <trkpt lat="47.48574" lon="6.7453">
        <ele>404</ele>
        <time>2016-02-07T09:22:35.000Z</time>
      </trkpt>
      <trkpt lat="47.48574" lon="6.74526">
        <ele>404</ele>
        <time>2016-02-07T09:22:36.000Z</time>
      </trkpt>
      <trkpt lat="47.48574" lon="6.74522">
        <ele>405</ele>
        <time>2016-02-07T09:22:37.000Z</time>
      </trkpt>
      <trkpt lat="47.48574" lon="6.74518">
        <ele>406</ele>
        <time>2016-02-07T09:22:38.000Z</time>
      </trkpt>
      <trkpt lat="47.48573" lon="6.74513">
        <ele>407</ele>
        <time>2016-02-07T09:22:39.000Z</time>
      </trkpt>
      <trkpt lat="47.48572" lon="6.74509">
        <ele>408</ele>
        <time>2016-02-07T09:22:40.000Z</time>
      </trkpt>
      <trkpt lat="47.48571" lon="6.74504">
        <ele>408</ele>
        <time>2016-02-07T09:22:41.000Z</time>
      </trkpt>
      <trkpt lat="47.48569" lon="6.74499">
        <ele>407</ele>
        <time>2016-02-07T09:22:42.000Z</time>
      </trkpt>
      <trkpt lat="47.48568" lon="6.74495">
        <ele>406</ele>
        <time>2016-02-07T09:22:43.000Z</time>
      </trkpt>
      <trkpt lat="47.48566" lon="6.7449">
        <ele>404</ele>
        <time>2016-02-07T09:22:44.000Z</time>
      </trkpt>
      <trkpt lat="47.48565" lon="6.74486">
        <ele>403</ele>
        <time>2016-02-07T09:22:45.000Z</time>
      </trkpt>
      <trkpt lat="47.48565" lon="6.74483">
        <ele>403</ele>
        <time>2016-02-07T09:22:46.000Z</time>
      </trkpt>
      <trkpt lat="47.48563" lon="6.74477">
        <ele>402</ele>
        <time>2016-02-07T09:22:51.000Z</time>
      </trkpt>
      <trkpt lat="47.48563" lon="6.74477">
        <ele>402</ele>
        <time>2016-02-07T09:22:52.000Z</time>
      </trkpt>
      <trkpt lat="47.48567" lon="6.74476">
        <ele>403</ele>
        <time>2016-02-07T09:23:03.000Z</time>
      </trkpt>
      <trkpt lat="47.48568" lon="6.74476">
        <ele>403</ele>
        <time>2016-02-07T09:23:04.000Z</time>
      </trkpt>
      <trkpt lat="47.48568" lon="6.74471">
        <ele>402</ele>
        <time>2016-02-07T09:27:55.000Z</time>
      </trkpt>
      <trkpt lat="47.48568" lon="6.74469">
        <ele>402</ele>
        <time>2016-02-07T09:27:56.000Z</time>
      </trkpt>
      <trkpt lat="47.48568" lon="6.74465">
        <ele>401</ele>
        <time>2016-02-07T09:27:58.000Z</time>
      </trkpt>
      <trkpt lat="47.48567" lon="6.74462">
        <ele>401</ele>
        <time>2016-02-07T09:27:59.000Z</time>
      </trkpt>
      <trkpt lat="47.48566" lon="6.74457">
        <ele>401</ele>
        <time>2016-02-07T09:28:01.000Z</time>
      </trkpt>
      <trkpt lat="47.48566" lon="6.74453">
        <ele>401</ele>
        <time>2016-02-07T09:28:02.000Z</time>
      </trkpt>
      <trkpt lat="47.48565" lon="6.74449">
        <ele>401</ele>
        <time>2016-02-07T09:28:03.000Z</time>
      </trkpt>
      <trkpt lat="47.48565" lon="6.74444">
        <ele>401</ele>
        <time>2016-02-07T09:28:04.000Z</time>
      </trkpt>
      <trkpt lat="47.48565" lon="6.7444">
        <ele>402</ele>
        <time>2016-02-07T09:28:05.000Z</time>
      </trkpt>
      <trkpt lat="47.48564" lon="6.74436">
        <ele>402</ele>
        <time>2016-02-07T09:28:06.000Z</time>
      </trkpt>
      <trkpt lat="47.48564" lon="6.74432">
        <ele>403</ele>
        <time>2016-02-07T09:28:07.000Z</time>
      </trkpt>
      <trkpt lat="47.48564" lon="6.74429">
        <ele>403</ele>
        <time>2016-02-07T09:28:08.000Z</time>
      </trkpt>
      <trkpt lat="47.48562" lon="6.74423">
        <ele>403</ele>
        <time>2016-02-07T09:28:10.000Z</time>
      </trkpt>
      <trkpt lat="47.48561" lon="6.74418">
        <ele>403</ele>
        <time>2016-02-07T09:28:11.000Z</time>
      </trkpt>
      <trkpt lat="47.4856" lon="6.74413">
        <ele>401</ele>
        <time>2016-02-07T09:28:12.000Z</time>
      </trkpt>
      <trkpt lat="47.48559" lon="6.74408">
        <ele>400</ele>
        <time>2016-02-07T09:28:13.000Z</time>
      </trkpt>
      <trkpt lat="47.48558" lon="6.74402">
        <ele>399</ele>
        <time>2016-02-07T09:28:14.000Z</time>
      </trkpt>
      <trkpt lat="47.48558" lon="6.74397">
        <ele>399</ele>
        <time>2016-02-07T09:28:15.000Z</time>
      </trkpt>
      <trkpt lat="47.48558" lon="6.74393">
        <ele>398</ele>
        <time>2016-02-07T09:28:16.000Z</time>
      </trkpt>
      <trkpt lat="47.48559" lon="6.7439">
        <ele>398</ele>
        <time>2016-02-07T09:28:17.000Z</time>
      </trkpt>
      <trkpt lat="47.48561" lon="6.74385">
        <ele>398</ele>
        <time>2016-02-07T09:28:19.000Z</time>
      </trkpt>
      <trkpt lat="47.48563" lon="6.74381">
        <ele>398</ele>
        <time>2016-02-07T09:28:20.000Z</time>
      </trkpt>
      <trkpt lat="47.48564" lon="6.74375">
        <ele>398</ele>
        <time>2016-02-07T09:28:21.000Z</time>
      </trkpt>
      <trkpt lat="47.48566" lon="6.74369">
        <ele>398</ele>
        <time>2016-02-07T09:28:22.000Z</time>
      </trkpt>
      <trkpt lat="47.48568" lon="6.74363">
        <ele>399</ele>
        <time>2016-02-07T09:28:23.000Z</time>
      </trkpt>
      <trkpt lat="47.4857" lon="6.74356">
        <ele>400</ele>
        <time>2016-02-07T09:28:24.000Z</time>
      </trkpt>
      <trkpt lat="47.48574" lon="6.74333">
        <ele>403</ele>
        <time>2016-02-07T09:28:25.000Z</time>
      </trkpt>
      <trkpt lat="47.48576" lon="6.74322">
        <ele>401</ele>
        <time>2016-02-07T09:28:26.000Z</time>
      </trkpt>
      <trkpt lat="47.48577" lon="6.74314">
        <ele>400</ele>
        <time>2016-02-07T09:28:27.000Z</time>
      </trkpt>
      <trkpt lat="47.48578" lon="6.74303">
        <ele>398</ele>
        <time>2016-02-07T09:28:28.000Z</time>
      </trkpt>
      <trkpt lat="47.48578" lon="6.74295">
        <ele>397</ele>
        <time>2016-02-07T09:28:29.000Z</time>
      </trkpt>
      <trkpt lat="47.48577" lon="6.74284">
        <ele>397</ele>
        <time>2016-02-07T09:28:30.000Z</time>
      </trkpt>
      <trkpt lat="47.48577" lon="6.74276">
        <ele>398</ele>
        <time>2016-02-07T09:28:31.000Z</time>
      </trkpt>
      <trkpt lat="47.48579" lon="6.74266">
        <ele>400</ele>
        <time>2016-02-07T09:28:32.000Z</time>
      </trkpt>
      <trkpt lat="47.4858" lon="6.74259">
        <ele>402</ele>
        <time>2016-02-07T09:28:33.000Z</time>
      </trkpt>
      <trkpt lat="47.4858" lon="6.74251">
        <ele>405</ele>
        <time>2016-02-07T09:28:34.000Z</time>
      </trkpt>
      <trkpt lat="47.48582" lon="6.74246">
        <ele>404</ele>
        <time>2016-02-07T09:28:35.000Z</time>
      </trkpt>
      <trkpt lat="47.48584" lon="6.74241">
        <ele>410</ele>
        <time>2016-02-07T09:28:36.000Z</time>
      </trkpt>
      <trkpt lat="47.48585" lon="6.74235">
        <ele>411</ele>
        <time>2016-02-07T09:28:37.000Z</time>
      </trkpt>
      <trkpt lat="47.48587" lon="6.74228">
        <ele>412</ele>
        <time>2016-02-07T09:28:38.000Z</time>
      </trkpt>
      <trkpt lat="47.48586" lon="6.74219">
        <ele>413</ele>
        <time>2016-02-07T09:28:39.000Z</time>
      </trkpt>
      <trkpt lat="47.48586" lon="6.74212">
        <ele>413</ele>
        <time>2016-02-07T09:28:40.000Z</time>
      </trkpt>
      <trkpt lat="47.48588" lon="6.74206">
        <ele>413</ele>
        <time>2016-02-07T09:28:41.000Z</time>
      </trkpt>
      <trkpt lat="47.48587" lon="6.74198">
        <ele>412</ele>
        <time>2016-02-07T09:28:42.000Z</time>
      </trkpt>
      <trkpt lat="47.48586" lon="6.74189">
        <ele>410</ele>
        <time>2016-02-07T09:28:43.000Z</time>
      </trkpt>
      <trkpt lat="47.48586" lon="6.7418">
        <ele>408</ele>
        <time>2016-02-07T09:28:44.000Z</time>
      </trkpt>
      <trkpt lat="47.48586" lon="6.74172">
        <ele>405</ele>
        <time>2016-02-07T09:28:45.000Z</time>
      </trkpt>
      <trkpt lat="47.48586" lon="6.74164">
        <ele>403</ele>
        <time>2016-02-07T09:28:46.000Z</time>
      </trkpt>
      <trkpt lat="47.48586" lon="6.74155">
        <ele>405</ele>
        <time>2016-02-07T09:28:47.000Z</time>
      </trkpt>
      <trkpt lat="47.48586" lon="6.74147">
        <ele>406</ele>
        <time>2016-02-07T09:28:48.000Z</time>
      </trkpt>
      <trkpt lat="47.48585" lon="6.7414">
        <ele>407</ele>
        <time>2016-02-07T09:28:49.000Z</time>
      </trkpt>
      <trkpt lat="47.48584" lon="6.74134">
        <ele>407</ele>
        <time>2016-02-07T09:28:50.000Z</time>
      </trkpt>
      <trkpt lat="47.48585" lon="6.74128">
        <ele>407</ele>
        <time>2016-02-07T09:28:51.000Z</time>
      </trkpt>
      <trkpt lat="47.48585" lon="6.74121">
        <ele>407</ele>
        <time>2016-02-07T09:28:52.000Z</time>
      </trkpt>
      <trkpt lat="47.48585" lon="6.74115">
        <ele>406</ele>
        <time>2016-02-07T09:28:53.000Z</time>
      </trkpt>
      <trkpt lat="47.48585" lon="6.74109">
        <ele>405</ele>
        <time>2016-02-07T09:28:54.000Z</time>
      </trkpt>
      <trkpt lat="47.48586" lon="6.74102">
        <ele>404</ele>
        <time>2016-02-07T09:28:55.000Z</time>
      </trkpt>
      <trkpt lat="47.48587" lon="6.74097">
        <ele>403</ele>
        <time>2016-02-07T09:28:56.000Z</time>
      </trkpt>
      <trkpt lat="47.48587" lon="6.74092">
        <ele>401</ele>
        <time>2016-02-07T09:28:57.000Z</time>
      </trkpt>
      <trkpt lat="47.48588" lon="6.74088">
        <ele>400</ele>
        <time>2016-02-07T09:28:58.000Z</time>
      </trkpt>
      <trkpt lat="47.48589" lon="6.74084">
        <ele>400</ele>
        <time>2016-02-07T09:28:59.000Z</time>
      </trkpt>
      <trkpt lat="47.4859" lon="6.7408">
        <ele>399</ele>
        <time>2016-02-07T09:29:00.000Z</time>
      </trkpt>
      <trkpt lat="47.48591" lon="6.74075">
        <ele>400</ele>
        <time>2016-02-07T09:29:01.000Z</time>
      </trkpt>
      <trkpt lat="47.48592" lon="6.74069">
        <ele>401</ele>
        <time>2016-02-07T09:29:02.000Z</time>
      </trkpt>
      <trkpt lat="47.48593" lon="6.74063">
        <ele>402</ele>
        <time>2016-02-07T09:29:03.000Z</time>
      </trkpt>
      <trkpt lat="47.48594" lon="6.74058">
        <ele>402</ele>
        <time>2016-02-07T09:29:04.000Z</time>
      </trkpt>
      <trkpt lat="47.48595" lon="6.74053">
        <ele>402</ele>
        <time>2016-02-07T09:29:05.000Z</time>
      </trkpt>
      <trkpt lat="47.48595" lon="6.74049">
        <ele>402</ele>
        <time>2016-02-07T09:29:06.000Z</time>
      </trkpt>
      <trkpt lat="47.48596" lon="6.74044">
        <ele>402</ele>
        <time>2016-02-07T09:29:07.000Z</time>
      </trkpt>
      <trkpt lat="47.48596" lon="6.7404">
        <ele>402</ele>
        <time>2016-02-07T09:29:08.000Z</time>
      </trkpt>
      <trkpt lat="47.48597" lon="6.74036">
        <ele>402</ele>
        <time>2016-02-07T09:29:09.000Z</time>
      </trkpt>
      <trkpt lat="47.48598" lon="6.74031">
        <ele>402</ele>
        <time>2016-02-07T09:29:10.000Z</time>
      </trkpt>
      <trkpt lat="47.486" lon="6.74027">
        <ele>402</ele>
        <time>2016-02-07T09:29:11.000Z</time>
      </trkpt>
      <trkpt lat="47.48601" lon="6.74022">
        <ele>401</ele>
        <time>2016-02-07T09:29:12.000Z</time>
      </trkpt>
      <trkpt lat="47.48603" lon="6.74017">
        <ele>401</ele>
        <time>2016-02-07T09:29:13.000Z</time>
      </trkpt>
      <trkpt lat="47.48604" lon="6.74011">
        <ele>401</ele>
        <time>2016-02-07T09:29:14.000Z</time>
      </trkpt>
      <trkpt lat="47.48605" lon="6.74004">
        <ele>401</ele>
        <time>2016-02-07T09:29:15.000Z</time>
      </trkpt>
      <trkpt lat="47.48607" lon="6.73997">
        <ele>397</ele>
        <time>2016-02-07T09:29:16.000Z</time>
      </trkpt>
      <trkpt lat="47.48609" lon="6.7399">
        <ele>397</ele>
        <time>2016-02-07T09:29:17.000Z</time>
      </trkpt>
      <trkpt lat="47.48611" lon="6.73985">
        <ele>397</ele>
        <time>2016-02-07T09:29:18.000Z</time>
      </trkpt>
      <trkpt lat="47.48613" lon="6.7398">
        <ele>398</ele>
        <time>2016-02-07T09:29:19.000Z</time>
      </trkpt>
      <trkpt lat="47.48614" lon="6.73975">
        <ele>398</ele>
        <time>2016-02-07T09:29:20.000Z</time>
      </trkpt>
      <trkpt lat="47.48615" lon="6.73971">
        <ele>398</ele>
        <time>2016-02-07T09:29:21.000Z</time>
      </trkpt>
      <trkpt lat="47.48615" lon="6.73967">
        <ele>398</ele>
        <time>2016-02-07T09:29:22.000Z</time>
      </trkpt>
      <trkpt lat="47.48615" lon="6.73963">
        <ele>397</ele>
        <time>2016-02-07T09:29:23.000Z</time>
      </trkpt>
      <trkpt lat="47.48616" lon="6.73959">
        <ele>397</ele>
        <time>2016-02-07T09:29:24.000Z</time>
      </trkpt>
      <trkpt lat="47.48616" lon="6.73955">
        <ele>397</ele>
        <time>2016-02-07T09:29:25.000Z</time>
      </trkpt>
      <trkpt lat="47.48617" lon="6.73951">
        <ele>397</ele>
        <time>2016-02-07T09:29:26.000Z</time>
      </trkpt>
      <trkpt lat="47.48617" lon="6.73946">
        <ele>397</ele>
        <time>2016-02-07T09:29:27.000Z</time>
      </trkpt>
      <trkpt lat="47.48618" lon="6.73941">
        <ele>396</ele>
        <time>2016-02-07T09:29:28.000Z</time>
      </trkpt>
      <trkpt lat="47.48619" lon="6.73936">
        <ele>396</ele>
        <time>2016-02-07T09:29:29.000Z</time>
      </trkpt>
      <trkpt lat="47.4862" lon="6.7393">
        <ele>396</ele>
        <time>2016-02-07T09:29:30.000Z</time>
      </trkpt>
      <trkpt lat="47.48621" lon="6.73924">
        <ele>396</ele>
        <time>2016-02-07T09:29:31.000Z</time>
      </trkpt>
      <trkpt lat="47.48623" lon="6.73918">
        <ele>396</ele>
        <time>2016-02-07T09:29:32.000Z</time>
      </trkpt>
      <trkpt lat="47.48625" lon="6.73912">
        <ele>390</ele>
        <time>2016-02-07T09:29:33.000Z</time>
      </trkpt>
      <trkpt lat="47.48627" lon="6.73907">
        <ele>390</ele>
        <time>2016-02-07T09:29:34.000Z</time>
      </trkpt>
      <trkpt lat="47.48629" lon="6.73901">
        <ele>390</ele>
        <time>2016-02-07T09:29:35.000Z</time>
      </trkpt>
      <trkpt lat="47.48631" lon="6.73895">
        <ele>390</ele>
        <time>2016-02-07T09:29:36.000Z</time>
      </trkpt>
      <trkpt lat="47.48633" lon="6.73888">
        <ele>389</ele>
        <time>2016-02-07T09:29:37.000Z</time>
      </trkpt>
      <trkpt lat="47.48634" lon="6.7388">
        <ele>389</ele>
        <time>2016-02-07T09:29:38.000Z</time>
      </trkpt>
      <trkpt lat="47.48635" lon="6.73872">
        <ele>388</ele>
        <time>2016-02-07T09:29:39.000Z</time>
      </trkpt>
      <trkpt lat="47.48636" lon="6.73863">
        <ele>388</ele>
        <time>2016-02-07T09:29:40.000Z</time>
      </trkpt>
      <trkpt lat="47.48636" lon="6.73855">
        <ele>388</ele>
        <time>2016-02-07T09:29:41.000Z</time>
      </trkpt>
      <trkpt lat="47.48637" lon="6.73846">
        <ele>387</ele>
        <time>2016-02-07T09:29:42.000Z</time>
      </trkpt>
      <trkpt lat="47.48637" lon="6.73837">
        <ele>387</ele>
        <time>2016-02-07T09:29:43.000Z</time>
      </trkpt>
      <trkpt lat="47.48637" lon="6.73828">
        <ele>384</ele>
        <time>2016-02-07T09:29:44.000Z</time>
      </trkpt>
      <trkpt lat="47.48636" lon="6.73819">
        <ele>383</ele>
        <time>2016-02-07T09:29:45.000Z</time>
      </trkpt>
      <trkpt lat="47.48634" lon="6.7381">
        <ele>383</ele>
        <time>2016-02-07T09:29:46.000Z</time>
      </trkpt>
      <trkpt lat="47.48622" lon="6.73784">
        <ele>382</ele>
        <time>2016-02-07T09:29:47.000Z</time>
      </trkpt>
      <trkpt lat="47.48621" lon="6.73774">
        <ele>382</ele>
        <time>2016-02-07T09:29:48.000Z</time>
      </trkpt>
      <trkpt lat="47.48622" lon="6.73756">
        <ele>382</ele>
        <time>2016-02-07T09:29:49.000Z</time>
      </trkpt>
      <trkpt lat="47.48624" lon="6.73742">
        <ele>382</ele>
        <time>2016-02-07T09:29:50.000Z</time>
      </trkpt>
      <trkpt lat="47.48624" lon="6.7373">
        <ele>382</ele>
        <time>2016-02-07T09:29:51.000Z</time>
      </trkpt>
      <trkpt lat="47.48622" lon="6.73713">
        <ele>382</ele>
        <time>2016-02-07T09:29:52.000Z</time>
      </trkpt>
      <trkpt lat="47.48619" lon="6.73702">
        <ele>382</ele>
        <time>2016-02-07T09:29:53.000Z</time>
      </trkpt>
      <trkpt lat="47.48619" lon="6.73691">
        <ele>382</ele>
        <time>2016-02-07T09:29:54.000Z</time>
      </trkpt>
      <trkpt lat="47.48618" lon="6.7368">
        <ele>382</ele>
        <time>2016-02-07T09:29:55.000Z</time>
      </trkpt>
      <trkpt lat="47.48617" lon="6.7367">
        <ele>382</ele>
        <time>2016-02-07T09:29:56.000Z</time>
      </trkpt>
      <trkpt lat="47.48615" lon="6.73661">
        <ele>381</ele>
        <time>2016-02-07T09:29:57.000Z</time>
      </trkpt>
      <trkpt lat="47.48614" lon="6.73653">
        <ele>381</ele>
        <time>2016-02-07T09:29:58.000Z</time>
      </trkpt>
      <trkpt lat="47.48614" lon="6.73644">
        <ele>381</ele>
        <time>2016-02-07T09:29:59.000Z</time>
      </trkpt>
      <trkpt lat="47.48614" lon="6.73637">
        <ele>381</ele>
        <time>2016-02-07T09:30:00.000Z</time>
      </trkpt>
      <trkpt lat="47.48614" lon="6.73627">
        <ele>380</ele>
        <time>2016-02-07T09:30:01.000Z</time>
      </trkpt>
      <trkpt lat="47.48615" lon="6.7362">
        <ele>380</ele>
        <time>2016-02-07T09:30:02.000Z</time>
      </trkpt>
      <trkpt lat="47.48617" lon="6.73615">
        <ele>380</ele>
        <time>2016-02-07T09:30:03.000Z</time>
      </trkpt>
      <trkpt lat="47.4862" lon="6.7361">
        <ele>380</ele>
        <time>2016-02-07T09:30:04.000Z</time>
      </trkpt>
      <trkpt lat="47.48621" lon="6.73603">
        <ele>380</ele>
        <time>2016-02-07T09:30:05.000Z</time>
      </trkpt>
      <trkpt lat="47.48622" lon="6.73597">
        <ele>380</ele>
        <time>2016-02-07T09:30:06.000Z</time>
      </trkpt>
      <trkpt lat="47.48622" lon="6.73591">
        <ele>380</ele>
        <time>2016-02-07T09:30:07.000Z</time>
      </trkpt>
      <trkpt lat="47.48624" lon="6.73587">
        <ele>380</ele>
        <time>2016-02-07T09:30:08.000Z</time>
      </trkpt>
      <trkpt lat="47.48625" lon="6.73585">
        <ele>380</ele>
        <time>2016-02-07T09:30:09.000Z</time>
      </trkpt>
      <trkpt lat="47.48625" lon="6.7358">
        <ele>376</ele>
        <time>2016-02-07T09:30:10.000Z</time>
      </trkpt>
      <trkpt lat="47.48625" lon="6.73576">
        <ele>376</ele>
        <time>2016-02-07T09:30:11.000Z</time>
      </trkpt>
      <trkpt lat="47.48626" lon="6.73572">
        <ele>376</ele>
        <time>2016-02-07T09:30:12.000Z</time>
      </trkpt>
      <trkpt lat="47.48627" lon="6.73566">
        <ele>376</ele>
        <time>2016-02-07T09:30:15.000Z</time>
      </trkpt>
      <trkpt lat="47.48627" lon="6.73564">
        <ele>376</ele>
        <time>2016-02-07T09:30:16.000Z</time>
      </trkpt>
      <trkpt lat="47.48629" lon="6.73559">
        <ele>376</ele>
        <time>2016-02-07T09:30:18.000Z</time>
      </trkpt>
      <trkpt lat="47.4863" lon="6.73555">
        <ele>375</ele>
        <time>2016-02-07T09:30:19.000Z</time>
      </trkpt>
      <trkpt lat="47.48631" lon="6.73552">
        <ele>375</ele>
        <time>2016-02-07T09:30:20.000Z</time>
      </trkpt>
      <trkpt lat="47.48631" lon="6.73549">
        <ele>375</ele>
        <time>2016-02-07T09:30:21.000Z</time>
      </trkpt>
      <trkpt lat="47.48632" lon="6.73544">
        <ele>375</ele>
        <time>2016-02-07T09:30:23.000Z</time>
      </trkpt>
      <trkpt lat="47.48633" lon="6.73542">
        <ele>375</ele>
        <time>2016-02-07T09:30:24.000Z</time>
      </trkpt>
      <trkpt lat="47.48634" lon="6.73537">
        <ele>375</ele>
        <time>2016-02-07T09:30:26.000Z</time>
      </trkpt>
      <trkpt lat="47.48634" lon="6.73534">
        <ele>375</ele>
        <time>2016-02-07T09:30:27.000Z</time>
      </trkpt>
      <trkpt lat="47.48635" lon="6.7353">
        <ele>374</ele>
        <time>2016-02-07T09:30:28.000Z</time>
      </trkpt>
      <trkpt lat="47.48635" lon="6.73525">
        <ele>374</ele>
        <time>2016-02-07T09:30:29.000Z</time>
      </trkpt>
      <trkpt lat="47.48636" lon="6.73521">
        <ele>374</ele>
        <time>2016-02-07T09:30:30.000Z</time>
      </trkpt>
      <trkpt lat="47.48636" lon="6.73517">
        <ele>374</ele>
        <time>2016-02-07T09:30:31.000Z</time>
      </trkpt>
      <trkpt lat="47.48637" lon="6.73512">
        <ele>374</ele>
        <time>2016-02-07T09:30:32.000Z</time>
      </trkpt>
      <trkpt lat="47.48637" lon="6.73508">
        <ele>374</ele>
        <time>2016-02-07T09:30:33.000Z</time>
      </trkpt>
      <trkpt lat="47.48638" lon="6.73504">
        <ele>373</ele>
        <time>2016-02-07T09:30:34.000Z</time>
      </trkpt>
      <trkpt lat="47.48638" lon="6.73499">
        <ele>369</ele>
        <time>2016-02-07T09:30:35.000Z</time>
      </trkpt>
      <trkpt lat="47.48639" lon="6.73493">
        <ele>369</ele>
        <time>2016-02-07T09:30:36.000Z</time>
      </trkpt>
      <trkpt lat="47.4864" lon="6.73487">
        <ele>368</ele>
        <time>2016-02-07T09:30:37.000Z</time>
      </trkpt>
      <trkpt lat="47.48642" lon="6.73481">
        <ele>368</ele>
        <time>2016-02-07T09:30:38.000Z</time>
      </trkpt>
      <trkpt lat="47.48645" lon="6.73478">
        <ele>368</ele>
        <time>2016-02-07T09:30:39.000Z</time>
      </trkpt>
      <trkpt lat="47.48649" lon="6.73478">
        <ele>368</ele>
        <time>2016-02-07T09:30:41.000Z</time>
      </trkpt>
      <trkpt lat="47.4865" lon="6.7348">
        <ele>368</ele>
        <time>2016-02-07T09:30:42.000Z</time>
      </trkpt>
      <trkpt lat="47.48653" lon="6.73484">
        <ele>369</ele>
        <time>2016-02-07T09:30:45.000Z</time>
      </trkpt>
      <trkpt lat="47.48655" lon="6.73484">
        <ele>369</ele>
        <time>2016-02-07T09:30:46.000Z</time>
      </trkpt>
      <trkpt lat="47.48659" lon="6.73485">
        <ele>369</ele>
        <time>2016-02-07T09:30:48.000Z</time>
      </trkpt>
      <trkpt lat="47.48661" lon="6.73486">
        <ele>369</ele>
        <time>2016-02-07T09:30:49.000Z</time>
      </trkpt>
      <trkpt lat="47.48664" lon="6.73488">
        <ele>370</ele>
        <time>2016-02-07T09:30:51.000Z</time>
      </trkpt>
      <trkpt lat="47.48665" lon="6.7349">
        <ele>370</ele>
        <time>2016-02-07T09:30:52.000Z</time>
      </trkpt>
      <trkpt lat="47.48667" lon="6.73494">
        <ele>371</ele>
        <time>2016-02-07T09:30:54.000Z</time>
      </trkpt>
      <trkpt lat="47.48668" lon="6.73496">
        <ele>371</ele>
        <time>2016-02-07T09:30:55.000Z</time>
      </trkpt>
      <trkpt lat="47.4867" lon="6.73498">
        <ele>371</ele>
        <time>2016-02-07T09:30:56.000Z</time>
      </trkpt>
      <trkpt lat="47.48672" lon="6.735">
        <ele>372</ele>
        <time>2016-02-07T09:30:57.000Z</time>
      </trkpt>
      <trkpt lat="47.48674" lon="6.73503">
        <ele>373</ele>
        <time>2016-02-07T09:30:58.000Z</time>
      </trkpt>
      <trkpt lat="47.48676" lon="6.73504">
        <ele>373</ele>
        <time>2016-02-07T09:30:59.000Z</time>
      </trkpt>
      <trkpt lat="47.48678" lon="6.73506">
        <ele>373</ele>
        <time>2016-02-07T09:31:00.000Z</time>
      </trkpt>
      <trkpt lat="47.4868" lon="6.73508">
        <ele>373</ele>
        <time>2016-02-07T09:31:01.000Z</time>
      </trkpt>
      <trkpt lat="47.48684" lon="6.73511">
        <ele>373</ele>
        <time>2016-02-07T09:31:03.000Z</time>
      </trkpt>
      <trkpt lat="47.48686" lon="6.73512">
        <ele>374</ele>
        <time>2016-02-07T09:31:04.000Z</time>
      </trkpt>
      <trkpt lat="47.48689" lon="6.73515">
        <ele>374</ele>
        <time>2016-02-07T09:31:05.000Z</time>
      </trkpt>
      <trkpt lat="47.48692" lon="6.73517">
        <ele>374</ele>
        <time>2016-02-07T09:31:06.000Z</time>
      </trkpt>
      <trkpt lat="47.48694" lon="6.7352">
        <ele>374</ele>
        <time>2016-02-07T09:31:07.000Z</time>
      </trkpt>
      <trkpt lat="47.48697" lon="6.73523">
        <ele>374</ele>
        <time>2016-02-07T09:31:08.000Z</time>
      </trkpt>
      <trkpt lat="47.48699" lon="6.73525">
        <ele>374</ele>
        <time>2016-02-07T09:31:09.000Z</time>
      </trkpt>
      <trkpt lat="47.48701" lon="6.73527">
        <ele>374</ele>
        <time>2016-02-07T09:31:10.000Z</time>
      </trkpt>
      <trkpt lat="47.48704" lon="6.73529">
        <ele>374</ele>
        <time>2016-02-07T09:31:11.000Z</time>
      </trkpt>
      <trkpt lat="47.48706" lon="6.73531">
        <ele>374</ele>
        <time>2016-02-07T09:31:12.000Z</time>
      </trkpt>
      <trkpt lat="47.48709" lon="6.73533">
        <ele>374</ele>
        <time>2016-02-07T09:31:13.000Z</time>
      </trkpt>
      <trkpt lat="47.48711" lon="6.73535">
        <ele>374</ele>
        <time>2016-02-07T09:31:14.000Z</time>
      </trkpt>
      <trkpt lat="47.48714" lon="6.73537">
        <ele>374</ele>
        <time>2016-02-07T09:31:15.000Z</time>
      </trkpt>
      <trkpt lat="47.48716" lon="6.73538">
        <ele>374</ele>
        <time>2016-02-07T09:31:16.000Z</time>
      </trkpt>
      <trkpt lat="47.48719" lon="6.7354">
        <ele>375</ele>
        <time>2016-02-07T09:31:17.000Z</time>
      </trkpt>
      <trkpt lat="47.48722" lon="6.73542">
        <ele>375</ele>
        <time>2016-02-07T09:31:18.000Z</time>
      </trkpt>
      <trkpt lat="47.48724" lon="6.73543">
        <ele>375</ele>
        <time>2016-02-07T09:31:19.000Z</time>
      </trkpt>
      <trkpt lat="47.48727" lon="6.73544">
        <ele>375</ele>
        <time>2016-02-07T09:31:20.000Z</time>
      </trkpt>
      <trkpt lat="47.4873" lon="6.73546">
        <ele>375</ele>
        <time>2016-02-07T09:31:21.000Z</time>
      </trkpt>
      <trkpt lat="47.48733" lon="6.73547">
        <ele>375</ele>
        <time>2016-02-07T09:31:22.000Z</time>
      </trkpt>
      <trkpt lat="47.48737" lon="6.73548">
        <ele>375</ele>
        <time>2016-02-07T09:31:23.000Z</time>
      </trkpt>
      <trkpt lat="47.4874" lon="6.7355">
        <ele>375</ele>
        <time>2016-02-07T09:31:24.000Z</time>
      </trkpt>
      <trkpt lat="47.48743" lon="6.73552">
        <ele>375</ele>
        <time>2016-02-07T09:31:25.000Z</time>
      </trkpt>
      <trkpt lat="47.48746" lon="6.73554">
        <ele>375</ele>
        <time>2016-02-07T09:31:26.000Z</time>
      </trkpt>
      <trkpt lat="47.48748" lon="6.73555">
        <ele>375</ele>
        <time>2016-02-07T09:31:27.000Z</time>
      </trkpt>
      <trkpt lat="47.48751" lon="6.73557">
        <ele>375</ele>
        <time>2016-02-07T09:31:28.000Z</time>
      </trkpt>
      <trkpt lat="47.48754" lon="6.73559">
        <ele>376</ele>
        <time>2016-02-07T09:31:29.000Z</time>
      </trkpt>
      <trkpt lat="47.48757" lon="6.73561">
        <ele>376</ele>
        <time>2016-02-07T09:31:30.000Z</time>
      </trkpt>
      <trkpt lat="47.4876" lon="6.73563">
        <ele>376</ele>
        <time>2016-02-07T09:31:31.000Z</time>
      </trkpt>
      <trkpt lat="47.48763" lon="6.73564">
        <ele>376</ele>
        <time>2016-02-07T09:31:32.000Z</time>
      </trkpt>
      <trkpt lat="47.48767" lon="6.73566">
        <ele>376</ele>
        <time>2016-02-07T09:31:33.000Z</time>
      </trkpt>
      <trkpt lat="47.4877" lon="6.73567">
        <ele>376</ele>
        <time>2016-02-07T09:31:34.000Z</time>
      </trkpt>
      <trkpt lat="47.48773" lon="6.73569">
        <ele>376</ele>
        <time>2016-02-07T09:31:35.000Z</time>
      </trkpt>
      <trkpt lat="47.48776" lon="6.7357">
        <ele>376</ele>
        <time>2016-02-07T09:31:36.000Z</time>
      </trkpt>
      <trkpt lat="47.48779" lon="6.73572">
        <ele>376</ele>
        <time>2016-02-07T09:31:37.000Z</time>
      </trkpt>
      <trkpt lat="47.48782" lon="6.73575">
        <ele>376</ele>
        <time>2016-02-07T09:31:38.000Z</time>
      </trkpt>
      <trkpt lat="47.48784" lon="6.73577">
        <ele>376</ele>
        <time>2016-02-07T09:31:39.000Z</time>
      </trkpt>
      <trkpt lat="47.48787" lon="6.73579">
        <ele>376</ele>
        <time>2016-02-07T09:31:40.000Z</time>
      </trkpt>
      <trkpt lat="47.4879" lon="6.73581">
        <ele>376</ele>
        <time>2016-02-07T09:31:41.000Z</time>
      </trkpt>
      <trkpt lat="47.48792" lon="6.73582">
        <ele>376</ele>
        <time>2016-02-07T09:31:42.000Z</time>
      </trkpt>
      <trkpt lat="47.48795" lon="6.73584">
        <ele>381</ele>
        <time>2016-02-07T09:31:43.000Z</time>
      </trkpt>
      <trkpt lat="47.48797" lon="6.73585">
        <ele>381</ele>
        <time>2016-02-07T09:31:44.000Z</time>
      </trkpt>
      <trkpt lat="47.488" lon="6.73586">
        <ele>381</ele>
        <time>2016-02-07T09:31:45.000Z</time>
      </trkpt>
      <trkpt lat="47.48803" lon="6.73588">
        <ele>381</ele>
        <time>2016-02-07T09:31:46.000Z</time>
      </trkpt>
      <trkpt lat="47.48806" lon="6.73589">
        <ele>381</ele>
        <time>2016-02-07T09:31:47.000Z</time>
      </trkpt>
      <trkpt lat="47.48809" lon="6.73592">
        <ele>381</ele>
        <time>2016-02-07T09:31:48.000Z</time>
      </trkpt>
      <trkpt lat="47.48811" lon="6.73594">
        <ele>381</ele>
        <time>2016-02-07T09:31:49.000Z</time>
      </trkpt>
      <trkpt lat="47.48813" lon="6.73596">
        <ele>381</ele>
        <time>2016-02-07T09:31:50.000Z</time>
      </trkpt>
      <trkpt lat="47.48815" lon="6.73598">
        <ele>381</ele>
        <time>2016-02-07T09:31:51.000Z</time>
      </trkpt>
      <trkpt lat="47.48817" lon="6.736">
        <ele>381</ele>
        <time>2016-02-07T09:31:52.000Z</time>
      </trkpt>
      <trkpt lat="47.48819" lon="6.73602">
        <ele>381</ele>
        <time>2016-02-07T09:31:53.000Z</time>
      </trkpt>
      <trkpt lat="47.48821" lon="6.73604">
        <ele>381</ele>
        <time>2016-02-07T09:31:54.000Z</time>
      </trkpt>
      <trkpt lat="47.48824" lon="6.73606">
        <ele>381</ele>
        <time>2016-02-07T09:31:55.000Z</time>
      </trkpt>
      <trkpt lat="47.48826" lon="6.73608">
        <ele>381</ele>
        <time>2016-02-07T09:31:56.000Z</time>
      </trkpt>
      <trkpt lat="47.48828" lon="6.7361">
        <ele>381</ele>
        <time>2016-02-07T09:31:57.000Z</time>
      </trkpt>
      <trkpt lat="47.48831" lon="6.73612">
        <ele>381</ele>
        <time>2016-02-07T09:31:58.000Z</time>
      </trkpt>
      <trkpt lat="47.48834" lon="6.73613">
        <ele>380</ele>
        <time>2016-02-07T09:31:59.000Z</time>
      </trkpt>
      <trkpt lat="47.48837" lon="6.73614">
        <ele>380</ele>
        <time>2016-02-07T09:32:00.000Z</time>
      </trkpt>
      <trkpt lat="47.4884" lon="6.73615">
        <ele>380</ele>
        <time>2016-02-07T09:32:01.000Z</time>
      </trkpt>
      <trkpt lat="47.48843" lon="6.73616">
        <ele>380</ele>
        <time>2016-02-07T09:32:02.000Z</time>
      </trkpt>
      <trkpt lat="47.48846" lon="6.73616">
        <ele>380</ele>
        <time>2016-02-07T09:32:03.000Z</time>
      </trkpt>
      <trkpt lat="47.48849" lon="6.73617">
        <ele>380</ele>
        <time>2016-02-07T09:32:04.000Z</time>
      </trkpt>
      <trkpt lat="47.48852" lon="6.73618">
        <ele>380</ele>
        <time>2016-02-07T09:32:06.000Z</time>
      </trkpt>
      <trkpt lat="47.48854" lon="6.73619">
        <ele>380</ele>
        <time>2016-02-07T09:32:07.000Z</time>
      </trkpt>
      <trkpt lat="47.48857" lon="6.73619">
        <ele>380</ele>
        <time>2016-02-07T09:32:10.000Z</time>
      </trkpt>
      <trkpt lat="47.48859" lon="6.73619">
        <ele>380</ele>
        <time>2016-02-07T09:32:11.000Z</time>
      </trkpt>
      <trkpt lat="47.48862" lon="6.73618">
        <ele>380</ele>
        <time>2016-02-07T09:32:13.000Z</time>
      </trkpt>
      <trkpt lat="47.48863" lon="6.73617">
        <ele>380</ele>
        <time>2016-02-07T09:32:14.000Z</time>
      </trkpt>
      <trkpt lat="47.48868" lon="6.73616">
        <ele>380</ele>
        <time>2016-02-07T09:32:19.000Z</time>
      </trkpt>
      <trkpt lat="47.48868" lon="6.73616">
        <ele>380</ele>
        <time>2016-02-07T09:32:20.000Z</time>
      </trkpt>
      <trkpt lat="47.48872" lon="6.73613">
        <ele>380</ele>
        <time>2016-02-07T09:32:55.000Z</time>
      </trkpt>
      <trkpt lat="47.48872" lon="6.73613">
        <ele>380</ele>
        <time>2016-02-07T09:32:56.000Z</time>
      </trkpt>
      <trkpt lat="47.48875" lon="6.7361">
        <ele>380</ele>
        <time>2016-02-07T09:33:05.000Z</time>
      </trkpt>
      <trkpt lat="47.48876" lon="6.73608">
        <ele>380</ele>
        <time>2016-02-07T09:33:06.000Z</time>
      </trkpt>
      <trkpt lat="47.48879" lon="6.73605">
        <ele>380</ele>
        <time>2016-02-07T09:33:08.000Z</time>
      </trkpt>
      <trkpt lat="47.48881" lon="6.73603">
        <ele>380</ele>
        <time>2016-02-07T09:33:09.000Z</time>
      </trkpt>
      <trkpt lat="47.48882" lon="6.73602">
        <ele>380</ele>
        <time>2016-02-07T09:33:10.000Z</time>
      </trkpt>
      <trkpt lat="47.48885" lon="6.736">
        <ele>380</ele>
        <time>2016-02-07T09:33:11.000Z</time>
      </trkpt>
      <trkpt lat="47.48889" lon="6.73598">
        <ele>380</ele>
        <time>2016-02-07T09:33:12.000Z</time>
      </trkpt>
      <trkpt lat="47.48892" lon="6.73595">
        <ele>379</ele>
        <time>2016-02-07T09:33:13.000Z</time>
      </trkpt>
      <trkpt lat="47.48896" lon="6.73592">
        <ele>379</ele>
        <time>2016-02-07T09:33:14.000Z</time>
      </trkpt>
      <trkpt lat="47.48899" lon="6.7359">
        <ele>379</ele>
        <time>2016-02-07T09:33:15.000Z</time>
      </trkpt>
      <trkpt lat="47.48903" lon="6.73589">
        <ele>379</ele>
        <time>2016-02-07T09:33:17.000Z</time>
      </trkpt>
      <trkpt lat="47.48904" lon="6.73589">
        <ele>379</ele>
        <time>2016-02-07T09:33:18.000Z</time>
      </trkpt>
      <trkpt lat="47.48908" lon="6.73587">
        <ele>379</ele>
        <time>2016-02-07T09:33:20.000Z</time>
      </trkpt>
      <trkpt lat="47.4891" lon="6.73585">
        <ele>379</ele>
        <time>2016-02-07T09:33:21.000Z</time>
      </trkpt>
      <trkpt lat="47.48912" lon="6.73583">
        <ele>378</ele>
        <time>2016-02-07T09:33:22.000Z</time>
      </trkpt>
      <trkpt lat="47.48915" lon="6.73581">
        <ele>378</ele>
        <time>2016-02-07T09:33:23.000Z</time>
      </trkpt>
      <trkpt lat="47.48918" lon="6.73579">
        <ele>378</ele>
        <time>2016-02-07T09:33:24.000Z</time>
      </trkpt>
      <trkpt lat="47.48921" lon="6.73576">
        <ele>378</ele>
        <time>2016-02-07T09:33:25.000Z</time>
      </trkpt>
      <trkpt lat="47.48924" lon="6.73572">
        <ele>378</ele>
        <time>2016-02-07T09:33:26.000Z</time>
      </trkpt>
      <trkpt lat="47.48927" lon="6.73569">
        <ele>378</ele>
        <time>2016-02-07T09:33:27.000Z</time>
      </trkpt>
      <trkpt lat="47.4893" lon="6.73566">
        <ele>377</ele>
        <time>2016-02-07T09:33:28.000Z</time>
      </trkpt>
      <trkpt lat="47.48934" lon="6.73563">
        <ele>377</ele>
        <time>2016-02-07T09:33:29.000Z</time>
      </trkpt>
      <trkpt lat="47.48938" lon="6.7356">
        <ele>377</ele>
        <time>2016-02-07T09:33:30.000Z</time>
      </trkpt>
      <trkpt lat="47.48942" lon="6.73557">
        <ele>377</ele>
        <time>2016-02-07T09:33:31.000Z</time>
      </trkpt>
      <trkpt lat="47.48946" lon="6.73555">
        <ele>377</ele>
        <time>2016-02-07T09:33:32.000Z</time>
      </trkpt>
      <trkpt lat="47.4895" lon="6.73552">
        <ele>377</ele>
        <time>2016-02-07T09:33:33.000Z</time>
      </trkpt>
      <trkpt lat="47.48953" lon="6.73549">
        <ele>377</ele>
        <time>2016-02-07T09:33:34.000Z</time>
      </trkpt>
      <trkpt lat="47.48956" lon="6.73546">
        <ele>377</ele>
        <time>2016-02-07T09:33:35.000Z</time>
      </trkpt>
      <trkpt lat="47.48959" lon="6.73545">
        <ele>377</ele>
        <time>2016-02-07T09:33:36.000Z</time>
      </trkpt>
      <trkpt lat="47.48961" lon="6.73544">
        <ele>377</ele>
        <time>2016-02-07T09:33:37.000Z</time>
      </trkpt>
      <trkpt lat="47.48965" lon="6.73543">
        <ele>377</ele>
        <time>2016-02-07T09:33:39.000Z</time>
      </trkpt>
      <trkpt lat="47.48968" lon="6.73541">
        <ele>377</ele>
        <time>2016-02-07T09:33:40.000Z</time>
      </trkpt>
      <trkpt lat="47.4897" lon="6.73539">
        <ele>377</ele>
        <time>2016-02-07T09:33:41.000Z</time>
      </trkpt>
      <trkpt lat="47.48973" lon="6.73537">
        <ele>377</ele>
        <time>2016-02-07T09:33:42.000Z</time>
      </trkpt>
      <trkpt lat="47.48976" lon="6.73534">
        <ele>377</ele>
        <time>2016-02-07T09:33:43.000Z</time>
      </trkpt>
      <trkpt lat="47.48979" lon="6.73531">
        <ele>377</ele>
        <time>2016-02-07T09:33:44.000Z</time>
      </trkpt>
      <trkpt lat="47.48982" lon="6.73528">
        <ele>378</ele>
        <time>2016-02-07T09:33:45.000Z</time>
      </trkpt>
      <trkpt lat="47.48985" lon="6.73525">
        <ele>378</ele>
        <time>2016-02-07T09:33:46.000Z</time>
      </trkpt>
      <trkpt lat="47.48989" lon="6.73523">
        <ele>378</ele>
        <time>2016-02-07T09:33:47.000Z</time>
      </trkpt>
      <trkpt lat="47.48992" lon="6.7352">
        <ele>378</ele>
        <time>2016-02-07T09:33:48.000Z</time>
      </trkpt>
      <trkpt lat="47.48995" lon="6.73518">
        <ele>378</ele>
        <time>2016-02-07T09:33:49.000Z</time>
      </trkpt>
      <trkpt lat="47.48997" lon="6.73515">
        <ele>378</ele>
        <time>2016-02-07T09:33:50.000Z</time>
      </trkpt>
      <trkpt lat="47.49" lon="6.73513">
        <ele>379</ele>
        <time>2016-02-07T09:33:51.000Z</time>
      </trkpt>
      <trkpt lat="47.49003" lon="6.7351">
        <ele>379</ele>
        <time>2016-02-07T09:33:52.000Z</time>
      </trkpt>
      <trkpt lat="47.49006" lon="6.73508">
        <ele>379</ele>
        <time>2016-02-07T09:33:53.000Z</time>
      </trkpt>
      <trkpt lat="47.49009" lon="6.73505">
        <ele>379</ele>
        <time>2016-02-07T09:33:54.000Z</time>
      </trkpt>
      <trkpt lat="47.49014" lon="6.73501">
        <ele>379</ele>
        <time>2016-02-07T09:33:55.000Z</time>
      </trkpt>
      <trkpt lat="47.49019" lon="6.73496">
        <ele>380</ele>
        <time>2016-02-07T09:33:56.000Z</time>
      </trkpt>
      <trkpt lat="47.49025" lon="6.73492">
        <ele>381</ele>
        <time>2016-02-07T09:33:57.000Z</time>
      </trkpt>
      <trkpt lat="47.4903" lon="6.73486">
        <ele>381</ele>
        <time>2016-02-07T09:33:58.000Z</time>
      </trkpt>
      <trkpt lat="47.49034" lon="6.7348">
        <ele>381</ele>
        <time>2016-02-07T09:33:59.000Z</time>
      </trkpt>
      <trkpt lat="47.49038" lon="6.73473">
        <ele>382</ele>
        <time>2016-02-07T09:34:00.000Z</time>
      </trkpt>
      <trkpt lat="47.49042" lon="6.73466">
        <ele>382</ele>
        <time>2016-02-07T09:34:01.000Z</time>
      </trkpt>
      <trkpt lat="47.49046" lon="6.73459">
        <ele>382</ele>
        <time>2016-02-07T09:34:02.000Z</time>
      </trkpt>
      <trkpt lat="47.4905" lon="6.73452">
        <ele>382</ele>
        <time>2016-02-07T09:34:03.000Z</time>
      </trkpt>
      <trkpt lat="47.49054" lon="6.73444">
        <ele>383</ele>
        <time>2016-02-07T09:34:04.000Z</time>
      </trkpt>
      <trkpt lat="47.49058" lon="6.73437">
        <ele>383</ele>
        <time>2016-02-07T09:34:05.000Z</time>
      </trkpt>
      <trkpt lat="47.49062" lon="6.7343">
        <ele>383</ele>
        <time>2016-02-07T09:34:06.000Z</time>
      </trkpt>
      <trkpt lat="47.49067" lon="6.73422">
        <ele>384</ele>
        <time>2016-02-07T09:34:07.000Z</time>
      </trkpt>
      <trkpt lat="47.49071" lon="6.73415">
        <ele>385</ele>
        <time>2016-02-07T09:34:08.000Z</time>
      </trkpt>
      <trkpt lat="47.49081" lon="6.73397">
        <ele>385</ele>
        <time>2016-02-07T09:34:09.000Z</time>
      </trkpt>
      <trkpt lat="47.49084" lon="6.73393">
        <ele>387</ele>
        <time>2016-02-07T09:34:10.000Z</time>
      </trkpt>
      <trkpt lat="47.49087" lon="6.73387">
        <ele>387</ele>
        <time>2016-02-07T09:34:11.000Z</time>
      </trkpt>
      <trkpt lat="47.4909" lon="6.73383">
        <ele>387</ele>
        <time>2016-02-07T09:34:12.000Z</time>
      </trkpt>
      <trkpt lat="47.49092" lon="6.73377">
        <ele>387</ele>
        <time>2016-02-07T09:34:13.000Z</time>
      </trkpt>
      <trkpt lat="47.49093" lon="6.73372">
        <ele>387</ele>
        <time>2016-02-07T09:34:14.000Z</time>
      </trkpt>
      <trkpt lat="47.49095" lon="6.73366">
        <ele>387</ele>
        <time>2016-02-07T09:34:15.000Z</time>
      </trkpt>
      <trkpt lat="47.49098" lon="6.73358">
        <ele>387</ele>
        <time>2016-02-07T09:34:16.000Z</time>
      </trkpt>
      <trkpt lat="47.49097" lon="6.73351">
        <ele>387</ele>
        <time>2016-02-07T09:34:17.000Z</time>
      </trkpt>
      <trkpt lat="47.491" lon="6.73344">
        <ele>387</ele>
        <time>2016-02-07T09:34:18.000Z</time>
      </trkpt>
      <trkpt lat="47.49101" lon="6.73338">
        <ele>387</ele>
        <time>2016-02-07T09:34:19.000Z</time>
      </trkpt>
      <trkpt lat="47.49103" lon="6.73333">
        <ele>388</ele>
        <time>2016-02-07T09:34:20.000Z</time>
      </trkpt>
      <trkpt lat="47.49104" lon="6.73328">
        <ele>388</ele>
        <time>2016-02-07T09:34:21.000Z</time>
      </trkpt>
      <trkpt lat="47.49105" lon="6.73323">
        <ele>388</ele>
        <time>2016-02-07T09:34:22.000Z</time>
      </trkpt>
      <trkpt lat="47.49106" lon="6.73318">
        <ele>388</ele>
        <time>2016-02-07T09:34:23.000Z</time>
      </trkpt>
      <trkpt lat="47.49108" lon="6.73312">
        <ele>389</ele>
        <time>2016-02-07T09:34:24.000Z</time>
      </trkpt>
      <trkpt lat="47.49109" lon="6.73306">
        <ele>389</ele>
        <time>2016-02-07T09:34:25.000Z</time>
      </trkpt>
      <trkpt lat="47.4911" lon="6.73301">
        <ele>389</ele>
        <time>2016-02-07T09:34:26.000Z</time>
      </trkpt>
      <trkpt lat="47.49112" lon="6.73296">
        <ele>389</ele>
        <time>2016-02-07T09:34:27.000Z</time>
      </trkpt>
      <trkpt lat="47.49113" lon="6.7329">
        <ele>389</ele>
        <time>2016-02-07T09:34:28.000Z</time>
      </trkpt>
      <trkpt lat="47.49113" lon="6.73285">
        <ele>389</ele>
        <time>2016-02-07T09:34:29.000Z</time>
      </trkpt>
      <trkpt lat="47.49115" lon="6.7328">
        <ele>389</ele>
        <time>2016-02-07T09:34:30.000Z</time>
      </trkpt>
      <trkpt lat="47.49116" lon="6.73275">
        <ele>389</ele>
        <time>2016-02-07T09:34:31.000Z</time>
      </trkpt>
      <trkpt lat="47.49118" lon="6.73271">
        <ele>389</ele>
        <time>2016-02-07T09:34:32.000Z</time>
      </trkpt>
      <trkpt lat="47.49121" lon="6.73266">
        <ele>389</ele>
        <time>2016-02-07T09:34:33.000Z</time>
      </trkpt>
      <trkpt lat="47.49123" lon="6.73261">
        <ele>389</ele>
        <time>2016-02-07T09:34:34.000Z</time>
      </trkpt>
      <trkpt lat="47.49125" lon="6.73256">
        <ele>390</ele>
        <time>2016-02-07T09:34:35.000Z</time>
      </trkpt>
      <trkpt lat="47.49127" lon="6.7325">
        <ele>391</ele>
        <time>2016-02-07T09:34:36.000Z</time>
      </trkpt>
      <trkpt lat="47.49129" lon="6.73243">
        <ele>391</ele>
        <time>2016-02-07T09:34:37.000Z</time>
      </trkpt>
      <trkpt lat="47.49132" lon="6.73237">
        <ele>392</ele>
        <time>2016-02-07T09:34:38.000Z</time>
      </trkpt>
      <trkpt lat="47.49134" lon="6.73231">
        <ele>392</ele>
        <time>2016-02-07T09:34:39.000Z</time>
      </trkpt>
      <trkpt lat="47.49136" lon="6.73226">
        <ele>392</ele>
        <time>2016-02-07T09:34:40.000Z</time>
      </trkpt>
      <trkpt lat="47.49138" lon="6.73222">
        <ele>392</ele>
        <time>2016-02-07T09:34:41.000Z</time>
      </trkpt>
      <trkpt lat="47.49139" lon="6.73218">
        <ele>392</ele>
        <time>2016-02-07T09:34:42.000Z</time>
      </trkpt>
      <trkpt lat="47.49141" lon="6.73214">
        <ele>392</ele>
        <time>2016-02-07T09:34:43.000Z</time>
      </trkpt>
      <trkpt lat="47.49142" lon="6.73211">
        <ele>392</ele>
        <time>2016-02-07T09:34:44.000Z</time>
      </trkpt>
      <trkpt lat="47.49144" lon="6.73208">
        <ele>392</ele>
        <time>2016-02-07T09:34:45.000Z</time>
      </trkpt>
      <trkpt lat="47.49145" lon="6.73206">
        <ele>393</ele>
        <time>2016-02-07T09:34:46.000Z</time>
      </trkpt>
      <trkpt lat="47.49147" lon="6.73203">
        <ele>393</ele>
        <time>2016-02-07T09:34:47.000Z</time>
      </trkpt>
      <trkpt lat="47.4915" lon="6.73199">
        <ele>393</ele>
        <time>2016-02-07T09:34:49.000Z</time>
      </trkpt>
      <trkpt lat="47.49151" lon="6.73197">
        <ele>393</ele>
        <time>2016-02-07T09:34:50.000Z</time>
      </trkpt>
      <trkpt lat="47.49153" lon="6.73193">
        <ele>394</ele>
        <time>2016-02-07T09:34:52.000Z</time>
      </trkpt>
      <trkpt lat="47.49154" lon="6.73191">
        <ele>394</ele>
        <time>2016-02-07T09:34:53.000Z</time>
      </trkpt>
      <trkpt lat="47.49156" lon="6.73186">
        <ele>394</ele>
        <time>2016-02-07T09:34:55.000Z</time>
      </trkpt>
      <trkpt lat="47.49157" lon="6.73185">
        <ele>394</ele>
        <time>2016-02-07T09:34:56.000Z</time>
      </trkpt>
      <trkpt lat="47.49159" lon="6.73179">
        <ele>395</ele>
        <time>2016-02-07T09:34:59.000Z</time>
      </trkpt>
      <trkpt lat="47.49159" lon="6.73176">
        <ele>396</ele>
        <time>2016-02-07T09:35:00.000Z</time>
      </trkpt>
      <trkpt lat="47.49161" lon="6.7317">
        <ele>396</ele>
        <time>2016-02-07T09:35:02.000Z</time>
      </trkpt>
      <trkpt lat="47.49162" lon="6.73167">
        <ele>397</ele>
        <time>2016-02-07T09:35:03.000Z</time>
      </trkpt>
      <trkpt lat="47.49163" lon="6.73164">
        <ele>397</ele>
        <time>2016-02-07T09:35:04.000Z</time>
      </trkpt>
      <trkpt lat="47.49163" lon="6.73161">
        <ele>396</ele>
        <time>2016-02-07T09:35:05.000Z</time>
      </trkpt>
      <trkpt lat="47.49164" lon="6.73157">
        <ele>396</ele>
        <time>2016-02-07T09:35:06.000Z</time>
      </trkpt>
      <trkpt lat="47.49165" lon="6.73154">
        <ele>395</ele>
        <time>2016-02-07T09:35:07.000Z</time>
      </trkpt>
      <trkpt lat="47.49166" lon="6.7315">
        <ele>395</ele>
        <time>2016-02-07T09:35:08.000Z</time>
      </trkpt>
      <trkpt lat="47.49167" lon="6.73147">
        <ele>394</ele>
        <time>2016-02-07T09:35:09.000Z</time>
      </trkpt>
      <trkpt lat="47.49167" lon="6.73143">
        <ele>397</ele>
        <time>2016-02-07T09:35:10.000Z</time>
      </trkpt>
      <trkpt lat="47.49168" lon="6.73139">
        <ele>396</ele>
        <time>2016-02-07T09:35:11.000Z</time>
      </trkpt>
      <trkpt lat="47.49169" lon="6.73135">
        <ele>396</ele>
        <time>2016-02-07T09:35:12.000Z</time>
      </trkpt>
      <trkpt lat="47.4917" lon="6.73131">
        <ele>396</ele>
        <time>2016-02-07T09:35:13.000Z</time>
      </trkpt>
      <trkpt lat="47.49171" lon="6.73128">
        <ele>396</ele>
        <time>2016-02-07T09:35:14.000Z</time>
      </trkpt>
      <trkpt lat="47.49171" lon="6.73124">
        <ele>396</ele>
        <time>2016-02-07T09:35:15.000Z</time>
      </trkpt>
      <trkpt lat="47.49172" lon="6.73121">
        <ele>396</ele>
        <time>2016-02-07T09:35:16.000Z</time>
      </trkpt>
      <trkpt lat="47.49174" lon="6.73116">
        <ele>396</ele>
        <time>2016-02-07T09:35:17.000Z</time>
      </trkpt>
      <trkpt lat="47.49175" lon="6.73111">
        <ele>396</ele>
        <time>2016-02-07T09:35:18.000Z</time>
      </trkpt>
      <trkpt lat="47.49177" lon="6.73106">
        <ele>395</ele>
        <time>2016-02-07T09:35:19.000Z</time>
      </trkpt>
      <trkpt lat="47.49179" lon="6.731">
        <ele>395</ele>
        <time>2016-02-07T09:35:20.000Z</time>
      </trkpt>
      <trkpt lat="47.4918" lon="6.73095">
        <ele>395</ele>
        <time>2016-02-07T09:35:21.000Z</time>
      </trkpt>
      <trkpt lat="47.49181" lon="6.73091">
        <ele>395</ele>
        <time>2016-02-07T09:35:22.000Z</time>
      </trkpt>
      <trkpt lat="47.49182" lon="6.73086">
        <ele>395</ele>
        <time>2016-02-07T09:35:23.000Z</time>
      </trkpt>
      <trkpt lat="47.49183" lon="6.73082">
        <ele>395</ele>
        <time>2016-02-07T09:35:24.000Z</time>
      </trkpt>
      <trkpt lat="47.49183" lon="6.73078">
        <ele>395</ele>
        <time>2016-02-07T09:35:25.000Z</time>
      </trkpt>
      <trkpt lat="47.49183" lon="6.73073">
        <ele>395</ele>
        <time>2016-02-07T09:35:26.000Z</time>
      </trkpt>
      <trkpt lat="47.49184" lon="6.73069">
        <ele>395</ele>
        <time>2016-02-07T09:35:27.000Z</time>
      </trkpt>
      <trkpt lat="47.49184" lon="6.73064">
        <ele>395</ele>
        <time>2016-02-07T09:35:28.000Z</time>
      </trkpt>
      <trkpt lat="47.49185" lon="6.73059">
        <ele>395</ele>
        <time>2016-02-07T09:35:29.000Z</time>
      </trkpt>
      <trkpt lat="47.49186" lon="6.73055">
        <ele>395</ele>
        <time>2016-02-07T09:35:30.000Z</time>
      </trkpt>
      <trkpt lat="47.49187" lon="6.7305">
        <ele>395</ele>
        <time>2016-02-07T09:35:31.000Z</time>
      </trkpt>
      <trkpt lat="47.49187" lon="6.73045">
        <ele>395</ele>
        <time>2016-02-07T09:35:32.000Z</time>
      </trkpt>
      <trkpt lat="47.49188" lon="6.73041">
        <ele>395</ele>
        <time>2016-02-07T09:35:33.000Z</time>
      </trkpt>
      <trkpt lat="47.49189" lon="6.73036">
        <ele>395</ele>
        <time>2016-02-07T09:35:34.000Z</time>
      </trkpt>
      <trkpt lat="47.49189" lon="6.73032">
        <ele>394</ele>
        <time>2016-02-07T09:35:35.000Z</time>
      </trkpt>
      <trkpt lat="47.4919" lon="6.73028">
        <ele>394</ele>
        <time>2016-02-07T09:35:36.000Z</time>
      </trkpt>
      <trkpt lat="47.4919" lon="6.73024">
        <ele>394</ele>
        <time>2016-02-07T09:35:37.000Z</time>
      </trkpt>
      <trkpt lat="47.4919" lon="6.73019">
        <ele>394</ele>
        <time>2016-02-07T09:35:39.000Z</time>
      </trkpt>
      <trkpt lat="47.4919" lon="6.73015">
        <ele>394</ele>
        <time>2016-02-07T09:35:40.000Z</time>
      </trkpt>
      <trkpt lat="47.4919" lon="6.73012">
        <ele>394</ele>
        <time>2016-02-07T09:35:41.000Z</time>
      </trkpt>
      <trkpt lat="47.4919" lon="6.73008">
        <ele>394</ele>
        <time>2016-02-07T09:35:42.000Z</time>
      </trkpt>
      <trkpt lat="47.4919" lon="6.73004">
        <ele>394</ele>
        <time>2016-02-07T09:35:43.000Z</time>
      </trkpt>
      <trkpt lat="47.4919" lon="6.72999">
        <ele>394</ele>
        <time>2016-02-07T09:35:44.000Z</time>
      </trkpt>
      <trkpt lat="47.4919" lon="6.72995">
        <ele>394</ele>
        <time>2016-02-07T09:35:45.000Z</time>
      </trkpt>
      <trkpt lat="47.49192" lon="6.7299">
        <ele>394</ele>
        <time>2016-02-07T09:35:46.000Z</time>
      </trkpt>
      <trkpt lat="47.49194" lon="6.72986">
        <ele>394</ele>
        <time>2016-02-07T09:35:47.000Z</time>
      </trkpt>
      <trkpt lat="47.49196" lon="6.72982">
        <ele>394</ele>
        <time>2016-02-07T09:35:48.000Z</time>
      </trkpt>
      <trkpt lat="47.49199" lon="6.72978">
        <ele>395</ele>
        <time>2016-02-07T09:35:49.000Z</time>
      </trkpt>
      <trkpt lat="47.49201" lon="6.72974">
        <ele>395</ele>
        <time>2016-02-07T09:35:50.000Z</time>
      </trkpt>
      <trkpt lat="47.49203" lon="6.72971">
        <ele>395</ele>
        <time>2016-02-07T09:35:51.000Z</time>
      </trkpt>
      <trkpt lat="47.49205" lon="6.72967">
        <ele>395</ele>
        <time>2016-02-07T09:35:52.000Z</time>
      </trkpt>
      <trkpt lat="47.49206" lon="6.72964">
        <ele>395</ele>
        <time>2016-02-07T09:35:53.000Z</time>
      </trkpt>
      <trkpt lat="47.49207" lon="6.7296">
        <ele>395</ele>
        <time>2016-02-07T09:35:54.000Z</time>
      </trkpt>
      <trkpt lat="47.49208" lon="6.72956">
        <ele>395</ele>
        <time>2016-02-07T09:35:55.000Z</time>
      </trkpt>
      <trkpt lat="47.49209" lon="6.72952">
        <ele>395</ele>
        <time>2016-02-07T09:35:56.000Z</time>
      </trkpt>
      <trkpt lat="47.4921" lon="6.72947">
        <ele>395</ele>
        <time>2016-02-07T09:35:57.000Z</time>
      </trkpt>
      <trkpt lat="47.49211" lon="6.72943">
        <ele>395</ele>
        <time>2016-02-07T09:35:58.000Z</time>
      </trkpt>
      <trkpt lat="47.49213" lon="6.72939">
        <ele>396</ele>
        <time>2016-02-07T09:35:59.000Z</time>
      </trkpt>
      <trkpt lat="47.49215" lon="6.72936">
        <ele>396</ele>
        <time>2016-02-07T09:36:00.000Z</time>
      </trkpt>
      <trkpt lat="47.49217" lon="6.72933">
        <ele>396</ele>
        <time>2016-02-07T09:36:01.000Z</time>
      </trkpt>
      <trkpt lat="47.49218" lon="6.7293">
        <ele>396</ele>
        <time>2016-02-07T09:36:02.000Z</time>
      </trkpt>
      <trkpt lat="47.49221" lon="6.72924">
        <ele>396</ele>
        <time>2016-02-07T09:36:04.000Z</time>
      </trkpt>
      <trkpt lat="47.49222" lon="6.72922">
        <ele>396</ele>
        <time>2016-02-07T09:36:05.000Z</time>
      </trkpt>
      <trkpt lat="47.49224" lon="6.72919">
        <ele>396</ele>
        <time>2016-02-07T09:36:06.000Z</time>
      </trkpt>
      <trkpt lat="47.49226" lon="6.72916">
        <ele>396</ele>
        <time>2016-02-07T09:36:07.000Z</time>
      </trkpt>
      <trkpt lat="47.49229" lon="6.72913">
        <ele>396</ele>
        <time>2016-02-07T09:36:08.000Z</time>
      </trkpt>
      <trkpt lat="47.49231" lon="6.7291">
        <ele>397</ele>
        <time>2016-02-07T09:36:09.000Z</time>
      </trkpt>
      <trkpt lat="47.49234" lon="6.72908">
        <ele>397</ele>
        <time>2016-02-07T09:36:10.000Z</time>
      </trkpt>
      <trkpt lat="47.49236" lon="6.72905">
        <ele>397</ele>
        <time>2016-02-07T09:36:11.000Z</time>
      </trkpt>
      <trkpt lat="47.49239" lon="6.72902">
        <ele>397</ele>
        <time>2016-02-07T09:36:12.000Z</time>
      </trkpt>
      <trkpt lat="47.49241" lon="6.72899">
        <ele>397</ele>
        <time>2016-02-07T09:36:13.000Z</time>
      </trkpt>
      <trkpt lat="47.49244" lon="6.72896">
        <ele>397</ele>
        <time>2016-02-07T09:36:14.000Z</time>
      </trkpt>
      <trkpt lat="47.49246" lon="6.72893">
        <ele>397</ele>
        <time>2016-02-07T09:36:15.000Z</time>
      </trkpt>
      <trkpt lat="47.49249" lon="6.72891">
        <ele>397</ele>
        <time>2016-02-07T09:36:16.000Z</time>
      </trkpt>
      <trkpt lat="47.49252" lon="6.72888">
        <ele>397</ele>
        <time>2016-02-07T09:36:17.000Z</time>
      </trkpt>
      <trkpt lat="47.49255" lon="6.72884">
        <ele>397</ele>
        <time>2016-02-07T09:36:18.000Z</time>
      </trkpt>
      <trkpt lat="47.49259" lon="6.7288">
        <ele>397</ele>
        <time>2016-02-07T09:36:19.000Z</time>
      </trkpt>
      <trkpt lat="47.49262" lon="6.72876">
        <ele>397</ele>
        <time>2016-02-07T09:36:20.000Z</time>
      </trkpt>
      <trkpt lat="47.49265" lon="6.72872">
        <ele>397</ele>
        <time>2016-02-07T09:36:21.000Z</time>
      </trkpt>
      <trkpt lat="47.49269" lon="6.72868">
        <ele>397</ele>
        <time>2016-02-07T09:36:22.000Z</time>
      </trkpt>
      <trkpt lat="47.49272" lon="6.72863">
        <ele>397</ele>
        <time>2016-02-07T09:36:23.000Z</time>
      </trkpt>
      <trkpt lat="47.49275" lon="6.72858">
        <ele>397</ele>
        <time>2016-02-07T09:36:24.000Z</time>
      </trkpt>
      <trkpt lat="47.49278" lon="6.72853">
        <ele>397</ele>
        <time>2016-02-07T09:36:25.000Z</time>
      </trkpt>
      <trkpt lat="47.49281" lon="6.72848">
        <ele>397</ele>
        <time>2016-02-07T09:36:26.000Z</time>
      </trkpt>
      <trkpt lat="47.49283" lon="6.72844">
        <ele>397</ele>
        <time>2016-02-07T09:36:27.000Z</time>
      </trkpt>
      <trkpt lat="47.49285" lon="6.7284">
        <ele>396</ele>
        <time>2016-02-07T09:36:28.000Z</time>
      </trkpt>
      <trkpt lat="47.49287" lon="6.72836">
        <ele>396</ele>
        <time>2016-02-07T09:36:29.000Z</time>
      </trkpt>
      <trkpt lat="47.49289" lon="6.72833">
        <ele>397</ele>
        <time>2016-02-07T09:36:30.000Z</time>
      </trkpt>
      <trkpt lat="47.49291" lon="6.7283">
        <ele>397</ele>
        <time>2016-02-07T09:36:31.000Z</time>
      </trkpt>
      <trkpt lat="47.49292" lon="6.72827">
        <ele>397</ele>
        <time>2016-02-07T09:36:32.000Z</time>
      </trkpt>
      <trkpt lat="47.49295" lon="6.72824">
        <ele>397</ele>
        <time>2016-02-07T09:36:33.000Z</time>
      </trkpt>
      <trkpt lat="47.49297" lon="6.72821">
        <ele>397</ele>
        <time>2016-02-07T09:36:34.000Z</time>
      </trkpt>
      <trkpt lat="47.49299" lon="6.72818">
        <ele>397</ele>
        <time>2016-02-07T09:36:35.000Z</time>
      </trkpt>
      <trkpt lat="47.49301" lon="6.72815">
        <ele>397</ele>
        <time>2016-02-07T09:36:36.000Z</time>
      </trkpt>
      <trkpt lat="47.49303" lon="6.72813">
        <ele>397</ele>
        <time>2016-02-07T09:36:37.000Z</time>
      </trkpt>
      <trkpt lat="47.49305" lon="6.72808">
        <ele>397</ele>
        <time>2016-02-07T09:36:39.000Z</time>
      </trkpt>
      <trkpt lat="47.49306" lon="6.72806">
        <ele>397</ele>
        <time>2016-02-07T09:36:40.000Z</time>
      </trkpt>
      <trkpt lat="47.49307" lon="6.728">
        <ele>397</ele>
        <time>2016-02-07T09:36:42.000Z</time>
      </trkpt>
      <trkpt lat="47.49307" lon="6.72798">
        <ele>397</ele>
        <time>2016-02-07T09:36:43.000Z</time>
      </trkpt>
      <trkpt lat="47.49307" lon="6.72791">
        <ele>397</ele>
        <time>2016-02-07T09:36:45.000Z</time>
      </trkpt>
      <trkpt lat="47.49308" lon="6.72787">
        <ele>398</ele>
        <time>2016-02-07T09:36:46.000Z</time>
      </trkpt>
      <trkpt lat="47.49308" lon="6.72784">
        <ele>398</ele>
        <time>2016-02-07T09:36:47.000Z</time>
      </trkpt>
      <trkpt lat="47.49309" lon="6.7278">
        <ele>398</ele>
        <time>2016-02-07T09:36:48.000Z</time>
      </trkpt>
      <trkpt lat="47.4931" lon="6.72777">
        <ele>398</ele>
        <time>2016-02-07T09:36:49.000Z</time>
      </trkpt>
      <trkpt lat="47.4931" lon="6.72773">
        <ele>398</ele>
        <time>2016-02-07T09:36:50.000Z</time>
      </trkpt>
      <trkpt lat="47.49311" lon="6.72767">
        <ele>398</ele>
        <time>2016-02-07T09:36:52.000Z</time>
      </trkpt>
      <trkpt lat="47.49312" lon="6.72764">
        <ele>398</ele>
        <time>2016-02-07T09:36:53.000Z</time>
      </trkpt>
      <trkpt lat="47.49312" lon="6.72759">
        <ele>398</ele>
        <time>2016-02-07T09:36:55.000Z</time>
      </trkpt>
      <trkpt lat="47.49313" lon="6.72756">
        <ele>398</ele>
        <time>2016-02-07T09:36:56.000Z</time>
      </trkpt>
      <trkpt lat="47.49313" lon="6.72753">
        <ele>399</ele>
        <time>2016-02-07T09:36:57.000Z</time>
      </trkpt>
      <trkpt lat="47.49314" lon="6.7275">
        <ele>399</ele>
        <time>2016-02-07T09:36:58.000Z</time>
      </trkpt>
      <trkpt lat="47.49315" lon="6.72746">
        <ele>400</ele>
        <time>2016-02-07T09:36:59.000Z</time>
      </trkpt>
      <trkpt lat="47.49316" lon="6.72743">
        <ele>400</ele>
        <time>2016-02-07T09:37:00.000Z</time>
      </trkpt>
      <trkpt lat="47.49318" lon="6.72739">
        <ele>400</ele>
        <time>2016-02-07T09:37:01.000Z</time>
      </trkpt>
      <trkpt lat="47.49319" lon="6.72736">
        <ele>400</ele>
        <time>2016-02-07T09:37:02.000Z</time>
      </trkpt>
      <trkpt lat="47.4932" lon="6.72732">
        <ele>400</ele>
        <time>2016-02-07T09:37:03.000Z</time>
      </trkpt>
      <trkpt lat="47.4932" lon="6.72729">
        <ele>400</ele>
        <time>2016-02-07T09:37:04.000Z</time>
      </trkpt>
      <trkpt lat="47.49321" lon="6.72725">
        <ele>400</ele>
        <time>2016-02-07T09:37:05.000Z</time>
      </trkpt>
      <trkpt lat="47.49321" lon="6.72722">
        <ele>400</ele>
        <time>2016-02-07T09:37:06.000Z</time>
      </trkpt>
      <trkpt lat="47.49322" lon="6.72716">
        <ele>400</ele>
        <time>2016-02-07T09:37:08.000Z</time>
      </trkpt>
      <trkpt lat="47.49321" lon="6.72713">
        <ele>400</ele>
        <time>2016-02-07T09:37:09.000Z</time>
      </trkpt>
      <trkpt lat="47.49322" lon="6.72708">
        <ele>400</ele>
        <time>2016-02-07T09:37:11.000Z</time>
      </trkpt>
      <trkpt lat="47.49322" lon="6.72706">
        <ele>400</ele>
        <time>2016-02-07T09:37:12.000Z</time>
      </trkpt>
      <trkpt lat="47.49321" lon="6.727">
        <ele>400</ele>
        <time>2016-02-07T09:37:14.000Z</time>
      </trkpt>
      <trkpt lat="47.49321" lon="6.72697">
        <ele>400</ele>
        <time>2016-02-07T09:37:15.000Z</time>
      </trkpt>
      <trkpt lat="47.4932" lon="6.72694">
        <ele>400</ele>
        <time>2016-02-07T09:37:16.000Z</time>
      </trkpt>
      <trkpt lat="47.4932" lon="6.72691">
        <ele>401</ele>
        <time>2016-02-07T09:37:17.000Z</time>
      </trkpt>
      <trkpt lat="47.49319" lon="6.72685">
        <ele>401</ele>
        <time>2016-02-07T09:37:19.000Z</time>
      </trkpt>
      <trkpt lat="47.49319" lon="6.72683">
        <ele>401</ele>
        <time>2016-02-07T09:37:20.000Z</time>
      </trkpt>
      <trkpt lat="47.49319" lon="6.72678">
        <ele>401</ele>
        <time>2016-02-07T09:37:22.000Z</time>
      </trkpt>
      <trkpt lat="47.49319" lon="6.72675">
        <ele>401</ele>
        <time>2016-02-07T09:37:23.000Z</time>
      </trkpt>
      <trkpt lat="47.49319" lon="6.72672">
        <ele>402</ele>
        <time>2016-02-07T09:37:24.000Z</time>
      </trkpt>
      <trkpt lat="47.4932" lon="6.72668">
        <ele>402</ele>
        <time>2016-02-07T09:37:25.000Z</time>
      </trkpt>
      <trkpt lat="47.4932" lon="6.72665">
        <ele>403</ele>
        <time>2016-02-07T09:37:26.000Z</time>
      </trkpt>
      <trkpt lat="47.49321" lon="6.72661">
        <ele>403</ele>
        <time>2016-02-07T09:37:27.000Z</time>
      </trkpt>
      <trkpt lat="47.49322" lon="6.72658">
        <ele>403</ele>
        <time>2016-02-07T09:37:28.000Z</time>
      </trkpt>
      <trkpt lat="47.49322" lon="6.72654">
        <ele>403</ele>
        <time>2016-02-07T09:37:29.000Z</time>
      </trkpt>
      <trkpt lat="47.49323" lon="6.72651">
        <ele>403</ele>
        <time>2016-02-07T09:37:30.000Z</time>
      </trkpt>
      <trkpt lat="47.49323" lon="6.72647">
        <ele>402</ele>
        <time>2016-02-07T09:37:31.000Z</time>
      </trkpt>
      <trkpt lat="47.49323" lon="6.7264">
        <ele>402</ele>
        <time>2016-02-07T09:37:33.000Z</time>
      </trkpt>
      <trkpt lat="47.49323" lon="6.72637">
        <ele>402</ele>
        <time>2016-02-07T09:37:34.000Z</time>
      </trkpt>
      <trkpt lat="47.49323" lon="6.72634">
        <ele>402</ele>
        <time>2016-02-07T09:37:35.000Z</time>
      </trkpt>
      <trkpt lat="47.49323" lon="6.7263">
        <ele>402</ele>
        <time>2016-02-07T09:37:36.000Z</time>
      </trkpt>
      <trkpt lat="47.49324" lon="6.72626">
        <ele>402</ele>
        <time>2016-02-07T09:37:37.000Z</time>
      </trkpt>
      <trkpt lat="47.49324" lon="6.72622">
        <ele>403</ele>
        <time>2016-02-07T09:37:38.000Z</time>
      </trkpt>
      <trkpt lat="47.49324" lon="6.72619">
        <ele>403</ele>
        <time>2016-02-07T09:37:39.000Z</time>
      </trkpt>
      <trkpt lat="47.49325" lon="6.72615">
        <ele>403</ele>
        <time>2016-02-07T09:37:40.000Z</time>
      </trkpt>
      <trkpt lat="47.49325" lon="6.7261">
        <ele>403</ele>
        <time>2016-02-07T09:37:42.000Z</time>
      </trkpt>
      <trkpt lat="47.49325" lon="6.72607">
        <ele>403</ele>
        <time>2016-02-07T09:37:43.000Z</time>
      </trkpt>
      <trkpt lat="47.49326" lon="6.72602">
        <ele>403</ele>
        <time>2016-02-07T09:37:45.000Z</time>
      </trkpt>
      <trkpt lat="47.49326" lon="6.726">
        <ele>404</ele>
        <time>2016-02-07T09:37:46.000Z</time>
      </trkpt>
      <trkpt lat="47.49326" lon="6.72594">
        <ele>404</ele>
        <time>2016-02-07T09:37:48.000Z</time>
      </trkpt>
      <trkpt lat="47.49326" lon="6.72592">
        <ele>404</ele>
        <time>2016-02-07T09:37:49.000Z</time>
      </trkpt>
      <trkpt lat="47.49326" lon="6.72586">
        <ele>405</ele>
        <time>2016-02-07T09:37:51.000Z</time>
      </trkpt>
      <trkpt lat="47.49326" lon="6.72584">
        <ele>405</ele>
        <time>2016-02-07T09:37:52.000Z</time>
      </trkpt>
      <trkpt lat="47.49325" lon="6.72579">
        <ele>406</ele>
        <time>2016-02-07T09:37:54.000Z</time>
      </trkpt>
      <trkpt lat="47.49325" lon="6.72577">
        <ele>406</ele>
        <time>2016-02-07T09:37:55.000Z</time>
      </trkpt>
      <trkpt lat="47.49325" lon="6.72572">
        <ele>406</ele>
        <time>2016-02-07T09:37:57.000Z</time>
      </trkpt>
      <trkpt lat="47.49325" lon="6.72569">
        <ele>406</ele>
        <time>2016-02-07T09:37:58.000Z</time>
      </trkpt>
      <trkpt lat="47.49326" lon="6.72564">
        <ele>406</ele>
        <time>2016-02-07T09:38:00.000Z</time>
      </trkpt>
      <trkpt lat="47.49326" lon="6.72562">
        <ele>406</ele>
        <time>2016-02-07T09:38:01.000Z</time>
      </trkpt>
      <trkpt lat="47.49326" lon="6.72557">
        <ele>406</ele>
        <time>2016-02-07T09:38:03.000Z</time>
      </trkpt>
      <trkpt lat="47.49326" lon="6.72555">
        <ele>406</ele>
        <time>2016-02-07T09:38:04.000Z</time>
      </trkpt>
      <trkpt lat="47.49326" lon="6.7255">
        <ele>406</ele>
        <time>2016-02-07T09:38:06.000Z</time>
      </trkpt>
      <trkpt lat="47.49327" lon="6.72548">
        <ele>406</ele>
        <time>2016-02-07T09:38:07.000Z</time>
      </trkpt>
      <trkpt lat="47.49327" lon="6.72544">
        <ele>406</ele>
        <time>2016-02-07T09:38:09.000Z</time>
      </trkpt>
      <trkpt lat="47.49327" lon="6.72542">
        <ele>406</ele>
        <time>2016-02-07T09:38:10.000Z</time>
      </trkpt>
      <trkpt lat="47.49327" lon="6.72536">
        <ele>406</ele>
        <time>2016-02-07T09:38:13.000Z</time>
      </trkpt>
      <trkpt lat="47.49327" lon="6.72534">
        <ele>406</ele>
        <time>2016-02-07T09:38:14.000Z</time>
      </trkpt>
      <trkpt lat="47.49327" lon="6.72528">
        <ele>406</ele>
        <time>2016-02-07T09:38:17.000Z</time>
      </trkpt>
      <trkpt lat="47.49327" lon="6.72525">
        <ele>407</ele>
        <time>2016-02-07T09:38:18.000Z</time>
      </trkpt>
      <trkpt lat="47.49327" lon="6.72519">
        <ele>407</ele>
        <time>2016-02-07T09:38:20.000Z</time>
      </trkpt>
      <trkpt lat="47.49327" lon="6.72517">
        <ele>407</ele>
        <time>2016-02-07T09:38:21.000Z</time>
      </trkpt>
      <trkpt lat="47.49329" lon="6.72512">
        <ele>407</ele>
        <time>2016-02-07T09:38:23.000Z</time>
      </trkpt>
      <trkpt lat="47.49329" lon="6.7251">
        <ele>408</ele>
        <time>2016-02-07T09:38:24.000Z</time>
      </trkpt>
      <trkpt lat="47.49329" lon="6.72503">
        <ele>408</ele>
        <time>2016-02-07T09:38:27.000Z</time>
      </trkpt>
      <trkpt lat="47.49329" lon="6.72501">
        <ele>408</ele>
        <time>2016-02-07T09:38:28.000Z</time>
      </trkpt>
      <trkpt lat="47.4933" lon="6.72496">
        <ele>409</ele>
        <time>2016-02-07T09:38:30.000Z</time>
      </trkpt>
      <trkpt lat="47.4933" lon="6.72495">
        <ele>409</ele>
        <time>2016-02-07T09:38:31.000Z</time>
      </trkpt>
      <trkpt lat="47.4933" lon="6.72489">
        <ele>409</ele>
        <time>2016-02-07T09:38:34.000Z</time>
      </trkpt>
      <trkpt lat="47.4933" lon="6.72487">
        <ele>409</ele>
        <time>2016-02-07T09:38:35.000Z</time>
      </trkpt>
      <trkpt lat="47.49332" lon="6.72483">
        <ele>409</ele>
        <time>2016-02-07T09:38:37.000Z</time>
      </trkpt>
      <trkpt lat="47.49333" lon="6.72481">
        <ele>409</ele>
        <time>2016-02-07T09:38:38.000Z</time>
      </trkpt>
      <trkpt lat="47.49335" lon="6.72477">
        <ele>408</ele>
        <time>2016-02-07T09:38:40.000Z</time>
      </trkpt>
      <trkpt lat="47.49336" lon="6.72475">
        <ele>408</ele>
        <time>2016-02-07T09:38:41.000Z</time>
      </trkpt>
      <trkpt lat="47.49337" lon="6.7247">
        <ele>408</ele>
        <time>2016-02-07T09:38:44.000Z</time>
      </trkpt>
      <trkpt lat="47.49338" lon="6.72468">
        <ele>408</ele>
        <time>2016-02-07T09:38:45.000Z</time>
      </trkpt>
      <trkpt lat="47.49337" lon="6.72462">
        <ele>408</ele>
        <time>2016-02-07T09:38:48.000Z</time>
      </trkpt>
      <trkpt lat="47.49336" lon="6.7246">
        <ele>408</ele>
        <time>2016-02-07T09:38:49.000Z</time>
      </trkpt>
      <trkpt lat="47.49333" lon="6.72455">
        <ele>409</ele>
        <time>2016-02-07T09:38:52.000Z</time>
      </trkpt>
      <trkpt lat="47.49332" lon="6.72453">
        <ele>409</ele>
        <time>2016-02-07T09:38:53.000Z</time>
      </trkpt>
      <trkpt lat="47.49331" lon="6.72449">
        <ele>409</ele>
        <time>2016-02-07T09:38:55.000Z</time>
      </trkpt>
      <trkpt lat="47.49331" lon="6.72447">
        <ele>409</ele>
        <time>2016-02-07T09:38:56.000Z</time>
      </trkpt>
      <trkpt lat="47.49331" lon="6.72441">
        <ele>410</ele>
        <time>2016-02-07T09:38:58.000Z</time>
      </trkpt>
      <trkpt lat="47.49331" lon="6.72438">
        <ele>410</ele>
        <time>2016-02-07T09:38:59.000Z</time>
      </trkpt>
      <trkpt lat="47.4933" lon="6.72433">
        <ele>410</ele>
        <time>2016-02-07T09:39:01.000Z</time>
      </trkpt>
      <trkpt lat="47.4933" lon="6.72431">
        <ele>410</ele>
        <time>2016-02-07T09:39:02.000Z</time>
      </trkpt>
      <trkpt lat="47.49329" lon="6.72425">
        <ele>411</ele>
        <time>2016-02-07T09:39:05.000Z</time>
      </trkpt>
      <trkpt lat="47.49329" lon="6.72422">
        <ele>411</ele>
        <time>2016-02-07T09:39:06.000Z</time>
      </trkpt>
      <trkpt lat="47.49329" lon="6.72416">
        <ele>412</ele>
        <time>2016-02-07T09:39:08.000Z</time>
      </trkpt>
      <trkpt lat="47.49329" lon="6.72413">
        <ele>412</ele>
        <time>2016-02-07T09:39:09.000Z</time>
      </trkpt>
      <trkpt lat="47.49328" lon="6.72407">
        <ele>411</ele>
        <time>2016-02-07T09:39:11.000Z</time>
      </trkpt>
      <trkpt lat="47.49328" lon="6.72404">
        <ele>411</ele>
        <time>2016-02-07T09:39:12.000Z</time>
      </trkpt>
      <trkpt lat="47.49327" lon="6.72399">
        <ele>411</ele>
        <time>2016-02-07T09:39:14.000Z</time>
      </trkpt>
      <trkpt lat="47.49328" lon="6.72396">
        <ele>411</ele>
        <time>2016-02-07T09:39:15.000Z</time>
      </trkpt>
      <trkpt lat="47.49328" lon="6.72392">
        <ele>411</ele>
        <time>2016-02-07T09:39:16.000Z</time>
      </trkpt>
      <trkpt lat="47.49329" lon="6.72389">
        <ele>411</ele>
        <time>2016-02-07T09:39:17.000Z</time>
      </trkpt>
      <trkpt lat="47.49329" lon="6.72385">
        <ele>411</ele>
        <time>2016-02-07T09:39:18.000Z</time>
      </trkpt>
      <trkpt lat="47.4933" lon="6.72381">
        <ele>411</ele>
        <time>2016-02-07T09:39:19.000Z</time>
      </trkpt>
      <trkpt lat="47.49331" lon="6.72377">
        <ele>411</ele>
        <time>2016-02-07T09:39:20.000Z</time>
      </trkpt>
      <trkpt lat="47.49332" lon="6.72374">
        <ele>411</ele>
        <time>2016-02-07T09:39:21.000Z</time>
      </trkpt>
      <trkpt lat="47.49333" lon="6.72368">
        <ele>411</ele>
        <time>2016-02-07T09:39:22.999Z</time>
      </trkpt>
      <trkpt lat="47.49333" lon="6.72363">
        <ele>412</ele>
        <time>2016-02-07T09:39:24.000Z</time>
      </trkpt>
      <trkpt lat="47.49333" lon="6.72357">
        <ele>412</ele>
        <time>2016-02-07T09:39:26.000Z</time>
      </trkpt>
      <trkpt lat="47.49333" lon="6.72354">
        <ele>412</ele>
        <time>2016-02-07T09:39:27.000Z</time>
      </trkpt>
      <trkpt lat="47.49332" lon="6.72349">
        <ele>412</ele>
        <time>2016-02-07T09:39:29.000Z</time>
      </trkpt>
      <trkpt lat="47.49332" lon="6.72346">
        <ele>413</ele>
        <time>2016-02-07T09:39:30.000Z</time>
      </trkpt>
      <trkpt lat="47.49332" lon="6.72341">
        <ele>413</ele>
        <time>2016-02-07T09:39:32.000Z</time>
      </trkpt>
      <trkpt lat="47.49332" lon="6.72338">
        <ele>413</ele>
        <time>2016-02-07T09:39:33.000Z</time>
      </trkpt>
      <trkpt lat="47.49332" lon="6.72334">
        <ele>414</ele>
        <time>2016-02-07T09:39:35.000Z</time>
      </trkpt>
      <trkpt lat="47.49333" lon="6.72332">
        <ele>414</ele>
        <time>2016-02-07T09:39:36.000Z</time>
      </trkpt>
      <trkpt lat="47.49333" lon="6.72326">
        <ele>414</ele>
        <time>2016-02-07T09:39:38.000Z</time>
      </trkpt>
      <trkpt lat="47.49333" lon="6.72323">
        <ele>414</ele>
        <time>2016-02-07T09:39:39.000Z</time>
      </trkpt>
      <trkpt lat="47.49334" lon="6.72318">
        <ele>415</ele>
        <time>2016-02-07T09:39:41.000Z</time>
      </trkpt>
      <trkpt lat="47.49335" lon="6.72315">
        <ele>415</ele>
        <time>2016-02-07T09:39:42.000Z</time>
      </trkpt>
      <trkpt lat="47.49336" lon="6.72311">
        <ele>415</ele>
        <time>2016-02-07T09:39:44.000Z</time>
      </trkpt>
      <trkpt lat="47.49337" lon="6.72308">
        <ele>415</ele>
        <time>2016-02-07T09:39:45.000Z</time>
      </trkpt>
      <trkpt lat="47.49338" lon="6.72304">
        <ele>415</ele>
        <time>2016-02-07T09:39:47.000Z</time>
      </trkpt>
      <trkpt lat="47.49339" lon="6.72301">
        <ele>415</ele>
        <time>2016-02-07T09:39:48.000Z</time>
      </trkpt>
      <trkpt lat="47.49341" lon="6.72296">
        <ele>415</ele>
        <time>2016-02-07T09:39:50.000Z</time>
      </trkpt>
      <trkpt lat="47.49342" lon="6.72294">
        <ele>415</ele>
        <time>2016-02-07T09:39:51.000Z</time>
      </trkpt>
      <trkpt lat="47.49343" lon="6.72289">
        <ele>415</ele>
        <time>2016-02-07T09:39:53.000Z</time>
      </trkpt>
      <trkpt lat="47.49343" lon="6.72287">
        <ele>415</ele>
        <time>2016-02-07T09:39:54.000Z</time>
      </trkpt>
      <trkpt lat="47.49344" lon="6.72281">
        <ele>416</ele>
        <time>2016-02-07T09:39:57.000Z</time>
      </trkpt>
      <trkpt lat="47.49344" lon="6.72279">
        <ele>416</ele>
        <time>2016-02-07T09:39:58.000Z</time>
      </trkpt>
      <trkpt lat="47.49345" lon="6.72276">
        <ele>416</ele>
        <time>2016-02-07T09:39:59.999Z</time>
      </trkpt>
      <trkpt lat="47.49344" lon="6.72272">
        <ele>416</ele>
        <time>2016-02-07T09:40:01.000Z</time>
      </trkpt>
      <trkpt lat="47.49344" lon="6.72266">
        <ele>416</ele>
        <time>2016-02-07T09:40:03.000Z</time>
      </trkpt>
      <trkpt lat="47.49344" lon="6.72264">
        <ele>417</ele>
        <time>2016-02-07T09:40:04.000Z</time>
      </trkpt>
      <trkpt lat="47.49344" lon="6.72259">
        <ele>417</ele>
        <time>2016-02-07T09:40:06.000Z</time>
      </trkpt>
      <trkpt lat="47.49344" lon="6.72257">
        <ele>417</ele>
        <time>2016-02-07T09:40:07.000Z</time>
      </trkpt>
      <trkpt lat="47.49345" lon="6.7225">
        <ele>417</ele>
        <time>2016-02-07T09:40:10.000Z</time>
      </trkpt>
      <trkpt lat="47.49346" lon="6.72248">
        <ele>418</ele>
        <time>2016-02-07T09:40:11.000Z</time>
      </trkpt>
      <trkpt lat="47.49346" lon="6.72244">
        <ele>419</ele>
        <time>2016-02-07T09:40:13.000Z</time>
      </trkpt>
      <trkpt lat="47.49346" lon="6.72241">
        <ele>419</ele>
        <time>2016-02-07T09:40:14.000Z</time>
      </trkpt>
      <trkpt lat="47.49347" lon="6.72236">
        <ele>419</ele>
        <time>2016-02-07T09:40:16.000Z</time>
      </trkpt>
      <trkpt lat="47.49347" lon="6.72234">
        <ele>419</ele>
        <time>2016-02-07T09:40:17.000Z</time>
      </trkpt>
      <trkpt lat="47.49347" lon="6.72229">
        <ele>419</ele>
        <time>2016-02-07T09:40:19.000Z</time>
      </trkpt>
      <trkpt lat="47.49347" lon="6.72227">
        <ele>419</ele>
        <time>2016-02-07T09:40:20.000Z</time>
      </trkpt>
      <trkpt lat="47.49346" lon="6.72222">
        <ele>419</ele>
        <time>2016-02-07T09:40:22.000Z</time>
      </trkpt>
      <trkpt lat="47.49347" lon="6.7222">
        <ele>419</ele>
        <time>2016-02-07T09:40:23.000Z</time>
      </trkpt>
      <trkpt lat="47.49347" lon="6.72215">
        <ele>419</ele>
        <time>2016-02-07T09:40:25.000Z</time>
      </trkpt>
      <trkpt lat="47.49347" lon="6.72213">
        <ele>419</ele>
        <time>2016-02-07T09:40:26.000Z</time>
      </trkpt>
      <trkpt lat="47.49348" lon="6.72208">
        <ele>419</ele>
        <time>2016-02-07T09:40:28.000Z</time>
      </trkpt>
      <trkpt lat="47.49349" lon="6.72205">
        <ele>420</ele>
        <time>2016-02-07T09:40:29.000Z</time>
      </trkpt>
      <trkpt lat="47.49349" lon="6.72201">
        <ele>420</ele>
        <time>2016-02-07T09:40:31.000Z</time>
      </trkpt>
      <trkpt lat="47.4935" lon="6.72198">
        <ele>420</ele>
        <time>2016-02-07T09:40:32.000Z</time>
      </trkpt>
      <trkpt lat="47.4935" lon="6.72194">
        <ele>420</ele>
        <time>2016-02-07T09:40:34.000Z</time>
      </trkpt>
      <trkpt lat="47.49351" lon="6.72192">
        <ele>420</ele>
        <time>2016-02-07T09:40:35.000Z</time>
      </trkpt>
      <trkpt lat="47.49352" lon="6.72185">
        <ele>420</ele>
        <time>2016-02-07T09:40:38.000Z</time>
      </trkpt>
      <trkpt lat="47.49352" lon="6.72184">
        <ele>420</ele>
        <time>2016-02-07T09:40:39.000Z</time>
      </trkpt>
      <trkpt lat="47.49354" lon="6.72179">
        <ele>420</ele>
        <time>2016-02-07T09:40:41.000Z</time>
      </trkpt>
      <trkpt lat="47.49355" lon="6.72177">
        <ele>420</ele>
        <time>2016-02-07T09:40:42.000Z</time>
      </trkpt>
      <trkpt lat="47.49355" lon="6.72171">
        <ele>420</ele>
        <time>2016-02-07T09:40:45.000Z</time>
      </trkpt>
      <trkpt lat="47.49355" lon="6.7217">
        <ele>420</ele>
        <time>2016-02-07T09:40:46.000Z</time>
      </trkpt>
      <trkpt lat="47.49356" lon="6.72164">
        <ele>422</ele>
        <time>2016-02-07T09:40:51.000Z</time>
      </trkpt>
      <trkpt lat="47.49357" lon="6.72162">
        <ele>422</ele>
        <time>2016-02-07T09:40:52.000Z</time>
      </trkpt>
      <trkpt lat="47.49359" lon="6.7216">
        <ele>422</ele>
        <time>2016-02-07T09:40:53.000Z</time>
      </trkpt>
      <trkpt lat="47.49361" lon="6.72158">
        <ele>422</ele>
        <time>2016-02-07T09:40:54.000Z</time>
      </trkpt>
      <trkpt lat="47.49363" lon="6.72155">
        <ele>422</ele>
        <time>2016-02-07T09:40:55.000Z</time>
      </trkpt>
      <trkpt lat="47.49364" lon="6.72153">
        <ele>422</ele>
        <time>2016-02-07T09:40:56.000Z</time>
      </trkpt>
      <trkpt lat="47.49367" lon="6.72149">
        <ele>422</ele>
        <time>2016-02-07T09:40:58.000Z</time>
      </trkpt>
      <trkpt lat="47.49367" lon="6.72147">
        <ele>422</ele>
        <time>2016-02-07T09:40:59.000Z</time>
      </trkpt>
      <trkpt lat="47.49367" lon="6.72141">
        <ele>423</ele>
        <time>2016-02-07T09:41:02.000Z</time>
      </trkpt>
      <trkpt lat="47.49367" lon="6.7214">
        <ele>423</ele>
        <time>2016-02-07T09:41:03.000Z</time>
      </trkpt>
      <trkpt lat="47.49365" lon="6.72135">
        <ele>423</ele>
        <time>2016-02-07T09:41:06.000Z</time>
      </trkpt>
      <trkpt lat="47.49365" lon="6.72133">
        <ele>423</ele>
        <time>2016-02-07T09:41:07.000Z</time>
      </trkpt>
      <trkpt lat="47.49364" lon="6.72127">
        <ele>423</ele>
        <time>2016-02-07T09:41:11.000Z</time>
      </trkpt>
      <trkpt lat="47.49364" lon="6.72125">
        <ele>423</ele>
        <time>2016-02-07T09:41:12.000Z</time>
      </trkpt>
      <trkpt lat="47.49364" lon="6.7212">
        <ele>423</ele>
        <time>2016-02-07T09:41:16.000Z</time>
      </trkpt>
      <trkpt lat="47.49364" lon="6.72118">
        <ele>423</ele>
        <time>2016-02-07T09:41:17.000Z</time>
      </trkpt>
      <trkpt lat="47.49363" lon="6.72112">
        <ele>423</ele>
        <time>2016-02-07T09:41:20.000Z</time>
      </trkpt>
      <trkpt lat="47.49364" lon="6.7211">
        <ele>423</ele>
        <time>2016-02-07T09:41:21.000Z</time>
      </trkpt>
      <trkpt lat="47.49366" lon="6.72106">
        <ele>423</ele>
        <time>2016-02-07T09:41:23.000Z</time>
      </trkpt>
      <trkpt lat="47.49367" lon="6.72104">
        <ele>423</ele>
        <time>2016-02-07T09:41:24.000Z</time>
      </trkpt>
      <trkpt lat="47.4937" lon="6.72099">
        <ele>423</ele>
        <time>2016-02-07T09:41:27.000Z</time>
      </trkpt>
      <trkpt lat="47.4937" lon="6.72097">
        <ele>423</ele>
        <time>2016-02-07T09:41:28.000Z</time>
      </trkpt>
      <trkpt lat="47.4937" lon="6.72092">
        <ele>423</ele>
        <time>2016-02-07T09:41:31.000Z</time>
      </trkpt>
      <trkpt lat="47.4937" lon="6.7209">
        <ele>423</ele>
        <time>2016-02-07T09:41:32.000Z</time>
      </trkpt>
      <trkpt lat="47.4937" lon="6.72085">
        <ele>423</ele>
        <time>2016-02-07T09:41:34.000Z</time>
      </trkpt>
      <trkpt lat="47.49371" lon="6.72083">
        <ele>425</ele>
        <time>2016-02-07T09:41:35.000Z</time>
      </trkpt>
      <trkpt lat="47.49372" lon="6.72078">
        <ele>425</ele>
        <time>2016-02-07T09:41:37.000Z</time>
      </trkpt>
      <trkpt lat="47.49372" lon="6.72076">
        <ele>425</ele>
        <time>2016-02-07T09:41:38.000Z</time>
      </trkpt>
      <trkpt lat="47.49373" lon="6.72071">
        <ele>425</ele>
        <time>2016-02-07T09:41:41.000Z</time>
      </trkpt>
      <trkpt lat="47.49374" lon="6.72069">
        <ele>425</ele>
        <time>2016-02-07T09:41:42.000Z</time>
      </trkpt>
      <trkpt lat="47.49377" lon="6.72064">
        <ele>425</ele>
        <time>2016-02-07T09:41:45.000Z</time>
      </trkpt>
      <trkpt lat="47.49378" lon="6.72063">
        <ele>425</ele>
        <time>2016-02-07T09:41:46.000Z</time>
      </trkpt>
      <trkpt lat="47.49381" lon="6.72059">
        <ele>425</ele>
        <time>2016-02-07T09:41:48.000Z</time>
      </trkpt>
      <trkpt lat="47.49382" lon="6.72058">
        <ele>425</ele>
        <time>2016-02-07T09:41:49.000Z</time>
      </trkpt>
      <trkpt lat="47.49385" lon="6.72053">
        <ele>426</ele>
        <time>2016-02-07T09:41:52.000Z</time>
      </trkpt>
      <trkpt lat="47.49385" lon="6.72051">
        <ele>426</ele>
        <time>2016-02-07T09:41:53.000Z</time>
      </trkpt>
      <trkpt lat="47.49386" lon="6.72046">
        <ele>426</ele>
        <time>2016-02-07T09:41:56.000Z</time>
      </trkpt>
      <trkpt lat="47.49387" lon="6.72044">
        <ele>426</ele>
        <time>2016-02-07T09:41:57.000Z</time>
      </trkpt>
      <trkpt lat="47.49388" lon="6.72038">
        <ele>426</ele>
        <time>2016-02-07T09:42:00.000Z</time>
      </trkpt>
      <trkpt lat="47.49388" lon="6.72036">
        <ele>426</ele>
        <time>2016-02-07T09:42:01.000Z</time>
      </trkpt>
      <trkpt lat="47.49388" lon="6.72032">
        <ele>426</ele>
        <time>2016-02-07T09:42:03.000Z</time>
      </trkpt>
      <trkpt lat="47.49388" lon="6.72029">
        <ele>426</ele>
        <time>2016-02-07T09:42:04.000Z</time>
      </trkpt>
      <trkpt lat="47.49389" lon="6.72023">
        <ele>426</ele>
        <time>2016-02-07T09:42:07.000Z</time>
      </trkpt>
      <trkpt lat="47.49389" lon="6.72021">
        <ele>426</ele>
        <time>2016-02-07T09:42:08.000Z</time>
      </trkpt>
      <trkpt lat="47.49389" lon="6.72016">
        <ele>426</ele>
        <time>2016-02-07T09:42:11.000Z</time>
      </trkpt>
      <trkpt lat="47.49389" lon="6.72013">
        <ele>426</ele>
        <time>2016-02-07T09:42:12.000Z</time>
      </trkpt>
      <trkpt lat="47.49389" lon="6.72009">
        <ele>426</ele>
        <time>2016-02-07T09:42:14.000Z</time>
      </trkpt>
      <trkpt lat="47.4939" lon="6.72006">
        <ele>426</ele>
        <time>2016-02-07T09:42:15.000Z</time>
      </trkpt>
      <trkpt lat="47.4939" lon="6.72002">
        <ele>426</ele>
        <time>2016-02-07T09:42:17.000Z</time>
      </trkpt>
      <trkpt lat="47.49391" lon="6.72">
        <ele>429</ele>
        <time>2016-02-07T09:42:18.000Z</time>
      </trkpt>
      <trkpt lat="47.49391" lon="6.71994">
        <ele>429</ele>
        <time>2016-02-07T09:42:21.000Z</time>
      </trkpt>
      <trkpt lat="47.4939" lon="6.71992">
        <ele>429</ele>
        <time>2016-02-07T09:42:22.000Z</time>
      </trkpt>
      <trkpt lat="47.4939" lon="6.71986">
        <ele>429</ele>
        <time>2016-02-07T09:42:26.000Z</time>
      </trkpt>
      <trkpt lat="47.49391" lon="6.71985">
        <ele>429</ele>
        <time>2016-02-07T09:42:27.000Z</time>
      </trkpt>
      <trkpt lat="47.49393" lon="6.7198">
        <ele>429</ele>
        <time>2016-02-07T09:42:31.000Z</time>
      </trkpt>
      <trkpt lat="47.49393" lon="6.71978">
        <ele>429</ele>
        <time>2016-02-07T09:42:32.000Z</time>
      </trkpt>
      <trkpt lat="47.49393" lon="6.71972">
        <ele>430</ele>
        <time>2016-02-07T09:42:36.000Z</time>
      </trkpt>
      <trkpt lat="47.49394" lon="6.71971">
        <ele>430</ele>
        <time>2016-02-07T09:42:37.000Z</time>
      </trkpt>
      <trkpt lat="47.49396" lon="6.71966">
        <ele>430</ele>
        <time>2016-02-07T09:42:43.000Z</time>
      </trkpt>
      <trkpt lat="47.49397" lon="6.71965">
        <ele>430</ele>
        <time>2016-02-07T09:42:44.000Z</time>
      </trkpt>
      <trkpt lat="47.49398" lon="6.7196">
        <ele>430</ele>
        <time>2016-02-07T09:42:50.000Z</time>
      </trkpt>
      <trkpt lat="47.49399" lon="6.71959">
        <ele>430</ele>
        <time>2016-02-07T09:42:51.000Z</time>
      </trkpt>
      <trkpt lat="47.49398" lon="6.71953">
        <ele>431</ele>
        <time>2016-02-07T09:42:57.000Z</time>
      </trkpt>
      <trkpt lat="47.49397" lon="6.71952">
        <ele>431</ele>
        <time>2016-02-07T09:42:58.000Z</time>
      </trkpt>
      <trkpt lat="47.49397" lon="6.71946">
        <ele>431</ele>
        <time>2016-02-07T09:43:03.000Z</time>
      </trkpt>
      <trkpt lat="47.49397" lon="6.71944">
        <ele>431</ele>
        <time>2016-02-07T09:43:04.000Z</time>
      </trkpt>
      <trkpt lat="47.49398" lon="6.71938">
        <ele>431</ele>
        <time>2016-02-07T09:43:08.000Z</time>
      </trkpt>
      <trkpt lat="47.49398" lon="6.71936">
        <ele>431</ele>
        <time>2016-02-07T09:43:09.000Z</time>
      </trkpt>
      <trkpt lat="47.49401" lon="6.71931">
        <ele>432</ele>
        <time>2016-02-07T09:43:16.000Z</time>
      </trkpt>
      <trkpt lat="47.49401" lon="6.7193">
        <ele>432</ele>
        <time>2016-02-07T09:43:17.000Z</time>
      </trkpt>
      <trkpt lat="47.49403" lon="6.71924">
        <ele>432</ele>
        <time>2016-02-07T09:43:25.000Z</time>
      </trkpt>
      <trkpt lat="47.49403" lon="6.71923">
        <ele>432</ele>
        <time>2016-02-07T09:43:26.000Z</time>
      </trkpt>
      <trkpt lat="47.49404" lon="6.71918">
        <ele>433</ele>
        <time>2016-02-07T09:43:31.000Z</time>
      </trkpt>
      <trkpt lat="47.49404" lon="6.71917">
        <ele>433</ele>
        <time>2016-02-07T09:43:32.000Z</time>
      </trkpt>
      <trkpt lat="47.49403" lon="6.71911">
        <ele>434</ele>
        <time>2016-02-07T09:43:37.000Z</time>
      </trkpt>
      <trkpt lat="47.49402" lon="6.7191">
        <ele>434</ele>
        <time>2016-02-07T09:43:38.000Z</time>
      </trkpt>
      <trkpt lat="47.49399" lon="6.71904">
        <ele>434</ele>
        <time>2016-02-07T09:43:43.000Z</time>
      </trkpt>
      <trkpt lat="47.49399" lon="6.71903">
        <ele>434</ele>
        <time>2016-02-07T09:43:44.000Z</time>
      </trkpt>
      <trkpt lat="47.49399" lon="6.71897">
        <ele>435</ele>
        <time>2016-02-07T09:43:48.000Z</time>
      </trkpt>
      <trkpt lat="47.49399" lon="6.71896">
        <ele>435</ele>
        <time>2016-02-07T09:43:49.000Z</time>
      </trkpt>
      <trkpt lat="47.49399" lon="6.71891">
        <ele>435</ele>
        <time>2016-02-07T09:43:52.000Z</time>
      </trkpt>
      <trkpt lat="47.49399" lon="6.71889">
        <ele>435</ele>
        <time>2016-02-07T09:43:53.000Z</time>
      </trkpt>
      <trkpt lat="47.494" lon="6.71883">
        <ele>435</ele>
        <time>2016-02-07T09:43:56.000Z</time>
      </trkpt>
      <trkpt lat="47.494" lon="6.71882">
        <ele>435</ele>
        <time>2016-02-07T09:43:57.000Z</time>
      </trkpt>
      <trkpt lat="47.49402" lon="6.71877">
        <ele>435</ele>
        <time>2016-02-07T09:44:01.000Z</time>
      </trkpt>
      <trkpt lat="47.49402" lon="6.71875">
        <ele>435</ele>
        <time>2016-02-07T09:44:02.000Z</time>
      </trkpt>
      <trkpt lat="47.49403" lon="6.71869">
        <ele>435</ele>
        <time>2016-02-07T09:44:07.000Z</time>
      </trkpt>
      <trkpt lat="47.49404" lon="6.71868">
        <ele>435</ele>
        <time>2016-02-07T09:44:08.000Z</time>
      </trkpt>
      <trkpt lat="47.49404" lon="6.71862">
        <ele>436</ele>
        <time>2016-02-07T09:44:13.000Z</time>
      </trkpt>
      <trkpt lat="47.49404" lon="6.71861">
        <ele>436</ele>
        <time>2016-02-07T09:44:14.000Z</time>
      </trkpt>
      <trkpt lat="47.49405" lon="6.71855">
        <ele>436</ele>
        <time>2016-02-07T09:44:46.000Z</time>
      </trkpt>
      <trkpt lat="47.49406" lon="6.71853">
        <ele>436</ele>
        <time>2016-02-07T09:44:47.000Z</time>
      </trkpt>
      <trkpt lat="47.49408" lon="6.71848">
        <ele>436</ele>
        <time>2016-02-07T09:44:50.000Z</time>
      </trkpt>
      <trkpt lat="47.49409" lon="6.71846">
        <ele>436</ele>
        <time>2016-02-07T09:44:51.000Z</time>
      </trkpt>
      <trkpt lat="47.49409" lon="6.7184">
        <ele>437</ele>
        <time>2016-02-07T09:44:54.000Z</time>
      </trkpt>
      <trkpt lat="47.49409" lon="6.71837">
        <ele>437</ele>
        <time>2016-02-07T09:44:55.000Z</time>
      </trkpt>
      <trkpt lat="47.49409" lon="6.71832">
        <ele>438</ele>
        <time>2016-02-07T09:44:57.000Z</time>
      </trkpt>
      <trkpt lat="47.4941" lon="6.7183">
        <ele>438</ele>
        <time>2016-02-07T09:44:58.000Z</time>
      </trkpt>
      <trkpt lat="47.49411" lon="6.71823">
        <ele>438</ele>
        <time>2016-02-07T09:45:01.000Z</time>
      </trkpt>
      <trkpt lat="47.49411" lon="6.71821">
        <ele>438</ele>
        <time>2016-02-07T09:45:02.000Z</time>
      </trkpt>
      <trkpt lat="47.4941" lon="6.71815">
        <ele>439</ele>
        <time>2016-02-07T09:45:05.000Z</time>
      </trkpt>
      <trkpt lat="47.4941" lon="6.71812">
        <ele>439</ele>
        <time>2016-02-07T09:45:06.000Z</time>
      </trkpt>
      <trkpt lat="47.49409" lon="6.71808">
        <ele>439</ele>
        <time>2016-02-07T09:45:08.000Z</time>
      </trkpt>
      <trkpt lat="47.49408" lon="6.71806">
        <ele>439</ele>
        <time>2016-02-07T09:45:09.000Z</time>
      </trkpt>
      <trkpt lat="47.49407" lon="6.71799">
        <ele>439</ele>
        <time>2016-02-07T09:45:12.000Z</time>
      </trkpt>
      <trkpt lat="47.49407" lon="6.71797">
        <ele>439</ele>
        <time>2016-02-07T09:45:13.000Z</time>
      </trkpt>
      <trkpt lat="47.49408" lon="6.71791">
        <ele>440</ele>
        <time>2016-02-07T09:45:17.000Z</time>
      </trkpt>
      <trkpt lat="47.49407" lon="6.7179">
        <ele>440</ele>
        <time>2016-02-07T09:45:18.000Z</time>
      </trkpt>
      <trkpt lat="47.49408" lon="6.71783">
        <ele>440</ele>
        <time>2016-02-07T09:45:22.000Z</time>
      </trkpt>
      <trkpt lat="47.49408" lon="6.71781">
        <ele>441</ele>
        <time>2016-02-07T09:45:23.000Z</time>
      </trkpt>
      <trkpt lat="47.49409" lon="6.71775">
        <ele>441</ele>
        <time>2016-02-07T09:45:27.000Z</time>
      </trkpt>
      <trkpt lat="47.49409" lon="6.71774">
        <ele>441</ele>
        <time>2016-02-07T09:45:28.000Z</time>
      </trkpt>
      <trkpt lat="47.4941" lon="6.71767">
        <ele>442</ele>
        <time>2016-02-07T09:45:32.000Z</time>
      </trkpt>
      <trkpt lat="47.4941" lon="6.71765">
        <ele>442</ele>
        <time>2016-02-07T09:45:33.000Z</time>
      </trkpt>
      <trkpt lat="47.49411" lon="6.71759">
        <ele>443</ele>
        <time>2016-02-07T09:45:35.000Z</time>
      </trkpt>
      <trkpt lat="47.49412" lon="6.71756">
        <ele>444</ele>
        <time>2016-02-07T09:45:36.000Z</time>
      </trkpt>
      <trkpt lat="47.49413" lon="6.71751">
        <ele>445</ele>
        <time>2016-02-07T09:45:38.000Z</time>
      </trkpt>
      <trkpt lat="47.49414" lon="6.71749">
        <ele>446</ele>
        <time>2016-02-07T09:45:39.000Z</time>
      </trkpt>
      <trkpt lat="47.49416" lon="6.71744">
        <ele>446</ele>
        <time>2016-02-07T09:45:43.000Z</time>
      </trkpt>
      <trkpt lat="47.49417" lon="6.71743">
        <ele>446</ele>
        <time>2016-02-07T09:45:44.000Z</time>
      </trkpt>
      <trkpt lat="47.49418" lon="6.71738">
        <ele>447</ele>
        <time>2016-02-07T09:45:47.000Z</time>
      </trkpt>
      <trkpt lat="47.49419" lon="6.71737">
        <ele>447</ele>
        <time>2016-02-07T09:45:48.000Z</time>
      </trkpt>
      <trkpt lat="47.49418" lon="6.7173">
        <ele>447</ele>
        <time>2016-02-07T09:45:52.000Z</time>
      </trkpt>
      <trkpt lat="47.49417" lon="6.71729">
        <ele>447</ele>
        <time>2016-02-07T09:45:53.000Z</time>
      </trkpt>
      <trkpt lat="47.49416" lon="6.71724">
        <ele>445</ele>
        <time>2016-02-07T09:45:56.000Z</time>
      </trkpt>
      <trkpt lat="47.49415" lon="6.71722">
        <ele>445</ele>
        <time>2016-02-07T09:45:57.000Z</time>
      </trkpt>
      <trkpt lat="47.49415" lon="6.71716">
        <ele>446</ele>
        <time>2016-02-07T09:46:00.000Z</time>
      </trkpt>
      <trkpt lat="47.49415" lon="6.71714">
        <ele>446</ele>
        <time>2016-02-07T09:46:01.000Z</time>
      </trkpt>
      <trkpt lat="47.49414" lon="6.71708">
        <ele>446</ele>
        <time>2016-02-07T09:46:04.000Z</time>
      </trkpt>
      <trkpt lat="47.49414" lon="6.71706">
        <ele>446</ele>
        <time>2016-02-07T09:46:05.000Z</time>
      </trkpt>
      <trkpt lat="47.49413" lon="6.717">
        <ele>446</ele>
        <time>2016-02-07T09:46:08.000Z</time>
      </trkpt>
      <trkpt lat="47.49413" lon="6.71698">
        <ele>446</ele>
        <time>2016-02-07T09:46:09.000Z</time>
      </trkpt>
      <trkpt lat="47.49412" lon="6.71693">
        <ele>447</ele>
        <time>2016-02-07T09:46:11.000Z</time>
      </trkpt>
      <trkpt lat="47.49412" lon="6.71691">
        <ele>447</ele>
        <time>2016-02-07T09:46:12.000Z</time>
      </trkpt>
      <trkpt lat="47.49414" lon="6.71684">
        <ele>448</ele>
        <time>2016-02-07T09:46:15.000Z</time>
      </trkpt>
      <trkpt lat="47.49414" lon="6.71682">
        <ele>448</ele>
        <time>2016-02-07T09:46:16.000Z</time>
      </trkpt>
      <trkpt lat="47.49415" lon="6.71676">
        <ele>449</ele>
        <time>2016-02-07T09:46:19.000Z</time>
      </trkpt>
      <trkpt lat="47.49414" lon="6.71674">
        <ele>449</ele>
        <time>2016-02-07T09:46:20.000Z</time>
      </trkpt>
      <trkpt lat="47.49415" lon="6.71668">
        <ele>451</ele>
        <time>2016-02-07T09:46:23.000Z</time>
      </trkpt>
      <trkpt lat="47.49416" lon="6.71665">
        <ele>451</ele>
        <time>2016-02-07T09:46:24.000Z</time>
      </trkpt>
      <trkpt lat="47.49417" lon="6.7166">
        <ele>450</ele>
        <time>2016-02-07T09:46:26.000Z</time>
      </trkpt>
      <trkpt lat="47.49417" lon="6.71657">
        <ele>451</ele>
        <time>2016-02-07T09:46:27.000Z</time>
      </trkpt>
      <trkpt lat="47.49417" lon="6.71651">
        <ele>451</ele>
        <time>2016-02-07T09:46:29.000Z</time>
      </trkpt>
      <trkpt lat="47.49417" lon="6.71648">
        <ele>451</ele>
        <time>2016-02-07T09:46:30.000Z</time>
      </trkpt>
      <trkpt lat="47.49417" lon="6.71644">
        <ele>450</ele>
        <time>2016-02-07T09:46:31.000Z</time>
      </trkpt>
      <trkpt lat="47.49416" lon="6.7164">
        <ele>450</ele>
        <time>2016-02-07T09:46:32.000Z</time>
      </trkpt>
      <trkpt lat="47.49415" lon="6.71636">
        <ele>450</ele>
        <time>2016-02-07T09:46:33.000Z</time>
      </trkpt>
      <trkpt lat="47.49415" lon="6.71632">
        <ele>450</ele>
        <time>2016-02-07T09:46:34.000Z</time>
      </trkpt>
      <trkpt lat="47.49414" lon="6.71625">
        <ele>450</ele>
        <time>2016-02-07T09:46:36.000Z</time>
      </trkpt>
      <trkpt lat="47.49414" lon="6.71623">
        <ele>450</ele>
        <time>2016-02-07T09:46:37.000Z</time>
      </trkpt>
      <trkpt lat="47.49413" lon="6.71617">
        <ele>450</ele>
        <time>2016-02-07T09:46:40.000Z</time>
      </trkpt>
      <trkpt lat="47.49413" lon="6.71614">
        <ele>450</ele>
        <time>2016-02-07T09:46:41.000Z</time>
      </trkpt>
      <trkpt lat="47.49413" lon="6.71609">
        <ele>451</ele>
        <time>2016-02-07T09:46:43.000Z</time>
      </trkpt>
      <trkpt lat="47.49412" lon="6.71606">
        <ele>451</ele>
        <time>2016-02-07T09:46:44.000Z</time>
      </trkpt>
      <trkpt lat="47.49412" lon="6.716">
        <ele>451</ele>
        <time>2016-02-07T09:46:46.000Z</time>
      </trkpt>
      <trkpt lat="47.49412" lon="6.71598">
        <ele>452</ele>
        <time>2016-02-07T09:46:47.000Z</time>
      </trkpt>
      <trkpt lat="47.49411" lon="6.71592">
        <ele>452</ele>
        <time>2016-02-07T09:46:50.000Z</time>
      </trkpt>
      <trkpt lat="47.49411" lon="6.7159">
        <ele>452</ele>
        <time>2016-02-07T09:46:51.000Z</time>
      </trkpt>
      <trkpt lat="47.4941" lon="6.71584">
        <ele>453</ele>
        <time>2016-02-07T09:46:55.000Z</time>
      </trkpt>
      <trkpt lat="47.4941" lon="6.71583">
        <ele>453</ele>
        <time>2016-02-07T09:46:56.000Z</time>
      </trkpt>
      <trkpt lat="47.4941" lon="6.71577">
        <ele>453</ele>
        <time>2016-02-07T09:46:59.000Z</time>
      </trkpt>
      <trkpt lat="47.4941" lon="6.71576">
        <ele>453</ele>
        <time>2016-02-07T09:47:00.000Z</time>
      </trkpt>
      <trkpt lat="47.49409" lon="6.7157">
        <ele>453</ele>
        <time>2016-02-07T09:47:03.000Z</time>
      </trkpt>
      <trkpt lat="47.49408" lon="6.71568">
        <ele>453</ele>
        <time>2016-02-07T09:47:04.000Z</time>
      </trkpt>
      <trkpt lat="47.49408" lon="6.71563">
        <ele>453</ele>
        <time>2016-02-07T09:47:06.000Z</time>
      </trkpt>
      <trkpt lat="47.49407" lon="6.7156">
        <ele>453</ele>
        <time>2016-02-07T09:47:07.000Z</time>
      </trkpt>
      <trkpt lat="47.49407" lon="6.71556">
        <ele>453</ele>
        <time>2016-02-07T09:47:09.000Z</time>
      </trkpt>
      <trkpt lat="47.49407" lon="6.71553">
        <ele>453</ele>
        <time>2016-02-07T09:47:10.000Z</time>
      </trkpt>
      <trkpt lat="47.49407" lon="6.71548">
        <ele>453</ele>
        <time>2016-02-07T09:47:12.000Z</time>
      </trkpt>
      <trkpt lat="47.49408" lon="6.71545">
        <ele>453</ele>
        <time>2016-02-07T09:47:13.000Z</time>
      </trkpt>
      <trkpt lat="47.49409" lon="6.71542">
        <ele>453</ele>
        <time>2016-02-07T09:47:14.000Z</time>
      </trkpt>
      <trkpt lat="47.49411" lon="6.71539">
        <ele>453</ele>
        <time>2016-02-07T09:47:15.000Z</time>
      </trkpt>
      <trkpt lat="47.49412" lon="6.71536">
        <ele>453</ele>
        <time>2016-02-07T09:47:16.000Z</time>
      </trkpt>
      <trkpt lat="47.49413" lon="6.71534">
        <ele>454</ele>
        <time>2016-02-07T09:47:17.000Z</time>
      </trkpt>
      <trkpt lat="47.49414" lon="6.71529">
        <ele>454</ele>
        <time>2016-02-07T09:47:19.000Z</time>
      </trkpt>
      <trkpt lat="47.49414" lon="6.71526">
        <ele>454</ele>
        <time>2016-02-07T09:47:20.000Z</time>
      </trkpt>
      <trkpt lat="47.49412" lon="6.71522">
        <ele>454</ele>
        <time>2016-02-07T09:47:22.000Z</time>
      </trkpt>
      <trkpt lat="47.49411" lon="6.71519">
        <ele>455</ele>
        <time>2016-02-07T09:47:23.000Z</time>
      </trkpt>
      <trkpt lat="47.49411" lon="6.71514">
        <ele>455</ele>
        <time>2016-02-07T09:47:25.000Z</time>
      </trkpt>
      <trkpt lat="47.49411" lon="6.71512">
        <ele>455</ele>
        <time>2016-02-07T09:47:26.000Z</time>
      </trkpt>
      <trkpt lat="47.49412" lon="6.71506">
        <ele>456</ele>
        <time>2016-02-07T09:47:29.000Z</time>
      </trkpt>
      <trkpt lat="47.49413" lon="6.71504">
        <ele>457</ele>
        <time>2016-02-07T09:47:30.000Z</time>
      </trkpt>
      <trkpt lat="47.49412" lon="6.71498">
        <ele>457</ele>
        <time>2016-02-07T09:47:33.000Z</time>
      </trkpt>
      <trkpt lat="47.49412" lon="6.71496">
        <ele>457</ele>
        <time>2016-02-07T09:47:34.000Z</time>
      </trkpt>
      <trkpt lat="47.49409" lon="6.71492">
        <ele>456</ele>
        <time>2016-02-07T09:47:36.000Z</time>
      </trkpt>
      <trkpt lat="47.49408" lon="6.71489">
        <ele>456</ele>
        <time>2016-02-07T09:47:37.000Z</time>
      </trkpt>
      <trkpt lat="47.49407" lon="6.71484">
        <ele>456</ele>
        <time>2016-02-07T09:47:39.000Z</time>
      </trkpt>
      <trkpt lat="47.49408" lon="6.71481">
        <ele>456</ele>
        <time>2016-02-07T09:47:40.000Z</time>
      </trkpt>
      <trkpt lat="47.49408" lon="6.71474">
        <ele>455</ele>
        <time>2016-02-07T09:47:42.000Z</time>
      </trkpt>
      <trkpt lat="47.49408" lon="6.71471">
        <ele>455</ele>
        <time>2016-02-07T09:47:43.000Z</time>
      </trkpt>
      <trkpt lat="47.49407" lon="6.71465">
        <ele>455</ele>
        <time>2016-02-07T09:47:45.000Z</time>
      </trkpt>
      <trkpt lat="47.49407" lon="6.71462">
        <ele>455</ele>
        <time>2016-02-07T09:47:46.000Z</time>
      </trkpt>
      <trkpt lat="47.49406" lon="6.71456">
        <ele>455</ele>
        <time>2016-02-07T09:47:48.000Z</time>
      </trkpt>
      <trkpt lat="47.49406" lon="6.71453">
        <ele>455</ele>
        <time>2016-02-07T09:47:49.000Z</time>
      </trkpt>
      <trkpt lat="47.49405" lon="6.7145">
        <ele>455</ele>
        <time>2016-02-07T09:47:50.000Z</time>
      </trkpt>
      <trkpt lat="47.49404" lon="6.71446">
        <ele>455</ele>
        <time>2016-02-07T09:47:51.000Z</time>
      </trkpt>
      <trkpt lat="47.49404" lon="6.71442">
        <ele>455</ele>
        <time>2016-02-07T09:47:52.000Z</time>
      </trkpt>
      <trkpt lat="47.49403" lon="6.71439">
        <ele>455</ele>
        <time>2016-02-07T09:47:53.000Z</time>
      </trkpt>
      <trkpt lat="47.49402" lon="6.71433">
        <ele>455</ele>
        <time>2016-02-07T09:47:55.000Z</time>
      </trkpt>
      <trkpt lat="47.49401" lon="6.7143">
        <ele>455</ele>
        <time>2016-02-07T09:47:56.000Z</time>
      </trkpt>
      <trkpt lat="47.494" lon="6.71425">
        <ele>456</ele>
        <time>2016-02-07T09:47:58.000Z</time>
      </trkpt>
      <trkpt lat="47.494" lon="6.71422">
        <ele>456</ele>
        <time>2016-02-07T09:47:59.000Z</time>
      </trkpt>
      <trkpt lat="47.494" lon="6.71416">
        <ele>456</ele>
        <time>2016-02-07T09:48:01.000Z</time>
      </trkpt>
      <trkpt lat="47.49401" lon="6.71413">
        <ele>456</ele>
        <time>2016-02-07T09:48:02.000Z</time>
      </trkpt>
      <trkpt lat="47.494" lon="6.71406">
        <ele>456</ele>
        <time>2016-02-07T09:48:04.000Z</time>
      </trkpt>
      <trkpt lat="47.494" lon="6.71403">
        <ele>456</ele>
        <time>2016-02-07T09:48:05.000Z</time>
      </trkpt>
      <trkpt lat="47.49399" lon="6.71397">
        <ele>456</ele>
        <time>2016-02-07T09:48:07.000Z</time>
      </trkpt>
      <trkpt lat="47.49398" lon="6.71394">
        <ele>456</ele>
        <time>2016-02-07T09:48:08.000Z</time>
      </trkpt>
      <trkpt lat="47.49397" lon="6.71388">
        <ele>456</ele>
        <time>2016-02-07T09:48:10.000Z</time>
      </trkpt>
      <trkpt lat="47.49396" lon="6.71385">
        <ele>456</ele>
        <time>2016-02-07T09:48:11.000Z</time>
      </trkpt>
      <trkpt lat="47.49395" lon="6.71378">
        <ele>456</ele>
        <time>2016-02-07T09:48:13.000Z</time>
      </trkpt>
      <trkpt lat="47.49395" lon="6.71375">
        <ele>456</ele>
        <time>2016-02-07T09:48:14.000Z</time>
      </trkpt>
      <trkpt lat="47.49394" lon="6.71371">
        <ele>456</ele>
        <time>2016-02-07T09:48:15.000Z</time>
      </trkpt>
      <trkpt lat="47.49393" lon="6.71368">
        <ele>456</ele>
        <time>2016-02-07T09:48:16.000Z</time>
      </trkpt>
      <trkpt lat="47.49392" lon="6.71365">
        <ele>456</ele>
        <time>2016-02-07T09:48:17.000Z</time>
      </trkpt>
      <trkpt lat="47.49392" lon="6.71361">
        <ele>456</ele>
        <time>2016-02-07T09:48:18.000Z</time>
      </trkpt>
      <trkpt lat="47.49391" lon="6.71357">
        <ele>457</ele>
        <time>2016-02-07T09:48:19.000Z</time>
      </trkpt>
      <trkpt lat="47.49391" lon="6.71353">
        <ele>457</ele>
        <time>2016-02-07T09:48:20.000Z</time>
      </trkpt>
      <trkpt lat="47.4939" lon="6.71348">
        <ele>457</ele>
        <time>2016-02-07T09:48:21.000Z</time>
      </trkpt>
      <trkpt lat="47.49389" lon="6.71343">
        <ele>457</ele>
        <time>2016-02-07T09:48:22.000Z</time>
      </trkpt>
      <trkpt lat="47.49389" lon="6.71339">
        <ele>457</ele>
        <time>2016-02-07T09:48:23.000Z</time>
      </trkpt>
      <trkpt lat="47.49388" lon="6.71335">
        <ele>457</ele>
        <time>2016-02-07T09:48:24.000Z</time>
      </trkpt>
      <trkpt lat="47.49388" lon="6.71331">
        <ele>459</ele>
        <time>2016-02-07T09:48:25.000Z</time>
      </trkpt>
      <trkpt lat="47.49388" lon="6.71327">
        <ele>459</ele>
        <time>2016-02-07T09:48:26.000Z</time>
      </trkpt>
      <trkpt lat="47.49388" lon="6.71324">
        <ele>459</ele>
        <time>2016-02-07T09:48:27.000Z</time>
      </trkpt>
      <trkpt lat="47.49389" lon="6.71321">
        <ele>459</ele>
        <time>2016-02-07T09:48:28.000Z</time>
      </trkpt>
      <trkpt lat="47.4939" lon="6.71317">
        <ele>459</ele>
        <time>2016-02-07T09:48:29.000Z</time>
      </trkpt>
      <trkpt lat="47.49391" lon="6.71313">
        <ele>459</ele>
        <time>2016-02-07T09:48:30.000Z</time>
      </trkpt>
      <trkpt lat="47.49391" lon="6.7131">
        <ele>459</ele>
        <time>2016-02-07T09:48:31.000Z</time>
      </trkpt>
      <trkpt lat="47.49391" lon="6.71306">
        <ele>459</ele>
        <time>2016-02-07T09:48:32.000Z</time>
      </trkpt>
      <trkpt lat="47.49391" lon="6.71303">
        <ele>459</ele>
        <time>2016-02-07T09:48:33.000Z</time>
      </trkpt>
      <trkpt lat="47.49392" lon="6.71299">
        <ele>459</ele>
        <time>2016-02-07T09:48:34.000Z</time>
      </trkpt>
      <trkpt lat="47.49393" lon="6.71293">
        <ele>459</ele>
        <time>2016-02-07T09:48:36.000Z</time>
      </trkpt>
      <trkpt lat="47.49393" lon="6.7129">
        <ele>459</ele>
        <time>2016-02-07T09:48:37.000Z</time>
      </trkpt>
      <trkpt lat="47.49395" lon="6.71284">
        <ele>460</ele>
        <time>2016-02-07T09:48:39.000Z</time>
      </trkpt>
      <trkpt lat="47.49395" lon="6.71281">
        <ele>460</ele>
        <time>2016-02-07T09:48:40.000Z</time>
      </trkpt>
      <trkpt lat="47.49395" lon="6.71276">
        <ele>460</ele>
        <time>2016-02-07T09:48:42.000Z</time>
      </trkpt>
      <trkpt lat="47.49394" lon="6.71274">
        <ele>460</ele>
        <time>2016-02-07T09:48:43.000Z</time>
      </trkpt>
      <trkpt lat="47.49392" lon="6.7127">
        <ele>460</ele>
        <time>2016-02-07T09:48:45.000Z</time>
      </trkpt>
      <trkpt lat="47.49391" lon="6.71268">
        <ele>460</ele>
        <time>2016-02-07T09:48:46.000Z</time>
      </trkpt>
      <trkpt lat="47.49389" lon="6.71265">
        <ele>460</ele>
        <time>2016-02-07T09:48:48.000Z</time>
      </trkpt>
      <trkpt lat="47.49388" lon="6.71263">
        <ele>460</ele>
        <time>2016-02-07T09:48:49.000Z</time>
      </trkpt>
      <trkpt lat="47.49386" lon="6.71258">
        <ele>460</ele>
        <time>2016-02-07T09:48:51.000Z</time>
      </trkpt>
      <trkpt lat="47.49385" lon="6.71255">
        <ele>460</ele>
        <time>2016-02-07T09:48:52.000Z</time>
      </trkpt>
      <trkpt lat="47.49383" lon="6.7125">
        <ele>460</ele>
        <time>2016-02-07T09:48:54.000Z</time>
      </trkpt>
      <trkpt lat="47.49382" lon="6.71247">
        <ele>461</ele>
        <time>2016-02-07T09:48:55.000Z</time>
      </trkpt>
      <trkpt lat="47.49381" lon="6.71244">
        <ele>461</ele>
        <time>2016-02-07T09:48:56.000Z</time>
      </trkpt>
      <trkpt lat="47.4938" lon="6.71241">
        <ele>461</ele>
        <time>2016-02-07T09:48:57.000Z</time>
      </trkpt>
      <trkpt lat="47.49379" lon="6.71238">
        <ele>461</ele>
        <time>2016-02-07T09:48:58.000Z</time>
      </trkpt>
      <trkpt lat="47.49378" lon="6.71235">
        <ele>461</ele>
        <time>2016-02-07T09:48:59.000Z</time>
      </trkpt>
      <trkpt lat="47.49377" lon="6.71231">
        <ele>461</ele>
        <time>2016-02-07T09:49:00.000Z</time>
      </trkpt>
      <trkpt lat="47.49377" lon="6.71228">
        <ele>460</ele>
        <time>2016-02-07T09:49:01.000Z</time>
      </trkpt>
      <trkpt lat="47.49375" lon="6.71222">
        <ele>460</ele>
        <time>2016-02-07T09:49:03.000Z</time>
      </trkpt>
      <trkpt lat="47.49375" lon="6.71219">
        <ele>460</ele>
        <time>2016-02-07T09:49:04.000Z</time>
      </trkpt>
      <trkpt lat="47.49374" lon="6.71213">
        <ele>460</ele>
        <time>2016-02-07T09:49:06.000Z</time>
      </trkpt>
      <trkpt lat="47.49373" lon="6.7121">
        <ele>460</ele>
        <time>2016-02-07T09:49:07.000Z</time>
      </trkpt>
      <trkpt lat="47.49371" lon="6.71207">
        <ele>460</ele>
        <time>2016-02-07T09:49:08.000Z</time>
      </trkpt>
      <trkpt lat="47.49371" lon="6.71204">
        <ele>460</ele>
        <time>2016-02-07T09:49:09.000Z</time>
      </trkpt>
      <trkpt lat="47.4937" lon="6.71197">
        <ele>460</ele>
        <time>2016-02-07T09:49:11.000Z</time>
      </trkpt>
      <trkpt lat="47.4937" lon="6.71194">
        <ele>460</ele>
        <time>2016-02-07T09:49:12.000Z</time>
      </trkpt>
      <trkpt lat="47.49369" lon="6.71188">
        <ele>460</ele>
        <time>2016-02-07T09:49:14.000Z</time>
      </trkpt>
      <trkpt lat="47.49369" lon="6.71184">
        <ele>460</ele>
        <time>2016-02-07T09:49:15.000Z</time>
      </trkpt>
      <trkpt lat="47.49369" lon="6.71178">
        <ele>460</ele>
        <time>2016-02-07T09:49:17.000Z</time>
      </trkpt>
      <trkpt lat="47.49368" lon="6.71175">
        <ele>460</ele>
        <time>2016-02-07T09:49:18.000Z</time>
      </trkpt>
      <trkpt lat="47.49367" lon="6.71171">
        <ele>460</ele>
        <time>2016-02-07T09:49:20.000Z</time>
      </trkpt>
      <trkpt lat="47.49367" lon="6.71168">
        <ele>460</ele>
        <time>2016-02-07T09:49:21.000Z</time>
      </trkpt>
      <trkpt lat="47.49365" lon="6.71163">
        <ele>460</ele>
        <time>2016-02-07T09:49:25.000Z</time>
      </trkpt>
      <trkpt lat="47.49365" lon="6.71162">
        <ele>460</ele>
        <time>2016-02-07T09:49:26.000Z</time>
      </trkpt>
      <trkpt lat="47.49363" lon="6.71157">
        <ele>460</ele>
        <time>2016-02-07T09:49:29.000Z</time>
      </trkpt>
      <trkpt lat="47.49362" lon="6.71155">
        <ele>460</ele>
        <time>2016-02-07T09:49:30.000Z</time>
      </trkpt>
      <trkpt lat="47.49359" lon="6.7115">
        <ele>459</ele>
        <time>2016-02-07T09:50:23.000Z</time>
      </trkpt>
      <trkpt lat="47.49359" lon="6.71149">
        <ele>459</ele>
        <time>2016-02-07T09:50:24.000Z</time>
      </trkpt>
      <trkpt lat="47.49362" lon="6.71154">
        <ele>460</ele>
        <time>2016-02-07T09:50:58.000Z</time>
      </trkpt>
      <trkpt lat="47.49363" lon="6.71154">
        <ele>460</ele>
        <time>2016-02-07T09:50:59.000Z</time>
      </trkpt>
      <trkpt lat="47.49363" lon="6.71155">
        <ele>460</ele>
        <time>2016-02-07T09:51:00.000Z</time>
      </trkpt>
      <trkpt lat="47.49365" lon="6.7116">
        <ele>460</ele>
        <time>2016-02-07T09:51:01.000Z</time>
      </trkpt>
      <trkpt lat="47.49366" lon="6.71163">
        <ele>460</ele>
        <time>2016-02-07T09:51:02.000Z</time>
      </trkpt>
      <trkpt lat="47.49367" lon="6.71167">
        <ele>460</ele>
        <time>2016-02-07T09:51:03.000Z</time>
      </trkpt>
      <trkpt lat="47.49368" lon="6.71172">
        <ele>460</ele>
        <time>2016-02-07T09:51:04.000Z</time>
      </trkpt>
      <trkpt lat="47.49369" lon="6.71176">
        <ele>460</ele>
        <time>2016-02-07T09:51:05.000Z</time>
      </trkpt>
      <trkpt lat="47.4937" lon="6.71181">
        <ele>460</ele>
        <time>2016-02-07T09:51:06.000Z</time>
      </trkpt>
      <trkpt lat="47.49371" lon="6.71185">
        <ele>460</ele>
        <time>2016-02-07T09:51:07.000Z</time>
      </trkpt>
      <trkpt lat="47.49372" lon="6.7119">
        <ele>460</ele>
        <time>2016-02-07T09:51:08.000Z</time>
      </trkpt>
      <trkpt lat="47.49372" lon="6.71194">
        <ele>460</ele>
        <time>2016-02-07T09:51:09.000Z</time>
      </trkpt>
      <trkpt lat="47.49373" lon="6.71199">
        <ele>460</ele>
        <time>2016-02-07T09:51:10.000Z</time>
      </trkpt>
      <trkpt lat="47.49374" lon="6.71204">
        <ele>460</ele>
        <time>2016-02-07T09:51:11.000Z</time>
      </trkpt>
      <trkpt lat="47.49375" lon="6.71209">
        <ele>461</ele>
        <time>2016-02-07T09:51:12.000Z</time>
      </trkpt>
      <trkpt lat="47.49376" lon="6.71216">
        <ele>461</ele>
        <time>2016-02-07T09:51:13.000Z</time>
      </trkpt>
      <trkpt lat="47.49376" lon="6.71222">
        <ele>460</ele>
        <time>2016-02-07T09:51:14.000Z</time>
      </trkpt>
      <trkpt lat="47.49376" lon="6.71229">
        <ele>460</ele>
        <time>2016-02-07T09:51:15.000Z</time>
      </trkpt>
      <trkpt lat="47.49377" lon="6.71237">
        <ele>461</ele>
        <time>2016-02-07T09:51:16.000Z</time>
      </trkpt>
      <trkpt lat="47.49378" lon="6.71245">
        <ele>461</ele>
        <time>2016-02-07T09:51:17.000Z</time>
      </trkpt>
      <trkpt lat="47.49379" lon="6.71252">
        <ele>459</ele>
        <time>2016-02-07T09:51:18.000Z</time>
      </trkpt>
      <trkpt lat="47.4938" lon="6.71259">
        <ele>459</ele>
        <time>2016-02-07T09:51:19.000Z</time>
      </trkpt>
      <trkpt lat="47.49382" lon="6.71265">
        <ele>459</ele>
        <time>2016-02-07T09:51:20.000Z</time>
      </trkpt>
      <trkpt lat="47.49383" lon="6.71272">
        <ele>459</ele>
        <time>2016-02-07T09:51:21.000Z</time>
      </trkpt>
      <trkpt lat="47.49389" lon="6.71287">
        <ele>459</ele>
        <time>2016-02-07T09:51:22.000Z</time>
      </trkpt>
      <trkpt lat="47.49389" lon="6.71296">
        <ele>459</ele>
        <time>2016-02-07T09:51:23.000Z</time>
      </trkpt>
      <trkpt lat="47.49389" lon="6.71303">
        <ele>459</ele>
        <time>2016-02-07T09:51:24.000Z</time>
      </trkpt>
      <trkpt lat="47.49391" lon="6.71311">
        <ele>459</ele>
        <time>2016-02-07T09:51:25.000Z</time>
      </trkpt>
      <trkpt lat="47.49391" lon="6.71319">
        <ele>459</ele>
        <time>2016-02-07T09:51:26.000Z</time>
      </trkpt>
      <trkpt lat="47.49392" lon="6.71325">
        <ele>459</ele>
        <time>2016-02-07T09:51:27.000Z</time>
      </trkpt>
      <trkpt lat="47.49393" lon="6.7133">
        <ele>459</ele>
        <time>2016-02-07T09:51:28.000Z</time>
      </trkpt>
      <trkpt lat="47.49394" lon="6.71335">
        <ele>458</ele>
        <time>2016-02-07T09:51:29.000Z</time>
      </trkpt>
      <trkpt lat="47.49395" lon="6.71341">
        <ele>458</ele>
        <time>2016-02-07T09:51:30.000Z</time>
      </trkpt>
      <trkpt lat="47.49398" lon="6.71346">
        <ele>458</ele>
        <time>2016-02-07T09:51:31.000Z</time>
      </trkpt>
      <trkpt lat="47.49399" lon="6.71351">
        <ele>457</ele>
        <time>2016-02-07T09:51:32.000Z</time>
      </trkpt>
      <trkpt lat="47.494" lon="6.71356">
        <ele>457</ele>
        <time>2016-02-07T09:51:33.000Z</time>
      </trkpt>
      <trkpt lat="47.49401" lon="6.7136">
        <ele>457</ele>
        <time>2016-02-07T09:51:34.000Z</time>
      </trkpt>
      <trkpt lat="47.49402" lon="6.71364">
        <ele>457</ele>
        <time>2016-02-07T09:51:35.000Z</time>
      </trkpt>
      <trkpt lat="47.49402" lon="6.71368">
        <ele>457</ele>
        <time>2016-02-07T09:51:36.000Z</time>
      </trkpt>
      <trkpt lat="47.49402" lon="6.71372">
        <ele>457</ele>
        <time>2016-02-07T09:51:37.000Z</time>
      </trkpt>
      <trkpt lat="47.49403" lon="6.71376">
        <ele>456</ele>
        <time>2016-02-07T09:51:38.000Z</time>
      </trkpt>
      <trkpt lat="47.49403" lon="6.71381">
        <ele>456</ele>
        <time>2016-02-07T09:51:39.000Z</time>
      </trkpt>
      <trkpt lat="47.49403" lon="6.71385">
        <ele>456</ele>
        <time>2016-02-07T09:51:40.000Z</time>
      </trkpt>
      <trkpt lat="47.49403" lon="6.71389">
        <ele>456</ele>
        <time>2016-02-07T09:51:41.000Z</time>
      </trkpt>
      <trkpt lat="47.49403" lon="6.71393">
        <ele>456</ele>
        <time>2016-02-07T09:51:42.000Z</time>
      </trkpt>
      <trkpt lat="47.49404" lon="6.71397">
        <ele>456</ele>
        <time>2016-02-07T09:51:43.000Z</time>
      </trkpt>
      <trkpt lat="47.49405" lon="6.71401">
        <ele>456</ele>
        <time>2016-02-07T09:51:44.000Z</time>
      </trkpt>
      <trkpt lat="47.49406" lon="6.71405">
        <ele>457</ele>
        <time>2016-02-07T09:51:45.000Z</time>
      </trkpt>
      <trkpt lat="47.49406" lon="6.71408">
        <ele>457</ele>
        <time>2016-02-07T09:51:46.000Z</time>
      </trkpt>
      <trkpt lat="47.49407" lon="6.71412">
        <ele>457</ele>
        <time>2016-02-07T09:51:47.000Z</time>
      </trkpt>
      <trkpt lat="47.49408" lon="6.71415">
        <ele>457</ele>
        <time>2016-02-07T09:51:48.000Z</time>
      </trkpt>
      <trkpt lat="47.49408" lon="6.71419">
        <ele>457</ele>
        <time>2016-02-07T09:51:49.000Z</time>
      </trkpt>
      <trkpt lat="47.49408" lon="6.71423">
        <ele>456</ele>
        <time>2016-02-07T09:51:50.000Z</time>
      </trkpt>
      <trkpt lat="47.49409" lon="6.71428">
        <ele>456</ele>
        <time>2016-02-07T09:51:51.000Z</time>
      </trkpt>
      <trkpt lat="47.49409" lon="6.71432">
        <ele>456</ele>
        <time>2016-02-07T09:51:52.000Z</time>
      </trkpt>
      <trkpt lat="47.49409" lon="6.71437">
        <ele>456</ele>
        <time>2016-02-07T09:51:53.000Z</time>
      </trkpt>
      <trkpt lat="47.4941" lon="6.71442">
        <ele>455</ele>
        <time>2016-02-07T09:51:54.000Z</time>
      </trkpt>
      <trkpt lat="47.49411" lon="6.71447">
        <ele>455</ele>
        <time>2016-02-07T09:51:55.000Z</time>
      </trkpt>
      <trkpt lat="47.49411" lon="6.71452">
        <ele>455</ele>
        <time>2016-02-07T09:51:56.000Z</time>
      </trkpt>
      <trkpt lat="47.49412" lon="6.71456">
        <ele>455</ele>
        <time>2016-02-07T09:51:57.000Z</time>
      </trkpt>
      <trkpt lat="47.49413" lon="6.7146">
        <ele>455</ele>
        <time>2016-02-07T09:51:58.000Z</time>
      </trkpt>
      <trkpt lat="47.49414" lon="6.71463">
        <ele>455</ele>
        <time>2016-02-07T09:51:59.000Z</time>
      </trkpt>
      <trkpt lat="47.49416" lon="6.71466">
        <ele>455</ele>
        <time>2016-02-07T09:52:00.000Z</time>
      </trkpt>
      <trkpt lat="47.49417" lon="6.71469">
        <ele>457</ele>
        <time>2016-02-07T09:52:01.000Z</time>
      </trkpt>
      <trkpt lat="47.49418" lon="6.71472">
        <ele>457</ele>
        <time>2016-02-07T09:52:02.000Z</time>
      </trkpt>
      <trkpt lat="47.49418" lon="6.71476">
        <ele>457</ele>
        <time>2016-02-07T09:52:03.000Z</time>
      </trkpt>
      <trkpt lat="47.49419" lon="6.71479">
        <ele>457</ele>
        <time>2016-02-07T09:52:04.000Z</time>
      </trkpt>
      <trkpt lat="47.49419" lon="6.71482">
        <ele>457</ele>
        <time>2016-02-07T09:52:05.000Z</time>
      </trkpt>
      <trkpt lat="47.49419" lon="6.71486">
        <ele>458</ele>
        <time>2016-02-07T09:52:06.000Z</time>
      </trkpt>
      <trkpt lat="47.49419" lon="6.7149">
        <ele>458</ele>
        <time>2016-02-07T09:52:07.000Z</time>
      </trkpt>
      <trkpt lat="47.49419" lon="6.71495">
        <ele>458</ele>
        <time>2016-02-07T09:52:08.000Z</time>
      </trkpt>
      <trkpt lat="47.49419" lon="6.71501">
        <ele>458</ele>
        <time>2016-02-07T09:52:09.000Z</time>
      </trkpt>
      <trkpt lat="47.49419" lon="6.71506">
        <ele>457</ele>
        <time>2016-02-07T09:52:10.000Z</time>
      </trkpt>
      <trkpt lat="47.49419" lon="6.71512">
        <ele>457</ele>
        <time>2016-02-07T09:52:11.000Z</time>
      </trkpt>
      <trkpt lat="47.49419" lon="6.71519">
        <ele>456</ele>
        <time>2016-02-07T09:52:12.000Z</time>
      </trkpt>
      <trkpt lat="47.49418" lon="6.71525">
        <ele>456</ele>
        <time>2016-02-07T09:52:13.000Z</time>
      </trkpt>
      <trkpt lat="47.49418" lon="6.71531">
        <ele>455</ele>
        <time>2016-02-07T09:52:14.000Z</time>
      </trkpt>
      <trkpt lat="47.49418" lon="6.71537">
        <ele>455</ele>
        <time>2016-02-07T09:52:15.000Z</time>
      </trkpt>
      <trkpt lat="47.49418" lon="6.71542">
        <ele>455</ele>
        <time>2016-02-07T09:52:16.000Z</time>
      </trkpt>
      <trkpt lat="47.49419" lon="6.71546">
        <ele>455</ele>
        <time>2016-02-07T09:52:17.000Z</time>
      </trkpt>
      <trkpt lat="47.4942" lon="6.71551">
        <ele>455</ele>
        <time>2016-02-07T09:52:18.000Z</time>
      </trkpt>
      <trkpt lat="47.49421" lon="6.71556">
        <ele>454</ele>
        <time>2016-02-07T09:52:19.000Z</time>
      </trkpt>
      <trkpt lat="47.49421" lon="6.71561">
        <ele>454</ele>
        <time>2016-02-07T09:52:20.000Z</time>
      </trkpt>
      <trkpt lat="47.49421" lon="6.71567">
        <ele>454</ele>
        <time>2016-02-07T09:52:21.000Z</time>
      </trkpt>
      <trkpt lat="47.49421" lon="6.71572">
        <ele>454</ele>
        <time>2016-02-07T09:52:22.000Z</time>
      </trkpt>
      <trkpt lat="47.4942" lon="6.71578">
        <ele>454</ele>
        <time>2016-02-07T09:52:23.000Z</time>
      </trkpt>
      <trkpt lat="47.4942" lon="6.71583">
        <ele>454</ele>
        <time>2016-02-07T09:52:24.000Z</time>
      </trkpt>
      <trkpt lat="47.4942" lon="6.71588">
        <ele>453</ele>
        <time>2016-02-07T09:52:25.000Z</time>
      </trkpt>
      <trkpt lat="47.4942" lon="6.71593">
        <ele>453</ele>
        <time>2016-02-07T09:52:26.000Z</time>
      </trkpt>
      <trkpt lat="47.49421" lon="6.71598">
        <ele>453</ele>
        <time>2016-02-07T09:52:27.000Z</time>
      </trkpt>
      <trkpt lat="47.49421" lon="6.71603">
        <ele>453</ele>
        <time>2016-02-07T09:52:28.000Z</time>
      </trkpt>
      <trkpt lat="47.49421" lon="6.71608">
        <ele>452</ele>
        <time>2016-02-07T09:52:29.000Z</time>
      </trkpt>
      <trkpt lat="47.49421" lon="6.71612">
        <ele>452</ele>
        <time>2016-02-07T09:52:30.000Z</time>
      </trkpt>
      <trkpt lat="47.49421" lon="6.71617">
        <ele>452</ele>
        <time>2016-02-07T09:52:31.000Z</time>
      </trkpt>
      <trkpt lat="47.49421" lon="6.71621">
        <ele>452</ele>
        <time>2016-02-07T09:52:32.000Z</time>
      </trkpt>
      <trkpt lat="47.49421" lon="6.71626">
        <ele>452</ele>
        <time>2016-02-07T09:52:33.000Z</time>
      </trkpt>
      <trkpt lat="47.49422" lon="6.71631">
        <ele>452</ele>
        <time>2016-02-07T09:52:34.000Z</time>
      </trkpt>
      <trkpt lat="47.49422" lon="6.71636">
        <ele>452</ele>
        <time>2016-02-07T09:52:35.000Z</time>
      </trkpt>
      <trkpt lat="47.49422" lon="6.71642">
        <ele>451</ele>
        <time>2016-02-07T09:52:36.000Z</time>
      </trkpt>
      <trkpt lat="47.49423" lon="6.71649">
        <ele>451</ele>
        <time>2016-02-07T09:52:37.000Z</time>
      </trkpt>
      <trkpt lat="47.49423" lon="6.71656">
        <ele>451</ele>
        <time>2016-02-07T09:52:38.000Z</time>
      </trkpt>
      <trkpt lat="47.49423" lon="6.71663">
        <ele>451</ele>
        <time>2016-02-07T09:52:39.000Z</time>
      </trkpt>
      <trkpt lat="47.49422" lon="6.7167">
        <ele>450</ele>
        <time>2016-02-07T09:52:40.000Z</time>
      </trkpt>
      <trkpt lat="47.49422" lon="6.71676">
        <ele>450</ele>
        <time>2016-02-07T09:52:41.000Z</time>
      </trkpt>
      <trkpt lat="47.49421" lon="6.71683">
        <ele>449</ele>
        <time>2016-02-07T09:52:42.000Z</time>
      </trkpt>
      <trkpt lat="47.49421" lon="6.71689">
        <ele>449</ele>
        <time>2016-02-07T09:52:43.000Z</time>
      </trkpt>
      <trkpt lat="47.49421" lon="6.71696">
        <ele>449</ele>
        <time>2016-02-07T09:52:44.000Z</time>
      </trkpt>
      <trkpt lat="47.49422" lon="6.71702">
        <ele>448</ele>
        <time>2016-02-07T09:52:45.000Z</time>
      </trkpt>
      <trkpt lat="47.49423" lon="6.71708">
        <ele>448</ele>
        <time>2016-02-07T09:52:46.000Z</time>
      </trkpt>
      <trkpt lat="47.49424" lon="6.71713">
        <ele>448</ele>
        <time>2016-02-07T09:52:47.000Z</time>
      </trkpt>
      <trkpt lat="47.49425" lon="6.71718">
        <ele>448</ele>
        <time>2016-02-07T09:52:48.000Z</time>
      </trkpt>
      <trkpt lat="47.49427" lon="6.71722">
        <ele>447</ele>
        <time>2016-02-07T09:52:49.000Z</time>
      </trkpt>
      <trkpt lat="47.49428" lon="6.71726">
        <ele>447</ele>
        <time>2016-02-07T09:52:50.000Z</time>
      </trkpt>
      <trkpt lat="47.4943" lon="6.7173">
        <ele>447</ele>
        <time>2016-02-07T09:52:51.000Z</time>
      </trkpt>
      <trkpt lat="47.49431" lon="6.71734">
        <ele>447</ele>
        <time>2016-02-07T09:52:52.000Z</time>
      </trkpt>
      <trkpt lat="47.49431" lon="6.71738">
        <ele>447</ele>
        <time>2016-02-07T09:52:53.000Z</time>
      </trkpt>
      <trkpt lat="47.49431" lon="6.71743">
        <ele>447</ele>
        <time>2016-02-07T09:52:54.000Z</time>
      </trkpt>
      <trkpt lat="47.49431" lon="6.71749">
        <ele>447</ele>
        <time>2016-02-07T09:52:55.000Z</time>
      </trkpt>
      <trkpt lat="47.49432" lon="6.71754">
        <ele>444</ele>
        <time>2016-02-07T09:52:56.000Z</time>
      </trkpt>
      <trkpt lat="47.49431" lon="6.7176">
        <ele>443</ele>
        <time>2016-02-07T09:52:57.000Z</time>
      </trkpt>
      <trkpt lat="47.49431" lon="6.71767">
        <ele>443</ele>
        <time>2016-02-07T09:52:58.000Z</time>
      </trkpt>
      <trkpt lat="47.4943" lon="6.71772">
        <ele>442</ele>
        <time>2016-02-07T09:52:59.000Z</time>
      </trkpt>
      <trkpt lat="47.49429" lon="6.71778">
        <ele>442</ele>
        <time>2016-02-07T09:53:00.000Z</time>
      </trkpt>
      <trkpt lat="47.49429" lon="6.71783">
        <ele>442</ele>
        <time>2016-02-07T09:53:01.000Z</time>
      </trkpt>
      <trkpt lat="47.49428" lon="6.71786">
        <ele>441</ele>
        <time>2016-02-07T09:53:02.000Z</time>
      </trkpt>
      <trkpt lat="47.49426" lon="6.7179">
        <ele>441</ele>
        <time>2016-02-07T09:53:03.000Z</time>
      </trkpt>
      <trkpt lat="47.49424" lon="6.71793">
        <ele>441</ele>
        <time>2016-02-07T09:53:04.000Z</time>
      </trkpt>
      <trkpt lat="47.49423" lon="6.71796">
        <ele>441</ele>
        <time>2016-02-07T09:53:05.000Z</time>
      </trkpt>
      <trkpt lat="47.49421" lon="6.718">
        <ele>440</ele>
        <time>2016-02-07T09:53:06.000Z</time>
      </trkpt>
      <trkpt lat="47.49419" lon="6.71806">
        <ele>440</ele>
        <time>2016-02-07T09:53:07.000Z</time>
      </trkpt>
      <trkpt lat="47.49418" lon="6.71811">
        <ele>440</ele>
        <time>2016-02-07T09:53:08.000Z</time>
      </trkpt>
      <trkpt lat="47.49416" lon="6.71816">
        <ele>439</ele>
        <time>2016-02-07T09:53:09.000Z</time>
      </trkpt>
      <trkpt lat="47.49414" lon="6.71822">
        <ele>438</ele>
        <time>2016-02-07T09:53:10.000Z</time>
      </trkpt>
      <trkpt lat="47.49413" lon="6.71828">
        <ele>438</ele>
        <time>2016-02-07T09:53:11.000Z</time>
      </trkpt>
      <trkpt lat="47.49411" lon="6.71833">
        <ele>438</ele>
        <time>2016-02-07T09:53:12.000Z</time>
      </trkpt>
      <trkpt lat="47.4941" lon="6.71839">
        <ele>437</ele>
        <time>2016-02-07T09:53:13.000Z</time>
      </trkpt>
      <trkpt lat="47.49409" lon="6.71845">
        <ele>437</ele>
        <time>2016-02-07T09:53:14.000Z</time>
      </trkpt>
      <trkpt lat="47.49408" lon="6.71852">
        <ele>436</ele>
        <time>2016-02-07T09:53:15.000Z</time>
      </trkpt>
      <trkpt lat="47.49407" lon="6.71856">
        <ele>436</ele>
        <time>2016-02-07T09:53:15.999Z</time>
      </trkpt>
      <trkpt lat="47.49405" lon="6.71866">
        <ele>435</ele>
        <time>2016-02-07T09:53:17.000Z</time>
      </trkpt>
      <trkpt lat="47.49403" lon="6.71873">
        <ele>435</ele>
        <time>2016-02-07T09:53:18.000Z</time>
      </trkpt>
      <trkpt lat="47.49402" lon="6.7188">
        <ele>435</ele>
        <time>2016-02-07T09:53:19.000Z</time>
      </trkpt>
      <trkpt lat="47.49401" lon="6.71886">
        <ele>435</ele>
        <time>2016-02-07T09:53:20.000Z</time>
      </trkpt>
      <trkpt lat="47.494" lon="6.71891">
        <ele>435</ele>
        <time>2016-02-07T09:53:21.000Z</time>
      </trkpt>
      <trkpt lat="47.49398" lon="6.71896">
        <ele>435</ele>
        <time>2016-02-07T09:53:22.000Z</time>
      </trkpt>
      <trkpt lat="47.49397" lon="6.71901">
        <ele>435</ele>
        <time>2016-02-07T09:53:23.000Z</time>
      </trkpt>
      <trkpt lat="47.49396" lon="6.71907">
        <ele>434</ele>
        <time>2016-02-07T09:53:24.000Z</time>
      </trkpt>
      <trkpt lat="47.49394" lon="6.71913">
        <ele>434</ele>
        <time>2016-02-07T09:53:25.000Z</time>
      </trkpt>
      <trkpt lat="47.49393" lon="6.71919">
        <ele>432</ele>
        <time>2016-02-07T09:53:26.000Z</time>
      </trkpt>
      <trkpt lat="47.49392" lon="6.71925">
        <ele>432</ele>
        <time>2016-02-07T09:53:27.000Z</time>
      </trkpt>
      <trkpt lat="47.49391" lon="6.71932">
        <ele>431</ele>
        <time>2016-02-07T09:53:28.000Z</time>
      </trkpt>
      <trkpt lat="47.4939" lon="6.71939">
        <ele>431</ele>
        <time>2016-02-07T09:53:29.000Z</time>
      </trkpt>
      <trkpt lat="47.49388" lon="6.71947">
        <ele>431</ele>
        <time>2016-02-07T09:53:30.000Z</time>
      </trkpt>
      <trkpt lat="47.49387" lon="6.71956">
        <ele>430</ele>
        <time>2016-02-07T09:53:31.000Z</time>
      </trkpt>
      <trkpt lat="47.49385" lon="6.71964">
        <ele>430</ele>
        <time>2016-02-07T09:53:32.000Z</time>
      </trkpt>
      <trkpt lat="47.49384" lon="6.71972">
        <ele>430</ele>
        <time>2016-02-07T09:53:33.000Z</time>
      </trkpt>
      <trkpt lat="47.49383" lon="6.71979">
        <ele>429</ele>
        <time>2016-02-07T09:53:34.000Z</time>
      </trkpt>
      <trkpt lat="47.49382" lon="6.71986">
        <ele>429</ele>
        <time>2016-02-07T09:53:35.000Z</time>
      </trkpt>
      <trkpt lat="47.49381" lon="6.71993">
        <ele>429</ele>
        <time>2016-02-07T09:53:36.000Z</time>
      </trkpt>
      <trkpt lat="47.4938" lon="6.72001">
        <ele>426</ele>
        <time>2016-02-07T09:53:37.000Z</time>
      </trkpt>
      <trkpt lat="47.49379" lon="6.7201">
        <ele>426</ele>
        <time>2016-02-07T09:53:38.000Z</time>
      </trkpt>
      <trkpt lat="47.49377" lon="6.72019">
        <ele>426</ele>
        <time>2016-02-07T09:53:39.000Z</time>
      </trkpt>
      <trkpt lat="47.49376" lon="6.72029">
        <ele>426</ele>
        <time>2016-02-07T09:53:40.000Z</time>
      </trkpt>
      <trkpt lat="47.49374" lon="6.72037">
        <ele>426</ele>
        <time>2016-02-07T09:53:41.000Z</time>
      </trkpt>
      <trkpt lat="47.49373" lon="6.72044">
        <ele>426</ele>
        <time>2016-02-07T09:53:42.000Z</time>
      </trkpt>
      <trkpt lat="47.49373" lon="6.7205">
        <ele>426</ele>
        <time>2016-02-07T09:53:43.000Z</time>
      </trkpt>
      <trkpt lat="47.49373" lon="6.72056">
        <ele>426</ele>
        <time>2016-02-07T09:53:44.000Z</time>
      </trkpt>
      <trkpt lat="47.49373" lon="6.72062">
        <ele>425</ele>
        <time>2016-02-07T09:53:45.000Z</time>
      </trkpt>
      <trkpt lat="47.49372" lon="6.72069">
        <ele>425</ele>
        <time>2016-02-07T09:53:46.000Z</time>
      </trkpt>
      <trkpt lat="47.49371" lon="6.72076">
        <ele>425</ele>
        <time>2016-02-07T09:53:47.000Z</time>
      </trkpt>
      <trkpt lat="47.4937" lon="6.72083">
        <ele>425</ele>
        <time>2016-02-07T09:53:48.000Z</time>
      </trkpt>
      <trkpt lat="47.4937" lon="6.7209">
        <ele>423</ele>
        <time>2016-02-07T09:53:49.000Z</time>
      </trkpt>
      <trkpt lat="47.49369" lon="6.72096">
        <ele>423</ele>
        <time>2016-02-07T09:53:50.000Z</time>
      </trkpt>
      <trkpt lat="47.49369" lon="6.72103">
        <ele>423</ele>
        <time>2016-02-07T09:53:51.000Z</time>
      </trkpt>
      <trkpt lat="47.49368" lon="6.72109">
        <ele>423</ele>
        <time>2016-02-07T09:53:52.000Z</time>
      </trkpt>
      <trkpt lat="47.49368" lon="6.72116">
        <ele>423</ele>
        <time>2016-02-07T09:53:53.000Z</time>
      </trkpt>
      <trkpt lat="47.49367" lon="6.72123">
        <ele>423</ele>
        <time>2016-02-07T09:53:54.000Z</time>
      </trkpt>
      <trkpt lat="47.49367" lon="6.72129">
        <ele>423</ele>
        <time>2016-02-07T09:53:55.000Z</time>
      </trkpt>
      <trkpt lat="47.49367" lon="6.72135">
        <ele>423</ele>
        <time>2016-02-07T09:53:56.000Z</time>
      </trkpt>
      <trkpt lat="47.49366" lon="6.72141">
        <ele>423</ele>
        <time>2016-02-07T09:53:57.000Z</time>
      </trkpt>
      <trkpt lat="47.49366" lon="6.72147">
        <ele>422</ele>
        <time>2016-02-07T09:53:58.000Z</time>
      </trkpt>
      <trkpt lat="47.49365" lon="6.72153">
        <ele>422</ele>
        <time>2016-02-07T09:53:59.000Z</time>
      </trkpt>
      <trkpt lat="47.49364" lon="6.72159">
        <ele>422</ele>
        <time>2016-02-07T09:54:00.000Z</time>
      </trkpt>
      <trkpt lat="47.49363" lon="6.72166">
        <ele>422</ele>
        <time>2016-02-07T09:54:01.000Z</time>
      </trkpt>
      <trkpt lat="47.49362" lon="6.72173">
        <ele>420</ele>
        <time>2016-02-07T09:54:02.000Z</time>
      </trkpt>
      <trkpt lat="47.49361" lon="6.72181">
        <ele>420</ele>
        <time>2016-02-07T09:54:03.000Z</time>
      </trkpt>
      <trkpt lat="47.4936" lon="6.7219">
        <ele>420</ele>
        <time>2016-02-07T09:54:04.000Z</time>
      </trkpt>
      <trkpt lat="47.49359" lon="6.72199">
        <ele>420</ele>
        <time>2016-02-07T09:54:05.000Z</time>
      </trkpt>
      <trkpt lat="47.49358" lon="6.72207">
        <ele>419</ele>
        <time>2016-02-07T09:54:06.000Z</time>
      </trkpt>
      <trkpt lat="47.49356" lon="6.72216">
        <ele>419</ele>
        <time>2016-02-07T09:54:07.000Z</time>
      </trkpt>
      <trkpt lat="47.4935" lon="6.72244">
        <ele>419</ele>
        <time>2016-02-07T09:54:08.000Z</time>
      </trkpt>
      <trkpt lat="47.49348" lon="6.72256">
        <ele>417</ele>
        <time>2016-02-07T09:54:09.000Z</time>
      </trkpt>
      <trkpt lat="47.49345" lon="6.72264">
        <ele>417</ele>
        <time>2016-02-07T09:54:10.000Z</time>
      </trkpt>
      <trkpt lat="47.49343" lon="6.72273">
        <ele>416</ele>
        <time>2016-02-07T09:54:11.000Z</time>
      </trkpt>
      <trkpt lat="47.49342" lon="6.72282">
        <ele>416</ele>
        <time>2016-02-07T09:54:12.000Z</time>
      </trkpt>
      <trkpt lat="47.49342" lon="6.72291">
        <ele>415</ele>
        <time>2016-02-07T09:54:13.000Z</time>
      </trkpt>
      <trkpt lat="47.49346" lon="6.723">
        <ele>415</ele>
        <time>2016-02-07T09:54:14.000Z</time>
      </trkpt>
      <trkpt lat="47.49347" lon="6.72308">
        <ele>415</ele>
        <time>2016-02-07T09:54:15.000Z</time>
      </trkpt>
      <trkpt lat="47.49346" lon="6.72316">
        <ele>415</ele>
        <time>2016-02-07T09:54:16.000Z</time>
      </trkpt>
      <trkpt lat="47.49347" lon="6.72325">
        <ele>414</ele>
        <time>2016-02-07T09:54:17.000Z</time>
      </trkpt>
      <trkpt lat="47.49346" lon="6.72331">
        <ele>414</ele>
        <time>2016-02-07T09:54:18.000Z</time>
      </trkpt>
      <trkpt lat="47.49348" lon="6.72339">
        <ele>412</ele>
        <time>2016-02-07T09:54:19.000Z</time>
      </trkpt>
      <trkpt lat="47.49348" lon="6.72345">
        <ele>412</ele>
        <time>2016-02-07T09:54:20.000Z</time>
      </trkpt>
      <trkpt lat="47.49343" lon="6.72351">
        <ele>412</ele>
        <time>2016-02-07T09:54:21.000Z</time>
      </trkpt>
      <trkpt lat="47.49342" lon="6.72357">
        <ele>412</ele>
        <time>2016-02-07T09:54:22.000Z</time>
      </trkpt>
      <trkpt lat="47.49341" lon="6.72361">
        <ele>412</ele>
        <time>2016-02-07T09:54:23.000Z</time>
      </trkpt>
      <trkpt lat="47.4934" lon="6.72365">
        <ele>412</ele>
        <time>2016-02-07T09:54:24.000Z</time>
      </trkpt>
      <trkpt lat="47.49339" lon="6.7237">
        <ele>412</ele>
        <time>2016-02-07T09:54:25.000Z</time>
      </trkpt>
      <trkpt lat="47.49338" lon="6.72375">
        <ele>411</ele>
        <time>2016-02-07T09:54:26.000Z</time>
      </trkpt>
      <trkpt lat="47.49337" lon="6.7238">
        <ele>411</ele>
        <time>2016-02-07T09:54:27.000Z</time>
      </trkpt>
      <trkpt lat="47.49336" lon="6.72385">
        <ele>411</ele>
        <time>2016-02-07T09:54:28.000Z</time>
      </trkpt>
      <trkpt lat="47.49336" lon="6.7239">
        <ele>411</ele>
        <time>2016-02-07T09:54:29.000Z</time>
      </trkpt>
      <trkpt lat="47.49335" lon="6.72395">
        <ele>411</ele>
        <time>2016-02-07T09:54:30.000Z</time>
      </trkpt>
      <trkpt lat="47.49335" lon="6.724">
        <ele>411</ele>
        <time>2016-02-07T09:54:31.000Z</time>
      </trkpt>
      <trkpt lat="47.49336" lon="6.72406">
        <ele>411</ele>
        <time>2016-02-07T09:54:32.000Z</time>
      </trkpt>
      <trkpt lat="47.49336" lon="6.72411">
        <ele>412</ele>
        <time>2016-02-07T09:54:33.000Z</time>
      </trkpt>
      <trkpt lat="47.49337" lon="6.72417">
        <ele>411</ele>
        <time>2016-02-07T09:54:34.000Z</time>
      </trkpt>
      <trkpt lat="47.49338" lon="6.72423">
        <ele>411</ele>
        <time>2016-02-07T09:54:35.000Z</time>
      </trkpt>
      <trkpt lat="47.49339" lon="6.72429">
        <ele>410</ele>
        <time>2016-02-07T09:54:36.000Z</time>
      </trkpt>
      <trkpt lat="47.4934" lon="6.72435">
        <ele>409</ele>
        <time>2016-02-07T09:54:37.000Z</time>
      </trkpt>
      <trkpt lat="47.4934" lon="6.72441">
        <ele>409</ele>
        <time>2016-02-07T09:54:38.000Z</time>
      </trkpt>
      <trkpt lat="47.4934" lon="6.72444">
        <ele>409</ele>
        <time>2016-02-07T09:54:39.000Z</time>
      </trkpt>
      <trkpt lat="47.49339" lon="6.72449">
        <ele>408</ele>
        <time>2016-02-07T09:54:48.000Z</time>
      </trkpt>
      <trkpt lat="47.49339" lon="6.72451">
        <ele>408</ele>
        <time>2016-02-07T09:54:49.000Z</time>
      </trkpt>
      <trkpt lat="47.49338" lon="6.72456">
        <ele>408</ele>
        <time>2016-02-07T09:54:53.000Z</time>
      </trkpt>
      <trkpt lat="47.49337" lon="6.72458">
        <ele>408</ele>
        <time>2016-02-07T09:54:54.000Z</time>
      </trkpt>
      <trkpt lat="47.49337" lon="6.7246">
        <ele>408</ele>
        <time>2016-02-07T09:54:55.000Z</time>
      </trkpt>
      <trkpt lat="47.49336" lon="6.72464">
        <ele>408</ele>
        <time>2016-02-07T09:54:56.000Z</time>
      </trkpt>
      <trkpt lat="47.49335" lon="6.72469">
        <ele>408</ele>
        <time>2016-02-07T09:54:57.000Z</time>
      </trkpt>
      <trkpt lat="47.49333" lon="6.72474">
        <ele>408</ele>
        <time>2016-02-07T09:54:58.000Z</time>
      </trkpt>
      <trkpt lat="47.49332" lon="6.72479">
        <ele>409</ele>
        <time>2016-02-07T09:54:59.000Z</time>
      </trkpt>
      <trkpt lat="47.49331" lon="6.72485">
        <ele>409</ele>
        <time>2016-02-07T09:55:00.000Z</time>
      </trkpt>
      <trkpt lat="47.49331" lon="6.7249">
        <ele>409</ele>
        <time>2016-02-07T09:55:01.000Z</time>
      </trkpt>
      <trkpt lat="47.49331" lon="6.72496">
        <ele>409</ele>
        <time>2016-02-07T09:55:02.000Z</time>
      </trkpt>
      <trkpt lat="47.49332" lon="6.72502">
        <ele>409</ele>
        <time>2016-02-07T09:55:03.000Z</time>
      </trkpt>
      <trkpt lat="47.49332" lon="6.72508">
        <ele>408</ele>
        <time>2016-02-07T09:55:04.000Z</time>
      </trkpt>
      <trkpt lat="47.49332" lon="6.72514">
        <ele>407</ele>
        <time>2016-02-07T09:55:05.000Z</time>
      </trkpt>
      <trkpt lat="47.49332" lon="6.7252">
        <ele>407</ele>
        <time>2016-02-07T09:55:06.000Z</time>
      </trkpt>
      <trkpt lat="47.49331" lon="6.72526">
        <ele>407</ele>
        <time>2016-02-07T09:55:07.000Z</time>
      </trkpt>
      <trkpt lat="47.49331" lon="6.72533">
        <ele>406</ele>
        <time>2016-02-07T09:55:08.000Z</time>
      </trkpt>
      <trkpt lat="47.4933" lon="6.72539">
        <ele>406</ele>
        <time>2016-02-07T09:55:09.000Z</time>
      </trkpt>
      <trkpt lat="47.4933" lon="6.72545">
        <ele>406</ele>
        <time>2016-02-07T09:55:10.000Z</time>
      </trkpt>
      <trkpt lat="47.49329" lon="6.72552">
        <ele>406</ele>
        <time>2016-02-07T09:55:11.000Z</time>
      </trkpt>
      <trkpt lat="47.49329" lon="6.72558">
        <ele>406</ele>
        <time>2016-02-07T09:55:12.000Z</time>
      </trkpt>
      <trkpt lat="47.49328" lon="6.72564">
        <ele>406</ele>
        <time>2016-02-07T09:55:13.000Z</time>
      </trkpt>
      <trkpt lat="47.49327" lon="6.7257">
        <ele>406</ele>
        <time>2016-02-07T09:55:14.000Z</time>
      </trkpt>
      <trkpt lat="47.49326" lon="6.72576">
        <ele>406</ele>
        <time>2016-02-07T09:55:15.000Z</time>
      </trkpt>
      <trkpt lat="47.49324" lon="6.72582">
        <ele>406</ele>
        <time>2016-02-07T09:55:16.000Z</time>
      </trkpt>
      <trkpt lat="47.49323" lon="6.72588">
        <ele>404</ele>
        <time>2016-02-07T09:55:17.000Z</time>
      </trkpt>
      <trkpt lat="47.49322" lon="6.72594">
        <ele>404</ele>
        <time>2016-02-07T09:55:18.000Z</time>
      </trkpt>
      <trkpt lat="47.49321" lon="6.726">
        <ele>403</ele>
        <time>2016-02-07T09:55:19.000Z</time>
      </trkpt>
      <trkpt lat="47.49321" lon="6.72607">
        <ele>403</ele>
        <time>2016-02-07T09:55:20.000Z</time>
      </trkpt>
      <trkpt lat="47.49321" lon="6.72623">
        <ele>402</ele>
        <time>2016-02-07T09:55:21.000Z</time>
      </trkpt>
      <trkpt lat="47.49321" lon="6.7263">
        <ele>402</ele>
        <time>2016-02-07T09:55:22.000Z</time>
      </trkpt>
      <trkpt lat="47.49321" lon="6.72638">
        <ele>402</ele>
        <time>2016-02-07T09:55:23.000Z</time>
      </trkpt>
      <trkpt lat="47.49322" lon="6.72643">
        <ele>402</ele>
        <time>2016-02-07T09:55:24.000Z</time>
      </trkpt>
      <trkpt lat="47.49321" lon="6.72649">
        <ele>402</ele>
        <time>2016-02-07T09:55:25.000Z</time>
      </trkpt>
      <trkpt lat="47.49321" lon="6.72657">
        <ele>403</ele>
        <time>2016-02-07T09:55:26.000Z</time>
      </trkpt>
      <trkpt lat="47.4932" lon="6.72664">
        <ele>403</ele>
        <time>2016-02-07T09:55:27.000Z</time>
      </trkpt>
      <trkpt lat="47.49321" lon="6.72671">
        <ele>402</ele>
        <time>2016-02-07T09:55:28.000Z</time>
      </trkpt>
      <trkpt lat="47.49321" lon="6.7268">
        <ele>401</ele>
        <time>2016-02-07T09:55:29.000Z</time>
      </trkpt>
      <trkpt lat="47.4932" lon="6.7269">
        <ele>401</ele>
        <time>2016-02-07T09:55:30.000Z</time>
      </trkpt>
      <trkpt lat="47.49318" lon="6.72699">
        <ele>400</ele>
        <time>2016-02-07T09:55:31.000Z</time>
      </trkpt>
      <trkpt lat="47.49316" lon="6.72708">
        <ele>400</ele>
        <time>2016-02-07T09:55:32.000Z</time>
      </trkpt>
      <trkpt lat="47.49313" lon="6.72716">
        <ele>400</ele>
        <time>2016-02-07T09:55:33.000Z</time>
      </trkpt>
      <trkpt lat="47.49313" lon="6.72725">
        <ele>399</ele>
        <time>2016-02-07T09:55:34.000Z</time>
      </trkpt>
      <trkpt lat="47.49312" lon="6.72735">
        <ele>399</ele>
        <time>2016-02-07T09:55:35.000Z</time>
      </trkpt>
      <trkpt lat="47.49312" lon="6.72741">
        <ele>399</ele>
        <time>2016-02-07T09:55:36.000Z</time>
      </trkpt>
      <trkpt lat="47.49311" lon="6.72746">
        <ele>399</ele>
        <time>2016-02-07T09:55:37.000Z</time>
      </trkpt>
      <trkpt lat="47.49309" lon="6.72751">
        <ele>398</ele>
        <time>2016-02-07T09:55:38.000Z</time>
      </trkpt>
      <trkpt lat="47.49306" lon="6.72753">
        <ele>398</ele>
        <time>2016-02-07T09:55:39.000Z</time>
      </trkpt>
      <trkpt lat="47.49303" lon="6.72757">
        <ele>398</ele>
        <time>2016-02-07T09:55:40.000Z</time>
      </trkpt>
      <trkpt lat="47.49301" lon="6.72764">
        <ele>398</ele>
        <time>2016-02-07T09:55:41.000Z</time>
      </trkpt>
      <trkpt lat="47.49299" lon="6.72768">
        <ele>398</ele>
        <time>2016-02-07T09:55:42.000Z</time>
      </trkpt>
      <trkpt lat="47.49297" lon="6.72774">
        <ele>398</ele>
        <time>2016-02-07T09:55:43.000Z</time>
      </trkpt>
      <trkpt lat="47.49294" lon="6.72778">
        <ele>398</ele>
        <time>2016-02-07T09:55:44.000Z</time>
      </trkpt>
      <trkpt lat="47.49292" lon="6.72783">
        <ele>398</ele>
        <time>2016-02-07T09:55:45.000Z</time>
      </trkpt>
      <trkpt lat="47.49289" lon="6.72788">
        <ele>398</ele>
        <time>2016-02-07T09:55:46.000Z</time>
      </trkpt>
      <trkpt lat="47.49286" lon="6.72793">
        <ele>398</ele>
        <time>2016-02-07T09:55:47.000Z</time>
      </trkpt>
      <trkpt lat="47.49283" lon="6.72796">
        <ele>398</ele>
        <time>2016-02-07T09:55:48.000Z</time>
      </trkpt>
      <trkpt lat="47.4928" lon="6.728">
        <ele>398</ele>
        <time>2016-02-07T09:55:49.000Z</time>
      </trkpt>
      <trkpt lat="47.49276" lon="6.72803">
        <ele>398</ele>
        <time>2016-02-07T09:55:50.000Z</time>
      </trkpt>
      <trkpt lat="47.49271" lon="6.72805">
        <ele>398</ele>
        <time>2016-02-07T09:55:51.000Z</time>
      </trkpt>
      <trkpt lat="47.49265" lon="6.72808">
        <ele>398</ele>
        <time>2016-02-07T09:55:52.000Z</time>
      </trkpt>
      <trkpt lat="47.49261" lon="6.72812">
        <ele>398</ele>
        <time>2016-02-07T09:55:53.000Z</time>
      </trkpt>
      <trkpt lat="47.49256" lon="6.72816">
        <ele>398</ele>
        <time>2016-02-07T09:55:54.000Z</time>
      </trkpt>
      <trkpt lat="47.49253" lon="6.7282">
        <ele>398</ele>
        <time>2016-02-07T09:55:55.000Z</time>
      </trkpt>
      <trkpt lat="47.4925" lon="6.72825">
        <ele>397</ele>
        <time>2016-02-07T09:55:56.000Z</time>
      </trkpt>
      <trkpt lat="47.49247" lon="6.7283">
        <ele>398</ele>
        <time>2016-02-07T09:55:57.000Z</time>
      </trkpt>
      <trkpt lat="47.49245" lon="6.72835">
        <ele>398</ele>
        <time>2016-02-07T09:55:58.000Z</time>
      </trkpt>
      <trkpt lat="47.49242" lon="6.72841">
        <ele>397</ele>
        <time>2016-02-07T09:55:59.000Z</time>
      </trkpt>
      <trkpt lat="47.49236" lon="6.7287">
        <ele>396</ele>
        <time>2016-02-07T09:56:00.000Z</time>
      </trkpt>
      <trkpt lat="47.49233" lon="6.72875">
        <ele>396</ele>
        <time>2016-02-07T09:56:01.000Z</time>
      </trkpt>
      <trkpt lat="47.4923" lon="6.7288">
        <ele>396</ele>
        <time>2016-02-07T09:56:02.000Z</time>
      </trkpt>
      <trkpt lat="47.49228" lon="6.72885">
        <ele>396</ele>
        <time>2016-02-07T09:56:03.000Z</time>
      </trkpt>
      <trkpt lat="47.49225" lon="6.7289">
        <ele>396</ele>
        <time>2016-02-07T09:56:04.000Z</time>
      </trkpt>
      <trkpt lat="47.49223" lon="6.72895">
        <ele>396</ele>
        <time>2016-02-07T09:56:05.000Z</time>
      </trkpt>
      <trkpt lat="47.49222" lon="6.72899">
        <ele>396</ele>
        <time>2016-02-07T09:56:06.000Z</time>
      </trkpt>
      <trkpt lat="47.4922" lon="6.72903">
        <ele>396</ele>
        <time>2016-02-07T09:56:07.000Z</time>
      </trkpt>
      <trkpt lat="47.49219" lon="6.72906">
        <ele>396</ele>
        <time>2016-02-07T09:56:08.000Z</time>
      </trkpt>
      <trkpt lat="47.49218" lon="6.72909">
        <ele>396</ele>
        <time>2016-02-07T09:56:09.000Z</time>
      </trkpt>
      <trkpt lat="47.49216" lon="6.72912">
        <ele>396</ele>
        <time>2016-02-07T09:56:10.000Z</time>
      </trkpt>
      <trkpt lat="47.49214" lon="6.72916">
        <ele>395</ele>
        <time>2016-02-07T09:56:11.000Z</time>
      </trkpt>
      <trkpt lat="47.49211" lon="6.72919">
        <ele>396</ele>
        <time>2016-02-07T09:56:12.000Z</time>
      </trkpt>
      <trkpt lat="47.49209" lon="6.72921">
        <ele>395</ele>
        <time>2016-02-07T09:56:13.000Z</time>
      </trkpt>
      <trkpt lat="47.49207" lon="6.72925">
        <ele>395</ele>
        <time>2016-02-07T09:56:14.000Z</time>
      </trkpt>
      <trkpt lat="47.49206" lon="6.72928">
        <ele>395</ele>
        <time>2016-02-07T09:56:15.000Z</time>
      </trkpt>
      <trkpt lat="47.49205" lon="6.72931">
        <ele>395</ele>
        <time>2016-02-07T09:56:16.000Z</time>
      </trkpt>
      <trkpt lat="47.49205" lon="6.72936">
        <ele>395</ele>
        <time>2016-02-07T09:56:18.000Z</time>
      </trkpt>
      <trkpt lat="47.49205" lon="6.72938">
        <ele>395</ele>
        <time>2016-02-07T09:56:19.000Z</time>
      </trkpt>
      <trkpt lat="47.49202" lon="6.72943">
        <ele>395</ele>
        <time>2016-02-07T09:56:58.000Z</time>
      </trkpt>
      <trkpt lat="47.49202" lon="6.72945">
        <ele>395</ele>
        <time>2016-02-07T09:56:59.000Z</time>
      </trkpt>
      <trkpt lat="47.49201" lon="6.7295">
        <ele>395</ele>
        <time>2016-02-07T09:57:02.000Z</time>
      </trkpt>
      <trkpt lat="47.49201" lon="6.72953">
        <ele>395</ele>
        <time>2016-02-07T09:57:03.000Z</time>
      </trkpt>
      <trkpt lat="47.492" lon="6.72957">
        <ele>395</ele>
        <time>2016-02-07T09:57:04.000Z</time>
      </trkpt>
      <trkpt lat="47.49198" lon="6.72962">
        <ele>395</ele>
        <time>2016-02-07T09:57:05.000Z</time>
      </trkpt>
      <trkpt lat="47.49197" lon="6.72967">
        <ele>395</ele>
        <time>2016-02-07T09:57:06.000Z</time>
      </trkpt>
      <trkpt lat="47.49196" lon="6.72973">
        <ele>395</ele>
        <time>2016-02-07T09:57:07.000Z</time>
      </trkpt>
      <trkpt lat="47.49195" lon="6.72978">
        <ele>394</ele>
        <time>2016-02-07T09:57:08.000Z</time>
      </trkpt>
      <trkpt lat="47.49195" lon="6.72982">
        <ele>394</ele>
        <time>2016-02-07T09:57:09.000Z</time>
      </trkpt>
      <trkpt lat="47.49195" lon="6.72986">
        <ele>394</ele>
        <time>2016-02-07T09:57:10.000Z</time>
      </trkpt>
      <trkpt lat="47.49195" lon="6.7299">
        <ele>394</ele>
        <time>2016-02-07T09:57:11.000Z</time>
      </trkpt>
      <trkpt lat="47.49195" lon="6.72995">
        <ele>394</ele>
        <time>2016-02-07T09:57:12.000Z</time>
      </trkpt>
      <trkpt lat="47.49195" lon="6.72999">
        <ele>394</ele>
        <time>2016-02-07T09:57:13.000Z</time>
      </trkpt>
      <trkpt lat="47.49195" lon="6.73004">
        <ele>394</ele>
        <time>2016-02-07T09:57:14.000Z</time>
      </trkpt>
      <trkpt lat="47.49195" lon="6.73008">
        <ele>394</ele>
        <time>2016-02-07T09:57:15.000Z</time>
      </trkpt>
      <trkpt lat="47.49195" lon="6.73012">
        <ele>394</ele>
        <time>2016-02-07T09:57:16.000Z</time>
      </trkpt>
      <trkpt lat="47.49195" lon="6.73017">
        <ele>394</ele>
        <time>2016-02-07T09:57:17.000Z</time>
      </trkpt>
      <trkpt lat="47.49193" lon="6.73023">
        <ele>394</ele>
        <time>2016-02-07T09:57:18.000Z</time>
      </trkpt>
      <trkpt lat="47.49191" lon="6.73031">
        <ele>395</ele>
        <time>2016-02-07T09:57:19.000Z</time>
      </trkpt>
      <trkpt lat="47.49189" lon="6.73038">
        <ele>395</ele>
        <time>2016-02-07T09:57:20.000Z</time>
      </trkpt>
      <trkpt lat="47.49187" lon="6.73045">
        <ele>395</ele>
        <time>2016-02-07T09:57:21.000Z</time>
      </trkpt>
      <trkpt lat="47.49185" lon="6.73052">
        <ele>395</ele>
        <time>2016-02-07T09:57:22.000Z</time>
      </trkpt>
      <trkpt lat="47.49183" lon="6.73059">
        <ele>395</ele>
        <time>2016-02-07T09:57:23.000Z</time>
      </trkpt>
      <trkpt lat="47.49181" lon="6.73065">
        <ele>395</ele>
        <time>2016-02-07T09:57:24.000Z</time>
      </trkpt>
      <trkpt lat="47.4918" lon="6.73071">
        <ele>395</ele>
        <time>2016-02-07T09:57:25.000Z</time>
      </trkpt>
      <trkpt lat="47.49178" lon="6.73078">
        <ele>394</ele>
        <time>2016-02-07T09:57:26.000Z</time>
      </trkpt>
      <trkpt lat="47.49178" lon="6.73089">
        <ele>395</ele>
        <time>2016-02-07T09:57:27.000Z</time>
      </trkpt>
      <trkpt lat="47.49177" lon="6.73095">
        <ele>395</ele>
        <time>2016-02-07T09:57:28.000Z</time>
      </trkpt>
      <trkpt lat="47.49177" lon="6.73102">
        <ele>395</ele>
        <time>2016-02-07T09:57:29.000Z</time>
      </trkpt>
      <trkpt lat="47.49176" lon="6.73108">
        <ele>395</ele>
        <time>2016-02-07T09:57:30.000Z</time>
      </trkpt>
      <trkpt lat="47.49175" lon="6.73115">
        <ele>396</ele>
        <time>2016-02-07T09:57:31.000Z</time>
      </trkpt>
      <trkpt lat="47.49175" lon="6.73121">
        <ele>396</ele>
        <time>2016-02-07T09:57:32.000Z</time>
      </trkpt>
      <trkpt lat="47.49173" lon="6.7313">
        <ele>396</ele>
        <time>2016-02-07T09:57:33.000Z</time>
      </trkpt>
      <trkpt lat="47.49171" lon="6.73137">
        <ele>396</ele>
        <time>2016-02-07T09:57:34.000Z</time>
      </trkpt>
      <trkpt lat="47.49172" lon="6.73145">
        <ele>397</ele>
        <time>2016-02-07T09:57:35.000Z</time>
      </trkpt>
      <trkpt lat="47.4917" lon="6.73152">
        <ele>397</ele>
        <time>2016-02-07T09:57:36.000Z</time>
      </trkpt>
      <trkpt lat="47.49169" lon="6.73157">
        <ele>397</ele>
        <time>2016-02-07T09:57:37.000Z</time>
      </trkpt>
      <trkpt lat="47.49165" lon="6.73164">
        <ele>397</ele>
        <time>2016-02-07T09:57:38.000Z</time>
      </trkpt>
      <trkpt lat="47.49162" lon="6.7317">
        <ele>397</ele>
        <time>2016-02-07T09:57:39.000Z</time>
      </trkpt>
      <trkpt lat="47.49157" lon="6.73175">
        <ele>395</ele>
        <time>2016-02-07T09:57:40.000Z</time>
      </trkpt>
      <trkpt lat="47.49154" lon="6.73181">
        <ele>394</ele>
        <time>2016-02-07T09:57:41.000Z</time>
      </trkpt>
      <trkpt lat="47.49149" lon="6.73188">
        <ele>394</ele>
        <time>2016-02-07T09:57:42.000Z</time>
      </trkpt>
      <trkpt lat="47.49145" lon="6.73203">
        <ele>393</ele>
        <time>2016-02-07T09:57:43.000Z</time>
      </trkpt>
      <trkpt lat="47.49139" lon="6.7321">
        <ele>392</ele>
        <time>2016-02-07T09:57:44.000Z</time>
      </trkpt>
      <trkpt lat="47.49136" lon="6.73216">
        <ele>392</ele>
        <time>2016-02-07T09:57:45.000Z</time>
      </trkpt>
      <trkpt lat="47.49132" lon="6.73222">
        <ele>392</ele>
        <time>2016-02-07T09:57:46.000Z</time>
      </trkpt>
      <trkpt lat="47.4913" lon="6.73228">
        <ele>392</ele>
        <time>2016-02-07T09:57:47.000Z</time>
      </trkpt>
      <trkpt lat="47.49126" lon="6.73233">
        <ele>391</ele>
        <time>2016-02-07T09:57:48.000Z</time>
      </trkpt>
      <trkpt lat="47.49123" lon="6.73239">
        <ele>391</ele>
        <time>2016-02-07T09:57:49.000Z</time>
      </trkpt>
      <trkpt lat="47.49119" lon="6.73248">
        <ele>391</ele>
        <time>2016-02-07T09:57:50.000Z</time>
      </trkpt>
      <trkpt lat="47.49115" lon="6.73254">
        <ele>389</ele>
        <time>2016-02-07T09:57:51.000Z</time>
      </trkpt>
      <trkpt lat="47.49113" lon="6.73263">
        <ele>389</ele>
        <time>2016-02-07T09:57:52.000Z</time>
      </trkpt>
      <trkpt lat="47.49109" lon="6.7327">
        <ele>389</ele>
        <time>2016-02-07T09:57:53.000Z</time>
      </trkpt>
      <trkpt lat="47.4911" lon="6.7328">
        <ele>389</ele>
        <time>2016-02-07T09:57:54.000Z</time>
      </trkpt>
      <trkpt lat="47.49107" lon="6.73292">
        <ele>389</ele>
        <time>2016-02-07T09:57:55.000Z</time>
      </trkpt>
      <trkpt lat="47.49106" lon="6.73302">
        <ele>389</ele>
        <time>2016-02-07T09:57:56.000Z</time>
      </trkpt>
      <trkpt lat="47.49106" lon="6.73312">
        <ele>389</ele>
        <time>2016-02-07T09:57:57.000Z</time>
      </trkpt>
      <trkpt lat="47.49103" lon="6.73319">
        <ele>388</ele>
        <time>2016-02-07T09:57:58.000Z</time>
      </trkpt>
      <trkpt lat="47.491" lon="6.73326">
        <ele>388</ele>
        <time>2016-02-07T09:57:59.000Z</time>
      </trkpt>
      <trkpt lat="47.49098" lon="6.73333">
        <ele>388</ele>
        <time>2016-02-07T09:58:00.000Z</time>
      </trkpt>
      <trkpt lat="47.49096" lon="6.7334">
        <ele>387</ele>
        <time>2016-02-07T09:58:01.000Z</time>
      </trkpt>
      <trkpt lat="47.49103" lon="6.73345">
        <ele>387</ele>
        <time>2016-02-07T09:58:02.000Z</time>
      </trkpt>
      <trkpt lat="47.49108" lon="6.7335">
        <ele>387</ele>
        <time>2016-02-07T09:58:03.000Z</time>
      </trkpt>
      <trkpt lat="47.49109" lon="6.73354">
        <ele>387</ele>
        <time>2016-02-07T09:58:04.000Z</time>
      </trkpt>
      <trkpt lat="47.49112" lon="6.73357">
        <ele>387</ele>
        <time>2016-02-07T09:58:05.000Z</time>
      </trkpt>
      <trkpt lat="47.49115" lon="6.73359">
        <ele>387</ele>
        <time>2016-02-07T09:58:06.000Z</time>
      </trkpt>
      <trkpt lat="47.49123" lon="6.73358">
        <ele>387</ele>
        <time>2016-02-07T09:58:07.000Z</time>
      </trkpt>
      <trkpt lat="47.49129" lon="6.73362">
        <ele>387</ele>
        <time>2016-02-07T09:58:08.000Z</time>
      </trkpt>
      <trkpt lat="47.49133" lon="6.73362">
        <ele>387</ele>
        <time>2016-02-07T09:58:09.000Z</time>
      </trkpt>
      <trkpt lat="47.49138" lon="6.73365">
        <ele>386</ele>
        <time>2016-02-07T09:58:10.000Z</time>
      </trkpt>
      <trkpt lat="47.49142" lon="6.73368">
        <ele>386</ele>
        <time>2016-02-07T09:58:11.000Z</time>
      </trkpt>
      <trkpt lat="47.49145" lon="6.73371">
        <ele>386</ele>
        <time>2016-02-07T09:58:12.000Z</time>
      </trkpt>
      <trkpt lat="47.49148" lon="6.73374">
        <ele>386</ele>
        <time>2016-02-07T09:58:13.000Z</time>
      </trkpt>
      <trkpt lat="47.49151" lon="6.73378">
        <ele>386</ele>
        <time>2016-02-07T09:58:14.000Z</time>
      </trkpt>
      <trkpt lat="47.49154" lon="6.73383">
        <ele>386</ele>
        <time>2016-02-07T09:58:15.000Z</time>
      </trkpt>
      <trkpt lat="47.49156" lon="6.73387">
        <ele>386</ele>
        <time>2016-02-07T09:58:16.000Z</time>
      </trkpt>
      <trkpt lat="47.49158" lon="6.73391">
        <ele>386</ele>
        <time>2016-02-07T09:58:17.000Z</time>
      </trkpt>
      <trkpt lat="47.4916" lon="6.73396">
        <ele>385</ele>
        <time>2016-02-07T09:58:18.000Z</time>
      </trkpt>
      <trkpt lat="47.49162" lon="6.73401">
        <ele>385</ele>
        <time>2016-02-07T09:58:19.000Z</time>
      </trkpt>
      <trkpt lat="47.49163" lon="6.73407">
        <ele>385</ele>
        <time>2016-02-07T09:58:20.000Z</time>
      </trkpt>
      <trkpt lat="47.49165" lon="6.73414">
        <ele>384</ele>
        <time>2016-02-07T09:58:21.000Z</time>
      </trkpt>
      <trkpt lat="47.49166" lon="6.7342">
        <ele>384</ele>
        <time>2016-02-07T09:58:22.000Z</time>
      </trkpt>
      <trkpt lat="47.49168" lon="6.73427">
        <ele>382</ele>
        <time>2016-02-07T09:58:23.000Z</time>
      </trkpt>
      <trkpt lat="47.49172" lon="6.73444">
        <ele>381</ele>
        <time>2016-02-07T09:58:24.000Z</time>
      </trkpt>
      <trkpt lat="47.49176" lon="6.73451">
        <ele>380</ele>
        <time>2016-02-07T09:58:25.000Z</time>
      </trkpt>
      <trkpt lat="47.49175" lon="6.73457">
        <ele>380</ele>
        <time>2016-02-07T09:58:26.000Z</time>
      </trkpt>
      <trkpt lat="47.49177" lon="6.73465">
        <ele>380</ele>
        <time>2016-02-07T09:58:27.000Z</time>
      </trkpt>
      <trkpt lat="47.49181" lon="6.73474">
        <ele>379</ele>
        <time>2016-02-07T09:58:28.000Z</time>
      </trkpt>
      <trkpt lat="47.49185" lon="6.73484">
        <ele>379</ele>
        <time>2016-02-07T09:58:29.000Z</time>
      </trkpt>
      <trkpt lat="47.49185" lon="6.7349">
        <ele>379</ele>
        <time>2016-02-07T09:58:30.000Z</time>
      </trkpt>
      <trkpt lat="47.49185" lon="6.73496">
        <ele>379</ele>
        <time>2016-02-07T09:58:31.000Z</time>
      </trkpt>
      <trkpt lat="47.49185" lon="6.73502">
        <ele>376</ele>
        <time>2016-02-07T09:58:32.000Z</time>
      </trkpt>
      <trkpt lat="47.49184" lon="6.73507">
        <ele>376</ele>
        <time>2016-02-07T09:58:33.000Z</time>
      </trkpt>
      <trkpt lat="47.49183" lon="6.73512">
        <ele>376</ele>
        <time>2016-02-07T09:58:34.000Z</time>
      </trkpt>
      <trkpt lat="47.49183" lon="6.73517">
        <ele>376</ele>
        <time>2016-02-07T09:58:35.000Z</time>
      </trkpt>
      <trkpt lat="47.49183" lon="6.73522">
        <ele>376</ele>
        <time>2016-02-07T09:58:36.000Z</time>
      </trkpt>
      <trkpt lat="47.49183" lon="6.73527">
        <ele>375</ele>
        <time>2016-02-07T09:58:37.000Z</time>
      </trkpt>
      <trkpt lat="47.49183" lon="6.73532">
        <ele>375</ele>
        <time>2016-02-07T09:58:38.000Z</time>
      </trkpt>
      <trkpt lat="47.49185" lon="6.73535">
        <ele>375</ele>
        <time>2016-02-07T09:58:39.000Z</time>
      </trkpt>
      <trkpt lat="47.49187" lon="6.73539">
        <ele>375</ele>
        <time>2016-02-07T09:58:40.000Z</time>
      </trkpt>
      <trkpt lat="47.49189" lon="6.73542">
        <ele>375</ele>
        <time>2016-02-07T09:58:41.000Z</time>
      </trkpt>
      <trkpt lat="47.49193" lon="6.73546">
        <ele>375</ele>
        <time>2016-02-07T09:58:42.000Z</time>
      </trkpt>
      <trkpt lat="47.49197" lon="6.73551">
        <ele>374</ele>
        <time>2016-02-07T09:58:43.000Z</time>
      </trkpt>
      <trkpt lat="47.49201" lon="6.73557">
        <ele>374</ele>
        <time>2016-02-07T09:58:44.000Z</time>
      </trkpt>
      <trkpt lat="47.49205" lon="6.73564">
        <ele>374</ele>
        <time>2016-02-07T09:58:45.000Z</time>
      </trkpt>
      <trkpt lat="47.49209" lon="6.7357">
        <ele>374</ele>
        <time>2016-02-07T09:58:46.000Z</time>
      </trkpt>
      <trkpt lat="47.49213" lon="6.73575">
        <ele>373</ele>
        <time>2016-02-07T09:58:47.000Z</time>
      </trkpt>
      <trkpt lat="47.49217" lon="6.73581">
        <ele>373</ele>
        <time>2016-02-07T09:58:48.000Z</time>
      </trkpt>
      <trkpt lat="47.49226" lon="6.73589">
        <ele>369</ele>
        <time>2016-02-07T09:58:49.000Z</time>
      </trkpt>
      <trkpt lat="47.49229" lon="6.73591">
        <ele>369</ele>
        <time>2016-02-07T09:58:50.000Z</time>
      </trkpt>
      <trkpt lat="47.49239" lon="6.73591">
        <ele>369</ele>
        <time>2016-02-07T09:58:51.000Z</time>
      </trkpt>
      <trkpt lat="47.49249" lon="6.73596">
        <ele>369</ele>
        <time>2016-02-07T09:58:52.000Z</time>
      </trkpt>
      <trkpt lat="47.49251" lon="6.73599">
        <ele>365</ele>
        <time>2016-02-07T09:58:53.000Z</time>
      </trkpt>
      <trkpt lat="47.49255" lon="6.73604">
        <ele>365</ele>
        <time>2016-02-07T09:58:54.000Z</time>
      </trkpt>
      <trkpt lat="47.49262" lon="6.73607">
        <ele>364</ele>
        <time>2016-02-07T09:58:55.000Z</time>
      </trkpt>
      <trkpt lat="47.49269" lon="6.73609">
        <ele>363</ele>
        <time>2016-02-07T09:58:56.000Z</time>
      </trkpt>
      <trkpt lat="47.49273" lon="6.73611">
        <ele>363</ele>
        <time>2016-02-07T09:58:57.000Z</time>
      </trkpt>
      <trkpt lat="47.49279" lon="6.73612">
        <ele>363</ele>
        <time>2016-02-07T09:58:58.000Z</time>
      </trkpt>
      <trkpt lat="47.49288" lon="6.73609">
        <ele>362</ele>
        <time>2016-02-07T09:58:59.000Z</time>
      </trkpt>
      <trkpt lat="47.49297" lon="6.73605">
        <ele>361</ele>
        <time>2016-02-07T09:59:00.000Z</time>
      </trkpt>
      <trkpt lat="47.49303" lon="6.73606">
        <ele>361</ele>
        <time>2016-02-07T09:59:01.000Z</time>
      </trkpt>
      <trkpt lat="47.49317" lon="6.73609">
        <ele>360</ele>
        <time>2016-02-07T09:59:02.000Z</time>
      </trkpt>
      <trkpt lat="47.49324" lon="6.73608">
        <ele>360</ele>
        <time>2016-02-07T09:59:03.000Z</time>
      </trkpt>
      <trkpt lat="47.49333" lon="6.73607">
        <ele>359</ele>
        <time>2016-02-07T09:59:04.000Z</time>
      </trkpt>
      <trkpt lat="47.49341" lon="6.73609">
        <ele>353</ele>
        <time>2016-02-07T09:59:05.000Z</time>
      </trkpt>
      <trkpt lat="47.49344" lon="6.73611">
        <ele>353</ele>
        <time>2016-02-07T09:59:06.000Z</time>
      </trkpt>
      <trkpt lat="47.49351" lon="6.73615">
        <ele>353</ele>
        <time>2016-02-07T09:59:07.000Z</time>
      </trkpt>
      <trkpt lat="47.49357" lon="6.73617">
        <ele>353</ele>
        <time>2016-02-07T09:59:08.000Z</time>
      </trkpt>
      <trkpt lat="47.49361" lon="6.7362">
        <ele>352</ele>
        <time>2016-02-07T09:59:09.000Z</time>
      </trkpt>
      <trkpt lat="47.4937" lon="6.73619">
        <ele>352</ele>
        <time>2016-02-07T09:59:10.000Z</time>
      </trkpt>
      <trkpt lat="47.49375" lon="6.73621">
        <ele>351</ele>
        <time>2016-02-07T09:59:11.000Z</time>
      </trkpt>
      <trkpt lat="47.49382" lon="6.73626">
        <ele>351</ele>
        <time>2016-02-07T09:59:12.000Z</time>
      </trkpt>
      <trkpt lat="47.49387" lon="6.73629">
        <ele>351</ele>
        <time>2016-02-07T09:59:13.000Z</time>
      </trkpt>
      <trkpt lat="47.49393" lon="6.73632">
        <ele>350</ele>
        <time>2016-02-07T09:59:14.000Z</time>
      </trkpt>
      <trkpt lat="47.49397" lon="6.73632">
        <ele>350</ele>
        <time>2016-02-07T09:59:15.000Z</time>
      </trkpt>
      <trkpt lat="47.494" lon="6.7363">
        <ele>350</ele>
        <time>2016-02-07T09:59:16.000Z</time>
      </trkpt>
      <trkpt lat="47.49401" lon="6.7363">
        <ele>350</ele>
        <time>2016-02-07T09:59:17.000Z</time>
      </trkpt>
      <trkpt lat="47.49407" lon="6.73628">
        <ele>350</ele>
        <time>2016-02-07T09:59:18.000Z</time>
      </trkpt>
      <trkpt lat="47.49412" lon="6.73624">
        <ele>350</ele>
        <time>2016-02-07T09:59:19.000Z</time>
      </trkpt>
      <trkpt lat="47.49416" lon="6.73622">
        <ele>349</ele>
        <time>2016-02-07T09:59:23.000Z</time>
      </trkpt>
      <trkpt lat="47.49417" lon="6.73622">
        <ele>342</ele>
        <time>2016-02-07T09:59:24.000Z</time>
      </trkpt>
      <trkpt lat="47.49421" lon="6.73624">
        <ele>342</ele>
        <time>2016-02-07T09:59:27.000Z</time>
      </trkpt>
      <trkpt lat="47.49422" lon="6.73625">
        <ele>342</ele>
        <time>2016-02-07T09:59:28.000Z</time>
      </trkpt>
      <trkpt lat="47.49425" lon="6.73629">
        <ele>342</ele>
        <time>2016-02-07T09:59:30.000Z</time>
      </trkpt>
      <trkpt lat="47.49427" lon="6.73632">
        <ele>342</ele>
        <time>2016-02-07T09:59:31.000Z</time>
      </trkpt>
      <trkpt lat="47.49429" lon="6.73637">
        <ele>342</ele>
        <time>2016-02-07T09:59:33.000Z</time>
      </trkpt>
      <trkpt lat="47.4943" lon="6.7364">
        <ele>342</ele>
        <time>2016-02-07T09:59:34.000Z</time>
      </trkpt>
      <trkpt lat="47.49432" lon="6.73646">
        <ele>342</ele>
        <time>2016-02-07T09:59:36.000Z</time>
      </trkpt>
      <trkpt lat="47.49433" lon="6.7365">
        <ele>342</ele>
        <time>2016-02-07T09:59:37.000Z</time>
      </trkpt>
      <trkpt lat="47.49434" lon="6.73654">
        <ele>342</ele>
        <time>2016-02-07T09:59:38.000Z</time>
      </trkpt>
      <trkpt lat="47.49436" lon="6.7366">
        <ele>342</ele>
        <time>2016-02-07T09:59:39.000Z</time>
      </trkpt>
      <trkpt lat="47.49436" lon="6.73666">
        <ele>342</ele>
        <time>2016-02-07T09:59:40.000Z</time>
      </trkpt>
      <trkpt lat="47.49436" lon="6.73671">
        <ele>342</ele>
        <time>2016-02-07T09:59:41.000Z</time>
      </trkpt>
      <trkpt lat="47.49436" lon="6.73677">
        <ele>342</ele>
        <time>2016-02-07T09:59:42.000Z</time>
      </trkpt>
      <trkpt lat="47.49435" lon="6.73682">
        <ele>342</ele>
        <time>2016-02-07T09:59:43.000Z</time>
      </trkpt>
      <trkpt lat="47.49435" lon="6.73688">
        <ele>341</ele>
        <time>2016-02-07T09:59:44.000Z</time>
      </trkpt>
      <trkpt lat="47.49435" lon="6.73693">
        <ele>341</ele>
        <time>2016-02-07T09:59:45.000Z</time>
      </trkpt>
      <trkpt lat="47.49436" lon="6.73699">
        <ele>341</ele>
        <time>2016-02-07T09:59:46.000Z</time>
      </trkpt>
      <trkpt lat="47.49435" lon="6.73705">
        <ele>340</ele>
        <time>2016-02-07T09:59:47.000Z</time>
      </trkpt>
      <trkpt lat="47.49434" lon="6.73713">
        <ele>340</ele>
        <time>2016-02-07T09:59:48.000Z</time>
      </trkpt>
      <trkpt lat="47.49434" lon="6.73721">
        <ele>341</ele>
        <time>2016-02-07T09:59:49.000Z</time>
      </trkpt>
      <trkpt lat="47.49433" lon="6.73728">
        <ele>341</ele>
        <time>2016-02-07T09:59:50.000Z</time>
      </trkpt>
      <trkpt lat="47.49432" lon="6.73736">
        <ele>341</ele>
        <time>2016-02-07T09:59:51.000Z</time>
      </trkpt>
      <trkpt lat="47.49432" lon="6.73742">
        <ele>342</ele>
        <time>2016-02-07T09:59:52.000Z</time>
      </trkpt>
      <trkpt lat="47.49432" lon="6.73748">
        <ele>342</ele>
        <time>2016-02-07T09:59:53.000Z</time>
      </trkpt>
      <trkpt lat="47.49431" lon="6.73753">
        <ele>342</ele>
        <time>2016-02-07T09:59:54.000Z</time>
      </trkpt>
      <trkpt lat="47.4943" lon="6.73758">
        <ele>342</ele>
        <time>2016-02-07T09:59:55.000Z</time>
      </trkpt>
      <trkpt lat="47.4943" lon="6.73762">
        <ele>342</ele>
        <time>2016-02-07T09:59:56.000Z</time>
      </trkpt>
      <trkpt lat="47.49429" lon="6.73766">
        <ele>341</ele>
        <time>2016-02-07T09:59:57.000Z</time>
      </trkpt>
      <trkpt lat="47.49428" lon="6.73769">
        <ele>341</ele>
        <time>2016-02-07T09:59:58.000Z</time>
      </trkpt>
      <trkpt lat="47.49426" lon="6.73775">
        <ele>341</ele>
        <time>2016-02-07T10:00:00.000Z</time>
      </trkpt>
      <trkpt lat="47.49425" lon="6.73777">
        <ele>341</ele>
        <time>2016-02-07T10:00:01.000Z</time>
      </trkpt>
      <trkpt lat="47.49424" lon="6.73782">
        <ele>341</ele>
        <time>2016-02-07T10:00:03.000Z</time>
      </trkpt>
      <trkpt lat="47.49423" lon="6.73784">
        <ele>341</ele>
        <time>2016-02-07T10:00:04.000Z</time>
      </trkpt>
      <trkpt lat="47.49421" lon="6.73789">
        <ele>341</ele>
        <time>2016-02-07T10:00:46.000Z</time>
      </trkpt>
      <trkpt lat="47.49421" lon="6.73792">
        <ele>341</ele>
        <time>2016-02-07T10:00:47.000Z</time>
      </trkpt>
      <trkpt lat="47.4942" lon="6.73798">
        <ele>341</ele>
        <time>2016-02-07T10:00:49.000Z</time>
      </trkpt>
      <trkpt lat="47.4942" lon="6.73801">
        <ele>341</ele>
        <time>2016-02-07T10:00:50.000Z</time>
      </trkpt>
      <trkpt lat="47.49419" lon="6.73805">
        <ele>341</ele>
        <time>2016-02-07T10:00:51.000Z</time>
      </trkpt>
      <trkpt lat="47.49416" lon="6.73821">
        <ele>346</ele>
        <time>2016-02-07T10:00:57.000Z</time>
      </trkpt>
      <trkpt lat="47.49414" lon="6.73826">
        <ele>345</ele>
        <time>2016-02-07T10:00:59.000Z</time>
      </trkpt>
      <trkpt lat="47.49414" lon="6.73829">
        <ele>345</ele>
        <time>2016-02-07T10:01:00.000Z</time>
      </trkpt>
      <trkpt lat="47.49416" lon="6.73847">
        <ele>347</ele>
        <time>2016-02-07T10:01:06.000Z</time>
      </trkpt>
      <trkpt lat="47.49423" lon="6.73879">
        <ele>343</ele>
        <time>2016-02-07T10:01:07.000Z</time>
      </trkpt>
      <trkpt lat="47.49424" lon="6.73886">
        <ele>343</ele>
        <time>2016-02-07T10:01:09.000Z</time>
      </trkpt>
      <trkpt lat="47.49425" lon="6.7389">
        <ele>343</ele>
        <time>2016-02-07T10:01:10.000Z</time>
      </trkpt>
      <trkpt lat="47.49426" lon="6.73893">
        <ele>343</ele>
        <time>2016-02-07T10:01:11.000Z</time>
      </trkpt>
      <trkpt lat="47.49426" lon="6.73897">
        <ele>343</ele>
        <time>2016-02-07T10:01:12.000Z</time>
      </trkpt>
      <trkpt lat="47.49427" lon="6.73901">
        <ele>344</ele>
        <time>2016-02-07T10:01:13.000Z</time>
      </trkpt>
      <trkpt lat="47.49427" lon="6.73905">
        <ele>344</ele>
        <time>2016-02-07T10:01:14.000Z</time>
      </trkpt>
      <trkpt lat="47.49427" lon="6.7391">
        <ele>344</ele>
        <time>2016-02-07T10:01:15.000Z</time>
      </trkpt>
      <trkpt lat="47.49426" lon="6.73915">
        <ele>345</ele>
        <time>2016-02-07T10:01:16.000Z</time>
      </trkpt>
      <trkpt lat="47.49427" lon="6.73919">
        <ele>346</ele>
        <time>2016-02-07T10:01:17.000Z</time>
      </trkpt>
      <trkpt lat="47.49427" lon="6.73923">
        <ele>346</ele>
        <time>2016-02-07T10:01:18.000Z</time>
      </trkpt>
      <trkpt lat="47.49427" lon="6.73926">
        <ele>346</ele>
        <time>2016-02-07T10:01:19.000Z</time>
      </trkpt>
      <trkpt lat="47.49427" lon="6.7393">
        <ele>346</ele>
        <time>2016-02-07T10:01:20.000Z</time>
      </trkpt>
      <trkpt lat="47.49427" lon="6.73933">
        <ele>346</ele>
        <time>2016-02-07T10:01:21.000Z</time>
      </trkpt>
      <trkpt lat="47.49427" lon="6.73937">
        <ele>347</ele>
        <time>2016-02-07T10:01:22.000Z</time>
      </trkpt>
      <trkpt lat="47.49428" lon="6.73942">
        <ele>347</ele>
        <time>2016-02-07T10:01:23.000Z</time>
      </trkpt>
      <trkpt lat="47.49428" lon="6.73946">
        <ele>347</ele>
        <time>2016-02-07T10:01:24.000Z</time>
      </trkpt>
      <trkpt lat="47.49428" lon="6.7395">
        <ele>347</ele>
        <time>2016-02-07T10:01:25.000Z</time>
      </trkpt>
      <trkpt lat="47.49428" lon="6.73953">
        <ele>347</ele>
        <time>2016-02-07T10:01:26.000Z</time>
      </trkpt>
      <trkpt lat="47.49428" lon="6.73957">
        <ele>347</ele>
        <time>2016-02-07T10:01:27.000Z</time>
      </trkpt>
      <trkpt lat="47.49427" lon="6.7396">
        <ele>347</ele>
        <time>2016-02-07T10:01:28.000Z</time>
      </trkpt>
      <trkpt lat="47.49427" lon="6.73964">
        <ele>347</ele>
        <time>2016-02-07T10:01:29.000Z</time>
      </trkpt>
      <trkpt lat="47.49426" lon="6.73967">
        <ele>347</ele>
        <time>2016-02-07T10:01:30.000Z</time>
      </trkpt>
      <trkpt lat="47.49425" lon="6.73971">
        <ele>348</ele>
        <time>2016-02-07T10:01:31.000Z</time>
      </trkpt>
      <trkpt lat="47.49424" lon="6.73974">
        <ele>348</ele>
        <time>2016-02-07T10:01:32.000Z</time>
      </trkpt>
      <trkpt lat="47.49422" lon="6.73978">
        <ele>348</ele>
        <time>2016-02-07T10:01:33.000Z</time>
      </trkpt>
      <trkpt lat="47.49421" lon="6.73981">
        <ele>348</ele>
        <time>2016-02-07T10:01:34.000Z</time>
      </trkpt>
      <trkpt lat="47.49419" lon="6.73986">
        <ele>348</ele>
        <time>2016-02-07T10:01:36.000Z</time>
      </trkpt>
      <trkpt lat="47.49418" lon="6.73989">
        <ele>348</ele>
        <time>2016-02-07T10:01:37.000Z</time>
      </trkpt>
      <trkpt lat="47.49417" lon="6.73994">
        <ele>349</ele>
        <time>2016-02-07T10:01:39.000Z</time>
      </trkpt>
      <trkpt lat="47.49417" lon="6.73996">
        <ele>349</ele>
        <time>2016-02-07T10:01:40.000Z</time>
      </trkpt>
      <trkpt lat="47.49418" lon="6.74003">
        <ele>349</ele>
        <time>2016-02-07T10:01:43.000Z</time>
      </trkpt>
      <trkpt lat="47.49418" lon="6.74005">
        <ele>349</ele>
        <time>2016-02-07T10:01:44.000Z</time>
      </trkpt>
      <trkpt lat="47.49418" lon="6.74012">
        <ele>350</ele>
        <time>2016-02-07T10:01:47.000Z</time>
      </trkpt>
      <trkpt lat="47.49419" lon="6.74013">
        <ele>350</ele>
        <time>2016-02-07T10:01:48.000Z</time>
      </trkpt>
      <trkpt lat="47.49418" lon="6.7402">
        <ele>350</ele>
        <time>2016-02-07T10:01:54.000Z</time>
      </trkpt>
      <trkpt lat="47.49417" lon="6.7402">
        <ele>350</ele>
        <time>2016-02-07T10:01:55.000Z</time>
      </trkpt>
      <trkpt lat="47.49416" lon="6.74026">
        <ele>353</ele>
        <time>2016-02-07T10:02:10.000Z</time>
      </trkpt>
      <trkpt lat="47.49415" lon="6.74027">
        <ele>353</ele>
        <time>2016-02-07T10:02:11.000Z</time>
      </trkpt>
      <trkpt lat="47.49413" lon="6.74031">
        <ele>353</ele>
        <time>2016-02-07T10:02:13.000Z</time>
      </trkpt>
      <trkpt lat="47.49412" lon="6.74033">
        <ele>353</ele>
        <time>2016-02-07T10:02:14.000Z</time>
      </trkpt>
      <trkpt lat="47.4941" lon="6.74038">
        <ele>353</ele>
        <time>2016-02-07T10:02:16.000Z</time>
      </trkpt>
      <trkpt lat="47.49409" lon="6.74041">
        <ele>353</ele>
        <time>2016-02-07T10:02:17.000Z</time>
      </trkpt>
      <trkpt lat="47.49407" lon="6.74047">
        <ele>353</ele>
        <time>2016-02-07T10:02:19.000Z</time>
      </trkpt>
      <trkpt lat="47.49406" lon="6.7405">
        <ele>353</ele>
        <time>2016-02-07T10:02:20.000Z</time>
      </trkpt>
      <trkpt lat="47.49404" lon="6.74055">
        <ele>353</ele>
        <time>2016-02-07T10:02:22.000Z</time>
      </trkpt>
      <trkpt lat="47.49404" lon="6.74059">
        <ele>353</ele>
        <time>2016-02-07T10:02:23.000Z</time>
      </trkpt>
      <trkpt lat="47.49403" lon="6.74064">
        <ele>353</ele>
        <time>2016-02-07T10:02:25.000Z</time>
      </trkpt>
      <trkpt lat="47.49402" lon="6.74067">
        <ele>353</ele>
        <time>2016-02-07T10:02:26.000Z</time>
      </trkpt>
      <trkpt lat="47.49401" lon="6.7407">
        <ele>352</ele>
        <time>2016-02-07T10:02:27.000Z</time>
      </trkpt>
      <trkpt lat="47.49399" lon="6.74074">
        <ele>352</ele>
        <time>2016-02-07T10:02:28.000Z</time>
      </trkpt>
      <trkpt lat="47.49397" lon="6.74077">
        <ele>353</ele>
        <time>2016-02-07T10:02:29.000Z</time>
      </trkpt>
      <trkpt lat="47.49395" lon="6.74081">
        <ele>353</ele>
        <time>2016-02-07T10:02:30.000Z</time>
      </trkpt>
      <trkpt lat="47.49394" lon="6.74084">
        <ele>354</ele>
        <time>2016-02-07T10:02:31.000Z</time>
      </trkpt>
      <trkpt lat="47.49393" lon="6.74086">
        <ele>354</ele>
        <time>2016-02-07T10:02:32.000Z</time>
      </trkpt>
      <trkpt lat="47.49392" lon="6.74091">
        <ele>354</ele>
        <time>2016-02-07T10:02:34.000Z</time>
      </trkpt>
      <trkpt lat="47.49391" lon="6.74094">
        <ele>355</ele>
        <time>2016-02-07T10:02:35.000Z</time>
      </trkpt>
      <trkpt lat="47.4939" lon="6.74099">
        <ele>355</ele>
        <time>2016-02-07T10:02:37.000Z</time>
      </trkpt>
      <trkpt lat="47.4939" lon="6.74101">
        <ele>355</ele>
        <time>2016-02-07T10:02:38.000Z</time>
      </trkpt>
      <trkpt lat="47.49389" lon="6.74106">
        <ele>355</ele>
        <time>2016-02-07T10:02:40.000Z</time>
      </trkpt>
      <trkpt lat="47.49388" lon="6.74108">
        <ele>356</ele>
        <time>2016-02-07T10:02:41.000Z</time>
      </trkpt>
      <trkpt lat="47.49387" lon="6.74113">
        <ele>356</ele>
        <time>2016-02-07T10:02:43.000Z</time>
      </trkpt>
      <trkpt lat="47.49386" lon="6.74115">
        <ele>356</ele>
        <time>2016-02-07T10:02:44.000Z</time>
      </trkpt>
      <trkpt lat="47.49386" lon="6.74119">
        <ele>356</ele>
        <time>2016-02-07T10:02:46.000Z</time>
      </trkpt>
      <trkpt lat="47.49386" lon="6.74121">
        <ele>356</ele>
        <time>2016-02-07T10:02:47.000Z</time>
      </trkpt>
      <trkpt lat="47.49384" lon="6.74126">
        <ele>356</ele>
        <time>2016-02-07T10:02:49.000Z</time>
      </trkpt>
      <trkpt lat="47.49383" lon="6.74128">
        <ele>357</ele>
        <time>2016-02-07T10:02:50.000Z</time>
      </trkpt>
      <trkpt lat="47.49381" lon="6.74133">
        <ele>357</ele>
        <time>2016-02-07T10:02:52.000Z</time>
      </trkpt>
      <trkpt lat="47.4938" lon="6.74135">
        <ele>357</ele>
        <time>2016-02-07T10:02:53.000Z</time>
      </trkpt>
      <trkpt lat="47.49378" lon="6.7414">
        <ele>357</ele>
        <time>2016-02-07T10:02:55.000Z</time>
      </trkpt>
      <trkpt lat="47.49376" lon="6.74142">
        <ele>358</ele>
        <time>2016-02-07T10:02:56.000Z</time>
      </trkpt>
      <trkpt lat="47.49373" lon="6.74147">
        <ele>358</ele>
        <time>2016-02-07T10:02:58.000Z</time>
      </trkpt>
      <trkpt lat="47.49372" lon="6.74149">
        <ele>359</ele>
        <time>2016-02-07T10:02:59.000Z</time>
      </trkpt>
      <trkpt lat="47.4937" lon="6.74153">
        <ele>359</ele>
        <time>2016-02-07T10:03:01.000Z</time>
      </trkpt>
      <trkpt lat="47.4937" lon="6.74155">
        <ele>359</ele>
        <time>2016-02-07T10:03:02.000Z</time>
      </trkpt>
      <trkpt lat="47.49369" lon="6.74161">
        <ele>359</ele>
        <time>2016-02-07T10:03:04.000Z</time>
      </trkpt>
      <trkpt lat="47.49369" lon="6.74164">
        <ele>359</ele>
        <time>2016-02-07T10:03:05.000Z</time>
      </trkpt>
      <trkpt lat="47.4937" lon="6.74169">
        <ele>359</ele>
        <time>2016-02-07T10:03:07.000Z</time>
      </trkpt>
      <trkpt lat="47.4937" lon="6.74171">
        <ele>359</ele>
        <time>2016-02-07T10:03:08.000Z</time>
      </trkpt>
      <trkpt lat="47.49369" lon="6.74176">
        <ele>359</ele>
        <time>2016-02-07T10:03:11.000Z</time>
      </trkpt>
      <trkpt lat="47.49369" lon="6.74178">
        <ele>359</ele>
        <time>2016-02-07T10:03:12.000Z</time>
      </trkpt>
      <trkpt lat="47.49369" lon="6.74183">
        <ele>359</ele>
        <time>2016-02-07T10:03:14.000Z</time>
      </trkpt>
      <trkpt lat="47.49369" lon="6.74185">
        <ele>359</ele>
        <time>2016-02-07T10:03:15.000Z</time>
      </trkpt>
      <trkpt lat="47.49369" lon="6.74191">
        <ele>359</ele>
        <time>2016-02-07T10:03:18.000Z</time>
      </trkpt>
      <trkpt lat="47.49369" lon="6.74193">
        <ele>359</ele>
        <time>2016-02-07T10:03:19.000Z</time>
      </trkpt>
      <trkpt lat="47.4937" lon="6.74199">
        <ele>359</ele>
        <time>2016-02-07T10:03:21.000Z</time>
      </trkpt>
      <trkpt lat="47.49369" lon="6.74202">
        <ele>359</ele>
        <time>2016-02-07T10:03:22.000Z</time>
      </trkpt>
      <trkpt lat="47.49368" lon="6.74208">
        <ele>359</ele>
        <time>2016-02-07T10:03:24.000Z</time>
      </trkpt>
      <trkpt lat="47.49368" lon="6.7421">
        <ele>359</ele>
        <time>2016-02-07T10:03:25.000Z</time>
      </trkpt>
      <trkpt lat="47.49367" lon="6.74215">
        <ele>359</ele>
        <time>2016-02-07T10:03:27.000Z</time>
      </trkpt>
      <trkpt lat="47.49366" lon="6.74217">
        <ele>359</ele>
        <time>2016-02-07T10:03:28.000Z</time>
      </trkpt>
      <trkpt lat="47.49365" lon="6.74223">
        <ele>359</ele>
        <time>2016-02-07T10:03:31.000Z</time>
      </trkpt>
      <trkpt lat="47.49365" lon="6.74225">
        <ele>359</ele>
        <time>2016-02-07T10:03:32.000Z</time>
      </trkpt>
      <trkpt lat="47.49364" lon="6.7423">
        <ele>360</ele>
        <time>2016-02-07T10:03:34.000Z</time>
      </trkpt>
      <trkpt lat="47.49363" lon="6.74233">
        <ele>360</ele>
        <time>2016-02-07T10:03:35.000Z</time>
      </trkpt>
      <trkpt lat="47.49361" lon="6.74237">
        <ele>360</ele>
        <time>2016-02-07T10:03:36.000Z</time>
      </trkpt>
      <trkpt lat="47.4936" lon="6.7424">
        <ele>361</ele>
        <time>2016-02-07T10:03:37.000Z</time>
      </trkpt>
      <trkpt lat="47.49359" lon="6.74243">
        <ele>361</ele>
        <time>2016-02-07T10:03:38.000Z</time>
      </trkpt>
      <trkpt lat="47.49358" lon="6.74246">
        <ele>361</ele>
        <time>2016-02-07T10:03:39.000Z</time>
      </trkpt>
      <trkpt lat="47.49357" lon="6.74251">
        <ele>361</ele>
        <time>2016-02-07T10:03:41.000Z</time>
      </trkpt>
      <trkpt lat="47.49358" lon="6.74253">
        <ele>361</ele>
        <time>2016-02-07T10:03:42.000Z</time>
      </trkpt>
      <trkpt lat="47.49358" lon="6.74258">
        <ele>360</ele>
        <time>2016-02-07T10:03:45.000Z</time>
      </trkpt>
      <trkpt lat="47.49358" lon="6.7426">
        <ele>360</ele>
        <time>2016-02-07T10:03:46.000Z</time>
      </trkpt>
      <trkpt lat="47.49359" lon="6.74265">
        <ele>360</ele>
        <time>2016-02-07T10:03:49.000Z</time>
      </trkpt>
      <trkpt lat="47.49359" lon="6.74267">
        <ele>360</ele>
        <time>2016-02-07T10:03:50.000Z</time>
      </trkpt>
      <trkpt lat="47.4936" lon="6.74271">
        <ele>359</ele>
        <time>2016-02-07T10:03:52.000Z</time>
      </trkpt>
      <trkpt lat="47.49361" lon="6.74273">
        <ele>359</ele>
        <time>2016-02-07T10:03:53.000Z</time>
      </trkpt>
      <trkpt lat="47.4936" lon="6.74279">
        <ele>359</ele>
        <time>2016-02-07T10:03:56.000Z</time>
      </trkpt>
      <trkpt lat="47.4936" lon="6.7428">
        <ele>359</ele>
        <time>2016-02-07T10:03:57.000Z</time>
      </trkpt>
      <trkpt lat="47.49364" lon="6.74281">
        <ele>358</ele>
        <time>2016-02-07T10:04:17.000Z</time>
      </trkpt>
      <trkpt lat="47.49365" lon="6.74281">
        <ele>358</ele>
        <time>2016-02-07T10:04:18.000Z</time>
      </trkpt>
      <trkpt lat="47.49365" lon="6.74285">
        <ele>358</ele>
        <time>2016-02-07T10:04:42.000Z</time>
      </trkpt>
      <trkpt lat="47.49363" lon="6.74287">
        <ele>358</ele>
        <time>2016-02-07T10:04:43.000Z</time>
      </trkpt>
      <trkpt lat="47.49363" lon="6.74293">
        <ele>358</ele>
        <time>2016-02-07T10:04:45.000Z</time>
      </trkpt>
      <trkpt lat="47.49363" lon="6.74296">
        <ele>358</ele>
        <time>2016-02-07T10:04:46.000Z</time>
      </trkpt>
      <trkpt lat="47.49362" lon="6.74302">
        <ele>358</ele>
        <time>2016-02-07T10:04:50.000Z</time>
      </trkpt>
      <trkpt lat="47.49362" lon="6.74302">
        <ele>358</ele>
        <time>2016-02-07T10:04:51.000Z</time>
      </trkpt>
      <trkpt lat="47.49363" lon="6.74307">
        <ele>358</ele>
        <time>2016-02-07T10:04:54.000Z</time>
      </trkpt>
      <trkpt lat="47.49364" lon="6.7431">
        <ele>358</ele>
        <time>2016-02-07T10:04:55.000Z</time>
      </trkpt>
      <trkpt lat="47.4936" lon="6.7431">
        <ele>359</ele>
        <time>2016-02-07T10:05:00.000Z</time>
      </trkpt>
      <trkpt lat="47.49359" lon="6.7431">
        <ele>359</ele>
        <time>2016-02-07T10:05:01.000Z</time>
      </trkpt>
      <trkpt lat="47.49356" lon="6.74305">
        <ele>359</ele>
        <time>2016-02-07T10:05:16.000Z</time>
      </trkpt>
      <trkpt lat="47.49357" lon="6.74301">
        <ele>359</ele>
        <time>2016-02-07T10:05:17.000Z</time>
      </trkpt>
      <trkpt lat="47.49357" lon="6.74297">
        <ele>359</ele>
        <time>2016-02-07T10:05:18.000Z</time>
      </trkpt>
      <trkpt lat="47.49356" lon="6.74293">
        <ele>359</ele>
        <time>2016-02-07T10:05:19.000Z</time>
      </trkpt>
      <trkpt lat="47.49356" lon="6.74289">
        <ele>359</ele>
        <time>2016-02-07T10:05:20.000Z</time>
      </trkpt>
      <trkpt lat="47.49356" lon="6.74286">
        <ele>359</ele>
        <time>2016-02-07T10:05:21.000Z</time>
      </trkpt>
      <trkpt lat="47.49356" lon="6.7428">
        <ele>360</ele>
        <time>2016-02-07T10:05:24.000Z</time>
      </trkpt>
      <trkpt lat="47.49356" lon="6.74279">
        <ele>360</ele>
        <time>2016-02-07T10:05:25.000Z</time>
      </trkpt>
      <trkpt lat="47.49354" lon="6.74285">
        <ele>360</ele>
        <time>2016-02-07T10:05:31.000Z</time>
      </trkpt>
      <trkpt lat="47.49353" lon="6.74286">
        <ele>360</ele>
        <time>2016-02-07T10:05:32.000Z</time>
      </trkpt>
      <trkpt lat="47.49353" lon="6.74292">
        <ele>359</ele>
        <time>2016-02-07T10:05:35.000Z</time>
      </trkpt>
      <trkpt lat="47.49353" lon="6.74295">
        <ele>359</ele>
        <time>2016-02-07T10:05:36.000Z</time>
      </trkpt>
      <trkpt lat="47.49352" lon="6.74299">
        <ele>360</ele>
        <time>2016-02-07T10:05:37.000Z</time>
      </trkpt>
      <trkpt lat="47.49351" lon="6.74302">
        <ele>360</ele>
        <time>2016-02-07T10:05:38.000Z</time>
      </trkpt>
      <trkpt lat="47.49351" lon="6.74308">
        <ele>360</ele>
        <time>2016-02-07T10:05:40.000Z</time>
      </trkpt>
      <trkpt lat="47.49352" lon="6.7431">
        <ele>360</ele>
        <time>2016-02-07T10:05:41.000Z</time>
      </trkpt>
      <trkpt lat="47.49353" lon="6.74305">
        <ele>360</ele>
        <time>2016-02-07T10:05:51.000Z</time>
      </trkpt>
      <trkpt lat="47.49354" lon="6.74302">
        <ele>359</ele>
        <time>2016-02-07T10:05:52.000Z</time>
      </trkpt>
      <trkpt lat="47.49355" lon="6.74296">
        <ele>359</ele>
        <time>2016-02-07T10:05:54.000Z</time>
      </trkpt>
      <trkpt lat="47.49356" lon="6.74294">
        <ele>359</ele>
        <time>2016-02-07T10:05:55.000Z</time>
      </trkpt>
      <trkpt lat="47.49359" lon="6.74289">
        <ele>359</ele>
        <time>2016-02-07T10:05:59.000Z</time>
      </trkpt>
      <trkpt lat="47.49359" lon="6.74289">
        <ele>359</ele>
        <time>2016-02-07T10:06:00.000Z</time>
      </trkpt>
      <trkpt lat="47.49362" lon="6.74284">
        <ele>359</ele>
        <time>2016-02-07T10:06:05.000Z</time>
      </trkpt>
      <trkpt lat="47.49362" lon="6.74283">
        <ele>359</ele>
        <time>2016-02-07T10:06:06.000Z</time>
      </trkpt>
      <trkpt lat="47.4936" lon="6.74289">
        <ele>359</ele>
        <time>2016-02-07T10:06:36.000Z</time>
      </trkpt>
      <trkpt lat="47.4936" lon="6.74291">
        <ele>359</ele>
        <time>2016-02-07T10:06:37.000Z</time>
      </trkpt>
      <trkpt lat="47.49359" lon="6.74298">
        <ele>359</ele>
        <time>2016-02-07T10:06:40.000Z</time>
      </trkpt>
      <trkpt lat="47.49358" lon="6.743">
        <ele>359</ele>
        <time>2016-02-07T10:06:41.000Z</time>
      </trkpt>
      <trkpt lat="47.49358" lon="6.74306">
        <ele>359</ele>
        <time>2016-02-07T10:06:43.000Z</time>
      </trkpt>
      <trkpt lat="47.49358" lon="6.74309">
        <ele>359</ele>
        <time>2016-02-07T10:06:44.000Z</time>
      </trkpt>
      <trkpt lat="47.49358" lon="6.74316">
        <ele>359</ele>
        <time>2016-02-07T10:06:46.000Z</time>
      </trkpt>
      <trkpt lat="47.49358" lon="6.74319">
        <ele>359</ele>
        <time>2016-02-07T10:06:47.000Z</time>
      </trkpt>
      <trkpt lat="47.49358" lon="6.74325">
        <ele>360</ele>
        <time>2016-02-07T10:06:49.000Z</time>
      </trkpt>
      <trkpt lat="47.49357" lon="6.74327">
        <ele>360</ele>
        <time>2016-02-07T10:06:50.000Z</time>
      </trkpt>
      <trkpt lat="47.49355" lon="6.74331">
        <ele>360</ele>
        <time>2016-02-07T10:06:53.000Z</time>
      </trkpt>
      <trkpt lat="47.49355" lon="6.74333">
        <ele>360</ele>
        <time>2016-02-07T10:06:54.000Z</time>
      </trkpt>
      <trkpt lat="47.49355" lon="6.74339">
        <ele>360</ele>
        <time>2016-02-07T10:06:57.000Z</time>
      </trkpt>
      <trkpt lat="47.49354" lon="6.74341">
        <ele>360</ele>
        <time>2016-02-07T10:06:58.000Z</time>
      </trkpt>
      <trkpt lat="47.49353" lon="6.74346">
        <ele>360</ele>
        <time>2016-02-07T10:07:00.000Z</time>
      </trkpt>
      <trkpt lat="47.49353" lon="6.74348">
        <ele>360</ele>
        <time>2016-02-07T10:07:01.000Z</time>
      </trkpt>
      <trkpt lat="47.49351" lon="6.74354">
        <ele>359</ele>
        <time>2016-02-07T10:07:04.000Z</time>
      </trkpt>
      <trkpt lat="47.4935" lon="6.74355">
        <ele>359</ele>
        <time>2016-02-07T10:07:05.000Z</time>
      </trkpt>
      <trkpt lat="47.4935" lon="6.74359">
        <ele>359</ele>
        <time>2016-02-07T10:07:07.000Z</time>
      </trkpt>
      <trkpt lat="47.4935" lon="6.74362">
        <ele>359</ele>
        <time>2016-02-07T10:07:08.000Z</time>
      </trkpt>
      <trkpt lat="47.4935" lon="6.74365">
        <ele>359</ele>
        <time>2016-02-07T10:07:09.000Z</time>
      </trkpt>
      <trkpt lat="47.4935" lon="6.74369">
        <ele>358</ele>
        <time>2016-02-07T10:07:10.000Z</time>
      </trkpt>
      <trkpt lat="47.4935" lon="6.74373">
        <ele>358</ele>
        <time>2016-02-07T10:07:11.000Z</time>
      </trkpt>
      <trkpt lat="47.49351" lon="6.74377">
        <ele>358</ele>
        <time>2016-02-07T10:07:12.000Z</time>
      </trkpt>
      <trkpt lat="47.49351" lon="6.74381">
        <ele>358</ele>
        <time>2016-02-07T10:07:13.000Z</time>
      </trkpt>
      <trkpt lat="47.49351" lon="6.74384">
        <ele>358</ele>
        <time>2016-02-07T10:07:14.000Z</time>
      </trkpt>
      <trkpt lat="47.49351" lon="6.74389">
        <ele>358</ele>
        <time>2016-02-07T10:07:16.000Z</time>
      </trkpt>
      <trkpt lat="47.49351" lon="6.74391">
        <ele>358</ele>
        <time>2016-02-07T10:07:17.000Z</time>
      </trkpt>
      <trkpt lat="47.49352" lon="6.74397">
        <ele>358</ele>
        <time>2016-02-07T10:07:20.000Z</time>
      </trkpt>
      <trkpt lat="47.49352" lon="6.74399">
        <ele>359</ele>
        <time>2016-02-07T10:07:21.000Z</time>
      </trkpt>
      <trkpt lat="47.49353" lon="6.74405">
        <ele>359</ele>
        <time>2016-02-07T10:07:23.000Z</time>
      </trkpt>
      <trkpt lat="47.49353" lon="6.74408">
        <ele>359</ele>
        <time>2016-02-07T10:07:24.000Z</time>
      </trkpt>
      <trkpt lat="47.49353" lon="6.74412">
        <ele>359</ele>
        <time>2016-02-07T10:07:25.000Z</time>
      </trkpt>
      <trkpt lat="47.49353" lon="6.74416">
        <ele>359</ele>
        <time>2016-02-07T10:07:26.000Z</time>
      </trkpt>
      <trkpt lat="47.49356" lon="6.74418">
        <ele>358</ele>
        <time>2016-02-07T10:07:47.000Z</time>
      </trkpt>
      <trkpt lat="47.49357" lon="6.74419">
        <ele>358</ele>
        <time>2016-02-07T10:07:48.000Z</time>
      </trkpt>
      <trkpt lat="47.4936" lon="6.74423">
        <ele>357</ele>
        <time>2016-02-07T10:07:52.000Z</time>
      </trkpt>
      <trkpt lat="47.49361" lon="6.74423">
        <ele>357</ele>
        <time>2016-02-07T10:07:53.000Z</time>
      </trkpt>
      <trkpt lat="47.4936" lon="6.74418">
        <ele>357</ele>
        <time>2016-02-07T10:07:58.000Z</time>
      </trkpt>
      <trkpt lat="47.49359" lon="6.74417">
        <ele>358</ele>
        <time>2016-02-07T10:07:59.000Z</time>
      </trkpt>
      <trkpt lat="47.49355" lon="6.7442">
        <ele>358</ele>
        <time>2016-02-07T10:08:08.000Z</time>
      </trkpt>
      <trkpt lat="47.49354" lon="6.7442">
        <ele>358</ele>
        <time>2016-02-07T10:08:09.000Z</time>
      </trkpt>
      <trkpt lat="47.49351" lon="6.74424">
        <ele>359</ele>
        <time>2016-02-07T10:08:29.000Z</time>
      </trkpt>
      <trkpt lat="47.4935" lon="6.74427">
        <ele>359</ele>
        <time>2016-02-07T10:08:30.000Z</time>
      </trkpt>
      <trkpt lat="47.4935" lon="6.7443">
        <ele>359</ele>
        <time>2016-02-07T10:08:31.000Z</time>
      </trkpt>
      <trkpt lat="47.49349" lon="6.74434">
        <ele>358</ele>
        <time>2016-02-07T10:08:32.000Z</time>
      </trkpt>
      <trkpt lat="47.49349" lon="6.74439">
        <ele>358</ele>
        <time>2016-02-07T10:08:34.000Z</time>
      </trkpt>
      <trkpt lat="47.49349" lon="6.74441">
        <ele>358</ele>
        <time>2016-02-07T10:08:35.000Z</time>
      </trkpt>
      <trkpt lat="47.4935" lon="6.74447">
        <ele>357</ele>
        <time>2016-02-07T10:08:39.000Z</time>
      </trkpt>
      <trkpt lat="47.4935" lon="6.74448">
        <ele>357</ele>
        <time>2016-02-07T10:08:40.000Z</time>
      </trkpt>
      <trkpt lat="47.49352" lon="6.74453">
        <ele>357</ele>
        <time>2016-02-07T10:08:45.000Z</time>
      </trkpt>
      <trkpt lat="47.49352" lon="6.74456">
        <ele>357</ele>
        <time>2016-02-07T10:08:46.000Z</time>
      </trkpt>
      <trkpt lat="47.49353" lon="6.74462">
        <ele>357</ele>
        <time>2016-02-07T10:08:48.000Z</time>
      </trkpt>
      <trkpt lat="47.49353" lon="6.74465">
        <ele>357</ele>
        <time>2016-02-07T10:08:49.000Z</time>
      </trkpt>
      <trkpt lat="47.49352" lon="6.7447">
        <ele>357</ele>
        <time>2016-02-07T10:08:51.000Z</time>
      </trkpt>
      <trkpt lat="47.49352" lon="6.74472">
        <ele>357</ele>
        <time>2016-02-07T10:08:52.000Z</time>
      </trkpt>
      <trkpt lat="47.49351" lon="6.74477">
        <ele>357</ele>
        <time>2016-02-07T10:08:54.000Z</time>
      </trkpt>
      <trkpt lat="47.49351" lon="6.7448">
        <ele>357</ele>
        <time>2016-02-07T10:08:55.000Z</time>
      </trkpt>
      <trkpt lat="47.49351" lon="6.74483">
        <ele>357</ele>
        <time>2016-02-07T10:08:56.000Z</time>
      </trkpt>
      <trkpt lat="47.49352" lon="6.74487">
        <ele>358</ele>
        <time>2016-02-07T10:08:57.000Z</time>
      </trkpt>
      <trkpt lat="47.49352" lon="6.7449">
        <ele>358</ele>
        <time>2016-02-07T10:08:58.000Z</time>
      </trkpt>
      <trkpt lat="47.49352" lon="6.74495">
        <ele>358</ele>
        <time>2016-02-07T10:08:59.000Z</time>
      </trkpt>
      <trkpt lat="47.49352" lon="6.74498">
        <ele>358</ele>
        <time>2016-02-07T10:09:00.000Z</time>
      </trkpt>
      <trkpt lat="47.49352" lon="6.74502">
        <ele>357</ele>
        <time>2016-02-07T10:09:01.000Z</time>
      </trkpt>
      <trkpt lat="47.49351" lon="6.74506">
        <ele>357</ele>
        <time>2016-02-07T10:09:02.000Z</time>
      </trkpt>
      <trkpt lat="47.49351" lon="6.7451">
        <ele>357</ele>
        <time>2016-02-07T10:09:03.000Z</time>
      </trkpt>
      <trkpt lat="47.4935" lon="6.74513">
        <ele>357</ele>
        <time>2016-02-07T10:09:04.000Z</time>
      </trkpt>
      <trkpt lat="47.4935" lon="6.74517">
        <ele>356</ele>
        <time>2016-02-07T10:09:05.000Z</time>
      </trkpt>
      <trkpt lat="47.49349" lon="6.74521">
        <ele>356</ele>
        <time>2016-02-07T10:09:06.000Z</time>
      </trkpt>
      <trkpt lat="47.49349" lon="6.74525">
        <ele>356</ele>
        <time>2016-02-07T10:09:07.000Z</time>
      </trkpt>
      <trkpt lat="47.49348" lon="6.74528">
        <ele>356</ele>
        <time>2016-02-07T10:09:08.000Z</time>
      </trkpt>
      <trkpt lat="47.49348" lon="6.74532">
        <ele>356</ele>
        <time>2016-02-07T10:09:09.000Z</time>
      </trkpt>
      <trkpt lat="47.49347" lon="6.74535">
        <ele>355</ele>
        <time>2016-02-07T10:09:10.000Z</time>
      </trkpt>
      <trkpt lat="47.49347" lon="6.74539">
        <ele>355</ele>
        <time>2016-02-07T10:09:11.000Z</time>
      </trkpt>
      <trkpt lat="47.49347" lon="6.74542">
        <ele>355</ele>
        <time>2016-02-07T10:09:12.000Z</time>
      </trkpt>
      <trkpt lat="47.49346" lon="6.74545">
        <ele>355</ele>
        <time>2016-02-07T10:09:13.000Z</time>
      </trkpt>
      <trkpt lat="47.49345" lon="6.74551">
        <ele>355</ele>
        <time>2016-02-07T10:09:15.000Z</time>
      </trkpt>
      <trkpt lat="47.49344" lon="6.74554">
        <ele>355</ele>
        <time>2016-02-07T10:09:16.000Z</time>
      </trkpt>
      <trkpt lat="47.49343" lon="6.7456">
        <ele>356</ele>
        <time>2016-02-07T10:09:18.000Z</time>
      </trkpt>
      <trkpt lat="47.49342" lon="6.74563">
        <ele>356</ele>
        <time>2016-02-07T10:09:19.000Z</time>
      </trkpt>
      <trkpt lat="47.49341" lon="6.74567">
        <ele>357</ele>
        <time>2016-02-07T10:09:20.000Z</time>
      </trkpt>
      <trkpt lat="47.49339" lon="6.74572">
        <ele>357</ele>
        <time>2016-02-07T10:09:21.000Z</time>
      </trkpt>
      <trkpt lat="47.49338" lon="6.74576">
        <ele>358</ele>
        <time>2016-02-07T10:09:22.000Z</time>
      </trkpt>
      <trkpt lat="47.49336" lon="6.7458">
        <ele>359</ele>
        <time>2016-02-07T10:09:23.000Z</time>
      </trkpt>
      <trkpt lat="47.49334" lon="6.74585">
        <ele>359</ele>
        <time>2016-02-07T10:09:24.000Z</time>
      </trkpt>
      <trkpt lat="47.49333" lon="6.7459">
        <ele>363</ele>
        <time>2016-02-07T10:09:25.000Z</time>
      </trkpt>
      <trkpt lat="47.49331" lon="6.74595">
        <ele>364</ele>
        <time>2016-02-07T10:09:26.000Z</time>
      </trkpt>
      <trkpt lat="47.4933" lon="6.746">
        <ele>365</ele>
        <time>2016-02-07T10:09:27.000Z</time>
      </trkpt>
      <trkpt lat="47.49329" lon="6.74605">
        <ele>366</ele>
        <time>2016-02-07T10:09:28.000Z</time>
      </trkpt>
      <trkpt lat="47.49329" lon="6.74611">
        <ele>367</ele>
        <time>2016-02-07T10:09:29.000Z</time>
      </trkpt>
      <trkpt lat="47.49329" lon="6.74616">
        <ele>367</ele>
        <time>2016-02-07T10:09:30.000Z</time>
      </trkpt>
      <trkpt lat="47.49329" lon="6.74621">
        <ele>367</ele>
        <time>2016-02-07T10:09:31.000Z</time>
      </trkpt>
      <trkpt lat="47.49329" lon="6.74627">
        <ele>367</ele>
        <time>2016-02-07T10:09:32.000Z</time>
      </trkpt>
      <trkpt lat="47.49329" lon="6.74632">
        <ele>367</ele>
        <time>2016-02-07T10:09:33.000Z</time>
      </trkpt>
      <trkpt lat="47.4933" lon="6.74637">
        <ele>367</ele>
        <time>2016-02-07T10:09:34.000Z</time>
      </trkpt>
      <trkpt lat="47.4933" lon="6.74643">
        <ele>366</ele>
        <time>2016-02-07T10:09:35.000Z</time>
      </trkpt>
      <trkpt lat="47.4933" lon="6.74649">
        <ele>366</ele>
        <time>2016-02-07T10:09:36.000Z</time>
      </trkpt>
      <trkpt lat="47.4933" lon="6.74655">
        <ele>364</ele>
        <time>2016-02-07T10:09:37.000Z</time>
      </trkpt>
      <trkpt lat="47.4933" lon="6.74662">
        <ele>362</ele>
        <time>2016-02-07T10:09:38.000Z</time>
      </trkpt>
      <trkpt lat="47.49331" lon="6.74669">
        <ele>361</ele>
        <time>2016-02-07T10:09:39.000Z</time>
      </trkpt>
      <trkpt lat="47.49331" lon="6.74677">
        <ele>363</ele>
        <time>2016-02-07T10:09:40.000Z</time>
      </trkpt>
      <trkpt lat="47.49331" lon="6.74684">
        <ele>364</ele>
        <time>2016-02-07T10:09:41.000Z</time>
      </trkpt>
      <trkpt lat="47.49332" lon="6.74691">
        <ele>365</ele>
        <time>2016-02-07T10:09:42.000Z</time>
      </trkpt>
      <trkpt lat="47.49332" lon="6.74699">
        <ele>365</ele>
        <time>2016-02-07T10:09:43.000Z</time>
      </trkpt>
      <trkpt lat="47.49332" lon="6.74706">
        <ele>365</ele>
        <time>2016-02-07T10:09:44.000Z</time>
      </trkpt>
      <trkpt lat="47.49333" lon="6.74713">
        <ele>364</ele>
        <time>2016-02-07T10:09:45.000Z</time>
      </trkpt>
      <trkpt lat="47.49334" lon="6.7472">
        <ele>351</ele>
        <time>2016-02-07T10:09:46.000Z</time>
      </trkpt>
      <trkpt lat="47.49336" lon="6.74724">
        <ele>351</ele>
        <time>2016-02-07T10:09:47.000Z</time>
      </trkpt>
      <trkpt lat="47.49338" lon="6.74727">
        <ele>351</ele>
        <time>2016-02-07T10:09:48.000Z</time>
      </trkpt>
      <trkpt lat="47.49339" lon="6.74729">
        <ele>351</ele>
        <time>2016-02-07T10:09:49.000Z</time>
      </trkpt>
      <trkpt lat="47.49335" lon="6.7473">
        <ele>352</ele>
        <time>2016-02-07T10:10:04.000Z</time>
      </trkpt>
      <trkpt lat="47.49335" lon="6.7473">
        <ele>352</ele>
        <time>2016-02-07T10:10:05.000Z</time>
      </trkpt>
      <trkpt lat="47.49336" lon="6.74737">
        <ele>352</ele>
        <time>2016-02-07T10:10:18.000Z</time>
      </trkpt>
      <trkpt lat="47.49336" lon="6.74737">
        <ele>352</ele>
        <time>2016-02-07T10:10:19.000Z</time>
      </trkpt>
      <trkpt lat="47.49337" lon="6.74742">
        <ele>353</ele>
        <time>2016-02-07T10:10:30.000Z</time>
      </trkpt>
      <trkpt lat="47.49337" lon="6.74745">
        <ele>353</ele>
        <time>2016-02-07T10:10:31.000Z</time>
      </trkpt>
      <trkpt lat="47.49337" lon="6.7475">
        <ele>353</ele>
        <time>2016-02-07T10:10:33.000Z</time>
      </trkpt>
      <trkpt lat="47.49336" lon="6.74753">
        <ele>352</ele>
        <time>2016-02-07T10:10:34.000Z</time>
      </trkpt>
      <trkpt lat="47.49336" lon="6.74756">
        <ele>352</ele>
        <time>2016-02-07T10:10:35.000Z</time>
      </trkpt>
      <trkpt lat="47.49335" lon="6.7476">
        <ele>351</ele>
        <time>2016-02-07T10:10:36.000Z</time>
      </trkpt>
      <trkpt lat="47.49334" lon="6.74764">
        <ele>350</ele>
        <time>2016-02-07T10:10:37.000Z</time>
      </trkpt>
      <trkpt lat="47.49333" lon="6.74767">
        <ele>358</ele>
        <time>2016-02-07T10:10:38.000Z</time>
      </trkpt>
      <trkpt lat="47.49332" lon="6.74771">
        <ele>359</ele>
        <time>2016-02-07T10:10:39.000Z</time>
      </trkpt>
      <trkpt lat="47.49332" lon="6.74775">
        <ele>359</ele>
        <time>2016-02-07T10:10:40.000Z</time>
      </trkpt>
      <trkpt lat="47.49331" lon="6.74778">
        <ele>359</ele>
        <time>2016-02-07T10:10:41.000Z</time>
      </trkpt>
      <trkpt lat="47.49331" lon="6.74783">
        <ele>359</ele>
        <time>2016-02-07T10:10:42.000Z</time>
      </trkpt>
      <trkpt lat="47.49331" lon="6.74788">
        <ele>359</ele>
        <time>2016-02-07T10:10:43.000Z</time>
      </trkpt>
      <trkpt lat="47.49331" lon="6.74794">
        <ele>359</ele>
        <time>2016-02-07T10:10:44.000Z</time>
      </trkpt>
      <trkpt lat="47.49333" lon="6.74816">
        <ele>356</ele>
        <time>2016-02-07T10:10:45.000Z</time>
      </trkpt>
      <trkpt lat="47.49334" lon="6.74824">
        <ele>348</ele>
        <time>2016-02-07T10:10:46.000Z</time>
      </trkpt>
      <trkpt lat="47.49333" lon="6.74832">
        <ele>350</ele>
        <time>2016-02-07T10:10:47.000Z</time>
      </trkpt>
      <trkpt lat="47.49331" lon="6.7484">
        <ele>352</ele>
        <time>2016-02-07T10:10:48.000Z</time>
      </trkpt>
      <trkpt lat="47.4933" lon="6.74847">
        <ele>353</ele>
        <time>2016-02-07T10:10:49.000Z</time>
      </trkpt>
      <trkpt lat="47.4933" lon="6.74855">
        <ele>355</ele>
        <time>2016-02-07T10:10:50.000Z</time>
      </trkpt>
      <trkpt lat="47.49329" lon="6.74864">
        <ele>355</ele>
        <time>2016-02-07T10:10:51.000Z</time>
      </trkpt>
      <trkpt lat="47.49328" lon="6.74872">
        <ele>356</ele>
        <time>2016-02-07T10:10:52.000Z</time>
      </trkpt>
      <trkpt lat="47.49327" lon="6.74884">
        <ele>355</ele>
        <time>2016-02-07T10:10:53.000Z</time>
      </trkpt>
      <trkpt lat="47.49328" lon="6.74894">
        <ele>355</ele>
        <time>2016-02-07T10:10:54.000Z</time>
      </trkpt>
      <trkpt lat="47.4933" lon="6.74901">
        <ele>353</ele>
        <time>2016-02-07T10:10:55.000Z</time>
      </trkpt>
      <trkpt lat="47.49331" lon="6.7491">
        <ele>351</ele>
        <time>2016-02-07T10:10:56.000Z</time>
      </trkpt>
      <trkpt lat="47.4933" lon="6.74917">
        <ele>349</ele>
        <time>2016-02-07T10:10:57.000Z</time>
      </trkpt>
      <trkpt lat="47.49331" lon="6.74924">
        <ele>350</ele>
        <time>2016-02-07T10:10:58.000Z</time>
      </trkpt>
      <trkpt lat="47.49331" lon="6.74931">
        <ele>351</ele>
        <time>2016-02-07T10:10:59.000Z</time>
      </trkpt>
      <trkpt lat="47.49333" lon="6.74937">
        <ele>352</ele>
        <time>2016-02-07T10:11:00.000Z</time>
      </trkpt>
      <trkpt lat="47.49334" lon="6.74943">
        <ele>343</ele>
        <time>2016-02-07T10:11:01.000Z</time>
      </trkpt>
      <trkpt lat="47.49334" lon="6.74948">
        <ele>343</ele>
        <time>2016-02-07T10:11:02.000Z</time>
      </trkpt>
      <trkpt lat="47.49334" lon="6.74954">
        <ele>342</ele>
        <time>2016-02-07T10:11:03.000Z</time>
      </trkpt>
      <trkpt lat="47.49335" lon="6.74961">
        <ele>342</ele>
        <time>2016-02-07T10:11:04.000Z</time>
      </trkpt>
      <trkpt lat="47.49332" lon="6.74977">
        <ele>350</ele>
        <time>2016-02-07T10:11:05.000Z</time>
      </trkpt>
      <trkpt lat="47.49332" lon="6.74991">
        <ele>347</ele>
        <time>2016-02-07T10:11:06.000Z</time>
      </trkpt>
      <trkpt lat="47.49329" lon="6.75006">
        <ele>345</ele>
        <time>2016-02-07T10:11:07.000Z</time>
      </trkpt>
      <trkpt lat="47.49326" lon="6.75015">
        <ele>346</ele>
        <time>2016-02-07T10:11:08.000Z</time>
      </trkpt>
      <trkpt lat="47.49321" lon="6.75021">
        <ele>347</ele>
        <time>2016-02-07T10:11:09.000Z</time>
      </trkpt>
      <trkpt lat="47.49317" lon="6.75025">
        <ele>348</ele>
        <time>2016-02-07T10:11:10.000Z</time>
      </trkpt>
      <trkpt lat="47.49312" lon="6.75031">
        <ele>349</ele>
        <time>2016-02-07T10:11:11.000Z</time>
      </trkpt>
      <trkpt lat="47.49307" lon="6.75039">
        <ele>349</ele>
        <time>2016-02-07T10:11:12.000Z</time>
      </trkpt>
      <trkpt lat="47.49302" lon="6.75047">
        <ele>349</ele>
        <time>2016-02-07T10:11:13.000Z</time>
      </trkpt>
      <trkpt lat="47.49298" lon="6.75054">
        <ele>350</ele>
        <time>2016-02-07T10:11:14.000Z</time>
      </trkpt>
      <trkpt lat="47.49295" lon="6.75059">
        <ele>350</ele>
        <time>2016-02-07T10:11:15.000Z</time>
      </trkpt>
      <trkpt lat="47.49293" lon="6.75064">
        <ele>350</ele>
        <time>2016-02-07T10:11:16.000Z</time>
      </trkpt>
      <trkpt lat="47.49291" lon="6.75069">
        <ele>350</ele>
        <time>2016-02-07T10:11:17.000Z</time>
      </trkpt>
      <trkpt lat="47.49291" lon="6.75076">
        <ele>350</ele>
        <time>2016-02-07T10:11:18.000Z</time>
      </trkpt>
      <trkpt lat="47.4929" lon="6.75084">
        <ele>348</ele>
        <time>2016-02-07T10:11:19.000Z</time>
      </trkpt>
      <trkpt lat="47.4929" lon="6.7509">
        <ele>348</ele>
        <time>2016-02-07T10:11:20.000Z</time>
      </trkpt>
      <trkpt lat="47.49292" lon="6.75098">
        <ele>347</ele>
        <time>2016-02-07T10:11:21.000Z</time>
      </trkpt>
      <trkpt lat="47.49292" lon="6.75103">
        <ele>347</ele>
        <time>2016-02-07T10:11:22.000Z</time>
      </trkpt>
      <trkpt lat="47.49292" lon="6.75108">
        <ele>347</ele>
        <time>2016-02-07T10:11:23.000Z</time>
      </trkpt>
      <trkpt lat="47.49292" lon="6.75113">
        <ele>347</ele>
        <time>2016-02-07T10:11:24.000Z</time>
      </trkpt>
      <trkpt lat="47.49293" lon="6.75117">
        <ele>347</ele>
        <time>2016-02-07T10:11:25.000Z</time>
      </trkpt>
      <trkpt lat="47.49294" lon="6.75122">
        <ele>347</ele>
        <time>2016-02-07T10:11:26.000Z</time>
      </trkpt>
      <trkpt lat="47.49295" lon="6.75127">
        <ele>347</ele>
        <time>2016-02-07T10:11:27.000Z</time>
      </trkpt>
      <trkpt lat="47.49296" lon="6.75131">
        <ele>346</ele>
        <time>2016-02-07T10:11:28.000Z</time>
      </trkpt>
      <trkpt lat="47.49296" lon="6.75137">
        <ele>346</ele>
        <time>2016-02-07T10:11:29.000Z</time>
      </trkpt>
      <trkpt lat="47.49297" lon="6.75142">
        <ele>346</ele>
        <time>2016-02-07T10:11:30.000Z</time>
      </trkpt>
      <trkpt lat="47.49296" lon="6.75148">
        <ele>346</ele>
        <time>2016-02-07T10:11:31.000Z</time>
      </trkpt>
      <trkpt lat="47.49296" lon="6.75152">
        <ele>346</ele>
        <time>2016-02-07T10:11:32.000Z</time>
      </trkpt>
      <trkpt lat="47.49296" lon="6.75158">
        <ele>346</ele>
        <time>2016-02-07T10:11:33.000Z</time>
      </trkpt>
      <trkpt lat="47.49296" lon="6.75163">
        <ele>346</ele>
        <time>2016-02-07T10:11:34.000Z</time>
      </trkpt>
      <trkpt lat="47.49295" lon="6.75169">
        <ele>343</ele>
        <time>2016-02-07T10:11:35.000Z</time>
      </trkpt>
      <trkpt lat="47.49295" lon="6.75174">
        <ele>343</ele>
        <time>2016-02-07T10:11:36.000Z</time>
      </trkpt>
      <trkpt lat="47.49294" lon="6.75179">
        <ele>343</ele>
        <time>2016-02-07T10:11:37.000Z</time>
      </trkpt>
      <trkpt lat="47.49293" lon="6.75184">
        <ele>343</ele>
        <time>2016-02-07T10:11:38.000Z</time>
      </trkpt>
      <trkpt lat="47.49292" lon="6.75188">
        <ele>344</ele>
        <time>2016-02-07T10:11:39.000Z</time>
      </trkpt>
      <trkpt lat="47.49292" lon="6.75193">
        <ele>343</ele>
        <time>2016-02-07T10:11:40.000Z</time>
      </trkpt>
      <trkpt lat="47.49291" lon="6.75198">
        <ele>343</ele>
        <time>2016-02-07T10:11:41.000Z</time>
      </trkpt>
      <trkpt lat="47.4929" lon="6.75202">
        <ele>343</ele>
        <time>2016-02-07T10:11:42.000Z</time>
      </trkpt>
      <trkpt lat="47.4929" lon="6.75207">
        <ele>343</ele>
        <time>2016-02-07T10:11:43.000Z</time>
      </trkpt>
      <trkpt lat="47.4929" lon="6.75212">
        <ele>343</ele>
        <time>2016-02-07T10:11:44.000Z</time>
      </trkpt>
      <trkpt lat="47.49289" lon="6.75218">
        <ele>343</ele>
        <time>2016-02-07T10:11:45.000Z</time>
      </trkpt>
      <trkpt lat="47.49289" lon="6.75223">
        <ele>343</ele>
        <time>2016-02-07T10:11:46.000Z</time>
      </trkpt>
      <trkpt lat="47.49289" lon="6.75229">
        <ele>343</ele>
        <time>2016-02-07T10:11:47.000Z</time>
      </trkpt>
      <trkpt lat="47.49288" lon="6.75235">
        <ele>343</ele>
        <time>2016-02-07T10:11:48.000Z</time>
      </trkpt>
      <trkpt lat="47.49288" lon="6.75241">
        <ele>343</ele>
        <time>2016-02-07T10:11:49.000Z</time>
      </trkpt>
      <trkpt lat="47.49287" lon="6.75247">
        <ele>343</ele>
        <time>2016-02-07T10:11:50.000Z</time>
      </trkpt>
      <trkpt lat="47.49287" lon="6.75254">
        <ele>341</ele>
        <time>2016-02-07T10:11:51.000Z</time>
      </trkpt>
      <trkpt lat="47.49286" lon="6.7526">
        <ele>341</ele>
        <time>2016-02-07T10:11:52.000Z</time>
      </trkpt>
      <trkpt lat="47.49286" lon="6.75267">
        <ele>341</ele>
        <time>2016-02-07T10:11:53.000Z</time>
      </trkpt>
      <trkpt lat="47.49285" lon="6.75274">
        <ele>341</ele>
        <time>2016-02-07T10:11:54.000Z</time>
      </trkpt>
      <trkpt lat="47.49285" lon="6.75281">
        <ele>341</ele>
        <time>2016-02-07T10:11:55.000Z</time>
      </trkpt>
      <trkpt lat="47.49284" lon="6.75287">
        <ele>341</ele>
        <time>2016-02-07T10:11:56.000Z</time>
      </trkpt>
      <trkpt lat="47.49283" lon="6.75294">
        <ele>341</ele>
        <time>2016-02-07T10:11:57.000Z</time>
      </trkpt>
      <trkpt lat="47.49281" lon="6.753">
        <ele>341</ele>
        <time>2016-02-07T10:11:58.000Z</time>
      </trkpt>
      <trkpt lat="47.49278" lon="6.75309">
        <ele>341</ele>
        <time>2016-02-07T10:11:59.000Z</time>
      </trkpt>
      <trkpt lat="47.49276" lon="6.75318">
        <ele>342</ele>
        <time>2016-02-07T10:12:00.000Z</time>
      </trkpt>
      <trkpt lat="47.49274" lon="6.75326">
        <ele>342</ele>
        <time>2016-02-07T10:12:01.000Z</time>
      </trkpt>
      <trkpt lat="47.49272" lon="6.75336">
        <ele>342</ele>
        <time>2016-02-07T10:12:02.000Z</time>
      </trkpt>
      <trkpt lat="47.49272" lon="6.75344">
        <ele>341</ele>
        <time>2016-02-07T10:12:03.000Z</time>
      </trkpt>
      <trkpt lat="47.49274" lon="6.75375">
        <ele>340</ele>
        <time>2016-02-07T10:12:04.000Z</time>
      </trkpt>
      <trkpt lat="47.49274" lon="6.7538">
        <ele>340</ele>
        <time>2016-02-07T10:12:05.000Z</time>
      </trkpt>
      <trkpt lat="47.49274" lon="6.75385">
        <ele>340</ele>
        <time>2016-02-07T10:12:06.000Z</time>
      </trkpt>
      <trkpt lat="47.49273" lon="6.7539">
        <ele>340</ele>
        <time>2016-02-07T10:12:07.000Z</time>
      </trkpt>
      <trkpt lat="47.49272" lon="6.75396">
        <ele>340</ele>
        <time>2016-02-07T10:12:08.000Z</time>
      </trkpt>
      <trkpt lat="47.49271" lon="6.754">
        <ele>340</ele>
        <time>2016-02-07T10:12:09.000Z</time>
      </trkpt>
      <trkpt lat="47.4927" lon="6.75405">
        <ele>340</ele>
        <time>2016-02-07T10:12:10.000Z</time>
      </trkpt>
      <trkpt lat="47.49269" lon="6.75411">
        <ele>341</ele>
        <time>2016-02-07T10:12:11.000Z</time>
      </trkpt>
      <trkpt lat="47.49269" lon="6.75416">
        <ele>341</ele>
        <time>2016-02-07T10:12:12.000Z</time>
      </trkpt>
      <trkpt lat="47.49267" lon="6.75422">
        <ele>339</ele>
        <time>2016-02-07T10:12:13.000Z</time>
      </trkpt>
      <trkpt lat="47.49266" lon="6.75428">
        <ele>339</ele>
        <time>2016-02-07T10:12:14.000Z</time>
      </trkpt>
      <trkpt lat="47.49265" lon="6.75434">
        <ele>338</ele>
        <time>2016-02-07T10:12:15.000Z</time>
      </trkpt>
      <trkpt lat="47.49264" lon="6.75439">
        <ele>338</ele>
        <time>2016-02-07T10:12:16.000Z</time>
      </trkpt>
      <trkpt lat="47.49263" lon="6.75443">
        <ele>338</ele>
        <time>2016-02-07T10:12:17.000Z</time>
      </trkpt>
      <trkpt lat="47.49263" lon="6.75446">
        <ele>338</ele>
        <time>2016-02-07T10:12:18.000Z</time>
      </trkpt>
      <trkpt lat="47.49262" lon="6.75452">
        <ele>337</ele>
        <time>2016-02-07T10:12:20.000Z</time>
      </trkpt>
      <trkpt lat="47.49261" lon="6.75456">
        <ele>337</ele>
        <time>2016-02-07T10:12:21.000Z</time>
      </trkpt>
      <trkpt lat="47.49261" lon="6.7546">
        <ele>337</ele>
        <time>2016-02-07T10:12:22.000Z</time>
      </trkpt>
      <trkpt lat="47.4926" lon="6.75465">
        <ele>337</ele>
        <time>2016-02-07T10:12:23.000Z</time>
      </trkpt>
      <trkpt lat="47.49259" lon="6.7547">
        <ele>337</ele>
        <time>2016-02-07T10:12:24.000Z</time>
      </trkpt>
      <trkpt lat="47.49259" lon="6.75476">
        <ele>337</ele>
        <time>2016-02-07T10:12:25.000Z</time>
      </trkpt>
      <trkpt lat="47.49258" lon="6.75481">
        <ele>337</ele>
        <time>2016-02-07T10:12:26.000Z</time>
      </trkpt>
      <trkpt lat="47.49258" lon="6.75486">
        <ele>337</ele>
        <time>2016-02-07T10:12:27.000Z</time>
      </trkpt>
      <trkpt lat="47.49257" lon="6.75491">
        <ele>337</ele>
        <time>2016-02-07T10:12:28.000Z</time>
      </trkpt>
      <trkpt lat="47.49256" lon="6.75496">
        <ele>338</ele>
        <time>2016-02-07T10:12:29.000Z</time>
      </trkpt>
      <trkpt lat="47.49255" lon="6.75501">
        <ele>337</ele>
        <time>2016-02-07T10:12:30.000Z</time>
      </trkpt>
      <trkpt lat="47.49253" lon="6.75507">
        <ele>336</ele>
        <time>2016-02-07T10:12:31.000Z</time>
      </trkpt>
      <trkpt lat="47.49251" lon="6.75514">
        <ele>335</ele>
        <time>2016-02-07T10:12:32.000Z</time>
      </trkpt>
      <trkpt lat="47.49249" lon="6.7552">
        <ele>343</ele>
        <time>2016-02-07T10:12:33.000Z</time>
      </trkpt>
      <trkpt lat="47.49246" lon="6.75527">
        <ele>343</ele>
        <time>2016-02-07T10:12:34.000Z</time>
      </trkpt>
      <trkpt lat="47.49244" lon="6.75533">
        <ele>344</ele>
        <time>2016-02-07T10:12:35.000Z</time>
      </trkpt>
      <trkpt lat="47.49241" lon="6.7554">
        <ele>344</ele>
        <time>2016-02-07T10:12:36.000Z</time>
      </trkpt>
      <trkpt lat="47.49238" lon="6.75546">
        <ele>343</ele>
        <time>2016-02-07T10:12:37.000Z</time>
      </trkpt>
      <trkpt lat="47.49235" lon="6.75553">
        <ele>343</ele>
        <time>2016-02-07T10:12:38.000Z</time>
      </trkpt>
      <trkpt lat="47.49232" lon="6.75559">
        <ele>343</ele>
        <time>2016-02-07T10:12:39.000Z</time>
      </trkpt>
      <trkpt lat="47.49229" lon="6.75564">
        <ele>343</ele>
        <time>2016-02-07T10:12:40.000Z</time>
      </trkpt>
      <trkpt lat="47.49227" lon="6.7557">
        <ele>343</ele>
        <time>2016-02-07T10:12:41.000Z</time>
      </trkpt>
      <trkpt lat="47.49225" lon="6.75575">
        <ele>343</ele>
        <time>2016-02-07T10:12:42.000Z</time>
      </trkpt>
      <trkpt lat="47.49223" lon="6.75581">
        <ele>343</ele>
        <time>2016-02-07T10:12:43.000Z</time>
      </trkpt>
      <trkpt lat="47.49221" lon="6.75586">
        <ele>339</ele>
        <time>2016-02-07T10:12:44.000Z</time>
      </trkpt>
      <trkpt lat="47.4922" lon="6.75591">
        <ele>339</ele>
        <time>2016-02-07T10:12:45.000Z</time>
      </trkpt>
      <trkpt lat="47.49218" lon="6.75597">
        <ele>339</ele>
        <time>2016-02-07T10:12:46.000Z</time>
      </trkpt>
      <trkpt lat="47.49216" lon="6.75602">
        <ele>340</ele>
        <time>2016-02-07T10:12:47.000Z</time>
      </trkpt>
      <trkpt lat="47.49214" lon="6.75608">
        <ele>340</ele>
        <time>2016-02-07T10:12:48.000Z</time>
      </trkpt>
      <trkpt lat="47.49212" lon="6.75614">
        <ele>340</ele>
        <time>2016-02-07T10:12:49.000Z</time>
      </trkpt>
      <trkpt lat="47.49211" lon="6.7562">
        <ele>340</ele>
        <time>2016-02-07T10:12:50.000Z</time>
      </trkpt>
      <trkpt lat="47.49209" lon="6.75626">
        <ele>340</ele>
        <time>2016-02-07T10:12:51.000Z</time>
      </trkpt>
      <trkpt lat="47.49208" lon="6.75633">
        <ele>339</ele>
        <time>2016-02-07T10:12:52.000Z</time>
      </trkpt>
      <trkpt lat="47.49206" lon="6.7564">
        <ele>339</ele>
        <time>2016-02-07T10:12:53.000Z</time>
      </trkpt>
      <trkpt lat="47.49204" lon="6.75647">
        <ele>339</ele>
        <time>2016-02-07T10:12:54.000Z</time>
      </trkpt>
      <trkpt lat="47.49202" lon="6.75654">
        <ele>340</ele>
        <time>2016-02-07T10:12:55.000Z</time>
      </trkpt>
      <trkpt lat="47.492" lon="6.75661">
        <ele>340</ele>
        <time>2016-02-07T10:12:56.000Z</time>
      </trkpt>
      <trkpt lat="47.49198" lon="6.75668">
        <ele>335</ele>
        <time>2016-02-07T10:12:57.000Z</time>
      </trkpt>
      <trkpt lat="47.49196" lon="6.75675">
        <ele>336</ele>
        <time>2016-02-07T10:12:58.000Z</time>
      </trkpt>
      <trkpt lat="47.49193" lon="6.75681">
        <ele>336</ele>
        <time>2016-02-07T10:12:59.000Z</time>
      </trkpt>
      <trkpt lat="47.49191" lon="6.75687">
        <ele>335</ele>
        <time>2016-02-07T10:13:00.000Z</time>
      </trkpt>
      <trkpt lat="47.49188" lon="6.75694">
        <ele>335</ele>
        <time>2016-02-07T10:13:01.000Z</time>
      </trkpt>
      <trkpt lat="47.49185" lon="6.757">
        <ele>335</ele>
        <time>2016-02-07T10:13:02.000Z</time>
      </trkpt>
      <trkpt lat="47.49183" lon="6.75706">
        <ele>334</ele>
        <time>2016-02-07T10:13:03.000Z</time>
      </trkpt>
      <trkpt lat="47.49181" lon="6.75712">
        <ele>334</ele>
        <time>2016-02-07T10:13:04.000Z</time>
      </trkpt>
      <trkpt lat="47.49179" lon="6.75717">
        <ele>334</ele>
        <time>2016-02-07T10:13:05.000Z</time>
      </trkpt>
      <trkpt lat="47.49176" lon="6.75723">
        <ele>334</ele>
        <time>2016-02-07T10:13:06.000Z</time>
      </trkpt>
      <trkpt lat="47.49174" lon="6.7573">
        <ele>334</ele>
        <time>2016-02-07T10:13:07.000Z</time>
      </trkpt>
      <trkpt lat="47.49171" lon="6.75736">
        <ele>334</ele>
        <time>2016-02-07T10:13:08.000Z</time>
      </trkpt>
      <trkpt lat="47.49169" lon="6.75742">
        <ele>334</ele>
        <time>2016-02-07T10:13:09.000Z</time>
      </trkpt>
      <trkpt lat="47.49168" lon="6.75748">
        <ele>335</ele>
        <time>2016-02-07T10:13:10.000Z</time>
      </trkpt>
      <trkpt lat="47.49166" lon="6.75753">
        <ele>336</ele>
        <time>2016-02-07T10:13:11.000Z</time>
      </trkpt>
      <trkpt lat="47.49164" lon="6.75758">
        <ele>336</ele>
        <time>2016-02-07T10:13:12.000Z</time>
      </trkpt>
      <trkpt lat="47.49162" lon="6.75764">
        <ele>337</ele>
        <time>2016-02-07T10:13:13.000Z</time>
      </trkpt>
      <trkpt lat="47.49161" lon="6.75769">
        <ele>337</ele>
        <time>2016-02-07T10:13:14.000Z</time>
      </trkpt>
      <trkpt lat="47.49159" lon="6.75773">
        <ele>337</ele>
        <time>2016-02-07T10:13:15.000Z</time>
      </trkpt>
      <trkpt lat="47.49157" lon="6.75778">
        <ele>337</ele>
        <time>2016-02-07T10:13:16.000Z</time>
      </trkpt>
      <trkpt lat="47.49155" lon="6.75783">
        <ele>337</ele>
        <time>2016-02-07T10:13:17.000Z</time>
      </trkpt>
      <trkpt lat="47.49154" lon="6.75788">
        <ele>337</ele>
        <time>2016-02-07T10:13:18.000Z</time>
      </trkpt>
      <trkpt lat="47.49153" lon="6.75792">
        <ele>337</ele>
        <time>2016-02-07T10:13:19.000Z</time>
      </trkpt>
      <trkpt lat="47.49152" lon="6.75797">
        <ele>336</ele>
        <time>2016-02-07T10:13:20.000Z</time>
      </trkpt>
      <trkpt lat="47.49152" lon="6.75802">
        <ele>336</ele>
        <time>2016-02-07T10:13:21.000Z</time>
      </trkpt>
      <trkpt lat="47.49151" lon="6.75807">
        <ele>336</ele>
        <time>2016-02-07T10:13:22.000Z</time>
      </trkpt>
      <trkpt lat="47.49151" lon="6.75811">
        <ele>335</ele>
        <time>2016-02-07T10:13:23.000Z</time>
      </trkpt>
      <trkpt lat="47.49151" lon="6.75815">
        <ele>334</ele>
        <time>2016-02-07T10:13:24.000Z</time>
      </trkpt>
      <trkpt lat="47.49151" lon="6.7582">
        <ele>334</ele>
        <time>2016-02-07T10:13:25.000Z</time>
      </trkpt>
      <trkpt lat="47.49151" lon="6.75824">
        <ele>333</ele>
        <time>2016-02-07T10:13:26.000Z</time>
      </trkpt>
      <trkpt lat="47.49151" lon="6.75829">
        <ele>333</ele>
        <time>2016-02-07T10:13:27.000Z</time>
      </trkpt>
      <trkpt lat="47.49151" lon="6.75834">
        <ele>330</ele>
        <time>2016-02-07T10:13:28.000Z</time>
      </trkpt>
      <trkpt lat="47.49151" lon="6.75839">
        <ele>330</ele>
        <time>2016-02-07T10:13:29.000Z</time>
      </trkpt>
      <trkpt lat="47.4915" lon="6.75844">
        <ele>330</ele>
        <time>2016-02-07T10:13:30.000Z</time>
      </trkpt>
      <trkpt lat="47.4915" lon="6.7585">
        <ele>330</ele>
        <time>2016-02-07T10:13:31.000Z</time>
      </trkpt>
      <trkpt lat="47.49149" lon="6.75855">
        <ele>331</ele>
        <time>2016-02-07T10:13:32.000Z</time>
      </trkpt>
      <trkpt lat="47.49148" lon="6.75861">
        <ele>331</ele>
        <time>2016-02-07T10:13:33.000Z</time>
      </trkpt>
      <trkpt lat="47.49147" lon="6.75867">
        <ele>331</ele>
        <time>2016-02-07T10:13:34.000Z</time>
      </trkpt>
      <trkpt lat="47.49145" lon="6.75872">
        <ele>331</ele>
        <time>2016-02-07T10:13:35.000Z</time>
      </trkpt>
      <trkpt lat="47.49144" lon="6.75876">
        <ele>331</ele>
        <time>2016-02-07T10:13:36.000Z</time>
      </trkpt>
      <trkpt lat="47.49142" lon="6.75881">
        <ele>331</ele>
        <time>2016-02-07T10:13:37.000Z</time>
      </trkpt>
      <trkpt lat="47.49141" lon="6.75886">
        <ele>331</ele>
        <time>2016-02-07T10:13:38.000Z</time>
      </trkpt>
      <trkpt lat="47.49139" lon="6.7589">
        <ele>331</ele>
        <time>2016-02-07T10:13:39.000Z</time>
      </trkpt>
      <trkpt lat="47.49137" lon="6.75895">
        <ele>331</ele>
        <time>2016-02-07T10:13:40.000Z</time>
      </trkpt>
      <trkpt lat="47.49135" lon="6.75901">
        <ele>331</ele>
        <time>2016-02-07T10:13:41.000Z</time>
      </trkpt>
      <trkpt lat="47.49132" lon="6.75907">
        <ele>331</ele>
        <time>2016-02-07T10:13:42.000Z</time>
      </trkpt>
      <trkpt lat="47.4913" lon="6.75914">
        <ele>331</ele>
        <time>2016-02-07T10:13:43.000Z</time>
      </trkpt>
      <trkpt lat="47.49127" lon="6.75921">
        <ele>329</ele>
        <time>2016-02-07T10:13:44.000Z</time>
      </trkpt>
      <trkpt lat="47.49125" lon="6.7593">
        <ele>329</ele>
        <time>2016-02-07T10:13:45.000Z</time>
      </trkpt>
      <trkpt lat="47.49122" lon="6.75938">
        <ele>329</ele>
        <time>2016-02-07T10:13:46.000Z</time>
      </trkpt>
      <trkpt lat="47.4912" lon="6.75946">
        <ele>329</ele>
        <time>2016-02-07T10:13:47.000Z</time>
      </trkpt>
      <trkpt lat="47.49118" lon="6.75955">
        <ele>329</ele>
        <time>2016-02-07T10:13:48.000Z</time>
      </trkpt>
      <trkpt lat="47.49114" lon="6.75976">
        <ele>329</ele>
        <time>2016-02-07T10:13:49.000Z</time>
      </trkpt>
      <trkpt lat="47.49112" lon="6.75982">
        <ele>329</ele>
        <time>2016-02-07T10:13:50.000Z</time>
      </trkpt>
      <trkpt lat="47.49108" lon="6.75988">
        <ele>329</ele>
        <time>2016-02-07T10:13:51.000Z</time>
      </trkpt>
      <trkpt lat="47.49105" lon="6.75996">
        <ele>330</ele>
        <time>2016-02-07T10:13:52.000Z</time>
      </trkpt>
      <trkpt lat="47.49103" lon="6.76005">
        <ele>328</ele>
        <time>2016-02-07T10:13:53.000Z</time>
      </trkpt>
      <trkpt lat="47.49101" lon="6.76013">
        <ele>328</ele>
        <time>2016-02-07T10:13:54.000Z</time>
      </trkpt>
      <trkpt lat="47.49101" lon="6.76021">
        <ele>327</ele>
        <time>2016-02-07T10:13:55.000Z</time>
      </trkpt>
      <trkpt lat="47.491" lon="6.76027">
        <ele>327</ele>
        <time>2016-02-07T10:13:56.000Z</time>
      </trkpt>
      <trkpt lat="47.49099" lon="6.76032">
        <ele>327</ele>
        <time>2016-02-07T10:13:57.000Z</time>
      </trkpt>
      <trkpt lat="47.49098" lon="6.76037">
        <ele>326</ele>
        <time>2016-02-07T10:13:58.000Z</time>
      </trkpt>
      <trkpt lat="47.49095" lon="6.76045">
        <ele>326</ele>
        <time>2016-02-07T10:13:59.000Z</time>
      </trkpt>
      <trkpt lat="47.49094" lon="6.76054">
        <ele>326</ele>
        <time>2016-02-07T10:14:00.000Z</time>
      </trkpt>
      <trkpt lat="47.49094" lon="6.7606">
        <ele>326</ele>
        <time>2016-02-07T10:14:01.000Z</time>
      </trkpt>
      <trkpt lat="47.49091" lon="6.7607">
        <ele>327</ele>
        <time>2016-02-07T10:14:02.000Z</time>
      </trkpt>
      <trkpt lat="47.49092" lon="6.76078">
        <ele>327</ele>
        <time>2016-02-07T10:14:03.000Z</time>
      </trkpt>
      <trkpt lat="47.4909" lon="6.76085">
        <ele>327</ele>
        <time>2016-02-07T10:14:04.000Z</time>
      </trkpt>
      <trkpt lat="47.49088" lon="6.76095">
        <ele>326</ele>
        <time>2016-02-07T10:14:05.000Z</time>
      </trkpt>
      <trkpt lat="47.49088" lon="6.76102">
        <ele>325</ele>
        <time>2016-02-07T10:14:06.000Z</time>
      </trkpt>
      <trkpt lat="47.49091" lon="6.76111">
        <ele>324</ele>
        <time>2016-02-07T10:14:07.000Z</time>
      </trkpt>
      <trkpt lat="47.4909" lon="6.76118">
        <ele>324</ele>
        <time>2016-02-07T10:14:08.000Z</time>
      </trkpt>
      <trkpt lat="47.49091" lon="6.76126">
        <ele>323</ele>
        <time>2016-02-07T10:14:09.000Z</time>
      </trkpt>
      <trkpt lat="47.49092" lon="6.76134">
        <ele>323</ele>
        <time>2016-02-07T10:14:10.000Z</time>
      </trkpt>
      <trkpt lat="47.49093" lon="6.7614">
        <ele>323</ele>
        <time>2016-02-07T10:14:11.000Z</time>
      </trkpt>
      <trkpt lat="47.49092" lon="6.7615">
        <ele>323</ele>
        <time>2016-02-07T10:14:12.000Z</time>
      </trkpt>
      <trkpt lat="47.49091" lon="6.76154">
        <ele>323</ele>
        <time>2016-02-07T10:14:13.000Z</time>
      </trkpt>
      <trkpt lat="47.4909" lon="6.7616">
        <ele>324</ele>
        <time>2016-02-07T10:14:14.000Z</time>
      </trkpt>
      <trkpt lat="47.49092" lon="6.76166">
        <ele>324</ele>
        <time>2016-02-07T10:14:15.000Z</time>
      </trkpt>
      <trkpt lat="47.49092" lon="6.76171">
        <ele>323</ele>
        <time>2016-02-07T10:14:16.000Z</time>
      </trkpt>
      <trkpt lat="47.49092" lon="6.76177">
        <ele>323</ele>
        <time>2016-02-07T10:14:17.000Z</time>
      </trkpt>
      <trkpt lat="47.49091" lon="6.76183">
        <ele>323</ele>
        <time>2016-02-07T10:14:18.000Z</time>
      </trkpt>
      <trkpt lat="47.49091" lon="6.76189">
        <ele>322</ele>
        <time>2016-02-07T10:14:19.000Z</time>
      </trkpt>
      <trkpt lat="47.49091" lon="6.76195">
        <ele>322</ele>
        <time>2016-02-07T10:14:20.000Z</time>
      </trkpt>
      <trkpt lat="47.49091" lon="6.76201">
        <ele>322</ele>
        <time>2016-02-07T10:14:21.000Z</time>
      </trkpt>
      <trkpt lat="47.49092" lon="6.76207">
        <ele>322</ele>
        <time>2016-02-07T10:14:22.000Z</time>
      </trkpt>
      <trkpt lat="47.49092" lon="6.76213">
        <ele>322</ele>
        <time>2016-02-07T10:14:23.000Z</time>
      </trkpt>
      <trkpt lat="47.49093" lon="6.76219">
        <ele>322</ele>
        <time>2016-02-07T10:14:24.000Z</time>
      </trkpt>
      <trkpt lat="47.49094" lon="6.76225">
        <ele>322</ele>
        <time>2016-02-07T10:14:25.000Z</time>
      </trkpt>
      <trkpt lat="47.49095" lon="6.76231">
        <ele>323</ele>
        <time>2016-02-07T10:14:26.000Z</time>
      </trkpt>
      <trkpt lat="47.49096" lon="6.76237">
        <ele>323</ele>
        <time>2016-02-07T10:14:27.000Z</time>
      </trkpt>
      <trkpt lat="47.49096" lon="6.76243">
        <ele>323</ele>
        <time>2016-02-07T10:14:28.000Z</time>
      </trkpt>
      <trkpt lat="47.49097" lon="6.76249">
        <ele>323</ele>
        <time>2016-02-07T10:14:29.000Z</time>
      </trkpt>
      <trkpt lat="47.49097" lon="6.76255">
        <ele>323</ele>
        <time>2016-02-07T10:14:30.000Z</time>
      </trkpt>
      <trkpt lat="47.49098" lon="6.76262">
        <ele>322</ele>
        <time>2016-02-07T10:14:31.000Z</time>
      </trkpt>
      <trkpt lat="47.49098" lon="6.76269">
        <ele>322</ele>
        <time>2016-02-07T10:14:32.000Z</time>
      </trkpt>
      <trkpt lat="47.49099" lon="6.76276">
        <ele>321</ele>
        <time>2016-02-07T10:14:33.000Z</time>
      </trkpt>
      <trkpt lat="47.49099" lon="6.76284">
        <ele>321</ele>
        <time>2016-02-07T10:14:34.000Z</time>
      </trkpt>
      <trkpt lat="47.49099" lon="6.7629">
        <ele>321</ele>
        <time>2016-02-07T10:14:35.000Z</time>
      </trkpt>
      <trkpt lat="47.49099" lon="6.76296">
        <ele>321</ele>
        <time>2016-02-07T10:14:36.000Z</time>
      </trkpt>
      <trkpt lat="47.49099" lon="6.76302">
        <ele>321</ele>
        <time>2016-02-07T10:14:37.000Z</time>
      </trkpt>
      <trkpt lat="47.491" lon="6.76306">
        <ele>321</ele>
        <time>2016-02-07T10:14:38.000Z</time>
      </trkpt>
      <trkpt lat="47.491" lon="6.76311">
        <ele>321</ele>
        <time>2016-02-07T10:14:39.000Z</time>
      </trkpt>
      <trkpt lat="47.491" lon="6.76316">
        <ele>321</ele>
        <time>2016-02-07T10:14:40.000Z</time>
      </trkpt>
      <trkpt lat="47.491" lon="6.76322">
        <ele>321</ele>
        <time>2016-02-07T10:14:41.000Z</time>
      </trkpt>
      <trkpt lat="47.49101" lon="6.76328">
        <ele>321</ele>
        <time>2016-02-07T10:14:42.000Z</time>
      </trkpt>
      <trkpt lat="47.49101" lon="6.76334">
        <ele>320</ele>
        <time>2016-02-07T10:14:43.000Z</time>
      </trkpt>
      <trkpt lat="47.49102" lon="6.7634">
        <ele>320</ele>
        <time>2016-02-07T10:14:44.000Z</time>
      </trkpt>
      <trkpt lat="47.49102" lon="6.76346">
        <ele>320</ele>
        <time>2016-02-07T10:14:45.000Z</time>
      </trkpt>
      <trkpt lat="47.49102" lon="6.76353">
        <ele>319</ele>
        <time>2016-02-07T10:14:46.000Z</time>
      </trkpt>
      <trkpt lat="47.49101" lon="6.76361">
        <ele>319</ele>
        <time>2016-02-07T10:14:47.000Z</time>
      </trkpt>
      <trkpt lat="47.491" lon="6.76369">
        <ele>319</ele>
        <time>2016-02-07T10:14:48.000Z</time>
      </trkpt>
      <trkpt lat="47.49099" lon="6.76376">
        <ele>319</ele>
        <time>2016-02-07T10:14:49.000Z</time>
      </trkpt>
      <trkpt lat="47.49098" lon="6.76382">
        <ele>319</ele>
        <time>2016-02-07T10:14:50.000Z</time>
      </trkpt>
      <trkpt lat="47.49099" lon="6.76387">
        <ele>319</ele>
        <time>2016-02-07T10:14:51.000Z</time>
      </trkpt>
      <trkpt lat="47.491" lon="6.76392">
        <ele>319</ele>
        <time>2016-02-07T10:14:52.000Z</time>
      </trkpt>
      <trkpt lat="47.49102" lon="6.76395">
        <ele>319</ele>
        <time>2016-02-07T10:14:53.000Z</time>
      </trkpt>
      <trkpt lat="47.49104" lon="6.76398">
        <ele>319</ele>
        <time>2016-02-07T10:14:54.000Z</time>
      </trkpt>
      <trkpt lat="47.49106" lon="6.76401">
        <ele>319</ele>
        <time>2016-02-07T10:14:55.000Z</time>
      </trkpt>
      <trkpt lat="47.49109" lon="6.76403">
        <ele>319</ele>
        <time>2016-02-07T10:14:56.000Z</time>
      </trkpt>
      <trkpt lat="47.49111" lon="6.76405">
        <ele>318</ele>
        <time>2016-02-07T10:14:57.000Z</time>
      </trkpt>
      <trkpt lat="47.49115" lon="6.76407">
        <ele>318</ele>
        <time>2016-02-07T10:14:59.000Z</time>
      </trkpt>
      <trkpt lat="47.49116" lon="6.76408">
        <ele>318</ele>
        <time>2016-02-07T10:15:00.000Z</time>
      </trkpt>
      <trkpt lat="47.49118" lon="6.7641">
        <ele>318</ele>
        <time>2016-02-07T10:15:01.000Z</time>
      </trkpt>
      <trkpt lat="47.4912" lon="6.76413">
        <ele>318</ele>
        <time>2016-02-07T10:15:02.000Z</time>
      </trkpt>
      <trkpt lat="47.49121" lon="6.76416">
        <ele>318</ele>
        <time>2016-02-07T10:15:03.000Z</time>
      </trkpt>
      <trkpt lat="47.49121" lon="6.76421">
        <ele>317</ele>
        <time>2016-02-07T10:15:04.000Z</time>
      </trkpt>
      <trkpt lat="47.49121" lon="6.76425">
        <ele>317</ele>
        <time>2016-02-07T10:15:05.000Z</time>
      </trkpt>
      <trkpt lat="47.49121" lon="6.7643">
        <ele>317</ele>
        <time>2016-02-07T10:15:06.000Z</time>
      </trkpt>
      <trkpt lat="47.49121" lon="6.76434">
        <ele>317</ele>
        <time>2016-02-07T10:15:07.000Z</time>
      </trkpt>
      <trkpt lat="47.49121" lon="6.76439">
        <ele>317</ele>
        <time>2016-02-07T10:15:08.000Z</time>
      </trkpt>
      <trkpt lat="47.49121" lon="6.76444">
        <ele>317</ele>
        <time>2016-02-07T10:15:09.000Z</time>
      </trkpt>
      <trkpt lat="47.49121" lon="6.76448">
        <ele>317</ele>
        <time>2016-02-07T10:15:10.000Z</time>
      </trkpt>
      <trkpt lat="47.49121" lon="6.76454">
        <ele>317</ele>
        <time>2016-02-07T10:15:11.000Z</time>
      </trkpt>
      <trkpt lat="47.49121" lon="6.76459">
        <ele>317</ele>
        <time>2016-02-07T10:15:12.000Z</time>
      </trkpt>
      <trkpt lat="47.4912" lon="6.76465">
        <ele>317</ele>
        <time>2016-02-07T10:15:13.000Z</time>
      </trkpt>
      <trkpt lat="47.4912" lon="6.76471">
        <ele>317</ele>
        <time>2016-02-07T10:15:14.000Z</time>
      </trkpt>
      <trkpt lat="47.49119" lon="6.76478">
        <ele>317</ele>
        <time>2016-02-07T10:15:15.000Z</time>
      </trkpt>
      <trkpt lat="47.49119" lon="6.76484">
        <ele>317</ele>
        <time>2016-02-07T10:15:16.000Z</time>
      </trkpt>
      <trkpt lat="47.49119" lon="6.76489">
        <ele>317</ele>
        <time>2016-02-07T10:15:17.000Z</time>
      </trkpt>
      <trkpt lat="47.49118" lon="6.76495">
        <ele>317</ele>
        <time>2016-02-07T10:15:18.000Z</time>
      </trkpt>
      <trkpt lat="47.49118" lon="6.76501">
        <ele>317</ele>
        <time>2016-02-07T10:15:19.000Z</time>
      </trkpt>
      <trkpt lat="47.49117" lon="6.76506">
        <ele>317</ele>
        <time>2016-02-07T10:15:20.000Z</time>
      </trkpt>
      <trkpt lat="47.49117" lon="6.76512">
        <ele>317</ele>
        <time>2016-02-07T10:15:21.000Z</time>
      </trkpt>
      <trkpt lat="47.49118" lon="6.76524">
        <ele>316</ele>
        <time>2016-02-07T10:15:22.000Z</time>
      </trkpt>
      <trkpt lat="47.49118" lon="6.76532">
        <ele>316</ele>
        <time>2016-02-07T10:15:23.000Z</time>
      </trkpt>
      <trkpt lat="47.49117" lon="6.76538">
        <ele>316</ele>
        <time>2016-02-07T10:15:24.000Z</time>
      </trkpt>
      <trkpt lat="47.49118" lon="6.76545">
        <ele>316</ele>
        <time>2016-02-07T10:15:25.000Z</time>
      </trkpt>
      <trkpt lat="47.49117" lon="6.76551">
        <ele>316</ele>
        <time>2016-02-07T10:15:26.000Z</time>
      </trkpt>
      <trkpt lat="47.49118" lon="6.76556">
        <ele>316</ele>
        <time>2016-02-07T10:15:27.000Z</time>
      </trkpt>
      <trkpt lat="47.4912" lon="6.76562">
        <ele>316</ele>
        <time>2016-02-07T10:15:28.000Z</time>
      </trkpt>
      <trkpt lat="47.49121" lon="6.76569">
        <ele>316</ele>
        <time>2016-02-07T10:15:29.000Z</time>
      </trkpt>
      <trkpt lat="47.49122" lon="6.76576">
        <ele>315</ele>
        <time>2016-02-07T10:15:30.000Z</time>
      </trkpt>
      <trkpt lat="47.49123" lon="6.7658">
        <ele>315</ele>
        <time>2016-02-07T10:15:31.000Z</time>
      </trkpt>
      <trkpt lat="47.49124" lon="6.76585">
        <ele>314</ele>
        <time>2016-02-07T10:15:32.000Z</time>
      </trkpt>
      <trkpt lat="47.49124" lon="6.7659">
        <ele>314</ele>
        <time>2016-02-07T10:15:33.000Z</time>
      </trkpt>
      <trkpt lat="47.49125" lon="6.76594">
        <ele>314</ele>
        <time>2016-02-07T10:15:34.000Z</time>
      </trkpt>
      <trkpt lat="47.49125" lon="6.76599">
        <ele>314</ele>
        <time>2016-02-07T10:15:35.000Z</time>
      </trkpt>
      <trkpt lat="47.49126" lon="6.76605">
        <ele>314</ele>
        <time>2016-02-07T10:15:36.000Z</time>
      </trkpt>
      <trkpt lat="47.49128" lon="6.76611">
        <ele>314</ele>
        <time>2016-02-07T10:15:37.000Z</time>
      </trkpt>
      <trkpt lat="47.49129" lon="6.76617">
        <ele>314</ele>
        <time>2016-02-07T10:15:38.000Z</time>
      </trkpt>
      <trkpt lat="47.49131" lon="6.76623">
        <ele>314</ele>
        <time>2016-02-07T10:15:39.000Z</time>
      </trkpt>
      <trkpt lat="47.49133" lon="6.76631">
        <ele>314</ele>
        <time>2016-02-07T10:15:40.000Z</time>
      </trkpt>
      <trkpt lat="47.49134" lon="6.76638">
        <ele>314</ele>
        <time>2016-02-07T10:15:41.000Z</time>
      </trkpt>
      <trkpt lat="47.49135" lon="6.76644">
        <ele>314</ele>
        <time>2016-02-07T10:15:42.000Z</time>
      </trkpt>
      <trkpt lat="47.49135" lon="6.7665">
        <ele>314</ele>
        <time>2016-02-07T10:15:43.000Z</time>
      </trkpt>
      <trkpt lat="47.49135" lon="6.76657">
        <ele>314</ele>
        <time>2016-02-07T10:15:44.000Z</time>
      </trkpt>
      <trkpt lat="47.49136" lon="6.76664">
        <ele>314</ele>
        <time>2016-02-07T10:15:45.000Z</time>
      </trkpt>
      <trkpt lat="47.49138" lon="6.76671">
        <ele>314</ele>
        <time>2016-02-07T10:15:46.000Z</time>
      </trkpt>
      <trkpt lat="47.49138" lon="6.76678">
        <ele>314</ele>
        <time>2016-02-07T10:15:47.000Z</time>
      </trkpt>
      <trkpt lat="47.49139" lon="6.76684">
        <ele>313</ele>
        <time>2016-02-07T10:15:48.000Z</time>
      </trkpt>
      <trkpt lat="47.4914" lon="6.76691">
        <ele>313</ele>
        <time>2016-02-07T10:15:49.000Z</time>
      </trkpt>
      <trkpt lat="47.49141" lon="6.76697">
        <ele>313</ele>
        <time>2016-02-07T10:15:50.000Z</time>
      </trkpt>
      <trkpt lat="47.49142" lon="6.76704">
        <ele>313</ele>
        <time>2016-02-07T10:15:51.000Z</time>
      </trkpt>
      <trkpt lat="47.49142" lon="6.76711">
        <ele>313</ele>
        <time>2016-02-07T10:15:52.000Z</time>
      </trkpt>
      <trkpt lat="47.49143" lon="6.76718">
        <ele>313</ele>
        <time>2016-02-07T10:15:53.000Z</time>
      </trkpt>
      <trkpt lat="47.49144" lon="6.76725">
        <ele>313</ele>
        <time>2016-02-07T10:15:54.000Z</time>
      </trkpt>
      <trkpt lat="47.49145" lon="6.76733">
        <ele>313</ele>
        <time>2016-02-07T10:15:55.000Z</time>
      </trkpt>
      <trkpt lat="47.49145" lon="6.76739">
        <ele>313</ele>
        <time>2016-02-07T10:15:56.000Z</time>
      </trkpt>
      <trkpt lat="47.49146" lon="6.76746">
        <ele>313</ele>
        <time>2016-02-07T10:15:57.000Z</time>
      </trkpt>
      <trkpt lat="47.49146" lon="6.76752">
        <ele>313</ele>
        <time>2016-02-07T10:15:58.000Z</time>
      </trkpt>
      <trkpt lat="47.49146" lon="6.76759">
        <ele>313</ele>
        <time>2016-02-07T10:15:59.000Z</time>
      </trkpt>
      <trkpt lat="47.49146" lon="6.76766">
        <ele>313</ele>
        <time>2016-02-07T10:16:00.000Z</time>
      </trkpt>
      <trkpt lat="47.49147" lon="6.76773">
        <ele>312</ele>
        <time>2016-02-07T10:16:01.000Z</time>
      </trkpt>
      <trkpt lat="47.49148" lon="6.76778">
        <ele>312</ele>
        <time>2016-02-07T10:16:02.000Z</time>
      </trkpt>
      <trkpt lat="47.49151" lon="6.76783">
        <ele>312</ele>
        <time>2016-02-07T10:16:03.000Z</time>
      </trkpt>
      <trkpt lat="47.49153" lon="6.76787">
        <ele>312</ele>
        <time>2016-02-07T10:16:04.000Z</time>
      </trkpt>
      <trkpt lat="47.49156" lon="6.76789">
        <ele>312</ele>
        <time>2016-02-07T10:16:05.000Z</time>
      </trkpt>
      <trkpt lat="47.4916" lon="6.7679">
        <ele>313</ele>
        <time>2016-02-07T10:16:06.000Z</time>
      </trkpt>
      <trkpt lat="47.49163" lon="6.7679">
        <ele>313</ele>
        <time>2016-02-07T10:16:07.000Z</time>
      </trkpt>
      <trkpt lat="47.49166" lon="6.76787">
        <ele>313</ele>
        <time>2016-02-07T10:16:08.000Z</time>
      </trkpt>
      <trkpt lat="47.49169" lon="6.76783">
        <ele>314</ele>
        <time>2016-02-07T10:16:09.000Z</time>
      </trkpt>
      <trkpt lat="47.49173" lon="6.76781">
        <ele>314</ele>
        <time>2016-02-07T10:16:10.000Z</time>
      </trkpt>
      <trkpt lat="47.49176" lon="6.76779">
        <ele>314</ele>
        <time>2016-02-07T10:16:11.000Z</time>
      </trkpt>
      <trkpt lat="47.49179" lon="6.76776">
        <ele>314</ele>
        <time>2016-02-07T10:16:12.000Z</time>
      </trkpt>
      <trkpt lat="47.49183" lon="6.76774">
        <ele>315</ele>
        <time>2016-02-07T10:16:13.000Z</time>
      </trkpt>
      <trkpt lat="47.49186" lon="6.76772">
        <ele>315</ele>
        <time>2016-02-07T10:16:14.000Z</time>
      </trkpt>
      <trkpt lat="47.4919" lon="6.7677">
        <ele>315</ele>
        <time>2016-02-07T10:16:15.000Z</time>
      </trkpt>
      <trkpt lat="47.49193" lon="6.76767">
        <ele>315</ele>
        <time>2016-02-07T10:16:16.000Z</time>
      </trkpt>
      <trkpt lat="47.49197" lon="6.76765">
        <ele>315</ele>
        <time>2016-02-07T10:16:17.000Z</time>
      </trkpt>
      <trkpt lat="47.492" lon="6.76763">
        <ele>315</ele>
        <time>2016-02-07T10:16:18.000Z</time>
      </trkpt>
      <trkpt lat="47.49204" lon="6.7676">
        <ele>315</ele>
        <time>2016-02-07T10:16:19.000Z</time>
      </trkpt>
      <trkpt lat="47.49207" lon="6.76758">
        <ele>315</ele>
        <time>2016-02-07T10:16:20.000Z</time>
      </trkpt>
      <trkpt lat="47.4921" lon="6.76756">
        <ele>315</ele>
        <time>2016-02-07T10:16:21.000Z</time>
      </trkpt>
      <trkpt lat="47.49213" lon="6.76754">
        <ele>316</ele>
        <time>2016-02-07T10:16:22.000Z</time>
      </trkpt>
      <trkpt lat="47.49215" lon="6.76753">
        <ele>316</ele>
        <time>2016-02-07T10:16:23.000Z</time>
      </trkpt>
      <trkpt lat="47.49219" lon="6.76749">
        <ele>316</ele>
        <time>2016-02-07T10:16:25.000Z</time>
      </trkpt>
      <trkpt lat="47.4922" lon="6.76748">
        <ele>316</ele>
        <time>2016-02-07T10:16:26.000Z</time>
      </trkpt>
      <trkpt lat="47.49224" lon="6.76748">
        <ele>317</ele>
        <time>2016-02-07T10:16:29.000Z</time>
      </trkpt>
      <trkpt lat="47.49226" lon="6.76747">
        <ele>317</ele>
        <time>2016-02-07T10:16:30.000Z</time>
      </trkpt>
      <trkpt lat="47.4923" lon="6.7675">
        <ele>316</ele>
        <time>2016-02-07T10:16:34.000Z</time>
      </trkpt>
      <trkpt lat="47.49231" lon="6.76751">
        <ele>316</ele>
        <time>2016-02-07T10:16:35.000Z</time>
      </trkpt>
      <trkpt lat="47.49235" lon="6.76751">
        <ele>317</ele>
        <time>2016-02-07T10:16:37.000Z</time>
      </trkpt>
      <trkpt lat="47.49237" lon="6.76749">
        <ele>317</ele>
        <time>2016-02-07T10:16:38.000Z</time>
      </trkpt>
      <trkpt lat="47.49239" lon="6.76746">
        <ele>317</ele>
        <time>2016-02-07T10:16:39.000Z</time>
      </trkpt>
      <trkpt lat="47.4924" lon="6.76743">
        <ele>317</ele>
        <time>2016-02-07T10:16:40.000Z</time>
      </trkpt>
      <trkpt lat="47.49241" lon="6.76739">
        <ele>317</ele>
        <time>2016-02-07T10:16:41.000Z</time>
      </trkpt>
      <trkpt lat="47.49241" lon="6.76734">
        <ele>317</ele>
        <time>2016-02-07T10:16:42.000Z</time>
      </trkpt>
      <trkpt lat="47.4924" lon="6.7673">
        <ele>317</ele>
        <time>2016-02-07T10:16:43.000Z</time>
      </trkpt>
      <trkpt lat="47.4924" lon="6.76726">
        <ele>317</ele>
        <time>2016-02-07T10:16:44.000Z</time>
      </trkpt>
      <trkpt lat="47.4924" lon="6.76722">
        <ele>317</ele>
        <time>2016-02-07T10:16:45.000Z</time>
      </trkpt>
      <trkpt lat="47.4924" lon="6.76718">
        <ele>317</ele>
        <time>2016-02-07T10:16:46.000Z</time>
      </trkpt>
      <trkpt lat="47.4924" lon="6.76714">
        <ele>317</ele>
        <time>2016-02-07T10:16:47.000Z</time>
      </trkpt>
      <trkpt lat="47.4924" lon="6.76711">
        <ele>317</ele>
        <time>2016-02-07T10:16:48.000Z</time>
      </trkpt>
      <trkpt lat="47.4924" lon="6.76704">
        <ele>317</ele>
        <time>2016-02-07T10:16:50.000Z</time>
      </trkpt>
      <trkpt lat="47.4924" lon="6.76701">
        <ele>317</ele>
        <time>2016-02-07T10:16:51.000Z</time>
      </trkpt>
      <trkpt lat="47.4924" lon="6.76695">
        <ele>317</ele>
        <time>2016-02-07T10:16:53.000Z</time>
      </trkpt>
      <trkpt lat="47.49241" lon="6.76691">
        <ele>317</ele>
        <time>2016-02-07T10:16:54.000Z</time>
      </trkpt>
      <trkpt lat="47.49241" lon="6.76688">
        <ele>317</ele>
        <time>2016-02-07T10:16:55.000Z</time>
      </trkpt>
      <trkpt lat="47.49241" lon="6.76684">
        <ele>317</ele>
        <time>2016-02-07T10:16:56.000Z</time>
      </trkpt>
      <trkpt lat="47.49241" lon="6.76681">
        <ele>318</ele>
        <time>2016-02-07T10:16:57.000Z</time>
      </trkpt>
      <trkpt lat="47.49241" lon="6.76678">
        <ele>318</ele>
        <time>2016-02-07T10:16:58.000Z</time>
      </trkpt>
      <trkpt lat="47.49242" lon="6.76671">
        <ele>318</ele>
        <time>2016-02-07T10:17:00.000Z</time>
      </trkpt>
      <trkpt lat="47.49243" lon="6.76669">
        <ele>318</ele>
        <time>2016-02-07T10:17:01.000Z</time>
      </trkpt>
      <trkpt lat="47.49244" lon="6.76664">
        <ele>318</ele>
        <time>2016-02-07T10:17:03.000Z</time>
      </trkpt>
      <trkpt lat="47.49245" lon="6.76662">
        <ele>318</ele>
        <time>2016-02-07T10:17:04.000Z</time>
      </trkpt>
      <trkpt lat="47.49247" lon="6.76658">
        <ele>318</ele>
        <time>2016-02-07T10:17:06.000Z</time>
      </trkpt>
      <trkpt lat="47.49248" lon="6.76656">
        <ele>318</ele>
        <time>2016-02-07T10:17:07.000Z</time>
      </trkpt>
      <trkpt lat="47.4925" lon="6.76652">
        <ele>318</ele>
        <time>2016-02-07T10:17:09.000Z</time>
      </trkpt>
      <trkpt lat="47.49251" lon="6.7665">
        <ele>322</ele>
        <time>2016-02-07T10:17:10.000Z</time>
      </trkpt>
      <trkpt lat="47.49253" lon="6.76646">
        <ele>323</ele>
        <time>2016-02-07T10:17:12.000Z</time>
      </trkpt>
      <trkpt lat="47.49254" lon="6.76644">
        <ele>323</ele>
        <time>2016-02-07T10:17:13.000Z</time>
      </trkpt>
      <trkpt lat="47.49256" lon="6.7664">
        <ele>323</ele>
        <time>2016-02-07T10:17:15.000Z</time>
      </trkpt>
      <trkpt lat="47.49257" lon="6.76639">
        <ele>324</ele>
        <time>2016-02-07T10:17:16.000Z</time>
      </trkpt>
      <trkpt lat="47.49259" lon="6.76634">
        <ele>324</ele>
        <time>2016-02-07T10:17:18.000Z</time>
      </trkpt>
      <trkpt lat="47.4926" lon="6.76632">
        <ele>324</ele>
        <time>2016-02-07T10:17:19.000Z</time>
      </trkpt>
      <trkpt lat="47.49262" lon="6.76629">
        <ele>324</ele>
        <time>2016-02-07T10:17:21.000Z</time>
      </trkpt>
      <trkpt lat="47.49263" lon="6.76627">
        <ele>324</ele>
        <time>2016-02-07T10:17:22.000Z</time>
      </trkpt>
      <trkpt lat="47.49266" lon="6.76622">
        <ele>325</ele>
        <time>2016-02-07T10:17:25.000Z</time>
      </trkpt>
      <trkpt lat="47.49266" lon="6.76621">
        <ele>325</ele>
        <time>2016-02-07T10:17:26.000Z</time>
      </trkpt>
      <trkpt lat="47.49269" lon="6.76616">
        <ele>325</ele>
        <time>2016-02-07T10:17:29.000Z</time>
      </trkpt>
      <trkpt lat="47.4927" lon="6.76615">
        <ele>325</ele>
        <time>2016-02-07T10:17:30.000Z</time>
      </trkpt>
      <trkpt lat="47.49273" lon="6.7661">
        <ele>325</ele>
        <time>2016-02-07T10:17:33.000Z</time>
      </trkpt>
      <trkpt lat="47.49274" lon="6.76608">
        <ele>325</ele>
        <time>2016-02-07T10:17:34.000Z</time>
      </trkpt>
      <trkpt lat="47.49276" lon="6.76604">
        <ele>325</ele>
        <time>2016-02-07T10:17:37.000Z</time>
      </trkpt>
      <trkpt lat="47.49278" lon="6.76602">
        <ele>325</ele>
        <time>2016-02-07T10:17:38.000Z</time>
      </trkpt>
      <trkpt lat="47.49281" lon="6.76599">
        <ele>326</ele>
        <time>2016-02-07T10:17:41.000Z</time>
      </trkpt>
      <trkpt lat="47.49283" lon="6.76599">
        <ele>326</ele>
        <time>2016-02-07T10:17:42.000Z</time>
      </trkpt>
      <trkpt lat="47.49286" lon="6.766">
        <ele>326</ele>
        <time>2016-02-07T10:17:44.000Z</time>
      </trkpt>
      <trkpt lat="47.49287" lon="6.766">
        <ele>326</ele>
        <time>2016-02-07T10:17:45.000Z</time>
      </trkpt>
      <trkpt lat="47.49291" lon="6.76601">
        <ele>327</ele>
        <time>2016-02-07T10:17:47.000Z</time>
      </trkpt>
      <trkpt lat="47.49292" lon="6.76601">
        <ele>327</ele>
        <time>2016-02-07T10:17:48.000Z</time>
      </trkpt>
      <trkpt lat="47.49295" lon="6.766">
        <ele>327</ele>
        <time>2016-02-07T10:17:50.000Z</time>
      </trkpt>
      <trkpt lat="47.49297" lon="6.76599">
        <ele>327</ele>
        <time>2016-02-07T10:17:51.000Z</time>
      </trkpt>
      <trkpt lat="47.493" lon="6.76598">
        <ele>328</ele>
        <time>2016-02-07T10:17:53.000Z</time>
      </trkpt>
      <trkpt lat="47.49302" lon="6.76598">
        <ele>328</ele>
        <time>2016-02-07T10:17:54.000Z</time>
      </trkpt>
      <trkpt lat="47.49305" lon="6.76597">
        <ele>329</ele>
        <time>2016-02-07T10:17:56.000Z</time>
      </trkpt>
      <trkpt lat="47.49307" lon="6.76597">
        <ele>329</ele>
        <time>2016-02-07T10:17:57.000Z</time>
      </trkpt>
      <trkpt lat="47.4931" lon="6.76598">
        <ele>329</ele>
        <time>2016-02-07T10:17:59.000Z</time>
      </trkpt>
      <trkpt lat="47.49312" lon="6.76598">
        <ele>329</ele>
        <time>2016-02-07T10:18:00.000Z</time>
      </trkpt>
      <trkpt lat="47.49315" lon="6.76599">
        <ele>330</ele>
        <time>2016-02-07T10:18:02.000Z</time>
      </trkpt>
      <trkpt lat="47.49317" lon="6.76599">
        <ele>330</ele>
        <time>2016-02-07T10:18:03.000Z</time>
      </trkpt>
      <trkpt lat="47.49321" lon="6.76599">
        <ele>330</ele>
        <time>2016-02-07T10:18:05.000Z</time>
      </trkpt>
      <trkpt lat="47.49322" lon="6.766">
        <ele>331</ele>
        <time>2016-02-07T10:18:06.000Z</time>
      </trkpt>
      <trkpt lat="47.49326" lon="6.766">
        <ele>331</ele>
        <time>2016-02-07T10:18:08.000Z</time>
      </trkpt>
      <trkpt lat="47.49327" lon="6.766">
        <ele>331</ele>
        <time>2016-02-07T10:18:09.000Z</time>
      </trkpt>
      <trkpt lat="47.49331" lon="6.76601">
        <ele>331</ele>
        <time>2016-02-07T10:18:12.000Z</time>
      </trkpt>
      <trkpt lat="47.49333" lon="6.76601">
        <ele>331</ele>
        <time>2016-02-07T10:18:13.000Z</time>
      </trkpt>
      <trkpt lat="47.49336" lon="6.76602">
        <ele>336</ele>
        <time>2016-02-07T10:18:15.000Z</time>
      </trkpt>
      <trkpt lat="47.49337" lon="6.76602">
        <ele>336</ele>
        <time>2016-02-07T10:18:16.000Z</time>
      </trkpt>
      <trkpt lat="47.49341" lon="6.76603">
        <ele>336</ele>
        <time>2016-02-07T10:18:18.000Z</time>
      </trkpt>
      <trkpt lat="47.49342" lon="6.76603">
        <ele>336</ele>
        <time>2016-02-07T10:18:19.000Z</time>
      </trkpt>
      <trkpt lat="47.49345" lon="6.76602">
        <ele>336</ele>
        <time>2016-02-07T10:18:21.000Z</time>
      </trkpt>
      <trkpt lat="47.49347" lon="6.76602">
        <ele>336</ele>
        <time>2016-02-07T10:18:22.000Z</time>
      </trkpt>
      <trkpt lat="47.49351" lon="6.76603">
        <ele>337</ele>
        <time>2016-02-07T10:18:24.000Z</time>
      </trkpt>
      <trkpt lat="47.49353" lon="6.76603">
        <ele>337</ele>
        <time>2016-02-07T10:18:25.000Z</time>
      </trkpt>
      <trkpt lat="47.49356" lon="6.76602">
        <ele>337</ele>
        <time>2016-02-07T10:18:27.000Z</time>
      </trkpt>
      <trkpt lat="47.49357" lon="6.76602">
        <ele>337</ele>
        <time>2016-02-07T10:18:28.000Z</time>
      </trkpt>
      <trkpt lat="47.49361" lon="6.76602">
        <ele>337</ele>
        <time>2016-02-07T10:18:31.000Z</time>
      </trkpt>
      <trkpt lat="47.49363" lon="6.76602">
        <ele>337</ele>
        <time>2016-02-07T10:18:32.000Z</time>
      </trkpt>
      <trkpt lat="47.49366" lon="6.76602">
        <ele>337</ele>
        <time>2016-02-07T10:18:34.000Z</time>
      </trkpt>
      <trkpt lat="47.49367" lon="6.76603">
        <ele>337</ele>
        <time>2016-02-07T10:18:35.000Z</time>
      </trkpt>
      <trkpt lat="47.4937" lon="6.76604">
        <ele>338</ele>
        <time>2016-02-07T10:18:37.000Z</time>
      </trkpt>
      <trkpt lat="47.49372" lon="6.76605">
        <ele>338</ele>
        <time>2016-02-07T10:18:38.000Z</time>
      </trkpt>
      <trkpt lat="47.49376" lon="6.76605">
        <ele>338</ele>
        <time>2016-02-07T10:18:41.000Z</time>
      </trkpt>
      <trkpt lat="47.49378" lon="6.76605">
        <ele>338</ele>
        <time>2016-02-07T10:18:42.000Z</time>
      </trkpt>
      <trkpt lat="47.49382" lon="6.76606">
        <ele>338</ele>
        <time>2016-02-07T10:18:45.000Z</time>
      </trkpt>
      <trkpt lat="47.49383" lon="6.76606">
        <ele>338</ele>
        <time>2016-02-07T10:18:46.000Z</time>
      </trkpt>
      <trkpt lat="47.49386" lon="6.76607">
        <ele>339</ele>
        <time>2016-02-07T10:18:48.000Z</time>
      </trkpt>
      <trkpt lat="47.49388" lon="6.76607">
        <ele>339</ele>
        <time>2016-02-07T10:18:49.000Z</time>
      </trkpt>
      <trkpt lat="47.49391" lon="6.76607">
        <ele>339</ele>
        <time>2016-02-07T10:18:51.000Z</time>
      </trkpt>
      <trkpt lat="47.49393" lon="6.76607">
        <ele>339</ele>
        <time>2016-02-07T10:18:52.000Z</time>
      </trkpt>
      <trkpt lat="47.49396" lon="6.76607">
        <ele>339</ele>
        <time>2016-02-07T10:18:54.000Z</time>
      </trkpt>
      <trkpt lat="47.49398" lon="6.76607">
        <ele>340</ele>
        <time>2016-02-07T10:18:55.000Z</time>
      </trkpt>
      <trkpt lat="47.49402" lon="6.76607">
        <ele>340</ele>
        <time>2016-02-07T10:18:57.000Z</time>
      </trkpt>
      <trkpt lat="47.49403" lon="6.76607">
        <ele>340</ele>
        <time>2016-02-07T10:18:58.000Z</time>
      </trkpt>
      <trkpt lat="47.49407" lon="6.76608">
        <ele>340</ele>
        <time>2016-02-07T10:19:00.000Z</time>
      </trkpt>
      <trkpt lat="47.49408" lon="6.76608">
        <ele>340</ele>
        <time>2016-02-07T10:19:01.000Z</time>
      </trkpt>
      <trkpt lat="47.49412" lon="6.76608">
        <ele>340</ele>
        <time>2016-02-07T10:19:03.000Z</time>
      </trkpt>
      <trkpt lat="47.49413" lon="6.76608">
        <ele>341</ele>
        <time>2016-02-07T10:19:04.000Z</time>
      </trkpt>
      <trkpt lat="47.49418" lon="6.76608">
        <ele>345</ele>
        <time>2016-02-07T10:19:07.000Z</time>
      </trkpt>
      <trkpt lat="47.49419" lon="6.76608">
        <ele>345</ele>
        <time>2016-02-07T10:19:08.000Z</time>
      </trkpt>
      <trkpt lat="47.49423" lon="6.76609">
        <ele>345</ele>
        <time>2016-02-07T10:19:11.000Z</time>
      </trkpt>
      <trkpt lat="47.49424" lon="6.7661">
        <ele>345</ele>
        <time>2016-02-07T10:19:12.000Z</time>
      </trkpt>
      <trkpt lat="47.49427" lon="6.76607">
        <ele>345</ele>
        <time>2016-02-07T10:19:16.000Z</time>
      </trkpt>
      <trkpt lat="47.49428" lon="6.76607">
        <ele>345</ele>
        <time>2016-02-07T10:19:17.000Z</time>
      </trkpt>
      <trkpt lat="47.49431" lon="6.76609">
        <ele>345</ele>
        <time>2016-02-07T10:19:19.000Z</time>
      </trkpt>
      <trkpt lat="47.49434" lon="6.7661">
        <ele>345</ele>
        <time>2016-02-07T10:19:20.000Z</time>
      </trkpt>
      <trkpt lat="47.49436" lon="6.7661">
        <ele>345</ele>
        <time>2016-02-07T10:19:21.000Z</time>
      </trkpt>
      <trkpt lat="47.49439" lon="6.76609">
        <ele>345</ele>
        <time>2016-02-07T10:19:22.000Z</time>
      </trkpt>
      <trkpt lat="47.49441" lon="6.76609">
        <ele>345</ele>
        <time>2016-02-07T10:19:23.000Z</time>
      </trkpt>
      <trkpt lat="47.49444" lon="6.76609">
        <ele>345</ele>
        <time>2016-02-07T10:19:24.000Z</time>
      </trkpt>
      <trkpt lat="47.49448" lon="6.76609">
        <ele>346</ele>
        <time>2016-02-07T10:19:26.000Z</time>
      </trkpt>
      <trkpt lat="47.49449" lon="6.76609">
        <ele>346</ele>
        <time>2016-02-07T10:19:27.000Z</time>
      </trkpt>
      <trkpt lat="47.49452" lon="6.76609">
        <ele>346</ele>
        <time>2016-02-07T10:19:29.000Z</time>
      </trkpt>
      <trkpt lat="47.49455" lon="6.76609">
        <ele>346</ele>
        <time>2016-02-07T10:19:30.000Z</time>
      </trkpt>
      <trkpt lat="47.49457" lon="6.76609">
        <ele>346</ele>
        <time>2016-02-07T10:19:31.000Z</time>
      </trkpt>
      <trkpt lat="47.4946" lon="6.76609">
        <ele>346</ele>
        <time>2016-02-07T10:19:32.000Z</time>
      </trkpt>
      <trkpt lat="47.49463" lon="6.7661">
        <ele>346</ele>
        <time>2016-02-07T10:19:33.000Z</time>
      </trkpt>
      <trkpt lat="47.49466" lon="6.7661">
        <ele>347</ele>
        <time>2016-02-07T10:19:34.000Z</time>
      </trkpt>
      <trkpt lat="47.49469" lon="6.7661">
        <ele>347</ele>
        <time>2016-02-07T10:19:35.000Z</time>
      </trkpt>
      <trkpt lat="47.49471" lon="6.7661">
        <ele>347</ele>
        <time>2016-02-07T10:19:36.000Z</time>
      </trkpt>
      <trkpt lat="47.49474" lon="6.7661">
        <ele>347</ele>
        <time>2016-02-07T10:19:37.000Z</time>
      </trkpt>
      <trkpt lat="47.49476" lon="6.7661">
        <ele>347</ele>
        <time>2016-02-07T10:19:38.000Z</time>
      </trkpt>
      <trkpt lat="47.49479" lon="6.7661">
        <ele>347</ele>
        <time>2016-02-07T10:19:39.000Z</time>
      </trkpt>
      <trkpt lat="47.49481" lon="6.76608">
        <ele>348</ele>
        <time>2016-02-07T10:19:40.000Z</time>
      </trkpt>
      <trkpt lat="47.49485" lon="6.76606">
        <ele>348</ele>
        <time>2016-02-07T10:19:42.000Z</time>
      </trkpt>
      <trkpt lat="47.49486" lon="6.76604">
        <ele>349</ele>
        <time>2016-02-07T10:19:43.000Z</time>
      </trkpt>
      <trkpt lat="47.49488" lon="6.766">
        <ele>349</ele>
        <time>2016-02-07T10:19:45.000Z</time>
      </trkpt>
      <trkpt lat="47.49489" lon="6.76598">
        <ele>350</ele>
        <time>2016-02-07T10:19:46.000Z</time>
      </trkpt>
      <trkpt lat="47.49492" lon="6.76595">
        <ele>351</ele>
        <time>2016-02-07T10:19:48.000Z</time>
      </trkpt>
      <trkpt lat="47.49493" lon="6.76595">
        <ele>351</ele>
        <time>2016-02-07T10:19:49.000Z</time>
      </trkpt>
      <trkpt lat="47.49497" lon="6.76594">
        <ele>351</ele>
        <time>2016-02-07T10:19:51.000Z</time>
      </trkpt>
      <trkpt lat="47.49498" lon="6.76594">
        <ele>352</ele>
        <time>2016-02-07T10:19:52.000Z</time>
      </trkpt>
      <trkpt lat="47.49501" lon="6.76592">
        <ele>355</ele>
        <time>2016-02-07T10:19:54.000Z</time>
      </trkpt>
      <trkpt lat="47.49503" lon="6.76592">
        <ele>355</ele>
        <time>2016-02-07T10:19:55.000Z</time>
      </trkpt>
      <trkpt lat="47.49506" lon="6.76591">
        <ele>355</ele>
        <time>2016-02-07T10:19:57.000Z</time>
      </trkpt>
      <trkpt lat="47.49508" lon="6.76591">
        <ele>355</ele>
        <time>2016-02-07T10:19:58.000Z</time>
      </trkpt>
      <trkpt lat="47.49511" lon="6.76589">
        <ele>355</ele>
        <time>2016-02-07T10:20:00.000Z</time>
      </trkpt>
      <trkpt lat="47.49512" lon="6.76589">
        <ele>355</ele>
        <time>2016-02-07T10:20:01.000Z</time>
      </trkpt>
      <trkpt lat="47.49516" lon="6.76589">
        <ele>355</ele>
        <time>2016-02-07T10:20:03.000Z</time>
      </trkpt>
      <trkpt lat="47.49517" lon="6.7659">
        <ele>355</ele>
        <time>2016-02-07T10:20:04.000Z</time>
      </trkpt>
      <trkpt lat="47.49521" lon="6.7659">
        <ele>355</ele>
        <time>2016-02-07T10:20:07.000Z</time>
      </trkpt>
      <trkpt lat="47.49522" lon="6.7659">
        <ele>355</ele>
        <time>2016-02-07T10:20:08.000Z</time>
      </trkpt>
      <trkpt lat="47.49525" lon="6.76589">
        <ele>355</ele>
        <time>2016-02-07T10:20:10.000Z</time>
      </trkpt>
      <trkpt lat="47.49526" lon="6.76589">
        <ele>355</ele>
        <time>2016-02-07T10:20:11.000Z</time>
      </trkpt>
      <trkpt lat="47.49529" lon="6.76589">
        <ele>356</ele>
        <time>2016-02-07T10:20:13.000Z</time>
      </trkpt>
      <trkpt lat="47.49531" lon="6.76589">
        <ele>356</ele>
        <time>2016-02-07T10:20:14.000Z</time>
      </trkpt>
      <trkpt lat="47.49535" lon="6.76591">
        <ele>356</ele>
        <time>2016-02-07T10:20:17.000Z</time>
      </trkpt>
      <trkpt lat="47.49536" lon="6.76591">
        <ele>356</ele>
        <time>2016-02-07T10:20:18.000Z</time>
      </trkpt>
      <trkpt lat="47.4954" lon="6.7659">
        <ele>356</ele>
        <time>2016-02-07T10:20:21.000Z</time>
      </trkpt>
      <trkpt lat="47.49541" lon="6.76591">
        <ele>356</ele>
        <time>2016-02-07T10:20:22.000Z</time>
      </trkpt>
      <trkpt lat="47.49544" lon="6.76591">
        <ele>357</ele>
        <time>2016-02-07T10:20:25.000Z</time>
      </trkpt>
      <trkpt lat="47.49545" lon="6.76592">
        <ele>357</ele>
        <time>2016-02-07T10:20:26.000Z</time>
      </trkpt>
      <trkpt lat="47.49549" lon="6.76592">
        <ele>357</ele>
        <time>2016-02-07T10:20:29.000Z</time>
      </trkpt>
      <trkpt lat="47.4955" lon="6.76591">
        <ele>357</ele>
        <time>2016-02-07T10:20:30.000Z</time>
      </trkpt>
      <trkpt lat="47.49553" lon="6.76591">
        <ele>358</ele>
        <time>2016-02-07T10:20:33.000Z</time>
      </trkpt>
      <trkpt lat="47.49555" lon="6.76591">
        <ele>358</ele>
        <time>2016-02-07T10:20:34.000Z</time>
      </trkpt>
      <trkpt lat="47.49558" lon="6.76588">
        <ele>358</ele>
        <time>2016-02-07T10:20:37.000Z</time>
      </trkpt>
      <trkpt lat="47.49559" lon="6.76588">
        <ele>359</ele>
        <time>2016-02-07T10:20:38.000Z</time>
      </trkpt>
      <trkpt lat="47.49562" lon="6.76585">
        <ele>359</ele>
        <time>2016-02-07T10:20:41.000Z</time>
      </trkpt>
      <trkpt lat="47.49563" lon="6.76584">
        <ele>359</ele>
        <time>2016-02-07T10:20:42.000Z</time>
      </trkpt>
      <trkpt lat="47.49565" lon="6.76579">
        <ele>364</ele>
        <time>2016-02-07T10:20:46.000Z</time>
      </trkpt>
      <trkpt lat="47.49566" lon="6.76578">
        <ele>364</ele>
        <time>2016-02-07T10:20:47.000Z</time>
      </trkpt>
      <trkpt lat="47.49569" lon="6.76575">
        <ele>364</ele>
        <time>2016-02-07T10:20:50.000Z</time>
      </trkpt>
      <trkpt lat="47.4957" lon="6.76574">
        <ele>364</ele>
        <time>2016-02-07T10:20:51.000Z</time>
      </trkpt>
      <trkpt lat="47.49573" lon="6.7657">
        <ele>364</ele>
        <time>2016-02-07T10:20:54.000Z</time>
      </trkpt>
      <trkpt lat="47.49574" lon="6.76568">
        <ele>364</ele>
        <time>2016-02-07T10:20:55.000Z</time>
      </trkpt>
      <trkpt lat="47.49577" lon="6.76564">
        <ele>364</ele>
        <time>2016-02-07T10:20:58.000Z</time>
      </trkpt>
      <trkpt lat="47.49578" lon="6.76563">
        <ele>364</ele>
        <time>2016-02-07T10:20:59.000Z</time>
      </trkpt>
      <trkpt lat="47.49582" lon="6.76558">
        <ele>365</ele>
        <time>2016-02-07T10:21:02.000Z</time>
      </trkpt>
      <trkpt lat="47.49583" lon="6.76557">
        <ele>365</ele>
        <time>2016-02-07T10:21:03.000Z</time>
      </trkpt>
      <trkpt lat="47.49585" lon="6.76554">
        <ele>369</ele>
        <time>2016-02-07T10:21:05.000Z</time>
      </trkpt>
      <trkpt lat="47.49586" lon="6.76552">
        <ele>370</ele>
        <time>2016-02-07T10:21:06.000Z</time>
      </trkpt>
      <trkpt lat="47.49588" lon="6.76549">
        <ele>370</ele>
        <time>2016-02-07T10:21:08.000Z</time>
      </trkpt>
      <trkpt lat="47.4959" lon="6.76548">
        <ele>370</ele>
        <time>2016-02-07T10:21:09.000Z</time>
      </trkpt>
      <trkpt lat="47.49593" lon="6.76544">
        <ele>370</ele>
        <time>2016-02-07T10:21:12.000Z</time>
      </trkpt>
      <trkpt lat="47.49594" lon="6.76543">
        <ele>370</ele>
        <time>2016-02-07T10:21:13.000Z</time>
      </trkpt>
      <trkpt lat="47.49596" lon="6.76539">
        <ele>371</ele>
        <time>2016-02-07T10:21:15.000Z</time>
      </trkpt>
      <trkpt lat="47.49597" lon="6.76538">
        <ele>371</ele>
        <time>2016-02-07T10:21:16.000Z</time>
      </trkpt>
      <trkpt lat="47.496" lon="6.76532">
        <ele>371</ele>
        <time>2016-02-07T10:21:19.000Z</time>
      </trkpt>
      <trkpt lat="47.496" lon="6.76531">
        <ele>371</ele>
        <time>2016-02-07T10:21:20.000Z</time>
      </trkpt>
      <trkpt lat="47.49603" lon="6.76526">
        <ele>371</ele>
        <time>2016-02-07T10:21:23.000Z</time>
      </trkpt>
      <trkpt lat="47.49604" lon="6.76524">
        <ele>371</ele>
        <time>2016-02-07T10:21:24.000Z</time>
      </trkpt>
      <trkpt lat="47.49607" lon="6.7652">
        <ele>371</ele>
        <time>2016-02-07T10:21:27.000Z</time>
      </trkpt>
      <trkpt lat="47.49608" lon="6.76518">
        <ele>371</ele>
        <time>2016-02-07T10:21:28.000Z</time>
      </trkpt>
      <trkpt lat="47.4961" lon="6.76513">
        <ele>372</ele>
        <time>2016-02-07T10:21:31.000Z</time>
      </trkpt>
      <trkpt lat="47.49611" lon="6.76511">
        <ele>372</ele>
        <time>2016-02-07T10:21:32.000Z</time>
      </trkpt>
      <trkpt lat="47.49614" lon="6.76509">
        <ele>372</ele>
        <time>2016-02-07T10:21:34.000Z</time>
      </trkpt>
      <trkpt lat="47.49616" lon="6.76508">
        <ele>372</ele>
        <time>2016-02-07T10:21:35.000Z</time>
      </trkpt>
      <trkpt lat="47.49619" lon="6.76507">
        <ele>372</ele>
        <time>2016-02-07T10:21:37.000Z</time>
      </trkpt>
      <trkpt lat="47.4962" lon="6.76507">
        <ele>372</ele>
        <time>2016-02-07T10:21:38.000Z</time>
      </trkpt>
      <trkpt lat="47.49624" lon="6.76509">
        <ele>372</ele>
        <time>2016-02-07T10:21:40.000Z</time>
      </trkpt>
      <trkpt lat="47.49626" lon="6.7651">
        <ele>372</ele>
        <time>2016-02-07T10:21:41.000Z</time>
      </trkpt>
      <trkpt lat="47.49628" lon="6.76512">
        <ele>372</ele>
        <time>2016-02-07T10:21:42.000Z</time>
      </trkpt>
      <trkpt lat="47.4963" lon="6.76514">
        <ele>373</ele>
        <time>2016-02-07T10:21:43.000Z</time>
      </trkpt>
      <trkpt lat="47.49632" lon="6.76515">
        <ele>373</ele>
        <time>2016-02-07T10:21:44.000Z</time>
      </trkpt>
      <trkpt lat="47.49634" lon="6.76517">
        <ele>373</ele>
        <time>2016-02-07T10:21:45.000Z</time>
      </trkpt>
      <trkpt lat="47.49637" lon="6.76518">
        <ele>373</ele>
        <time>2016-02-07T10:21:46.000Z</time>
      </trkpt>
      <trkpt lat="47.49639" lon="6.7652">
        <ele>373</ele>
        <time>2016-02-07T10:21:47.000Z</time>
      </trkpt>
      <trkpt lat="47.49641" lon="6.76521">
        <ele>373</ele>
        <time>2016-02-07T10:21:48.000Z</time>
      </trkpt>
      <trkpt lat="47.49644" lon="6.76522">
        <ele>373</ele>
        <time>2016-02-07T10:21:49.000Z</time>
      </trkpt>
      <trkpt lat="47.49646" lon="6.76524">
        <ele>373</ele>
        <time>2016-02-07T10:21:50.000Z</time>
      </trkpt>
      <trkpt lat="47.49648" lon="6.76525">
        <ele>373</ele>
        <time>2016-02-07T10:21:51.000Z</time>
      </trkpt>
      <trkpt lat="47.49652" lon="6.76526">
        <ele>373</ele>
        <time>2016-02-07T10:21:53.000Z</time>
      </trkpt>
      <trkpt lat="47.49654" lon="6.76526">
        <ele>373</ele>
        <time>2016-02-07T10:21:54.000Z</time>
      </trkpt>
      <trkpt lat="47.49658" lon="6.76527">
        <ele>373</ele>
        <time>2016-02-07T10:21:56.000Z</time>
      </trkpt>
      <trkpt lat="47.4966" lon="6.76527">
        <ele>373</ele>
        <time>2016-02-07T10:21:57.000Z</time>
      </trkpt>
      <trkpt lat="47.49665" lon="6.76528">
        <ele>373</ele>
        <time>2016-02-07T10:21:59.000Z</time>
      </trkpt>
      <trkpt lat="47.49667" lon="6.76529">
        <ele>379</ele>
        <time>2016-02-07T10:22:00.000Z</time>
      </trkpt>
      <trkpt lat="47.4967" lon="6.76532">
        <ele>379</ele>
        <time>2016-02-07T10:22:02.000Z</time>
      </trkpt>
      <trkpt lat="47.49672" lon="6.76533">
        <ele>380</ele>
        <time>2016-02-07T10:22:03.000Z</time>
      </trkpt>
      <trkpt lat="47.49676" lon="6.76536">
        <ele>380</ele>
        <time>2016-02-07T10:22:05.000Z</time>
      </trkpt>
      <trkpt lat="47.49678" lon="6.76536">
        <ele>380</ele>
        <time>2016-02-07T10:22:06.000Z</time>
      </trkpt>
      <trkpt lat="47.49681" lon="6.76537">
        <ele>380</ele>
        <time>2016-02-07T10:22:07.000Z</time>
      </trkpt>
      <trkpt lat="47.49683" lon="6.76538">
        <ele>380</ele>
        <time>2016-02-07T10:22:08.000Z</time>
      </trkpt>
      <trkpt lat="47.49686" lon="6.76538">
        <ele>380</ele>
        <time>2016-02-07T10:22:09.000Z</time>
      </trkpt>
      <trkpt lat="47.49689" lon="6.76539">
        <ele>380</ele>
        <time>2016-02-07T10:22:10.000Z</time>
      </trkpt>
      <trkpt lat="47.49691" lon="6.7654">
        <ele>380</ele>
        <time>2016-02-07T10:22:11.000Z</time>
      </trkpt>
      <trkpt lat="47.49694" lon="6.7654">
        <ele>381</ele>
        <time>2016-02-07T10:22:12.000Z</time>
      </trkpt>
      <trkpt lat="47.49697" lon="6.76541">
        <ele>381</ele>
        <time>2016-02-07T10:22:13.000Z</time>
      </trkpt>
      <trkpt lat="47.497" lon="6.76542">
        <ele>381</ele>
        <time>2016-02-07T10:22:14.000Z</time>
      </trkpt>
      <trkpt lat="47.49703" lon="6.76543">
        <ele>381</ele>
        <time>2016-02-07T10:22:15.000Z</time>
      </trkpt>
      <trkpt lat="47.49706" lon="6.76543">
        <ele>382</ele>
        <time>2016-02-07T10:22:16.000Z</time>
      </trkpt>
      <trkpt lat="47.49709" lon="6.76544">
        <ele>382</ele>
        <time>2016-02-07T10:22:17.000Z</time>
      </trkpt>
      <trkpt lat="47.49712" lon="6.76545">
        <ele>382</ele>
        <time>2016-02-07T10:22:18.000Z</time>
      </trkpt>
      <trkpt lat="47.49714" lon="6.76546">
        <ele>382</ele>
        <time>2016-02-07T10:22:19.000Z</time>
      </trkpt>
      <trkpt lat="47.49717" lon="6.76547">
        <ele>382</ele>
        <time>2016-02-07T10:22:20.000Z</time>
      </trkpt>
      <trkpt lat="47.4972" lon="6.76549">
        <ele>382</ele>
        <time>2016-02-07T10:22:21.000Z</time>
      </trkpt>
      <trkpt lat="47.49723" lon="6.7655">
        <ele>383</ele>
        <time>2016-02-07T10:22:22.000Z</time>
      </trkpt>
      <trkpt lat="47.49726" lon="6.76552">
        <ele>383</ele>
        <time>2016-02-07T10:22:23.000Z</time>
      </trkpt>
      <trkpt lat="47.49728" lon="6.76553">
        <ele>383</ele>
        <time>2016-02-07T10:22:24.000Z</time>
      </trkpt>
      <trkpt lat="47.49731" lon="6.76554">
        <ele>383</ele>
        <time>2016-02-07T10:22:25.000Z</time>
      </trkpt>
      <trkpt lat="47.49734" lon="6.76555">
        <ele>383</ele>
        <time>2016-02-07T10:22:26.000Z</time>
      </trkpt>
      <trkpt lat="47.49737" lon="6.76556">
        <ele>383</ele>
        <time>2016-02-07T10:22:27.000Z</time>
      </trkpt>
      <trkpt lat="47.49739" lon="6.76557">
        <ele>384</ele>
        <time>2016-02-07T10:22:28.000Z</time>
      </trkpt>
      <trkpt lat="47.49742" lon="6.76559">
        <ele>384</ele>
        <time>2016-02-07T10:22:29.000Z</time>
      </trkpt>
      <trkpt lat="47.49745" lon="6.7656">
        <ele>384</ele>
        <time>2016-02-07T10:22:30.000Z</time>
      </trkpt>
      <trkpt lat="47.49747" lon="6.76562">
        <ele>384</ele>
        <time>2016-02-07T10:22:31.000Z</time>
      </trkpt>
      <trkpt lat="47.4975" lon="6.76563">
        <ele>384</ele>
        <time>2016-02-07T10:22:32.000Z</time>
      </trkpt>
      <trkpt lat="47.49752" lon="6.76564">
        <ele>390</ele>
        <time>2016-02-07T10:22:33.000Z</time>
      </trkpt>
      <trkpt lat="47.49755" lon="6.76566">
        <ele>390</ele>
        <time>2016-02-07T10:22:34.000Z</time>
      </trkpt>
      <trkpt lat="47.49757" lon="6.76567">
        <ele>390</ele>
        <time>2016-02-07T10:22:35.000Z</time>
      </trkpt>
      <trkpt lat="47.4976" lon="6.76569">
        <ele>390</ele>
        <time>2016-02-07T10:22:36.000Z</time>
      </trkpt>
      <trkpt lat="47.49762" lon="6.76571">
        <ele>390</ele>
        <time>2016-02-07T10:22:37.000Z</time>
      </trkpt>
      <trkpt lat="47.49765" lon="6.76573">
        <ele>390</ele>
        <time>2016-02-07T10:22:38.000Z</time>
      </trkpt>
      <trkpt lat="47.49768" lon="6.76575">
        <ele>390</ele>
        <time>2016-02-07T10:22:39.000Z</time>
      </trkpt>
      <trkpt lat="47.4977" lon="6.76576">
        <ele>391</ele>
        <time>2016-02-07T10:22:40.000Z</time>
      </trkpt>
      <trkpt lat="47.49773" lon="6.76577">
        <ele>391</ele>
        <time>2016-02-07T10:22:41.000Z</time>
      </trkpt>
      <trkpt lat="47.49775" lon="6.76579">
        <ele>391</ele>
        <time>2016-02-07T10:22:42.000Z</time>
      </trkpt>
      <trkpt lat="47.49777" lon="6.7658">
        <ele>391</ele>
        <time>2016-02-07T10:22:43.000Z</time>
      </trkpt>
      <trkpt lat="47.49779" lon="6.76581">
        <ele>392</ele>
        <time>2016-02-07T10:22:44.000Z</time>
      </trkpt>
      <trkpt lat="47.49782" lon="6.76582">
        <ele>392</ele>
        <time>2016-02-07T10:22:45.000Z</time>
      </trkpt>
      <trkpt lat="47.49784" lon="6.76584">
        <ele>387</ele>
        <time>2016-02-07T10:22:46.000Z</time>
      </trkpt>
      <trkpt lat="47.49786" lon="6.76585">
        <ele>388</ele>
        <time>2016-02-07T10:22:47.000Z</time>
      </trkpt>
      <trkpt lat="47.49788" lon="6.76587">
        <ele>388</ele>
        <time>2016-02-07T10:22:48.000Z</time>
      </trkpt>
      <trkpt lat="47.49791" lon="6.76588">
        <ele>388</ele>
        <time>2016-02-07T10:22:49.000Z</time>
      </trkpt>
      <trkpt lat="47.49793" lon="6.76589">
        <ele>388</ele>
        <time>2016-02-07T10:22:50.000Z</time>
      </trkpt>
      <trkpt lat="47.49795" lon="6.7659">
        <ele>388</ele>
        <time>2016-02-07T10:22:51.000Z</time>
      </trkpt>
      <trkpt lat="47.49797" lon="6.76592">
        <ele>388</ele>
        <time>2016-02-07T10:22:52.000Z</time>
      </trkpt>
      <trkpt lat="47.49801" lon="6.76594">
        <ele>389</ele>
        <time>2016-02-07T10:22:54.000Z</time>
      </trkpt>
      <trkpt lat="47.49804" lon="6.76594">
        <ele>389</ele>
        <time>2016-02-07T10:22:55.000Z</time>
      </trkpt>
      <trkpt lat="47.49806" lon="6.76595">
        <ele>389</ele>
        <time>2016-02-07T10:22:56.000Z</time>
      </trkpt>
      <trkpt lat="47.49808" lon="6.76595">
        <ele>390</ele>
        <time>2016-02-07T10:22:57.000Z</time>
      </trkpt>
      <trkpt lat="47.49811" lon="6.76596">
        <ele>390</ele>
        <time>2016-02-07T10:22:58.000Z</time>
      </trkpt>
      <trkpt lat="47.49813" lon="6.76597">
        <ele>390</ele>
        <time>2016-02-07T10:22:59.000Z</time>
      </trkpt>
      <trkpt lat="47.49817" lon="6.76599">
        <ele>390</ele>
        <time>2016-02-07T10:23:01.000Z</time>
      </trkpt>
      <trkpt lat="47.49819" lon="6.766">
        <ele>391</ele>
        <time>2016-02-07T10:23:02.000Z</time>
      </trkpt>
      <trkpt lat="47.49822" lon="6.76602">
        <ele>391</ele>
        <time>2016-02-07T10:23:04.000Z</time>
      </trkpt>
      <trkpt lat="47.49824" lon="6.76603">
        <ele>391</ele>
        <time>2016-02-07T10:23:05.000Z</time>
      </trkpt>
      <trkpt lat="47.49827" lon="6.76604">
        <ele>391</ele>
        <time>2016-02-07T10:23:07.000Z</time>
      </trkpt>
      <trkpt lat="47.49829" lon="6.76604">
        <ele>391</ele>
        <time>2016-02-07T10:23:08.000Z</time>
      </trkpt>
      <trkpt lat="47.49832" lon="6.76601">
        <ele>392</ele>
        <time>2016-02-07T10:23:11.000Z</time>
      </trkpt>
      <trkpt lat="47.49834" lon="6.76601">
        <ele>397</ele>
        <time>2016-02-07T10:23:12.000Z</time>
      </trkpt>
      <trkpt lat="47.49837" lon="6.766">
        <ele>397</ele>
        <time>2016-02-07T10:23:14.000Z</time>
      </trkpt>
      <trkpt lat="47.49838" lon="6.76599">
        <ele>397</ele>
        <time>2016-02-07T10:23:15.000Z</time>
      </trkpt>
      <trkpt lat="47.49842" lon="6.76599">
        <ele>397</ele>
        <time>2016-02-07T10:23:18.000Z</time>
      </trkpt>
      <trkpt lat="47.49844" lon="6.76598">
        <ele>397</ele>
        <time>2016-02-07T10:23:19.000Z</time>
      </trkpt>
      <trkpt lat="47.49847" lon="6.76598">
        <ele>397</ele>
        <time>2016-02-07T10:23:21.000Z</time>
      </trkpt>
      <trkpt lat="47.49848" lon="6.76597">
        <ele>397</ele>
        <time>2016-02-07T10:23:22.000Z</time>
      </trkpt>
      <trkpt lat="47.49852" lon="6.76596">
        <ele>398</ele>
        <time>2016-02-07T10:23:25.000Z</time>
      </trkpt>
      <trkpt lat="47.49854" lon="6.76596">
        <ele>398</ele>
        <time>2016-02-07T10:23:26.000Z</time>
      </trkpt>
      <trkpt lat="47.49858" lon="6.76595">
        <ele>398</ele>
        <time>2016-02-07T10:23:29.000Z</time>
      </trkpt>
      <trkpt lat="47.49859" lon="6.76595">
        <ele>398</ele>
        <time>2016-02-07T10:23:30.000Z</time>
      </trkpt>
      <trkpt lat="47.49863" lon="6.76593">
        <ele>398</ele>
        <time>2016-02-07T10:23:32.000Z</time>
      </trkpt>
      <trkpt lat="47.49865" lon="6.76593">
        <ele>398</ele>
        <time>2016-02-07T10:23:33.000Z</time>
      </trkpt>
      <trkpt lat="47.49868" lon="6.76592">
        <ele>399</ele>
        <time>2016-02-07T10:23:35.000Z</time>
      </trkpt>
      <trkpt lat="47.4987" lon="6.76591">
        <ele>399</ele>
        <time>2016-02-07T10:23:36.000Z</time>
      </trkpt>
      <trkpt lat="47.49873" lon="6.76589">
        <ele>399</ele>
        <time>2016-02-07T10:23:38.000Z</time>
      </trkpt>
      <trkpt lat="47.49875" lon="6.76588">
        <ele>399</ele>
        <time>2016-02-07T10:23:39.000Z</time>
      </trkpt>
      <trkpt lat="47.49878" lon="6.76587">
        <ele>400</ele>
        <time>2016-02-07T10:23:41.000Z</time>
      </trkpt>
      <trkpt lat="47.4988" lon="6.76586">
        <ele>400</ele>
        <time>2016-02-07T10:23:42.000Z</time>
      </trkpt>
      <trkpt lat="47.49883" lon="6.76584">
        <ele>400</ele>
        <time>2016-02-07T10:23:44.000Z</time>
      </trkpt>
      <trkpt lat="47.49884" lon="6.76584">
        <ele>400</ele>
        <time>2016-02-07T10:23:45.000Z</time>
      </trkpt>
      <trkpt lat="47.49887" lon="6.76582">
        <ele>404</ele>
        <time>2016-02-07T10:23:47.000Z</time>
      </trkpt>
      <trkpt lat="47.49889" lon="6.76582">
        <ele>404</ele>
        <time>2016-02-07T10:23:48.000Z</time>
      </trkpt>
      <trkpt lat="47.49892" lon="6.76579">
        <ele>405</ele>
        <time>2016-02-07T10:23:51.000Z</time>
      </trkpt>
      <trkpt lat="47.49893" lon="6.76579">
        <ele>405</ele>
        <time>2016-02-07T10:23:52.000Z</time>
      </trkpt>
      <trkpt lat="47.49897" lon="6.76578">
        <ele>405</ele>
        <time>2016-02-07T10:23:56.000Z</time>
      </trkpt>
      <trkpt lat="47.49898" lon="6.76577">
        <ele>405</ele>
        <time>2016-02-07T10:23:57.000Z</time>
      </trkpt>
      <trkpt lat="47.49901" lon="6.76578">
        <ele>405</ele>
        <time>2016-02-07T10:23:59.000Z</time>
      </trkpt>
      <trkpt lat="47.49903" lon="6.76578">
        <ele>405</ele>
        <time>2016-02-07T10:24:00.000Z</time>
      </trkpt>
      <trkpt lat="47.49907" lon="6.76578">
        <ele>406</ele>
        <time>2016-02-07T10:24:02.000Z</time>
      </trkpt>
      <trkpt lat="47.49909" lon="6.76579">
        <ele>406</ele>
        <time>2016-02-07T10:24:03.000Z</time>
      </trkpt>
      <trkpt lat="47.49913" lon="6.76578">
        <ele>406</ele>
        <time>2016-02-07T10:24:05.000Z</time>
      </trkpt>
      <trkpt lat="47.49915" lon="6.76577">
        <ele>406</ele>
        <time>2016-02-07T10:24:06.000Z</time>
      </trkpt>
      <trkpt lat="47.49918" lon="6.76576">
        <ele>408</ele>
        <time>2016-02-07T10:24:08.000Z</time>
      </trkpt>
      <trkpt lat="47.4992" lon="6.76576">
        <ele>408</ele>
        <time>2016-02-07T10:24:09.000Z</time>
      </trkpt>
      <trkpt lat="47.49923" lon="6.76577">
        <ele>408</ele>
        <time>2016-02-07T10:24:11.000Z</time>
      </trkpt>
      <trkpt lat="47.49925" lon="6.76577">
        <ele>408</ele>
        <time>2016-02-07T10:24:12.000Z</time>
      </trkpt>
      <trkpt lat="47.49928" lon="6.76577">
        <ele>409</ele>
        <time>2016-02-07T10:24:14.000Z</time>
      </trkpt>
      <trkpt lat="47.4993" lon="6.76576">
        <ele>409</ele>
        <time>2016-02-07T10:24:15.000Z</time>
      </trkpt>
      <trkpt lat="47.49934" lon="6.76576">
        <ele>409</ele>
        <time>2016-02-07T10:24:17.000Z</time>
      </trkpt>
      <trkpt lat="47.49936" lon="6.76576">
        <ele>409</ele>
        <time>2016-02-07T10:24:18.000Z</time>
      </trkpt>
      <trkpt lat="47.49939" lon="6.76575">
        <ele>410</ele>
        <time>2016-02-07T10:24:20.000Z</time>
      </trkpt>
      <trkpt lat="47.49941" lon="6.76574">
        <ele>410</ele>
        <time>2016-02-07T10:24:21.000Z</time>
      </trkpt>
      <trkpt lat="47.49945" lon="6.76573">
        <ele>410</ele>
        <time>2016-02-07T10:24:23.000Z</time>
      </trkpt>
      <trkpt lat="47.49947" lon="6.76573">
        <ele>410</ele>
        <time>2016-02-07T10:24:24.000Z</time>
      </trkpt>
      <trkpt lat="47.49952" lon="6.76573">
        <ele>410</ele>
        <time>2016-02-07T10:24:26.000Z</time>
      </trkpt>
      <trkpt lat="47.49954" lon="6.76573">
        <ele>411</ele>
        <time>2016-02-07T10:24:27.000Z</time>
      </trkpt>
      <trkpt lat="47.49958" lon="6.76574">
        <ele>411</ele>
        <time>2016-02-07T10:24:29.000Z</time>
      </trkpt>
      <trkpt lat="47.4996" lon="6.76574">
        <ele>411</ele>
        <time>2016-02-07T10:24:30.000Z</time>
      </trkpt>
      <trkpt lat="47.49963" lon="6.76574">
        <ele>411</ele>
        <time>2016-02-07T10:24:32.000Z</time>
      </trkpt>
      <trkpt lat="47.49965" lon="6.76573">
        <ele>411</ele>
        <time>2016-02-07T10:24:33.000Z</time>
      </trkpt>
      <trkpt lat="47.4997" lon="6.76571">
        <ele>411</ele>
        <time>2016-02-07T10:24:35.000Z</time>
      </trkpt>
      <trkpt lat="47.49972" lon="6.76571">
        <ele>411</ele>
        <time>2016-02-07T10:24:36.000Z</time>
      </trkpt>
      <trkpt lat="47.49974" lon="6.7657">
        <ele>412</ele>
        <time>2016-02-07T10:24:37.000Z</time>
      </trkpt>
      <trkpt lat="47.49976" lon="6.76569">
        <ele>412</ele>
        <time>2016-02-07T10:24:38.000Z</time>
      </trkpt>
      <trkpt lat="47.49979" lon="6.76568">
        <ele>412</ele>
        <time>2016-02-07T10:24:39.000Z</time>
      </trkpt>
      <trkpt lat="47.49981" lon="6.76568">
        <ele>412</ele>
        <time>2016-02-07T10:24:40.000Z</time>
      </trkpt>
      <trkpt lat="47.49984" lon="6.76569">
        <ele>412</ele>
        <time>2016-02-07T10:24:41.000Z</time>
      </trkpt>
      <trkpt lat="47.49987" lon="6.7657">
        <ele>412</ele>
        <time>2016-02-07T10:24:42.000Z</time>
      </trkpt>
      <trkpt lat="47.4999" lon="6.76571">
        <ele>412</ele>
        <time>2016-02-07T10:24:43.000Z</time>
      </trkpt>
      <trkpt lat="47.49993" lon="6.76572">
        <ele>412</ele>
        <time>2016-02-07T10:24:44.000Z</time>
      </trkpt>
      <trkpt lat="47.49996" lon="6.76573">
        <ele>412</ele>
        <time>2016-02-07T10:24:45.000Z</time>
      </trkpt>
      <trkpt lat="47.49998" lon="6.76574">
        <ele>413</ele>
        <time>2016-02-07T10:24:46.000Z</time>
      </trkpt>
      <trkpt lat="47.50001" lon="6.76574">
        <ele>413</ele>
        <time>2016-02-07T10:24:47.000Z</time>
      </trkpt>
      <trkpt lat="47.50004" lon="6.76574">
        <ele>413</ele>
        <time>2016-02-07T10:24:48.000Z</time>
      </trkpt>
      <trkpt lat="47.50007" lon="6.76574">
        <ele>413</ele>
        <time>2016-02-07T10:24:49.000Z</time>
      </trkpt>
      <trkpt lat="47.50009" lon="6.76574">
        <ele>413</ele>
        <time>2016-02-07T10:24:50.000Z</time>
      </trkpt>
      <trkpt lat="47.50012" lon="6.76574">
        <ele>413</ele>
        <time>2016-02-07T10:24:51.000Z</time>
      </trkpt>
      <trkpt lat="47.50014" lon="6.76573">
        <ele>413</ele>
        <time>2016-02-07T10:24:52.000Z</time>
      </trkpt>
      <trkpt lat="47.50017" lon="6.76573">
        <ele>413</ele>
        <time>2016-02-07T10:24:53.000Z</time>
      </trkpt>
      <trkpt lat="47.5002" lon="6.76573">
        <ele>413</ele>
        <time>2016-02-07T10:24:54.000Z</time>
      </trkpt>
      <trkpt lat="47.50023" lon="6.76573">
        <ele>413</ele>
        <time>2016-02-07T10:24:55.000Z</time>
      </trkpt>
      <trkpt lat="47.50026" lon="6.76573">
        <ele>413</ele>
        <time>2016-02-07T10:24:56.000Z</time>
      </trkpt>
      <trkpt lat="47.5003" lon="6.76574">
        <ele>413</ele>
        <time>2016-02-07T10:24:57.000Z</time>
      </trkpt>
      <trkpt lat="47.50033" lon="6.76574">
        <ele>413</ele>
        <time>2016-02-07T10:24:58.000Z</time>
      </trkpt>
      <trkpt lat="47.50037" lon="6.76574">
        <ele>413</ele>
        <time>2016-02-07T10:24:59.000Z</time>
      </trkpt>
      <trkpt lat="47.5004" lon="6.76574">
        <ele>413</ele>
        <time>2016-02-07T10:25:00.000Z</time>
      </trkpt>
      <trkpt lat="47.50043" lon="6.76575">
        <ele>413</ele>
        <time>2016-02-07T10:25:01.000Z</time>
      </trkpt>
      <trkpt lat="47.50046" lon="6.76575">
        <ele>413</ele>
        <time>2016-02-07T10:25:02.000Z</time>
      </trkpt>
      <trkpt lat="47.50049" lon="6.76575">
        <ele>413</ele>
        <time>2016-02-07T10:25:03.000Z</time>
      </trkpt>
      <trkpt lat="47.50051" lon="6.76575">
        <ele>413</ele>
        <time>2016-02-07T10:25:04.000Z</time>
      </trkpt>
      <trkpt lat="47.50055" lon="6.76575">
        <ele>413</ele>
        <time>2016-02-07T10:25:06.000Z</time>
      </trkpt>
      <trkpt lat="47.50056" lon="6.76574">
        <ele>413</ele>
        <time>2016-02-07T10:25:07.000Z</time>
      </trkpt>
      <trkpt lat="47.5006" lon="6.76573">
        <ele>413</ele>
        <time>2016-02-07T10:25:11.000Z</time>
      </trkpt>
      <trkpt lat="47.50061" lon="6.76574">
        <ele>413</ele>
        <time>2016-02-07T10:25:12.000Z</time>
      </trkpt>
      <trkpt lat="47.50064" lon="6.76574">
        <ele>413</ele>
        <time>2016-02-07T10:25:15.000Z</time>
      </trkpt>
      <trkpt lat="47.50067" lon="6.76575">
        <ele>413</ele>
        <time>2016-02-07T10:25:16.000Z</time>
      </trkpt>
      <trkpt lat="47.50071" lon="6.76577">
        <ele>413</ele>
        <time>2016-02-07T10:25:17.000Z</time>
      </trkpt>
      <trkpt lat="47.50074" lon="6.76579">
        <ele>413</ele>
        <time>2016-02-07T10:25:18.000Z</time>
      </trkpt>
      <trkpt lat="47.50078" lon="6.76583">
        <ele>413</ele>
        <time>2016-02-07T10:25:19.000Z</time>
      </trkpt>
      <trkpt lat="47.50081" lon="6.76587">
        <ele>413</ele>
        <time>2016-02-07T10:25:20.000Z</time>
      </trkpt>
      <trkpt lat="47.50085" lon="6.76592">
        <ele>412</ele>
        <time>2016-02-07T10:25:21.000Z</time>
      </trkpt>
      <trkpt lat="47.50088" lon="6.76597">
        <ele>411</ele>
        <time>2016-02-07T10:25:22.000Z</time>
      </trkpt>
      <trkpt lat="47.50091" lon="6.76601">
        <ele>411</ele>
        <time>2016-02-07T10:25:23.000Z</time>
      </trkpt>
      <trkpt lat="47.50093" lon="6.76605">
        <ele>411</ele>
        <time>2016-02-07T10:25:24.000Z</time>
      </trkpt>
      <trkpt lat="47.50095" lon="6.76609">
        <ele>410</ele>
        <time>2016-02-07T10:25:25.000Z</time>
      </trkpt>
      <trkpt lat="47.50097" lon="6.76612">
        <ele>410</ele>
        <time>2016-02-07T10:25:26.000Z</time>
      </trkpt>
      <trkpt lat="47.50099" lon="6.76614">
        <ele>410</ele>
        <time>2016-02-07T10:25:27.000Z</time>
      </trkpt>
      <trkpt lat="47.50101" lon="6.76615">
        <ele>410</ele>
        <time>2016-02-07T10:25:28.000Z</time>
      </trkpt>
      <trkpt lat="47.50104" lon="6.76615">
        <ele>410</ele>
        <time>2016-02-07T10:25:29.000Z</time>
      </trkpt>
      <trkpt lat="47.50107" lon="6.76615">
        <ele>410</ele>
        <time>2016-02-07T10:25:30.000Z</time>
      </trkpt>
      <trkpt lat="47.5011" lon="6.76614">
        <ele>410</ele>
        <time>2016-02-07T10:25:31.000Z</time>
      </trkpt>
      <trkpt lat="47.50113" lon="6.76613">
        <ele>409</ele>
        <time>2016-02-07T10:25:32.000Z</time>
      </trkpt>
      <trkpt lat="47.50117" lon="6.76613">
        <ele>409</ele>
        <time>2016-02-07T10:25:33.000Z</time>
      </trkpt>
      <trkpt lat="47.5012" lon="6.76612">
        <ele>409</ele>
        <time>2016-02-07T10:25:34.000Z</time>
      </trkpt>
      <trkpt lat="47.50124" lon="6.76612">
        <ele>409</ele>
        <time>2016-02-07T10:25:35.000Z</time>
      </trkpt>
      <trkpt lat="47.50128" lon="6.76612">
        <ele>409</ele>
        <time>2016-02-07T10:25:36.000Z</time>
      </trkpt>
      <trkpt lat="47.50132" lon="6.7661">
        <ele>409</ele>
        <time>2016-02-07T10:25:37.000Z</time>
      </trkpt>
      <trkpt lat="47.50136" lon="6.76608">
        <ele>409</ele>
        <time>2016-02-07T10:25:38.000Z</time>
      </trkpt>
      <trkpt lat="47.50139" lon="6.76607">
        <ele>408</ele>
        <time>2016-02-07T10:25:39.000Z</time>
      </trkpt>
      <trkpt lat="47.50143" lon="6.76605">
        <ele>408</ele>
        <time>2016-02-07T10:25:40.000Z</time>
      </trkpt>
      <trkpt lat="47.50147" lon="6.76604">
        <ele>408</ele>
        <time>2016-02-07T10:25:41.000Z</time>
      </trkpt>
      <trkpt lat="47.50151" lon="6.76604">
        <ele>408</ele>
        <time>2016-02-07T10:25:42.000Z</time>
      </trkpt>
      <trkpt lat="47.50154" lon="6.76604">
        <ele>408</ele>
        <time>2016-02-07T10:25:43.000Z</time>
      </trkpt>
      <trkpt lat="47.50158" lon="6.76604">
        <ele>408</ele>
        <time>2016-02-07T10:25:44.000Z</time>
      </trkpt>
      <trkpt lat="47.50162" lon="6.76604">
        <ele>408</ele>
        <time>2016-02-07T10:25:45.000Z</time>
      </trkpt>
      <trkpt lat="47.50166" lon="6.76604">
        <ele>408</ele>
        <time>2016-02-07T10:25:46.000Z</time>
      </trkpt>
      <trkpt lat="47.50173" lon="6.76606">
        <ele>404</ele>
        <time>2016-02-07T10:25:47.000Z</time>
      </trkpt>
      <trkpt lat="47.50178" lon="6.76607">
        <ele>404</ele>
        <time>2016-02-07T10:25:48.000Z</time>
      </trkpt>
      <trkpt lat="47.50183" lon="6.76607">
        <ele>404</ele>
        <time>2016-02-07T10:25:49.000Z</time>
      </trkpt>
      <trkpt lat="47.50189" lon="6.76609">
        <ele>403</ele>
        <time>2016-02-07T10:25:50.000Z</time>
      </trkpt>
      <trkpt lat="47.50193" lon="6.76612">
        <ele>403</ele>
        <time>2016-02-07T10:25:51.000Z</time>
      </trkpt>
      <trkpt lat="47.50196" lon="6.76616">
        <ele>403</ele>
        <time>2016-02-07T10:25:52.000Z</time>
      </trkpt>
      <trkpt lat="47.50197" lon="6.7662">
        <ele>403</ele>
        <time>2016-02-07T10:25:53.000Z</time>
      </trkpt>
      <trkpt lat="47.50199" lon="6.76624">
        <ele>402</ele>
        <time>2016-02-07T10:25:54.000Z</time>
      </trkpt>
      <trkpt lat="47.502" lon="6.76626">
        <ele>402</ele>
        <time>2016-02-07T10:25:55.000Z</time>
      </trkpt>
      <trkpt lat="47.50201" lon="6.7663">
        <ele>402</ele>
        <time>2016-02-07T10:25:56.000Z</time>
      </trkpt>
      <trkpt lat="47.50203" lon="6.76634">
        <ele>402</ele>
        <time>2016-02-07T10:25:57.000Z</time>
      </trkpt>
      <trkpt lat="47.50204" lon="6.7664">
        <ele>402</ele>
        <time>2016-02-07T10:25:59.000Z</time>
      </trkpt>
      <trkpt lat="47.50205" lon="6.76643">
        <ele>402</ele>
        <time>2016-02-07T10:26:00.000Z</time>
      </trkpt>
      <trkpt lat="47.50206" lon="6.76646">
        <ele>402</ele>
        <time>2016-02-07T10:26:01.000Z</time>
      </trkpt>
      <trkpt lat="47.50208" lon="6.76649">
        <ele>402</ele>
        <time>2016-02-07T10:26:02.000Z</time>
      </trkpt>
      <trkpt lat="47.50209" lon="6.76653">
        <ele>402</ele>
        <time>2016-02-07T10:26:03.000Z</time>
      </trkpt>
      <trkpt lat="47.50211" lon="6.76657">
        <ele>402</ele>
        <time>2016-02-07T10:26:04.000Z</time>
      </trkpt>
      <trkpt lat="47.50212" lon="6.7666">
        <ele>402</ele>
        <time>2016-02-07T10:26:05.000Z</time>
      </trkpt>
      <trkpt lat="47.50213" lon="6.76664">
        <ele>402</ele>
        <time>2016-02-07T10:26:06.000Z</time>
      </trkpt>
      <trkpt lat="47.50214" lon="6.76668">
        <ele>402</ele>
        <time>2016-02-07T10:26:07.000Z</time>
      </trkpt>
      <trkpt lat="47.50215" lon="6.76671">
        <ele>402</ele>
        <time>2016-02-07T10:26:08.000Z</time>
      </trkpt>
      <trkpt lat="47.50216" lon="6.76674">
        <ele>402</ele>
        <time>2016-02-07T10:26:09.000Z</time>
      </trkpt>
      <trkpt lat="47.50217" lon="6.76678">
        <ele>402</ele>
        <time>2016-02-07T10:26:10.000Z</time>
      </trkpt>
      <trkpt lat="47.50218" lon="6.76681">
        <ele>402</ele>
        <time>2016-02-07T10:26:11.000Z</time>
      </trkpt>
      <trkpt lat="47.50219" lon="6.76685">
        <ele>402</ele>
        <time>2016-02-07T10:26:12.000Z</time>
      </trkpt>
      <trkpt lat="47.5022" lon="6.76689">
        <ele>402</ele>
        <time>2016-02-07T10:26:13.000Z</time>
      </trkpt>
      <trkpt lat="47.50221" lon="6.76692">
        <ele>402</ele>
        <time>2016-02-07T10:26:14.000Z</time>
      </trkpt>
      <trkpt lat="47.50222" lon="6.76696">
        <ele>402</ele>
        <time>2016-02-07T10:26:15.000Z</time>
      </trkpt>
      <trkpt lat="47.50223" lon="6.767">
        <ele>402</ele>
        <time>2016-02-07T10:26:16.000Z</time>
      </trkpt>
      <trkpt lat="47.50224" lon="6.76703">
        <ele>402</ele>
        <time>2016-02-07T10:26:17.000Z</time>
      </trkpt>
      <trkpt lat="47.50225" lon="6.76707">
        <ele>402</ele>
        <time>2016-02-07T10:26:18.000Z</time>
      </trkpt>
      <trkpt lat="47.50226" lon="6.76711">
        <ele>402</ele>
        <time>2016-02-07T10:26:19.000Z</time>
      </trkpt>
      <trkpt lat="47.50227" lon="6.76715">
        <ele>402</ele>
        <time>2016-02-07T10:26:20.000Z</time>
      </trkpt>
      <trkpt lat="47.50229" lon="6.76719">
        <ele>402</ele>
        <time>2016-02-07T10:26:21.000Z</time>
      </trkpt>
      <trkpt lat="47.50231" lon="6.76723">
        <ele>402</ele>
        <time>2016-02-07T10:26:22.000Z</time>
      </trkpt>
      <trkpt lat="47.50232" lon="6.76726">
        <ele>402</ele>
        <time>2016-02-07T10:26:23.000Z</time>
      </trkpt>
      <trkpt lat="47.50234" lon="6.7673">
        <ele>401</ele>
        <time>2016-02-07T10:26:24.000Z</time>
      </trkpt>
      <trkpt lat="47.50237" lon="6.76734">
        <ele>401</ele>
        <time>2016-02-07T10:26:25.000Z</time>
      </trkpt>
      <trkpt lat="47.50239" lon="6.76738">
        <ele>401</ele>
        <time>2016-02-07T10:26:26.000Z</time>
      </trkpt>
      <trkpt lat="47.50241" lon="6.76742">
        <ele>401</ele>
        <time>2016-02-07T10:26:27.000Z</time>
      </trkpt>
      <trkpt lat="47.50244" lon="6.76745">
        <ele>401</ele>
        <time>2016-02-07T10:26:28.000Z</time>
      </trkpt>
      <trkpt lat="47.50247" lon="6.76748">
        <ele>400</ele>
        <time>2016-02-07T10:26:29.000Z</time>
      </trkpt>
      <trkpt lat="47.5025" lon="6.7675">
        <ele>400</ele>
        <time>2016-02-07T10:26:30.000Z</time>
      </trkpt>
      <trkpt lat="47.50253" lon="6.76751">
        <ele>400</ele>
        <time>2016-02-07T10:26:31.000Z</time>
      </trkpt>
      <trkpt lat="47.50257" lon="6.7675">
        <ele>399</ele>
        <time>2016-02-07T10:26:32.000Z</time>
      </trkpt>
      <trkpt lat="47.50261" lon="6.76749">
        <ele>399</ele>
        <time>2016-02-07T10:26:33.000Z</time>
      </trkpt>
      <trkpt lat="47.50265" lon="6.76747">
        <ele>399</ele>
        <time>2016-02-07T10:26:34.000Z</time>
      </trkpt>
      <trkpt lat="47.50269" lon="6.76745">
        <ele>399</ele>
        <time>2016-02-07T10:26:35.000Z</time>
      </trkpt>
      <trkpt lat="47.50273" lon="6.76743">
        <ele>399</ele>
        <time>2016-02-07T10:26:36.000Z</time>
      </trkpt>
      <trkpt lat="47.50277" lon="6.76742">
        <ele>399</ele>
        <time>2016-02-07T10:26:37.000Z</time>
      </trkpt>
      <trkpt lat="47.50281" lon="6.7674">
        <ele>399</ele>
        <time>2016-02-07T10:26:38.000Z</time>
      </trkpt>
      <trkpt lat="47.50285" lon="6.76739">
        <ele>399</ele>
        <time>2016-02-07T10:26:39.000Z</time>
      </trkpt>
      <trkpt lat="47.50288" lon="6.76738">
        <ele>399</ele>
        <time>2016-02-07T10:26:40.000Z</time>
      </trkpt>
      <trkpt lat="47.50292" lon="6.76737">
        <ele>399</ele>
        <time>2016-02-07T10:26:41.000Z</time>
      </trkpt>
      <trkpt lat="47.50296" lon="6.76736">
        <ele>399</ele>
        <time>2016-02-07T10:26:42.000Z</time>
      </trkpt>
      <trkpt lat="47.50299" lon="6.76735">
        <ele>399</ele>
        <time>2016-02-07T10:26:43.000Z</time>
      </trkpt>
      <trkpt lat="47.50303" lon="6.76734">
        <ele>398</ele>
        <time>2016-02-07T10:26:44.000Z</time>
      </trkpt>
      <trkpt lat="47.50306" lon="6.76733">
        <ele>398</ele>
        <time>2016-02-07T10:26:45.000Z</time>
      </trkpt>
      <trkpt lat="47.5031" lon="6.76731">
        <ele>398</ele>
        <time>2016-02-07T10:26:46.000Z</time>
      </trkpt>
      <trkpt lat="47.50313" lon="6.7673">
        <ele>398</ele>
        <time>2016-02-07T10:26:47.000Z</time>
      </trkpt>
      <trkpt lat="47.50317" lon="6.76728">
        <ele>398</ele>
        <time>2016-02-07T10:26:48.000Z</time>
      </trkpt>
      <trkpt lat="47.5032" lon="6.76726">
        <ele>398</ele>
        <time>2016-02-07T10:26:49.000Z</time>
      </trkpt>
      <trkpt lat="47.50324" lon="6.76725">
        <ele>398</ele>
        <time>2016-02-07T10:26:50.000Z</time>
      </trkpt>
      <trkpt lat="47.50327" lon="6.76724">
        <ele>398</ele>
        <time>2016-02-07T10:26:51.000Z</time>
      </trkpt>
      <trkpt lat="47.50331" lon="6.76723">
        <ele>398</ele>
        <time>2016-02-07T10:26:52.000Z</time>
      </trkpt>
      <trkpt lat="47.50334" lon="6.76723">
        <ele>398</ele>
        <time>2016-02-07T10:26:53.000Z</time>
      </trkpt>
      <trkpt lat="47.50338" lon="6.76721">
        <ele>398</ele>
        <time>2016-02-07T10:26:54.000Z</time>
      </trkpt>
      <trkpt lat="47.50341" lon="6.76719">
        <ele>398</ele>
        <time>2016-02-07T10:26:55.000Z</time>
      </trkpt>
      <trkpt lat="47.50344" lon="6.76718">
        <ele>398</ele>
        <time>2016-02-07T10:26:56.000Z</time>
      </trkpt>
      <trkpt lat="47.50348" lon="6.76716">
        <ele>398</ele>
        <time>2016-02-07T10:26:57.000Z</time>
      </trkpt>
      <trkpt lat="47.50351" lon="6.76715">
        <ele>398</ele>
        <time>2016-02-07T10:26:58.000Z</time>
      </trkpt>
      <trkpt lat="47.50354" lon="6.76713">
        <ele>398</ele>
        <time>2016-02-07T10:26:59.000Z</time>
      </trkpt>
      <trkpt lat="47.50358" lon="6.76712">
        <ele>398</ele>
        <time>2016-02-07T10:27:00.000Z</time>
      </trkpt>
      <trkpt lat="47.50361" lon="6.7671">
        <ele>398</ele>
        <time>2016-02-07T10:27:01.000Z</time>
      </trkpt>
      <trkpt lat="47.50364" lon="6.76709">
        <ele>398</ele>
        <time>2016-02-07T10:27:02.000Z</time>
      </trkpt>
      <trkpt lat="47.50368" lon="6.76707">
        <ele>397</ele>
        <time>2016-02-07T10:27:03.000Z</time>
      </trkpt>
      <trkpt lat="47.50371" lon="6.76705">
        <ele>397</ele>
        <time>2016-02-07T10:27:04.000Z</time>
      </trkpt>
      <trkpt lat="47.50375" lon="6.76703">
        <ele>397</ele>
        <time>2016-02-07T10:27:05.000Z</time>
      </trkpt>
      <trkpt lat="47.50378" lon="6.76701">
        <ele>397</ele>
        <time>2016-02-07T10:27:06.000Z</time>
      </trkpt>
      <trkpt lat="47.50382" lon="6.767">
        <ele>397</ele>
        <time>2016-02-07T10:27:07.000Z</time>
      </trkpt>
      <trkpt lat="47.50385" lon="6.76698">
        <ele>397</ele>
        <time>2016-02-07T10:27:08.000Z</time>
      </trkpt>
      <trkpt lat="47.50389" lon="6.76696">
        <ele>397</ele>
        <time>2016-02-07T10:27:09.000Z</time>
      </trkpt>
      <trkpt lat="47.50392" lon="6.76695">
        <ele>397</ele>
        <time>2016-02-07T10:27:10.000Z</time>
      </trkpt>
      <trkpt lat="47.50395" lon="6.76694">
        <ele>397</ele>
        <time>2016-02-07T10:27:11.000Z</time>
      </trkpt>
      <trkpt lat="47.50399" lon="6.76693">
        <ele>397</ele>
        <time>2016-02-07T10:27:12.000Z</time>
      </trkpt>
      <trkpt lat="47.50402" lon="6.76691">
        <ele>397</ele>
        <time>2016-02-07T10:27:13.000Z</time>
      </trkpt>
      <trkpt lat="47.50405" lon="6.7669">
        <ele>397</ele>
        <time>2016-02-07T10:27:14.000Z</time>
      </trkpt>
      <trkpt lat="47.50408" lon="6.76689">
        <ele>397</ele>
        <time>2016-02-07T10:27:15.000Z</time>
      </trkpt>
      <trkpt lat="47.50411" lon="6.76688">
        <ele>397</ele>
        <time>2016-02-07T10:27:16.000Z</time>
      </trkpt>
      <trkpt lat="47.50414" lon="6.76686">
        <ele>397</ele>
        <time>2016-02-07T10:27:17.000Z</time>
      </trkpt>
      <trkpt lat="47.50417" lon="6.76685">
        <ele>397</ele>
        <time>2016-02-07T10:27:18.000Z</time>
      </trkpt>
      <trkpt lat="47.50421" lon="6.76683">
        <ele>397</ele>
        <time>2016-02-07T10:27:19.000Z</time>
      </trkpt>
      <trkpt lat="47.50424" lon="6.76682">
        <ele>397</ele>
        <time>2016-02-07T10:27:20.000Z</time>
      </trkpt>
      <trkpt lat="47.50427" lon="6.7668">
        <ele>397</ele>
        <time>2016-02-07T10:27:21.000Z</time>
      </trkpt>
      <trkpt lat="47.5043" lon="6.76678">
        <ele>397</ele>
        <time>2016-02-07T10:27:22.000Z</time>
      </trkpt>
      <trkpt lat="47.50433" lon="6.76676">
        <ele>397</ele>
        <time>2016-02-07T10:27:23.000Z</time>
      </trkpt>
      <trkpt lat="47.50436" lon="6.76674">
        <ele>397</ele>
        <time>2016-02-07T10:27:24.000Z</time>
      </trkpt>
      <trkpt lat="47.50439" lon="6.76673">
        <ele>397</ele>
        <time>2016-02-07T10:27:25.000Z</time>
      </trkpt>
      <trkpt lat="47.50442" lon="6.76671">
        <ele>397</ele>
        <time>2016-02-07T10:27:26.000Z</time>
      </trkpt>
      <trkpt lat="47.50445" lon="6.7667">
        <ele>397</ele>
        <time>2016-02-07T10:27:27.000Z</time>
      </trkpt>
      <trkpt lat="47.50448" lon="6.76668">
        <ele>397</ele>
        <time>2016-02-07T10:27:28.000Z</time>
      </trkpt>
      <trkpt lat="47.50451" lon="6.76667">
        <ele>397</ele>
        <time>2016-02-07T10:27:29.000Z</time>
      </trkpt>
      <trkpt lat="47.50454" lon="6.76666">
        <ele>398</ele>
        <time>2016-02-07T10:27:30.000Z</time>
      </trkpt>
      <trkpt lat="47.50457" lon="6.76665">
        <ele>398</ele>
        <time>2016-02-07T10:27:31.000Z</time>
      </trkpt>
      <trkpt lat="47.50461" lon="6.76664">
        <ele>398</ele>
        <time>2016-02-07T10:27:32.000Z</time>
      </trkpt>
      <trkpt lat="47.50464" lon="6.76662">
        <ele>398</ele>
        <time>2016-02-07T10:27:33.000Z</time>
      </trkpt>
      <trkpt lat="47.50467" lon="6.76661">
        <ele>398</ele>
        <time>2016-02-07T10:27:34.000Z</time>
      </trkpt>
      <trkpt lat="47.5047" lon="6.76659">
        <ele>398</ele>
        <time>2016-02-07T10:27:35.000Z</time>
      </trkpt>
      <trkpt lat="47.50472" lon="6.76658">
        <ele>398</ele>
        <time>2016-02-07T10:27:36.000Z</time>
      </trkpt>
      <trkpt lat="47.50475" lon="6.76657">
        <ele>398</ele>
        <time>2016-02-07T10:27:37.000Z</time>
      </trkpt>
      <trkpt lat="47.50478" lon="6.76656">
        <ele>399</ele>
        <time>2016-02-07T10:27:38.000Z</time>
      </trkpt>
      <trkpt lat="47.50481" lon="6.76655">
        <ele>399</ele>
        <time>2016-02-07T10:27:39.000Z</time>
      </trkpt>
      <trkpt lat="47.50484" lon="6.76654">
        <ele>399</ele>
        <time>2016-02-07T10:27:40.000Z</time>
      </trkpt>
      <trkpt lat="47.50488" lon="6.76653">
        <ele>399</ele>
        <time>2016-02-07T10:27:41.000Z</time>
      </trkpt>
      <trkpt lat="47.50491" lon="6.76653">
        <ele>399</ele>
        <time>2016-02-07T10:27:42.000Z</time>
      </trkpt>
      <trkpt lat="47.50494" lon="6.76652">
        <ele>399</ele>
        <time>2016-02-07T10:27:43.000Z</time>
      </trkpt>
      <trkpt lat="47.50497" lon="6.76651">
        <ele>399</ele>
        <time>2016-02-07T10:27:44.000Z</time>
      </trkpt>
      <trkpt lat="47.505" lon="6.7665">
        <ele>399</ele>
        <time>2016-02-07T10:27:45.000Z</time>
      </trkpt>
      <trkpt lat="47.50503" lon="6.7665">
        <ele>399</ele>
        <time>2016-02-07T10:27:46.000Z</time>
      </trkpt>
      <trkpt lat="47.50506" lon="6.76649">
        <ele>399</ele>
        <time>2016-02-07T10:27:47.000Z</time>
      </trkpt>
      <trkpt lat="47.50508" lon="6.76648">
        <ele>399</ele>
        <time>2016-02-07T10:27:48.000Z</time>
      </trkpt>
      <trkpt lat="47.50511" lon="6.76648">
        <ele>399</ele>
        <time>2016-02-07T10:27:49.000Z</time>
      </trkpt>
      <trkpt lat="47.50513" lon="6.7665">
        <ele>399</ele>
        <time>2016-02-07T10:27:50.000Z</time>
      </trkpt>
      <trkpt lat="47.50515" lon="6.76654">
        <ele>399</ele>
        <time>2016-02-07T10:27:51.000Z</time>
      </trkpt>
      <trkpt lat="47.50516" lon="6.7666">
        <ele>399</ele>
        <time>2016-02-07T10:27:52.000Z</time>
      </trkpt>
      <trkpt lat="47.50516" lon="6.76666">
        <ele>399</ele>
        <time>2016-02-07T10:27:53.000Z</time>
      </trkpt>
      <trkpt lat="47.50517" lon="6.76673">
        <ele>397</ele>
        <time>2016-02-07T10:27:54.000Z</time>
      </trkpt>
      <trkpt lat="47.50519" lon="6.76685">
        <ele>397</ele>
        <time>2016-02-07T10:27:55.000Z</time>
      </trkpt>
      <trkpt lat="47.50522" lon="6.76689">
        <ele>396</ele>
        <time>2016-02-07T10:27:56.000Z</time>
      </trkpt>
      <trkpt lat="47.50527" lon="6.76692">
        <ele>396</ele>
        <time>2016-02-07T10:27:57.000Z</time>
      </trkpt>
      <trkpt lat="47.50531" lon="6.76692">
        <ele>396</ele>
        <time>2016-02-07T10:27:58.000Z</time>
      </trkpt>
      <trkpt lat="47.50535" lon="6.76691">
        <ele>396</ele>
        <time>2016-02-07T10:27:59.000Z</time>
      </trkpt>
      <trkpt lat="47.5054" lon="6.7669">
        <ele>396</ele>
        <time>2016-02-07T10:28:00.000Z</time>
      </trkpt>
      <trkpt lat="47.50543" lon="6.76689">
        <ele>396</ele>
        <time>2016-02-07T10:28:01.000Z</time>
      </trkpt>
      <trkpt lat="47.50546" lon="6.76688">
        <ele>396</ele>
        <time>2016-02-07T10:28:02.000Z</time>
      </trkpt>
      <trkpt lat="47.5055" lon="6.76688">
        <ele>396</ele>
        <time>2016-02-07T10:28:03.000Z</time>
      </trkpt>
      <trkpt lat="47.50554" lon="6.76687">
        <ele>396</ele>
        <time>2016-02-07T10:28:04.000Z</time>
      </trkpt>
      <trkpt lat="47.50557" lon="6.76687">
        <ele>396</ele>
        <time>2016-02-07T10:28:05.000Z</time>
      </trkpt>
      <trkpt lat="47.5056" lon="6.76685">
        <ele>396</ele>
        <time>2016-02-07T10:28:06.000Z</time>
      </trkpt>
      <trkpt lat="47.50563" lon="6.76684">
        <ele>396</ele>
        <time>2016-02-07T10:28:07.000Z</time>
      </trkpt>
      <trkpt lat="47.50567" lon="6.76683">
        <ele>397</ele>
        <time>2016-02-07T10:28:08.000Z</time>
      </trkpt>
      <trkpt lat="47.50571" lon="6.76682">
        <ele>397</ele>
        <time>2016-02-07T10:28:09.000Z</time>
      </trkpt>
      <trkpt lat="47.50575" lon="6.7668">
        <ele>397</ele>
        <time>2016-02-07T10:28:10.000Z</time>
      </trkpt>
      <trkpt lat="47.5058" lon="6.76679">
        <ele>397</ele>
        <time>2016-02-07T10:28:11.000Z</time>
      </trkpt>
      <trkpt lat="47.50584" lon="6.76678">
        <ele>396</ele>
        <time>2016-02-07T10:28:12.000Z</time>
      </trkpt>
      <trkpt lat="47.50589" lon="6.76676">
        <ele>396</ele>
        <time>2016-02-07T10:28:13.000Z</time>
      </trkpt>
      <trkpt lat="47.50593" lon="6.76674">
        <ele>396</ele>
        <time>2016-02-07T10:28:14.000Z</time>
      </trkpt>
      <trkpt lat="47.50599" lon="6.76672">
        <ele>396</ele>
        <time>2016-02-07T10:28:15.000Z</time>
      </trkpt>
      <trkpt lat="47.50604" lon="6.76669">
        <ele>395</ele>
        <time>2016-02-07T10:28:16.000Z</time>
      </trkpt>
      <trkpt lat="47.5061" lon="6.76667">
        <ele>397</ele>
        <time>2016-02-07T10:28:17.000Z</time>
      </trkpt>
      <trkpt lat="47.50617" lon="6.76666">
        <ele>397</ele>
        <time>2016-02-07T10:28:18.000Z</time>
      </trkpt>
      <trkpt lat="47.50623" lon="6.76664">
        <ele>397</ele>
        <time>2016-02-07T10:28:19.000Z</time>
      </trkpt>
      <trkpt lat="47.50629" lon="6.76662">
        <ele>397</ele>
        <time>2016-02-07T10:28:20.000Z</time>
      </trkpt>
      <trkpt lat="47.50636" lon="6.76659">
        <ele>397</ele>
        <time>2016-02-07T10:28:21.000Z</time>
      </trkpt>
      <trkpt lat="47.50642" lon="6.76656">
        <ele>397</ele>
        <time>2016-02-07T10:28:22.000Z</time>
      </trkpt>
      <trkpt lat="47.50648" lon="6.76652">
        <ele>396</ele>
        <time>2016-02-07T10:28:23.000Z</time>
      </trkpt>
      <trkpt lat="47.50654" lon="6.76646">
        <ele>396</ele>
        <time>2016-02-07T10:28:24.000Z</time>
      </trkpt>
      <trkpt lat="47.50659" lon="6.76641">
        <ele>396</ele>
        <time>2016-02-07T10:28:25.000Z</time>
      </trkpt>
      <trkpt lat="47.50665" lon="6.76637">
        <ele>397</ele>
        <time>2016-02-07T10:28:26.000Z</time>
      </trkpt>
      <trkpt lat="47.50671" lon="6.76634">
        <ele>395</ele>
        <time>2016-02-07T10:28:27.000Z</time>
      </trkpt>
      <trkpt lat="47.50677" lon="6.76632">
        <ele>395</ele>
        <time>2016-02-07T10:28:28.000Z</time>
      </trkpt>
      <trkpt lat="47.50684" lon="6.7663">
        <ele>395</ele>
        <time>2016-02-07T10:28:29.000Z</time>
      </trkpt>
      <trkpt lat="47.50689" lon="6.76629">
        <ele>395</ele>
        <time>2016-02-07T10:28:30.000Z</time>
      </trkpt>
      <trkpt lat="47.50696" lon="6.76627">
        <ele>394</ele>
        <time>2016-02-07T10:28:31.000Z</time>
      </trkpt>
      <trkpt lat="47.50702" lon="6.76628">
        <ele>394</ele>
        <time>2016-02-07T10:28:32.000Z</time>
      </trkpt>
      <trkpt lat="47.50709" lon="6.76628">
        <ele>394</ele>
        <time>2016-02-07T10:28:33.000Z</time>
      </trkpt>
      <trkpt lat="47.50714" lon="6.76629">
        <ele>394</ele>
        <time>2016-02-07T10:28:34.000Z</time>
      </trkpt>
      <trkpt lat="47.5072" lon="6.7663">
        <ele>394</ele>
        <time>2016-02-07T10:28:35.000Z</time>
      </trkpt>
      <trkpt lat="47.50726" lon="6.76631">
        <ele>394</ele>
        <time>2016-02-07T10:28:36.000Z</time>
      </trkpt>
      <trkpt lat="47.50732" lon="6.76635">
        <ele>394</ele>
        <time>2016-02-07T10:28:37.000Z</time>
      </trkpt>
      <trkpt lat="47.50737" lon="6.76642">
        <ele>393</ele>
        <time>2016-02-07T10:28:38.000Z</time>
      </trkpt>
      <trkpt lat="47.50742" lon="6.76647">
        <ele>393</ele>
        <time>2016-02-07T10:28:39.000Z</time>
      </trkpt>
      <trkpt lat="47.50747" lon="6.76656">
        <ele>392</ele>
        <time>2016-02-07T10:28:40.000Z</time>
      </trkpt>
      <trkpt lat="47.50751" lon="6.76664">
        <ele>391</ele>
        <time>2016-02-07T10:28:41.000Z</time>
      </trkpt>
      <trkpt lat="47.50755" lon="6.76671">
        <ele>390</ele>
        <time>2016-02-07T10:28:42.000Z</time>
      </trkpt>
      <trkpt lat="47.50759" lon="6.76679">
        <ele>390</ele>
        <time>2016-02-07T10:28:43.000Z</time>
      </trkpt>
      <trkpt lat="47.50763" lon="6.76687">
        <ele>389</ele>
        <time>2016-02-07T10:28:44.000Z</time>
      </trkpt>
      <trkpt lat="47.50767" lon="6.76695">
        <ele>389</ele>
        <time>2016-02-07T10:28:45.000Z</time>
      </trkpt>
      <trkpt lat="47.50771" lon="6.76703">
        <ele>388</ele>
        <time>2016-02-07T10:28:46.000Z</time>
      </trkpt>
      <trkpt lat="47.50776" lon="6.76711">
        <ele>388</ele>
        <time>2016-02-07T10:28:47.000Z</time>
      </trkpt>
      <trkpt lat="47.5078" lon="6.76718">
        <ele>388</ele>
        <time>2016-02-07T10:28:48.000Z</time>
      </trkpt>
      <trkpt lat="47.50786" lon="6.76723">
        <ele>388</ele>
        <time>2016-02-07T10:28:49.000Z</time>
      </trkpt>
      <trkpt lat="47.50792" lon="6.76725">
        <ele>388</ele>
        <time>2016-02-07T10:28:50.000Z</time>
      </trkpt>
      <trkpt lat="47.50798" lon="6.76723">
        <ele>388</ele>
        <time>2016-02-07T10:28:51.000Z</time>
      </trkpt>
      <trkpt lat="47.50803" lon="6.7672">
        <ele>388</ele>
        <time>2016-02-07T10:28:52.000Z</time>
      </trkpt>
      <trkpt lat="47.50808" lon="6.76716">
        <ele>388</ele>
        <time>2016-02-07T10:28:53.000Z</time>
      </trkpt>
      <trkpt lat="47.50812" lon="6.76712">
        <ele>388</ele>
        <time>2016-02-07T10:28:54.000Z</time>
      </trkpt>
      <trkpt lat="47.50817" lon="6.76707">
        <ele>388</ele>
        <time>2016-02-07T10:28:55.000Z</time>
      </trkpt>
      <trkpt lat="47.50822" lon="6.76703">
        <ele>388</ele>
        <time>2016-02-07T10:28:56.000Z</time>
      </trkpt>
      <trkpt lat="47.50827" lon="6.76698">
        <ele>388</ele>
        <time>2016-02-07T10:28:57.000Z</time>
      </trkpt>
      <trkpt lat="47.50832" lon="6.76693">
        <ele>388</ele>
        <time>2016-02-07T10:28:58.000Z</time>
      </trkpt>
      <trkpt lat="47.50836" lon="6.76688">
        <ele>386</ele>
        <time>2016-02-07T10:28:59.000Z</time>
      </trkpt>
      <trkpt lat="47.50839" lon="6.76684">
        <ele>386</ele>
        <time>2016-02-07T10:29:00.000Z</time>
      </trkpt>
      <trkpt lat="47.50842" lon="6.76683">
        <ele>386</ele>
        <time>2016-02-07T10:29:01.000Z</time>
      </trkpt>
      <trkpt lat="47.50844" lon="6.76685">
        <ele>386</ele>
        <time>2016-02-07T10:29:02.000Z</time>
      </trkpt>
      <trkpt lat="47.50846" lon="6.7669">
        <ele>385</ele>
        <time>2016-02-07T10:29:03.000Z</time>
      </trkpt>
      <trkpt lat="47.50848" lon="6.76695">
        <ele>385</ele>
        <time>2016-02-07T10:29:04.000Z</time>
      </trkpt>
      <trkpt lat="47.5085" lon="6.76701">
        <ele>385</ele>
        <time>2016-02-07T10:29:05.000Z</time>
      </trkpt>
      <trkpt lat="47.50852" lon="6.76708">
        <ele>384</ele>
        <time>2016-02-07T10:29:06.000Z</time>
      </trkpt>
      <trkpt lat="47.50855" lon="6.76715">
        <ele>384</ele>
        <time>2016-02-07T10:29:07.000Z</time>
      </trkpt>
      <trkpt lat="47.50858" lon="6.76722">
        <ele>384</ele>
        <time>2016-02-07T10:29:08.000Z</time>
      </trkpt>
      <trkpt lat="47.50861" lon="6.76731">
        <ele>384</ele>
        <time>2016-02-07T10:29:09.000Z</time>
      </trkpt>
      <trkpt lat="47.50864" lon="6.76739">
        <ele>384</ele>
        <time>2016-02-07T10:29:10.000Z</time>
      </trkpt>
      <trkpt lat="47.50869" lon="6.76746">
        <ele>383</ele>
        <time>2016-02-07T10:29:11.000Z</time>
      </trkpt>
      <trkpt lat="47.50873" lon="6.76753">
        <ele>382</ele>
        <time>2016-02-07T10:29:12.000Z</time>
      </trkpt>
      <trkpt lat="47.50877" lon="6.76762">
        <ele>382</ele>
        <time>2016-02-07T10:29:13.000Z</time>
      </trkpt>
      <trkpt lat="47.5088" lon="6.7677">
        <ele>382</ele>
        <time>2016-02-07T10:29:14.000Z</time>
      </trkpt>
      <trkpt lat="47.50884" lon="6.76779">
        <ele>381</ele>
        <time>2016-02-07T10:29:15.000Z</time>
      </trkpt>
      <trkpt lat="47.50887" lon="6.76788">
        <ele>381</ele>
        <time>2016-02-07T10:29:16.000Z</time>
      </trkpt>
      <trkpt lat="47.50891" lon="6.76797">
        <ele>381</ele>
        <time>2016-02-07T10:29:17.000Z</time>
      </trkpt>
      <trkpt lat="47.50895" lon="6.76806">
        <ele>381</ele>
        <time>2016-02-07T10:29:18.000Z</time>
      </trkpt>
      <trkpt lat="47.50899" lon="6.76815">
        <ele>381</ele>
        <time>2016-02-07T10:29:19.000Z</time>
      </trkpt>
      <trkpt lat="47.50902" lon="6.76824">
        <ele>381</ele>
        <time>2016-02-07T10:29:20.000Z</time>
      </trkpt>
      <trkpt lat="47.50906" lon="6.76834">
        <ele>380</ele>
        <time>2016-02-07T10:29:21.000Z</time>
      </trkpt>
      <trkpt lat="47.5091" lon="6.76844">
        <ele>380</ele>
        <time>2016-02-07T10:29:22.000Z</time>
      </trkpt>
      <trkpt lat="47.50915" lon="6.76853">
        <ele>380</ele>
        <time>2016-02-07T10:29:23.000Z</time>
      </trkpt>
      <trkpt lat="47.50919" lon="6.76862">
        <ele>378</ele>
        <time>2016-02-07T10:29:24.000Z</time>
      </trkpt>
      <trkpt lat="47.50924" lon="6.76871">
        <ele>378</ele>
        <time>2016-02-07T10:29:25.000Z</time>
      </trkpt>
      <trkpt lat="47.5093" lon="6.7688">
        <ele>378</ele>
        <time>2016-02-07T10:29:26.000Z</time>
      </trkpt>
      <trkpt lat="47.50936" lon="6.76887">
        <ele>378</ele>
        <time>2016-02-07T10:29:27.000Z</time>
      </trkpt>
      <trkpt lat="47.50942" lon="6.76894">
        <ele>378</ele>
        <time>2016-02-07T10:29:28.000Z</time>
      </trkpt>
      <trkpt lat="47.50949" lon="6.76902">
        <ele>378</ele>
        <time>2016-02-07T10:29:29.000Z</time>
      </trkpt>
      <trkpt lat="47.50955" lon="6.76909">
        <ele>377</ele>
        <time>2016-02-07T10:29:30.000Z</time>
      </trkpt>
      <trkpt lat="47.5096" lon="6.76918">
        <ele>374</ele>
        <time>2016-02-07T10:29:31.000Z</time>
      </trkpt>
      <trkpt lat="47.50965" lon="6.76927">
        <ele>374</ele>
        <time>2016-02-07T10:29:32.000Z</time>
      </trkpt>
      <trkpt lat="47.50969" lon="6.76935">
        <ele>374</ele>
        <time>2016-02-07T10:29:33.000Z</time>
      </trkpt>
      <trkpt lat="47.50975" lon="6.76941">
        <ele>374</ele>
        <time>2016-02-07T10:29:34.000Z</time>
      </trkpt>
      <trkpt lat="47.50981" lon="6.76944">
        <ele>374</ele>
        <time>2016-02-07T10:29:35.000Z</time>
      </trkpt>
      <trkpt lat="47.50988" lon="6.76946">
        <ele>374</ele>
        <time>2016-02-07T10:29:36.000Z</time>
      </trkpt>
      <trkpt lat="47.50995" lon="6.76946">
        <ele>374</ele>
        <time>2016-02-07T10:29:37.000Z</time>
      </trkpt>
      <trkpt lat="47.51002" lon="6.76946">
        <ele>375</ele>
        <time>2016-02-07T10:29:38.000Z</time>
      </trkpt>
      <trkpt lat="47.5101" lon="6.76947">
        <ele>375</ele>
        <time>2016-02-07T10:29:39.000Z</time>
      </trkpt>
      <trkpt lat="47.51016" lon="6.7695">
        <ele>375</ele>
        <time>2016-02-07T10:29:40.000Z</time>
      </trkpt>
      <trkpt lat="47.51022" lon="6.76954">
        <ele>375</ele>
        <time>2016-02-07T10:29:41.000Z</time>
      </trkpt>
      <trkpt lat="47.51028" lon="6.76959">
        <ele>375</ele>
        <time>2016-02-07T10:29:42.000Z</time>
      </trkpt>
      <trkpt lat="47.51034" lon="6.76965">
        <ele>375</ele>
        <time>2016-02-07T10:29:43.000Z</time>
      </trkpt>
      <trkpt lat="47.5104" lon="6.7697">
        <ele>375</ele>
        <time>2016-02-07T10:29:44.000Z</time>
      </trkpt>
      <trkpt lat="47.51046" lon="6.76975">
        <ele>375</ele>
        <time>2016-02-07T10:29:45.000Z</time>
      </trkpt>
      <trkpt lat="47.51052" lon="6.7698">
        <ele>375</ele>
        <time>2016-02-07T10:29:46.000Z</time>
      </trkpt>
      <trkpt lat="47.51057" lon="6.76985">
        <ele>375</ele>
        <time>2016-02-07T10:29:47.000Z</time>
      </trkpt>
      <trkpt lat="47.51063" lon="6.7699">
        <ele>375</ele>
        <time>2016-02-07T10:29:48.000Z</time>
      </trkpt>
      <trkpt lat="47.51068" lon="6.76995">
        <ele>375</ele>
        <time>2016-02-07T10:29:49.000Z</time>
      </trkpt>
      <trkpt lat="47.51074" lon="6.76999">
        <ele>375</ele>
        <time>2016-02-07T10:29:50.000Z</time>
      </trkpt>
      <trkpt lat="47.51079" lon="6.77004">
        <ele>374</ele>
        <time>2016-02-07T10:29:51.000Z</time>
      </trkpt>
      <trkpt lat="47.51085" lon="6.77009">
        <ele>375</ele>
        <time>2016-02-07T10:29:52.000Z</time>
      </trkpt>
      <trkpt lat="47.51091" lon="6.77014">
        <ele>375</ele>
        <time>2016-02-07T10:29:53.000Z</time>
      </trkpt>
      <trkpt lat="47.51096" lon="6.77019">
        <ele>375</ele>
        <time>2016-02-07T10:29:54.000Z</time>
      </trkpt>
      <trkpt lat="47.51102" lon="6.77024">
        <ele>375</ele>
        <time>2016-02-07T10:29:55.000Z</time>
      </trkpt>
      <trkpt lat="47.51108" lon="6.77028">
        <ele>375</ele>
        <time>2016-02-07T10:29:56.000Z</time>
      </trkpt>
      <trkpt lat="47.51114" lon="6.77034">
        <ele>375</ele>
        <time>2016-02-07T10:29:57.000Z</time>
      </trkpt>
      <trkpt lat="47.5112" lon="6.77039">
        <ele>375</ele>
        <time>2016-02-07T10:29:58.000Z</time>
      </trkpt>
      <trkpt lat="47.51126" lon="6.77044">
        <ele>375</ele>
        <time>2016-02-07T10:29:59.000Z</time>
      </trkpt>
      <trkpt lat="47.51131" lon="6.77049">
        <ele>375</ele>
        <time>2016-02-07T10:30:00.000Z</time>
      </trkpt>
      <trkpt lat="47.51137" lon="6.77053">
        <ele>376</ele>
        <time>2016-02-07T10:30:01.000Z</time>
      </trkpt>
      <trkpt lat="47.51142" lon="6.77059">
        <ele>376</ele>
        <time>2016-02-07T10:30:02.000Z</time>
      </trkpt>
      <trkpt lat="47.51148" lon="6.77064">
        <ele>376</ele>
        <time>2016-02-07T10:30:03.000Z</time>
      </trkpt>
      <trkpt lat="47.51154" lon="6.77069">
        <ele>376</ele>
        <time>2016-02-07T10:30:04.000Z</time>
      </trkpt>
      <trkpt lat="47.51159" lon="6.77075">
        <ele>377</ele>
        <time>2016-02-07T10:30:05.000Z</time>
      </trkpt>
      <trkpt lat="47.51163" lon="6.77081">
        <ele>378</ele>
        <time>2016-02-07T10:30:06.000Z</time>
      </trkpt>
      <trkpt lat="47.51167" lon="6.77088">
        <ele>378</ele>
        <time>2016-02-07T10:30:07.000Z</time>
      </trkpt>
      <trkpt lat="47.51172" lon="6.77095">
        <ele>378</ele>
        <time>2016-02-07T10:30:08.000Z</time>
      </trkpt>
      <trkpt lat="47.51176" lon="6.77102">
        <ele>378</ele>
        <time>2016-02-07T10:30:09.000Z</time>
      </trkpt>
      <trkpt lat="47.51179" lon="6.77108">
        <ele>378</ele>
        <time>2016-02-07T10:30:10.000Z</time>
      </trkpt>
      <trkpt lat="47.51183" lon="6.77115">
        <ele>378</ele>
        <time>2016-02-07T10:30:11.000Z</time>
      </trkpt>
      <trkpt lat="47.51186" lon="6.77121">
        <ele>378</ele>
        <time>2016-02-07T10:30:12.000Z</time>
      </trkpt>
      <trkpt lat="47.5119" lon="6.77127">
        <ele>378</ele>
        <time>2016-02-07T10:30:13.000Z</time>
      </trkpt>
      <trkpt lat="47.51194" lon="6.77133">
        <ele>378</ele>
        <time>2016-02-07T10:30:14.000Z</time>
      </trkpt>
      <trkpt lat="47.51196" lon="6.77139">
        <ele>378</ele>
        <time>2016-02-07T10:30:15.000Z</time>
      </trkpt>
      <trkpt lat="47.512" lon="6.77144">
        <ele>378</ele>
        <time>2016-02-07T10:30:16.000Z</time>
      </trkpt>
      <trkpt lat="47.51203" lon="6.77149">
        <ele>378</ele>
        <time>2016-02-07T10:30:17.000Z</time>
      </trkpt>
      <trkpt lat="47.51206" lon="6.77154">
        <ele>378</ele>
        <time>2016-02-07T10:30:18.000Z</time>
      </trkpt>
      <trkpt lat="47.51208" lon="6.77159">
        <ele>378</ele>
        <time>2016-02-07T10:30:19.000Z</time>
      </trkpt>
      <trkpt lat="47.5121" lon="6.77164">
        <ele>378</ele>
        <time>2016-02-07T10:30:20.000Z</time>
      </trkpt>
      <trkpt lat="47.51213" lon="6.77169">
        <ele>376</ele>
        <time>2016-02-07T10:30:21.000Z</time>
      </trkpt>
      <trkpt lat="47.51215" lon="6.77174">
        <ele>376</ele>
        <time>2016-02-07T10:30:22.000Z</time>
      </trkpt>
      <trkpt lat="47.51217" lon="6.77179">
        <ele>376</ele>
        <time>2016-02-07T10:30:23.000Z</time>
      </trkpt>
      <trkpt lat="47.51219" lon="6.77185">
        <ele>376</ele>
        <time>2016-02-07T10:30:24.000Z</time>
      </trkpt>
      <trkpt lat="47.51221" lon="6.77189">
        <ele>376</ele>
        <time>2016-02-07T10:30:25.000Z</time>
      </trkpt>
      <trkpt lat="47.51223" lon="6.77193">
        <ele>376</ele>
        <time>2016-02-07T10:30:26.000Z</time>
      </trkpt>
      <trkpt lat="47.51226" lon="6.77198">
        <ele>376</ele>
        <time>2016-02-07T10:30:27.000Z</time>
      </trkpt>
      <trkpt lat="47.51228" lon="6.77203">
        <ele>376</ele>
        <time>2016-02-07T10:30:28.000Z</time>
      </trkpt>
      <trkpt lat="47.5123" lon="6.77207">
        <ele>376</ele>
        <time>2016-02-07T10:30:29.000Z</time>
      </trkpt>
      <trkpt lat="47.51233" lon="6.77212">
        <ele>376</ele>
        <time>2016-02-07T10:30:30.000Z</time>
      </trkpt>
      <trkpt lat="47.51236" lon="6.77217">
        <ele>376</ele>
        <time>2016-02-07T10:30:31.000Z</time>
      </trkpt>
      <trkpt lat="47.51238" lon="6.77222">
        <ele>376</ele>
        <time>2016-02-07T10:30:32.000Z</time>
      </trkpt>
      <trkpt lat="47.51241" lon="6.77227">
        <ele>376</ele>
        <time>2016-02-07T10:30:33.000Z</time>
      </trkpt>
      <trkpt lat="47.51243" lon="6.77232">
        <ele>377</ele>
        <time>2016-02-07T10:30:34.000Z</time>
      </trkpt>
      <trkpt lat="47.51245" lon="6.77237">
        <ele>377</ele>
        <time>2016-02-07T10:30:35.000Z</time>
      </trkpt>
      <trkpt lat="47.51249" lon="6.77242">
        <ele>378</ele>
        <time>2016-02-07T10:30:36.000Z</time>
      </trkpt>
      <trkpt lat="47.51251" lon="6.77247">
        <ele>379</ele>
        <time>2016-02-07T10:30:37.000Z</time>
      </trkpt>
      <trkpt lat="47.51254" lon="6.77251">
        <ele>379</ele>
        <time>2016-02-07T10:30:38.000Z</time>
      </trkpt>
      <trkpt lat="47.51258" lon="6.77255">
        <ele>378</ele>
        <time>2016-02-07T10:30:39.000Z</time>
      </trkpt>
      <trkpt lat="47.51262" lon="6.77259">
        <ele>378</ele>
        <time>2016-02-07T10:30:40.000Z</time>
      </trkpt>
      <trkpt lat="47.51265" lon="6.77262">
        <ele>377</ele>
        <time>2016-02-07T10:30:41.000Z</time>
      </trkpt>
      <trkpt lat="47.5127" lon="6.77265">
        <ele>377</ele>
        <time>2016-02-07T10:30:42.000Z</time>
      </trkpt>
      <trkpt lat="47.51274" lon="6.77267">
        <ele>377</ele>
        <time>2016-02-07T10:30:43.000Z</time>
      </trkpt>
      <trkpt lat="47.51279" lon="6.77269">
        <ele>377</ele>
        <time>2016-02-07T10:30:44.000Z</time>
      </trkpt>
      <trkpt lat="47.51284" lon="6.77271">
        <ele>377</ele>
        <time>2016-02-07T10:30:45.000Z</time>
      </trkpt>
      <trkpt lat="47.51289" lon="6.77274">
        <ele>377</ele>
        <time>2016-02-07T10:30:46.000Z</time>
      </trkpt>
      <trkpt lat="47.51294" lon="6.77276">
        <ele>377</ele>
        <time>2016-02-07T10:30:47.000Z</time>
      </trkpt>
      <trkpt lat="47.513" lon="6.77278">
        <ele>377</ele>
        <time>2016-02-07T10:30:48.000Z</time>
      </trkpt>
      <trkpt lat="47.51305" lon="6.7728">
        <ele>377</ele>
        <time>2016-02-07T10:30:49.000Z</time>
      </trkpt>
      <trkpt lat="47.51311" lon="6.77282">
        <ele>377</ele>
        <time>2016-02-07T10:30:50.000Z</time>
      </trkpt>
      <trkpt lat="47.51317" lon="6.77284">
        <ele>377</ele>
        <time>2016-02-07T10:30:51.000Z</time>
      </trkpt>
      <trkpt lat="47.51322" lon="6.77286">
        <ele>377</ele>
        <time>2016-02-07T10:30:52.000Z</time>
      </trkpt>
      <trkpt lat="47.51328" lon="6.77285">
        <ele>378</ele>
        <time>2016-02-07T10:30:53.000Z</time>
      </trkpt>
      <trkpt lat="47.51335" lon="6.77283">
        <ele>378</ele>
        <time>2016-02-07T10:30:54.000Z</time>
      </trkpt>
      <trkpt lat="47.5134" lon="6.77279">
        <ele>378</ele>
        <time>2016-02-07T10:30:55.000Z</time>
      </trkpt>
      <trkpt lat="47.51347" lon="6.77274">
        <ele>378</ele>
        <time>2016-02-07T10:30:56.000Z</time>
      </trkpt>
      <trkpt lat="47.51353" lon="6.77269">
        <ele>378</ele>
        <time>2016-02-07T10:30:57.000Z</time>
      </trkpt>
      <trkpt lat="47.5136" lon="6.77262">
        <ele>378</ele>
        <time>2016-02-07T10:30:58.000Z</time>
      </trkpt>
      <trkpt lat="47.51367" lon="6.77256">
        <ele>378</ele>
        <time>2016-02-07T10:30:59.000Z</time>
      </trkpt>
      <trkpt lat="47.51374" lon="6.77251">
        <ele>377</ele>
        <time>2016-02-07T10:31:00.000Z</time>
      </trkpt>
      <trkpt lat="47.51381" lon="6.77246">
        <ele>376</ele>
        <time>2016-02-07T10:31:01.000Z</time>
      </trkpt>
      <trkpt lat="47.51389" lon="6.77241">
        <ele>376</ele>
        <time>2016-02-07T10:31:02.000Z</time>
      </trkpt>
      <trkpt lat="47.51397" lon="6.77237">
        <ele>376</ele>
        <time>2016-02-07T10:31:03.000Z</time>
      </trkpt>
      <trkpt lat="47.51405" lon="6.77233">
        <ele>376</ele>
        <time>2016-02-07T10:31:04.000Z</time>
      </trkpt>
      <trkpt lat="47.51412" lon="6.77229">
        <ele>376</ele>
        <time>2016-02-07T10:31:05.000Z</time>
      </trkpt>
      <trkpt lat="47.5142" lon="6.77225">
        <ele>375</ele>
        <time>2016-02-07T10:31:06.000Z</time>
      </trkpt>
      <trkpt lat="47.51428" lon="6.77221">
        <ele>375</ele>
        <time>2016-02-07T10:31:07.000Z</time>
      </trkpt>
      <trkpt lat="47.51435" lon="6.77217">
        <ele>375</ele>
        <time>2016-02-07T10:31:08.000Z</time>
      </trkpt>
      <trkpt lat="47.51442" lon="6.77214">
        <ele>375</ele>
        <time>2016-02-07T10:31:09.000Z</time>
      </trkpt>
      <trkpt lat="47.51449" lon="6.77211">
        <ele>375</ele>
        <time>2016-02-07T10:31:10.000Z</time>
      </trkpt>
      <trkpt lat="47.51455" lon="6.77208">
        <ele>375</ele>
        <time>2016-02-07T10:31:11.000Z</time>
      </trkpt>
      <trkpt lat="47.5146" lon="6.77205">
        <ele>375</ele>
        <time>2016-02-07T10:31:12.000Z</time>
      </trkpt>
      <trkpt lat="47.51465" lon="6.77203">
        <ele>375</ele>
        <time>2016-02-07T10:31:13.000Z</time>
      </trkpt>
      <trkpt lat="47.5147" lon="6.77201">
        <ele>375</ele>
        <time>2016-02-07T10:31:14.000Z</time>
      </trkpt>
      <trkpt lat="47.51474" lon="6.77201">
        <ele>375</ele>
        <time>2016-02-07T10:31:15.000Z</time>
      </trkpt>
      <trkpt lat="47.51478" lon="6.77206">
        <ele>375</ele>
        <time>2016-02-07T10:31:16.000Z</time>
      </trkpt>
      <trkpt lat="47.51481" lon="6.77212">
        <ele>375</ele>
        <time>2016-02-07T10:31:17.000Z</time>
      </trkpt>
      <trkpt lat="47.51482" lon="6.77217">
        <ele>375</ele>
        <time>2016-02-07T10:31:18.000Z</time>
      </trkpt>
      <trkpt lat="47.51482" lon="6.77224">
        <ele>375</ele>
        <time>2016-02-07T10:31:19.000Z</time>
      </trkpt>
      <trkpt lat="47.51482" lon="6.77231">
        <ele>375</ele>
        <time>2016-02-07T10:31:20.000Z</time>
      </trkpt>
      <trkpt lat="47.51483" lon="6.77239">
        <ele>375</ele>
        <time>2016-02-07T10:31:21.000Z</time>
      </trkpt>
      <trkpt lat="47.51483" lon="6.77246">
        <ele>376</ele>
        <time>2016-02-07T10:31:22.000Z</time>
      </trkpt>
      <trkpt lat="47.51484" lon="6.77253">
        <ele>376</ele>
        <time>2016-02-07T10:31:23.000Z</time>
      </trkpt>
      <trkpt lat="47.51484" lon="6.77261">
        <ele>376</ele>
        <time>2016-02-07T10:31:24.000Z</time>
      </trkpt>
      <trkpt lat="47.51485" lon="6.77268">
        <ele>376</ele>
        <time>2016-02-07T10:31:25.000Z</time>
      </trkpt>
      <trkpt lat="47.51485" lon="6.77275">
        <ele>377</ele>
        <time>2016-02-07T10:31:26.000Z</time>
      </trkpt>
      <trkpt lat="47.51486" lon="6.77283">
        <ele>377</ele>
        <time>2016-02-07T10:31:27.000Z</time>
      </trkpt>
      <trkpt lat="47.51487" lon="6.7729">
        <ele>377</ele>
        <time>2016-02-07T10:31:28.000Z</time>
      </trkpt>
      <trkpt lat="47.51487" lon="6.77297">
        <ele>377</ele>
        <time>2016-02-07T10:31:29.000Z</time>
      </trkpt>
      <trkpt lat="47.51488" lon="6.77304">
        <ele>377</ele>
        <time>2016-02-07T10:31:30.000Z</time>
      </trkpt>
      <trkpt lat="47.51491" lon="6.7731">
        <ele>377</ele>
        <time>2016-02-07T10:31:31.000Z</time>
      </trkpt>
      <trkpt lat="47.51495" lon="6.77315">
        <ele>377</ele>
        <time>2016-02-07T10:31:32.000Z</time>
      </trkpt>
      <trkpt lat="47.51498" lon="6.77319">
        <ele>377</ele>
        <time>2016-02-07T10:31:33.000Z</time>
      </trkpt>
      <trkpt lat="47.51502" lon="6.77322">
        <ele>378</ele>
        <time>2016-02-07T10:31:34.000Z</time>
      </trkpt>
      <trkpt lat="47.51505" lon="6.77324">
        <ele>378</ele>
        <time>2016-02-07T10:31:35.000Z</time>
      </trkpt>
      <trkpt lat="47.51508" lon="6.77328">
        <ele>378</ele>
        <time>2016-02-07T10:31:36.000Z</time>
      </trkpt>
      <trkpt lat="47.51511" lon="6.77331">
        <ele>378</ele>
        <time>2016-02-07T10:31:37.000Z</time>
      </trkpt>
      <trkpt lat="47.51514" lon="6.77334">
        <ele>379</ele>
        <time>2016-02-07T10:31:38.000Z</time>
      </trkpt>
      <trkpt lat="47.51517" lon="6.77337">
        <ele>379</ele>
        <time>2016-02-07T10:31:39.000Z</time>
      </trkpt>
      <trkpt lat="47.51521" lon="6.7734">
        <ele>379</ele>
        <time>2016-02-07T10:31:40.000Z</time>
      </trkpt>
      <trkpt lat="47.51524" lon="6.77344">
        <ele>380</ele>
        <time>2016-02-07T10:31:41.000Z</time>
      </trkpt>
      <trkpt lat="47.51527" lon="6.77348">
        <ele>380</ele>
        <time>2016-02-07T10:31:42.000Z</time>
      </trkpt>
      <trkpt lat="47.5153" lon="6.77351">
        <ele>380</ele>
        <time>2016-02-07T10:31:43.000Z</time>
      </trkpt>
      <trkpt lat="47.51533" lon="6.77355">
        <ele>380</ele>
        <time>2016-02-07T10:31:44.000Z</time>
      </trkpt>
      <trkpt lat="47.51536" lon="6.77358">
        <ele>380</ele>
        <time>2016-02-07T10:31:45.000Z</time>
      </trkpt>
      <trkpt lat="47.51539" lon="6.77362">
        <ele>380</ele>
        <time>2016-02-07T10:31:46.000Z</time>
      </trkpt>
      <trkpt lat="47.51542" lon="6.77365">
        <ele>380</ele>
        <time>2016-02-07T10:31:47.000Z</time>
      </trkpt>
      <trkpt lat="47.51544" lon="6.77368">
        <ele>380</ele>
        <time>2016-02-07T10:31:48.000Z</time>
      </trkpt>
      <trkpt lat="47.51547" lon="6.77372">
        <ele>381</ele>
        <time>2016-02-07T10:31:49.000Z</time>
      </trkpt>
      <trkpt lat="47.5155" lon="6.77376">
        <ele>381</ele>
        <time>2016-02-07T10:31:50.000Z</time>
      </trkpt>
      <trkpt lat="47.51552" lon="6.77379">
        <ele>381</ele>
        <time>2016-02-07T10:31:51.000Z</time>
      </trkpt>
      <trkpt lat="47.51555" lon="6.77383">
        <ele>381</ele>
        <time>2016-02-07T10:31:52.000Z</time>
      </trkpt>
      <trkpt lat="47.51558" lon="6.77386">
        <ele>381</ele>
        <time>2016-02-07T10:31:53.000Z</time>
      </trkpt>
      <trkpt lat="47.51561" lon="6.77388">
        <ele>381</ele>
        <time>2016-02-07T10:31:54.000Z</time>
      </trkpt>
      <trkpt lat="47.51564" lon="6.77391">
        <ele>381</ele>
        <time>2016-02-07T10:31:55.000Z</time>
      </trkpt>
      <trkpt lat="47.51567" lon="6.77394">
        <ele>381</ele>
        <time>2016-02-07T10:31:56.000Z</time>
      </trkpt>
      <trkpt lat="47.51569" lon="6.77397">
        <ele>381</ele>
        <time>2016-02-07T10:31:57.000Z</time>
      </trkpt>
      <trkpt lat="47.51572" lon="6.77401">
        <ele>382</ele>
        <time>2016-02-07T10:31:58.000Z</time>
      </trkpt>
      <trkpt lat="47.51575" lon="6.77404">
        <ele>382</ele>
        <time>2016-02-07T10:31:59.000Z</time>
      </trkpt>
      <trkpt lat="47.51577" lon="6.77407">
        <ele>382</ele>
        <time>2016-02-07T10:32:00.000Z</time>
      </trkpt>
      <trkpt lat="47.5158" lon="6.7741">
        <ele>382</ele>
        <time>2016-02-07T10:32:01.000Z</time>
      </trkpt>
      <trkpt lat="47.51582" lon="6.77413">
        <ele>383</ele>
        <time>2016-02-07T10:32:02.000Z</time>
      </trkpt>
      <trkpt lat="47.51584" lon="6.77417">
        <ele>383</ele>
        <time>2016-02-07T10:32:03.000Z</time>
      </trkpt>
      <trkpt lat="47.51587" lon="6.7742">
        <ele>383</ele>
        <time>2016-02-07T10:32:04.000Z</time>
      </trkpt>
      <trkpt lat="47.51589" lon="6.77424">
        <ele>384</ele>
        <time>2016-02-07T10:32:05.000Z</time>
      </trkpt>
      <trkpt lat="47.51591" lon="6.77427">
        <ele>384</ele>
        <time>2016-02-07T10:32:06.000Z</time>
      </trkpt>
      <trkpt lat="47.51593" lon="6.7743">
        <ele>384</ele>
        <time>2016-02-07T10:32:07.000Z</time>
      </trkpt>
      <trkpt lat="47.51596" lon="6.77433">
        <ele>385</ele>
        <time>2016-02-07T10:32:08.000Z</time>
      </trkpt>
      <trkpt lat="47.51598" lon="6.77436">
        <ele>385</ele>
        <time>2016-02-07T10:32:09.000Z</time>
      </trkpt>
      <trkpt lat="47.516" lon="6.77439">
        <ele>385</ele>
        <time>2016-02-07T10:32:10.000Z</time>
      </trkpt>
      <trkpt lat="47.51602" lon="6.77442">
        <ele>385</ele>
        <time>2016-02-07T10:32:11.000Z</time>
      </trkpt>
      <trkpt lat="47.51604" lon="6.77445">
        <ele>385</ele>
        <time>2016-02-07T10:32:12.000Z</time>
      </trkpt>
      <trkpt lat="47.51606" lon="6.77448">
        <ele>385</ele>
        <time>2016-02-07T10:32:13.000Z</time>
      </trkpt>
      <trkpt lat="47.51608" lon="6.77451">
        <ele>385</ele>
        <time>2016-02-07T10:32:14.000Z</time>
      </trkpt>
      <trkpt lat="47.5161" lon="6.77454">
        <ele>385</ele>
        <time>2016-02-07T10:32:15.000Z</time>
      </trkpt>
      <trkpt lat="47.51612" lon="6.77457">
        <ele>385</ele>
        <time>2016-02-07T10:32:16.000Z</time>
      </trkpt>
      <trkpt lat="47.51614" lon="6.77461">
        <ele>386</ele>
        <time>2016-02-07T10:32:17.000Z</time>
      </trkpt>
      <trkpt lat="47.51616" lon="6.77464">
        <ele>386</ele>
        <time>2016-02-07T10:32:18.000Z</time>
      </trkpt>
      <trkpt lat="47.51618" lon="6.77467">
        <ele>386</ele>
        <time>2016-02-07T10:32:19.000Z</time>
      </trkpt>
      <trkpt lat="47.5162" lon="6.7747">
        <ele>386</ele>
        <time>2016-02-07T10:32:20.000Z</time>
      </trkpt>
      <trkpt lat="47.51623" lon="6.77473">
        <ele>386</ele>
        <time>2016-02-07T10:32:21.000Z</time>
      </trkpt>
      <trkpt lat="47.51625" lon="6.77476">
        <ele>386</ele>
        <time>2016-02-07T10:32:22.000Z</time>
      </trkpt>
      <trkpt lat="47.51627" lon="6.77479">
        <ele>386</ele>
        <time>2016-02-07T10:32:23.000Z</time>
      </trkpt>
      <trkpt lat="47.5163" lon="6.77482">
        <ele>386</ele>
        <time>2016-02-07T10:32:24.000Z</time>
      </trkpt>
      <trkpt lat="47.51632" lon="6.77484">
        <ele>386</ele>
        <time>2016-02-07T10:32:25.000Z</time>
      </trkpt>
      <trkpt lat="47.51635" lon="6.77487">
        <ele>386</ele>
        <time>2016-02-07T10:32:26.000Z</time>
      </trkpt>
      <trkpt lat="47.51638" lon="6.7749">
        <ele>387</ele>
        <time>2016-02-07T10:32:27.000Z</time>
      </trkpt>
      <trkpt lat="47.5164" lon="6.77493">
        <ele>387</ele>
        <time>2016-02-07T10:32:28.000Z</time>
      </trkpt>
      <trkpt lat="47.51643" lon="6.77495">
        <ele>387</ele>
        <time>2016-02-07T10:32:29.000Z</time>
      </trkpt>
      <trkpt lat="47.51645" lon="6.77499">
        <ele>387</ele>
        <time>2016-02-07T10:32:30.000Z</time>
      </trkpt>
      <trkpt lat="47.51648" lon="6.77502">
        <ele>388</ele>
        <time>2016-02-07T10:32:31.000Z</time>
      </trkpt>
      <trkpt lat="47.5165" lon="6.77505">
        <ele>388</ele>
        <time>2016-02-07T10:32:32.000Z</time>
      </trkpt>
      <trkpt lat="47.51653" lon="6.77508">
        <ele>388</ele>
        <time>2016-02-07T10:32:33.000Z</time>
      </trkpt>
      <trkpt lat="47.51656" lon="6.7751">
        <ele>388</ele>
        <time>2016-02-07T10:32:34.000Z</time>
      </trkpt>
      <trkpt lat="47.51659" lon="6.77513">
        <ele>388</ele>
        <time>2016-02-07T10:32:35.000Z</time>
      </trkpt>
      <trkpt lat="47.51661" lon="6.77516">
        <ele>388</ele>
        <time>2016-02-07T10:32:36.000Z</time>
      </trkpt>
      <trkpt lat="47.51664" lon="6.77519">
        <ele>388</ele>
        <time>2016-02-07T10:32:37.000Z</time>
      </trkpt>
      <trkpt lat="47.51666" lon="6.77522">
        <ele>388</ele>
        <time>2016-02-07T10:32:38.000Z</time>
      </trkpt>
      <trkpt lat="47.51669" lon="6.77525">
        <ele>390</ele>
        <time>2016-02-07T10:32:39.000Z</time>
      </trkpt>
      <trkpt lat="47.51671" lon="6.77528">
        <ele>390</ele>
        <time>2016-02-07T10:32:40.000Z</time>
      </trkpt>
      <trkpt lat="47.51674" lon="6.7753">
        <ele>390</ele>
        <time>2016-02-07T10:32:41.000Z</time>
      </trkpt>
      <trkpt lat="47.51677" lon="6.77532">
        <ele>390</ele>
        <time>2016-02-07T10:32:42.000Z</time>
      </trkpt>
      <trkpt lat="47.51679" lon="6.77534">
        <ele>390</ele>
        <time>2016-02-07T10:32:43.000Z</time>
      </trkpt>
      <trkpt lat="47.51682" lon="6.77535">
        <ele>390</ele>
        <time>2016-02-07T10:32:44.000Z</time>
      </trkpt>
      <trkpt lat="47.51685" lon="6.77536">
        <ele>390</ele>
        <time>2016-02-07T10:32:45.000Z</time>
      </trkpt>
      <trkpt lat="47.51688" lon="6.77537">
        <ele>390</ele>
        <time>2016-02-07T10:32:46.000Z</time>
      </trkpt>
      <trkpt lat="47.51691" lon="6.77539">
        <ele>390</ele>
        <time>2016-02-07T10:32:47.000Z</time>
      </trkpt>
      <trkpt lat="47.51694" lon="6.77541">
        <ele>390</ele>
        <time>2016-02-07T10:32:48.000Z</time>
      </trkpt>
      <trkpt lat="47.51697" lon="6.77544">
        <ele>390</ele>
        <time>2016-02-07T10:32:49.000Z</time>
      </trkpt>
      <trkpt lat="47.517" lon="6.77547">
        <ele>390</ele>
        <time>2016-02-07T10:32:50.000Z</time>
      </trkpt>
      <trkpt lat="47.51703" lon="6.7755">
        <ele>390</ele>
        <time>2016-02-07T10:32:51.000Z</time>
      </trkpt>
      <trkpt lat="47.51705" lon="6.77553">
        <ele>390</ele>
        <time>2016-02-07T10:32:52.000Z</time>
      </trkpt>
      <trkpt lat="47.51708" lon="6.77553">
        <ele>390</ele>
        <time>2016-02-07T10:32:53.000Z</time>
      </trkpt>
      <trkpt lat="47.51711" lon="6.77552">
        <ele>390</ele>
        <time>2016-02-07T10:32:54.000Z</time>
      </trkpt>
      <trkpt lat="47.51713" lon="6.77549">
        <ele>390</ele>
        <time>2016-02-07T10:32:55.000Z</time>
      </trkpt>
      <trkpt lat="47.51714" lon="6.77545">
        <ele>390</ele>
        <time>2016-02-07T10:32:56.000Z</time>
      </trkpt>
      <trkpt lat="47.51716" lon="6.77539">
        <ele>390</ele>
        <time>2016-02-07T10:32:57.000Z</time>
      </trkpt>
      <trkpt lat="47.51717" lon="6.77533">
        <ele>390</ele>
        <time>2016-02-07T10:32:58.000Z</time>
      </trkpt>
      <trkpt lat="47.51718" lon="6.77527">
        <ele>390</ele>
        <time>2016-02-07T10:32:59.000Z</time>
      </trkpt>
      <trkpt lat="47.5172" lon="6.77521">
        <ele>390</ele>
        <time>2016-02-07T10:33:00.000Z</time>
      </trkpt>
      <trkpt lat="47.51723" lon="6.77516">
        <ele>390</ele>
        <time>2016-02-07T10:33:01.000Z</time>
      </trkpt>
      <trkpt lat="47.51725" lon="6.7751">
        <ele>390</ele>
        <time>2016-02-07T10:33:02.000Z</time>
      </trkpt>
      <trkpt lat="47.51727" lon="6.77504">
        <ele>390</ele>
        <time>2016-02-07T10:33:03.000Z</time>
      </trkpt>
      <trkpt lat="47.51728" lon="6.77498">
        <ele>389</ele>
        <time>2016-02-07T10:33:04.000Z</time>
      </trkpt>
      <trkpt lat="47.5173" lon="6.77492">
        <ele>389</ele>
        <time>2016-02-07T10:33:05.000Z</time>
      </trkpt>
      <trkpt lat="47.51731" lon="6.77486">
        <ele>389</ele>
        <time>2016-02-07T10:33:06.000Z</time>
      </trkpt>
      <trkpt lat="47.51732" lon="6.77481">
        <ele>389</ele>
        <time>2016-02-07T10:33:07.000Z</time>
      </trkpt>
      <trkpt lat="47.51734" lon="6.77476">
        <ele>389</ele>
        <time>2016-02-07T10:33:08.000Z</time>
      </trkpt>
      <trkpt lat="47.51737" lon="6.77473">
        <ele>389</ele>
        <time>2016-02-07T10:33:09.000Z</time>
      </trkpt>
      <trkpt lat="47.51741" lon="6.77471">
        <ele>389</ele>
        <time>2016-02-07T10:33:10.000Z</time>
      </trkpt>
      <trkpt lat="47.51745" lon="6.77471">
        <ele>389</ele>
        <time>2016-02-07T10:33:11.000Z</time>
      </trkpt>
      <trkpt lat="47.5175" lon="6.77473">
        <ele>389</ele>
        <time>2016-02-07T10:33:12.000Z</time>
      </trkpt>
      <trkpt lat="47.51755" lon="6.77475">
        <ele>389</ele>
        <time>2016-02-07T10:33:13.000Z</time>
      </trkpt>
      <trkpt lat="47.51759" lon="6.77477">
        <ele>389</ele>
        <time>2016-02-07T10:33:14.000Z</time>
      </trkpt>
      <trkpt lat="47.51763" lon="6.77479">
        <ele>389</ele>
        <time>2016-02-07T10:33:15.000Z</time>
      </trkpt>
      <trkpt lat="47.51767" lon="6.7748">
        <ele>389</ele>
        <time>2016-02-07T10:33:16.000Z</time>
      </trkpt>
      <trkpt lat="47.51772" lon="6.77482">
        <ele>388</ele>
        <time>2016-02-07T10:33:17.000Z</time>
      </trkpt>
      <trkpt lat="47.51776" lon="6.77483">
        <ele>388</ele>
        <time>2016-02-07T10:33:18.000Z</time>
      </trkpt>
      <trkpt lat="47.51781" lon="6.77486">
        <ele>388</ele>
        <time>2016-02-07T10:33:19.000Z</time>
      </trkpt>
      <trkpt lat="47.51785" lon="6.77488">
        <ele>388</ele>
        <time>2016-02-07T10:33:20.000Z</time>
      </trkpt>
      <trkpt lat="47.5179" lon="6.77491">
        <ele>388</ele>
        <time>2016-02-07T10:33:21.000Z</time>
      </trkpt>
      <trkpt lat="47.51794" lon="6.77493">
        <ele>388</ele>
        <time>2016-02-07T10:33:22.000Z</time>
      </trkpt>
      <trkpt lat="47.51798" lon="6.77495">
        <ele>388</ele>
        <time>2016-02-07T10:33:23.000Z</time>
      </trkpt>
      <trkpt lat="47.51802" lon="6.77496">
        <ele>388</ele>
        <time>2016-02-07T10:33:24.000Z</time>
      </trkpt>
      <trkpt lat="47.51805" lon="6.77494">
        <ele>388</ele>
        <time>2016-02-07T10:33:25.000Z</time>
      </trkpt>
      <trkpt lat="47.51807" lon="6.7749">
        <ele>388</ele>
        <time>2016-02-07T10:33:26.000Z</time>
      </trkpt>
      <trkpt lat="47.51807" lon="6.77486">
        <ele>388</ele>
        <time>2016-02-07T10:33:27.000Z</time>
      </trkpt>
      <trkpt lat="47.51806" lon="6.77479">
        <ele>388</ele>
        <time>2016-02-07T10:33:29.000Z</time>
      </trkpt>
      <trkpt lat="47.51805" lon="6.77478">
        <ele>388</ele>
        <time>2016-02-07T10:33:30.000Z</time>
      </trkpt>
      <trkpt lat="47.51802" lon="6.77478">
        <ele>388</ele>
        <time>2016-02-07T10:33:48.000Z</time>
      </trkpt>
      <trkpt lat="47.51801" lon="6.77478">
        <ele>388</ele>
        <time>2016-02-07T10:33:49.000Z</time>
      </trkpt>
      <trkpt lat="47.51802" lon="6.77472">
        <ele>388</ele>
        <time>2016-02-07T10:33:56.000Z</time>
      </trkpt>
      <trkpt lat="47.51802" lon="6.77471">
        <ele>388</ele>
        <time>2016-02-07T10:33:57.000Z</time>
      </trkpt>
      <trkpt lat="47.51806" lon="6.77474">
        <ele>388</ele>
        <time>2016-02-07T10:34:35.000Z</time>
      </trkpt>
      <trkpt lat="47.51806" lon="6.77475">
        <ele>388</ele>
        <time>2016-02-07T10:34:36.000Z</time>
      </trkpt>
      <trkpt lat="47.51803" lon="6.77479">
        <ele>388</ele>
        <time>2016-02-07T10:37:25.000Z</time>
      </trkpt>
      <trkpt lat="47.51802" lon="6.77479">
        <ele>388</ele>
        <time>2016-02-07T10:37:26.000Z</time>
      </trkpt>
      <trkpt lat="47.51806" lon="6.77479">
        <ele>388</ele>
        <time>2016-02-07T10:38:31.000Z</time>
      </trkpt>
      <trkpt lat="47.51806" lon="6.77478">
        <ele>388</ele>
        <time>2016-02-07T10:38:32.000Z</time>
      </trkpt>
      <trkpt lat="47.51804" lon="6.77476">
        <ele>388</ele>
        <time>2016-02-07T10:48:56.000Z</time>
      </trkpt>
    </trkseg>
  </trk>
</gpx>